<?xml version="1.0" encoding="UTF-8" standalone="no" ?>
<gpx xmlns="http://www.topografix.com/GPX/1/1" xmlns:xsi="http://www.w3.org/2001/XMLSchema-instance" xsi:schemaLocation="http://www.topografix.com/GPX/1/1 http://www.topografix.com/GPX/1/1/gpx.xsd" version="1.1" creator="VisuGPX - https://www.visugpx.com">
  <metadata>
    <name>24 ventoux</name>
  </metadata>
  <trk>
    <name><![CDATA[24 ventoux_1]]></name>
    <trkseg>
      <trkpt lat="44.17542" lon="5.13169">
        <ele>322.6</ele>
        <time>2022-07-21T04:22:42Z</time>
      </trkpt>
      <trkpt lat="44.17541" lon="5.1317">
        <ele>322.7</ele>
        <time>2022-07-21T04:22:43Z</time>
      </trkpt>
      <trkpt lat="44.1754" lon="5.13172">
        <ele>322.7</ele>
        <time>2022-07-21T04:22:44Z</time>
      </trkpt>
      <trkpt lat="44.17537" lon="5.13174">
        <ele>322.8</ele>
        <time>2022-07-21T04:22:45Z</time>
      </trkpt>
      <trkpt lat="44.17536" lon="5.13174">
        <ele>322.8</ele>
        <time>2022-07-21T04:22:46Z</time>
      </trkpt>
      <trkpt lat="44.17533" lon="5.13175">
        <ele>322.9</ele>
        <time>2022-07-21T04:22:47Z</time>
      </trkpt>
      <trkpt lat="44.17532" lon="5.13176">
        <ele>322.9</ele>
        <time>2022-07-21T04:22:48Z</time>
      </trkpt>
      <trkpt lat="44.17528" lon="5.13179">
        <ele>323</ele>
        <time>2022-07-21T04:22:49Z</time>
      </trkpt>
      <trkpt lat="44.17527" lon="5.1318">
        <ele>323</ele>
        <time>2022-07-21T04:22:50Z</time>
      </trkpt>
      <trkpt lat="44.17524" lon="5.13182">
        <ele>323.1</ele>
        <time>2022-07-21T04:22:51Z</time>
      </trkpt>
      <trkpt lat="44.17524" lon="5.13183">
        <ele>323.2</ele>
        <time>2022-07-21T04:22:52Z</time>
      </trkpt>
      <trkpt lat="44.17521" lon="5.13185">
        <ele>323.2</ele>
        <time>2022-07-21T04:22:53Z</time>
      </trkpt>
      <trkpt lat="44.17519" lon="5.13187">
        <ele>323.3</ele>
        <time>2022-07-21T04:22:54Z</time>
      </trkpt>
      <trkpt lat="44.17516" lon="5.13189">
        <ele>323.4</ele>
        <time>2022-07-21T04:22:55Z</time>
      </trkpt>
      <trkpt lat="44.17514" lon="5.13192">
        <ele>323.5</ele>
        <time>2022-07-21T04:22:56Z</time>
      </trkpt>
      <trkpt lat="44.17512" lon="5.13194">
        <ele>323.6</ele>
        <time>2022-07-21T04:22:57Z</time>
      </trkpt>
      <trkpt lat="44.17508" lon="5.13197">
        <ele>323.7</ele>
        <time>2022-07-21T04:22:58Z</time>
      </trkpt>
      <trkpt lat="44.17507" lon="5.13198">
        <ele>323.8</ele>
        <time>2022-07-21T04:22:59Z</time>
      </trkpt>
      <trkpt lat="44.17504" lon="5.13202">
        <ele>323.9</ele>
        <time>2022-07-21T04:23:00Z</time>
      </trkpt>
      <trkpt lat="44.17503" lon="5.13203">
        <ele>323.9</ele>
        <time>2022-07-21T04:23:01Z</time>
      </trkpt>
      <trkpt lat="44.175" lon="5.13205">
        <ele>324</ele>
        <time>2022-07-21T04:23:02Z</time>
      </trkpt>
      <trkpt lat="44.17495" lon="5.13209">
        <ele>324.2</ele>
        <time>2022-07-21T04:23:03Z</time>
      </trkpt>
      <trkpt lat="44.17492" lon="5.13211">
        <ele>324.2</ele>
        <time>2022-07-21T04:23:04Z</time>
      </trkpt>
      <trkpt lat="44.1749" lon="5.13213">
        <ele>324.3</ele>
        <time>2022-07-21T04:23:05Z</time>
      </trkpt>
      <trkpt lat="44.17487" lon="5.13216">
        <ele>324.4</ele>
        <time>2022-07-21T04:23:06Z</time>
      </trkpt>
      <trkpt lat="44.17485" lon="5.13218">
        <ele>324.5</ele>
        <time>2022-07-21T04:23:07Z</time>
      </trkpt>
      <trkpt lat="44.17483" lon="5.1322">
        <ele>324.6</ele>
        <time>2022-07-21T04:23:08Z</time>
      </trkpt>
      <trkpt lat="44.17481" lon="5.13223">
        <ele>324.7</ele>
        <time>2022-07-21T04:23:09Z</time>
      </trkpt>
      <trkpt lat="44.17478" lon="5.13225">
        <ele>324.8</ele>
        <time>2022-07-21T04:23:10Z</time>
      </trkpt>
      <trkpt lat="44.17476" lon="5.13228">
        <ele>324.9</ele>
        <time>2022-07-21T04:23:11Z</time>
      </trkpt>
      <trkpt lat="44.17473" lon="5.13231">
        <ele>325</ele>
        <time>2022-07-21T04:23:12Z</time>
      </trkpt>
      <trkpt lat="44.17471" lon="5.13232">
        <ele>325</ele>
        <time>2022-07-21T04:23:13Z</time>
      </trkpt>
      <trkpt lat="44.17469" lon="5.13235">
        <ele>325.1</ele>
        <time>2022-07-21T04:23:14Z</time>
      </trkpt>
      <trkpt lat="44.17467" lon="5.13237">
        <ele>325.2</ele>
        <time>2022-07-21T04:23:15Z</time>
      </trkpt>
      <trkpt lat="44.17464" lon="5.1324">
        <ele>325.3</ele>
        <time>2022-07-21T04:23:16Z</time>
      </trkpt>
      <trkpt lat="44.17461" lon="5.13243">
        <ele>325.5</ele>
        <time>2022-07-21T04:23:17Z</time>
      </trkpt>
      <trkpt lat="44.17459" lon="5.13245">
        <ele>325.6</ele>
        <time>2022-07-21T04:23:18Z</time>
      </trkpt>
      <trkpt lat="44.17456" lon="5.13248">
        <ele>325.7</ele>
        <time>2022-07-21T04:23:19Z</time>
      </trkpt>
      <trkpt lat="44.17453" lon="5.13251">
        <ele>325.8</ele>
        <time>2022-07-21T04:23:20Z</time>
      </trkpt>
      <trkpt lat="44.17451" lon="5.13253">
        <ele>325.9</ele>
        <time>2022-07-21T04:23:21Z</time>
      </trkpt>
      <trkpt lat="44.17448" lon="5.13256">
        <ele>326</ele>
        <time>2022-07-21T04:23:22Z</time>
      </trkpt>
      <trkpt lat="44.17445" lon="5.13258">
        <ele>326.1</ele>
        <time>2022-07-21T04:23:23Z</time>
      </trkpt>
      <trkpt lat="44.17443" lon="5.13261">
        <ele>326.2</ele>
        <time>2022-07-21T04:23:24Z</time>
      </trkpt>
      <trkpt lat="44.17441" lon="5.13264">
        <ele>326.3</ele>
        <time>2022-07-21T04:23:25Z</time>
      </trkpt>
      <trkpt lat="44.17438" lon="5.13266">
        <ele>326.4</ele>
        <time>2022-07-21T04:23:26Z</time>
      </trkpt>
      <trkpt lat="44.17436" lon="5.13268">
        <ele>326.5</ele>
        <time>2022-07-21T04:23:27Z</time>
      </trkpt>
      <trkpt lat="44.17433" lon="5.13271">
        <ele>326.6</ele>
        <time>2022-07-21T04:23:28Z</time>
      </trkpt>
      <trkpt lat="44.17431" lon="5.13273">
        <ele>326.7</ele>
        <time>2022-07-21T04:23:29Z</time>
      </trkpt>
      <trkpt lat="44.17428" lon="5.13276">
        <ele>326.8</ele>
        <time>2022-07-21T04:23:30Z</time>
      </trkpt>
      <trkpt lat="44.17426" lon="5.13279">
        <ele>326.9</ele>
        <time>2022-07-21T04:23:31Z</time>
      </trkpt>
      <trkpt lat="44.17423" lon="5.13281">
        <ele>327</ele>
        <time>2022-07-21T04:23:32Z</time>
      </trkpt>
      <trkpt lat="44.17421" lon="5.13284">
        <ele>327.2</ele>
        <time>2022-07-21T04:23:33Z</time>
      </trkpt>
      <trkpt lat="44.17418" lon="5.13286">
        <ele>327.3</ele>
        <time>2022-07-21T04:23:34Z</time>
      </trkpt>
      <trkpt lat="44.17415" lon="5.13289">
        <ele>327.4</ele>
        <time>2022-07-21T04:23:35Z</time>
      </trkpt>
      <trkpt lat="44.17415" lon="5.1329">
        <ele>327.4</ele>
        <time>2022-07-21T04:23:36Z</time>
      </trkpt>
      <trkpt lat="44.17411" lon="5.13293">
        <ele>327.6</ele>
        <time>2022-07-21T04:23:37Z</time>
      </trkpt>
      <trkpt lat="44.1741" lon="5.13294">
        <ele>327.6</ele>
        <time>2022-07-21T04:23:38Z</time>
      </trkpt>
      <trkpt lat="44.17407" lon="5.13297">
        <ele>327.7</ele>
        <time>2022-07-21T04:23:39Z</time>
      </trkpt>
      <trkpt lat="44.17404" lon="5.13299">
        <ele>327.8</ele>
        <time>2022-07-21T04:23:40Z</time>
      </trkpt>
      <trkpt lat="44.17402" lon="5.13301">
        <ele>327.9</ele>
        <time>2022-07-21T04:23:41Z</time>
      </trkpt>
      <trkpt lat="44.17399" lon="5.13304">
        <ele>328</ele>
        <time>2022-07-21T04:23:42Z</time>
      </trkpt>
      <trkpt lat="44.17397" lon="5.13306">
        <ele>328.1</ele>
        <time>2022-07-21T04:23:43Z</time>
      </trkpt>
      <trkpt lat="44.17395" lon="5.13309">
        <ele>328.1</ele>
        <time>2022-07-21T04:23:44Z</time>
      </trkpt>
      <trkpt lat="44.17392" lon="5.13312">
        <ele>328.2</ele>
        <time>2022-07-21T04:23:45Z</time>
      </trkpt>
      <trkpt lat="44.1739" lon="5.13315">
        <ele>328.2</ele>
        <time>2022-07-21T04:23:46Z</time>
      </trkpt>
      <trkpt lat="44.17388" lon="5.13318">
        <ele>328.3</ele>
        <time>2022-07-21T04:23:47Z</time>
      </trkpt>
      <trkpt lat="44.17385" lon="5.13321">
        <ele>328.4</ele>
        <time>2022-07-21T04:23:48Z</time>
      </trkpt>
      <trkpt lat="44.17383" lon="5.13323">
        <ele>328.4</ele>
        <time>2022-07-21T04:23:49Z</time>
      </trkpt>
      <trkpt lat="44.1738" lon="5.13326">
        <ele>328.5</ele>
        <time>2022-07-21T04:23:50Z</time>
      </trkpt>
      <trkpt lat="44.17378" lon="5.13329">
        <ele>328.6</ele>
        <time>2022-07-21T04:23:51Z</time>
      </trkpt>
      <trkpt lat="44.17375" lon="5.13331">
        <ele>328.6</ele>
        <time>2022-07-21T04:23:52Z</time>
      </trkpt>
      <trkpt lat="44.17373" lon="5.13334">
        <ele>328.7</ele>
        <time>2022-07-21T04:23:53Z</time>
      </trkpt>
      <trkpt lat="44.1737" lon="5.13337">
        <ele>328.9</ele>
        <time>2022-07-21T04:23:54Z</time>
      </trkpt>
      <trkpt lat="44.17367" lon="5.1334">
        <ele>329</ele>
        <time>2022-07-21T04:23:55Z</time>
      </trkpt>
      <trkpt lat="44.17365" lon="5.13342">
        <ele>329.1</ele>
        <time>2022-07-21T04:23:56Z</time>
      </trkpt>
      <trkpt lat="44.17362" lon="5.13344">
        <ele>329.2</ele>
        <time>2022-07-21T04:23:57Z</time>
      </trkpt>
      <trkpt lat="44.17359" lon="5.13348">
        <ele>329.4</ele>
        <time>2022-07-21T04:23:58Z</time>
      </trkpt>
      <trkpt lat="44.17358" lon="5.13349">
        <ele>329.4</ele>
        <time>2022-07-21T04:23:59Z</time>
      </trkpt>
      <trkpt lat="44.17355" lon="5.13352">
        <ele>329.6</ele>
        <time>2022-07-21T04:24:00Z</time>
      </trkpt>
      <trkpt lat="44.17353" lon="5.13353">
        <ele>329.6</ele>
        <time>2022-07-21T04:24:01Z</time>
      </trkpt>
      <trkpt lat="44.1735" lon="5.13356">
        <ele>329.8</ele>
        <time>2022-07-21T04:24:02Z</time>
      </trkpt>
      <trkpt lat="44.17349" lon="5.13357">
        <ele>329.8</ele>
        <time>2022-07-21T04:24:03Z</time>
      </trkpt>
      <trkpt lat="44.17345" lon="5.13359">
        <ele>330</ele>
        <time>2022-07-21T04:24:04Z</time>
      </trkpt>
      <trkpt lat="44.17344" lon="5.1336">
        <ele>330.1</ele>
        <time>2022-07-21T04:24:05Z</time>
      </trkpt>
      <trkpt lat="44.17341" lon="5.1336">
        <ele>330.3</ele>
        <time>2022-07-21T04:24:06Z</time>
      </trkpt>
      <trkpt lat="44.17339" lon="5.13361">
        <ele>330.4</ele>
        <time>2022-07-21T04:24:07Z</time>
      </trkpt>
      <trkpt lat="44.17336" lon="5.13362">
        <ele>330.6</ele>
        <time>2022-07-21T04:24:08Z</time>
      </trkpt>
      <trkpt lat="44.17333" lon="5.13363">
        <ele>330.7</ele>
        <time>2022-07-21T04:24:09Z</time>
      </trkpt>
      <trkpt lat="44.17329" lon="5.13364">
        <ele>331</ele>
        <time>2022-07-21T04:24:10Z</time>
      </trkpt>
      <trkpt lat="44.17328" lon="5.13364">
        <ele>331</ele>
        <time>2022-07-21T04:24:11Z</time>
      </trkpt>
      <trkpt lat="44.17325" lon="5.13365">
        <ele>331.2</ele>
        <time>2022-07-21T04:24:12Z</time>
      </trkpt>
      <trkpt lat="44.17322" lon="5.13368">
        <ele>331.4</ele>
        <time>2022-07-21T04:24:13Z</time>
      </trkpt>
      <trkpt lat="44.1732" lon="5.13371">
        <ele>331.4</ele>
        <time>2022-07-21T04:24:14Z</time>
      </trkpt>
      <trkpt lat="44.17319" lon="5.13376">
        <ele>331.7</ele>
        <time>2022-07-21T04:24:15Z</time>
      </trkpt>
      <trkpt lat="44.17319" lon="5.1338">
        <ele>331.9</ele>
        <time>2022-07-21T04:24:16Z</time>
      </trkpt>
      <trkpt lat="44.17318" lon="5.13383">
        <ele>332.1</ele>
        <time>2022-07-21T04:24:17Z</time>
      </trkpt>
      <trkpt lat="44.17317" lon="5.13387">
        <ele>332.3</ele>
        <time>2022-07-21T04:24:18Z</time>
      </trkpt>
      <trkpt lat="44.17316" lon="5.13391">
        <ele>332.5</ele>
        <time>2022-07-21T04:24:19Z</time>
      </trkpt>
      <trkpt lat="44.17315" lon="5.13395">
        <ele>332.7</ele>
        <time>2022-07-21T04:24:20Z</time>
      </trkpt>
      <trkpt lat="44.17314" lon="5.13398">
        <ele>332.9</ele>
        <time>2022-07-21T04:24:21Z</time>
      </trkpt>
      <trkpt lat="44.17313" lon="5.13403">
        <ele>333.2</ele>
        <time>2022-07-21T04:24:22Z</time>
      </trkpt>
      <trkpt lat="44.17313" lon="5.13405">
        <ele>333.3</ele>
        <time>2022-07-21T04:24:23Z</time>
      </trkpt>
      <trkpt lat="44.17312" lon="5.1341">
        <ele>333.6</ele>
        <time>2022-07-21T04:24:24Z</time>
      </trkpt>
      <trkpt lat="44.17312" lon="5.13412">
        <ele>333.7</ele>
        <time>2022-07-21T04:24:25Z</time>
      </trkpt>
      <trkpt lat="44.17311" lon="5.13417">
        <ele>333.9</ele>
        <time>2022-07-21T04:24:26Z</time>
      </trkpt>
      <trkpt lat="44.17311" lon="5.13419">
        <ele>334</ele>
        <time>2022-07-21T04:24:27Z</time>
      </trkpt>
      <trkpt lat="44.17311" lon="5.13424">
        <ele>334.3</ele>
        <time>2022-07-21T04:24:28Z</time>
      </trkpt>
      <trkpt lat="44.1731" lon="5.13426">
        <ele>334.4</ele>
        <time>2022-07-21T04:24:29Z</time>
      </trkpt>
      <trkpt lat="44.1731" lon="5.13431">
        <ele>334.5</ele>
        <time>2022-07-21T04:24:30Z</time>
      </trkpt>
      <trkpt lat="44.1731" lon="5.13433">
        <ele>334.5</ele>
        <time>2022-07-21T04:24:31Z</time>
      </trkpt>
      <trkpt lat="44.17309" lon="5.13438">
        <ele>334.6</ele>
        <time>2022-07-21T04:24:32Z</time>
      </trkpt>
      <trkpt lat="44.17309" lon="5.1344">
        <ele>334.7</ele>
        <time>2022-07-21T04:24:33Z</time>
      </trkpt>
      <trkpt lat="44.17309" lon="5.13444">
        <ele>334.8</ele>
        <time>2022-07-21T04:24:34Z</time>
      </trkpt>
      <trkpt lat="44.17309" lon="5.13449">
        <ele>335</ele>
        <time>2022-07-21T04:24:35Z</time>
      </trkpt>
      <trkpt lat="44.17309" lon="5.13451">
        <ele>335</ele>
        <time>2022-07-21T04:24:36Z</time>
      </trkpt>
      <trkpt lat="44.17309" lon="5.13456">
        <ele>335.2</ele>
        <time>2022-07-21T04:24:37Z</time>
      </trkpt>
      <trkpt lat="44.17309" lon="5.13458">
        <ele>335.2</ele>
        <time>2022-07-21T04:24:38Z</time>
      </trkpt>
      <trkpt lat="44.17309" lon="5.13463">
        <ele>335.4</ele>
        <time>2022-07-21T04:24:39Z</time>
      </trkpt>
      <trkpt lat="44.17308" lon="5.13464">
        <ele>335.4</ele>
        <time>2022-07-21T04:24:40Z</time>
      </trkpt>
      <trkpt lat="44.17308" lon="5.13469">
        <ele>335.6</ele>
        <time>2022-07-21T04:24:41Z</time>
      </trkpt>
      <trkpt lat="44.17308" lon="5.13471">
        <ele>335.6</ele>
        <time>2022-07-21T04:24:42Z</time>
      </trkpt>
      <trkpt lat="44.17308" lon="5.13476">
        <ele>335.8</ele>
        <time>2022-07-21T04:24:43Z</time>
      </trkpt>
      <trkpt lat="44.17308" lon="5.13478">
        <ele>335.9</ele>
        <time>2022-07-21T04:24:44Z</time>
      </trkpt>
      <trkpt lat="44.17308" lon="5.13483">
        <ele>336.1</ele>
        <time>2022-07-21T04:24:45Z</time>
      </trkpt>
      <trkpt lat="44.17308" lon="5.13484">
        <ele>336.1</ele>
        <time>2022-07-21T04:24:46Z</time>
      </trkpt>
      <trkpt lat="44.17309" lon="5.1349">
        <ele>336.3</ele>
        <time>2022-07-21T04:24:47Z</time>
      </trkpt>
      <trkpt lat="44.17309" lon="5.13491">
        <ele>336.4</ele>
        <time>2022-07-21T04:24:48Z</time>
      </trkpt>
      <trkpt lat="44.17309" lon="5.13496">
        <ele>336.6</ele>
        <time>2022-07-21T04:24:49Z</time>
      </trkpt>
      <trkpt lat="44.17309" lon="5.13498">
        <ele>336.7</ele>
        <time>2022-07-21T04:24:50Z</time>
      </trkpt>
      <trkpt lat="44.17309" lon="5.13503">
        <ele>336.9</ele>
        <time>2022-07-21T04:24:51Z</time>
      </trkpt>
      <trkpt lat="44.17309" lon="5.13504">
        <ele>336.9</ele>
        <time>2022-07-21T04:24:52Z</time>
      </trkpt>
      <trkpt lat="44.17309" lon="5.13509">
        <ele>337</ele>
        <time>2022-07-21T04:24:53Z</time>
      </trkpt>
      <trkpt lat="44.17309" lon="5.1351">
        <ele>337</ele>
        <time>2022-07-21T04:24:54Z</time>
      </trkpt>
      <trkpt lat="44.17309" lon="5.13514">
        <ele>337</ele>
        <time>2022-07-21T04:24:55Z</time>
      </trkpt>
      <trkpt lat="44.17309" lon="5.13516">
        <ele>337</ele>
        <time>2022-07-21T04:24:56Z</time>
      </trkpt>
      <trkpt lat="44.1731" lon="5.13521">
        <ele>337.1</ele>
        <time>2022-07-21T04:24:57Z</time>
      </trkpt>
      <trkpt lat="44.1731" lon="5.13522">
        <ele>337.1</ele>
        <time>2022-07-21T04:24:58Z</time>
      </trkpt>
      <trkpt lat="44.1731" lon="5.13527">
        <ele>337.3</ele>
        <time>2022-07-21T04:24:59Z</time>
      </trkpt>
      <trkpt lat="44.17311" lon="5.13528">
        <ele>337.4</ele>
        <time>2022-07-21T04:25:00Z</time>
      </trkpt>
      <trkpt lat="44.17311" lon="5.13533">
        <ele>337.6</ele>
        <time>2022-07-21T04:25:01Z</time>
      </trkpt>
      <trkpt lat="44.17311" lon="5.13534">
        <ele>337.7</ele>
        <time>2022-07-21T04:25:02Z</time>
      </trkpt>
      <trkpt lat="44.17311" lon="5.13539">
        <ele>338</ele>
        <time>2022-07-21T04:25:03Z</time>
      </trkpt>
      <trkpt lat="44.17311" lon="5.13541">
        <ele>338.1</ele>
        <time>2022-07-21T04:25:04Z</time>
      </trkpt>
      <trkpt lat="44.17311" lon="5.13546">
        <ele>338.3</ele>
        <time>2022-07-21T04:25:05Z</time>
      </trkpt>
      <trkpt lat="44.17311" lon="5.13548">
        <ele>338.4</ele>
        <time>2022-07-21T04:25:06Z</time>
      </trkpt>
      <trkpt lat="44.17311" lon="5.13552">
        <ele>338.6</ele>
        <time>2022-07-21T04:25:07Z</time>
      </trkpt>
      <trkpt lat="44.17311" lon="5.13553">
        <ele>338.7</ele>
        <time>2022-07-21T04:25:08Z</time>
      </trkpt>
      <trkpt lat="44.1731" lon="5.13558">
        <ele>338.9</ele>
        <time>2022-07-21T04:25:09Z</time>
      </trkpt>
      <trkpt lat="44.1731" lon="5.13559">
        <ele>338.9</ele>
        <time>2022-07-21T04:25:10Z</time>
      </trkpt>
      <trkpt lat="44.17309" lon="5.13563">
        <ele>339.1</ele>
        <time>2022-07-21T04:25:11Z</time>
      </trkpt>
      <trkpt lat="44.17309" lon="5.13565">
        <ele>339.2</ele>
        <time>2022-07-21T04:25:12Z</time>
      </trkpt>
      <trkpt lat="44.17309" lon="5.13569">
        <ele>339.4</ele>
        <time>2022-07-21T04:25:13Z</time>
      </trkpt>
      <trkpt lat="44.17309" lon="5.13571">
        <ele>339.4</ele>
        <time>2022-07-21T04:25:14Z</time>
      </trkpt>
      <trkpt lat="44.17308" lon="5.13575">
        <ele>339.6</ele>
        <time>2022-07-21T04:25:15Z</time>
      </trkpt>
      <trkpt lat="44.17308" lon="5.13577">
        <ele>339.7</ele>
        <time>2022-07-21T04:25:16Z</time>
      </trkpt>
      <trkpt lat="44.17308" lon="5.13581">
        <ele>339.8</ele>
        <time>2022-07-21T04:25:17Z</time>
      </trkpt>
      <trkpt lat="44.17308" lon="5.13583">
        <ele>339.9</ele>
        <time>2022-07-21T04:25:18Z</time>
      </trkpt>
      <trkpt lat="44.17308" lon="5.13587">
        <ele>340.1</ele>
        <time>2022-07-21T04:25:19Z</time>
      </trkpt>
      <trkpt lat="44.17307" lon="5.13589">
        <ele>340.2</ele>
        <time>2022-07-21T04:25:20Z</time>
      </trkpt>
      <trkpt lat="44.17307" lon="5.13593">
        <ele>340.4</ele>
        <time>2022-07-21T04:25:21Z</time>
      </trkpt>
      <trkpt lat="44.17307" lon="5.13595">
        <ele>340.4</ele>
        <time>2022-07-21T04:25:22Z</time>
      </trkpt>
      <trkpt lat="44.17306" lon="5.13597">
        <ele>340.5</ele>
        <time>2022-07-21T04:25:23Z</time>
      </trkpt>
      <trkpt lat="44.17306" lon="5.13599">
        <ele>340.6</ele>
        <time>2022-07-21T04:25:24Z</time>
      </trkpt>
      <trkpt lat="44.17305" lon="5.13601">
        <ele>340.7</ele>
        <time>2022-07-21T04:25:25Z</time>
      </trkpt>
      <trkpt lat="44.17304" lon="5.13604">
        <ele>340.8</ele>
        <time>2022-07-21T04:25:26Z</time>
      </trkpt>
      <trkpt lat="44.17303" lon="5.13607">
        <ele>341</ele>
        <time>2022-07-21T04:25:27Z</time>
      </trkpt>
      <trkpt lat="44.17303" lon="5.13608">
        <ele>341.1</ele>
        <time>2022-07-21T04:25:28Z</time>
      </trkpt>
      <trkpt lat="44.17302" lon="5.13612">
        <ele>341.4</ele>
        <time>2022-07-21T04:25:29Z</time>
      </trkpt>
      <trkpt lat="44.17302" lon="5.13613">
        <ele>341.4</ele>
        <time>2022-07-21T04:25:30Z</time>
      </trkpt>
      <trkpt lat="44.17301" lon="5.13617">
        <ele>341.7</ele>
        <time>2022-07-21T04:25:31Z</time>
      </trkpt>
      <trkpt lat="44.173" lon="5.13618">
        <ele>341.8</ele>
        <time>2022-07-21T04:25:32Z</time>
      </trkpt>
      <trkpt lat="44.17299" lon="5.13621">
        <ele>342.1</ele>
        <time>2022-07-21T04:25:33Z</time>
      </trkpt>
      <trkpt lat="44.17298" lon="5.13622">
        <ele>342.2</ele>
        <time>2022-07-21T04:25:34Z</time>
      </trkpt>
      <trkpt lat="44.17297" lon="5.13626">
        <ele>342.5</ele>
        <time>2022-07-21T04:25:35Z</time>
      </trkpt>
      <trkpt lat="44.17297" lon="5.13627">
        <ele>342.6</ele>
        <time>2022-07-21T04:25:36Z</time>
      </trkpt>
      <trkpt lat="44.17296" lon="5.13631">
        <ele>342.9</ele>
        <time>2022-07-21T04:25:37Z</time>
      </trkpt>
      <trkpt lat="44.17296" lon="5.13632">
        <ele>343</ele>
        <time>2022-07-21T04:25:38Z</time>
      </trkpt>
      <trkpt lat="44.17295" lon="5.13636">
        <ele>343.3</ele>
        <time>2022-07-21T04:25:39Z</time>
      </trkpt>
      <trkpt lat="44.17294" lon="5.13638">
        <ele>343.5</ele>
        <time>2022-07-21T04:25:40Z</time>
      </trkpt>
      <trkpt lat="44.17294" lon="5.13643">
        <ele>343.8</ele>
        <time>2022-07-21T04:25:41Z</time>
      </trkpt>
      <trkpt lat="44.17293" lon="5.13644">
        <ele>343.9</ele>
        <time>2022-07-21T04:25:42Z</time>
      </trkpt>
      <trkpt lat="44.17293" lon="5.13648">
        <ele>344.3</ele>
        <time>2022-07-21T04:25:43Z</time>
      </trkpt>
      <trkpt lat="44.17292" lon="5.1365">
        <ele>344.4</ele>
        <time>2022-07-21T04:25:44Z</time>
      </trkpt>
      <trkpt lat="44.17292" lon="5.13654">
        <ele>344.5</ele>
        <time>2022-07-21T04:25:45Z</time>
      </trkpt>
      <trkpt lat="44.17291" lon="5.13655">
        <ele>344.5</ele>
        <time>2022-07-21T04:25:46Z</time>
      </trkpt>
      <trkpt lat="44.17291" lon="5.1366">
        <ele>344.6</ele>
        <time>2022-07-21T04:25:47Z</time>
      </trkpt>
      <trkpt lat="44.1729" lon="5.13661">
        <ele>344.6</ele>
        <time>2022-07-21T04:25:48Z</time>
      </trkpt>
      <trkpt lat="44.17289" lon="5.13666">
        <ele>344.7</ele>
        <time>2022-07-21T04:25:49Z</time>
      </trkpt>
      <trkpt lat="44.17289" lon="5.13667">
        <ele>344.7</ele>
        <time>2022-07-21T04:25:50Z</time>
      </trkpt>
      <trkpt lat="44.17288" lon="5.13671">
        <ele>344.7</ele>
        <time>2022-07-21T04:25:51Z</time>
      </trkpt>
      <trkpt lat="44.17288" lon="5.13672">
        <ele>344.7</ele>
        <time>2022-07-21T04:25:52Z</time>
      </trkpt>
      <trkpt lat="44.17286" lon="5.13674">
        <ele>344.8</ele>
        <time>2022-07-21T04:25:53Z</time>
      </trkpt>
      <trkpt lat="44.17285" lon="5.13675">
        <ele>344.8</ele>
        <time>2022-07-21T04:25:54Z</time>
      </trkpt>
      <trkpt lat="44.17283" lon="5.13679">
        <ele>344.9</ele>
        <time>2022-07-21T04:25:55Z</time>
      </trkpt>
      <trkpt lat="44.17283" lon="5.1368">
        <ele>344.9</ele>
        <time>2022-07-21T04:25:56Z</time>
      </trkpt>
      <trkpt lat="44.17281" lon="5.13685">
        <ele>344.9</ele>
        <time>2022-07-21T04:25:57Z</time>
      </trkpt>
      <trkpt lat="44.17281" lon="5.13687">
        <ele>344.9</ele>
        <time>2022-07-21T04:25:58Z</time>
      </trkpt>
      <trkpt lat="44.1728" lon="5.13691">
        <ele>345</ele>
        <time>2022-07-21T04:25:59Z</time>
      </trkpt>
      <trkpt lat="44.17279" lon="5.13692">
        <ele>345.1</ele>
        <time>2022-07-21T04:26:00Z</time>
      </trkpt>
      <trkpt lat="44.17277" lon="5.13696">
        <ele>345.2</ele>
        <time>2022-07-21T04:26:01Z</time>
      </trkpt>
      <trkpt lat="44.17277" lon="5.13697">
        <ele>345.3</ele>
        <time>2022-07-21T04:26:02Z</time>
      </trkpt>
      <trkpt lat="44.17274" lon="5.13701">
        <ele>345.5</ele>
        <time>2022-07-21T04:26:03Z</time>
      </trkpt>
      <trkpt lat="44.17274" lon="5.13702">
        <ele>345.6</ele>
        <time>2022-07-21T04:26:04Z</time>
      </trkpt>
      <trkpt lat="44.17272" lon="5.13706">
        <ele>345.7</ele>
        <time>2022-07-21T04:26:05Z</time>
      </trkpt>
      <trkpt lat="44.17271" lon="5.13707">
        <ele>345.8</ele>
        <time>2022-07-21T04:26:06Z</time>
      </trkpt>
      <trkpt lat="44.17269" lon="5.1371">
        <ele>345.9</ele>
        <time>2022-07-21T04:26:07Z</time>
      </trkpt>
      <trkpt lat="44.17268" lon="5.13711">
        <ele>346</ele>
        <time>2022-07-21T04:26:08Z</time>
      </trkpt>
      <trkpt lat="44.17266" lon="5.13714">
        <ele>346.1</ele>
        <time>2022-07-21T04:26:09Z</time>
      </trkpt>
      <trkpt lat="44.17266" lon="5.13715">
        <ele>346.2</ele>
        <time>2022-07-21T04:26:10Z</time>
      </trkpt>
      <trkpt lat="44.17264" lon="5.13716">
        <ele>346.3</ele>
        <time>2022-07-21T04:26:11Z</time>
      </trkpt>
      <trkpt lat="44.17263" lon="5.13718">
        <ele>346.4</ele>
        <time>2022-07-21T04:26:12Z</time>
      </trkpt>
      <trkpt lat="44.17261" lon="5.13721">
        <ele>346.6</ele>
        <time>2022-07-21T04:26:13Z</time>
      </trkpt>
      <trkpt lat="44.1726" lon="5.13722">
        <ele>346.6</ele>
        <time>2022-07-21T04:26:14Z</time>
      </trkpt>
      <trkpt lat="44.17257" lon="5.13724">
        <ele>346.8</ele>
        <time>2022-07-21T04:26:15Z</time>
      </trkpt>
      <trkpt lat="44.17256" lon="5.13725">
        <ele>346.9</ele>
        <time>2022-07-21T04:26:16Z</time>
      </trkpt>
      <trkpt lat="44.17254" lon="5.13728">
        <ele>347.1</ele>
        <time>2022-07-21T04:26:17Z</time>
      </trkpt>
      <trkpt lat="44.17253" lon="5.13729">
        <ele>347.2</ele>
        <time>2022-07-21T04:26:18Z</time>
      </trkpt>
      <trkpt lat="44.1725" lon="5.13731">
        <ele>347.4</ele>
        <time>2022-07-21T04:26:19Z</time>
      </trkpt>
      <trkpt lat="44.17249" lon="5.13732">
        <ele>347.4</ele>
        <time>2022-07-21T04:26:20Z</time>
      </trkpt>
      <trkpt lat="44.17247" lon="5.13734">
        <ele>347.6</ele>
        <time>2022-07-21T04:26:21Z</time>
      </trkpt>
      <trkpt lat="44.17246" lon="5.13735">
        <ele>347.7</ele>
        <time>2022-07-21T04:26:22Z</time>
      </trkpt>
      <trkpt lat="44.17244" lon="5.13737">
        <ele>347.9</ele>
        <time>2022-07-21T04:26:23Z</time>
      </trkpt>
      <trkpt lat="44.17243" lon="5.13738">
        <ele>347.9</ele>
        <time>2022-07-21T04:26:24Z</time>
      </trkpt>
      <trkpt lat="44.17241" lon="5.1374">
        <ele>348.1</ele>
        <time>2022-07-21T04:26:25Z</time>
      </trkpt>
      <trkpt lat="44.1724" lon="5.13741">
        <ele>348.2</ele>
        <time>2022-07-21T04:26:26Z</time>
      </trkpt>
      <trkpt lat="44.17238" lon="5.13743">
        <ele>348.4</ele>
        <time>2022-07-21T04:26:27Z</time>
      </trkpt>
      <trkpt lat="44.17237" lon="5.13744">
        <ele>348.5</ele>
        <time>2022-07-21T04:26:28Z</time>
      </trkpt>
      <trkpt lat="44.17235" lon="5.13747">
        <ele>348.7</ele>
        <time>2022-07-21T04:26:29Z</time>
      </trkpt>
      <trkpt lat="44.17234" lon="5.13747">
        <ele>348.7</ele>
        <time>2022-07-21T04:26:30Z</time>
      </trkpt>
      <trkpt lat="44.17232" lon="5.1375">
        <ele>348.9</ele>
        <time>2022-07-21T04:26:31Z</time>
      </trkpt>
      <trkpt lat="44.17231" lon="5.1375">
        <ele>349</ele>
        <time>2022-07-21T04:26:32Z</time>
      </trkpt>
      <trkpt lat="44.17229" lon="5.13753">
        <ele>349.2</ele>
        <time>2022-07-21T04:26:33Z</time>
      </trkpt>
      <trkpt lat="44.17228" lon="5.13754">
        <ele>349.2</ele>
        <time>2022-07-21T04:26:34Z</time>
      </trkpt>
      <trkpt lat="44.17226" lon="5.13757">
        <ele>349.4</ele>
        <time>2022-07-21T04:26:35Z</time>
      </trkpt>
      <trkpt lat="44.17225" lon="5.13758">
        <ele>349.5</ele>
        <time>2022-07-21T04:26:36Z</time>
      </trkpt>
      <trkpt lat="44.17223" lon="5.1376">
        <ele>349.7</ele>
        <time>2022-07-21T04:26:37Z</time>
      </trkpt>
      <trkpt lat="44.17223" lon="5.13761">
        <ele>349.8</ele>
        <time>2022-07-21T04:26:38Z</time>
      </trkpt>
      <trkpt lat="44.1722" lon="5.13763">
        <ele>350</ele>
        <time>2022-07-21T04:26:39Z</time>
      </trkpt>
      <trkpt lat="44.17219" lon="5.13764">
        <ele>350</ele>
        <time>2022-07-21T04:26:40Z</time>
      </trkpt>
      <trkpt lat="44.17217" lon="5.13766">
        <ele>350.2</ele>
        <time>2022-07-21T04:26:41Z</time>
      </trkpt>
      <trkpt lat="44.17216" lon="5.13766">
        <ele>350.3</ele>
        <time>2022-07-21T04:26:42Z</time>
      </trkpt>
      <trkpt lat="44.17213" lon="5.13768">
        <ele>350.5</ele>
        <time>2022-07-21T04:26:43Z</time>
      </trkpt>
      <trkpt lat="44.17213" lon="5.13769">
        <ele>350.6</ele>
        <time>2022-07-21T04:26:44Z</time>
      </trkpt>
      <trkpt lat="44.1721" lon="5.13771">
        <ele>350.8</ele>
        <time>2022-07-21T04:26:45Z</time>
      </trkpt>
      <trkpt lat="44.17209" lon="5.13772">
        <ele>350.9</ele>
        <time>2022-07-21T04:26:46Z</time>
      </trkpt>
      <trkpt lat="44.17206" lon="5.13774">
        <ele>351.1</ele>
        <time>2022-07-21T04:26:47Z</time>
      </trkpt>
      <trkpt lat="44.17206" lon="5.13774">
        <ele>351.1</ele>
        <time>2022-07-21T04:26:48Z</time>
      </trkpt>
      <trkpt lat="44.17203" lon="5.13776">
        <ele>351.3</ele>
        <time>2022-07-21T04:26:49Z</time>
      </trkpt>
      <trkpt lat="44.17202" lon="5.13776">
        <ele>351.4</ele>
        <time>2022-07-21T04:26:50Z</time>
      </trkpt>
      <trkpt lat="44.172" lon="5.13778">
        <ele>351.6</ele>
        <time>2022-07-21T04:26:51Z</time>
      </trkpt>
      <trkpt lat="44.17199" lon="5.13779">
        <ele>351.7</ele>
        <time>2022-07-21T04:26:52Z</time>
      </trkpt>
      <trkpt lat="44.17197" lon="5.13781">
        <ele>351.9</ele>
        <time>2022-07-21T04:26:53Z</time>
      </trkpt>
      <trkpt lat="44.17196" lon="5.13782">
        <ele>351.9</ele>
        <time>2022-07-21T04:26:54Z</time>
      </trkpt>
      <trkpt lat="44.17193" lon="5.13784">
        <ele>352.1</ele>
        <time>2022-07-21T04:26:55Z</time>
      </trkpt>
      <trkpt lat="44.17193" lon="5.13785">
        <ele>352.2</ele>
        <time>2022-07-21T04:26:56Z</time>
      </trkpt>
      <trkpt lat="44.1719" lon="5.13787">
        <ele>352.4</ele>
        <time>2022-07-21T04:26:57Z</time>
      </trkpt>
      <trkpt lat="44.17189" lon="5.13787">
        <ele>352.5</ele>
        <time>2022-07-21T04:26:58Z</time>
      </trkpt>
      <trkpt lat="44.17187" lon="5.1379">
        <ele>352.7</ele>
        <time>2022-07-21T04:26:59Z</time>
      </trkpt>
      <trkpt lat="44.17186" lon="5.13791">
        <ele>352.8</ele>
        <time>2022-07-21T04:27:00Z</time>
      </trkpt>
      <trkpt lat="44.17184" lon="5.13794">
        <ele>353</ele>
        <time>2022-07-21T04:27:01Z</time>
      </trkpt>
      <trkpt lat="44.17183" lon="5.13795">
        <ele>353.1</ele>
        <time>2022-07-21T04:27:02Z</time>
      </trkpt>
      <trkpt lat="44.1718" lon="5.13797">
        <ele>353.3</ele>
        <time>2022-07-21T04:27:03Z</time>
      </trkpt>
      <trkpt lat="44.1718" lon="5.13798">
        <ele>353.4</ele>
        <time>2022-07-21T04:27:04Z</time>
      </trkpt>
      <trkpt lat="44.17177" lon="5.138">
        <ele>353.6</ele>
        <time>2022-07-21T04:27:05Z</time>
      </trkpt>
      <trkpt lat="44.17177" lon="5.13801">
        <ele>353.7</ele>
        <time>2022-07-21T04:27:06Z</time>
      </trkpt>
      <trkpt lat="44.17174" lon="5.13804">
        <ele>353.9</ele>
        <time>2022-07-21T04:27:07Z</time>
      </trkpt>
      <trkpt lat="44.17174" lon="5.13804">
        <ele>353.9</ele>
        <time>2022-07-21T04:27:08Z</time>
      </trkpt>
      <trkpt lat="44.17172" lon="5.13807">
        <ele>354.1</ele>
        <time>2022-07-21T04:27:09Z</time>
      </trkpt>
      <trkpt lat="44.17171" lon="5.13808">
        <ele>354.2</ele>
        <time>2022-07-21T04:27:10Z</time>
      </trkpt>
      <trkpt lat="44.1717" lon="5.1381">
        <ele>354.3</ele>
        <time>2022-07-21T04:27:11Z</time>
      </trkpt>
      <trkpt lat="44.17168" lon="5.13812">
        <ele>354.5</ele>
        <time>2022-07-21T04:27:12Z</time>
      </trkpt>
      <trkpt lat="44.17167" lon="5.13815">
        <ele>354.7</ele>
        <time>2022-07-21T04:27:13Z</time>
      </trkpt>
      <trkpt lat="44.17166" lon="5.13816">
        <ele>354.7</ele>
        <time>2022-07-21T04:27:14Z</time>
      </trkpt>
      <trkpt lat="44.17164" lon="5.13819">
        <ele>354.9</ele>
        <time>2022-07-21T04:27:15Z</time>
      </trkpt>
      <trkpt lat="44.17164" lon="5.1382">
        <ele>355</ele>
        <time>2022-07-21T04:27:16Z</time>
      </trkpt>
      <trkpt lat="44.17163" lon="5.13822">
        <ele>355.1</ele>
        <time>2022-07-21T04:27:17Z</time>
      </trkpt>
      <trkpt lat="44.17162" lon="5.13824">
        <ele>355.2</ele>
        <time>2022-07-21T04:27:18Z</time>
      </trkpt>
      <trkpt lat="44.1716" lon="5.13827">
        <ele>355.4</ele>
        <time>2022-07-21T04:27:19Z</time>
      </trkpt>
      <trkpt lat="44.17159" lon="5.13828">
        <ele>355.5</ele>
        <time>2022-07-21T04:27:20Z</time>
      </trkpt>
      <trkpt lat="44.17158" lon="5.13829">
        <ele>355.6</ele>
        <time>2022-07-21T04:27:21Z</time>
      </trkpt>
      <trkpt lat="44.17158" lon="5.13831">
        <ele>355.7</ele>
        <time>2022-07-21T04:27:22Z</time>
      </trkpt>
      <trkpt lat="44.17157" lon="5.13834">
        <ele>355.8</ele>
        <time>2022-07-21T04:27:23Z</time>
      </trkpt>
      <trkpt lat="44.17157" lon="5.13835">
        <ele>355.9</ele>
        <time>2022-07-21T04:27:24Z</time>
      </trkpt>
      <trkpt lat="44.17156" lon="5.13836">
        <ele>355.9</ele>
        <time>2022-07-21T04:27:25Z</time>
      </trkpt>
      <trkpt lat="44.17155" lon="5.1384">
        <ele>356.1</ele>
        <time>2022-07-21T04:27:26Z</time>
      </trkpt>
      <trkpt lat="44.17155" lon="5.13842">
        <ele>356.2</ele>
        <time>2022-07-21T04:27:27Z</time>
      </trkpt>
      <trkpt lat="44.17153" lon="5.13845">
        <ele>356.4</ele>
        <time>2022-07-21T04:27:28Z</time>
      </trkpt>
      <trkpt lat="44.17153" lon="5.13846">
        <ele>356.4</ele>
        <time>2022-07-21T04:27:29Z</time>
      </trkpt>
      <trkpt lat="44.17152" lon="5.1385">
        <ele>356.6</ele>
        <time>2022-07-21T04:27:30Z</time>
      </trkpt>
      <trkpt lat="44.17151" lon="5.13851">
        <ele>356.7</ele>
        <time>2022-07-21T04:27:31Z</time>
      </trkpt>
      <trkpt lat="44.17149" lon="5.13854">
        <ele>356.9</ele>
        <time>2022-07-21T04:27:32Z</time>
      </trkpt>
      <trkpt lat="44.17149" lon="5.13855">
        <ele>357</ele>
        <time>2022-07-21T04:27:33Z</time>
      </trkpt>
      <trkpt lat="44.17148" lon="5.13857">
        <ele>357.1</ele>
        <time>2022-07-21T04:27:34Z</time>
      </trkpt>
      <trkpt lat="44.17147" lon="5.13859">
        <ele>357.2</ele>
        <time>2022-07-21T04:27:35Z</time>
      </trkpt>
      <trkpt lat="44.17145" lon="5.13862">
        <ele>357.4</ele>
        <time>2022-07-21T04:27:36Z</time>
      </trkpt>
      <trkpt lat="44.17145" lon="5.13863">
        <ele>357.5</ele>
        <time>2022-07-21T04:27:37Z</time>
      </trkpt>
      <trkpt lat="44.17144" lon="5.13866">
        <ele>357.6</ele>
        <time>2022-07-21T04:27:38Z</time>
      </trkpt>
      <trkpt lat="44.17143" lon="5.13867">
        <ele>357.7</ele>
        <time>2022-07-21T04:27:39Z</time>
      </trkpt>
      <trkpt lat="44.17141" lon="5.1387">
        <ele>357.9</ele>
        <time>2022-07-21T04:27:40Z</time>
      </trkpt>
      <trkpt lat="44.17141" lon="5.13871">
        <ele>358</ele>
        <time>2022-07-21T04:27:41Z</time>
      </trkpt>
      <trkpt lat="44.17139" lon="5.13873">
        <ele>358.1</ele>
        <time>2022-07-21T04:27:42Z</time>
      </trkpt>
      <trkpt lat="44.17138" lon="5.13875">
        <ele>358.2</ele>
        <time>2022-07-21T04:27:43Z</time>
      </trkpt>
      <trkpt lat="44.17136" lon="5.13877">
        <ele>358.4</ele>
        <time>2022-07-21T04:27:44Z</time>
      </trkpt>
      <trkpt lat="44.17135" lon="5.13878">
        <ele>358.5</ele>
        <time>2022-07-21T04:27:45Z</time>
      </trkpt>
      <trkpt lat="44.17134" lon="5.1388">
        <ele>358.6</ele>
        <time>2022-07-21T04:27:46Z</time>
      </trkpt>
      <trkpt lat="44.17134" lon="5.13882">
        <ele>358.7</ele>
        <time>2022-07-21T04:27:47Z</time>
      </trkpt>
      <trkpt lat="44.17132" lon="5.13886">
        <ele>358.9</ele>
        <time>2022-07-21T04:27:48Z</time>
      </trkpt>
      <trkpt lat="44.17132" lon="5.13887">
        <ele>359</ele>
        <time>2022-07-21T04:27:49Z</time>
      </trkpt>
      <trkpt lat="44.17131" lon="5.13891">
        <ele>359.2</ele>
        <time>2022-07-21T04:27:50Z</time>
      </trkpt>
      <trkpt lat="44.1713" lon="5.13893">
        <ele>359.3</ele>
        <time>2022-07-21T04:27:51Z</time>
      </trkpt>
      <trkpt lat="44.17129" lon="5.13896">
        <ele>359.5</ele>
        <time>2022-07-21T04:27:52Z</time>
      </trkpt>
      <trkpt lat="44.17128" lon="5.13898">
        <ele>359.6</ele>
        <time>2022-07-21T04:27:53Z</time>
      </trkpt>
      <trkpt lat="44.17126" lon="5.13902">
        <ele>359.8</ele>
        <time>2022-07-21T04:27:54Z</time>
      </trkpt>
      <trkpt lat="44.17126" lon="5.13903">
        <ele>359.9</ele>
        <time>2022-07-21T04:27:55Z</time>
      </trkpt>
      <trkpt lat="44.17124" lon="5.13906">
        <ele>360.1</ele>
        <time>2022-07-21T04:27:56Z</time>
      </trkpt>
      <trkpt lat="44.17123" lon="5.13908">
        <ele>360.2</ele>
        <time>2022-07-21T04:27:57Z</time>
      </trkpt>
      <trkpt lat="44.17121" lon="5.13911">
        <ele>360.4</ele>
        <time>2022-07-21T04:27:58Z</time>
      </trkpt>
      <trkpt lat="44.1712" lon="5.13912">
        <ele>360.5</ele>
        <time>2022-07-21T04:27:59Z</time>
      </trkpt>
      <trkpt lat="44.17118" lon="5.13915">
        <ele>360.7</ele>
        <time>2022-07-21T04:28:00Z</time>
      </trkpt>
      <trkpt lat="44.17117" lon="5.13916">
        <ele>360.8</ele>
        <time>2022-07-21T04:28:01Z</time>
      </trkpt>
      <trkpt lat="44.17115" lon="5.1392">
        <ele>361</ele>
        <time>2022-07-21T04:28:02Z</time>
      </trkpt>
      <trkpt lat="44.17114" lon="5.13921">
        <ele>361.1</ele>
        <time>2022-07-21T04:28:03Z</time>
      </trkpt>
      <trkpt lat="44.17111" lon="5.13924">
        <ele>361.3</ele>
        <time>2022-07-21T04:28:04Z</time>
      </trkpt>
      <trkpt lat="44.1711" lon="5.13925">
        <ele>361.4</ele>
        <time>2022-07-21T04:28:05Z</time>
      </trkpt>
      <trkpt lat="44.17108" lon="5.13928">
        <ele>361.6</ele>
        <time>2022-07-21T04:28:06Z</time>
      </trkpt>
      <trkpt lat="44.17107" lon="5.13928">
        <ele>361.7</ele>
        <time>2022-07-21T04:28:07Z</time>
      </trkpt>
      <trkpt lat="44.17104" lon="5.13931">
        <ele>361.9</ele>
        <time>2022-07-21T04:28:08Z</time>
      </trkpt>
      <trkpt lat="44.17104" lon="5.13932">
        <ele>362</ele>
        <time>2022-07-21T04:28:09Z</time>
      </trkpt>
      <trkpt lat="44.17101" lon="5.13934">
        <ele>362.2</ele>
        <time>2022-07-21T04:28:10Z</time>
      </trkpt>
      <trkpt lat="44.17101" lon="5.13935">
        <ele>362.2</ele>
        <time>2022-07-21T04:28:11Z</time>
      </trkpt>
      <trkpt lat="44.17098" lon="5.13937">
        <ele>362.5</ele>
        <time>2022-07-21T04:28:12Z</time>
      </trkpt>
      <trkpt lat="44.17098" lon="5.13938">
        <ele>362.5</ele>
        <time>2022-07-21T04:28:13Z</time>
      </trkpt>
      <trkpt lat="44.17095" lon="5.13941">
        <ele>362.7</ele>
        <time>2022-07-21T04:28:14Z</time>
      </trkpt>
      <trkpt lat="44.17095" lon="5.13942">
        <ele>362.8</ele>
        <time>2022-07-21T04:28:15Z</time>
      </trkpt>
      <trkpt lat="44.17093" lon="5.13945">
        <ele>363</ele>
        <time>2022-07-21T04:28:16Z</time>
      </trkpt>
      <trkpt lat="44.17092" lon="5.13946">
        <ele>363.1</ele>
        <time>2022-07-21T04:28:17Z</time>
      </trkpt>
      <trkpt lat="44.17089" lon="5.13949">
        <ele>363.4</ele>
        <time>2022-07-21T04:28:18Z</time>
      </trkpt>
      <trkpt lat="44.17088" lon="5.1395">
        <ele>363.4</ele>
        <time>2022-07-21T04:28:19Z</time>
      </trkpt>
      <trkpt lat="44.17086" lon="5.13953">
        <ele>363.7</ele>
        <time>2022-07-21T04:28:20Z</time>
      </trkpt>
      <trkpt lat="44.17085" lon="5.13954">
        <ele>363.7</ele>
        <time>2022-07-21T04:28:21Z</time>
      </trkpt>
      <trkpt lat="44.17083" lon="5.13957">
        <ele>364</ele>
        <time>2022-07-21T04:28:22Z</time>
      </trkpt>
      <trkpt lat="44.17082" lon="5.13957">
        <ele>364</ele>
        <time>2022-07-21T04:28:23Z</time>
      </trkpt>
      <trkpt lat="44.1708" lon="5.1396">
        <ele>364.2</ele>
        <time>2022-07-21T04:28:24Z</time>
      </trkpt>
      <trkpt lat="44.17079" lon="5.13962">
        <ele>364.3</ele>
        <time>2022-07-21T04:28:25Z</time>
      </trkpt>
      <trkpt lat="44.17078" lon="5.13965">
        <ele>364.5</ele>
        <time>2022-07-21T04:28:26Z</time>
      </trkpt>
      <trkpt lat="44.17077" lon="5.13966">
        <ele>364.6</ele>
        <time>2022-07-21T04:28:27Z</time>
      </trkpt>
      <trkpt lat="44.17076" lon="5.1397">
        <ele>364.8</ele>
        <time>2022-07-21T04:28:28Z</time>
      </trkpt>
      <trkpt lat="44.17075" lon="5.13971">
        <ele>364.8</ele>
        <time>2022-07-21T04:28:29Z</time>
      </trkpt>
      <trkpt lat="44.17075" lon="5.13973">
        <ele>364.9</ele>
        <time>2022-07-21T04:28:30Z</time>
      </trkpt>
      <trkpt lat="44.17074" lon="5.13975">
        <ele>365</ele>
        <time>2022-07-21T04:28:31Z</time>
      </trkpt>
      <trkpt lat="44.17074" lon="5.13977">
        <ele>365.1</ele>
        <time>2022-07-21T04:28:32Z</time>
      </trkpt>
      <trkpt lat="44.17073" lon="5.13979">
        <ele>365.2</ele>
        <time>2022-07-21T04:28:33Z</time>
      </trkpt>
      <trkpt lat="44.17072" lon="5.13982">
        <ele>365.4</ele>
        <time>2022-07-21T04:28:34Z</time>
      </trkpt>
      <trkpt lat="44.17072" lon="5.13983">
        <ele>365.4</ele>
        <time>2022-07-21T04:28:35Z</time>
      </trkpt>
      <trkpt lat="44.17071" lon="5.13984">
        <ele>365.5</ele>
        <time>2022-07-21T04:28:36Z</time>
      </trkpt>
      <trkpt lat="44.17071" lon="5.13984">
        <ele>365.5</ele>
        <time>2022-07-21T04:28:37Z</time>
      </trkpt>
      <trkpt lat="44.17071" lon="5.13984">
        <ele>365.5</ele>
        <time>2022-07-21T04:28:38Z</time>
      </trkpt>
      <trkpt lat="44.17071" lon="5.13984">
        <ele>365.5</ele>
        <time>2022-07-21T04:28:39Z</time>
      </trkpt>
      <trkpt lat="44.17071" lon="5.13984">
        <ele>365.5</ele>
        <time>2022-07-21T04:28:40Z</time>
      </trkpt>
      <trkpt lat="44.17071" lon="5.13984">
        <ele>365.5</ele>
        <time>2022-07-21T04:28:41Z</time>
      </trkpt>
      <trkpt lat="44.17071" lon="5.13984">
        <ele>365.5</ele>
        <time>2022-07-21T04:28:42Z</time>
      </trkpt>
      <trkpt lat="44.17071" lon="5.13984">
        <ele>365.5</ele>
        <time>2022-07-21T04:28:43Z</time>
      </trkpt>
      <trkpt lat="44.17071" lon="5.13984">
        <ele>365.5</ele>
        <time>2022-07-21T04:28:44Z</time>
      </trkpt>
      <trkpt lat="44.17071" lon="5.13984">
        <ele>365.5</ele>
        <time>2022-07-21T04:28:45Z</time>
      </trkpt>
      <trkpt lat="44.17071" lon="5.13984">
        <ele>365.5</ele>
        <time>2022-07-21T04:28:46Z</time>
      </trkpt>
      <trkpt lat="44.17071" lon="5.13984">
        <ele>365.5</ele>
        <time>2022-07-21T04:28:47Z</time>
      </trkpt>
      <trkpt lat="44.17068" lon="5.13988">
        <ele>365.8</ele>
        <time>2022-07-21T04:29:49Z</time>
      </trkpt>
      <trkpt lat="44.17068" lon="5.13989">
        <ele>365.8</ele>
        <time>2022-07-21T04:29:50Z</time>
      </trkpt>
      <trkpt lat="44.17067" lon="5.1399">
        <ele>365.9</ele>
        <time>2022-07-21T04:29:51Z</time>
      </trkpt>
      <trkpt lat="44.17067" lon="5.13992">
        <ele>366</ele>
        <time>2022-07-21T04:29:52Z</time>
      </trkpt>
      <trkpt lat="44.17066" lon="5.13995">
        <ele>366.1</ele>
        <time>2022-07-21T04:29:53Z</time>
      </trkpt>
      <trkpt lat="44.17066" lon="5.13999">
        <ele>366.3</ele>
        <time>2022-07-21T04:29:54Z</time>
      </trkpt>
      <trkpt lat="44.17066" lon="5.14">
        <ele>366.4</ele>
        <time>2022-07-21T04:29:55Z</time>
      </trkpt>
      <trkpt lat="44.17065" lon="5.14002">
        <ele>366.5</ele>
        <time>2022-07-21T04:29:56Z</time>
      </trkpt>
      <trkpt lat="44.17065" lon="5.14005">
        <ele>366.6</ele>
        <time>2022-07-21T04:29:57Z</time>
      </trkpt>
      <trkpt lat="44.17064" lon="5.14007">
        <ele>366.7</ele>
        <time>2022-07-21T04:29:58Z</time>
      </trkpt>
      <trkpt lat="44.17064" lon="5.14009">
        <ele>366.8</ele>
        <time>2022-07-21T04:29:59Z</time>
      </trkpt>
      <trkpt lat="44.17063" lon="5.14012">
        <ele>367</ele>
        <time>2022-07-21T04:30:00Z</time>
      </trkpt>
      <trkpt lat="44.17063" lon="5.14014">
        <ele>367.1</ele>
        <time>2022-07-21T04:30:01Z</time>
      </trkpt>
      <trkpt lat="44.17062" lon="5.14016">
        <ele>367.2</ele>
        <time>2022-07-21T04:30:02Z</time>
      </trkpt>
      <trkpt lat="44.17061" lon="5.14018">
        <ele>367.3</ele>
        <time>2022-07-21T04:30:03Z</time>
      </trkpt>
      <trkpt lat="44.1706" lon="5.14019">
        <ele>367.4</ele>
        <time>2022-07-21T04:30:04Z</time>
      </trkpt>
      <trkpt lat="44.17059" lon="5.14021">
        <ele>367.5</ele>
        <time>2022-07-21T04:30:05Z</time>
      </trkpt>
      <trkpt lat="44.17058" lon="5.14023">
        <ele>367.6</ele>
        <time>2022-07-21T04:30:06Z</time>
      </trkpt>
      <trkpt lat="44.17057" lon="5.14025">
        <ele>367.7</ele>
        <time>2022-07-21T04:30:07Z</time>
      </trkpt>
      <trkpt lat="44.17056" lon="5.14029">
        <ele>367.9</ele>
        <time>2022-07-21T04:30:08Z</time>
      </trkpt>
      <trkpt lat="44.17055" lon="5.1403">
        <ele>368</ele>
        <time>2022-07-21T04:30:09Z</time>
      </trkpt>
      <trkpt lat="44.17054" lon="5.14033">
        <ele>368.2</ele>
        <time>2022-07-21T04:30:10Z</time>
      </trkpt>
      <trkpt lat="44.17053" lon="5.14035">
        <ele>368.2</ele>
        <time>2022-07-21T04:30:11Z</time>
      </trkpt>
      <trkpt lat="44.17051" lon="5.14039">
        <ele>368.4</ele>
        <time>2022-07-21T04:30:12Z</time>
      </trkpt>
      <trkpt lat="44.17051" lon="5.1404">
        <ele>368.8</ele>
        <time>2022-07-21T04:30:13Z</time>
      </trkpt>
      <trkpt lat="44.17049" lon="5.14044">
        <ele>369</ele>
        <time>2022-07-21T04:30:14Z</time>
      </trkpt>
      <trkpt lat="44.17048" lon="5.14045">
        <ele>369.1</ele>
        <time>2022-07-21T04:30:15Z</time>
      </trkpt>
      <trkpt lat="44.17046" lon="5.14048">
        <ele>369.3</ele>
        <time>2022-07-21T04:30:16Z</time>
      </trkpt>
      <trkpt lat="44.17046" lon="5.14049">
        <ele>369.3</ele>
        <time>2022-07-21T04:30:17Z</time>
      </trkpt>
      <trkpt lat="44.17044" lon="5.14052">
        <ele>369.5</ele>
        <time>2022-07-21T04:30:18Z</time>
      </trkpt>
      <trkpt lat="44.17044" lon="5.14053">
        <ele>369.6</ele>
        <time>2022-07-21T04:30:19Z</time>
      </trkpt>
      <trkpt lat="44.17042" lon="5.14056">
        <ele>369.8</ele>
        <time>2022-07-21T04:30:20Z</time>
      </trkpt>
      <trkpt lat="44.17041" lon="5.14057">
        <ele>369.9</ele>
        <time>2022-07-21T04:30:21Z</time>
      </trkpt>
      <trkpt lat="44.1704" lon="5.14059">
        <ele>370</ele>
        <time>2022-07-21T04:30:22Z</time>
      </trkpt>
      <trkpt lat="44.17039" lon="5.14061">
        <ele>370.1</ele>
        <time>2022-07-21T04:30:23Z</time>
      </trkpt>
      <trkpt lat="44.17037" lon="5.14063">
        <ele>370.3</ele>
        <time>2022-07-21T04:30:24Z</time>
      </trkpt>
      <trkpt lat="44.17036" lon="5.14064">
        <ele>370.4</ele>
        <time>2022-07-21T04:30:25Z</time>
      </trkpt>
      <trkpt lat="44.17035" lon="5.14066">
        <ele>370.5</ele>
        <time>2022-07-21T04:30:26Z</time>
      </trkpt>
      <trkpt lat="44.17033" lon="5.14068">
        <ele>370.7</ele>
        <time>2022-07-21T04:30:27Z</time>
      </trkpt>
      <trkpt lat="44.17032" lon="5.14069">
        <ele>370.8</ele>
        <time>2022-07-21T04:30:28Z</time>
      </trkpt>
      <trkpt lat="44.17031" lon="5.14071">
        <ele>370.9</ele>
        <time>2022-07-21T04:30:29Z</time>
      </trkpt>
      <trkpt lat="44.1703" lon="5.14072">
        <ele>371</ele>
        <time>2022-07-21T04:30:30Z</time>
      </trkpt>
      <trkpt lat="44.17029" lon="5.14074">
        <ele>371.2</ele>
        <time>2022-07-21T04:30:31Z</time>
      </trkpt>
      <trkpt lat="44.17028" lon="5.14076">
        <ele>371.3</ele>
        <time>2022-07-21T04:30:32Z</time>
      </trkpt>
      <trkpt lat="44.17026" lon="5.14077">
        <ele>371.4</ele>
        <time>2022-07-21T04:30:33Z</time>
      </trkpt>
      <trkpt lat="44.17025" lon="5.14078">
        <ele>371.5</ele>
        <time>2022-07-21T04:30:34Z</time>
      </trkpt>
      <trkpt lat="44.17024" lon="5.1408">
        <ele>371.7</ele>
        <time>2022-07-21T04:30:35Z</time>
      </trkpt>
      <trkpt lat="44.17023" lon="5.14081">
        <ele>371.8</ele>
        <time>2022-07-21T04:30:36Z</time>
      </trkpt>
      <trkpt lat="44.17021" lon="5.14083">
        <ele>371.9</ele>
        <time>2022-07-21T04:30:37Z</time>
      </trkpt>
      <trkpt lat="44.17019" lon="5.14085">
        <ele>372.1</ele>
        <time>2022-07-21T04:30:38Z</time>
      </trkpt>
      <trkpt lat="44.17019" lon="5.14086">
        <ele>372.2</ele>
        <time>2022-07-21T04:30:39Z</time>
      </trkpt>
      <trkpt lat="44.17017" lon="5.14088">
        <ele>372.3</ele>
        <time>2022-07-21T04:30:40Z</time>
      </trkpt>
      <trkpt lat="44.17016" lon="5.1409">
        <ele>372.4</ele>
        <time>2022-07-21T04:30:41Z</time>
      </trkpt>
      <trkpt lat="44.17015" lon="5.14091">
        <ele>372.6</ele>
        <time>2022-07-21T04:30:42Z</time>
      </trkpt>
      <trkpt lat="44.17014" lon="5.14093">
        <ele>372.7</ele>
        <time>2022-07-21T04:30:43Z</time>
      </trkpt>
      <trkpt lat="44.17013" lon="5.14094">
        <ele>372.8</ele>
        <time>2022-07-21T04:30:44Z</time>
      </trkpt>
      <trkpt lat="44.17011" lon="5.14096">
        <ele>373</ele>
        <time>2022-07-21T04:30:45Z</time>
      </trkpt>
      <trkpt lat="44.17009" lon="5.14099">
        <ele>373.2</ele>
        <time>2022-07-21T04:30:46Z</time>
      </trkpt>
      <trkpt lat="44.17009" lon="5.141">
        <ele>373.2</ele>
        <time>2022-07-21T04:30:47Z</time>
      </trkpt>
      <trkpt lat="44.17007" lon="5.14103">
        <ele>373.5</ele>
        <time>2022-07-21T04:30:48Z</time>
      </trkpt>
      <trkpt lat="44.17006" lon="5.14104">
        <ele>373.5</ele>
        <time>2022-07-21T04:30:49Z</time>
      </trkpt>
      <trkpt lat="44.17004" lon="5.14107">
        <ele>373.7</ele>
        <time>2022-07-21T04:30:50Z</time>
      </trkpt>
      <trkpt lat="44.17004" lon="5.14107">
        <ele>373.8</ele>
        <time>2022-07-21T04:30:51Z</time>
      </trkpt>
      <trkpt lat="44.17002" lon="5.14111">
        <ele>374</ele>
        <time>2022-07-21T04:30:52Z</time>
      </trkpt>
      <trkpt lat="44.17002" lon="5.14112">
        <ele>374.1</ele>
        <time>2022-07-21T04:30:53Z</time>
      </trkpt>
      <trkpt lat="44.17001" lon="5.14114">
        <ele>374.2</ele>
        <time>2022-07-21T04:30:54Z</time>
      </trkpt>
      <trkpt lat="44.17" lon="5.14115">
        <ele>374.3</ele>
        <time>2022-07-21T04:30:55Z</time>
      </trkpt>
      <trkpt lat="44.16999" lon="5.14117">
        <ele>374.4</ele>
        <time>2022-07-21T04:30:56Z</time>
      </trkpt>
      <trkpt lat="44.16998" lon="5.14119">
        <ele>374.6</ele>
        <time>2022-07-21T04:30:57Z</time>
      </trkpt>
      <trkpt lat="44.16997" lon="5.14122">
        <ele>374.7</ele>
        <time>2022-07-21T04:30:58Z</time>
      </trkpt>
      <trkpt lat="44.16996" lon="5.14124">
        <ele>374.8</ele>
        <time>2022-07-21T04:30:59Z</time>
      </trkpt>
      <trkpt lat="44.16994" lon="5.14127">
        <ele>375</ele>
        <time>2022-07-21T04:31:00Z</time>
      </trkpt>
      <trkpt lat="44.16994" lon="5.14128">
        <ele>375</ele>
        <time>2022-07-21T04:31:01Z</time>
      </trkpt>
      <trkpt lat="44.16992" lon="5.14131">
        <ele>375.2</ele>
        <time>2022-07-21T04:31:02Z</time>
      </trkpt>
      <trkpt lat="44.16992" lon="5.14132">
        <ele>375.3</ele>
        <time>2022-07-21T04:31:03Z</time>
      </trkpt>
      <trkpt lat="44.16991" lon="5.14134">
        <ele>375.4</ele>
        <time>2022-07-21T04:31:04Z</time>
      </trkpt>
      <trkpt lat="44.1699" lon="5.14136">
        <ele>375.5</ele>
        <time>2022-07-21T04:31:05Z</time>
      </trkpt>
      <trkpt lat="44.16988" lon="5.14139">
        <ele>375.7</ele>
        <time>2022-07-21T04:31:06Z</time>
      </trkpt>
      <trkpt lat="44.16988" lon="5.1414">
        <ele>375.8</ele>
        <time>2022-07-21T04:31:07Z</time>
      </trkpt>
      <trkpt lat="44.16987" lon="5.14142">
        <ele>375.9</ele>
        <time>2022-07-21T04:31:08Z</time>
      </trkpt>
      <trkpt lat="44.16986" lon="5.14144">
        <ele>376</ele>
        <time>2022-07-21T04:31:09Z</time>
      </trkpt>
      <trkpt lat="44.16984" lon="5.14147">
        <ele>376.2</ele>
        <time>2022-07-21T04:31:10Z</time>
      </trkpt>
      <trkpt lat="44.16984" lon="5.14148">
        <ele>376.3</ele>
        <time>2022-07-21T04:31:11Z</time>
      </trkpt>
      <trkpt lat="44.16982" lon="5.1415">
        <ele>376.4</ele>
        <time>2022-07-21T04:31:12Z</time>
      </trkpt>
      <trkpt lat="44.16981" lon="5.14152">
        <ele>376.5</ele>
        <time>2022-07-21T04:31:13Z</time>
      </trkpt>
      <trkpt lat="44.1698" lon="5.14154">
        <ele>376.6</ele>
        <time>2022-07-21T04:31:14Z</time>
      </trkpt>
      <trkpt lat="44.16979" lon="5.14156">
        <ele>376.7</ele>
        <time>2022-07-21T04:31:15Z</time>
      </trkpt>
      <trkpt lat="44.16977" lon="5.14158">
        <ele>376.9</ele>
        <time>2022-07-21T04:31:16Z</time>
      </trkpt>
      <trkpt lat="44.16976" lon="5.14159">
        <ele>377</ele>
        <time>2022-07-21T04:31:17Z</time>
      </trkpt>
      <trkpt lat="44.16974" lon="5.14162">
        <ele>377.1</ele>
        <time>2022-07-21T04:31:18Z</time>
      </trkpt>
      <trkpt lat="44.16973" lon="5.14163">
        <ele>377.2</ele>
        <time>2022-07-21T04:31:19Z</time>
      </trkpt>
      <trkpt lat="44.16971" lon="5.14165">
        <ele>377.4</ele>
        <time>2022-07-21T04:31:20Z</time>
      </trkpt>
      <trkpt lat="44.16971" lon="5.14166">
        <ele>377.4</ele>
        <time>2022-07-21T04:31:21Z</time>
      </trkpt>
      <trkpt lat="44.1697" lon="5.14168">
        <ele>377.6</ele>
        <time>2022-07-21T04:31:22Z</time>
      </trkpt>
      <trkpt lat="44.16968" lon="5.1417">
        <ele>377.7</ele>
        <time>2022-07-21T04:31:23Z</time>
      </trkpt>
      <trkpt lat="44.16967" lon="5.14171">
        <ele>377.8</ele>
        <time>2022-07-21T04:31:24Z</time>
      </trkpt>
      <trkpt lat="44.16966" lon="5.14173">
        <ele>377.9</ele>
        <time>2022-07-21T04:31:25Z</time>
      </trkpt>
      <trkpt lat="44.16964" lon="5.14174">
        <ele>378</ele>
        <time>2022-07-21T04:31:26Z</time>
      </trkpt>
      <trkpt lat="44.16963" lon="5.14176">
        <ele>378.1</ele>
        <time>2022-07-21T04:31:27Z</time>
      </trkpt>
      <trkpt lat="44.16962" lon="5.14177">
        <ele>378.2</ele>
        <time>2022-07-21T04:31:28Z</time>
      </trkpt>
      <trkpt lat="44.1696" lon="5.14178">
        <ele>378.3</ele>
        <time>2022-07-21T04:31:29Z</time>
      </trkpt>
      <trkpt lat="44.16959" lon="5.14179">
        <ele>378.4</ele>
        <time>2022-07-21T04:31:30Z</time>
      </trkpt>
      <trkpt lat="44.16958" lon="5.14181">
        <ele>378.5</ele>
        <time>2022-07-21T04:31:31Z</time>
      </trkpt>
      <trkpt lat="44.16955" lon="5.14183">
        <ele>378.7</ele>
        <time>2022-07-21T04:31:32Z</time>
      </trkpt>
      <trkpt lat="44.16954" lon="5.14184">
        <ele>378.8</ele>
        <time>2022-07-21T04:31:33Z</time>
      </trkpt>
      <trkpt lat="44.16952" lon="5.14186">
        <ele>379</ele>
        <time>2022-07-21T04:31:34Z</time>
      </trkpt>
      <trkpt lat="44.16951" lon="5.14187">
        <ele>379</ele>
        <time>2022-07-21T04:31:35Z</time>
      </trkpt>
      <trkpt lat="44.16949" lon="5.1419">
        <ele>379.2</ele>
        <time>2022-07-21T04:31:36Z</time>
      </trkpt>
      <trkpt lat="44.16948" lon="5.14191">
        <ele>379.3</ele>
        <time>2022-07-21T04:31:37Z</time>
      </trkpt>
      <trkpt lat="44.16946" lon="5.14194">
        <ele>379.5</ele>
        <time>2022-07-21T04:31:38Z</time>
      </trkpt>
      <trkpt lat="44.16946" lon="5.14195">
        <ele>379.5</ele>
        <time>2022-07-21T04:31:39Z</time>
      </trkpt>
      <trkpt lat="44.16944" lon="5.14198">
        <ele>379.7</ele>
        <time>2022-07-21T04:31:40Z</time>
      </trkpt>
      <trkpt lat="44.16943" lon="5.14199">
        <ele>379.8</ele>
        <time>2022-07-21T04:31:41Z</time>
      </trkpt>
      <trkpt lat="44.16941" lon="5.14202">
        <ele>379.9</ele>
        <time>2022-07-21T04:31:42Z</time>
      </trkpt>
      <trkpt lat="44.1694" lon="5.14203">
        <ele>380</ele>
        <time>2022-07-21T04:31:43Z</time>
      </trkpt>
      <trkpt lat="44.16938" lon="5.14205">
        <ele>380.2</ele>
        <time>2022-07-21T04:31:44Z</time>
      </trkpt>
      <trkpt lat="44.16937" lon="5.14206">
        <ele>380.2</ele>
        <time>2022-07-21T04:31:45Z</time>
      </trkpt>
      <trkpt lat="44.16934" lon="5.14208">
        <ele>380.4</ele>
        <time>2022-07-21T04:31:46Z</time>
      </trkpt>
      <trkpt lat="44.16933" lon="5.14209">
        <ele>380.5</ele>
        <time>2022-07-21T04:31:47Z</time>
      </trkpt>
      <trkpt lat="44.1693" lon="5.14212">
        <ele>380.7</ele>
        <time>2022-07-21T04:31:48Z</time>
      </trkpt>
      <trkpt lat="44.16929" lon="5.14213">
        <ele>380.7</ele>
        <time>2022-07-21T04:31:49Z</time>
      </trkpt>
      <trkpt lat="44.16927" lon="5.14216">
        <ele>380.9</ele>
        <time>2022-07-21T04:31:50Z</time>
      </trkpt>
      <trkpt lat="44.16926" lon="5.14217">
        <ele>381</ele>
        <time>2022-07-21T04:31:51Z</time>
      </trkpt>
      <trkpt lat="44.16924" lon="5.14221">
        <ele>381.1</ele>
        <time>2022-07-21T04:31:52Z</time>
      </trkpt>
      <trkpt lat="44.16923" lon="5.14222">
        <ele>381.1</ele>
        <time>2022-07-21T04:31:53Z</time>
      </trkpt>
      <trkpt lat="44.16921" lon="5.14226">
        <ele>381.1</ele>
        <time>2022-07-21T04:31:54Z</time>
      </trkpt>
      <trkpt lat="44.1692" lon="5.14227">
        <ele>381.1</ele>
        <time>2022-07-21T04:31:55Z</time>
      </trkpt>
      <trkpt lat="44.16918" lon="5.1423">
        <ele>381.2</ele>
        <time>2022-07-21T04:31:56Z</time>
      </trkpt>
      <trkpt lat="44.16918" lon="5.14232">
        <ele>381.2</ele>
        <time>2022-07-21T04:31:57Z</time>
      </trkpt>
      <trkpt lat="44.16916" lon="5.14236">
        <ele>381.2</ele>
        <time>2022-07-21T04:31:58Z</time>
      </trkpt>
      <trkpt lat="44.16915" lon="5.14237">
        <ele>381.3</ele>
        <time>2022-07-21T04:31:59Z</time>
      </trkpt>
      <trkpt lat="44.16913" lon="5.14241">
        <ele>381.3</ele>
        <time>2022-07-21T04:32:00Z</time>
      </trkpt>
      <trkpt lat="44.16913" lon="5.14242">
        <ele>381.3</ele>
        <time>2022-07-21T04:32:01Z</time>
      </trkpt>
      <trkpt lat="44.16911" lon="5.14245">
        <ele>381.4</ele>
        <time>2022-07-21T04:32:02Z</time>
      </trkpt>
      <trkpt lat="44.16911" lon="5.14246">
        <ele>381.4</ele>
        <time>2022-07-21T04:32:03Z</time>
      </trkpt>
      <trkpt lat="44.16909" lon="5.1425">
        <ele>381.5</ele>
        <time>2022-07-21T04:32:04Z</time>
      </trkpt>
      <trkpt lat="44.16908" lon="5.14251">
        <ele>381.5</ele>
        <time>2022-07-21T04:32:05Z</time>
      </trkpt>
      <trkpt lat="44.16907" lon="5.14254">
        <ele>381.7</ele>
        <time>2022-07-21T04:32:06Z</time>
      </trkpt>
      <trkpt lat="44.16906" lon="5.14256">
        <ele>381.8</ele>
        <time>2022-07-21T04:32:07Z</time>
      </trkpt>
      <trkpt lat="44.16904" lon="5.14259">
        <ele>382</ele>
        <time>2022-07-21T04:32:08Z</time>
      </trkpt>
      <trkpt lat="44.16904" lon="5.1426">
        <ele>382.1</ele>
        <time>2022-07-21T04:32:09Z</time>
      </trkpt>
      <trkpt lat="44.16902" lon="5.14263">
        <ele>382.3</ele>
        <time>2022-07-21T04:32:10Z</time>
      </trkpt>
      <trkpt lat="44.16901" lon="5.14265">
        <ele>382.4</ele>
        <time>2022-07-21T04:32:11Z</time>
      </trkpt>
      <trkpt lat="44.16899" lon="5.14268">
        <ele>382.6</ele>
        <time>2022-07-21T04:32:12Z</time>
      </trkpt>
      <trkpt lat="44.16899" lon="5.14269">
        <ele>382.7</ele>
        <time>2022-07-21T04:32:13Z</time>
      </trkpt>
      <trkpt lat="44.16897" lon="5.14272">
        <ele>382.9</ele>
        <time>2022-07-21T04:32:14Z</time>
      </trkpt>
      <trkpt lat="44.16896" lon="5.14273">
        <ele>383</ele>
        <time>2022-07-21T04:32:15Z</time>
      </trkpt>
      <trkpt lat="44.16894" lon="5.14277">
        <ele>383.2</ele>
        <time>2022-07-21T04:32:16Z</time>
      </trkpt>
      <trkpt lat="44.16894" lon="5.14278">
        <ele>383.3</ele>
        <time>2022-07-21T04:32:17Z</time>
      </trkpt>
      <trkpt lat="44.16892" lon="5.14281">
        <ele>383.5</ele>
        <time>2022-07-21T04:32:18Z</time>
      </trkpt>
      <trkpt lat="44.16891" lon="5.14282">
        <ele>383.6</ele>
        <time>2022-07-21T04:32:19Z</time>
      </trkpt>
      <trkpt lat="44.1689" lon="5.14286">
        <ele>383.8</ele>
        <time>2022-07-21T04:32:20Z</time>
      </trkpt>
      <trkpt lat="44.16889" lon="5.14287">
        <ele>383.9</ele>
        <time>2022-07-21T04:32:21Z</time>
      </trkpt>
      <trkpt lat="44.16887" lon="5.14291">
        <ele>384.2</ele>
        <time>2022-07-21T04:32:22Z</time>
      </trkpt>
      <trkpt lat="44.16886" lon="5.14292">
        <ele>384.3</ele>
        <time>2022-07-21T04:32:23Z</time>
      </trkpt>
      <trkpt lat="44.16884" lon="5.14295">
        <ele>384.5</ele>
        <time>2022-07-21T04:32:24Z</time>
      </trkpt>
      <trkpt lat="44.16883" lon="5.14296">
        <ele>384.6</ele>
        <time>2022-07-21T04:32:25Z</time>
      </trkpt>
      <trkpt lat="44.16881" lon="5.14299">
        <ele>384.8</ele>
        <time>2022-07-21T04:32:26Z</time>
      </trkpt>
      <trkpt lat="44.1688" lon="5.14299">
        <ele>384.9</ele>
        <time>2022-07-21T04:32:27Z</time>
      </trkpt>
      <trkpt lat="44.16878" lon="5.14302">
        <ele>385.1</ele>
        <time>2022-07-21T04:32:28Z</time>
      </trkpt>
      <trkpt lat="44.16878" lon="5.14304">
        <ele>385.2</ele>
        <time>2022-07-21T04:32:29Z</time>
      </trkpt>
      <trkpt lat="44.16876" lon="5.14307">
        <ele>385.4</ele>
        <time>2022-07-21T04:32:30Z</time>
      </trkpt>
      <trkpt lat="44.16875" lon="5.14308">
        <ele>385.5</ele>
        <time>2022-07-21T04:32:31Z</time>
      </trkpt>
      <trkpt lat="44.16873" lon="5.14312">
        <ele>385.7</ele>
        <time>2022-07-21T04:32:32Z</time>
      </trkpt>
      <trkpt lat="44.16873" lon="5.14313">
        <ele>385.8</ele>
        <time>2022-07-21T04:32:33Z</time>
      </trkpt>
      <trkpt lat="44.16871" lon="5.14316">
        <ele>386.1</ele>
        <time>2022-07-21T04:32:34Z</time>
      </trkpt>
      <trkpt lat="44.1687" lon="5.14318">
        <ele>386.2</ele>
        <time>2022-07-21T04:32:35Z</time>
      </trkpt>
      <trkpt lat="44.16868" lon="5.14321">
        <ele>386.4</ele>
        <time>2022-07-21T04:32:36Z</time>
      </trkpt>
      <trkpt lat="44.16867" lon="5.14322">
        <ele>386.5</ele>
        <time>2022-07-21T04:32:37Z</time>
      </trkpt>
      <trkpt lat="44.16866" lon="5.14326">
        <ele>386.7</ele>
        <time>2022-07-21T04:32:38Z</time>
      </trkpt>
      <trkpt lat="44.16865" lon="5.14327">
        <ele>386.8</ele>
        <time>2022-07-21T04:32:39Z</time>
      </trkpt>
      <trkpt lat="44.16864" lon="5.1433">
        <ele>387</ele>
        <time>2022-07-21T04:32:40Z</time>
      </trkpt>
      <trkpt lat="44.16863" lon="5.14331">
        <ele>387.1</ele>
        <time>2022-07-21T04:32:41Z</time>
      </trkpt>
      <trkpt lat="44.16861" lon="5.14334">
        <ele>387.3</ele>
        <time>2022-07-21T04:32:42Z</time>
      </trkpt>
      <trkpt lat="44.1686" lon="5.14334">
        <ele>387.4</ele>
        <time>2022-07-21T04:32:43Z</time>
      </trkpt>
      <trkpt lat="44.16858" lon="5.14337">
        <ele>387.6</ele>
        <time>2022-07-21T04:32:44Z</time>
      </trkpt>
      <trkpt lat="44.16857" lon="5.14338">
        <ele>387.7</ele>
        <time>2022-07-21T04:32:45Z</time>
      </trkpt>
      <trkpt lat="44.16855" lon="5.14341">
        <ele>387.9</ele>
        <time>2022-07-21T04:32:46Z</time>
      </trkpt>
      <trkpt lat="44.16855" lon="5.14342">
        <ele>387.9</ele>
        <time>2022-07-21T04:32:47Z</time>
      </trkpt>
      <trkpt lat="44.16854" lon="5.14346">
        <ele>388.2</ele>
        <time>2022-07-21T04:32:48Z</time>
      </trkpt>
      <trkpt lat="44.16853" lon="5.14348">
        <ele>388.2</ele>
        <time>2022-07-21T04:32:49Z</time>
      </trkpt>
      <trkpt lat="44.16852" lon="5.14351">
        <ele>388.4</ele>
        <time>2022-07-21T04:32:50Z</time>
      </trkpt>
      <trkpt lat="44.16852" lon="5.14353">
        <ele>388.5</ele>
        <time>2022-07-21T04:32:51Z</time>
      </trkpt>
      <trkpt lat="44.16851" lon="5.14356">
        <ele>388.7</ele>
        <time>2022-07-21T04:32:52Z</time>
      </trkpt>
      <trkpt lat="44.1685" lon="5.14357">
        <ele>388.7</ele>
        <time>2022-07-21T04:32:53Z</time>
      </trkpt>
      <trkpt lat="44.16849" lon="5.14361">
        <ele>389</ele>
        <time>2022-07-21T04:32:54Z</time>
      </trkpt>
      <trkpt lat="44.16849" lon="5.14363">
        <ele>389</ele>
        <time>2022-07-21T04:32:55Z</time>
      </trkpt>
      <trkpt lat="44.16848" lon="5.14368">
        <ele>389.3</ele>
        <time>2022-07-21T04:32:56Z</time>
      </trkpt>
      <trkpt lat="44.16847" lon="5.14369">
        <ele>389.3</ele>
        <time>2022-07-21T04:32:57Z</time>
      </trkpt>
      <trkpt lat="44.16846" lon="5.14374">
        <ele>389.6</ele>
        <time>2022-07-21T04:32:58Z</time>
      </trkpt>
      <trkpt lat="44.16846" lon="5.14375">
        <ele>389.7</ele>
        <time>2022-07-21T04:32:59Z</time>
      </trkpt>
      <trkpt lat="44.16845" lon="5.1438">
        <ele>389.9</ele>
        <time>2022-07-21T04:33:00Z</time>
      </trkpt>
      <trkpt lat="44.16845" lon="5.14381">
        <ele>389.9</ele>
        <time>2022-07-21T04:33:01Z</time>
      </trkpt>
      <trkpt lat="44.16844" lon="5.14387">
        <ele>390.2</ele>
        <time>2022-07-21T04:33:02Z</time>
      </trkpt>
      <trkpt lat="44.16844" lon="5.14388">
        <ele>390.3</ele>
        <time>2022-07-21T04:33:03Z</time>
      </trkpt>
      <trkpt lat="44.16843" lon="5.14394">
        <ele>390.5</ele>
        <time>2022-07-21T04:33:04Z</time>
      </trkpt>
      <trkpt lat="44.16843" lon="5.14396">
        <ele>390.6</ele>
        <time>2022-07-21T04:33:05Z</time>
      </trkpt>
      <trkpt lat="44.16843" lon="5.14401">
        <ele>390.8</ele>
        <time>2022-07-21T04:33:06Z</time>
      </trkpt>
      <trkpt lat="44.16843" lon="5.14403">
        <ele>390.9</ele>
        <time>2022-07-21T04:33:07Z</time>
      </trkpt>
      <trkpt lat="44.16842" lon="5.14407">
        <ele>391</ele>
        <time>2022-07-21T04:33:08Z</time>
      </trkpt>
      <trkpt lat="44.16842" lon="5.1441">
        <ele>391.2</ele>
        <time>2022-07-21T04:33:09Z</time>
      </trkpt>
      <trkpt lat="44.16841" lon="5.14414">
        <ele>391.4</ele>
        <time>2022-07-21T04:33:10Z</time>
      </trkpt>
      <trkpt lat="44.16841" lon="5.1442">
        <ele>391.6</ele>
        <time>2022-07-21T04:33:11Z</time>
      </trkpt>
      <trkpt lat="44.16841" lon="5.14422">
        <ele>391.6</ele>
        <time>2022-07-21T04:33:12Z</time>
      </trkpt>
      <trkpt lat="44.16841" lon="5.14427">
        <ele>391.9</ele>
        <time>2022-07-21T04:33:13Z</time>
      </trkpt>
      <trkpt lat="44.1684" lon="5.14429">
        <ele>391.9</ele>
        <time>2022-07-21T04:33:14Z</time>
      </trkpt>
      <trkpt lat="44.1684" lon="5.14434">
        <ele>392.1</ele>
        <time>2022-07-21T04:33:15Z</time>
      </trkpt>
      <trkpt lat="44.1684" lon="5.14436">
        <ele>392.2</ele>
        <time>2022-07-21T04:33:16Z</time>
      </trkpt>
      <trkpt lat="44.16839" lon="5.14441">
        <ele>392.4</ele>
        <time>2022-07-21T04:33:17Z</time>
      </trkpt>
      <trkpt lat="44.16839" lon="5.14443">
        <ele>392.5</ele>
        <time>2022-07-21T04:33:18Z</time>
      </trkpt>
      <trkpt lat="44.16839" lon="5.14449">
        <ele>392.7</ele>
        <time>2022-07-21T04:33:19Z</time>
      </trkpt>
      <trkpt lat="44.16838" lon="5.1445">
        <ele>392.8</ele>
        <time>2022-07-21T04:33:20Z</time>
      </trkpt>
      <trkpt lat="44.16838" lon="5.14456">
        <ele>393</ele>
        <time>2022-07-21T04:33:21Z</time>
      </trkpt>
      <trkpt lat="44.16838" lon="5.14457">
        <ele>393.1</ele>
        <time>2022-07-21T04:33:22Z</time>
      </trkpt>
      <trkpt lat="44.16837" lon="5.14463">
        <ele>393.3</ele>
        <time>2022-07-21T04:33:23Z</time>
      </trkpt>
      <trkpt lat="44.16837" lon="5.14464">
        <ele>393.4</ele>
        <time>2022-07-21T04:33:24Z</time>
      </trkpt>
      <trkpt lat="44.16837" lon="5.1447">
        <ele>393.6</ele>
        <time>2022-07-21T04:33:25Z</time>
      </trkpt>
      <trkpt lat="44.16837" lon="5.14471">
        <ele>393.6</ele>
        <time>2022-07-21T04:33:26Z</time>
      </trkpt>
      <trkpt lat="44.16836" lon="5.14476">
        <ele>393.9</ele>
        <time>2022-07-21T04:33:27Z</time>
      </trkpt>
      <trkpt lat="44.16835" lon="5.14478">
        <ele>393.9</ele>
        <time>2022-07-21T04:33:28Z</time>
      </trkpt>
      <trkpt lat="44.16835" lon="5.14483">
        <ele>394.1</ele>
        <time>2022-07-21T04:33:29Z</time>
      </trkpt>
      <trkpt lat="44.16834" lon="5.14485">
        <ele>394.2</ele>
        <time>2022-07-21T04:33:30Z</time>
      </trkpt>
      <trkpt lat="44.16833" lon="5.1449">
        <ele>394.4</ele>
        <time>2022-07-21T04:33:31Z</time>
      </trkpt>
      <trkpt lat="44.16833" lon="5.14492">
        <ele>394.5</ele>
        <time>2022-07-21T04:33:32Z</time>
      </trkpt>
      <trkpt lat="44.16832" lon="5.14497">
        <ele>394.7</ele>
        <time>2022-07-21T04:33:33Z</time>
      </trkpt>
      <trkpt lat="44.16832" lon="5.14499">
        <ele>394.7</ele>
        <time>2022-07-21T04:33:34Z</time>
      </trkpt>
      <trkpt lat="44.16831" lon="5.14503">
        <ele>394.9</ele>
        <time>2022-07-21T04:33:35Z</time>
      </trkpt>
      <trkpt lat="44.1683" lon="5.14505">
        <ele>395</ele>
        <time>2022-07-21T04:33:36Z</time>
      </trkpt>
      <trkpt lat="44.16829" lon="5.1451">
        <ele>395.2</ele>
        <time>2022-07-21T04:33:37Z</time>
      </trkpt>
      <trkpt lat="44.16828" lon="5.14512">
        <ele>395.3</ele>
        <time>2022-07-21T04:33:38Z</time>
      </trkpt>
      <trkpt lat="44.16827" lon="5.14517">
        <ele>395.4</ele>
        <time>2022-07-21T04:33:39Z</time>
      </trkpt>
      <trkpt lat="44.16827" lon="5.14519">
        <ele>395.5</ele>
        <time>2022-07-21T04:33:40Z</time>
      </trkpt>
      <trkpt lat="44.16826" lon="5.14522">
        <ele>395.6</ele>
        <time>2022-07-21T04:33:41Z</time>
      </trkpt>
      <trkpt lat="44.16825" lon="5.14526">
        <ele>395.7</ele>
        <time>2022-07-21T04:33:42Z</time>
      </trkpt>
      <trkpt lat="44.16824" lon="5.1453">
        <ele>395.9</ele>
        <time>2022-07-21T04:33:43Z</time>
      </trkpt>
      <trkpt lat="44.16823" lon="5.14534">
        <ele>396</ele>
        <time>2022-07-21T04:33:44Z</time>
      </trkpt>
      <trkpt lat="44.16822" lon="5.14538">
        <ele>396.1</ele>
        <time>2022-07-21T04:33:45Z</time>
      </trkpt>
      <trkpt lat="44.16821" lon="5.14542">
        <ele>396.2</ele>
        <time>2022-07-21T04:33:46Z</time>
      </trkpt>
      <trkpt lat="44.16819" lon="5.14546">
        <ele>396.3</ele>
        <time>2022-07-21T04:33:47Z</time>
      </trkpt>
      <trkpt lat="44.16818" lon="5.1455">
        <ele>396.4</ele>
        <time>2022-07-21T04:33:48Z</time>
      </trkpt>
      <trkpt lat="44.16817" lon="5.14554">
        <ele>396.4</ele>
        <time>2022-07-21T04:33:49Z</time>
      </trkpt>
      <trkpt lat="44.16815" lon="5.14558">
        <ele>396.5</ele>
        <time>2022-07-21T04:33:50Z</time>
      </trkpt>
      <trkpt lat="44.16814" lon="5.14562">
        <ele>396.6</ele>
        <time>2022-07-21T04:33:51Z</time>
      </trkpt>
      <trkpt lat="44.16812" lon="5.14567">
        <ele>396.6</ele>
        <time>2022-07-21T04:33:52Z</time>
      </trkpt>
      <trkpt lat="44.16811" lon="5.14572">
        <ele>396.7</ele>
        <time>2022-07-21T04:33:53Z</time>
      </trkpt>
      <trkpt lat="44.1681" lon="5.14577">
        <ele>396.8</ele>
        <time>2022-07-21T04:33:54Z</time>
      </trkpt>
      <trkpt lat="44.16809" lon="5.14582">
        <ele>396.8</ele>
        <time>2022-07-21T04:33:55Z</time>
      </trkpt>
      <trkpt lat="44.16808" lon="5.14587">
        <ele>396.9</ele>
        <time>2022-07-21T04:33:56Z</time>
      </trkpt>
      <trkpt lat="44.16807" lon="5.14591">
        <ele>397</ele>
        <time>2022-07-21T04:33:57Z</time>
      </trkpt>
      <trkpt lat="44.16805" lon="5.14596">
        <ele>397</ele>
        <time>2022-07-21T04:33:58Z</time>
      </trkpt>
      <trkpt lat="44.16804" lon="5.14601">
        <ele>397.1</ele>
        <time>2022-07-21T04:33:59Z</time>
      </trkpt>
      <trkpt lat="44.16802" lon="5.14606">
        <ele>397.2</ele>
        <time>2022-07-21T04:34:00Z</time>
      </trkpt>
      <trkpt lat="44.16801" lon="5.14612">
        <ele>397.3</ele>
        <time>2022-07-21T04:34:01Z</time>
      </trkpt>
      <trkpt lat="44.168" lon="5.14617">
        <ele>397.3</ele>
        <time>2022-07-21T04:34:02Z</time>
      </trkpt>
      <trkpt lat="44.16798" lon="5.14622">
        <ele>397.4</ele>
        <time>2022-07-21T04:34:03Z</time>
      </trkpt>
      <trkpt lat="44.16797" lon="5.14626">
        <ele>397.5</ele>
        <time>2022-07-21T04:34:04Z</time>
      </trkpt>
      <trkpt lat="44.16795" lon="5.1463">
        <ele>397.5</ele>
        <time>2022-07-21T04:34:05Z</time>
      </trkpt>
      <trkpt lat="44.16794" lon="5.14635">
        <ele>397.6</ele>
        <time>2022-07-21T04:34:06Z</time>
      </trkpt>
      <trkpt lat="44.16792" lon="5.1464">
        <ele>397.7</ele>
        <time>2022-07-21T04:34:07Z</time>
      </trkpt>
      <trkpt lat="44.16791" lon="5.14645">
        <ele>397.8</ele>
        <time>2022-07-21T04:34:08Z</time>
      </trkpt>
      <trkpt lat="44.16789" lon="5.1465">
        <ele>397.8</ele>
        <time>2022-07-21T04:34:09Z</time>
      </trkpt>
      <trkpt lat="44.16788" lon="5.14655">
        <ele>397.9</ele>
        <time>2022-07-21T04:34:10Z</time>
      </trkpt>
      <trkpt lat="44.16786" lon="5.1466">
        <ele>398</ele>
        <time>2022-07-21T04:34:11Z</time>
      </trkpt>
      <trkpt lat="44.16785" lon="5.14666">
        <ele>398.1</ele>
        <time>2022-07-21T04:34:12Z</time>
      </trkpt>
      <trkpt lat="44.16784" lon="5.14671">
        <ele>398.1</ele>
        <time>2022-07-21T04:34:13Z</time>
      </trkpt>
      <trkpt lat="44.16782" lon="5.14676">
        <ele>398.2</ele>
        <time>2022-07-21T04:34:14Z</time>
      </trkpt>
      <trkpt lat="44.16781" lon="5.14681">
        <ele>398.3</ele>
        <time>2022-07-21T04:34:15Z</time>
      </trkpt>
      <trkpt lat="44.16779" lon="5.14686">
        <ele>398.3</ele>
        <time>2022-07-21T04:34:16Z</time>
      </trkpt>
      <trkpt lat="44.16777" lon="5.1469">
        <ele>398.4</ele>
        <time>2022-07-21T04:34:17Z</time>
      </trkpt>
      <trkpt lat="44.16776" lon="5.14695">
        <ele>398.5</ele>
        <time>2022-07-21T04:34:18Z</time>
      </trkpt>
      <trkpt lat="44.16774" lon="5.147">
        <ele>398.5</ele>
        <time>2022-07-21T04:34:19Z</time>
      </trkpt>
      <trkpt lat="44.16772" lon="5.14705">
        <ele>398.6</ele>
        <time>2022-07-21T04:34:20Z</time>
      </trkpt>
      <trkpt lat="44.16771" lon="5.14711">
        <ele>398.7</ele>
        <time>2022-07-21T04:34:21Z</time>
      </trkpt>
      <trkpt lat="44.16769" lon="5.14716">
        <ele>398.7</ele>
        <time>2022-07-21T04:34:22Z</time>
      </trkpt>
      <trkpt lat="44.16768" lon="5.14721">
        <ele>398.8</ele>
        <time>2022-07-21T04:34:23Z</time>
      </trkpt>
      <trkpt lat="44.16767" lon="5.14727">
        <ele>398.9</ele>
        <time>2022-07-21T04:34:24Z</time>
      </trkpt>
      <trkpt lat="44.16765" lon="5.14732">
        <ele>399</ele>
        <time>2022-07-21T04:34:25Z</time>
      </trkpt>
      <trkpt lat="44.16764" lon="5.14737">
        <ele>399.1</ele>
        <time>2022-07-21T04:34:26Z</time>
      </trkpt>
      <trkpt lat="44.16762" lon="5.14742">
        <ele>399.2</ele>
        <time>2022-07-21T04:34:27Z</time>
      </trkpt>
      <trkpt lat="44.16761" lon="5.14747">
        <ele>399.2</ele>
        <time>2022-07-21T04:34:28Z</time>
      </trkpt>
      <trkpt lat="44.16759" lon="5.14752">
        <ele>399.2</ele>
        <time>2022-07-21T04:34:29Z</time>
      </trkpt>
      <trkpt lat="44.16758" lon="5.14757">
        <ele>399.3</ele>
        <time>2022-07-21T04:34:30Z</time>
      </trkpt>
      <trkpt lat="44.16757" lon="5.14762">
        <ele>399.3</ele>
        <time>2022-07-21T04:34:31Z</time>
      </trkpt>
      <trkpt lat="44.16755" lon="5.14766">
        <ele>399.3</ele>
        <time>2022-07-21T04:34:32Z</time>
      </trkpt>
      <trkpt lat="44.16754" lon="5.14771">
        <ele>399.4</ele>
        <time>2022-07-21T04:34:33Z</time>
      </trkpt>
      <trkpt lat="44.16752" lon="5.14776">
        <ele>399.4</ele>
        <time>2022-07-21T04:34:34Z</time>
      </trkpt>
      <trkpt lat="44.1675" lon="5.1478">
        <ele>399.5</ele>
        <time>2022-07-21T04:34:35Z</time>
      </trkpt>
      <trkpt lat="44.16749" lon="5.14785">
        <ele>399.5</ele>
        <time>2022-07-21T04:34:36Z</time>
      </trkpt>
      <trkpt lat="44.16747" lon="5.1479">
        <ele>399.6</ele>
        <time>2022-07-21T04:34:37Z</time>
      </trkpt>
      <trkpt lat="44.16746" lon="5.14794">
        <ele>399.6</ele>
        <time>2022-07-21T04:34:38Z</time>
      </trkpt>
      <trkpt lat="44.16745" lon="5.14799">
        <ele>399.6</ele>
        <time>2022-07-21T04:34:39Z</time>
      </trkpt>
      <trkpt lat="44.16743" lon="5.14803">
        <ele>399.7</ele>
        <time>2022-07-21T04:34:40Z</time>
      </trkpt>
      <trkpt lat="44.16741" lon="5.14808">
        <ele>399.7</ele>
        <time>2022-07-21T04:34:41Z</time>
      </trkpt>
      <trkpt lat="44.16739" lon="5.14812">
        <ele>399.8</ele>
        <time>2022-07-21T04:34:42Z</time>
      </trkpt>
      <trkpt lat="44.16737" lon="5.14816">
        <ele>399.8</ele>
        <time>2022-07-21T04:34:43Z</time>
      </trkpt>
      <trkpt lat="44.16735" lon="5.14821">
        <ele>399.9</ele>
        <time>2022-07-21T04:34:44Z</time>
      </trkpt>
      <trkpt lat="44.16732" lon="5.14825">
        <ele>399.9</ele>
        <time>2022-07-21T04:34:45Z</time>
      </trkpt>
      <trkpt lat="44.1673" lon="5.14829">
        <ele>400</ele>
        <time>2022-07-21T04:34:46Z</time>
      </trkpt>
      <trkpt lat="44.16727" lon="5.14833">
        <ele>400</ele>
        <time>2022-07-21T04:34:47Z</time>
      </trkpt>
      <trkpt lat="44.16724" lon="5.14837">
        <ele>400</ele>
        <time>2022-07-21T04:34:48Z</time>
      </trkpt>
      <trkpt lat="44.1672" lon="5.1484">
        <ele>400.1</ele>
        <time>2022-07-21T04:34:49Z</time>
      </trkpt>
      <trkpt lat="44.16717" lon="5.14843">
        <ele>400.1</ele>
        <time>2022-07-21T04:34:50Z</time>
      </trkpt>
      <trkpt lat="44.16714" lon="5.14845">
        <ele>400.1</ele>
        <time>2022-07-21T04:34:51Z</time>
      </trkpt>
      <trkpt lat="44.16711" lon="5.14849">
        <ele>400.2</ele>
        <time>2022-07-21T04:34:52Z</time>
      </trkpt>
      <trkpt lat="44.16708" lon="5.14852">
        <ele>400.2</ele>
        <time>2022-07-21T04:34:53Z</time>
      </trkpt>
      <trkpt lat="44.16704" lon="5.14855">
        <ele>400.2</ele>
        <time>2022-07-21T04:34:54Z</time>
      </trkpt>
      <trkpt lat="44.16701" lon="5.14857">
        <ele>400.2</ele>
        <time>2022-07-21T04:34:55Z</time>
      </trkpt>
      <trkpt lat="44.16697" lon="5.14859">
        <ele>400.2</ele>
        <time>2022-07-21T04:34:56Z</time>
      </trkpt>
      <trkpt lat="44.16693" lon="5.1486">
        <ele>400.3</ele>
        <time>2022-07-21T04:34:57Z</time>
      </trkpt>
      <trkpt lat="44.16689" lon="5.14861">
        <ele>400.4</ele>
        <time>2022-07-21T04:34:58Z</time>
      </trkpt>
      <trkpt lat="44.16686" lon="5.14861">
        <ele>400.4</ele>
        <time>2022-07-21T04:34:59Z</time>
      </trkpt>
      <trkpt lat="44.16683" lon="5.14861">
        <ele>400.5</ele>
        <time>2022-07-21T04:35:00Z</time>
      </trkpt>
      <trkpt lat="44.16679" lon="5.1486">
        <ele>400.6</ele>
        <time>2022-07-21T04:35:01Z</time>
      </trkpt>
      <trkpt lat="44.16675" lon="5.14858">
        <ele>400.7</ele>
        <time>2022-07-21T04:35:02Z</time>
      </trkpt>
      <trkpt lat="44.16671" lon="5.14856">
        <ele>400.8</ele>
        <time>2022-07-21T04:35:03Z</time>
      </trkpt>
      <trkpt lat="44.16668" lon="5.14853">
        <ele>400.9</ele>
        <time>2022-07-21T04:35:04Z</time>
      </trkpt>
      <trkpt lat="44.16664" lon="5.1485">
        <ele>401.1</ele>
        <time>2022-07-21T04:35:05Z</time>
      </trkpt>
      <trkpt lat="44.1666" lon="5.14846">
        <ele>401.3</ele>
        <time>2022-07-21T04:35:06Z</time>
      </trkpt>
      <trkpt lat="44.16658" lon="5.14841">
        <ele>401.5</ele>
        <time>2022-07-21T04:35:07Z</time>
      </trkpt>
      <trkpt lat="44.16656" lon="5.14838">
        <ele>401.7</ele>
        <time>2022-07-21T04:35:08Z</time>
      </trkpt>
      <trkpt lat="44.16654" lon="5.14833">
        <ele>401.9</ele>
        <time>2022-07-21T04:35:09Z</time>
      </trkpt>
      <trkpt lat="44.16652" lon="5.14832">
        <ele>402</ele>
        <time>2022-07-21T04:35:10Z</time>
      </trkpt>
      <trkpt lat="44.1665" lon="5.14829">
        <ele>402.2</ele>
        <time>2022-07-21T04:35:11Z</time>
      </trkpt>
      <trkpt lat="44.16649" lon="5.14825">
        <ele>402.4</ele>
        <time>2022-07-21T04:35:12Z</time>
      </trkpt>
      <trkpt lat="44.1665" lon="5.14823">
        <ele>402.5</ele>
        <time>2022-07-21T04:35:13Z</time>
      </trkpt>
      <trkpt lat="44.16651" lon="5.14822">
        <ele>402.6</ele>
        <time>2022-07-21T04:35:14Z</time>
      </trkpt>
      <trkpt lat="44.1665" lon="5.14821">
        <ele>402.7</ele>
        <time>2022-07-21T04:35:15Z</time>
      </trkpt>
      <trkpt lat="44.16648" lon="5.1482">
        <ele>402.8</ele>
        <time>2022-07-21T04:35:16Z</time>
      </trkpt>
      <trkpt lat="44.16647" lon="5.14818">
        <ele>402.9</ele>
        <time>2022-07-21T04:35:17Z</time>
      </trkpt>
      <trkpt lat="44.16647" lon="5.14816">
        <ele>403</ele>
        <time>2022-07-21T04:35:18Z</time>
      </trkpt>
      <trkpt lat="44.16647" lon="5.14814">
        <ele>403.1</ele>
        <time>2022-07-21T04:35:19Z</time>
      </trkpt>
      <trkpt lat="44.16646" lon="5.1481">
        <ele>403.3</ele>
        <time>2022-07-21T04:35:20Z</time>
      </trkpt>
      <trkpt lat="44.16646" lon="5.14809">
        <ele>403.4</ele>
        <time>2022-07-21T04:35:21Z</time>
      </trkpt>
      <trkpt lat="44.16645" lon="5.14806">
        <ele>403.6</ele>
        <time>2022-07-21T04:35:22Z</time>
      </trkpt>
      <trkpt lat="44.16644" lon="5.14804">
        <ele>403.7</ele>
        <time>2022-07-21T04:35:23Z</time>
      </trkpt>
      <trkpt lat="44.16644" lon="5.14803">
        <ele>403.8</ele>
        <time>2022-07-21T04:35:24Z</time>
      </trkpt>
      <trkpt lat="44.16643" lon="5.14801">
        <ele>403.9</ele>
        <time>2022-07-21T04:35:25Z</time>
      </trkpt>
      <trkpt lat="44.16641" lon="5.14797">
        <ele>404.2</ele>
        <time>2022-07-21T04:35:26Z</time>
      </trkpt>
      <trkpt lat="44.16641" lon="5.14796">
        <ele>404.2</ele>
        <time>2022-07-21T04:35:27Z</time>
      </trkpt>
      <trkpt lat="44.1664" lon="5.14794">
        <ele>404.4</ele>
        <time>2022-07-21T04:35:28Z</time>
      </trkpt>
      <trkpt lat="44.16639" lon="5.14792">
        <ele>404.5</ele>
        <time>2022-07-21T04:35:29Z</time>
      </trkpt>
      <trkpt lat="44.16639" lon="5.1479">
        <ele>404.7</ele>
        <time>2022-07-21T04:35:30Z</time>
      </trkpt>
      <trkpt lat="44.16638" lon="5.14788">
        <ele>404.8</ele>
        <time>2022-07-21T04:35:31Z</time>
      </trkpt>
      <trkpt lat="44.16638" lon="5.14786">
        <ele>404.9</ele>
        <time>2022-07-21T04:35:32Z</time>
      </trkpt>
      <trkpt lat="44.16637" lon="5.14784">
        <ele>405</ele>
        <time>2022-07-21T04:35:33Z</time>
      </trkpt>
      <trkpt lat="44.16637" lon="5.14782">
        <ele>405.2</ele>
        <time>2022-07-21T04:35:34Z</time>
      </trkpt>
      <trkpt lat="44.16636" lon="5.1478">
        <ele>405.3</ele>
        <time>2022-07-21T04:35:35Z</time>
      </trkpt>
      <trkpt lat="44.16635" lon="5.14777">
        <ele>405.5</ele>
        <time>2022-07-21T04:35:36Z</time>
      </trkpt>
      <trkpt lat="44.16634" lon="5.14776">
        <ele>405.6</ele>
        <time>2022-07-21T04:35:37Z</time>
      </trkpt>
      <trkpt lat="44.16632" lon="5.14773">
        <ele>405.9</ele>
        <time>2022-07-21T04:35:38Z</time>
      </trkpt>
      <trkpt lat="44.16632" lon="5.14772">
        <ele>406</ele>
        <time>2022-07-21T04:35:39Z</time>
      </trkpt>
      <trkpt lat="44.1663" lon="5.14769">
        <ele>406.2</ele>
        <time>2022-07-21T04:35:40Z</time>
      </trkpt>
      <trkpt lat="44.16629" lon="5.14768">
        <ele>406.3</ele>
        <time>2022-07-21T04:35:41Z</time>
      </trkpt>
      <trkpt lat="44.16628" lon="5.14766">
        <ele>406.4</ele>
        <time>2022-07-21T04:35:42Z</time>
      </trkpt>
      <trkpt lat="44.16628" lon="5.14764">
        <ele>406.6</ele>
        <time>2022-07-21T04:35:43Z</time>
      </trkpt>
      <trkpt lat="44.16627" lon="5.1476">
        <ele>406.8</ele>
        <time>2022-07-21T04:35:44Z</time>
      </trkpt>
      <trkpt lat="44.16626" lon="5.14759">
        <ele>406.9</ele>
        <time>2022-07-21T04:35:45Z</time>
      </trkpt>
      <trkpt lat="44.16624" lon="5.14756">
        <ele>407.1</ele>
        <time>2022-07-21T04:35:46Z</time>
      </trkpt>
      <trkpt lat="44.16624" lon="5.14755">
        <ele>407.2</ele>
        <time>2022-07-21T04:35:47Z</time>
      </trkpt>
      <trkpt lat="44.16621" lon="5.14753">
        <ele>407.5</ele>
        <time>2022-07-21T04:35:48Z</time>
      </trkpt>
      <trkpt lat="44.1662" lon="5.14753">
        <ele>407.6</ele>
        <time>2022-07-21T04:35:49Z</time>
      </trkpt>
      <trkpt lat="44.16618" lon="5.1475">
        <ele>407.9</ele>
        <time>2022-07-21T04:35:50Z</time>
      </trkpt>
      <trkpt lat="44.16617" lon="5.14749">
        <ele>408</ele>
        <time>2022-07-21T04:35:51Z</time>
      </trkpt>
      <trkpt lat="44.16616" lon="5.14747">
        <ele>408.1</ele>
        <time>2022-07-21T04:35:52Z</time>
      </trkpt>
      <trkpt lat="44.16616" lon="5.14746">
        <ele>408.2</ele>
        <time>2022-07-21T04:35:53Z</time>
      </trkpt>
      <trkpt lat="44.16615" lon="5.14743">
        <ele>408.4</ele>
        <time>2022-07-21T04:35:54Z</time>
      </trkpt>
      <trkpt lat="44.16614" lon="5.14742">
        <ele>408.5</ele>
        <time>2022-07-21T04:35:55Z</time>
      </trkpt>
      <trkpt lat="44.16614" lon="5.14741">
        <ele>408.6</ele>
        <time>2022-07-21T04:35:56Z</time>
      </trkpt>
      <trkpt lat="44.16613" lon="5.14739">
        <ele>408.8</ele>
        <time>2022-07-21T04:35:57Z</time>
      </trkpt>
      <trkpt lat="44.16611" lon="5.14738">
        <ele>408.9</ele>
        <time>2022-07-21T04:35:58Z</time>
      </trkpt>
      <trkpt lat="44.16609" lon="5.14736">
        <ele>409.2</ele>
        <time>2022-07-21T04:35:59Z</time>
      </trkpt>
      <trkpt lat="44.16608" lon="5.14736">
        <ele>409.3</ele>
        <time>2022-07-21T04:36:00Z</time>
      </trkpt>
      <trkpt lat="44.16606" lon="5.14735">
        <ele>409.4</ele>
        <time>2022-07-21T04:36:01Z</time>
      </trkpt>
      <trkpt lat="44.16604" lon="5.14734">
        <ele>409.6</ele>
        <time>2022-07-21T04:36:02Z</time>
      </trkpt>
      <trkpt lat="44.16602" lon="5.14733">
        <ele>409.9</ele>
        <time>2022-07-21T04:36:03Z</time>
      </trkpt>
      <trkpt lat="44.16601" lon="5.14733">
        <ele>410</ele>
        <time>2022-07-21T04:36:04Z</time>
      </trkpt>
      <trkpt lat="44.16599" lon="5.14732">
        <ele>410.1</ele>
        <time>2022-07-21T04:36:05Z</time>
      </trkpt>
      <trkpt lat="44.16597" lon="5.14732">
        <ele>410.3</ele>
        <time>2022-07-21T04:36:06Z</time>
      </trkpt>
      <trkpt lat="44.16596" lon="5.14731">
        <ele>410.5</ele>
        <time>2022-07-21T04:36:07Z</time>
      </trkpt>
      <trkpt lat="44.16594" lon="5.14731">
        <ele>410.6</ele>
        <time>2022-07-21T04:36:08Z</time>
      </trkpt>
      <trkpt lat="44.16592" lon="5.14731">
        <ele>410.8</ele>
        <time>2022-07-21T04:36:09Z</time>
      </trkpt>
      <trkpt lat="44.16591" lon="5.14731">
        <ele>411</ele>
        <time>2022-07-21T04:36:10Z</time>
      </trkpt>
      <trkpt lat="44.16588" lon="5.14731">
        <ele>411.2</ele>
        <time>2022-07-21T04:36:11Z</time>
      </trkpt>
      <trkpt lat="44.16587" lon="5.14731">
        <ele>411.3</ele>
        <time>2022-07-21T04:36:12Z</time>
      </trkpt>
      <trkpt lat="44.16585" lon="5.14731">
        <ele>411.5</ele>
        <time>2022-07-21T04:36:13Z</time>
      </trkpt>
      <trkpt lat="44.16583" lon="5.14731">
        <ele>411.7</ele>
        <time>2022-07-21T04:36:14Z</time>
      </trkpt>
      <trkpt lat="44.1658" lon="5.14731">
        <ele>412</ele>
        <time>2022-07-21T04:36:15Z</time>
      </trkpt>
      <trkpt lat="44.16579" lon="5.14731">
        <ele>412</ele>
        <time>2022-07-21T04:36:16Z</time>
      </trkpt>
      <trkpt lat="44.16576" lon="5.1473">
        <ele>412.3</ele>
        <time>2022-07-21T04:36:17Z</time>
      </trkpt>
      <trkpt lat="44.16575" lon="5.1473">
        <ele>412.4</ele>
        <time>2022-07-21T04:36:18Z</time>
      </trkpt>
      <trkpt lat="44.16573" lon="5.14729">
        <ele>412.6</ele>
        <time>2022-07-21T04:36:19Z</time>
      </trkpt>
      <trkpt lat="44.16572" lon="5.14729">
        <ele>412.6</ele>
        <time>2022-07-21T04:36:20Z</time>
      </trkpt>
      <trkpt lat="44.1657" lon="5.14728">
        <ele>412.8</ele>
        <time>2022-07-21T04:36:21Z</time>
      </trkpt>
      <trkpt lat="44.16568" lon="5.14727">
        <ele>412.9</ele>
        <time>2022-07-21T04:36:22Z</time>
      </trkpt>
      <trkpt lat="44.16567" lon="5.14726">
        <ele>413</ele>
        <time>2022-07-21T04:36:23Z</time>
      </trkpt>
      <trkpt lat="44.16566" lon="5.14725">
        <ele>413.2</ele>
        <time>2022-07-21T04:36:24Z</time>
      </trkpt>
      <trkpt lat="44.16564" lon="5.14724">
        <ele>413.3</ele>
        <time>2022-07-21T04:36:25Z</time>
      </trkpt>
      <trkpt lat="44.16563" lon="5.14722">
        <ele>413.4</ele>
        <time>2022-07-21T04:36:26Z</time>
      </trkpt>
      <trkpt lat="44.16561" lon="5.14719">
        <ele>413.6</ele>
        <time>2022-07-21T04:36:27Z</time>
      </trkpt>
      <trkpt lat="44.16561" lon="5.14718">
        <ele>413.6</ele>
        <time>2022-07-21T04:36:28Z</time>
      </trkpt>
      <trkpt lat="44.1656" lon="5.14714">
        <ele>413.8</ele>
        <time>2022-07-21T04:36:29Z</time>
      </trkpt>
      <trkpt lat="44.16559" lon="5.14713">
        <ele>413.9</ele>
        <time>2022-07-21T04:36:30Z</time>
      </trkpt>
      <trkpt lat="44.16559" lon="5.14711">
        <ele>414</ele>
        <time>2022-07-21T04:36:31Z</time>
      </trkpt>
      <trkpt lat="44.16559" lon="5.14709">
        <ele>414.1</ele>
        <time>2022-07-21T04:36:32Z</time>
      </trkpt>
      <trkpt lat="44.16558" lon="5.14707">
        <ele>414.2</ele>
        <time>2022-07-21T04:36:33Z</time>
      </trkpt>
      <trkpt lat="44.16558" lon="5.14704">
        <ele>414.3</ele>
        <time>2022-07-21T04:36:34Z</time>
      </trkpt>
      <trkpt lat="44.16558" lon="5.14702">
        <ele>414.3</ele>
        <time>2022-07-21T04:36:35Z</time>
      </trkpt>
      <trkpt lat="44.16557" lon="5.147">
        <ele>414.4</ele>
        <time>2022-07-21T04:36:36Z</time>
      </trkpt>
      <trkpt lat="44.16557" lon="5.14698">
        <ele>414.5</ele>
        <time>2022-07-21T04:36:37Z</time>
      </trkpt>
      <trkpt lat="44.16557" lon="5.14697">
        <ele>414.6</ele>
        <time>2022-07-21T04:36:38Z</time>
      </trkpt>
      <trkpt lat="44.16558" lon="5.14695">
        <ele>414.6</ele>
        <time>2022-07-21T04:36:39Z</time>
      </trkpt>
      <trkpt lat="44.16557" lon="5.14693">
        <ele>414.7</ele>
        <time>2022-07-21T04:36:40Z</time>
      </trkpt>
      <trkpt lat="44.16557" lon="5.1469">
        <ele>414.8</ele>
        <time>2022-07-21T04:36:41Z</time>
      </trkpt>
      <trkpt lat="44.16557" lon="5.14688">
        <ele>414.9</ele>
        <time>2022-07-21T04:36:42Z</time>
      </trkpt>
      <trkpt lat="44.16556" lon="5.14686">
        <ele>415</ele>
        <time>2022-07-21T04:36:43Z</time>
      </trkpt>
      <trkpt lat="44.16556" lon="5.14684">
        <ele>415.1</ele>
        <time>2022-07-21T04:36:44Z</time>
      </trkpt>
      <trkpt lat="44.16555" lon="5.14681">
        <ele>415.2</ele>
        <time>2022-07-21T04:36:45Z</time>
      </trkpt>
      <trkpt lat="44.16554" lon="5.14679">
        <ele>415.3</ele>
        <time>2022-07-21T04:36:46Z</time>
      </trkpt>
      <trkpt lat="44.16554" lon="5.14677">
        <ele>415.3</ele>
        <time>2022-07-21T04:36:47Z</time>
      </trkpt>
      <trkpt lat="44.16553" lon="5.14675">
        <ele>415.4</ele>
        <time>2022-07-21T04:36:48Z</time>
      </trkpt>
      <trkpt lat="44.16553" lon="5.14672">
        <ele>415.5</ele>
        <time>2022-07-21T04:36:49Z</time>
      </trkpt>
      <trkpt lat="44.16552" lon="5.1467">
        <ele>415.6</ele>
        <time>2022-07-21T04:36:50Z</time>
      </trkpt>
      <trkpt lat="44.16552" lon="5.14666">
        <ele>415.8</ele>
        <time>2022-07-21T04:36:51Z</time>
      </trkpt>
      <trkpt lat="44.16551" lon="5.14665">
        <ele>415.8</ele>
        <time>2022-07-21T04:36:52Z</time>
      </trkpt>
      <trkpt lat="44.1655" lon="5.14661">
        <ele>416</ele>
        <time>2022-07-21T04:36:53Z</time>
      </trkpt>
      <trkpt lat="44.1655" lon="5.1466">
        <ele>416.1</ele>
        <time>2022-07-21T04:36:54Z</time>
      </trkpt>
      <trkpt lat="44.1655" lon="5.14658">
        <ele>416.2</ele>
        <time>2022-07-21T04:36:55Z</time>
      </trkpt>
      <trkpt lat="44.1655" lon="5.14655">
        <ele>416.3</ele>
        <time>2022-07-21T04:36:56Z</time>
      </trkpt>
      <trkpt lat="44.16549" lon="5.14653">
        <ele>416.4</ele>
        <time>2022-07-21T04:36:57Z</time>
      </trkpt>
      <trkpt lat="44.16549" lon="5.14651">
        <ele>416.5</ele>
        <time>2022-07-21T04:36:58Z</time>
      </trkpt>
      <trkpt lat="44.16549" lon="5.14648">
        <ele>416.7</ele>
        <time>2022-07-21T04:36:59Z</time>
      </trkpt>
      <trkpt lat="44.16549" lon="5.14647">
        <ele>416.7</ele>
        <time>2022-07-21T04:37:00Z</time>
      </trkpt>
      <trkpt lat="44.16549" lon="5.14646">
        <ele>416.8</ele>
        <time>2022-07-21T04:37:01Z</time>
      </trkpt>
      <trkpt lat="44.16549" lon="5.14644">
        <ele>416.9</ele>
        <time>2022-07-21T04:37:02Z</time>
      </trkpt>
      <trkpt lat="44.16548" lon="5.14641">
        <ele>417</ele>
        <time>2022-07-21T04:37:03Z</time>
      </trkpt>
      <trkpt lat="44.16548" lon="5.14639">
        <ele>417.2</ele>
        <time>2022-07-21T04:37:04Z</time>
      </trkpt>
      <trkpt lat="44.16548" lon="5.14637">
        <ele>417.3</ele>
        <time>2022-07-21T04:37:05Z</time>
      </trkpt>
      <trkpt lat="44.16549" lon="5.14636">
        <ele>417.4</ele>
        <time>2022-07-21T04:37:06Z</time>
      </trkpt>
      <trkpt lat="44.16549" lon="5.14634">
        <ele>417.5</ele>
        <time>2022-07-21T04:37:07Z</time>
      </trkpt>
      <trkpt lat="44.16549" lon="5.14633">
        <ele>417.6</ele>
        <time>2022-07-21T04:37:08Z</time>
      </trkpt>
      <trkpt lat="44.1655" lon="5.14632">
        <ele>417.6</ele>
        <time>2022-07-21T04:37:09Z</time>
      </trkpt>
      <trkpt lat="44.1655" lon="5.1463">
        <ele>417.8</ele>
        <time>2022-07-21T04:37:10Z</time>
      </trkpt>
      <trkpt lat="44.1655" lon="5.14628">
        <ele>417.9</ele>
        <time>2022-07-21T04:37:11Z</time>
      </trkpt>
      <trkpt lat="44.1655" lon="5.14626">
        <ele>418.1</ele>
        <time>2022-07-21T04:37:12Z</time>
      </trkpt>
      <trkpt lat="44.16549" lon="5.14625">
        <ele>418.1</ele>
        <time>2022-07-21T04:37:13Z</time>
      </trkpt>
      <trkpt lat="44.16548" lon="5.14624">
        <ele>418.2</ele>
        <time>2022-07-21T04:37:14Z</time>
      </trkpt>
      <trkpt lat="44.16547" lon="5.14621">
        <ele>418.4</ele>
        <time>2022-07-21T04:37:15Z</time>
      </trkpt>
      <trkpt lat="44.16547" lon="5.1462">
        <ele>418.5</ele>
        <time>2022-07-21T04:37:16Z</time>
      </trkpt>
      <trkpt lat="44.16547" lon="5.14618">
        <ele>418.6</ele>
        <time>2022-07-21T04:37:17Z</time>
      </trkpt>
      <trkpt lat="44.16548" lon="5.14615">
        <ele>418.9</ele>
        <time>2022-07-21T04:37:18Z</time>
      </trkpt>
      <trkpt lat="44.16548" lon="5.14614">
        <ele>419</ele>
        <time>2022-07-21T04:37:19Z</time>
      </trkpt>
      <trkpt lat="44.16548" lon="5.14612">
        <ele>419.1</ele>
        <time>2022-07-21T04:37:20Z</time>
      </trkpt>
      <trkpt lat="44.16548" lon="5.1461">
        <ele>419.2</ele>
        <time>2022-07-21T04:37:21Z</time>
      </trkpt>
      <trkpt lat="44.16548" lon="5.14607">
        <ele>419.4</ele>
        <time>2022-07-21T04:37:22Z</time>
      </trkpt>
      <trkpt lat="44.16548" lon="5.14606">
        <ele>419.5</ele>
        <time>2022-07-21T04:37:23Z</time>
      </trkpt>
      <trkpt lat="44.16547" lon="5.14604">
        <ele>419.7</ele>
        <time>2022-07-21T04:37:24Z</time>
      </trkpt>
      <trkpt lat="44.16548" lon="5.14602">
        <ele>419.8</ele>
        <time>2022-07-21T04:37:25Z</time>
      </trkpt>
      <trkpt lat="44.16548" lon="5.14599">
        <ele>420</ele>
        <time>2022-07-21T04:37:26Z</time>
      </trkpt>
      <trkpt lat="44.16549" lon="5.14598">
        <ele>420.2</ele>
        <time>2022-07-21T04:37:27Z</time>
      </trkpt>
      <trkpt lat="44.1655" lon="5.14596">
        <ele>420.3</ele>
        <time>2022-07-21T04:37:28Z</time>
      </trkpt>
      <trkpt lat="44.16551" lon="5.14594">
        <ele>420.5</ele>
        <time>2022-07-21T04:37:29Z</time>
      </trkpt>
      <trkpt lat="44.16552" lon="5.1459">
        <ele>420.8</ele>
        <time>2022-07-21T04:37:30Z</time>
      </trkpt>
      <trkpt lat="44.16553" lon="5.14588">
        <ele>421</ele>
        <time>2022-07-21T04:37:31Z</time>
      </trkpt>
      <trkpt lat="44.16554" lon="5.14584">
        <ele>421.3</ele>
        <time>2022-07-21T04:37:32Z</time>
      </trkpt>
      <trkpt lat="44.16555" lon="5.14582">
        <ele>421.4</ele>
        <time>2022-07-21T04:37:33Z</time>
      </trkpt>
      <trkpt lat="44.16556" lon="5.14578">
        <ele>421.7</ele>
        <time>2022-07-21T04:37:34Z</time>
      </trkpt>
      <trkpt lat="44.16556" lon="5.14576">
        <ele>421.8</ele>
        <time>2022-07-21T04:37:35Z</time>
      </trkpt>
      <trkpt lat="44.16557" lon="5.14573">
        <ele>422.1</ele>
        <time>2022-07-21T04:37:36Z</time>
      </trkpt>
      <trkpt lat="44.16557" lon="5.14571">
        <ele>422.2</ele>
        <time>2022-07-21T04:37:37Z</time>
      </trkpt>
      <trkpt lat="44.16559" lon="5.14567">
        <ele>422.5</ele>
        <time>2022-07-21T04:37:38Z</time>
      </trkpt>
      <trkpt lat="44.16559" lon="5.14565">
        <ele>422.6</ele>
        <time>2022-07-21T04:37:39Z</time>
      </trkpt>
      <trkpt lat="44.1656" lon="5.14561">
        <ele>422.9</ele>
        <time>2022-07-21T04:37:40Z</time>
      </trkpt>
      <trkpt lat="44.1656" lon="5.1456">
        <ele>423</ele>
        <time>2022-07-21T04:37:41Z</time>
      </trkpt>
      <trkpt lat="44.1656" lon="5.14556">
        <ele>423.2</ele>
        <time>2022-07-21T04:37:42Z</time>
      </trkpt>
      <trkpt lat="44.1656" lon="5.14554">
        <ele>423.3</ele>
        <time>2022-07-21T04:37:43Z</time>
      </trkpt>
      <trkpt lat="44.16559" lon="5.1455">
        <ele>423.6</ele>
        <time>2022-07-21T04:37:44Z</time>
      </trkpt>
      <trkpt lat="44.16559" lon="5.14549">
        <ele>423.7</ele>
        <time>2022-07-21T04:37:45Z</time>
      </trkpt>
      <trkpt lat="44.16557" lon="5.14545">
        <ele>424</ele>
        <time>2022-07-21T04:37:46Z</time>
      </trkpt>
      <trkpt lat="44.16557" lon="5.14543">
        <ele>424</ele>
        <time>2022-07-21T04:37:47Z</time>
      </trkpt>
      <trkpt lat="44.16556" lon="5.1454">
        <ele>424.3</ele>
        <time>2022-07-21T04:37:48Z</time>
      </trkpt>
      <trkpt lat="44.16555" lon="5.14538">
        <ele>424.3</ele>
        <time>2022-07-21T04:37:49Z</time>
      </trkpt>
      <trkpt lat="44.16553" lon="5.14535">
        <ele>424.6</ele>
        <time>2022-07-21T04:37:50Z</time>
      </trkpt>
      <trkpt lat="44.16553" lon="5.14534">
        <ele>424.6</ele>
        <time>2022-07-21T04:37:51Z</time>
      </trkpt>
      <trkpt lat="44.1655" lon="5.14531">
        <ele>424.9</ele>
        <time>2022-07-21T04:37:52Z</time>
      </trkpt>
      <trkpt lat="44.1655" lon="5.1453">
        <ele>424.9</ele>
        <time>2022-07-21T04:37:53Z</time>
      </trkpt>
      <trkpt lat="44.16547" lon="5.14527">
        <ele>425.2</ele>
        <time>2022-07-21T04:37:54Z</time>
      </trkpt>
      <trkpt lat="44.16546" lon="5.14526">
        <ele>425.2</ele>
        <time>2022-07-21T04:37:55Z</time>
      </trkpt>
      <trkpt lat="44.16544" lon="5.14524">
        <ele>425.4</ele>
        <time>2022-07-21T04:37:56Z</time>
      </trkpt>
      <trkpt lat="44.16543" lon="5.14523">
        <ele>425.5</ele>
        <time>2022-07-21T04:37:57Z</time>
      </trkpt>
      <trkpt lat="44.1654" lon="5.14521">
        <ele>425.7</ele>
        <time>2022-07-21T04:37:58Z</time>
      </trkpt>
      <trkpt lat="44.16539" lon="5.1452">
        <ele>425.8</ele>
        <time>2022-07-21T04:37:59Z</time>
      </trkpt>
      <trkpt lat="44.16537" lon="5.14519">
        <ele>425.9</ele>
        <time>2022-07-21T04:38:00Z</time>
      </trkpt>
      <trkpt lat="44.16536" lon="5.14517">
        <ele>426</ele>
        <time>2022-07-21T04:38:01Z</time>
      </trkpt>
      <trkpt lat="44.16535" lon="5.14516">
        <ele>426.1</ele>
        <time>2022-07-21T04:38:02Z</time>
      </trkpt>
      <trkpt lat="44.16534" lon="5.14514">
        <ele>426.2</ele>
        <time>2022-07-21T04:38:03Z</time>
      </trkpt>
      <trkpt lat="44.16531" lon="5.14512">
        <ele>426.5</ele>
        <time>2022-07-21T04:38:04Z</time>
      </trkpt>
      <trkpt lat="44.16531" lon="5.14511">
        <ele>426.5</ele>
        <time>2022-07-21T04:38:05Z</time>
      </trkpt>
      <trkpt lat="44.16528" lon="5.14509">
        <ele>426.7</ele>
        <time>2022-07-21T04:38:06Z</time>
      </trkpt>
      <trkpt lat="44.16527" lon="5.14508">
        <ele>426.8</ele>
        <time>2022-07-21T04:38:07Z</time>
      </trkpt>
      <trkpt lat="44.16525" lon="5.14506">
        <ele>427</ele>
        <time>2022-07-21T04:38:08Z</time>
      </trkpt>
      <trkpt lat="44.16524" lon="5.14505">
        <ele>427.1</ele>
        <time>2022-07-21T04:38:09Z</time>
      </trkpt>
      <trkpt lat="44.16522" lon="5.14502">
        <ele>427.3</ele>
        <time>2022-07-21T04:38:10Z</time>
      </trkpt>
      <trkpt lat="44.16521" lon="5.14501">
        <ele>427.4</ele>
        <time>2022-07-21T04:38:11Z</time>
      </trkpt>
      <trkpt lat="44.16519" lon="5.14498">
        <ele>427.6</ele>
        <time>2022-07-21T04:38:12Z</time>
      </trkpt>
      <trkpt lat="44.16519" lon="5.14497">
        <ele>427.7</ele>
        <time>2022-07-21T04:38:13Z</time>
      </trkpt>
      <trkpt lat="44.16518" lon="5.14495">
        <ele>427.8</ele>
        <time>2022-07-21T04:38:14Z</time>
      </trkpt>
      <trkpt lat="44.16516" lon="5.14493">
        <ele>428</ele>
        <time>2022-07-21T04:38:15Z</time>
      </trkpt>
      <trkpt lat="44.16514" lon="5.1449">
        <ele>428.2</ele>
        <time>2022-07-21T04:38:16Z</time>
      </trkpt>
      <trkpt lat="44.16513" lon="5.1449">
        <ele>428.3</ele>
        <time>2022-07-21T04:38:17Z</time>
      </trkpt>
      <trkpt lat="44.16511" lon="5.14487">
        <ele>428.5</ele>
        <time>2022-07-21T04:38:18Z</time>
      </trkpt>
      <trkpt lat="44.1651" lon="5.14487">
        <ele>428.6</ele>
        <time>2022-07-21T04:38:19Z</time>
      </trkpt>
      <trkpt lat="44.16509" lon="5.14485">
        <ele>428.8</ele>
        <time>2022-07-21T04:38:20Z</time>
      </trkpt>
      <trkpt lat="44.16507" lon="5.14484">
        <ele>428.9</ele>
        <time>2022-07-21T04:38:21Z</time>
      </trkpt>
      <trkpt lat="44.16506" lon="5.14482">
        <ele>429</ele>
        <time>2022-07-21T04:38:22Z</time>
      </trkpt>
      <trkpt lat="44.16505" lon="5.1448">
        <ele>429.2</ele>
        <time>2022-07-21T04:38:23Z</time>
      </trkpt>
      <trkpt lat="44.16503" lon="5.14477">
        <ele>429.4</ele>
        <time>2022-07-21T04:38:24Z</time>
      </trkpt>
      <trkpt lat="44.16503" lon="5.14476">
        <ele>429.5</ele>
        <time>2022-07-21T04:38:25Z</time>
      </trkpt>
      <trkpt lat="44.16501" lon="5.14473">
        <ele>429.7</ele>
        <time>2022-07-21T04:38:26Z</time>
      </trkpt>
      <trkpt lat="44.16501" lon="5.14472">
        <ele>429.8</ele>
        <time>2022-07-21T04:38:27Z</time>
      </trkpt>
      <trkpt lat="44.165" lon="5.1447">
        <ele>429.9</ele>
        <time>2022-07-21T04:38:28Z</time>
      </trkpt>
      <trkpt lat="44.16499" lon="5.14468">
        <ele>430</ele>
        <time>2022-07-21T04:38:29Z</time>
      </trkpt>
      <trkpt lat="44.16499" lon="5.14466">
        <ele>430.1</ele>
        <time>2022-07-21T04:38:30Z</time>
      </trkpt>
      <trkpt lat="44.16498" lon="5.14464">
        <ele>430.3</ele>
        <time>2022-07-21T04:38:31Z</time>
      </trkpt>
      <trkpt lat="44.16498" lon="5.14462">
        <ele>430.4</ele>
        <time>2022-07-21T04:38:32Z</time>
      </trkpt>
      <trkpt lat="44.16498" lon="5.1446">
        <ele>430.5</ele>
        <time>2022-07-21T04:38:33Z</time>
      </trkpt>
      <trkpt lat="44.16498" lon="5.14458">
        <ele>430.6</ele>
        <time>2022-07-21T04:38:34Z</time>
      </trkpt>
      <trkpt lat="44.16498" lon="5.14457">
        <ele>430.7</ele>
        <time>2022-07-21T04:38:35Z</time>
      </trkpt>
      <trkpt lat="44.16498" lon="5.14455">
        <ele>430.8</ele>
        <time>2022-07-21T04:38:36Z</time>
      </trkpt>
      <trkpt lat="44.16499" lon="5.14453">
        <ele>430.9</ele>
        <time>2022-07-21T04:38:37Z</time>
      </trkpt>
      <trkpt lat="44.16499" lon="5.14451">
        <ele>431</ele>
        <time>2022-07-21T04:38:38Z</time>
      </trkpt>
      <trkpt lat="44.165" lon="5.1445">
        <ele>431.1</ele>
        <time>2022-07-21T04:38:39Z</time>
      </trkpt>
      <trkpt lat="44.16501" lon="5.14448">
        <ele>431.2</ele>
        <time>2022-07-21T04:38:40Z</time>
      </trkpt>
      <trkpt lat="44.16501" lon="5.14446">
        <ele>431.3</ele>
        <time>2022-07-21T04:38:41Z</time>
      </trkpt>
      <trkpt lat="44.16501" lon="5.14444">
        <ele>431.4</ele>
        <time>2022-07-21T04:38:42Z</time>
      </trkpt>
      <trkpt lat="44.16502" lon="5.14442">
        <ele>431.5</ele>
        <time>2022-07-21T04:38:43Z</time>
      </trkpt>
      <trkpt lat="44.16503" lon="5.14439">
        <ele>431.7</ele>
        <time>2022-07-21T04:38:44Z</time>
      </trkpt>
      <trkpt lat="44.16503" lon="5.14438">
        <ele>431.7</ele>
        <time>2022-07-21T04:38:45Z</time>
      </trkpt>
      <trkpt lat="44.16504" lon="5.14437">
        <ele>431.8</ele>
        <time>2022-07-21T04:38:46Z</time>
      </trkpt>
      <trkpt lat="44.16504" lon="5.14435">
        <ele>431.9</ele>
        <time>2022-07-21T04:38:47Z</time>
      </trkpt>
      <trkpt lat="44.16505" lon="5.14433">
        <ele>432</ele>
        <time>2022-07-21T04:38:48Z</time>
      </trkpt>
      <trkpt lat="44.16505" lon="5.14432">
        <ele>432.1</ele>
        <time>2022-07-21T04:38:49Z</time>
      </trkpt>
      <trkpt lat="44.16505" lon="5.14429">
        <ele>432.2</ele>
        <time>2022-07-21T04:38:50Z</time>
      </trkpt>
      <trkpt lat="44.16505" lon="5.14427">
        <ele>432.3</ele>
        <time>2022-07-21T04:38:51Z</time>
      </trkpt>
      <trkpt lat="44.16505" lon="5.14424">
        <ele>432.5</ele>
        <time>2022-07-21T04:38:52Z</time>
      </trkpt>
      <trkpt lat="44.16505" lon="5.14422">
        <ele>432.6</ele>
        <time>2022-07-21T04:38:53Z</time>
      </trkpt>
      <trkpt lat="44.16505" lon="5.1442">
        <ele>432.7</ele>
        <time>2022-07-21T04:38:54Z</time>
      </trkpt>
      <trkpt lat="44.16506" lon="5.14418">
        <ele>432.8</ele>
        <time>2022-07-21T04:38:55Z</time>
      </trkpt>
      <trkpt lat="44.16506" lon="5.14416">
        <ele>433</ele>
        <time>2022-07-21T04:38:56Z</time>
      </trkpt>
      <trkpt lat="44.16506" lon="5.14413">
        <ele>433.1</ele>
        <time>2022-07-21T04:38:57Z</time>
      </trkpt>
      <trkpt lat="44.16507" lon="5.14411">
        <ele>433.2</ele>
        <time>2022-07-21T04:38:58Z</time>
      </trkpt>
      <trkpt lat="44.16506" lon="5.14407">
        <ele>433.4</ele>
        <time>2022-07-21T04:38:59Z</time>
      </trkpt>
      <trkpt lat="44.16506" lon="5.14405">
        <ele>433.5</ele>
        <time>2022-07-21T04:39:00Z</time>
      </trkpt>
      <trkpt lat="44.16507" lon="5.14401">
        <ele>433.8</ele>
        <time>2022-07-21T04:39:01Z</time>
      </trkpt>
      <trkpt lat="44.16507" lon="5.144">
        <ele>433.8</ele>
        <time>2022-07-21T04:39:02Z</time>
      </trkpt>
      <trkpt lat="44.16508" lon="5.14396">
        <ele>434.1</ele>
        <time>2022-07-21T04:39:03Z</time>
      </trkpt>
      <trkpt lat="44.16508" lon="5.14395">
        <ele>434.1</ele>
        <time>2022-07-21T04:39:04Z</time>
      </trkpt>
      <trkpt lat="44.16508" lon="5.1439">
        <ele>434.4</ele>
        <time>2022-07-21T04:39:05Z</time>
      </trkpt>
      <trkpt lat="44.16508" lon="5.14389">
        <ele>434.5</ele>
        <time>2022-07-21T04:39:06Z</time>
      </trkpt>
      <trkpt lat="44.16508" lon="5.14384">
        <ele>434.8</ele>
        <time>2022-07-21T04:39:07Z</time>
      </trkpt>
      <trkpt lat="44.16508" lon="5.14383">
        <ele>434.9</ele>
        <time>2022-07-21T04:39:08Z</time>
      </trkpt>
      <trkpt lat="44.16508" lon="5.14379">
        <ele>435.1</ele>
        <time>2022-07-21T04:39:09Z</time>
      </trkpt>
      <trkpt lat="44.16508" lon="5.14377">
        <ele>435.2</ele>
        <time>2022-07-21T04:39:10Z</time>
      </trkpt>
      <trkpt lat="44.16508" lon="5.14373">
        <ele>435.4</ele>
        <time>2022-07-21T04:39:11Z</time>
      </trkpt>
      <trkpt lat="44.16507" lon="5.14372">
        <ele>435.5</ele>
        <time>2022-07-21T04:39:12Z</time>
      </trkpt>
      <trkpt lat="44.16507" lon="5.14368">
        <ele>435.8</ele>
        <time>2022-07-21T04:39:13Z</time>
      </trkpt>
      <trkpt lat="44.16507" lon="5.14367">
        <ele>435.8</ele>
        <time>2022-07-21T04:39:14Z</time>
      </trkpt>
      <trkpt lat="44.16506" lon="5.14364">
        <ele>436</ele>
        <time>2022-07-21T04:39:15Z</time>
      </trkpt>
      <trkpt lat="44.16506" lon="5.14362">
        <ele>436.1</ele>
        <time>2022-07-21T04:39:16Z</time>
      </trkpt>
      <trkpt lat="44.16506" lon="5.1436">
        <ele>436.2</ele>
        <time>2022-07-21T04:39:17Z</time>
      </trkpt>
      <trkpt lat="44.16505" lon="5.14358">
        <ele>436.3</ele>
        <time>2022-07-21T04:39:18Z</time>
      </trkpt>
      <trkpt lat="44.16505" lon="5.14356">
        <ele>436.5</ele>
        <time>2022-07-21T04:39:19Z</time>
      </trkpt>
      <trkpt lat="44.16504" lon="5.14354">
        <ele>436.6</ele>
        <time>2022-07-21T04:39:20Z</time>
      </trkpt>
      <trkpt lat="44.16504" lon="5.14352">
        <ele>436.7</ele>
        <time>2022-07-21T04:39:21Z</time>
      </trkpt>
      <trkpt lat="44.16503" lon="5.1435">
        <ele>436.9</ele>
        <time>2022-07-21T04:39:22Z</time>
      </trkpt>
      <trkpt lat="44.16502" lon="5.14348">
        <ele>437</ele>
        <time>2022-07-21T04:39:23Z</time>
      </trkpt>
      <trkpt lat="44.16502" lon="5.14346">
        <ele>437.1</ele>
        <time>2022-07-21T04:39:24Z</time>
      </trkpt>
      <trkpt lat="44.16501" lon="5.14344">
        <ele>437.2</ele>
        <time>2022-07-21T04:39:25Z</time>
      </trkpt>
      <trkpt lat="44.165" lon="5.14342">
        <ele>437.3</ele>
        <time>2022-07-21T04:39:26Z</time>
      </trkpt>
      <trkpt lat="44.16499" lon="5.14339">
        <ele>437.5</ele>
        <time>2022-07-21T04:39:27Z</time>
      </trkpt>
      <trkpt lat="44.16498" lon="5.14338">
        <ele>437.6</ele>
        <time>2022-07-21T04:39:28Z</time>
      </trkpt>
      <trkpt lat="44.16497" lon="5.14336">
        <ele>437.7</ele>
        <time>2022-07-21T04:39:29Z</time>
      </trkpt>
      <trkpt lat="44.16496" lon="5.14333">
        <ele>437.9</ele>
        <time>2022-07-21T04:39:30Z</time>
      </trkpt>
      <trkpt lat="44.16495" lon="5.14331">
        <ele>438</ele>
        <time>2022-07-21T04:39:31Z</time>
      </trkpt>
      <trkpt lat="44.16494" lon="5.1433">
        <ele>438.1</ele>
        <time>2022-07-21T04:39:32Z</time>
      </trkpt>
      <trkpt lat="44.16493" lon="5.14328">
        <ele>438.2</ele>
        <time>2022-07-21T04:39:33Z</time>
      </trkpt>
      <trkpt lat="44.16492" lon="5.14326">
        <ele>438.3</ele>
        <time>2022-07-21T04:39:34Z</time>
      </trkpt>
      <trkpt lat="44.16492" lon="5.14324">
        <ele>438.4</ele>
        <time>2022-07-21T04:39:35Z</time>
      </trkpt>
      <trkpt lat="44.16491" lon="5.14322">
        <ele>438.6</ele>
        <time>2022-07-21T04:39:36Z</time>
      </trkpt>
      <trkpt lat="44.1649" lon="5.1432">
        <ele>438.7</ele>
        <time>2022-07-21T04:39:37Z</time>
      </trkpt>
      <trkpt lat="44.16489" lon="5.14318">
        <ele>438.8</ele>
        <time>2022-07-21T04:39:38Z</time>
      </trkpt>
      <trkpt lat="44.16487" lon="5.14315">
        <ele>439</ele>
        <time>2022-07-21T04:39:39Z</time>
      </trkpt>
      <trkpt lat="44.16486" lon="5.14314">
        <ele>439.1</ele>
        <time>2022-07-21T04:39:40Z</time>
      </trkpt>
      <trkpt lat="44.16486" lon="5.14313">
        <ele>439.1</ele>
        <time>2022-07-21T04:39:41Z</time>
      </trkpt>
      <trkpt lat="44.16485" lon="5.14312">
        <ele>439.2</ele>
        <time>2022-07-21T04:39:42Z</time>
      </trkpt>
      <trkpt lat="44.16485" lon="5.1431">
        <ele>439.3</ele>
        <time>2022-07-21T04:39:43Z</time>
      </trkpt>
      <trkpt lat="44.16485" lon="5.14308">
        <ele>439.4</ele>
        <time>2022-07-21T04:39:44Z</time>
      </trkpt>
      <trkpt lat="44.16486" lon="5.14306">
        <ele>439.5</ele>
        <time>2022-07-21T04:39:45Z</time>
      </trkpt>
      <trkpt lat="44.16486" lon="5.14304">
        <ele>439.6</ele>
        <time>2022-07-21T04:39:46Z</time>
      </trkpt>
      <trkpt lat="44.16486" lon="5.14302">
        <ele>439.7</ele>
        <time>2022-07-21T04:39:47Z</time>
      </trkpt>
      <trkpt lat="44.16486" lon="5.143">
        <ele>439.8</ele>
        <time>2022-07-21T04:39:48Z</time>
      </trkpt>
      <trkpt lat="44.16486" lon="5.14298">
        <ele>439.9</ele>
        <time>2022-07-21T04:39:49Z</time>
      </trkpt>
      <trkpt lat="44.16485" lon="5.14297">
        <ele>440</ele>
        <time>2022-07-21T04:39:50Z</time>
      </trkpt>
      <trkpt lat="44.16484" lon="5.14295">
        <ele>440.1</ele>
        <time>2022-07-21T04:39:51Z</time>
      </trkpt>
      <trkpt lat="44.16483" lon="5.14293">
        <ele>440.2</ele>
        <time>2022-07-21T04:39:52Z</time>
      </trkpt>
      <trkpt lat="44.16482" lon="5.14291">
        <ele>440.3</ele>
        <time>2022-07-21T04:39:53Z</time>
      </trkpt>
      <trkpt lat="44.16481" lon="5.14289">
        <ele>440.4</ele>
        <time>2022-07-21T04:39:54Z</time>
      </trkpt>
      <trkpt lat="44.16481" lon="5.14286">
        <ele>440.5</ele>
        <time>2022-07-21T04:39:55Z</time>
      </trkpt>
      <trkpt lat="44.16481" lon="5.14285">
        <ele>440.6</ele>
        <time>2022-07-21T04:39:56Z</time>
      </trkpt>
      <trkpt lat="44.1648" lon="5.14283">
        <ele>440.7</ele>
        <time>2022-07-21T04:39:57Z</time>
      </trkpt>
      <trkpt lat="44.16478" lon="5.1428">
        <ele>440.9</ele>
        <time>2022-07-21T04:39:58Z</time>
      </trkpt>
      <trkpt lat="44.16478" lon="5.14279">
        <ele>441</ele>
        <time>2022-07-21T04:39:59Z</time>
      </trkpt>
      <trkpt lat="44.16476" lon="5.14276">
        <ele>441.2</ele>
        <time>2022-07-21T04:40:00Z</time>
      </trkpt>
      <trkpt lat="44.16475" lon="5.14275">
        <ele>441.3</ele>
        <time>2022-07-21T04:40:01Z</time>
      </trkpt>
      <trkpt lat="44.16474" lon="5.14273">
        <ele>441.4</ele>
        <time>2022-07-21T04:40:02Z</time>
      </trkpt>
      <trkpt lat="44.16473" lon="5.14271">
        <ele>441.5</ele>
        <time>2022-07-21T04:40:03Z</time>
      </trkpt>
      <trkpt lat="44.16471" lon="5.14268">
        <ele>441.7</ele>
        <time>2022-07-21T04:40:04Z</time>
      </trkpt>
      <trkpt lat="44.1647" lon="5.14268">
        <ele>441.8</ele>
        <time>2022-07-21T04:40:05Z</time>
      </trkpt>
      <trkpt lat="44.16467" lon="5.14265">
        <ele>442</ele>
        <time>2022-07-21T04:40:06Z</time>
      </trkpt>
      <trkpt lat="44.16467" lon="5.14264">
        <ele>442.1</ele>
        <time>2022-07-21T04:40:07Z</time>
      </trkpt>
      <trkpt lat="44.16466" lon="5.14262">
        <ele>442.2</ele>
        <time>2022-07-21T04:40:08Z</time>
      </trkpt>
      <trkpt lat="44.16465" lon="5.1426">
        <ele>442.4</ele>
        <time>2022-07-21T04:40:09Z</time>
      </trkpt>
      <trkpt lat="44.16463" lon="5.14257">
        <ele>442.6</ele>
        <time>2022-07-21T04:40:10Z</time>
      </trkpt>
      <trkpt lat="44.16462" lon="5.14257">
        <ele>442.6</ele>
        <time>2022-07-21T04:40:11Z</time>
      </trkpt>
      <trkpt lat="44.16459" lon="5.14254">
        <ele>442.9</ele>
        <time>2022-07-21T04:40:12Z</time>
      </trkpt>
      <trkpt lat="44.16459" lon="5.14253">
        <ele>443</ele>
        <time>2022-07-21T04:40:13Z</time>
      </trkpt>
      <trkpt lat="44.16457" lon="5.14251">
        <ele>443.1</ele>
        <time>2022-07-21T04:40:14Z</time>
      </trkpt>
      <trkpt lat="44.16456" lon="5.14249">
        <ele>443.2</ele>
        <time>2022-07-21T04:40:15Z</time>
      </trkpt>
      <trkpt lat="44.16454" lon="5.14246">
        <ele>443.4</ele>
        <time>2022-07-21T04:40:16Z</time>
      </trkpt>
      <trkpt lat="44.16454" lon="5.14245">
        <ele>443.5</ele>
        <time>2022-07-21T04:40:17Z</time>
      </trkpt>
      <trkpt lat="44.16452" lon="5.14243">
        <ele>443.6</ele>
        <time>2022-07-21T04:40:18Z</time>
      </trkpt>
      <trkpt lat="44.16451" lon="5.14242">
        <ele>443.7</ele>
        <time>2022-07-21T04:40:19Z</time>
      </trkpt>
      <trkpt lat="44.1645" lon="5.14241">
        <ele>443.8</ele>
        <time>2022-07-21T04:40:20Z</time>
      </trkpt>
      <trkpt lat="44.1645" lon="5.14239">
        <ele>443.9</ele>
        <time>2022-07-21T04:40:21Z</time>
      </trkpt>
      <trkpt lat="44.16449" lon="5.14238">
        <ele>444</ele>
        <time>2022-07-21T04:40:22Z</time>
      </trkpt>
      <trkpt lat="44.16449" lon="5.14236">
        <ele>444.1</ele>
        <time>2022-07-21T04:40:23Z</time>
      </trkpt>
      <trkpt lat="44.16448" lon="5.14235">
        <ele>444.2</ele>
        <time>2022-07-21T04:40:24Z</time>
      </trkpt>
      <trkpt lat="44.16448" lon="5.14233">
        <ele>444.2</ele>
        <time>2022-07-21T04:40:25Z</time>
      </trkpt>
      <trkpt lat="44.16447" lon="5.14232">
        <ele>444.3</ele>
        <time>2022-07-21T04:40:26Z</time>
      </trkpt>
      <trkpt lat="44.16446" lon="5.1423">
        <ele>444.4</ele>
        <time>2022-07-21T04:40:27Z</time>
      </trkpt>
      <trkpt lat="44.16446" lon="5.14229">
        <ele>444.5</ele>
        <time>2022-07-21T04:40:28Z</time>
      </trkpt>
      <trkpt lat="44.16445" lon="5.14227">
        <ele>444.6</ele>
        <time>2022-07-21T04:40:29Z</time>
      </trkpt>
      <trkpt lat="44.16443" lon="5.14226">
        <ele>444.7</ele>
        <time>2022-07-21T04:40:30Z</time>
      </trkpt>
      <trkpt lat="44.16442" lon="5.14225">
        <ele>444.8</ele>
        <time>2022-07-21T04:40:31Z</time>
      </trkpt>
      <trkpt lat="44.16441" lon="5.14223">
        <ele>444.9</ele>
        <time>2022-07-21T04:40:32Z</time>
      </trkpt>
      <trkpt lat="44.1644" lon="5.14222">
        <ele>445</ele>
        <time>2022-07-21T04:40:33Z</time>
      </trkpt>
      <trkpt lat="44.16439" lon="5.1422">
        <ele>445.1</ele>
        <time>2022-07-21T04:40:34Z</time>
      </trkpt>
      <trkpt lat="44.16438" lon="5.14219">
        <ele>445.2</ele>
        <time>2022-07-21T04:40:35Z</time>
      </trkpt>
      <trkpt lat="44.16437" lon="5.14218">
        <ele>445.3</ele>
        <time>2022-07-21T04:40:36Z</time>
      </trkpt>
      <trkpt lat="44.16436" lon="5.14216">
        <ele>445.4</ele>
        <time>2022-07-21T04:40:37Z</time>
      </trkpt>
      <trkpt lat="44.16434" lon="5.14214">
        <ele>445.5</ele>
        <time>2022-07-21T04:40:38Z</time>
      </trkpt>
      <trkpt lat="44.16433" lon="5.14213">
        <ele>445.6</ele>
        <time>2022-07-21T04:40:39Z</time>
      </trkpt>
      <trkpt lat="44.16431" lon="5.1421">
        <ele>445.8</ele>
        <time>2022-07-21T04:40:40Z</time>
      </trkpt>
      <trkpt lat="44.1643" lon="5.1421">
        <ele>445.8</ele>
        <time>2022-07-21T04:40:41Z</time>
      </trkpt>
      <trkpt lat="44.16428" lon="5.14207">
        <ele>446.1</ele>
        <time>2022-07-21T04:40:42Z</time>
      </trkpt>
      <trkpt lat="44.16426" lon="5.14206">
        <ele>446.1</ele>
        <time>2022-07-21T04:40:43Z</time>
      </trkpt>
      <trkpt lat="44.16424" lon="5.14204">
        <ele>446.4</ele>
        <time>2022-07-21T04:40:44Z</time>
      </trkpt>
      <trkpt lat="44.16423" lon="5.14203">
        <ele>446.4</ele>
        <time>2022-07-21T04:40:45Z</time>
      </trkpt>
      <trkpt lat="44.16421" lon="5.14201">
        <ele>446.6</ele>
        <time>2022-07-21T04:40:46Z</time>
      </trkpt>
      <trkpt lat="44.1642" lon="5.142">
        <ele>446.7</ele>
        <time>2022-07-21T04:40:47Z</time>
      </trkpt>
      <trkpt lat="44.16418" lon="5.14199">
        <ele>446.8</ele>
        <time>2022-07-21T04:40:48Z</time>
      </trkpt>
      <trkpt lat="44.16417" lon="5.14198">
        <ele>446.9</ele>
        <time>2022-07-21T04:40:49Z</time>
      </trkpt>
      <trkpt lat="44.16415" lon="5.14195">
        <ele>447.1</ele>
        <time>2022-07-21T04:40:50Z</time>
      </trkpt>
      <trkpt lat="44.16414" lon="5.14195">
        <ele>447.1</ele>
        <time>2022-07-21T04:40:51Z</time>
      </trkpt>
      <trkpt lat="44.16412" lon="5.14193">
        <ele>447.2</ele>
        <time>2022-07-21T04:40:52Z</time>
      </trkpt>
      <trkpt lat="44.16411" lon="5.14192">
        <ele>447.4</ele>
        <time>2022-07-21T04:40:53Z</time>
      </trkpt>
      <trkpt lat="44.1641" lon="5.1419">
        <ele>447.5</ele>
        <time>2022-07-21T04:40:54Z</time>
      </trkpt>
      <trkpt lat="44.16408" lon="5.14189">
        <ele>447.6</ele>
        <time>2022-07-21T04:40:55Z</time>
      </trkpt>
      <trkpt lat="44.16407" lon="5.14187">
        <ele>447.8</ele>
        <time>2022-07-21T04:40:56Z</time>
      </trkpt>
      <trkpt lat="44.16406" lon="5.14185">
        <ele>448</ele>
        <time>2022-07-21T04:40:57Z</time>
      </trkpt>
      <trkpt lat="44.16405" lon="5.14183">
        <ele>448.2</ele>
        <time>2022-07-21T04:40:58Z</time>
      </trkpt>
      <trkpt lat="44.16404" lon="5.14181">
        <ele>448.3</ele>
        <time>2022-07-21T04:40:59Z</time>
      </trkpt>
      <trkpt lat="44.16403" lon="5.14179">
        <ele>448.5</ele>
        <time>2022-07-21T04:41:00Z</time>
      </trkpt>
      <trkpt lat="44.16402" lon="5.14177">
        <ele>448.7</ele>
        <time>2022-07-21T04:41:01Z</time>
      </trkpt>
      <trkpt lat="44.16402" lon="5.14176">
        <ele>448.8</ele>
        <time>2022-07-21T04:41:02Z</time>
      </trkpt>
      <trkpt lat="44.16401" lon="5.14174">
        <ele>449</ele>
        <time>2022-07-21T04:41:03Z</time>
      </trkpt>
      <trkpt lat="44.16398" lon="5.14172">
        <ele>449.3</ele>
        <time>2022-07-21T04:41:04Z</time>
      </trkpt>
      <trkpt lat="44.16398" lon="5.14171">
        <ele>449.4</ele>
        <time>2022-07-21T04:41:05Z</time>
      </trkpt>
      <trkpt lat="44.16396" lon="5.14169">
        <ele>449.6</ele>
        <time>2022-07-21T04:41:06Z</time>
      </trkpt>
      <trkpt lat="44.16395" lon="5.14168">
        <ele>449.7</ele>
        <time>2022-07-21T04:41:07Z</time>
      </trkpt>
      <trkpt lat="44.16395" lon="5.14167">
        <ele>449.8</ele>
        <time>2022-07-21T04:41:08Z</time>
      </trkpt>
      <trkpt lat="44.16394" lon="5.14166">
        <ele>449.9</ele>
        <time>2022-07-21T04:41:09Z</time>
      </trkpt>
      <trkpt lat="44.16394" lon="5.14165">
        <ele>450.1</ele>
        <time>2022-07-21T04:41:10Z</time>
      </trkpt>
      <trkpt lat="44.16393" lon="5.14163">
        <ele>450.2</ele>
        <time>2022-07-21T04:41:11Z</time>
      </trkpt>
      <trkpt lat="44.16392" lon="5.14161">
        <ele>450.4</ele>
        <time>2022-07-21T04:41:12Z</time>
      </trkpt>
      <trkpt lat="44.1639" lon="5.14157">
        <ele>450.8</ele>
        <time>2022-07-21T04:41:13Z</time>
      </trkpt>
      <trkpt lat="44.16389" lon="5.14156">
        <ele>450.9</ele>
        <time>2022-07-21T04:41:14Z</time>
      </trkpt>
      <trkpt lat="44.16386" lon="5.14153">
        <ele>451.3</ele>
        <time>2022-07-21T04:41:15Z</time>
      </trkpt>
      <trkpt lat="44.16385" lon="5.14152">
        <ele>451.5</ele>
        <time>2022-07-21T04:41:16Z</time>
      </trkpt>
      <trkpt lat="44.16384" lon="5.14151">
        <ele>451.6</ele>
        <time>2022-07-21T04:41:17Z</time>
      </trkpt>
      <trkpt lat="44.16383" lon="5.1415">
        <ele>451.8</ele>
        <time>2022-07-21T04:41:18Z</time>
      </trkpt>
      <trkpt lat="44.16381" lon="5.14147">
        <ele>452.1</ele>
        <time>2022-07-21T04:41:19Z</time>
      </trkpt>
      <trkpt lat="44.16381" lon="5.14146">
        <ele>452.2</ele>
        <time>2022-07-21T04:41:20Z</time>
      </trkpt>
      <trkpt lat="44.1638" lon="5.14144">
        <ele>452.4</ele>
        <time>2022-07-21T04:41:21Z</time>
      </trkpt>
      <trkpt lat="44.16378" lon="5.14143">
        <ele>452.6</ele>
        <time>2022-07-21T04:41:22Z</time>
      </trkpt>
      <trkpt lat="44.16375" lon="5.1414">
        <ele>453</ele>
        <time>2022-07-21T04:41:23Z</time>
      </trkpt>
      <trkpt lat="44.16375" lon="5.14139">
        <ele>453.1</ele>
        <time>2022-07-21T04:41:24Z</time>
      </trkpt>
      <trkpt lat="44.16372" lon="5.14136">
        <ele>453.5</ele>
        <time>2022-07-21T04:41:25Z</time>
      </trkpt>
      <trkpt lat="44.16372" lon="5.14136">
        <ele>453.6</ele>
        <time>2022-07-21T04:41:26Z</time>
      </trkpt>
      <trkpt lat="44.1637" lon="5.14133">
        <ele>453.9</ele>
        <time>2022-07-21T04:41:27Z</time>
      </trkpt>
      <trkpt lat="44.16369" lon="5.14132">
        <ele>454</ele>
        <time>2022-07-21T04:41:28Z</time>
      </trkpt>
      <trkpt lat="44.16366" lon="5.1413">
        <ele>454.4</ele>
        <time>2022-07-21T04:41:29Z</time>
      </trkpt>
      <trkpt lat="44.16366" lon="5.14129">
        <ele>454.5</ele>
        <time>2022-07-21T04:41:30Z</time>
      </trkpt>
      <trkpt lat="44.16363" lon="5.14127">
        <ele>454.9</ele>
        <time>2022-07-21T04:41:31Z</time>
      </trkpt>
      <trkpt lat="44.16362" lon="5.14126">
        <ele>455.1</ele>
        <time>2022-07-21T04:41:32Z</time>
      </trkpt>
      <trkpt lat="44.16359" lon="5.14124">
        <ele>455.5</ele>
        <time>2022-07-21T04:41:33Z</time>
      </trkpt>
      <trkpt lat="44.16358" lon="5.14124">
        <ele>455.6</ele>
        <time>2022-07-21T04:41:34Z</time>
      </trkpt>
      <trkpt lat="44.16355" lon="5.14122">
        <ele>456</ele>
        <time>2022-07-21T04:41:35Z</time>
      </trkpt>
      <trkpt lat="44.16354" lon="5.14122">
        <ele>456.1</ele>
        <time>2022-07-21T04:41:36Z</time>
      </trkpt>
      <trkpt lat="44.16351" lon="5.1412">
        <ele>456.5</ele>
        <time>2022-07-21T04:41:37Z</time>
      </trkpt>
      <trkpt lat="44.1635" lon="5.14119">
        <ele>456.7</ele>
        <time>2022-07-21T04:41:38Z</time>
      </trkpt>
      <trkpt lat="44.16347" lon="5.14118">
        <ele>457.1</ele>
        <time>2022-07-21T04:41:39Z</time>
      </trkpt>
      <trkpt lat="44.16345" lon="5.14118">
        <ele>457.2</ele>
        <time>2022-07-21T04:41:40Z</time>
      </trkpt>
      <trkpt lat="44.16342" lon="5.14117">
        <ele>457.6</ele>
        <time>2022-07-21T04:41:41Z</time>
      </trkpt>
      <trkpt lat="44.16341" lon="5.14117">
        <ele>457.7</ele>
        <time>2022-07-21T04:41:42Z</time>
      </trkpt>
      <trkpt lat="44.1634" lon="5.14116">
        <ele>457.9</ele>
        <time>2022-07-21T04:41:43Z</time>
      </trkpt>
      <trkpt lat="44.16338" lon="5.14116">
        <ele>458.1</ele>
        <time>2022-07-21T04:41:44Z</time>
      </trkpt>
      <trkpt lat="44.16337" lon="5.14116">
        <ele>458.3</ele>
        <time>2022-07-21T04:41:45Z</time>
      </trkpt>
      <trkpt lat="44.16335" lon="5.14116">
        <ele>458.5</ele>
        <time>2022-07-21T04:41:46Z</time>
      </trkpt>
      <trkpt lat="44.16334" lon="5.14115">
        <ele>458.7</ele>
        <time>2022-07-21T04:41:47Z</time>
      </trkpt>
      <trkpt lat="44.16332" lon="5.14115">
        <ele>458.9</ele>
        <time>2022-07-21T04:41:48Z</time>
      </trkpt>
      <trkpt lat="44.1633" lon="5.14115">
        <ele>459.1</ele>
        <time>2022-07-21T04:41:49Z</time>
      </trkpt>
      <trkpt lat="44.1633" lon="5.14115">
        <ele>459.2</ele>
        <time>2022-07-21T04:41:50Z</time>
      </trkpt>
      <trkpt lat="44.16329" lon="5.14115">
        <ele>459.3</ele>
        <time>2022-07-21T04:41:51Z</time>
      </trkpt>
      <trkpt lat="44.16327" lon="5.14114">
        <ele>459.6</ele>
        <time>2022-07-21T04:41:52Z</time>
      </trkpt>
      <trkpt lat="44.16326" lon="5.14114">
        <ele>459.7</ele>
        <time>2022-07-21T04:41:53Z</time>
      </trkpt>
      <trkpt lat="44.16325" lon="5.14114">
        <ele>459.8</ele>
        <time>2022-07-21T04:41:54Z</time>
      </trkpt>
      <trkpt lat="44.16323" lon="5.14113">
        <ele>460.1</ele>
        <time>2022-07-21T04:41:55Z</time>
      </trkpt>
      <trkpt lat="44.16322" lon="5.14113">
        <ele>460.2</ele>
        <time>2022-07-21T04:41:56Z</time>
      </trkpt>
      <trkpt lat="44.16321" lon="5.14113">
        <ele>460.3</ele>
        <time>2022-07-21T04:41:57Z</time>
      </trkpt>
      <trkpt lat="44.1632" lon="5.14113">
        <ele>460.4</ele>
        <time>2022-07-21T04:41:58Z</time>
      </trkpt>
      <trkpt lat="44.16318" lon="5.14113">
        <ele>460.6</ele>
        <time>2022-07-21T04:41:59Z</time>
      </trkpt>
      <trkpt lat="44.16318" lon="5.14113">
        <ele>460.2</ele>
        <time>2022-07-21T04:42:00Z</time>
      </trkpt>
      <trkpt lat="44.16316" lon="5.14113">
        <ele>459.4</ele>
        <time>2022-07-21T04:42:01Z</time>
      </trkpt>
      <trkpt lat="44.16315" lon="5.14113">
        <ele>459</ele>
        <time>2022-07-21T04:42:02Z</time>
      </trkpt>
      <trkpt lat="44.16314" lon="5.14113">
        <ele>458.6</ele>
        <time>2022-07-21T04:42:03Z</time>
      </trkpt>
      <trkpt lat="44.16312" lon="5.14113">
        <ele>458.5</ele>
        <time>2022-07-21T04:42:04Z</time>
      </trkpt>
      <trkpt lat="44.16311" lon="5.14113">
        <ele>458.6</ele>
        <time>2022-07-21T04:42:05Z</time>
      </trkpt>
      <trkpt lat="44.1631" lon="5.14113">
        <ele>458.7</ele>
        <time>2022-07-21T04:42:06Z</time>
      </trkpt>
      <trkpt lat="44.16308" lon="5.14114">
        <ele>458.9</ele>
        <time>2022-07-21T04:42:07Z</time>
      </trkpt>
      <trkpt lat="44.16307" lon="5.14114">
        <ele>459</ele>
        <time>2022-07-21T04:42:08Z</time>
      </trkpt>
      <trkpt lat="44.16305" lon="5.14114">
        <ele>459</ele>
        <time>2022-07-21T04:42:09Z</time>
      </trkpt>
      <trkpt lat="44.16302" lon="5.14115">
        <ele>459.3</ele>
        <time>2022-07-21T04:42:10Z</time>
      </trkpt>
      <trkpt lat="44.16301" lon="5.14115">
        <ele>459.4</ele>
        <time>2022-07-21T04:42:11Z</time>
      </trkpt>
      <trkpt lat="44.163" lon="5.14116">
        <ele>459.5</ele>
        <time>2022-07-21T04:42:12Z</time>
      </trkpt>
      <trkpt lat="44.16298" lon="5.14115">
        <ele>459.7</ele>
        <time>2022-07-21T04:42:13Z</time>
      </trkpt>
      <trkpt lat="44.16297" lon="5.14115">
        <ele>459.8</ele>
        <time>2022-07-21T04:42:14Z</time>
      </trkpt>
      <trkpt lat="44.16295" lon="5.14115">
        <ele>459.9</ele>
        <time>2022-07-21T04:42:15Z</time>
      </trkpt>
      <trkpt lat="44.16293" lon="5.14115">
        <ele>460</ele>
        <time>2022-07-21T04:42:16Z</time>
      </trkpt>
      <trkpt lat="44.16292" lon="5.14114">
        <ele>460.2</ele>
        <time>2022-07-21T04:42:17Z</time>
      </trkpt>
      <trkpt lat="44.1629" lon="5.14114">
        <ele>460.3</ele>
        <time>2022-07-21T04:42:18Z</time>
      </trkpt>
      <trkpt lat="44.16289" lon="5.14114">
        <ele>460.4</ele>
        <time>2022-07-21T04:42:19Z</time>
      </trkpt>
      <trkpt lat="44.16287" lon="5.14115">
        <ele>460.6</ele>
        <time>2022-07-21T04:42:20Z</time>
      </trkpt>
      <trkpt lat="44.16285" lon="5.14115">
        <ele>460.7</ele>
        <time>2022-07-21T04:42:21Z</time>
      </trkpt>
      <trkpt lat="44.16284" lon="5.14116">
        <ele>460.8</ele>
        <time>2022-07-21T04:42:22Z</time>
      </trkpt>
      <trkpt lat="44.16282" lon="5.14116">
        <ele>461</ele>
        <time>2022-07-21T04:42:23Z</time>
      </trkpt>
      <trkpt lat="44.1628" lon="5.14116">
        <ele>461.2</ele>
        <time>2022-07-21T04:42:24Z</time>
      </trkpt>
      <trkpt lat="44.16279" lon="5.14116">
        <ele>461.2</ele>
        <time>2022-07-21T04:42:25Z</time>
      </trkpt>
      <trkpt lat="44.16278" lon="5.14116">
        <ele>461.3</ele>
        <time>2022-07-21T04:42:26Z</time>
      </trkpt>
      <trkpt lat="44.16276" lon="5.14116">
        <ele>461.5</ele>
        <time>2022-07-21T04:42:27Z</time>
      </trkpt>
      <trkpt lat="44.16275" lon="5.14116">
        <ele>461.6</ele>
        <time>2022-07-21T04:42:28Z</time>
      </trkpt>
      <trkpt lat="44.16274" lon="5.14116">
        <ele>461.7</ele>
        <time>2022-07-21T04:42:29Z</time>
      </trkpt>
      <trkpt lat="44.16271" lon="5.14116">
        <ele>461.9</ele>
        <time>2022-07-21T04:42:30Z</time>
      </trkpt>
      <trkpt lat="44.1627" lon="5.14116">
        <ele>462</ele>
        <time>2022-07-21T04:42:31Z</time>
      </trkpt>
      <trkpt lat="44.16267" lon="5.14116">
        <ele>462.2</ele>
        <time>2022-07-21T04:42:32Z</time>
      </trkpt>
      <trkpt lat="44.16266" lon="5.14116">
        <ele>462.3</ele>
        <time>2022-07-21T04:42:33Z</time>
      </trkpt>
      <trkpt lat="44.16264" lon="5.14115">
        <ele>462.4</ele>
        <time>2022-07-21T04:42:34Z</time>
      </trkpt>
      <trkpt lat="44.16262" lon="5.14115">
        <ele>462.6</ele>
        <time>2022-07-21T04:42:35Z</time>
      </trkpt>
      <trkpt lat="44.1626" lon="5.14115">
        <ele>462.7</ele>
        <time>2022-07-21T04:42:36Z</time>
      </trkpt>
      <trkpt lat="44.16259" lon="5.14115">
        <ele>462.9</ele>
        <time>2022-07-21T04:42:37Z</time>
      </trkpt>
      <trkpt lat="44.16257" lon="5.14115">
        <ele>463</ele>
        <time>2022-07-21T04:42:38Z</time>
      </trkpt>
      <trkpt lat="44.16255" lon="5.14115">
        <ele>463.2</ele>
        <time>2022-07-21T04:42:39Z</time>
      </trkpt>
      <trkpt lat="44.16252" lon="5.14115">
        <ele>463.4</ele>
        <time>2022-07-21T04:42:40Z</time>
      </trkpt>
      <trkpt lat="44.16251" lon="5.14115">
        <ele>463.5</ele>
        <time>2022-07-21T04:42:41Z</time>
      </trkpt>
      <trkpt lat="44.1625" lon="5.14114">
        <ele>463.6</ele>
        <time>2022-07-21T04:42:42Z</time>
      </trkpt>
      <trkpt lat="44.16248" lon="5.14114">
        <ele>463.7</ele>
        <time>2022-07-21T04:42:43Z</time>
      </trkpt>
      <trkpt lat="44.16247" lon="5.14114">
        <ele>463.8</ele>
        <time>2022-07-21T04:42:44Z</time>
      </trkpt>
      <trkpt lat="44.16245" lon="5.14114">
        <ele>464</ele>
        <time>2022-07-21T04:42:45Z</time>
      </trkpt>
      <trkpt lat="44.16243" lon="5.14114">
        <ele>464.1</ele>
        <time>2022-07-21T04:42:46Z</time>
      </trkpt>
      <trkpt lat="44.16241" lon="5.14114">
        <ele>464.3</ele>
        <time>2022-07-21T04:42:47Z</time>
      </trkpt>
      <trkpt lat="44.16239" lon="5.14114">
        <ele>464.4</ele>
        <time>2022-07-21T04:42:48Z</time>
      </trkpt>
      <trkpt lat="44.16238" lon="5.14114">
        <ele>464.5</ele>
        <time>2022-07-21T04:42:49Z</time>
      </trkpt>
      <trkpt lat="44.16236" lon="5.14114">
        <ele>464.6</ele>
        <time>2022-07-21T04:42:50Z</time>
      </trkpt>
      <trkpt lat="44.16235" lon="5.14115">
        <ele>464.8</ele>
        <time>2022-07-21T04:42:52Z</time>
      </trkpt>
      <trkpt lat="44.16233" lon="5.14115">
        <ele>464.9</ele>
        <time>2022-07-21T04:42:53Z</time>
      </trkpt>
      <trkpt lat="44.16231" lon="5.14115">
        <ele>465</ele>
        <time>2022-07-21T04:42:54Z</time>
      </trkpt>
      <trkpt lat="44.16229" lon="5.14114">
        <ele>465.1</ele>
        <time>2022-07-21T04:42:55Z</time>
      </trkpt>
      <trkpt lat="44.16228" lon="5.14114">
        <ele>465.2</ele>
        <time>2022-07-21T04:42:56Z</time>
      </trkpt>
      <trkpt lat="44.16225" lon="5.14114">
        <ele>465.5</ele>
        <time>2022-07-21T04:42:57Z</time>
      </trkpt>
      <trkpt lat="44.16224" lon="5.14115">
        <ele>465.5</ele>
        <time>2022-07-21T04:42:58Z</time>
      </trkpt>
      <trkpt lat="44.16222" lon="5.14115">
        <ele>465.7</ele>
        <time>2022-07-21T04:42:59Z</time>
      </trkpt>
      <trkpt lat="44.1622" lon="5.14115">
        <ele>465.8</ele>
        <time>2022-07-21T04:43:00Z</time>
      </trkpt>
      <trkpt lat="44.16217" lon="5.14116">
        <ele>466</ele>
        <time>2022-07-21T04:43:01Z</time>
      </trkpt>
      <trkpt lat="44.16217" lon="5.14116">
        <ele>466.1</ele>
        <time>2022-07-21T04:43:02Z</time>
      </trkpt>
      <trkpt lat="44.16214" lon="5.14117">
        <ele>466.3</ele>
        <time>2022-07-21T04:43:03Z</time>
      </trkpt>
      <trkpt lat="44.16213" lon="5.14118">
        <ele>466.4</ele>
        <time>2022-07-21T04:43:04Z</time>
      </trkpt>
      <trkpt lat="44.16211" lon="5.14118">
        <ele>466.5</ele>
        <time>2022-07-21T04:43:05Z</time>
      </trkpt>
      <trkpt lat="44.16209" lon="5.14119">
        <ele>466.6</ele>
        <time>2022-07-21T04:43:06Z</time>
      </trkpt>
      <trkpt lat="44.16206" lon="5.1412">
        <ele>466.9</ele>
        <time>2022-07-21T04:43:07Z</time>
      </trkpt>
      <trkpt lat="44.16206" lon="5.14121">
        <ele>466.9</ele>
        <time>2022-07-21T04:43:08Z</time>
      </trkpt>
      <trkpt lat="44.16204" lon="5.14121">
        <ele>467.1</ele>
        <time>2022-07-21T04:43:09Z</time>
      </trkpt>
      <trkpt lat="44.16203" lon="5.14122">
        <ele>467.2</ele>
        <time>2022-07-21T04:43:10Z</time>
      </trkpt>
      <trkpt lat="44.16201" lon="5.14123">
        <ele>467.3</ele>
        <time>2022-07-21T04:43:11Z</time>
      </trkpt>
      <trkpt lat="44.162" lon="5.14124">
        <ele>467.4</ele>
        <time>2022-07-21T04:43:12Z</time>
      </trkpt>
      <trkpt lat="44.16198" lon="5.14125">
        <ele>467.6</ele>
        <time>2022-07-21T04:43:13Z</time>
      </trkpt>
      <trkpt lat="44.16197" lon="5.14126">
        <ele>467.7</ele>
        <time>2022-07-21T04:43:14Z</time>
      </trkpt>
      <trkpt lat="44.16195" lon="5.14128">
        <ele>467.9</ele>
        <time>2022-07-21T04:43:15Z</time>
      </trkpt>
      <trkpt lat="44.16194" lon="5.14128">
        <ele>468</ele>
        <time>2022-07-21T04:43:16Z</time>
      </trkpt>
      <trkpt lat="44.16192" lon="5.14129">
        <ele>468.2</ele>
        <time>2022-07-21T04:43:17Z</time>
      </trkpt>
      <trkpt lat="44.16191" lon="5.14129">
        <ele>468.3</ele>
        <time>2022-07-21T04:43:18Z</time>
      </trkpt>
      <trkpt lat="44.1619" lon="5.14129">
        <ele>468.3</ele>
        <time>2022-07-21T04:43:19Z</time>
      </trkpt>
      <trkpt lat="44.16188" lon="5.14129">
        <ele>468.5</ele>
        <time>2022-07-21T04:43:20Z</time>
      </trkpt>
      <trkpt lat="44.16187" lon="5.14129">
        <ele>468.6</ele>
        <time>2022-07-21T04:43:21Z</time>
      </trkpt>
      <trkpt lat="44.16186" lon="5.1413">
        <ele>468.7</ele>
        <time>2022-07-21T04:43:22Z</time>
      </trkpt>
      <trkpt lat="44.16184" lon="5.1413">
        <ele>468.9</ele>
        <time>2022-07-21T04:43:23Z</time>
      </trkpt>
      <trkpt lat="44.16183" lon="5.1413">
        <ele>469</ele>
        <time>2022-07-21T04:43:24Z</time>
      </trkpt>
      <trkpt lat="44.16182" lon="5.1413">
        <ele>469</ele>
        <time>2022-07-21T04:43:25Z</time>
      </trkpt>
      <trkpt lat="44.16181" lon="5.1413">
        <ele>469.1</ele>
        <time>2022-07-21T04:43:26Z</time>
      </trkpt>
      <trkpt lat="44.16179" lon="5.1413">
        <ele>469.3</ele>
        <time>2022-07-21T04:43:27Z</time>
      </trkpt>
      <trkpt lat="44.16178" lon="5.1413">
        <ele>469.4</ele>
        <time>2022-07-21T04:43:28Z</time>
      </trkpt>
      <trkpt lat="44.16177" lon="5.1413">
        <ele>469.5</ele>
        <time>2022-07-21T04:43:29Z</time>
      </trkpt>
      <trkpt lat="44.16176" lon="5.14131">
        <ele>469.6</ele>
        <time>2022-07-21T04:43:30Z</time>
      </trkpt>
      <trkpt lat="44.16174" lon="5.14132">
        <ele>469.8</ele>
        <time>2022-07-21T04:43:31Z</time>
      </trkpt>
      <trkpt lat="44.16172" lon="5.14132">
        <ele>469.9</ele>
        <time>2022-07-21T04:43:32Z</time>
      </trkpt>
      <trkpt lat="44.1617" lon="5.14132">
        <ele>470.1</ele>
        <time>2022-07-21T04:43:33Z</time>
      </trkpt>
      <trkpt lat="44.16169" lon="5.14132">
        <ele>470.2</ele>
        <time>2022-07-21T04:43:34Z</time>
      </trkpt>
      <trkpt lat="44.16167" lon="5.14131">
        <ele>470.4</ele>
        <time>2022-07-21T04:43:35Z</time>
      </trkpt>
      <trkpt lat="44.16164" lon="5.14131">
        <ele>470.6</ele>
        <time>2022-07-21T04:43:36Z</time>
      </trkpt>
      <trkpt lat="44.16163" lon="5.14131">
        <ele>470.7</ele>
        <time>2022-07-21T04:43:37Z</time>
      </trkpt>
      <trkpt lat="44.16161" lon="5.14131">
        <ele>470.9</ele>
        <time>2022-07-21T04:43:38Z</time>
      </trkpt>
      <trkpt lat="44.1616" lon="5.14131">
        <ele>471</ele>
        <time>2022-07-21T04:43:39Z</time>
      </trkpt>
      <trkpt lat="44.16158" lon="5.14131">
        <ele>471.2</ele>
        <time>2022-07-21T04:43:40Z</time>
      </trkpt>
      <trkpt lat="44.16156" lon="5.1413">
        <ele>471.4</ele>
        <time>2022-07-21T04:43:41Z</time>
      </trkpt>
      <trkpt lat="44.16153" lon="5.1413">
        <ele>471.6</ele>
        <time>2022-07-21T04:43:42Z</time>
      </trkpt>
      <trkpt lat="44.16153" lon="5.1413">
        <ele>471.7</ele>
        <time>2022-07-21T04:43:43Z</time>
      </trkpt>
      <trkpt lat="44.16151" lon="5.1413">
        <ele>471.9</ele>
        <time>2022-07-21T04:43:44Z</time>
      </trkpt>
      <trkpt lat="44.1615" lon="5.14129">
        <ele>472</ele>
        <time>2022-07-21T04:43:45Z</time>
      </trkpt>
      <trkpt lat="44.16148" lon="5.14129">
        <ele>472.1</ele>
        <time>2022-07-21T04:43:46Z</time>
      </trkpt>
      <trkpt lat="44.16147" lon="5.14129">
        <ele>472.2</ele>
        <time>2022-07-21T04:43:47Z</time>
      </trkpt>
      <trkpt lat="44.16146" lon="5.14128">
        <ele>472.3</ele>
        <time>2022-07-21T04:43:48Z</time>
      </trkpt>
      <trkpt lat="44.16144" lon="5.14128">
        <ele>472.5</ele>
        <time>2022-07-21T04:43:49Z</time>
      </trkpt>
      <trkpt lat="44.16143" lon="5.14127">
        <ele>472.6</ele>
        <time>2022-07-21T04:43:50Z</time>
      </trkpt>
      <trkpt lat="44.16141" lon="5.14128">
        <ele>472.8</ele>
        <time>2022-07-21T04:43:51Z</time>
      </trkpt>
      <trkpt lat="44.16138" lon="5.14128">
        <ele>473</ele>
        <time>2022-07-21T04:43:52Z</time>
      </trkpt>
      <trkpt lat="44.16137" lon="5.14128">
        <ele>473.1</ele>
        <time>2022-07-21T04:43:53Z</time>
      </trkpt>
      <trkpt lat="44.16136" lon="5.14128">
        <ele>473.2</ele>
        <time>2022-07-21T04:43:54Z</time>
      </trkpt>
      <trkpt lat="44.16134" lon="5.14128">
        <ele>473.4</ele>
        <time>2022-07-21T04:43:55Z</time>
      </trkpt>
      <trkpt lat="44.16132" lon="5.14128">
        <ele>473.6</ele>
        <time>2022-07-21T04:43:56Z</time>
      </trkpt>
      <trkpt lat="44.16131" lon="5.14128">
        <ele>473.6</ele>
        <time>2022-07-21T04:43:57Z</time>
      </trkpt>
      <trkpt lat="44.1613" lon="5.14128">
        <ele>473.7</ele>
        <time>2022-07-21T04:43:58Z</time>
      </trkpt>
      <trkpt lat="44.16128" lon="5.14127">
        <ele>473.9</ele>
        <time>2022-07-21T04:43:59Z</time>
      </trkpt>
      <trkpt lat="44.16127" lon="5.14127">
        <ele>474</ele>
        <time>2022-07-21T04:44:00Z</time>
      </trkpt>
      <trkpt lat="44.16126" lon="5.14127">
        <ele>474.1</ele>
        <time>2022-07-21T04:44:01Z</time>
      </trkpt>
      <trkpt lat="44.16124" lon="5.14128">
        <ele>474.3</ele>
        <time>2022-07-21T04:44:02Z</time>
      </trkpt>
      <trkpt lat="44.16123" lon="5.14128">
        <ele>474.4</ele>
        <time>2022-07-21T04:44:03Z</time>
      </trkpt>
      <trkpt lat="44.16122" lon="5.14128">
        <ele>474.4</ele>
        <time>2022-07-21T04:44:04Z</time>
      </trkpt>
      <trkpt lat="44.16119" lon="5.14128">
        <ele>474.7</ele>
        <time>2022-07-21T04:44:05Z</time>
      </trkpt>
      <trkpt lat="44.16118" lon="5.14128">
        <ele>474.8</ele>
        <time>2022-07-21T04:44:06Z</time>
      </trkpt>
      <trkpt lat="44.16116" lon="5.14129">
        <ele>475</ele>
        <time>2022-07-21T04:44:07Z</time>
      </trkpt>
      <trkpt lat="44.16115" lon="5.14129">
        <ele>475.1</ele>
        <time>2022-07-21T04:44:08Z</time>
      </trkpt>
      <trkpt lat="44.16113" lon="5.14129">
        <ele>475.3</ele>
        <time>2022-07-21T04:44:09Z</time>
      </trkpt>
      <trkpt lat="44.16111" lon="5.14129">
        <ele>475.4</ele>
        <time>2022-07-21T04:44:10Z</time>
      </trkpt>
      <trkpt lat="44.16108" lon="5.14129">
        <ele>475.6</ele>
        <time>2022-07-21T04:44:11Z</time>
      </trkpt>
      <trkpt lat="44.16107" lon="5.14129">
        <ele>475.7</ele>
        <time>2022-07-21T04:44:12Z</time>
      </trkpt>
      <trkpt lat="44.16105" lon="5.14129">
        <ele>475.9</ele>
        <time>2022-07-21T04:44:13Z</time>
      </trkpt>
      <trkpt lat="44.16104" lon="5.14129">
        <ele>476</ele>
        <time>2022-07-21T04:44:14Z</time>
      </trkpt>
      <trkpt lat="44.16102" lon="5.14128">
        <ele>476.2</ele>
        <time>2022-07-21T04:44:15Z</time>
      </trkpt>
      <trkpt lat="44.16101" lon="5.14128">
        <ele>476.3</ele>
        <time>2022-07-21T04:44:16Z</time>
      </trkpt>
      <trkpt lat="44.16098" lon="5.14129">
        <ele>476.6</ele>
        <time>2022-07-21T04:44:17Z</time>
      </trkpt>
      <trkpt lat="44.16097" lon="5.14129">
        <ele>476.6</ele>
        <time>2022-07-21T04:44:18Z</time>
      </trkpt>
      <trkpt lat="44.16094" lon="5.1413">
        <ele>476.9</ele>
        <time>2022-07-21T04:44:19Z</time>
      </trkpt>
      <trkpt lat="44.16093" lon="5.14131">
        <ele>477</ele>
        <time>2022-07-21T04:44:20Z</time>
      </trkpt>
      <trkpt lat="44.16092" lon="5.14131">
        <ele>477.1</ele>
        <time>2022-07-21T04:44:21Z</time>
      </trkpt>
      <trkpt lat="44.1609" lon="5.14131">
        <ele>477.3</ele>
        <time>2022-07-21T04:44:22Z</time>
      </trkpt>
      <trkpt lat="44.16087" lon="5.14132">
        <ele>477.5</ele>
        <time>2022-07-21T04:44:23Z</time>
      </trkpt>
      <trkpt lat="44.16086" lon="5.14133">
        <ele>477.6</ele>
        <time>2022-07-21T04:44:24Z</time>
      </trkpt>
      <trkpt lat="44.16085" lon="5.14134">
        <ele>477.8</ele>
        <time>2022-07-21T04:44:25Z</time>
      </trkpt>
      <trkpt lat="44.16083" lon="5.14135">
        <ele>477.9</ele>
        <time>2022-07-21T04:44:26Z</time>
      </trkpt>
      <trkpt lat="44.1608" lon="5.14136">
        <ele>478.2</ele>
        <time>2022-07-21T04:44:27Z</time>
      </trkpt>
      <trkpt lat="44.16079" lon="5.14137">
        <ele>478.3</ele>
        <time>2022-07-21T04:44:28Z</time>
      </trkpt>
      <trkpt lat="44.16077" lon="5.14137">
        <ele>478.5</ele>
        <time>2022-07-21T04:44:29Z</time>
      </trkpt>
      <trkpt lat="44.16076" lon="5.14138">
        <ele>478.6</ele>
        <time>2022-07-21T04:44:30Z</time>
      </trkpt>
      <trkpt lat="44.16074" lon="5.14138">
        <ele>478.7</ele>
        <time>2022-07-21T04:44:31Z</time>
      </trkpt>
      <trkpt lat="44.16073" lon="5.14139">
        <ele>478.9</ele>
        <time>2022-07-21T04:44:32Z</time>
      </trkpt>
      <trkpt lat="44.16071" lon="5.1414">
        <ele>479</ele>
        <time>2022-07-21T04:44:33Z</time>
      </trkpt>
      <trkpt lat="44.1607" lon="5.1414">
        <ele>479.1</ele>
        <time>2022-07-21T04:44:34Z</time>
      </trkpt>
      <trkpt lat="44.16069" lon="5.14141">
        <ele>479.3</ele>
        <time>2022-07-21T04:44:35Z</time>
      </trkpt>
      <trkpt lat="44.16067" lon="5.14142">
        <ele>479.4</ele>
        <time>2022-07-21T04:44:36Z</time>
      </trkpt>
      <trkpt lat="44.16066" lon="5.14142">
        <ele>479.5</ele>
        <time>2022-07-21T04:44:37Z</time>
      </trkpt>
      <trkpt lat="44.16064" lon="5.14144">
        <ele>479.7</ele>
        <time>2022-07-21T04:44:38Z</time>
      </trkpt>
      <trkpt lat="44.16063" lon="5.14145">
        <ele>479.8</ele>
        <time>2022-07-21T04:44:39Z</time>
      </trkpt>
      <trkpt lat="44.16061" lon="5.14145">
        <ele>479.9</ele>
        <time>2022-07-21T04:44:40Z</time>
      </trkpt>
      <trkpt lat="44.1606" lon="5.14147">
        <ele>480.1</ele>
        <time>2022-07-21T04:44:41Z</time>
      </trkpt>
      <trkpt lat="44.16059" lon="5.14147">
        <ele>480.2</ele>
        <time>2022-07-21T04:44:42Z</time>
      </trkpt>
      <trkpt lat="44.16058" lon="5.14148">
        <ele>480.2</ele>
        <time>2022-07-21T04:44:43Z</time>
      </trkpt>
      <trkpt lat="44.16057" lon="5.14149">
        <ele>480.4</ele>
        <time>2022-07-21T04:44:44Z</time>
      </trkpt>
      <trkpt lat="44.16055" lon="5.14149">
        <ele>480.5</ele>
        <time>2022-07-21T04:44:45Z</time>
      </trkpt>
      <trkpt lat="44.16053" lon="5.14151">
        <ele>480.7</ele>
        <time>2022-07-21T04:44:46Z</time>
      </trkpt>
      <trkpt lat="44.16052" lon="5.14152">
        <ele>480.8</ele>
        <time>2022-07-21T04:44:47Z</time>
      </trkpt>
      <trkpt lat="44.1605" lon="5.14153">
        <ele>481</ele>
        <time>2022-07-21T04:44:48Z</time>
      </trkpt>
      <trkpt lat="44.16049" lon="5.14153">
        <ele>481.1</ele>
        <time>2022-07-21T04:44:49Z</time>
      </trkpt>
      <trkpt lat="44.16048" lon="5.14154">
        <ele>481.1</ele>
        <time>2022-07-21T04:44:50Z</time>
      </trkpt>
      <trkpt lat="44.16047" lon="5.14155">
        <ele>481.3</ele>
        <time>2022-07-21T04:44:51Z</time>
      </trkpt>
      <trkpt lat="44.16046" lon="5.14155">
        <ele>481.4</ele>
        <time>2022-07-21T04:44:52Z</time>
      </trkpt>
      <trkpt lat="44.16045" lon="5.14156">
        <ele>481.4</ele>
        <time>2022-07-21T04:44:53Z</time>
      </trkpt>
      <trkpt lat="44.16044" lon="5.14156">
        <ele>481.5</ele>
        <time>2022-07-21T04:44:54Z</time>
      </trkpt>
      <trkpt lat="44.16042" lon="5.14156">
        <ele>481.7</ele>
        <time>2022-07-21T04:44:55Z</time>
      </trkpt>
      <trkpt lat="44.1604" lon="5.14157">
        <ele>481.8</ele>
        <time>2022-07-21T04:44:56Z</time>
      </trkpt>
      <trkpt lat="44.16039" lon="5.14157">
        <ele>482</ele>
        <time>2022-07-21T04:44:57Z</time>
      </trkpt>
      <trkpt lat="44.16036" lon="5.14159">
        <ele>482.2</ele>
        <time>2022-07-21T04:44:58Z</time>
      </trkpt>
      <trkpt lat="44.16035" lon="5.14159">
        <ele>482.3</ele>
        <time>2022-07-21T04:44:59Z</time>
      </trkpt>
      <trkpt lat="44.16033" lon="5.1416">
        <ele>482.5</ele>
        <time>2022-07-21T04:45:00Z</time>
      </trkpt>
      <trkpt lat="44.16032" lon="5.14161">
        <ele>482.6</ele>
        <time>2022-07-21T04:45:01Z</time>
      </trkpt>
      <trkpt lat="44.1603" lon="5.14162">
        <ele>482.8</ele>
        <time>2022-07-21T04:45:02Z</time>
      </trkpt>
      <trkpt lat="44.16029" lon="5.14163">
        <ele>483</ele>
        <time>2022-07-21T04:45:03Z</time>
      </trkpt>
      <trkpt lat="44.16027" lon="5.14164">
        <ele>483.2</ele>
        <time>2022-07-21T04:45:04Z</time>
      </trkpt>
      <trkpt lat="44.16026" lon="5.14165">
        <ele>483.3</ele>
        <time>2022-07-21T04:45:05Z</time>
      </trkpt>
      <trkpt lat="44.16024" lon="5.14166">
        <ele>483.5</ele>
        <time>2022-07-21T04:45:06Z</time>
      </trkpt>
      <trkpt lat="44.16023" lon="5.14167">
        <ele>483.7</ele>
        <time>2022-07-21T04:45:07Z</time>
      </trkpt>
      <trkpt lat="44.16021" lon="5.14167">
        <ele>483.8</ele>
        <time>2022-07-21T04:45:08Z</time>
      </trkpt>
      <trkpt lat="44.16019" lon="5.14168">
        <ele>484</ele>
        <time>2022-07-21T04:45:09Z</time>
      </trkpt>
      <trkpt lat="44.16018" lon="5.14169">
        <ele>484.2</ele>
        <time>2022-07-21T04:45:10Z</time>
      </trkpt>
      <trkpt lat="44.16017" lon="5.1417">
        <ele>484.3</ele>
        <time>2022-07-21T04:45:11Z</time>
      </trkpt>
      <trkpt lat="44.16016" lon="5.14171">
        <ele>484.5</ele>
        <time>2022-07-21T04:45:12Z</time>
      </trkpt>
      <trkpt lat="44.16014" lon="5.14173">
        <ele>484.7</ele>
        <time>2022-07-21T04:45:13Z</time>
      </trkpt>
      <trkpt lat="44.16012" lon="5.14175">
        <ele>485</ele>
        <time>2022-07-21T04:45:14Z</time>
      </trkpt>
      <trkpt lat="44.16011" lon="5.14176">
        <ele>485</ele>
        <time>2022-07-21T04:45:15Z</time>
      </trkpt>
      <trkpt lat="44.1601" lon="5.14177">
        <ele>485.2</ele>
        <time>2022-07-21T04:45:16Z</time>
      </trkpt>
      <trkpt lat="44.16009" lon="5.14179">
        <ele>485.4</ele>
        <time>2022-07-21T04:45:17Z</time>
      </trkpt>
      <trkpt lat="44.16007" lon="5.14182">
        <ele>485.7</ele>
        <time>2022-07-21T04:45:18Z</time>
      </trkpt>
      <trkpt lat="44.16006" lon="5.14183">
        <ele>485.7</ele>
        <time>2022-07-21T04:45:19Z</time>
      </trkpt>
      <trkpt lat="44.16005" lon="5.14184">
        <ele>485.9</ele>
        <time>2022-07-21T04:45:20Z</time>
      </trkpt>
      <trkpt lat="44.16005" lon="5.14186">
        <ele>486.1</ele>
        <time>2022-07-21T04:45:21Z</time>
      </trkpt>
      <trkpt lat="44.16004" lon="5.14188">
        <ele>486.2</ele>
        <time>2022-07-21T04:45:22Z</time>
      </trkpt>
      <trkpt lat="44.16003" lon="5.1419">
        <ele>486.4</ele>
        <time>2022-07-21T04:45:23Z</time>
      </trkpt>
      <trkpt lat="44.16001" lon="5.14192">
        <ele>486.7</ele>
        <time>2022-07-21T04:45:24Z</time>
      </trkpt>
      <trkpt lat="44.16" lon="5.14193">
        <ele>486.8</ele>
        <time>2022-07-21T04:45:25Z</time>
      </trkpt>
      <trkpt lat="44.15998" lon="5.14196">
        <ele>487.1</ele>
        <time>2022-07-21T04:45:26Z</time>
      </trkpt>
      <trkpt lat="44.15997" lon="5.14197">
        <ele>487.2</ele>
        <time>2022-07-21T04:45:27Z</time>
      </trkpt>
      <trkpt lat="44.15996" lon="5.14198">
        <ele>487.4</ele>
        <time>2022-07-21T04:45:28Z</time>
      </trkpt>
      <trkpt lat="44.15995" lon="5.14199">
        <ele>487.5</ele>
        <time>2022-07-21T04:45:29Z</time>
      </trkpt>
      <trkpt lat="44.15993" lon="5.14201">
        <ele>487.7</ele>
        <time>2022-07-21T04:45:30Z</time>
      </trkpt>
      <trkpt lat="44.15992" lon="5.14202">
        <ele>487.9</ele>
        <time>2022-07-21T04:45:31Z</time>
      </trkpt>
      <trkpt lat="44.1599" lon="5.14204">
        <ele>488.1</ele>
        <time>2022-07-21T04:45:32Z</time>
      </trkpt>
      <trkpt lat="44.15989" lon="5.14205">
        <ele>488.3</ele>
        <time>2022-07-21T04:45:33Z</time>
      </trkpt>
      <trkpt lat="44.15988" lon="5.14207">
        <ele>488.5</ele>
        <time>2022-07-21T04:45:34Z</time>
      </trkpt>
      <trkpt lat="44.15987" lon="5.14208">
        <ele>488.7</ele>
        <time>2022-07-21T04:45:35Z</time>
      </trkpt>
      <trkpt lat="44.15985" lon="5.1421">
        <ele>488.9</ele>
        <time>2022-07-21T04:45:36Z</time>
      </trkpt>
      <trkpt lat="44.15984" lon="5.14211">
        <ele>489.1</ele>
        <time>2022-07-21T04:45:37Z</time>
      </trkpt>
      <trkpt lat="44.15983" lon="5.14212">
        <ele>489.3</ele>
        <time>2022-07-21T04:45:38Z</time>
      </trkpt>
      <trkpt lat="44.15981" lon="5.14214">
        <ele>489.5</ele>
        <time>2022-07-21T04:45:39Z</time>
      </trkpt>
      <trkpt lat="44.1598" lon="5.14215">
        <ele>489.7</ele>
        <time>2022-07-21T04:45:40Z</time>
      </trkpt>
      <trkpt lat="44.15979" lon="5.14217">
        <ele>489.9</ele>
        <time>2022-07-21T04:45:41Z</time>
      </trkpt>
      <trkpt lat="44.15978" lon="5.14219">
        <ele>490.2</ele>
        <time>2022-07-21T04:45:42Z</time>
      </trkpt>
      <trkpt lat="44.15977" lon="5.14221">
        <ele>490.4</ele>
        <time>2022-07-21T04:45:43Z</time>
      </trkpt>
      <trkpt lat="44.15976" lon="5.14223">
        <ele>490.6</ele>
        <time>2022-07-21T04:45:44Z</time>
      </trkpt>
      <trkpt lat="44.15975" lon="5.14226">
        <ele>490.8</ele>
        <time>2022-07-21T04:45:45Z</time>
      </trkpt>
      <trkpt lat="44.15975" lon="5.14228">
        <ele>491.1</ele>
        <time>2022-07-21T04:45:46Z</time>
      </trkpt>
      <trkpt lat="44.15974" lon="5.1423">
        <ele>491.3</ele>
        <time>2022-07-21T04:45:47Z</time>
      </trkpt>
      <trkpt lat="44.15972" lon="5.14232">
        <ele>491.6</ele>
        <time>2022-07-21T04:45:48Z</time>
      </trkpt>
      <trkpt lat="44.15971" lon="5.14233">
        <ele>491.7</ele>
        <time>2022-07-21T04:45:49Z</time>
      </trkpt>
      <trkpt lat="44.15971" lon="5.14234">
        <ele>491.8</ele>
        <time>2022-07-21T04:45:50Z</time>
      </trkpt>
      <trkpt lat="44.1597" lon="5.14235">
        <ele>492</ele>
        <time>2022-07-21T04:45:51Z</time>
      </trkpt>
      <trkpt lat="44.15969" lon="5.14237">
        <ele>492.2</ele>
        <time>2022-07-21T04:45:52Z</time>
      </trkpt>
      <trkpt lat="44.15968" lon="5.14239">
        <ele>492.4</ele>
        <time>2022-07-21T04:45:53Z</time>
      </trkpt>
      <trkpt lat="44.15968" lon="5.14241">
        <ele>492.6</ele>
        <time>2022-07-21T04:45:54Z</time>
      </trkpt>
      <trkpt lat="44.15967" lon="5.14243">
        <ele>492.8</ele>
        <time>2022-07-21T04:45:55Z</time>
      </trkpt>
      <trkpt lat="44.15967" lon="5.14245">
        <ele>493</ele>
        <time>2022-07-21T04:45:56Z</time>
      </trkpt>
      <trkpt lat="44.15967" lon="5.14247">
        <ele>493.2</ele>
        <time>2022-07-21T04:45:57Z</time>
      </trkpt>
      <trkpt lat="44.15966" lon="5.1425">
        <ele>493.4</ele>
        <time>2022-07-21T04:45:58Z</time>
      </trkpt>
      <trkpt lat="44.15966" lon="5.14252">
        <ele>493.6</ele>
        <time>2022-07-21T04:45:59Z</time>
      </trkpt>
      <trkpt lat="44.15966" lon="5.14255">
        <ele>493.9</ele>
        <time>2022-07-21T04:46:00Z</time>
      </trkpt>
      <trkpt lat="44.15966" lon="5.14258">
        <ele>494.2</ele>
        <time>2022-07-21T04:46:01Z</time>
      </trkpt>
      <trkpt lat="44.15966" lon="5.1426">
        <ele>494.3</ele>
        <time>2022-07-21T04:46:02Z</time>
      </trkpt>
      <trkpt lat="44.15966" lon="5.14264">
        <ele>494.7</ele>
        <time>2022-07-21T04:46:03Z</time>
      </trkpt>
      <trkpt lat="44.15966" lon="5.14265">
        <ele>494.8</ele>
        <time>2022-07-21T04:46:04Z</time>
      </trkpt>
      <trkpt lat="44.15966" lon="5.14269">
        <ele>495.2</ele>
        <time>2022-07-21T04:46:05Z</time>
      </trkpt>
      <trkpt lat="44.15966" lon="5.14271">
        <ele>495.4</ele>
        <time>2022-07-21T04:46:06Z</time>
      </trkpt>
      <trkpt lat="44.15967" lon="5.14275">
        <ele>495.7</ele>
        <time>2022-07-21T04:46:07Z</time>
      </trkpt>
      <trkpt lat="44.15967" lon="5.14276">
        <ele>495.9</ele>
        <time>2022-07-21T04:46:08Z</time>
      </trkpt>
      <trkpt lat="44.15968" lon="5.1428">
        <ele>496.3</ele>
        <time>2022-07-21T04:46:09Z</time>
      </trkpt>
      <trkpt lat="44.15968" lon="5.14282">
        <ele>496.4</ele>
        <time>2022-07-21T04:46:10Z</time>
      </trkpt>
      <trkpt lat="44.15969" lon="5.14286">
        <ele>496.8</ele>
        <time>2022-07-21T04:46:11Z</time>
      </trkpt>
      <trkpt lat="44.15969" lon="5.14287">
        <ele>496.9</ele>
        <time>2022-07-21T04:46:12Z</time>
      </trkpt>
      <trkpt lat="44.15971" lon="5.14291">
        <ele>497.2</ele>
        <time>2022-07-21T04:46:13Z</time>
      </trkpt>
      <trkpt lat="44.15971" lon="5.14292">
        <ele>497.3</ele>
        <time>2022-07-21T04:46:14Z</time>
      </trkpt>
      <trkpt lat="44.15973" lon="5.14296">
        <ele>497.7</ele>
        <time>2022-07-21T04:46:15Z</time>
      </trkpt>
      <trkpt lat="44.15973" lon="5.14297">
        <ele>497.8</ele>
        <time>2022-07-21T04:46:16Z</time>
      </trkpt>
      <trkpt lat="44.15974" lon="5.143">
        <ele>498.1</ele>
        <time>2022-07-21T04:46:17Z</time>
      </trkpt>
      <trkpt lat="44.15975" lon="5.14301">
        <ele>498.2</ele>
        <time>2022-07-21T04:46:18Z</time>
      </trkpt>
      <trkpt lat="44.15976" lon="5.14305">
        <ele>498.5</ele>
        <time>2022-07-21T04:46:19Z</time>
      </trkpt>
      <trkpt lat="44.15977" lon="5.14306">
        <ele>498.6</ele>
        <time>2022-07-21T04:46:20Z</time>
      </trkpt>
      <trkpt lat="44.15977" lon="5.14308">
        <ele>498.8</ele>
        <time>2022-07-21T04:46:21Z</time>
      </trkpt>
      <trkpt lat="44.15978" lon="5.1431">
        <ele>499</ele>
        <time>2022-07-21T04:46:22Z</time>
      </trkpt>
      <trkpt lat="44.15979" lon="5.14312">
        <ele>499.1</ele>
        <time>2022-07-21T04:46:23Z</time>
      </trkpt>
      <trkpt lat="44.1598" lon="5.14313">
        <ele>499.3</ele>
        <time>2022-07-21T04:46:24Z</time>
      </trkpt>
      <trkpt lat="44.1598" lon="5.14315">
        <ele>499.4</ele>
        <time>2022-07-21T04:46:25Z</time>
      </trkpt>
      <trkpt lat="44.15981" lon="5.14317">
        <ele>499.6</ele>
        <time>2022-07-21T04:46:26Z</time>
      </trkpt>
      <trkpt lat="44.15982" lon="5.14319">
        <ele>499.7</ele>
        <time>2022-07-21T04:46:27Z</time>
      </trkpt>
      <trkpt lat="44.15983" lon="5.14321">
        <ele>499.9</ele>
        <time>2022-07-21T04:46:28Z</time>
      </trkpt>
      <trkpt lat="44.15984" lon="5.14323">
        <ele>500</ele>
        <time>2022-07-21T04:46:29Z</time>
      </trkpt>
      <trkpt lat="44.15985" lon="5.14325">
        <ele>500.2</ele>
        <time>2022-07-21T04:46:30Z</time>
      </trkpt>
      <trkpt lat="44.15986" lon="5.14327">
        <ele>500.3</ele>
        <time>2022-07-21T04:46:31Z</time>
      </trkpt>
      <trkpt lat="44.15987" lon="5.14329">
        <ele>500.4</ele>
        <time>2022-07-21T04:46:32Z</time>
      </trkpt>
      <trkpt lat="44.15988" lon="5.1433">
        <ele>500.6</ele>
        <time>2022-07-21T04:46:33Z</time>
      </trkpt>
      <trkpt lat="44.15989" lon="5.14332">
        <ele>500.7</ele>
        <time>2022-07-21T04:46:34Z</time>
      </trkpt>
      <trkpt lat="44.1599" lon="5.14334">
        <ele>500.8</ele>
        <time>2022-07-21T04:46:35Z</time>
      </trkpt>
      <trkpt lat="44.15991" lon="5.14335">
        <ele>501</ele>
        <time>2022-07-21T04:46:36Z</time>
      </trkpt>
      <trkpt lat="44.15992" lon="5.14337">
        <ele>501.1</ele>
        <time>2022-07-21T04:46:37Z</time>
      </trkpt>
      <trkpt lat="44.15993" lon="5.14339">
        <ele>501.3</ele>
        <time>2022-07-21T04:46:38Z</time>
      </trkpt>
      <trkpt lat="44.15994" lon="5.1434">
        <ele>501.4</ele>
        <time>2022-07-21T04:46:39Z</time>
      </trkpt>
      <trkpt lat="44.15995" lon="5.14342">
        <ele>501.5</ele>
        <time>2022-07-21T04:46:40Z</time>
      </trkpt>
      <trkpt lat="44.15996" lon="5.14343">
        <ele>501.6</ele>
        <time>2022-07-21T04:46:41Z</time>
      </trkpt>
      <trkpt lat="44.15997" lon="5.14345">
        <ele>501.8</ele>
        <time>2022-07-21T04:46:42Z</time>
      </trkpt>
      <trkpt lat="44.15999" lon="5.14346">
        <ele>501.9</ele>
        <time>2022-07-21T04:46:43Z</time>
      </trkpt>
      <trkpt lat="44.16" lon="5.14348">
        <ele>502.1</ele>
        <time>2022-07-21T04:46:44Z</time>
      </trkpt>
      <trkpt lat="44.16001" lon="5.14349">
        <ele>502.2</ele>
        <time>2022-07-21T04:46:45Z</time>
      </trkpt>
      <trkpt lat="44.16002" lon="5.1435">
        <ele>502.3</ele>
        <time>2022-07-21T04:46:46Z</time>
      </trkpt>
      <trkpt lat="44.16003" lon="5.14352">
        <ele>502.5</ele>
        <time>2022-07-21T04:46:47Z</time>
      </trkpt>
      <trkpt lat="44.16004" lon="5.14353">
        <ele>502.6</ele>
        <time>2022-07-21T04:46:48Z</time>
      </trkpt>
      <trkpt lat="44.16004" lon="5.14354">
        <ele>502.6</ele>
        <time>2022-07-21T04:46:49Z</time>
      </trkpt>
      <trkpt lat="44.16006" lon="5.14357">
        <ele>502.8</ele>
        <time>2022-07-21T04:46:50Z</time>
      </trkpt>
      <trkpt lat="44.16006" lon="5.14357">
        <ele>502.9</ele>
        <time>2022-07-21T04:46:51Z</time>
      </trkpt>
      <trkpt lat="44.16007" lon="5.14358">
        <ele>503</ele>
        <time>2022-07-21T04:46:52Z</time>
      </trkpt>
      <trkpt lat="44.16008" lon="5.1436">
        <ele>503.1</ele>
        <time>2022-07-21T04:46:53Z</time>
      </trkpt>
      <trkpt lat="44.16009" lon="5.14361">
        <ele>503.2</ele>
        <time>2022-07-21T04:46:54Z</time>
      </trkpt>
      <trkpt lat="44.16011" lon="5.14362">
        <ele>503.4</ele>
        <time>2022-07-21T04:46:55Z</time>
      </trkpt>
      <trkpt lat="44.16012" lon="5.14364">
        <ele>503.6</ele>
        <time>2022-07-21T04:46:56Z</time>
      </trkpt>
      <trkpt lat="44.16013" lon="5.14365">
        <ele>503.7</ele>
        <time>2022-07-21T04:46:57Z</time>
      </trkpt>
      <trkpt lat="44.16014" lon="5.14367">
        <ele>503.9</ele>
        <time>2022-07-21T04:46:58Z</time>
      </trkpt>
      <trkpt lat="44.16016" lon="5.14368">
        <ele>504</ele>
        <time>2022-07-21T04:46:59Z</time>
      </trkpt>
      <trkpt lat="44.16017" lon="5.1437">
        <ele>504.2</ele>
        <time>2022-07-21T04:47:00Z</time>
      </trkpt>
      <trkpt lat="44.16018" lon="5.14371">
        <ele>504.3</ele>
        <time>2022-07-21T04:47:01Z</time>
      </trkpt>
      <trkpt lat="44.16019" lon="5.14373">
        <ele>504.5</ele>
        <time>2022-07-21T04:47:02Z</time>
      </trkpt>
      <trkpt lat="44.1602" lon="5.14375">
        <ele>504.6</ele>
        <time>2022-07-21T04:47:03Z</time>
      </trkpt>
      <trkpt lat="44.16021" lon="5.14376">
        <ele>504.8</ele>
        <time>2022-07-21T04:47:04Z</time>
      </trkpt>
      <trkpt lat="44.16023" lon="5.14377">
        <ele>504.9</ele>
        <time>2022-07-21T04:47:05Z</time>
      </trkpt>
      <trkpt lat="44.16024" lon="5.14379">
        <ele>505.1</ele>
        <time>2022-07-21T04:47:06Z</time>
      </trkpt>
      <trkpt lat="44.16025" lon="5.1438">
        <ele>505.2</ele>
        <time>2022-07-21T04:47:07Z</time>
      </trkpt>
      <trkpt lat="44.16026" lon="5.14381">
        <ele>505.4</ele>
        <time>2022-07-21T04:47:08Z</time>
      </trkpt>
      <trkpt lat="44.16028" lon="5.14383">
        <ele>505.5</ele>
        <time>2022-07-21T04:47:09Z</time>
      </trkpt>
      <trkpt lat="44.16029" lon="5.14384">
        <ele>505.7</ele>
        <time>2022-07-21T04:47:10Z</time>
      </trkpt>
      <trkpt lat="44.1603" lon="5.14385">
        <ele>505.9</ele>
        <time>2022-07-21T04:47:11Z</time>
      </trkpt>
      <trkpt lat="44.16032" lon="5.14387">
        <ele>506</ele>
        <time>2022-07-21T04:47:12Z</time>
      </trkpt>
      <trkpt lat="44.16033" lon="5.14388">
        <ele>506.2</ele>
        <time>2022-07-21T04:47:13Z</time>
      </trkpt>
      <trkpt lat="44.16034" lon="5.1439">
        <ele>506.3</ele>
        <time>2022-07-21T04:47:14Z</time>
      </trkpt>
      <trkpt lat="44.16035" lon="5.14391">
        <ele>506.5</ele>
        <time>2022-07-21T04:47:15Z</time>
      </trkpt>
      <trkpt lat="44.16036" lon="5.14392">
        <ele>506.6</ele>
        <time>2022-07-21T04:47:16Z</time>
      </trkpt>
      <trkpt lat="44.16037" lon="5.14393">
        <ele>506.8</ele>
        <time>2022-07-21T04:47:17Z</time>
      </trkpt>
      <trkpt lat="44.16039" lon="5.14394">
        <ele>506.9</ele>
        <time>2022-07-21T04:47:18Z</time>
      </trkpt>
      <trkpt lat="44.1604" lon="5.14396">
        <ele>507</ele>
        <time>2022-07-21T04:47:19Z</time>
      </trkpt>
      <trkpt lat="44.16041" lon="5.14397">
        <ele>507.2</ele>
        <time>2022-07-21T04:47:20Z</time>
      </trkpt>
      <trkpt lat="44.16042" lon="5.14398">
        <ele>507.3</ele>
        <time>2022-07-21T04:47:21Z</time>
      </trkpt>
      <trkpt lat="44.16043" lon="5.14399">
        <ele>507.5</ele>
        <time>2022-07-21T04:47:22Z</time>
      </trkpt>
      <trkpt lat="44.16044" lon="5.14401">
        <ele>507.6</ele>
        <time>2022-07-21T04:47:23Z</time>
      </trkpt>
      <trkpt lat="44.16046" lon="5.14402">
        <ele>507.8</ele>
        <time>2022-07-21T04:47:24Z</time>
      </trkpt>
      <trkpt lat="44.16047" lon="5.14403">
        <ele>508</ele>
        <time>2022-07-21T04:47:25Z</time>
      </trkpt>
      <trkpt lat="44.16048" lon="5.14405">
        <ele>508.1</ele>
        <time>2022-07-21T04:47:26Z</time>
      </trkpt>
      <trkpt lat="44.16049" lon="5.14406">
        <ele>508.3</ele>
        <time>2022-07-21T04:47:27Z</time>
      </trkpt>
      <trkpt lat="44.16051" lon="5.14408">
        <ele>508.5</ele>
        <time>2022-07-21T04:47:28Z</time>
      </trkpt>
      <trkpt lat="44.16052" lon="5.14409">
        <ele>508.6</ele>
        <time>2022-07-21T04:47:29Z</time>
      </trkpt>
      <trkpt lat="44.16053" lon="5.1441">
        <ele>508.8</ele>
        <time>2022-07-21T04:47:30Z</time>
      </trkpt>
      <trkpt lat="44.16054" lon="5.14412">
        <ele>509</ele>
        <time>2022-07-21T04:47:31Z</time>
      </trkpt>
      <trkpt lat="44.16056" lon="5.14413">
        <ele>509.1</ele>
        <time>2022-07-21T04:47:32Z</time>
      </trkpt>
      <trkpt lat="44.16057" lon="5.14414">
        <ele>509.3</ele>
        <time>2022-07-21T04:47:33Z</time>
      </trkpt>
      <trkpt lat="44.16058" lon="5.14416">
        <ele>509.5</ele>
        <time>2022-07-21T04:47:34Z</time>
      </trkpt>
      <trkpt lat="44.1606" lon="5.14417">
        <ele>509.7</ele>
        <time>2022-07-21T04:47:35Z</time>
      </trkpt>
      <trkpt lat="44.16061" lon="5.14418">
        <ele>509.8</ele>
        <time>2022-07-21T04:47:36Z</time>
      </trkpt>
      <trkpt lat="44.16061" lon="5.14419">
        <ele>509.9</ele>
        <time>2022-07-21T04:47:37Z</time>
      </trkpt>
      <trkpt lat="44.16063" lon="5.1442">
        <ele>510</ele>
        <time>2022-07-21T04:47:38Z</time>
      </trkpt>
      <trkpt lat="44.16064" lon="5.14421">
        <ele>510.2</ele>
        <time>2022-07-21T04:47:39Z</time>
      </trkpt>
      <trkpt lat="44.16065" lon="5.14423">
        <ele>510.4</ele>
        <time>2022-07-21T04:47:40Z</time>
      </trkpt>
      <trkpt lat="44.16066" lon="5.14424">
        <ele>510.5</ele>
        <time>2022-07-21T04:47:41Z</time>
      </trkpt>
      <trkpt lat="44.16067" lon="5.14425">
        <ele>510.6</ele>
        <time>2022-07-21T04:47:42Z</time>
      </trkpt>
      <trkpt lat="44.16068" lon="5.14427">
        <ele>510.8</ele>
        <time>2022-07-21T04:47:43Z</time>
      </trkpt>
      <trkpt lat="44.16069" lon="5.14429">
        <ele>511</ele>
        <time>2022-07-21T04:47:44Z</time>
      </trkpt>
      <trkpt lat="44.1607" lon="5.1443">
        <ele>511.1</ele>
        <time>2022-07-21T04:47:45Z</time>
      </trkpt>
      <trkpt lat="44.16071" lon="5.14432">
        <ele>511.3</ele>
        <time>2022-07-21T04:47:46Z</time>
      </trkpt>
      <trkpt lat="44.16073" lon="5.14434">
        <ele>511.5</ele>
        <time>2022-07-21T04:47:47Z</time>
      </trkpt>
      <trkpt lat="44.16073" lon="5.14435">
        <ele>511.6</ele>
        <time>2022-07-21T04:47:48Z</time>
      </trkpt>
      <trkpt lat="44.16074" lon="5.14436">
        <ele>511.7</ele>
        <time>2022-07-21T04:47:49Z</time>
      </trkpt>
      <trkpt lat="44.16075" lon="5.14437">
        <ele>511.9</ele>
        <time>2022-07-21T04:47:50Z</time>
      </trkpt>
      <trkpt lat="44.16076" lon="5.14439">
        <ele>512</ele>
        <time>2022-07-21T04:47:51Z</time>
      </trkpt>
      <trkpt lat="44.16077" lon="5.1444">
        <ele>512.1</ele>
        <time>2022-07-21T04:47:52Z</time>
      </trkpt>
      <trkpt lat="44.16078" lon="5.14442">
        <ele>512.3</ele>
        <time>2022-07-21T04:47:53Z</time>
      </trkpt>
      <trkpt lat="44.16079" lon="5.14444">
        <ele>512.5</ele>
        <time>2022-07-21T04:47:54Z</time>
      </trkpt>
      <trkpt lat="44.1608" lon="5.14445">
        <ele>512.6</ele>
        <time>2022-07-21T04:47:55Z</time>
      </trkpt>
      <trkpt lat="44.1608" lon="5.14446">
        <ele>512.7</ele>
        <time>2022-07-21T04:47:56Z</time>
      </trkpt>
      <trkpt lat="44.16081" lon="5.14448">
        <ele>512.9</ele>
        <time>2022-07-21T04:47:57Z</time>
      </trkpt>
      <trkpt lat="44.16082" lon="5.14449">
        <ele>513.1</ele>
        <time>2022-07-21T04:47:58Z</time>
      </trkpt>
      <trkpt lat="44.16083" lon="5.14451">
        <ele>513.2</ele>
        <time>2022-07-21T04:47:59Z</time>
      </trkpt>
      <trkpt lat="44.16085" lon="5.14453">
        <ele>513.4</ele>
        <time>2022-07-21T04:48:00Z</time>
      </trkpt>
      <trkpt lat="44.16087" lon="5.14455">
        <ele>513.7</ele>
        <time>2022-07-21T04:48:01Z</time>
      </trkpt>
      <trkpt lat="44.16088" lon="5.14456">
        <ele>513.8</ele>
        <time>2022-07-21T04:48:02Z</time>
      </trkpt>
      <trkpt lat="44.1609" lon="5.14458">
        <ele>514.2</ele>
        <time>2022-07-21T04:48:03Z</time>
      </trkpt>
      <trkpt lat="44.16091" lon="5.14459">
        <ele>514.2</ele>
        <time>2022-07-21T04:48:04Z</time>
      </trkpt>
      <trkpt lat="44.16092" lon="5.1446">
        <ele>514.4</ele>
        <time>2022-07-21T04:48:05Z</time>
      </trkpt>
      <trkpt lat="44.16094" lon="5.14461">
        <ele>514.6</ele>
        <time>2022-07-21T04:48:06Z</time>
      </trkpt>
      <trkpt lat="44.16095" lon="5.14462">
        <ele>514.8</ele>
        <time>2022-07-21T04:48:07Z</time>
      </trkpt>
      <trkpt lat="44.16097" lon="5.14464">
        <ele>515</ele>
        <time>2022-07-21T04:48:08Z</time>
      </trkpt>
      <trkpt lat="44.16098" lon="5.14465">
        <ele>515.1</ele>
        <time>2022-07-21T04:48:09Z</time>
      </trkpt>
      <trkpt lat="44.16099" lon="5.14467">
        <ele>515.2</ele>
        <time>2022-07-21T04:48:10Z</time>
      </trkpt>
      <trkpt lat="44.16101" lon="5.1447">
        <ele>515.6</ele>
        <time>2022-07-21T04:48:11Z</time>
      </trkpt>
      <trkpt lat="44.16102" lon="5.1447">
        <ele>515.7</ele>
        <time>2022-07-21T04:48:12Z</time>
      </trkpt>
      <trkpt lat="44.16103" lon="5.14472">
        <ele>515.9</ele>
        <time>2022-07-21T04:48:13Z</time>
      </trkpt>
      <trkpt lat="44.16104" lon="5.14474">
        <ele>516.1</ele>
        <time>2022-07-21T04:48:14Z</time>
      </trkpt>
      <trkpt lat="44.16105" lon="5.14475">
        <ele>516.3</ele>
        <time>2022-07-21T04:48:15Z</time>
      </trkpt>
      <trkpt lat="44.16106" lon="5.14477">
        <ele>516.6</ele>
        <time>2022-07-21T04:48:16Z</time>
      </trkpt>
      <trkpt lat="44.16108" lon="5.14479">
        <ele>516.8</ele>
        <time>2022-07-21T04:48:17Z</time>
      </trkpt>
      <trkpt lat="44.16108" lon="5.14481">
        <ele>517</ele>
        <time>2022-07-21T04:48:18Z</time>
      </trkpt>
      <trkpt lat="44.16109" lon="5.14482">
        <ele>517.1</ele>
        <time>2022-07-21T04:48:19Z</time>
      </trkpt>
      <trkpt lat="44.16109" lon="5.14484">
        <ele>517.3</ele>
        <time>2022-07-21T04:48:20Z</time>
      </trkpt>
      <trkpt lat="44.16109" lon="5.14486">
        <ele>517.4</ele>
        <time>2022-07-21T04:48:21Z</time>
      </trkpt>
      <trkpt lat="44.16109" lon="5.14487">
        <ele>517.6</ele>
        <time>2022-07-21T04:48:22Z</time>
      </trkpt>
      <trkpt lat="44.1611" lon="5.14489">
        <ele>517.8</ele>
        <time>2022-07-21T04:48:23Z</time>
      </trkpt>
      <trkpt lat="44.1611" lon="5.1449">
        <ele>517.9</ele>
        <time>2022-07-21T04:48:24Z</time>
      </trkpt>
      <trkpt lat="44.1611" lon="5.14493">
        <ele>518.1</ele>
        <time>2022-07-21T04:48:25Z</time>
      </trkpt>
      <trkpt lat="44.16111" lon="5.14494">
        <ele>518.2</ele>
        <time>2022-07-21T04:48:26Z</time>
      </trkpt>
      <trkpt lat="44.16111" lon="5.14495">
        <ele>518.4</ele>
        <time>2022-07-21T04:48:27Z</time>
      </trkpt>
      <trkpt lat="44.16111" lon="5.14497">
        <ele>518.5</ele>
        <time>2022-07-21T04:48:28Z</time>
      </trkpt>
      <trkpt lat="44.16111" lon="5.14499">
        <ele>518.7</ele>
        <time>2022-07-21T04:48:29Z</time>
      </trkpt>
      <trkpt lat="44.16111" lon="5.14501">
        <ele>518.9</ele>
        <time>2022-07-21T04:48:30Z</time>
      </trkpt>
      <trkpt lat="44.16111" lon="5.14503">
        <ele>519.1</ele>
        <time>2022-07-21T04:48:31Z</time>
      </trkpt>
      <trkpt lat="44.16111" lon="5.14505">
        <ele>519.2</ele>
        <time>2022-07-21T04:48:32Z</time>
      </trkpt>
      <trkpt lat="44.16111" lon="5.14506">
        <ele>519.3</ele>
        <time>2022-07-21T04:48:33Z</time>
      </trkpt>
      <trkpt lat="44.16111" lon="5.14508">
        <ele>519.5</ele>
        <time>2022-07-21T04:48:34Z</time>
      </trkpt>
      <trkpt lat="44.16111" lon="5.1451">
        <ele>519.7</ele>
        <time>2022-07-21T04:48:35Z</time>
      </trkpt>
      <trkpt lat="44.16111" lon="5.14513">
        <ele>519.9</ele>
        <time>2022-07-21T04:48:36Z</time>
      </trkpt>
      <trkpt lat="44.16111" lon="5.14515">
        <ele>520.1</ele>
        <time>2022-07-21T04:48:37Z</time>
      </trkpt>
      <trkpt lat="44.16111" lon="5.14517">
        <ele>520.3</ele>
        <time>2022-07-21T04:48:38Z</time>
      </trkpt>
      <trkpt lat="44.1611" lon="5.1452">
        <ele>520.5</ele>
        <time>2022-07-21T04:48:39Z</time>
      </trkpt>
      <trkpt lat="44.1611" lon="5.14521">
        <ele>520.6</ele>
        <time>2022-07-21T04:48:40Z</time>
      </trkpt>
      <trkpt lat="44.1611" lon="5.14522">
        <ele>520.7</ele>
        <time>2022-07-21T04:48:41Z</time>
      </trkpt>
      <trkpt lat="44.1611" lon="5.14524">
        <ele>520.9</ele>
        <time>2022-07-21T04:48:42Z</time>
      </trkpt>
      <trkpt lat="44.1611" lon="5.14527">
        <ele>521.1</ele>
        <time>2022-07-21T04:48:43Z</time>
      </trkpt>
      <trkpt lat="44.1611" lon="5.14529">
        <ele>521.3</ele>
        <time>2022-07-21T04:48:44Z</time>
      </trkpt>
      <trkpt lat="44.16109" lon="5.14531">
        <ele>521.5</ele>
        <time>2022-07-21T04:48:45Z</time>
      </trkpt>
      <trkpt lat="44.16109" lon="5.14533">
        <ele>521.7</ele>
        <time>2022-07-21T04:48:46Z</time>
      </trkpt>
      <trkpt lat="44.16109" lon="5.14536">
        <ele>521.9</ele>
        <time>2022-07-21T04:48:47Z</time>
      </trkpt>
      <trkpt lat="44.1611" lon="5.14538">
        <ele>522.1</ele>
        <time>2022-07-21T04:48:48Z</time>
      </trkpt>
      <trkpt lat="44.1611" lon="5.1454">
        <ele>522.2</ele>
        <time>2022-07-21T04:48:49Z</time>
      </trkpt>
      <trkpt lat="44.1611" lon="5.14542">
        <ele>522.4</ele>
        <time>2022-07-21T04:48:50Z</time>
      </trkpt>
      <trkpt lat="44.1611" lon="5.14544">
        <ele>522.6</ele>
        <time>2022-07-21T04:48:51Z</time>
      </trkpt>
      <trkpt lat="44.1611" lon="5.14546">
        <ele>522.8</ele>
        <time>2022-07-21T04:48:52Z</time>
      </trkpt>
      <trkpt lat="44.16111" lon="5.14548">
        <ele>522.9</ele>
        <time>2022-07-21T04:48:53Z</time>
      </trkpt>
      <trkpt lat="44.16111" lon="5.1455">
        <ele>523.1</ele>
        <time>2022-07-21T04:48:54Z</time>
      </trkpt>
      <trkpt lat="44.16112" lon="5.14553">
        <ele>523.4</ele>
        <time>2022-07-21T04:48:55Z</time>
      </trkpt>
      <trkpt lat="44.16112" lon="5.14555">
        <ele>523.5</ele>
        <time>2022-07-21T04:48:56Z</time>
      </trkpt>
      <trkpt lat="44.16113" lon="5.14557">
        <ele>523.7</ele>
        <time>2022-07-21T04:48:57Z</time>
      </trkpt>
      <trkpt lat="44.16114" lon="5.14559">
        <ele>523.9</ele>
        <time>2022-07-21T04:48:58Z</time>
      </trkpt>
      <trkpt lat="44.16114" lon="5.14561">
        <ele>524.1</ele>
        <time>2022-07-21T04:48:59Z</time>
      </trkpt>
      <trkpt lat="44.16115" lon="5.14563">
        <ele>524.3</ele>
        <time>2022-07-21T04:49:00Z</time>
      </trkpt>
      <trkpt lat="44.16116" lon="5.14565">
        <ele>524.4</ele>
        <time>2022-07-21T04:49:01Z</time>
      </trkpt>
      <trkpt lat="44.16117" lon="5.14566">
        <ele>524.6</ele>
        <time>2022-07-21T04:49:02Z</time>
      </trkpt>
      <trkpt lat="44.16118" lon="5.14569">
        <ele>524.8</ele>
        <time>2022-07-21T04:49:03Z</time>
      </trkpt>
      <trkpt lat="44.16119" lon="5.14571">
        <ele>525</ele>
        <time>2022-07-21T04:49:05Z</time>
      </trkpt>
      <trkpt lat="44.1612" lon="5.14573">
        <ele>525.1</ele>
        <time>2022-07-21T04:49:06Z</time>
      </trkpt>
      <trkpt lat="44.16122" lon="5.14574">
        <ele>525.3</ele>
        <time>2022-07-21T04:49:07Z</time>
      </trkpt>
      <trkpt lat="44.16123" lon="5.14576">
        <ele>525.5</ele>
        <time>2022-07-21T04:49:08Z</time>
      </trkpt>
      <trkpt lat="44.16124" lon="5.14577">
        <ele>525.6</ele>
        <time>2022-07-21T04:49:09Z</time>
      </trkpt>
      <trkpt lat="44.16125" lon="5.14579">
        <ele>525.8</ele>
        <time>2022-07-21T04:49:10Z</time>
      </trkpt>
      <trkpt lat="44.16126" lon="5.1458">
        <ele>525.9</ele>
        <time>2022-07-21T04:49:11Z</time>
      </trkpt>
      <trkpt lat="44.16128" lon="5.14584">
        <ele>526.2</ele>
        <time>2022-07-21T04:49:12Z</time>
      </trkpt>
      <trkpt lat="44.16128" lon="5.14586">
        <ele>526.4</ele>
        <time>2022-07-21T04:49:13Z</time>
      </trkpt>
      <trkpt lat="44.16129" lon="5.14587">
        <ele>526.5</ele>
        <time>2022-07-21T04:49:14Z</time>
      </trkpt>
      <trkpt lat="44.1613" lon="5.1459">
        <ele>526.7</ele>
        <time>2022-07-21T04:49:16Z</time>
      </trkpt>
      <trkpt lat="44.16131" lon="5.14592">
        <ele>526.9</ele>
        <time>2022-07-21T04:49:17Z</time>
      </trkpt>
      <trkpt lat="44.16131" lon="5.14593">
        <ele>527</ele>
        <time>2022-07-21T04:49:18Z</time>
      </trkpt>
      <trkpt lat="44.16131" lon="5.14595">
        <ele>527.1</ele>
        <time>2022-07-21T04:49:19Z</time>
      </trkpt>
      <trkpt lat="44.16132" lon="5.14596">
        <ele>527.2</ele>
        <time>2022-07-21T04:49:20Z</time>
      </trkpt>
      <trkpt lat="44.16132" lon="5.14599">
        <ele>527.4</ele>
        <time>2022-07-21T04:49:21Z</time>
      </trkpt>
      <trkpt lat="44.16133" lon="5.14601">
        <ele>527.5</ele>
        <time>2022-07-21T04:49:22Z</time>
      </trkpt>
      <trkpt lat="44.16133" lon="5.14603">
        <ele>527.7</ele>
        <time>2022-07-21T04:49:23Z</time>
      </trkpt>
      <trkpt lat="44.16133" lon="5.14605">
        <ele>527.8</ele>
        <time>2022-07-21T04:49:24Z</time>
      </trkpt>
      <trkpt lat="44.16133" lon="5.14607">
        <ele>528</ele>
        <time>2022-07-21T04:49:25Z</time>
      </trkpt>
      <trkpt lat="44.16133" lon="5.14609">
        <ele>528.1</ele>
        <time>2022-07-21T04:49:26Z</time>
      </trkpt>
      <trkpt lat="44.16133" lon="5.14611">
        <ele>528.3</ele>
        <time>2022-07-21T04:49:27Z</time>
      </trkpt>
      <trkpt lat="44.16133" lon="5.14612">
        <ele>528.3</ele>
        <time>2022-07-21T04:49:28Z</time>
      </trkpt>
      <trkpt lat="44.16132" lon="5.14613">
        <ele>528.5</ele>
        <time>2022-07-21T04:49:29Z</time>
      </trkpt>
      <trkpt lat="44.16132" lon="5.14615">
        <ele>528.6</ele>
        <time>2022-07-21T04:49:30Z</time>
      </trkpt>
      <trkpt lat="44.16132" lon="5.14616">
        <ele>528.7</ele>
        <time>2022-07-21T04:49:31Z</time>
      </trkpt>
      <trkpt lat="44.16132" lon="5.14618">
        <ele>528.8</ele>
        <time>2022-07-21T04:49:32Z</time>
      </trkpt>
      <trkpt lat="44.16132" lon="5.1462">
        <ele>529</ele>
        <time>2022-07-21T04:49:33Z</time>
      </trkpt>
      <trkpt lat="44.16132" lon="5.14622">
        <ele>529.1</ele>
        <time>2022-07-21T04:49:34Z</time>
      </trkpt>
      <trkpt lat="44.16132" lon="5.14624">
        <ele>529.3</ele>
        <time>2022-07-21T04:49:35Z</time>
      </trkpt>
      <trkpt lat="44.16132" lon="5.14626">
        <ele>529.4</ele>
        <time>2022-07-21T04:49:36Z</time>
      </trkpt>
      <trkpt lat="44.16131" lon="5.14628">
        <ele>529.6</ele>
        <time>2022-07-21T04:49:37Z</time>
      </trkpt>
      <trkpt lat="44.16131" lon="5.14629">
        <ele>529.7</ele>
        <time>2022-07-21T04:49:38Z</time>
      </trkpt>
      <trkpt lat="44.16132" lon="5.14632">
        <ele>529.9</ele>
        <time>2022-07-21T04:49:39Z</time>
      </trkpt>
      <trkpt lat="44.16132" lon="5.14633">
        <ele>530</ele>
        <time>2022-07-21T04:49:40Z</time>
      </trkpt>
      <trkpt lat="44.16132" lon="5.14635">
        <ele>530.1</ele>
        <time>2022-07-21T04:49:41Z</time>
      </trkpt>
      <trkpt lat="44.16132" lon="5.14636">
        <ele>530.3</ele>
        <time>2022-07-21T04:49:42Z</time>
      </trkpt>
      <trkpt lat="44.16132" lon="5.14639">
        <ele>530.5</ele>
        <time>2022-07-21T04:49:43Z</time>
      </trkpt>
      <trkpt lat="44.16133" lon="5.14641">
        <ele>530.7</ele>
        <time>2022-07-21T04:49:44Z</time>
      </trkpt>
      <trkpt lat="44.16133" lon="5.14643">
        <ele>530.9</ele>
        <time>2022-07-21T04:49:45Z</time>
      </trkpt>
      <trkpt lat="44.16135" lon="5.14647">
        <ele>531.3</ele>
        <time>2022-07-21T04:49:46Z</time>
      </trkpt>
      <trkpt lat="44.16136" lon="5.1465">
        <ele>531.6</ele>
        <time>2022-07-21T04:49:47Z</time>
      </trkpt>
      <trkpt lat="44.16137" lon="5.14652">
        <ele>531.8</ele>
        <time>2022-07-21T04:49:49Z</time>
      </trkpt>
      <trkpt lat="44.16139" lon="5.14657">
        <ele>532.4</ele>
        <time>2022-07-21T04:49:50Z</time>
      </trkpt>
      <trkpt lat="44.1614" lon="5.14659">
        <ele>532.6</ele>
        <time>2022-07-21T04:49:51Z</time>
      </trkpt>
      <trkpt lat="44.16141" lon="5.14661">
        <ele>532.8</ele>
        <time>2022-07-21T04:49:52Z</time>
      </trkpt>
      <trkpt lat="44.16141" lon="5.14663">
        <ele>533</ele>
        <time>2022-07-21T04:49:53Z</time>
      </trkpt>
      <trkpt lat="44.16142" lon="5.14665">
        <ele>533.2</ele>
        <time>2022-07-21T04:49:54Z</time>
      </trkpt>
      <trkpt lat="44.16142" lon="5.14667">
        <ele>533.5</ele>
        <time>2022-07-21T04:49:56Z</time>
      </trkpt>
      <trkpt lat="44.16143" lon="5.14669">
        <ele>533.7</ele>
        <time>2022-07-21T04:49:57Z</time>
      </trkpt>
      <trkpt lat="44.16144" lon="5.14673">
        <ele>534.1</ele>
        <time>2022-07-21T04:49:58Z</time>
      </trkpt>
      <trkpt lat="44.16145" lon="5.14677">
        <ele>534.5</ele>
        <time>2022-07-21T04:50:00Z</time>
      </trkpt>
      <trkpt lat="44.16145" lon="5.14678">
        <ele>534.6</ele>
        <time>2022-07-21T04:50:01Z</time>
      </trkpt>
      <trkpt lat="44.16145" lon="5.14681">
        <ele>534.8</ele>
        <time>2022-07-21T04:50:02Z</time>
      </trkpt>
      <trkpt lat="44.16145" lon="5.14682">
        <ele>535</ele>
        <time>2022-07-21T04:50:04Z</time>
      </trkpt>
      <trkpt lat="44.16144" lon="5.14684">
        <ele>535.1</ele>
        <time>2022-07-21T04:50:05Z</time>
      </trkpt>
      <trkpt lat="44.16144" lon="5.14685">
        <ele>535.2</ele>
        <time>2022-07-21T04:50:06Z</time>
      </trkpt>
      <trkpt lat="44.16142" lon="5.14688">
        <ele>535.5</ele>
        <time>2022-07-21T04:50:07Z</time>
      </trkpt>
      <trkpt lat="44.1614" lon="5.14691">
        <ele>535.9</ele>
        <time>2022-07-21T04:50:09Z</time>
      </trkpt>
      <trkpt lat="44.16138" lon="5.14693">
        <ele>536.2</ele>
        <time>2022-07-21T04:50:11Z</time>
      </trkpt>
      <trkpt lat="44.16136" lon="5.14694">
        <ele>536.4</ele>
        <time>2022-07-21T04:50:12Z</time>
      </trkpt>
      <trkpt lat="44.16135" lon="5.14696">
        <ele>536.5</ele>
        <time>2022-07-21T04:50:13Z</time>
      </trkpt>
      <trkpt lat="44.16133" lon="5.14697">
        <ele>536.8</ele>
        <time>2022-07-21T04:50:15Z</time>
      </trkpt>
      <trkpt lat="44.16132" lon="5.14697">
        <ele>536.9</ele>
        <time>2022-07-21T04:50:16Z</time>
      </trkpt>
      <trkpt lat="44.16131" lon="5.14698">
        <ele>537</ele>
        <time>2022-07-21T04:50:17Z</time>
      </trkpt>
      <trkpt lat="44.16129" lon="5.14698">
        <ele>537.2</ele>
        <time>2022-07-21T04:50:18Z</time>
      </trkpt>
      <trkpt lat="44.16128" lon="5.14699">
        <ele>537.3</ele>
        <time>2022-07-21T04:50:19Z</time>
      </trkpt>
      <trkpt lat="44.16128" lon="5.14699">
        <ele>537.4</ele>
        <time>2022-07-21T04:50:20Z</time>
      </trkpt>
      <trkpt lat="44.16125" lon="5.14698">
        <ele>537.6</ele>
        <time>2022-07-21T04:50:21Z</time>
      </trkpt>
      <trkpt lat="44.16124" lon="5.14698">
        <ele>537.8</ele>
        <time>2022-07-21T04:50:22Z</time>
      </trkpt>
      <trkpt lat="44.16122" lon="5.14697">
        <ele>537.9</ele>
        <time>2022-07-21T04:50:23Z</time>
      </trkpt>
      <trkpt lat="44.16121" lon="5.14697">
        <ele>538</ele>
        <time>2022-07-21T04:50:25Z</time>
      </trkpt>
      <trkpt lat="44.1612" lon="5.14696">
        <ele>538.1</ele>
        <time>2022-07-21T04:50:26Z</time>
      </trkpt>
      <trkpt lat="44.16119" lon="5.14695">
        <ele>538.2</ele>
        <time>2022-07-21T04:50:27Z</time>
      </trkpt>
      <trkpt lat="44.16118" lon="5.14694">
        <ele>538.3</ele>
        <time>2022-07-21T04:50:28Z</time>
      </trkpt>
      <trkpt lat="44.16117" lon="5.14694">
        <ele>538.4</ele>
        <time>2022-07-21T04:50:29Z</time>
      </trkpt>
      <trkpt lat="44.16116" lon="5.14692">
        <ele>538.5</ele>
        <time>2022-07-21T04:50:30Z</time>
      </trkpt>
      <trkpt lat="44.16112" lon="5.14688">
        <ele>538.9</ele>
        <time>2022-07-21T04:50:32Z</time>
      </trkpt>
      <trkpt lat="44.16111" lon="5.14687">
        <ele>539</ele>
        <time>2022-07-21T04:50:34Z</time>
      </trkpt>
      <trkpt lat="44.1611" lon="5.14686">
        <ele>539.2</ele>
        <time>2022-07-21T04:50:35Z</time>
      </trkpt>
      <trkpt lat="44.16108" lon="5.14684">
        <ele>539.4</ele>
        <time>2022-07-21T04:50:37Z</time>
      </trkpt>
      <trkpt lat="44.16107" lon="5.14684">
        <ele>539.5</ele>
        <time>2022-07-21T04:50:38Z</time>
      </trkpt>
      <trkpt lat="44.16104" lon="5.14683">
        <ele>539.7</ele>
        <time>2022-07-21T04:50:39Z</time>
      </trkpt>
      <trkpt lat="44.16103" lon="5.14682">
        <ele>539.9</ele>
        <time>2022-07-21T04:50:41Z</time>
      </trkpt>
      <trkpt lat="44.16102" lon="5.14681">
        <ele>540</ele>
        <time>2022-07-21T04:50:42Z</time>
      </trkpt>
      <trkpt lat="44.161" lon="5.1468">
        <ele>540.2</ele>
        <time>2022-07-21T04:50:43Z</time>
      </trkpt>
      <trkpt lat="44.16099" lon="5.1468">
        <ele>540.3</ele>
        <time>2022-07-21T04:50:44Z</time>
      </trkpt>
      <trkpt lat="44.16096" lon="5.14678">
        <ele>540.6</ele>
        <time>2022-07-21T04:50:45Z</time>
      </trkpt>
      <trkpt lat="44.16095" lon="5.14678">
        <ele>540.8</ele>
        <time>2022-07-21T04:50:46Z</time>
      </trkpt>
      <trkpt lat="44.16093" lon="5.14677">
        <ele>541</ele>
        <time>2022-07-21T04:50:47Z</time>
      </trkpt>
      <trkpt lat="44.1609" lon="5.14676">
        <ele>541.3</ele>
        <time>2022-07-21T04:50:49Z</time>
      </trkpt>
      <trkpt lat="44.16089" lon="5.14675">
        <ele>541.6</ele>
        <time>2022-07-21T04:50:50Z</time>
      </trkpt>
      <trkpt lat="44.16087" lon="5.14675">
        <ele>541.8</ele>
        <time>2022-07-21T04:50:52Z</time>
      </trkpt>
      <trkpt lat="44.16085" lon="5.14675">
        <ele>542</ele>
        <time>2022-07-21T04:50:53Z</time>
      </trkpt>
      <trkpt lat="44.16084" lon="5.14674">
        <ele>542.2</ele>
        <time>2022-07-21T04:50:54Z</time>
      </trkpt>
      <trkpt lat="44.1608" lon="5.14674">
        <ele>542.7</ele>
        <time>2022-07-21T04:50:55Z</time>
      </trkpt>
      <trkpt lat="44.16076" lon="5.14674">
        <ele>543.2</ele>
        <time>2022-07-21T04:50:57Z</time>
      </trkpt>
      <trkpt lat="44.16075" lon="5.14675">
        <ele>543.4</ele>
        <time>2022-07-21T04:50:59Z</time>
      </trkpt>
      <trkpt lat="44.16074" lon="5.14676">
        <ele>543.5</ele>
        <time>2022-07-21T04:51:00Z</time>
      </trkpt>
      <trkpt lat="44.16073" lon="5.14676">
        <ele>543.7</ele>
        <time>2022-07-21T04:51:01Z</time>
      </trkpt>
      <trkpt lat="44.16072" lon="5.14677">
        <ele>543.8</ele>
        <time>2022-07-21T04:51:02Z</time>
      </trkpt>
      <trkpt lat="44.1607" lon="5.14678">
        <ele>544</ele>
        <time>2022-07-21T04:51:03Z</time>
      </trkpt>
      <trkpt lat="44.16069" lon="5.14678">
        <ele>544.2</ele>
        <time>2022-07-21T04:51:04Z</time>
      </trkpt>
      <trkpt lat="44.16068" lon="5.14679">
        <ele>544.4</ele>
        <time>2022-07-21T04:51:05Z</time>
      </trkpt>
      <trkpt lat="44.16066" lon="5.1468">
        <ele>544.6</ele>
        <time>2022-07-21T04:51:06Z</time>
      </trkpt>
      <trkpt lat="44.16065" lon="5.14681">
        <ele>544.8</ele>
        <time>2022-07-21T04:51:07Z</time>
      </trkpt>
      <trkpt lat="44.16064" lon="5.14682">
        <ele>544.9</ele>
        <time>2022-07-21T04:51:08Z</time>
      </trkpt>
      <trkpt lat="44.16062" lon="5.14684">
        <ele>545.1</ele>
        <time>2022-07-21T04:51:09Z</time>
      </trkpt>
      <trkpt lat="44.16061" lon="5.14686">
        <ele>545.3</ele>
        <time>2022-07-21T04:51:10Z</time>
      </trkpt>
      <trkpt lat="44.1606" lon="5.14687">
        <ele>545.4</ele>
        <time>2022-07-21T04:51:11Z</time>
      </trkpt>
      <trkpt lat="44.16059" lon="5.14689">
        <ele>545.6</ele>
        <time>2022-07-21T04:51:12Z</time>
      </trkpt>
      <trkpt lat="44.16058" lon="5.14691">
        <ele>545.7</ele>
        <time>2022-07-21T04:51:13Z</time>
      </trkpt>
      <trkpt lat="44.16057" lon="5.14692">
        <ele>545.8</ele>
        <time>2022-07-21T04:51:14Z</time>
      </trkpt>
      <trkpt lat="44.16056" lon="5.14694">
        <ele>545.9</ele>
        <time>2022-07-21T04:51:15Z</time>
      </trkpt>
      <trkpt lat="44.16056" lon="5.14696">
        <ele>546</ele>
        <time>2022-07-21T04:51:16Z</time>
      </trkpt>
      <trkpt lat="44.16055" lon="5.14698">
        <ele>546.1</ele>
        <time>2022-07-21T04:51:17Z</time>
      </trkpt>
      <trkpt lat="44.16054" lon="5.147">
        <ele>546.3</ele>
        <time>2022-07-21T04:51:18Z</time>
      </trkpt>
      <trkpt lat="44.16054" lon="5.14702">
        <ele>546.4</ele>
        <time>2022-07-21T04:51:19Z</time>
      </trkpt>
      <trkpt lat="44.16053" lon="5.14704">
        <ele>546.5</ele>
        <time>2022-07-21T04:51:20Z</time>
      </trkpt>
      <trkpt lat="44.16052" lon="5.14706">
        <ele>546.6</ele>
        <time>2022-07-21T04:51:21Z</time>
      </trkpt>
      <trkpt lat="44.16052" lon="5.14708">
        <ele>546.7</ele>
        <time>2022-07-21T04:51:22Z</time>
      </trkpt>
      <trkpt lat="44.16051" lon="5.1471">
        <ele>546.8</ele>
        <time>2022-07-21T04:51:23Z</time>
      </trkpt>
      <trkpt lat="44.16051" lon="5.14712">
        <ele>546.9</ele>
        <time>2022-07-21T04:51:24Z</time>
      </trkpt>
      <trkpt lat="44.1605" lon="5.14714">
        <ele>547</ele>
        <time>2022-07-21T04:51:25Z</time>
      </trkpt>
      <trkpt lat="44.16049" lon="5.14716">
        <ele>547.1</ele>
        <time>2022-07-21T04:51:26Z</time>
      </trkpt>
      <trkpt lat="44.16048" lon="5.14718">
        <ele>547.2</ele>
        <time>2022-07-21T04:51:27Z</time>
      </trkpt>
      <trkpt lat="44.16048" lon="5.14719">
        <ele>547.3</ele>
        <time>2022-07-21T04:51:28Z</time>
      </trkpt>
      <trkpt lat="44.16048" lon="5.1472">
        <ele>547.4</ele>
        <time>2022-07-21T04:51:29Z</time>
      </trkpt>
      <trkpt lat="44.16047" lon="5.14722">
        <ele>547.5</ele>
        <time>2022-07-21T04:51:30Z</time>
      </trkpt>
      <trkpt lat="44.16046" lon="5.14724">
        <ele>547.6</ele>
        <time>2022-07-21T04:51:31Z</time>
      </trkpt>
      <trkpt lat="44.16046" lon="5.14726">
        <ele>547.7</ele>
        <time>2022-07-21T04:51:32Z</time>
      </trkpt>
      <trkpt lat="44.16045" lon="5.14728">
        <ele>547.9</ele>
        <time>2022-07-21T04:51:33Z</time>
      </trkpt>
      <trkpt lat="44.16044" lon="5.1473">
        <ele>548</ele>
        <time>2022-07-21T04:51:34Z</time>
      </trkpt>
      <trkpt lat="44.16044" lon="5.14731">
        <ele>548.1</ele>
        <time>2022-07-21T04:51:35Z</time>
      </trkpt>
      <trkpt lat="44.16043" lon="5.14733">
        <ele>548.2</ele>
        <time>2022-07-21T04:51:36Z</time>
      </trkpt>
      <trkpt lat="44.16043" lon="5.14735">
        <ele>548.4</ele>
        <time>2022-07-21T04:51:37Z</time>
      </trkpt>
      <trkpt lat="44.16042" lon="5.14737">
        <ele>548.5</ele>
        <time>2022-07-21T04:51:38Z</time>
      </trkpt>
      <trkpt lat="44.16041" lon="5.14738">
        <ele>548.6</ele>
        <time>2022-07-21T04:51:39Z</time>
      </trkpt>
      <trkpt lat="44.16041" lon="5.14739">
        <ele>548.7</ele>
        <time>2022-07-21T04:51:40Z</time>
      </trkpt>
      <trkpt lat="44.16039" lon="5.14741">
        <ele>548.9</ele>
        <time>2022-07-21T04:51:41Z</time>
      </trkpt>
      <trkpt lat="44.16039" lon="5.14742">
        <ele>549</ele>
        <time>2022-07-21T04:51:42Z</time>
      </trkpt>
      <trkpt lat="44.16038" lon="5.14743">
        <ele>549.1</ele>
        <time>2022-07-21T04:51:43Z</time>
      </trkpt>
      <trkpt lat="44.16037" lon="5.14745">
        <ele>549.2</ele>
        <time>2022-07-21T04:51:44Z</time>
      </trkpt>
      <trkpt lat="44.16036" lon="5.14747">
        <ele>549.4</ele>
        <time>2022-07-21T04:51:45Z</time>
      </trkpt>
      <trkpt lat="44.16036" lon="5.14748">
        <ele>549.6</ele>
        <time>2022-07-21T04:51:46Z</time>
      </trkpt>
      <trkpt lat="44.16035" lon="5.1475">
        <ele>549.8</ele>
        <time>2022-07-21T04:51:47Z</time>
      </trkpt>
      <trkpt lat="44.16033" lon="5.14752">
        <ele>550</ele>
        <time>2022-07-21T04:51:48Z</time>
      </trkpt>
      <trkpt lat="44.16033" lon="5.14753">
        <ele>550.1</ele>
        <time>2022-07-21T04:51:49Z</time>
      </trkpt>
      <trkpt lat="44.16032" lon="5.14754">
        <ele>550.2</ele>
        <time>2022-07-21T04:51:50Z</time>
      </trkpt>
      <trkpt lat="44.16031" lon="5.14754">
        <ele>550.3</ele>
        <time>2022-07-21T04:51:51Z</time>
      </trkpt>
      <trkpt lat="44.16029" lon="5.14755">
        <ele>550.5</ele>
        <time>2022-07-21T04:51:52Z</time>
      </trkpt>
      <trkpt lat="44.16028" lon="5.14756">
        <ele>550.7</ele>
        <time>2022-07-21T04:51:53Z</time>
      </trkpt>
      <trkpt lat="44.16027" lon="5.14757">
        <ele>550.8</ele>
        <time>2022-07-21T04:51:54Z</time>
      </trkpt>
      <trkpt lat="44.16026" lon="5.14759">
        <ele>551</ele>
        <time>2022-07-21T04:51:55Z</time>
      </trkpt>
      <trkpt lat="44.16025" lon="5.14759">
        <ele>551.1</ele>
        <time>2022-07-21T04:51:56Z</time>
      </trkpt>
      <trkpt lat="44.16025" lon="5.1476">
        <ele>551.2</ele>
        <time>2022-07-21T04:51:57Z</time>
      </trkpt>
      <trkpt lat="44.16023" lon="5.14762">
        <ele>551.4</ele>
        <time>2022-07-21T04:51:58Z</time>
      </trkpt>
      <trkpt lat="44.16022" lon="5.14763">
        <ele>551.6</ele>
        <time>2022-07-21T04:51:59Z</time>
      </trkpt>
      <trkpt lat="44.16022" lon="5.14764">
        <ele>551.7</ele>
        <time>2022-07-21T04:52:00Z</time>
      </trkpt>
      <trkpt lat="44.16021" lon="5.14766">
        <ele>551.9</ele>
        <time>2022-07-21T04:52:01Z</time>
      </trkpt>
      <trkpt lat="44.1602" lon="5.14767">
        <ele>552</ele>
        <time>2022-07-21T04:52:02Z</time>
      </trkpt>
      <trkpt lat="44.16019" lon="5.14769">
        <ele>552.2</ele>
        <time>2022-07-21T04:52:03Z</time>
      </trkpt>
      <trkpt lat="44.16019" lon="5.14771">
        <ele>552.3</ele>
        <time>2022-07-21T04:52:04Z</time>
      </trkpt>
      <trkpt lat="44.16018" lon="5.14773">
        <ele>552.5</ele>
        <time>2022-07-21T04:52:05Z</time>
      </trkpt>
      <trkpt lat="44.16017" lon="5.14775">
        <ele>552.7</ele>
        <time>2022-07-21T04:52:06Z</time>
      </trkpt>
      <trkpt lat="44.16016" lon="5.14776">
        <ele>552.8</ele>
        <time>2022-07-21T04:52:07Z</time>
      </trkpt>
      <trkpt lat="44.16015" lon="5.14777">
        <ele>552.9</ele>
        <time>2022-07-21T04:52:08Z</time>
      </trkpt>
      <trkpt lat="44.16014" lon="5.14779">
        <ele>553.1</ele>
        <time>2022-07-21T04:52:09Z</time>
      </trkpt>
      <trkpt lat="44.16013" lon="5.14781">
        <ele>553.2</ele>
        <time>2022-07-21T04:52:10Z</time>
      </trkpt>
      <trkpt lat="44.16012" lon="5.14782">
        <ele>553.4</ele>
        <time>2022-07-21T04:52:11Z</time>
      </trkpt>
      <trkpt lat="44.16011" lon="5.14784">
        <ele>553.5</ele>
        <time>2022-07-21T04:52:12Z</time>
      </trkpt>
      <trkpt lat="44.16011" lon="5.14786">
        <ele>553.6</ele>
        <time>2022-07-21T04:52:13Z</time>
      </trkpt>
      <trkpt lat="44.1601" lon="5.14788">
        <ele>553.8</ele>
        <time>2022-07-21T04:52:14Z</time>
      </trkpt>
      <trkpt lat="44.1601" lon="5.14791">
        <ele>553.9</ele>
        <time>2022-07-21T04:52:15Z</time>
      </trkpt>
      <trkpt lat="44.1601" lon="5.14793">
        <ele>554</ele>
        <time>2022-07-21T04:52:16Z</time>
      </trkpt>
      <trkpt lat="44.1601" lon="5.14795">
        <ele>554.2</ele>
        <time>2022-07-21T04:52:17Z</time>
      </trkpt>
      <trkpt lat="44.1601" lon="5.14797">
        <ele>554.3</ele>
        <time>2022-07-21T04:52:18Z</time>
      </trkpt>
      <trkpt lat="44.1601" lon="5.148">
        <ele>554.4</ele>
        <time>2022-07-21T04:52:19Z</time>
      </trkpt>
      <trkpt lat="44.16009" lon="5.14802">
        <ele>554.5</ele>
        <time>2022-07-21T04:52:20Z</time>
      </trkpt>
      <trkpt lat="44.16008" lon="5.14805">
        <ele>554.7</ele>
        <time>2022-07-21T04:52:21Z</time>
      </trkpt>
      <trkpt lat="44.16008" lon="5.14807">
        <ele>554.8</ele>
        <time>2022-07-21T04:52:22Z</time>
      </trkpt>
      <trkpt lat="44.16007" lon="5.14809">
        <ele>554.9</ele>
        <time>2022-07-21T04:52:23Z</time>
      </trkpt>
      <trkpt lat="44.16007" lon="5.14811">
        <ele>555.1</ele>
        <time>2022-07-21T04:52:24Z</time>
      </trkpt>
      <trkpt lat="44.16006" lon="5.14812">
        <ele>555.2</ele>
        <time>2022-07-21T04:52:25Z</time>
      </trkpt>
      <trkpt lat="44.16006" lon="5.14815">
        <ele>555.3</ele>
        <time>2022-07-21T04:52:26Z</time>
      </trkpt>
      <trkpt lat="44.16006" lon="5.14817">
        <ele>555.4</ele>
        <time>2022-07-21T04:52:27Z</time>
      </trkpt>
      <trkpt lat="44.16006" lon="5.14819">
        <ele>555.5</ele>
        <time>2022-07-21T04:52:28Z</time>
      </trkpt>
      <trkpt lat="44.16006" lon="5.14822">
        <ele>555.7</ele>
        <time>2022-07-21T04:52:29Z</time>
      </trkpt>
      <trkpt lat="44.16006" lon="5.14824">
        <ele>555.8</ele>
        <time>2022-07-21T04:52:30Z</time>
      </trkpt>
      <trkpt lat="44.16006" lon="5.14826">
        <ele>555.9</ele>
        <time>2022-07-21T04:52:31Z</time>
      </trkpt>
      <trkpt lat="44.16005" lon="5.14828">
        <ele>556.1</ele>
        <time>2022-07-21T04:52:32Z</time>
      </trkpt>
      <trkpt lat="44.16004" lon="5.14829">
        <ele>556.2</ele>
        <time>2022-07-21T04:52:33Z</time>
      </trkpt>
      <trkpt lat="44.16004" lon="5.14831">
        <ele>556.3</ele>
        <time>2022-07-21T04:52:34Z</time>
      </trkpt>
      <trkpt lat="44.16003" lon="5.14833">
        <ele>556.4</ele>
        <time>2022-07-21T04:52:35Z</time>
      </trkpt>
      <trkpt lat="44.16003" lon="5.14834">
        <ele>556.5</ele>
        <time>2022-07-21T04:52:36Z</time>
      </trkpt>
      <trkpt lat="44.16002" lon="5.14835">
        <ele>556.6</ele>
        <time>2022-07-21T04:52:37Z</time>
      </trkpt>
      <trkpt lat="44.16002" lon="5.14837">
        <ele>556.8</ele>
        <time>2022-07-21T04:52:38Z</time>
      </trkpt>
      <trkpt lat="44.16001" lon="5.14839">
        <ele>556.9</ele>
        <time>2022-07-21T04:52:39Z</time>
      </trkpt>
      <trkpt lat="44.16001" lon="5.14842">
        <ele>557.1</ele>
        <time>2022-07-21T04:52:40Z</time>
      </trkpt>
      <trkpt lat="44.16001" lon="5.14843">
        <ele>557.2</ele>
        <time>2022-07-21T04:52:41Z</time>
      </trkpt>
      <trkpt lat="44.16001" lon="5.14844">
        <ele>557.3</ele>
        <time>2022-07-21T04:52:42Z</time>
      </trkpt>
      <trkpt lat="44.16001" lon="5.14846">
        <ele>557.5</ele>
        <time>2022-07-21T04:52:43Z</time>
      </trkpt>
      <trkpt lat="44.16001" lon="5.14848">
        <ele>557.6</ele>
        <time>2022-07-21T04:52:44Z</time>
      </trkpt>
      <trkpt lat="44.16001" lon="5.14851">
        <ele>557.8</ele>
        <time>2022-07-21T04:52:45Z</time>
      </trkpt>
      <trkpt lat="44.16" lon="5.14852">
        <ele>557.9</ele>
        <time>2022-07-21T04:52:46Z</time>
      </trkpt>
      <trkpt lat="44.16" lon="5.14853">
        <ele>558</ele>
        <time>2022-07-21T04:52:47Z</time>
      </trkpt>
      <trkpt lat="44.16" lon="5.14854">
        <ele>558.1</ele>
        <time>2022-07-21T04:52:48Z</time>
      </trkpt>
      <trkpt lat="44.15999" lon="5.14856">
        <ele>558.4</ele>
        <time>2022-07-21T04:52:49Z</time>
      </trkpt>
      <trkpt lat="44.15999" lon="5.14858">
        <ele>558.5</ele>
        <time>2022-07-21T04:52:50Z</time>
      </trkpt>
      <trkpt lat="44.15999" lon="5.14859">
        <ele>558.6</ele>
        <time>2022-07-21T04:52:51Z</time>
      </trkpt>
      <trkpt lat="44.15998" lon="5.1486">
        <ele>558.8</ele>
        <time>2022-07-21T04:52:52Z</time>
      </trkpt>
      <trkpt lat="44.15997" lon="5.14862">
        <ele>559</ele>
        <time>2022-07-21T04:52:53Z</time>
      </trkpt>
      <trkpt lat="44.15997" lon="5.14864">
        <ele>559.2</ele>
        <time>2022-07-21T04:52:54Z</time>
      </trkpt>
      <trkpt lat="44.15996" lon="5.14866">
        <ele>559.4</ele>
        <time>2022-07-21T04:52:55Z</time>
      </trkpt>
      <trkpt lat="44.15996" lon="5.14868">
        <ele>559.6</ele>
        <time>2022-07-21T04:52:56Z</time>
      </trkpt>
      <trkpt lat="44.15996" lon="5.1487">
        <ele>559.8</ele>
        <time>2022-07-21T04:52:57Z</time>
      </trkpt>
      <trkpt lat="44.15995" lon="5.14872">
        <ele>560.1</ele>
        <time>2022-07-21T04:52:58Z</time>
      </trkpt>
      <trkpt lat="44.15995" lon="5.14874">
        <ele>560.3</ele>
        <time>2022-07-21T04:52:59Z</time>
      </trkpt>
      <trkpt lat="44.15995" lon="5.14876">
        <ele>560.5</ele>
        <time>2022-07-21T04:53:00Z</time>
      </trkpt>
      <trkpt lat="44.15995" lon="5.14878">
        <ele>560.7</ele>
        <time>2022-07-21T04:53:01Z</time>
      </trkpt>
      <trkpt lat="44.15995" lon="5.1488">
        <ele>561</ele>
        <time>2022-07-21T04:53:02Z</time>
      </trkpt>
      <trkpt lat="44.15994" lon="5.14882">
        <ele>561.2</ele>
        <time>2022-07-21T04:53:03Z</time>
      </trkpt>
      <trkpt lat="44.15994" lon="5.14884">
        <ele>561.4</ele>
        <time>2022-07-21T04:53:04Z</time>
      </trkpt>
      <trkpt lat="44.15994" lon="5.14886">
        <ele>561.6</ele>
        <time>2022-07-21T04:53:05Z</time>
      </trkpt>
      <trkpt lat="44.15994" lon="5.14887">
        <ele>561.8</ele>
        <time>2022-07-21T04:53:06Z</time>
      </trkpt>
      <trkpt lat="44.15993" lon="5.14889">
        <ele>562.1</ele>
        <time>2022-07-21T04:53:07Z</time>
      </trkpt>
      <trkpt lat="44.15993" lon="5.14892">
        <ele>562.3</ele>
        <time>2022-07-21T04:53:08Z</time>
      </trkpt>
      <trkpt lat="44.15992" lon="5.14894">
        <ele>562.6</ele>
        <time>2022-07-21T04:53:09Z</time>
      </trkpt>
      <trkpt lat="44.15991" lon="5.14896">
        <ele>562.9</ele>
        <time>2022-07-21T04:53:10Z</time>
      </trkpt>
      <trkpt lat="44.1599" lon="5.14898">
        <ele>563.1</ele>
        <time>2022-07-21T04:53:11Z</time>
      </trkpt>
      <trkpt lat="44.15989" lon="5.14899">
        <ele>563.3</ele>
        <time>2022-07-21T04:53:12Z</time>
      </trkpt>
      <trkpt lat="44.15988" lon="5.149">
        <ele>563.5</ele>
        <time>2022-07-21T04:53:13Z</time>
      </trkpt>
      <trkpt lat="44.15987" lon="5.14901">
        <ele>563.7</ele>
        <time>2022-07-21T04:53:14Z</time>
      </trkpt>
      <trkpt lat="44.15986" lon="5.14902">
        <ele>563.8</ele>
        <time>2022-07-21T04:53:15Z</time>
      </trkpt>
      <trkpt lat="44.15985" lon="5.14903">
        <ele>563.9</ele>
        <time>2022-07-21T04:53:16Z</time>
      </trkpt>
      <trkpt lat="44.15984" lon="5.14903">
        <ele>564.1</ele>
        <time>2022-07-21T04:53:17Z</time>
      </trkpt>
      <trkpt lat="44.15983" lon="5.14903">
        <ele>564.2</ele>
        <time>2022-07-21T04:53:18Z</time>
      </trkpt>
      <trkpt lat="44.15982" lon="5.14902">
        <ele>564.4</ele>
        <time>2022-07-21T04:53:19Z</time>
      </trkpt>
      <trkpt lat="44.1598" lon="5.14902">
        <ele>564.6</ele>
        <time>2022-07-21T04:53:20Z</time>
      </trkpt>
      <trkpt lat="44.15979" lon="5.14901">
        <ele>564.7</ele>
        <time>2022-07-21T04:53:21Z</time>
      </trkpt>
      <trkpt lat="44.15978" lon="5.14901">
        <ele>564.8</ele>
        <time>2022-07-21T04:53:22Z</time>
      </trkpt>
      <trkpt lat="44.15976" lon="5.149">
        <ele>565</ele>
        <time>2022-07-21T04:53:23Z</time>
      </trkpt>
      <trkpt lat="44.15976" lon="5.14899">
        <ele>565.1</ele>
        <time>2022-07-21T04:53:24Z</time>
      </trkpt>
      <trkpt lat="44.15975" lon="5.14899">
        <ele>565.2</ele>
        <time>2022-07-21T04:53:25Z</time>
      </trkpt>
      <trkpt lat="44.15974" lon="5.14898">
        <ele>565.3</ele>
        <time>2022-07-21T04:53:26Z</time>
      </trkpt>
      <trkpt lat="44.15973" lon="5.14897">
        <ele>565.3</ele>
        <time>2022-07-21T04:53:27Z</time>
      </trkpt>
      <trkpt lat="44.15973" lon="5.14897">
        <ele>565.4</ele>
        <time>2022-07-21T04:53:28Z</time>
      </trkpt>
      <trkpt lat="44.15972" lon="5.14897">
        <ele>565.4</ele>
        <time>2022-07-21T04:53:29Z</time>
      </trkpt>
      <trkpt lat="44.15972" lon="5.14896">
        <ele>565.5</ele>
        <time>2022-07-21T04:53:30Z</time>
      </trkpt>
      <trkpt lat="44.15971" lon="5.14895">
        <ele>565.6</ele>
        <time>2022-07-21T04:53:31Z</time>
      </trkpt>
      <trkpt lat="44.1597" lon="5.14895">
        <ele>565.6</ele>
        <time>2022-07-21T04:53:32Z</time>
      </trkpt>
      <trkpt lat="44.15969" lon="5.14894">
        <ele>565.7</ele>
        <time>2022-07-21T04:53:33Z</time>
      </trkpt>
      <trkpt lat="44.15969" lon="5.14893">
        <ele>565.7</ele>
        <time>2022-07-21T04:53:34Z</time>
      </trkpt>
      <trkpt lat="44.15968" lon="5.14892">
        <ele>565.8</ele>
        <time>2022-07-21T04:53:35Z</time>
      </trkpt>
      <trkpt lat="44.15966" lon="5.14891">
        <ele>566</ele>
        <time>2022-07-21T04:53:36Z</time>
      </trkpt>
      <trkpt lat="44.15965" lon="5.1489">
        <ele>566</ele>
        <time>2022-07-21T04:53:37Z</time>
      </trkpt>
      <trkpt lat="44.15964" lon="5.1489">
        <ele>566.1</ele>
        <time>2022-07-21T04:53:38Z</time>
      </trkpt>
      <trkpt lat="44.15963" lon="5.14889">
        <ele>566.2</ele>
        <time>2022-07-21T04:53:39Z</time>
      </trkpt>
      <trkpt lat="44.15962" lon="5.14888">
        <ele>566.2</ele>
        <time>2022-07-21T04:53:40Z</time>
      </trkpt>
      <trkpt lat="44.15959" lon="5.14886">
        <ele>566.4</ele>
        <time>2022-07-21T04:53:41Z</time>
      </trkpt>
      <trkpt lat="44.15958" lon="5.14885">
        <ele>566.4</ele>
        <time>2022-07-21T04:53:42Z</time>
      </trkpt>
      <trkpt lat="44.15957" lon="5.14884">
        <ele>566.5</ele>
        <time>2022-07-21T04:53:43Z</time>
      </trkpt>
      <trkpt lat="44.15955" lon="5.14883">
        <ele>566.6</ele>
        <time>2022-07-21T04:53:44Z</time>
      </trkpt>
      <trkpt lat="44.15954" lon="5.14882">
        <ele>566.7</ele>
        <time>2022-07-21T04:53:45Z</time>
      </trkpt>
      <trkpt lat="44.15952" lon="5.14881">
        <ele>566.8</ele>
        <time>2022-07-21T04:53:46Z</time>
      </trkpt>
      <trkpt lat="44.1595" lon="5.1488">
        <ele>566.9</ele>
        <time>2022-07-21T04:53:47Z</time>
      </trkpt>
      <trkpt lat="44.15949" lon="5.1488">
        <ele>566.9</ele>
        <time>2022-07-21T04:53:48Z</time>
      </trkpt>
      <trkpt lat="44.15948" lon="5.14879">
        <ele>567</ele>
        <time>2022-07-21T04:53:49Z</time>
      </trkpt>
      <trkpt lat="44.15946" lon="5.14878">
        <ele>567.1</ele>
        <time>2022-07-21T04:53:50Z</time>
      </trkpt>
      <trkpt lat="44.15944" lon="5.14877">
        <ele>567.2</ele>
        <time>2022-07-21T04:53:51Z</time>
      </trkpt>
      <trkpt lat="44.15943" lon="5.14876">
        <ele>567.2</ele>
        <time>2022-07-21T04:53:52Z</time>
      </trkpt>
      <trkpt lat="44.15943" lon="5.14875">
        <ele>567.3</ele>
        <time>2022-07-21T04:53:53Z</time>
      </trkpt>
      <trkpt lat="44.15941" lon="5.14874">
        <ele>567.4</ele>
        <time>2022-07-21T04:53:54Z</time>
      </trkpt>
      <trkpt lat="44.1594" lon="5.14873">
        <ele>567.5</ele>
        <time>2022-07-21T04:53:55Z</time>
      </trkpt>
      <trkpt lat="44.15939" lon="5.14872">
        <ele>567.6</ele>
        <time>2022-07-21T04:53:56Z</time>
      </trkpt>
      <trkpt lat="44.15938" lon="5.14871">
        <ele>567.6</ele>
        <time>2022-07-21T04:53:57Z</time>
      </trkpt>
      <trkpt lat="44.15936" lon="5.1487">
        <ele>567.7</ele>
        <time>2022-07-21T04:53:58Z</time>
      </trkpt>
      <trkpt lat="44.15935" lon="5.14869">
        <ele>567.8</ele>
        <time>2022-07-21T04:53:59Z</time>
      </trkpt>
      <trkpt lat="44.15933" lon="5.14867">
        <ele>567.9</ele>
        <time>2022-07-21T04:54:00Z</time>
      </trkpt>
      <trkpt lat="44.15932" lon="5.14866">
        <ele>568</ele>
        <time>2022-07-21T04:54:01Z</time>
      </trkpt>
      <trkpt lat="44.15931" lon="5.14864">
        <ele>568.2</ele>
        <time>2022-07-21T04:54:02Z</time>
      </trkpt>
      <trkpt lat="44.15929" lon="5.14863">
        <ele>568.3</ele>
        <time>2022-07-21T04:54:03Z</time>
      </trkpt>
      <trkpt lat="44.15927" lon="5.1486">
        <ele>568.5</ele>
        <time>2022-07-21T04:54:04Z</time>
      </trkpt>
      <trkpt lat="44.15927" lon="5.14859">
        <ele>568.5</ele>
        <time>2022-07-21T04:54:05Z</time>
      </trkpt>
      <trkpt lat="44.15926" lon="5.14857">
        <ele>568.7</ele>
        <time>2022-07-21T04:54:06Z</time>
      </trkpt>
      <trkpt lat="44.15924" lon="5.14855">
        <ele>568.8</ele>
        <time>2022-07-21T04:54:07Z</time>
      </trkpt>
      <trkpt lat="44.15923" lon="5.14854">
        <ele>568.9</ele>
        <time>2022-07-21T04:54:08Z</time>
      </trkpt>
      <trkpt lat="44.15922" lon="5.14852">
        <ele>569</ele>
        <time>2022-07-21T04:54:09Z</time>
      </trkpt>
      <trkpt lat="44.15922" lon="5.1485">
        <ele>569.1</ele>
        <time>2022-07-21T04:54:10Z</time>
      </trkpt>
      <trkpt lat="44.15921" lon="5.14848">
        <ele>569.2</ele>
        <time>2022-07-21T04:54:11Z</time>
      </trkpt>
      <trkpt lat="44.15921" lon="5.14846">
        <ele>569.4</ele>
        <time>2022-07-21T04:54:12Z</time>
      </trkpt>
      <trkpt lat="44.1592" lon="5.14844">
        <ele>569.5</ele>
        <time>2022-07-21T04:54:13Z</time>
      </trkpt>
      <trkpt lat="44.1592" lon="5.14842">
        <ele>569.6</ele>
        <time>2022-07-21T04:54:14Z</time>
      </trkpt>
      <trkpt lat="44.1592" lon="5.1484">
        <ele>569.7</ele>
        <time>2022-07-21T04:54:15Z</time>
      </trkpt>
      <trkpt lat="44.15919" lon="5.14839">
        <ele>569.8</ele>
        <time>2022-07-21T04:54:16Z</time>
      </trkpt>
      <trkpt lat="44.15919" lon="5.14837">
        <ele>569.9</ele>
        <time>2022-07-21T04:54:17Z</time>
      </trkpt>
      <trkpt lat="44.15917" lon="5.14833">
        <ele>570.1</ele>
        <time>2022-07-21T04:54:18Z</time>
      </trkpt>
      <trkpt lat="44.15917" lon="5.14832">
        <ele>570.2</ele>
        <time>2022-07-21T04:54:19Z</time>
      </trkpt>
      <trkpt lat="44.15915" lon="5.14829">
        <ele>570.5</ele>
        <time>2022-07-21T04:54:20Z</time>
      </trkpt>
      <trkpt lat="44.15915" lon="5.14828">
        <ele>570.5</ele>
        <time>2022-07-21T04:54:21Z</time>
      </trkpt>
      <trkpt lat="44.15914" lon="5.14826">
        <ele>570.7</ele>
        <time>2022-07-21T04:54:22Z</time>
      </trkpt>
      <trkpt lat="44.15914" lon="5.14824">
        <ele>570.8</ele>
        <time>2022-07-21T04:54:23Z</time>
      </trkpt>
      <trkpt lat="44.15913" lon="5.14822">
        <ele>570.9</ele>
        <time>2022-07-21T04:54:24Z</time>
      </trkpt>
      <trkpt lat="44.15912" lon="5.1482">
        <ele>571.1</ele>
        <time>2022-07-21T04:54:25Z</time>
      </trkpt>
      <trkpt lat="44.15911" lon="5.14817">
        <ele>571.3</ele>
        <time>2022-07-21T04:54:26Z</time>
      </trkpt>
      <trkpt lat="44.15911" lon="5.14816">
        <ele>571.3</ele>
        <time>2022-07-21T04:54:27Z</time>
      </trkpt>
      <trkpt lat="44.15911" lon="5.14815">
        <ele>571.4</ele>
        <time>2022-07-21T04:54:28Z</time>
      </trkpt>
      <trkpt lat="44.1591" lon="5.14813">
        <ele>571.5</ele>
        <time>2022-07-21T04:54:29Z</time>
      </trkpt>
      <trkpt lat="44.15909" lon="5.14811">
        <ele>571.7</ele>
        <time>2022-07-21T04:54:30Z</time>
      </trkpt>
      <trkpt lat="44.15908" lon="5.14809">
        <ele>571.8</ele>
        <time>2022-07-21T04:54:31Z</time>
      </trkpt>
      <trkpt lat="44.15907" lon="5.14807">
        <ele>572</ele>
        <time>2022-07-21T04:54:32Z</time>
      </trkpt>
      <trkpt lat="44.15906" lon="5.14806">
        <ele>572.1</ele>
        <time>2022-07-21T04:54:33Z</time>
      </trkpt>
      <trkpt lat="44.15905" lon="5.14804">
        <ele>572.3</ele>
        <time>2022-07-21T04:54:34Z</time>
      </trkpt>
      <trkpt lat="44.15903" lon="5.14801">
        <ele>572.5</ele>
        <time>2022-07-21T04:54:35Z</time>
      </trkpt>
      <trkpt lat="44.15903" lon="5.148">
        <ele>572.6</ele>
        <time>2022-07-21T04:54:36Z</time>
      </trkpt>
      <trkpt lat="44.15902" lon="5.14799">
        <ele>572.7</ele>
        <time>2022-07-21T04:54:37Z</time>
      </trkpt>
      <trkpt lat="44.15901" lon="5.14797">
        <ele>572.8</ele>
        <time>2022-07-21T04:54:38Z</time>
      </trkpt>
      <trkpt lat="44.159" lon="5.14795">
        <ele>573</ele>
        <time>2022-07-21T04:54:39Z</time>
      </trkpt>
      <trkpt lat="44.15899" lon="5.14794">
        <ele>573.1</ele>
        <time>2022-07-21T04:54:40Z</time>
      </trkpt>
      <trkpt lat="44.15898" lon="5.14792">
        <ele>573.3</ele>
        <time>2022-07-21T04:54:41Z</time>
      </trkpt>
      <trkpt lat="44.15897" lon="5.1479">
        <ele>573.5</ele>
        <time>2022-07-21T04:54:42Z</time>
      </trkpt>
      <trkpt lat="44.15897" lon="5.14788">
        <ele>573.6</ele>
        <time>2022-07-21T04:54:43Z</time>
      </trkpt>
      <trkpt lat="44.15896" lon="5.14787">
        <ele>573.7</ele>
        <time>2022-07-21T04:54:44Z</time>
      </trkpt>
      <trkpt lat="44.15895" lon="5.14786">
        <ele>573.8</ele>
        <time>2022-07-21T04:54:45Z</time>
      </trkpt>
      <trkpt lat="44.15894" lon="5.14784">
        <ele>573.9</ele>
        <time>2022-07-21T04:54:46Z</time>
      </trkpt>
      <trkpt lat="44.15893" lon="5.14783">
        <ele>574.1</ele>
        <time>2022-07-21T04:54:47Z</time>
      </trkpt>
      <trkpt lat="44.15891" lon="5.14782">
        <ele>574.2</ele>
        <time>2022-07-21T04:54:48Z</time>
      </trkpt>
      <trkpt lat="44.1589" lon="5.1478">
        <ele>574.4</ele>
        <time>2022-07-21T04:54:49Z</time>
      </trkpt>
      <trkpt lat="44.15889" lon="5.14779">
        <ele>574.5</ele>
        <time>2022-07-21T04:54:50Z</time>
      </trkpt>
      <trkpt lat="44.15888" lon="5.14778">
        <ele>574.7</ele>
        <time>2022-07-21T04:54:51Z</time>
      </trkpt>
      <trkpt lat="44.15887" lon="5.14776">
        <ele>574.8</ele>
        <time>2022-07-21T04:54:52Z</time>
      </trkpt>
      <trkpt lat="44.15886" lon="5.14775">
        <ele>574.9</ele>
        <time>2022-07-21T04:54:53Z</time>
      </trkpt>
      <trkpt lat="44.15885" lon="5.14774">
        <ele>575.1</ele>
        <time>2022-07-21T04:54:54Z</time>
      </trkpt>
      <trkpt lat="44.15883" lon="5.14772">
        <ele>575.2</ele>
        <time>2022-07-21T04:54:55Z</time>
      </trkpt>
      <trkpt lat="44.15882" lon="5.14771">
        <ele>575.3</ele>
        <time>2022-07-21T04:54:56Z</time>
      </trkpt>
      <trkpt lat="44.15881" lon="5.1477">
        <ele>575.5</ele>
        <time>2022-07-21T04:54:57Z</time>
      </trkpt>
      <trkpt lat="44.1588" lon="5.14768">
        <ele>575.6</ele>
        <time>2022-07-21T04:54:58Z</time>
      </trkpt>
      <trkpt lat="44.15879" lon="5.14767">
        <ele>575.8</ele>
        <time>2022-07-21T04:54:59Z</time>
      </trkpt>
      <trkpt lat="44.15878" lon="5.14766">
        <ele>575.9</ele>
        <time>2022-07-21T04:55:00Z</time>
      </trkpt>
      <trkpt lat="44.15876" lon="5.14764">
        <ele>576.1</ele>
        <time>2022-07-21T04:55:01Z</time>
      </trkpt>
      <trkpt lat="44.15875" lon="5.14763">
        <ele>576.3</ele>
        <time>2022-07-21T04:55:02Z</time>
      </trkpt>
      <trkpt lat="44.15873" lon="5.14762">
        <ele>576.4</ele>
        <time>2022-07-21T04:55:03Z</time>
      </trkpt>
      <trkpt lat="44.15872" lon="5.14762">
        <ele>576.6</ele>
        <time>2022-07-21T04:55:04Z</time>
      </trkpt>
      <trkpt lat="44.15871" lon="5.14761">
        <ele>576.7</ele>
        <time>2022-07-21T04:55:05Z</time>
      </trkpt>
      <trkpt lat="44.1587" lon="5.1476">
        <ele>576.8</ele>
        <time>2022-07-21T04:55:06Z</time>
      </trkpt>
      <trkpt lat="44.15869" lon="5.14759">
        <ele>576.9</ele>
        <time>2022-07-21T04:55:07Z</time>
      </trkpt>
      <trkpt lat="44.15868" lon="5.14758">
        <ele>577</ele>
        <time>2022-07-21T04:55:08Z</time>
      </trkpt>
      <trkpt lat="44.15866" lon="5.14758">
        <ele>577.2</ele>
        <time>2022-07-21T04:55:09Z</time>
      </trkpt>
      <trkpt lat="44.15865" lon="5.14757">
        <ele>577.3</ele>
        <time>2022-07-21T04:55:10Z</time>
      </trkpt>
      <trkpt lat="44.15863" lon="5.14757">
        <ele>577.4</ele>
        <time>2022-07-21T04:55:11Z</time>
      </trkpt>
      <trkpt lat="44.15862" lon="5.14756">
        <ele>577.6</ele>
        <time>2022-07-21T04:55:12Z</time>
      </trkpt>
      <trkpt lat="44.15861" lon="5.14756">
        <ele>577.7</ele>
        <time>2022-07-21T04:55:13Z</time>
      </trkpt>
      <trkpt lat="44.15859" lon="5.14755">
        <ele>577.8</ele>
        <time>2022-07-21T04:55:14Z</time>
      </trkpt>
      <trkpt lat="44.15858" lon="5.14755">
        <ele>578</ele>
        <time>2022-07-21T04:55:15Z</time>
      </trkpt>
      <trkpt lat="44.15856" lon="5.14754">
        <ele>578.1</ele>
        <time>2022-07-21T04:55:16Z</time>
      </trkpt>
      <trkpt lat="44.15855" lon="5.14754">
        <ele>578.2</ele>
        <time>2022-07-21T04:55:17Z</time>
      </trkpt>
      <trkpt lat="44.15853" lon="5.14753">
        <ele>578.3</ele>
        <time>2022-07-21T04:55:18Z</time>
      </trkpt>
      <trkpt lat="44.15852" lon="5.14753">
        <ele>578.5</ele>
        <time>2022-07-21T04:55:19Z</time>
      </trkpt>
      <trkpt lat="44.1585" lon="5.14752">
        <ele>578.6</ele>
        <time>2022-07-21T04:55:20Z</time>
      </trkpt>
      <trkpt lat="44.15849" lon="5.14751">
        <ele>578.7</ele>
        <time>2022-07-21T04:55:21Z</time>
      </trkpt>
      <trkpt lat="44.15848" lon="5.14751">
        <ele>578.8</ele>
        <time>2022-07-21T04:55:22Z</time>
      </trkpt>
      <trkpt lat="44.15847" lon="5.1475">
        <ele>578.9</ele>
        <time>2022-07-21T04:55:23Z</time>
      </trkpt>
      <trkpt lat="44.15845" lon="5.1475">
        <ele>579</ele>
        <time>2022-07-21T04:55:24Z</time>
      </trkpt>
      <trkpt lat="44.15844" lon="5.14749">
        <ele>579.1</ele>
        <time>2022-07-21T04:55:25Z</time>
      </trkpt>
      <trkpt lat="44.15843" lon="5.14749">
        <ele>579.2</ele>
        <time>2022-07-21T04:55:26Z</time>
      </trkpt>
      <trkpt lat="44.15842" lon="5.14748">
        <ele>579.3</ele>
        <time>2022-07-21T04:55:27Z</time>
      </trkpt>
      <trkpt lat="44.15841" lon="5.14748">
        <ele>579.4</ele>
        <time>2022-07-21T04:55:28Z</time>
      </trkpt>
      <trkpt lat="44.1584" lon="5.14748">
        <ele>579.5</ele>
        <time>2022-07-21T04:55:29Z</time>
      </trkpt>
      <trkpt lat="44.15839" lon="5.14748">
        <ele>579.6</ele>
        <time>2022-07-21T04:55:30Z</time>
      </trkpt>
      <trkpt lat="44.15838" lon="5.14747">
        <ele>579.7</ele>
        <time>2022-07-21T04:55:31Z</time>
      </trkpt>
      <trkpt lat="44.15837" lon="5.14747">
        <ele>579.8</ele>
        <time>2022-07-21T04:55:32Z</time>
      </trkpt>
      <trkpt lat="44.15835" lon="5.14747">
        <ele>579.9</ele>
        <time>2022-07-21T04:55:33Z</time>
      </trkpt>
      <trkpt lat="44.15834" lon="5.14746">
        <ele>580</ele>
        <time>2022-07-21T04:55:34Z</time>
      </trkpt>
      <trkpt lat="44.15833" lon="5.14746">
        <ele>580.1</ele>
        <time>2022-07-21T04:55:35Z</time>
      </trkpt>
      <trkpt lat="44.15832" lon="5.14746">
        <ele>580.2</ele>
        <time>2022-07-21T04:55:36Z</time>
      </trkpt>
      <trkpt lat="44.1583" lon="5.14745">
        <ele>580.3</ele>
        <time>2022-07-21T04:55:37Z</time>
      </trkpt>
      <trkpt lat="44.15829" lon="5.14745">
        <ele>580.4</ele>
        <time>2022-07-21T04:55:38Z</time>
      </trkpt>
      <trkpt lat="44.15828" lon="5.14745">
        <ele>580.5</ele>
        <time>2022-07-21T04:55:39Z</time>
      </trkpt>
      <trkpt lat="44.15826" lon="5.14744">
        <ele>580.7</ele>
        <time>2022-07-21T04:55:40Z</time>
      </trkpt>
      <trkpt lat="44.15824" lon="5.14744">
        <ele>580.8</ele>
        <time>2022-07-21T04:55:41Z</time>
      </trkpt>
      <trkpt lat="44.15823" lon="5.14744">
        <ele>580.9</ele>
        <time>2022-07-21T04:55:42Z</time>
      </trkpt>
      <trkpt lat="44.15821" lon="5.14744">
        <ele>581.1</ele>
        <time>2022-07-21T04:55:43Z</time>
      </trkpt>
      <trkpt lat="44.1582" lon="5.14743">
        <ele>581.2</ele>
        <time>2022-07-21T04:55:44Z</time>
      </trkpt>
      <trkpt lat="44.15819" lon="5.14743">
        <ele>581.3</ele>
        <time>2022-07-21T04:55:45Z</time>
      </trkpt>
      <trkpt lat="44.15817" lon="5.14742">
        <ele>581.4</ele>
        <time>2022-07-21T04:55:46Z</time>
      </trkpt>
      <trkpt lat="44.15816" lon="5.14742">
        <ele>581.6</ele>
        <time>2022-07-21T04:55:47Z</time>
      </trkpt>
      <trkpt lat="44.15814" lon="5.14741">
        <ele>581.7</ele>
        <time>2022-07-21T04:55:48Z</time>
      </trkpt>
      <trkpt lat="44.15813" lon="5.14741">
        <ele>581.8</ele>
        <time>2022-07-21T04:55:49Z</time>
      </trkpt>
      <trkpt lat="44.15811" lon="5.1474">
        <ele>582</ele>
        <time>2022-07-21T04:55:50Z</time>
      </trkpt>
      <trkpt lat="44.1581" lon="5.1474">
        <ele>582.1</ele>
        <time>2022-07-21T04:55:51Z</time>
      </trkpt>
      <trkpt lat="44.15809" lon="5.14739">
        <ele>582.2</ele>
        <time>2022-07-21T04:55:52Z</time>
      </trkpt>
      <trkpt lat="44.15808" lon="5.14739">
        <ele>582.3</ele>
        <time>2022-07-21T04:55:53Z</time>
      </trkpt>
      <trkpt lat="44.15807" lon="5.14739">
        <ele>582.4</ele>
        <time>2022-07-21T04:55:54Z</time>
      </trkpt>
      <trkpt lat="44.15806" lon="5.14738">
        <ele>582.5</ele>
        <time>2022-07-21T04:55:55Z</time>
      </trkpt>
      <trkpt lat="44.15805" lon="5.14738">
        <ele>582.6</ele>
        <time>2022-07-21T04:55:56Z</time>
      </trkpt>
      <trkpt lat="44.15804" lon="5.14737">
        <ele>582.7</ele>
        <time>2022-07-21T04:55:57Z</time>
      </trkpt>
      <trkpt lat="44.15803" lon="5.14736">
        <ele>582.8</ele>
        <time>2022-07-21T04:55:58Z</time>
      </trkpt>
      <trkpt lat="44.15801" lon="5.14735">
        <ele>582.9</ele>
        <time>2022-07-21T04:55:59Z</time>
      </trkpt>
      <trkpt lat="44.158" lon="5.14735">
        <ele>583.1</ele>
        <time>2022-07-21T04:56:00Z</time>
      </trkpt>
      <trkpt lat="44.15799" lon="5.14734">
        <ele>583.2</ele>
        <time>2022-07-21T04:56:01Z</time>
      </trkpt>
      <trkpt lat="44.15797" lon="5.14734">
        <ele>583.4</ele>
        <time>2022-07-21T04:56:02Z</time>
      </trkpt>
      <trkpt lat="44.15795" lon="5.14733">
        <ele>583.5</ele>
        <time>2022-07-21T04:56:03Z</time>
      </trkpt>
      <trkpt lat="44.15794" lon="5.14733">
        <ele>583.7</ele>
        <time>2022-07-21T04:56:04Z</time>
      </trkpt>
      <trkpt lat="44.15792" lon="5.14732">
        <ele>583.9</ele>
        <time>2022-07-21T04:56:05Z</time>
      </trkpt>
      <trkpt lat="44.15791" lon="5.14731">
        <ele>584</ele>
        <time>2022-07-21T04:56:06Z</time>
      </trkpt>
      <trkpt lat="44.15789" lon="5.14731">
        <ele>584.2</ele>
        <time>2022-07-21T04:56:07Z</time>
      </trkpt>
      <trkpt lat="44.15788" lon="5.1473">
        <ele>584.4</ele>
        <time>2022-07-21T04:56:08Z</time>
      </trkpt>
      <trkpt lat="44.15787" lon="5.14729">
        <ele>584.5</ele>
        <time>2022-07-21T04:56:09Z</time>
      </trkpt>
      <trkpt lat="44.15785" lon="5.14729">
        <ele>584.6</ele>
        <time>2022-07-21T04:56:10Z</time>
      </trkpt>
      <trkpt lat="44.15784" lon="5.14728">
        <ele>584.8</ele>
        <time>2022-07-21T04:56:11Z</time>
      </trkpt>
      <trkpt lat="44.15783" lon="5.14728">
        <ele>584.9</ele>
        <time>2022-07-21T04:56:12Z</time>
      </trkpt>
      <trkpt lat="44.15781" lon="5.14727">
        <ele>585.1</ele>
        <time>2022-07-21T04:56:13Z</time>
      </trkpt>
      <trkpt lat="44.1578" lon="5.14727">
        <ele>585.2</ele>
        <time>2022-07-21T04:56:14Z</time>
      </trkpt>
      <trkpt lat="44.15778" lon="5.14726">
        <ele>585.4</ele>
        <time>2022-07-21T04:56:15Z</time>
      </trkpt>
      <trkpt lat="44.15777" lon="5.14725">
        <ele>585.6</ele>
        <time>2022-07-21T04:56:16Z</time>
      </trkpt>
      <trkpt lat="44.15775" lon="5.14724">
        <ele>585.7</ele>
        <time>2022-07-21T04:56:17Z</time>
      </trkpt>
      <trkpt lat="44.15774" lon="5.14724">
        <ele>585.9</ele>
        <time>2022-07-21T04:56:18Z</time>
      </trkpt>
      <trkpt lat="44.15772" lon="5.14723">
        <ele>586.1</ele>
        <time>2022-07-21T04:56:19Z</time>
      </trkpt>
      <trkpt lat="44.15771" lon="5.14722">
        <ele>586.2</ele>
        <time>2022-07-21T04:56:20Z</time>
      </trkpt>
      <trkpt lat="44.1577" lon="5.14722">
        <ele>586.4</ele>
        <time>2022-07-21T04:56:21Z</time>
      </trkpt>
      <trkpt lat="44.15768" lon="5.14721">
        <ele>586.5</ele>
        <time>2022-07-21T04:56:22Z</time>
      </trkpt>
      <trkpt lat="44.15767" lon="5.14721">
        <ele>586.7</ele>
        <time>2022-07-21T04:56:23Z</time>
      </trkpt>
      <trkpt lat="44.15765" lon="5.14721">
        <ele>586.8</ele>
        <time>2022-07-21T04:56:24Z</time>
      </trkpt>
      <trkpt lat="44.15763" lon="5.1472">
        <ele>587</ele>
        <time>2022-07-21T04:56:25Z</time>
      </trkpt>
      <trkpt lat="44.15762" lon="5.1472">
        <ele>587.1</ele>
        <time>2022-07-21T04:56:26Z</time>
      </trkpt>
      <trkpt lat="44.15762" lon="5.1472">
        <ele>587.2</ele>
        <time>2022-07-21T04:56:27Z</time>
      </trkpt>
      <trkpt lat="44.1576" lon="5.14719">
        <ele>587.4</ele>
        <time>2022-07-21T04:56:28Z</time>
      </trkpt>
      <trkpt lat="44.15759" lon="5.14719">
        <ele>587.5</ele>
        <time>2022-07-21T04:56:29Z</time>
      </trkpt>
      <trkpt lat="44.15758" lon="5.14718">
        <ele>587.6</ele>
        <time>2022-07-21T04:56:30Z</time>
      </trkpt>
      <trkpt lat="44.15757" lon="5.14717">
        <ele>587.8</ele>
        <time>2022-07-21T04:56:31Z</time>
      </trkpt>
      <trkpt lat="44.15755" lon="5.14717">
        <ele>587.9</ele>
        <time>2022-07-21T04:56:32Z</time>
      </trkpt>
      <trkpt lat="44.15753" lon="5.14716">
        <ele>588.1</ele>
        <time>2022-07-21T04:56:33Z</time>
      </trkpt>
      <trkpt lat="44.15752" lon="5.14716">
        <ele>588.2</ele>
        <time>2022-07-21T04:56:34Z</time>
      </trkpt>
      <trkpt lat="44.15751" lon="5.14715">
        <ele>588.3</ele>
        <time>2022-07-21T04:56:35Z</time>
      </trkpt>
      <trkpt lat="44.1575" lon="5.14715">
        <ele>588.5</ele>
        <time>2022-07-21T04:56:36Z</time>
      </trkpt>
      <trkpt lat="44.15748" lon="5.14714">
        <ele>588.6</ele>
        <time>2022-07-21T04:56:37Z</time>
      </trkpt>
      <trkpt lat="44.15747" lon="5.14714">
        <ele>588.7</ele>
        <time>2022-07-21T04:56:38Z</time>
      </trkpt>
      <trkpt lat="44.15746" lon="5.14713">
        <ele>588.8</ele>
        <time>2022-07-21T04:56:39Z</time>
      </trkpt>
      <trkpt lat="44.15745" lon="5.14713">
        <ele>589</ele>
        <time>2022-07-21T04:56:40Z</time>
      </trkpt>
      <trkpt lat="44.15744" lon="5.14712">
        <ele>589.1</ele>
        <time>2022-07-21T04:56:41Z</time>
      </trkpt>
      <trkpt lat="44.15742" lon="5.14711">
        <ele>589.3</ele>
        <time>2022-07-21T04:56:42Z</time>
      </trkpt>
      <trkpt lat="44.1574" lon="5.1471">
        <ele>589.5</ele>
        <time>2022-07-21T04:56:43Z</time>
      </trkpt>
      <trkpt lat="44.15739" lon="5.1471">
        <ele>589.6</ele>
        <time>2022-07-21T04:56:44Z</time>
      </trkpt>
      <trkpt lat="44.15739" lon="5.14709">
        <ele>589.7</ele>
        <time>2022-07-21T04:56:45Z</time>
      </trkpt>
      <trkpt lat="44.15737" lon="5.14708">
        <ele>589.9</ele>
        <time>2022-07-21T04:56:46Z</time>
      </trkpt>
      <trkpt lat="44.15736" lon="5.14708">
        <ele>590</ele>
        <time>2022-07-21T04:56:47Z</time>
      </trkpt>
      <trkpt lat="44.15735" lon="5.14707">
        <ele>590.2</ele>
        <time>2022-07-21T04:56:48Z</time>
      </trkpt>
      <trkpt lat="44.15734" lon="5.14707">
        <ele>590.3</ele>
        <time>2022-07-21T04:56:49Z</time>
      </trkpt>
      <trkpt lat="44.15733" lon="5.14706">
        <ele>590.4</ele>
        <time>2022-07-21T04:56:50Z</time>
      </trkpt>
      <trkpt lat="44.15732" lon="5.14705">
        <ele>590.5</ele>
        <time>2022-07-21T04:56:51Z</time>
      </trkpt>
      <trkpt lat="44.1573" lon="5.14705">
        <ele>590.7</ele>
        <time>2022-07-21T04:56:52Z</time>
      </trkpt>
      <trkpt lat="44.15729" lon="5.14705">
        <ele>590.8</ele>
        <time>2022-07-21T04:56:53Z</time>
      </trkpt>
      <trkpt lat="44.15727" lon="5.14704">
        <ele>591</ele>
        <time>2022-07-21T04:56:54Z</time>
      </trkpt>
      <trkpt lat="44.15726" lon="5.14704">
        <ele>591.1</ele>
        <time>2022-07-21T04:56:55Z</time>
      </trkpt>
      <trkpt lat="44.15724" lon="5.14704">
        <ele>591.3</ele>
        <time>2022-07-21T04:56:56Z</time>
      </trkpt>
      <trkpt lat="44.15722" lon="5.14704">
        <ele>591.6</ele>
        <time>2022-07-21T04:56:57Z</time>
      </trkpt>
      <trkpt lat="44.15721" lon="5.14703">
        <ele>591.7</ele>
        <time>2022-07-21T04:56:58Z</time>
      </trkpt>
      <trkpt lat="44.1572" lon="5.14703">
        <ele>591.8</ele>
        <time>2022-07-21T04:56:59Z</time>
      </trkpt>
      <trkpt lat="44.15717" lon="5.14703">
        <ele>592</ele>
        <time>2022-07-21T04:57:00Z</time>
      </trkpt>
      <trkpt lat="44.15716" lon="5.14703">
        <ele>592.2</ele>
        <time>2022-07-21T04:57:01Z</time>
      </trkpt>
      <trkpt lat="44.15714" lon="5.14702">
        <ele>592.5</ele>
        <time>2022-07-21T04:57:02Z</time>
      </trkpt>
      <trkpt lat="44.15713" lon="5.14702">
        <ele>592.6</ele>
        <time>2022-07-21T04:57:03Z</time>
      </trkpt>
      <trkpt lat="44.1571" lon="5.14701">
        <ele>592.9</ele>
        <time>2022-07-21T04:57:04Z</time>
      </trkpt>
      <trkpt lat="44.15709" lon="5.14701">
        <ele>593</ele>
        <time>2022-07-21T04:57:05Z</time>
      </trkpt>
      <trkpt lat="44.15708" lon="5.14701">
        <ele>593.1</ele>
        <time>2022-07-21T04:57:06Z</time>
      </trkpt>
      <trkpt lat="44.15706" lon="5.14701">
        <ele>593.3</ele>
        <time>2022-07-21T04:57:07Z</time>
      </trkpt>
      <trkpt lat="44.15705" lon="5.147">
        <ele>593.4</ele>
        <time>2022-07-21T04:57:08Z</time>
      </trkpt>
      <trkpt lat="44.15703" lon="5.147">
        <ele>593.6</ele>
        <time>2022-07-21T04:57:09Z</time>
      </trkpt>
      <trkpt lat="44.15702" lon="5.147">
        <ele>593.8</ele>
        <time>2022-07-21T04:57:10Z</time>
      </trkpt>
      <trkpt lat="44.15701" lon="5.147">
        <ele>593.9</ele>
        <time>2022-07-21T04:57:11Z</time>
      </trkpt>
      <trkpt lat="44.157" lon="5.147">
        <ele>594</ele>
        <time>2022-07-21T04:57:12Z</time>
      </trkpt>
      <trkpt lat="44.15698" lon="5.147">
        <ele>594.3</ele>
        <time>2022-07-21T04:57:13Z</time>
      </trkpt>
      <trkpt lat="44.15697" lon="5.147">
        <ele>594.3</ele>
        <time>2022-07-21T04:57:14Z</time>
      </trkpt>
      <trkpt lat="44.15696" lon="5.147">
        <ele>594.4</ele>
        <time>2022-07-21T04:57:15Z</time>
      </trkpt>
      <trkpt lat="44.15694" lon="5.147">
        <ele>594.7</ele>
        <time>2022-07-21T04:57:16Z</time>
      </trkpt>
      <trkpt lat="44.15693" lon="5.147">
        <ele>594.8</ele>
        <time>2022-07-21T04:57:17Z</time>
      </trkpt>
      <trkpt lat="44.15692" lon="5.147">
        <ele>594.9</ele>
        <time>2022-07-21T04:57:18Z</time>
      </trkpt>
      <trkpt lat="44.1569" lon="5.147">
        <ele>595</ele>
        <time>2022-07-21T04:57:19Z</time>
      </trkpt>
      <trkpt lat="44.15689" lon="5.147">
        <ele>595.2</ele>
        <time>2022-07-21T04:57:20Z</time>
      </trkpt>
      <trkpt lat="44.15686" lon="5.14701">
        <ele>595.5</ele>
        <time>2022-07-21T04:57:21Z</time>
      </trkpt>
      <trkpt lat="44.15685" lon="5.14702">
        <ele>595.6</ele>
        <time>2022-07-21T04:57:22Z</time>
      </trkpt>
      <trkpt lat="44.15683" lon="5.14702">
        <ele>595.8</ele>
        <time>2022-07-21T04:57:23Z</time>
      </trkpt>
      <trkpt lat="44.15682" lon="5.14703">
        <ele>596</ele>
        <time>2022-07-21T04:57:24Z</time>
      </trkpt>
      <trkpt lat="44.15681" lon="5.14703">
        <ele>596.2</ele>
        <time>2022-07-21T04:57:25Z</time>
      </trkpt>
      <trkpt lat="44.15679" lon="5.14704">
        <ele>596.3</ele>
        <time>2022-07-21T04:57:26Z</time>
      </trkpt>
      <trkpt lat="44.15676" lon="5.14704">
        <ele>596.6</ele>
        <time>2022-07-21T04:57:27Z</time>
      </trkpt>
      <trkpt lat="44.15675" lon="5.14704">
        <ele>596.8</ele>
        <time>2022-07-21T04:57:28Z</time>
      </trkpt>
      <trkpt lat="44.15674" lon="5.14705">
        <ele>597</ele>
        <time>2022-07-21T04:57:29Z</time>
      </trkpt>
      <trkpt lat="44.15672" lon="5.14705">
        <ele>597.1</ele>
        <time>2022-07-21T04:57:30Z</time>
      </trkpt>
      <trkpt lat="44.1567" lon="5.14705">
        <ele>597.3</ele>
        <time>2022-07-21T04:57:31Z</time>
      </trkpt>
      <trkpt lat="44.15669" lon="5.14705">
        <ele>597.5</ele>
        <time>2022-07-21T04:57:32Z</time>
      </trkpt>
      <trkpt lat="44.15667" lon="5.14706">
        <ele>597.7</ele>
        <time>2022-07-21T04:57:33Z</time>
      </trkpt>
      <trkpt lat="44.15666" lon="5.14706">
        <ele>597.9</ele>
        <time>2022-07-21T04:57:34Z</time>
      </trkpt>
      <trkpt lat="44.15663" lon="5.14706">
        <ele>598.2</ele>
        <time>2022-07-21T04:57:35Z</time>
      </trkpt>
      <trkpt lat="44.15662" lon="5.14706">
        <ele>598.3</ele>
        <time>2022-07-21T04:57:36Z</time>
      </trkpt>
      <trkpt lat="44.1566" lon="5.14706">
        <ele>598.5</ele>
        <time>2022-07-21T04:57:37Z</time>
      </trkpt>
      <trkpt lat="44.15659" lon="5.14707">
        <ele>598.7</ele>
        <time>2022-07-21T04:57:38Z</time>
      </trkpt>
      <trkpt lat="44.15657" lon="5.14707">
        <ele>598.9</ele>
        <time>2022-07-21T04:57:39Z</time>
      </trkpt>
      <trkpt lat="44.15655" lon="5.14708">
        <ele>599.1</ele>
        <time>2022-07-21T04:57:40Z</time>
      </trkpt>
      <trkpt lat="44.15654" lon="5.14708">
        <ele>599.3</ele>
        <time>2022-07-21T04:57:41Z</time>
      </trkpt>
      <trkpt lat="44.15652" lon="5.14709">
        <ele>599.5</ele>
        <time>2022-07-21T04:57:42Z</time>
      </trkpt>
      <trkpt lat="44.1565" lon="5.14709">
        <ele>599.7</ele>
        <time>2022-07-21T04:57:43Z</time>
      </trkpt>
      <trkpt lat="44.15649" lon="5.14709">
        <ele>599.8</ele>
        <time>2022-07-21T04:57:44Z</time>
      </trkpt>
      <trkpt lat="44.15649" lon="5.14709">
        <ele>599.9</ele>
        <time>2022-07-21T04:57:45Z</time>
      </trkpt>
      <trkpt lat="44.15647" lon="5.14709">
        <ele>600.1</ele>
        <time>2022-07-21T04:57:46Z</time>
      </trkpt>
      <trkpt lat="44.15646" lon="5.14709">
        <ele>600.3</ele>
        <time>2022-07-21T04:57:47Z</time>
      </trkpt>
      <trkpt lat="44.15644" lon="5.1471">
        <ele>600.5</ele>
        <time>2022-07-21T04:57:48Z</time>
      </trkpt>
      <trkpt lat="44.15643" lon="5.1471">
        <ele>600.6</ele>
        <time>2022-07-21T04:57:49Z</time>
      </trkpt>
      <trkpt lat="44.15642" lon="5.14711">
        <ele>600.7</ele>
        <time>2022-07-21T04:57:50Z</time>
      </trkpt>
      <trkpt lat="44.15641" lon="5.14711">
        <ele>600.9</ele>
        <time>2022-07-21T04:57:51Z</time>
      </trkpt>
      <trkpt lat="44.1564" lon="5.14712">
        <ele>601</ele>
        <time>2022-07-21T04:57:52Z</time>
      </trkpt>
      <trkpt lat="44.15639" lon="5.14712">
        <ele>601.2</ele>
        <time>2022-07-21T04:57:53Z</time>
      </trkpt>
      <trkpt lat="44.15637" lon="5.14713">
        <ele>601.3</ele>
        <time>2022-07-21T04:57:54Z</time>
      </trkpt>
      <trkpt lat="44.15636" lon="5.14713">
        <ele>601.6</ele>
        <time>2022-07-21T04:57:55Z</time>
      </trkpt>
      <trkpt lat="44.15633" lon="5.14714">
        <ele>601.9</ele>
        <time>2022-07-21T04:57:56Z</time>
      </trkpt>
      <trkpt lat="44.15632" lon="5.14715">
        <ele>602</ele>
        <time>2022-07-21T04:57:57Z</time>
      </trkpt>
      <trkpt lat="44.15631" lon="5.14715">
        <ele>602.2</ele>
        <time>2022-07-21T04:57:58Z</time>
      </trkpt>
      <trkpt lat="44.15629" lon="5.14716">
        <ele>602.4</ele>
        <time>2022-07-21T04:57:59Z</time>
      </trkpt>
      <trkpt lat="44.15627" lon="5.14717">
        <ele>602.7</ele>
        <time>2022-07-21T04:58:00Z</time>
      </trkpt>
      <trkpt lat="44.15626" lon="5.14717">
        <ele>602.9</ele>
        <time>2022-07-21T04:58:01Z</time>
      </trkpt>
      <trkpt lat="44.15625" lon="5.14718">
        <ele>603.1</ele>
        <time>2022-07-21T04:58:02Z</time>
      </trkpt>
      <trkpt lat="44.15623" lon="5.14719">
        <ele>603.3</ele>
        <time>2022-07-21T04:58:03Z</time>
      </trkpt>
      <trkpt lat="44.15622" lon="5.1472">
        <ele>603.5</ele>
        <time>2022-07-21T04:58:04Z</time>
      </trkpt>
      <trkpt lat="44.1562" lon="5.14721">
        <ele>603.7</ele>
        <time>2022-07-21T04:58:05Z</time>
      </trkpt>
      <trkpt lat="44.15619" lon="5.14722">
        <ele>604</ele>
        <time>2022-07-21T04:58:06Z</time>
      </trkpt>
      <trkpt lat="44.15617" lon="5.14723">
        <ele>604.2</ele>
        <time>2022-07-21T04:58:07Z</time>
      </trkpt>
      <trkpt lat="44.15615" lon="5.14724">
        <ele>604.4</ele>
        <time>2022-07-21T04:58:08Z</time>
      </trkpt>
      <trkpt lat="44.15613" lon="5.14724">
        <ele>604.7</ele>
        <time>2022-07-21T04:58:09Z</time>
      </trkpt>
      <trkpt lat="44.15611" lon="5.14726">
        <ele>605.1</ele>
        <time>2022-07-21T04:58:10Z</time>
      </trkpt>
      <trkpt lat="44.1561" lon="5.14726">
        <ele>605.2</ele>
        <time>2022-07-21T04:58:11Z</time>
      </trkpt>
      <trkpt lat="44.15608" lon="5.14727">
        <ele>605.5</ele>
        <time>2022-07-21T04:58:12Z</time>
      </trkpt>
      <trkpt lat="44.15607" lon="5.14728">
        <ele>605.7</ele>
        <time>2022-07-21T04:58:13Z</time>
      </trkpt>
      <trkpt lat="44.15604" lon="5.1473">
        <ele>606</ele>
        <time>2022-07-21T04:58:14Z</time>
      </trkpt>
      <trkpt lat="44.15603" lon="5.14731">
        <ele>606</ele>
        <time>2022-07-21T04:58:15Z</time>
      </trkpt>
      <trkpt lat="44.15602" lon="5.14732">
        <ele>606</ele>
        <time>2022-07-21T04:58:16Z</time>
      </trkpt>
      <trkpt lat="44.156" lon="5.14733">
        <ele>606.1</ele>
        <time>2022-07-21T04:58:17Z</time>
      </trkpt>
      <trkpt lat="44.15599" lon="5.14734">
        <ele>606.1</ele>
        <time>2022-07-21T04:58:18Z</time>
      </trkpt>
      <trkpt lat="44.15597" lon="5.14736">
        <ele>606.2</ele>
        <time>2022-07-21T04:58:19Z</time>
      </trkpt>
      <trkpt lat="44.15595" lon="5.14738">
        <ele>606.2</ele>
        <time>2022-07-21T04:58:20Z</time>
      </trkpt>
      <trkpt lat="44.15595" lon="5.14739">
        <ele>606.2</ele>
        <time>2022-07-21T04:58:21Z</time>
      </trkpt>
      <trkpt lat="44.15594" lon="5.14741">
        <ele>606.3</ele>
        <time>2022-07-21T04:58:22Z</time>
      </trkpt>
      <trkpt lat="44.15594" lon="5.14742">
        <ele>606.3</ele>
        <time>2022-07-21T04:58:23Z</time>
      </trkpt>
      <trkpt lat="44.15594" lon="5.14742">
        <ele>606.3</ele>
        <time>2022-07-21T04:58:24Z</time>
      </trkpt>
      <trkpt lat="44.15594" lon="5.14744">
        <ele>606.3</ele>
        <time>2022-07-21T04:58:25Z</time>
      </trkpt>
      <trkpt lat="44.15593" lon="5.14745">
        <ele>606.3</ele>
        <time>2022-07-21T04:58:26Z</time>
      </trkpt>
      <trkpt lat="44.15593" lon="5.14745">
        <ele>606.4</ele>
        <time>2022-07-21T04:58:27Z</time>
      </trkpt>
      <trkpt lat="44.15593" lon="5.14745">
        <ele>606.4</ele>
        <time>2022-07-21T04:58:28Z</time>
      </trkpt>
      <trkpt lat="44.15592" lon="5.14745">
        <ele>606.4</ele>
        <time>2022-07-21T04:58:29Z</time>
      </trkpt>
      <trkpt lat="44.15592" lon="5.14745">
        <ele>606.4</ele>
        <time>2022-07-21T04:58:30Z</time>
      </trkpt>
      <trkpt lat="44.15592" lon="5.14745">
        <ele>606.4</ele>
        <time>2022-07-21T04:58:31Z</time>
      </trkpt>
      <trkpt lat="44.15592" lon="5.14745">
        <ele>606.4</ele>
        <time>2022-07-21T04:58:32Z</time>
      </trkpt>
      <trkpt lat="44.15592" lon="5.14745">
        <ele>606.4</ele>
        <time>2022-07-21T04:58:33Z</time>
      </trkpt>
      <trkpt lat="44.15592" lon="5.14745">
        <ele>606.4</ele>
        <time>2022-07-21T04:58:34Z</time>
      </trkpt>
      <trkpt lat="44.15592" lon="5.14745">
        <ele>606.4</ele>
        <time>2022-07-21T04:58:35Z</time>
      </trkpt>
      <trkpt lat="44.15592" lon="5.14745">
        <ele>606.4</ele>
        <time>2022-07-21T04:58:36Z</time>
      </trkpt>
      <trkpt lat="44.15592" lon="5.14745">
        <ele>606.4</ele>
        <time>2022-07-21T04:58:37Z</time>
      </trkpt>
      <trkpt lat="44.15592" lon="5.14745">
        <ele>606.4</ele>
        <time>2022-07-21T04:58:38Z</time>
      </trkpt>
      <trkpt lat="44.15592" lon="5.14745">
        <ele>606.4</ele>
        <time>2022-07-21T04:58:39Z</time>
      </trkpt>
      <trkpt lat="44.15589" lon="5.14746">
        <ele>606.4</ele>
        <time>2022-07-21T05:00:07Z</time>
      </trkpt>
      <trkpt lat="44.15589" lon="5.14746">
        <ele>606.4</ele>
        <time>2022-07-21T05:00:08Z</time>
      </trkpt>
      <trkpt lat="44.15589" lon="5.14746">
        <ele>606.4</ele>
        <time>2022-07-21T05:00:09Z</time>
      </trkpt>
      <trkpt lat="44.15589" lon="5.14745">
        <ele>606.5</ele>
        <time>2022-07-21T05:00:10Z</time>
      </trkpt>
      <trkpt lat="44.15589" lon="5.14745">
        <ele>606.5</ele>
        <time>2022-07-21T05:00:11Z</time>
      </trkpt>
      <trkpt lat="44.15589" lon="5.14745">
        <ele>606.5</ele>
        <time>2022-07-21T05:00:12Z</time>
      </trkpt>
      <trkpt lat="44.15589" lon="5.14745">
        <ele>606.5</ele>
        <time>2022-07-21T05:00:13Z</time>
      </trkpt>
      <trkpt lat="44.15589" lon="5.14745">
        <ele>606.5</ele>
        <time>2022-07-21T05:00:14Z</time>
      </trkpt>
      <trkpt lat="44.15589" lon="5.14745">
        <ele>606.5</ele>
        <time>2022-07-21T05:00:15Z</time>
      </trkpt>
      <trkpt lat="44.15589" lon="5.14745">
        <ele>606.5</ele>
        <time>2022-07-21T05:00:16Z</time>
      </trkpt>
      <trkpt lat="44.15589" lon="5.14745">
        <ele>606.5</ele>
        <time>2022-07-21T05:00:17Z</time>
      </trkpt>
      <trkpt lat="44.1559" lon="5.14756">
        <ele>606.8</ele>
        <time>2022-07-21T05:01:05Z</time>
      </trkpt>
      <trkpt lat="44.1559" lon="5.14758">
        <ele>606.9</ele>
        <time>2022-07-21T05:01:06Z</time>
      </trkpt>
      <trkpt lat="44.1559" lon="5.14761">
        <ele>607</ele>
        <time>2022-07-21T05:01:07Z</time>
      </trkpt>
      <trkpt lat="44.1559" lon="5.14762">
        <ele>607.1</ele>
        <time>2022-07-21T05:01:08Z</time>
      </trkpt>
      <trkpt lat="44.1559" lon="5.14763">
        <ele>607.2</ele>
        <time>2022-07-21T05:01:09Z</time>
      </trkpt>
      <trkpt lat="44.15591" lon="5.14766">
        <ele>607.3</ele>
        <time>2022-07-21T05:01:10Z</time>
      </trkpt>
      <trkpt lat="44.15592" lon="5.14768">
        <ele>607.4</ele>
        <time>2022-07-21T05:01:11Z</time>
      </trkpt>
      <trkpt lat="44.15593" lon="5.1477">
        <ele>607.6</ele>
        <time>2022-07-21T05:01:12Z</time>
      </trkpt>
      <trkpt lat="44.15594" lon="5.14771">
        <ele>607.7</ele>
        <time>2022-07-21T05:01:13Z</time>
      </trkpt>
      <trkpt lat="44.15594" lon="5.14773">
        <ele>607.8</ele>
        <time>2022-07-21T05:01:14Z</time>
      </trkpt>
      <trkpt lat="44.15595" lon="5.14775">
        <ele>607.9</ele>
        <time>2022-07-21T05:01:15Z</time>
      </trkpt>
      <trkpt lat="44.15596" lon="5.14777">
        <ele>608</ele>
        <time>2022-07-21T05:01:16Z</time>
      </trkpt>
      <trkpt lat="44.15598" lon="5.14778">
        <ele>608.1</ele>
        <time>2022-07-21T05:01:17Z</time>
      </trkpt>
      <trkpt lat="44.15599" lon="5.1478">
        <ele>608.2</ele>
        <time>2022-07-21T05:01:18Z</time>
      </trkpt>
      <trkpt lat="44.156" lon="5.14782">
        <ele>608.4</ele>
        <time>2022-07-21T05:01:19Z</time>
      </trkpt>
      <trkpt lat="44.15601" lon="5.14783">
        <ele>608.5</ele>
        <time>2022-07-21T05:01:20Z</time>
      </trkpt>
      <trkpt lat="44.15602" lon="5.14785">
        <ele>608.6</ele>
        <time>2022-07-21T05:01:21Z</time>
      </trkpt>
      <trkpt lat="44.15603" lon="5.14786">
        <ele>608.7</ele>
        <time>2022-07-21T05:01:22Z</time>
      </trkpt>
      <trkpt lat="44.15605" lon="5.14788">
        <ele>608.8</ele>
        <time>2022-07-21T05:01:23Z</time>
      </trkpt>
      <trkpt lat="44.15606" lon="5.14789">
        <ele>608.9</ele>
        <time>2022-07-21T05:01:24Z</time>
      </trkpt>
      <trkpt lat="44.15607" lon="5.1479">
        <ele>609</ele>
        <time>2022-07-21T05:01:25Z</time>
      </trkpt>
      <trkpt lat="44.15608" lon="5.14791">
        <ele>609.1</ele>
        <time>2022-07-21T05:01:26Z</time>
      </trkpt>
      <trkpt lat="44.15609" lon="5.14792">
        <ele>609.2</ele>
        <time>2022-07-21T05:01:27Z</time>
      </trkpt>
      <trkpt lat="44.15611" lon="5.14794">
        <ele>609.3</ele>
        <time>2022-07-21T05:01:28Z</time>
      </trkpt>
      <trkpt lat="44.15612" lon="5.14795">
        <ele>609.4</ele>
        <time>2022-07-21T05:01:29Z</time>
      </trkpt>
      <trkpt lat="44.15613" lon="5.14796">
        <ele>609.5</ele>
        <time>2022-07-21T05:01:30Z</time>
      </trkpt>
      <trkpt lat="44.15614" lon="5.14798">
        <ele>609.7</ele>
        <time>2022-07-21T05:01:31Z</time>
      </trkpt>
      <trkpt lat="44.15615" lon="5.14799">
        <ele>609.8</ele>
        <time>2022-07-21T05:01:32Z</time>
      </trkpt>
      <trkpt lat="44.15616" lon="5.148">
        <ele>609.9</ele>
        <time>2022-07-21T05:01:33Z</time>
      </trkpt>
      <trkpt lat="44.15618" lon="5.14801">
        <ele>610</ele>
        <time>2022-07-21T05:01:34Z</time>
      </trkpt>
      <trkpt lat="44.15619" lon="5.14802">
        <ele>610.1</ele>
        <time>2022-07-21T05:01:35Z</time>
      </trkpt>
      <trkpt lat="44.1562" lon="5.14803">
        <ele>610.2</ele>
        <time>2022-07-21T05:01:36Z</time>
      </trkpt>
      <trkpt lat="44.15621" lon="5.14804">
        <ele>610.3</ele>
        <time>2022-07-21T05:01:37Z</time>
      </trkpt>
      <trkpt lat="44.15623" lon="5.14805">
        <ele>610.4</ele>
        <time>2022-07-21T05:01:38Z</time>
      </trkpt>
      <trkpt lat="44.15624" lon="5.14806">
        <ele>610.5</ele>
        <time>2022-07-21T05:01:39Z</time>
      </trkpt>
      <trkpt lat="44.15625" lon="5.14808">
        <ele>610.7</ele>
        <time>2022-07-21T05:01:40Z</time>
      </trkpt>
      <trkpt lat="44.15626" lon="5.14809">
        <ele>610.7</ele>
        <time>2022-07-21T05:01:41Z</time>
      </trkpt>
      <trkpt lat="44.15627" lon="5.14809">
        <ele>610.8</ele>
        <time>2022-07-21T05:01:42Z</time>
      </trkpt>
      <trkpt lat="44.15628" lon="5.1481">
        <ele>610.9</ele>
        <time>2022-07-21T05:01:43Z</time>
      </trkpt>
      <trkpt lat="44.1563" lon="5.14812">
        <ele>611</ele>
        <time>2022-07-21T05:01:44Z</time>
      </trkpt>
      <trkpt lat="44.15631" lon="5.14813">
        <ele>611.2</ele>
        <time>2022-07-21T05:01:45Z</time>
      </trkpt>
      <trkpt lat="44.15632" lon="5.14814">
        <ele>611.3</ele>
        <time>2022-07-21T05:01:46Z</time>
      </trkpt>
      <trkpt lat="44.15633" lon="5.14815">
        <ele>611.3</ele>
        <time>2022-07-21T05:01:47Z</time>
      </trkpt>
      <trkpt lat="44.15634" lon="5.14816">
        <ele>611.4</ele>
        <time>2022-07-21T05:01:48Z</time>
      </trkpt>
      <trkpt lat="44.15635" lon="5.14818">
        <ele>611.6</ele>
        <time>2022-07-21T05:01:49Z</time>
      </trkpt>
      <trkpt lat="44.15636" lon="5.14819">
        <ele>611.7</ele>
        <time>2022-07-21T05:01:50Z</time>
      </trkpt>
      <trkpt lat="44.15637" lon="5.1482">
        <ele>611.8</ele>
        <time>2022-07-21T05:01:51Z</time>
      </trkpt>
      <trkpt lat="44.15639" lon="5.14821">
        <ele>612</ele>
        <time>2022-07-21T05:01:52Z</time>
      </trkpt>
      <trkpt lat="44.1564" lon="5.14822">
        <ele>612.1</ele>
        <time>2022-07-21T05:01:53Z</time>
      </trkpt>
      <trkpt lat="44.15641" lon="5.14823">
        <ele>612.1</ele>
        <time>2022-07-21T05:01:54Z</time>
      </trkpt>
      <trkpt lat="44.15642" lon="5.14824">
        <ele>612.3</ele>
        <time>2022-07-21T05:01:55Z</time>
      </trkpt>
      <trkpt lat="44.15644" lon="5.14825">
        <ele>612.4</ele>
        <time>2022-07-21T05:01:56Z</time>
      </trkpt>
      <trkpt lat="44.15645" lon="5.14826">
        <ele>612.6</ele>
        <time>2022-07-21T05:01:57Z</time>
      </trkpt>
      <trkpt lat="44.15647" lon="5.14827">
        <ele>612.7</ele>
        <time>2022-07-21T05:01:58Z</time>
      </trkpt>
      <trkpt lat="44.15648" lon="5.14828">
        <ele>612.8</ele>
        <time>2022-07-21T05:01:59Z</time>
      </trkpt>
      <trkpt lat="44.15649" lon="5.14829">
        <ele>613</ele>
        <time>2022-07-21T05:02:00Z</time>
      </trkpt>
      <trkpt lat="44.15651" lon="5.1483">
        <ele>613.1</ele>
        <time>2022-07-21T05:02:01Z</time>
      </trkpt>
      <trkpt lat="44.15652" lon="5.14831">
        <ele>613.2</ele>
        <time>2022-07-21T05:02:02Z</time>
      </trkpt>
      <trkpt lat="44.15654" lon="5.14832">
        <ele>613.4</ele>
        <time>2022-07-21T05:02:03Z</time>
      </trkpt>
      <trkpt lat="44.15655" lon="5.14833">
        <ele>613.5</ele>
        <time>2022-07-21T05:02:04Z</time>
      </trkpt>
      <trkpt lat="44.15656" lon="5.14834">
        <ele>613.7</ele>
        <time>2022-07-21T05:02:05Z</time>
      </trkpt>
      <trkpt lat="44.15657" lon="5.14835">
        <ele>613.8</ele>
        <time>2022-07-21T05:02:06Z</time>
      </trkpt>
      <trkpt lat="44.15659" lon="5.14837">
        <ele>614</ele>
        <time>2022-07-21T05:02:07Z</time>
      </trkpt>
      <trkpt lat="44.1566" lon="5.14838">
        <ele>614.1</ele>
        <time>2022-07-21T05:02:08Z</time>
      </trkpt>
      <trkpt lat="44.1566" lon="5.14838">
        <ele>614.2</ele>
        <time>2022-07-21T05:02:09Z</time>
      </trkpt>
      <trkpt lat="44.15662" lon="5.1484">
        <ele>614.3</ele>
        <time>2022-07-21T05:02:10Z</time>
      </trkpt>
      <trkpt lat="44.15662" lon="5.14841">
        <ele>614.4</ele>
        <time>2022-07-21T05:02:11Z</time>
      </trkpt>
      <trkpt lat="44.15664" lon="5.14843">
        <ele>614.6</ele>
        <time>2022-07-21T05:02:12Z</time>
      </trkpt>
      <trkpt lat="44.15664" lon="5.14844">
        <ele>614.7</ele>
        <time>2022-07-21T05:02:13Z</time>
      </trkpt>
      <trkpt lat="44.15665" lon="5.14845">
        <ele>614.8</ele>
        <time>2022-07-21T05:02:14Z</time>
      </trkpt>
      <trkpt lat="44.15666" lon="5.14847">
        <ele>614.9</ele>
        <time>2022-07-21T05:02:15Z</time>
      </trkpt>
      <trkpt lat="44.15667" lon="5.14848">
        <ele>615.1</ele>
        <time>2022-07-21T05:02:16Z</time>
      </trkpt>
      <trkpt lat="44.15668" lon="5.1485">
        <ele>615.2</ele>
        <time>2022-07-21T05:02:17Z</time>
      </trkpt>
      <trkpt lat="44.15668" lon="5.14851">
        <ele>615.3</ele>
        <time>2022-07-21T05:02:18Z</time>
      </trkpt>
      <trkpt lat="44.15669" lon="5.14853">
        <ele>615.4</ele>
        <time>2022-07-21T05:02:19Z</time>
      </trkpt>
      <trkpt lat="44.1567" lon="5.14854">
        <ele>615.6</ele>
        <time>2022-07-21T05:02:20Z</time>
      </trkpt>
      <trkpt lat="44.15671" lon="5.14856">
        <ele>615.7</ele>
        <time>2022-07-21T05:02:21Z</time>
      </trkpt>
      <trkpt lat="44.15672" lon="5.14857">
        <ele>615.8</ele>
        <time>2022-07-21T05:02:22Z</time>
      </trkpt>
      <trkpt lat="44.15673" lon="5.14858">
        <ele>616</ele>
        <time>2022-07-21T05:02:23Z</time>
      </trkpt>
      <trkpt lat="44.15674" lon="5.1486">
        <ele>616.1</ele>
        <time>2022-07-21T05:02:24Z</time>
      </trkpt>
      <trkpt lat="44.15675" lon="5.14862">
        <ele>616.3</ele>
        <time>2022-07-21T05:02:25Z</time>
      </trkpt>
      <trkpt lat="44.15676" lon="5.14863">
        <ele>616.4</ele>
        <time>2022-07-21T05:02:26Z</time>
      </trkpt>
      <trkpt lat="44.15677" lon="5.14865">
        <ele>616.6</ele>
        <time>2022-07-21T05:02:27Z</time>
      </trkpt>
      <trkpt lat="44.15678" lon="5.14867">
        <ele>616.7</ele>
        <time>2022-07-21T05:02:28Z</time>
      </trkpt>
      <trkpt lat="44.15679" lon="5.14868">
        <ele>616.9</ele>
        <time>2022-07-21T05:02:29Z</time>
      </trkpt>
      <trkpt lat="44.15681" lon="5.1487">
        <ele>617</ele>
        <time>2022-07-21T05:02:30Z</time>
      </trkpt>
      <trkpt lat="44.15682" lon="5.14871">
        <ele>617.2</ele>
        <time>2022-07-21T05:02:31Z</time>
      </trkpt>
      <trkpt lat="44.15683" lon="5.14873">
        <ele>617.3</ele>
        <time>2022-07-21T05:02:32Z</time>
      </trkpt>
      <trkpt lat="44.15684" lon="5.14874">
        <ele>617.5</ele>
        <time>2022-07-21T05:02:33Z</time>
      </trkpt>
      <trkpt lat="44.15685" lon="5.14876">
        <ele>617.6</ele>
        <time>2022-07-21T05:02:34Z</time>
      </trkpt>
      <trkpt lat="44.15686" lon="5.14878">
        <ele>617.8</ele>
        <time>2022-07-21T05:02:35Z</time>
      </trkpt>
      <trkpt lat="44.15687" lon="5.14879">
        <ele>618</ele>
        <time>2022-07-21T05:02:36Z</time>
      </trkpt>
      <trkpt lat="44.15688" lon="5.14881">
        <ele>618.1</ele>
        <time>2022-07-21T05:02:37Z</time>
      </trkpt>
      <trkpt lat="44.15689" lon="5.14882">
        <ele>618.3</ele>
        <time>2022-07-21T05:02:38Z</time>
      </trkpt>
      <trkpt lat="44.1569" lon="5.14884">
        <ele>618.4</ele>
        <time>2022-07-21T05:02:39Z</time>
      </trkpt>
      <trkpt lat="44.15691" lon="5.14886">
        <ele>618.6</ele>
        <time>2022-07-21T05:02:40Z</time>
      </trkpt>
      <trkpt lat="44.15692" lon="5.14887">
        <ele>618.8</ele>
        <time>2022-07-21T05:02:41Z</time>
      </trkpt>
      <trkpt lat="44.15693" lon="5.14889">
        <ele>618.9</ele>
        <time>2022-07-21T05:02:42Z</time>
      </trkpt>
      <trkpt lat="44.15695" lon="5.14891">
        <ele>619.1</ele>
        <time>2022-07-21T05:02:43Z</time>
      </trkpt>
      <trkpt lat="44.15695" lon="5.14892">
        <ele>619.2</ele>
        <time>2022-07-21T05:02:44Z</time>
      </trkpt>
      <trkpt lat="44.15696" lon="5.14893">
        <ele>619.3</ele>
        <time>2022-07-21T05:02:45Z</time>
      </trkpt>
      <trkpt lat="44.15696" lon="5.14895">
        <ele>619.4</ele>
        <time>2022-07-21T05:02:46Z</time>
      </trkpt>
      <trkpt lat="44.15697" lon="5.14897">
        <ele>619.6</ele>
        <time>2022-07-21T05:02:47Z</time>
      </trkpt>
      <trkpt lat="44.15698" lon="5.14899">
        <ele>619.8</ele>
        <time>2022-07-21T05:02:48Z</time>
      </trkpt>
      <trkpt lat="44.15699" lon="5.149">
        <ele>619.9</ele>
        <time>2022-07-21T05:02:49Z</time>
      </trkpt>
      <trkpt lat="44.157" lon="5.14901">
        <ele>619.9</ele>
        <time>2022-07-21T05:02:50Z</time>
      </trkpt>
      <trkpt lat="44.15701" lon="5.14904">
        <ele>620.2</ele>
        <time>2022-07-21T05:02:51Z</time>
      </trkpt>
      <trkpt lat="44.15701" lon="5.14905">
        <ele>620.2</ele>
        <time>2022-07-21T05:02:52Z</time>
      </trkpt>
      <trkpt lat="44.15702" lon="5.14906">
        <ele>620.3</ele>
        <time>2022-07-21T05:02:53Z</time>
      </trkpt>
      <trkpt lat="44.15703" lon="5.14909">
        <ele>620.5</ele>
        <time>2022-07-21T05:02:54Z</time>
      </trkpt>
      <trkpt lat="44.15703" lon="5.1491">
        <ele>620.6</ele>
        <time>2022-07-21T05:02:55Z</time>
      </trkpt>
      <trkpt lat="44.15704" lon="5.14911">
        <ele>620.7</ele>
        <time>2022-07-21T05:02:56Z</time>
      </trkpt>
      <trkpt lat="44.15705" lon="5.14913">
        <ele>620.8</ele>
        <time>2022-07-21T05:02:57Z</time>
      </trkpt>
      <trkpt lat="44.15706" lon="5.14914">
        <ele>621</ele>
        <time>2022-07-21T05:02:58Z</time>
      </trkpt>
      <trkpt lat="44.15707" lon="5.14917">
        <ele>621.2</ele>
        <time>2022-07-21T05:02:59Z</time>
      </trkpt>
      <trkpt lat="44.15708" lon="5.14918">
        <ele>621.3</ele>
        <time>2022-07-21T05:03:00Z</time>
      </trkpt>
      <trkpt lat="44.15708" lon="5.14918">
        <ele>621.4</ele>
        <time>2022-07-21T05:03:01Z</time>
      </trkpt>
      <trkpt lat="44.15709" lon="5.1492">
        <ele>621.5</ele>
        <time>2022-07-21T05:03:02Z</time>
      </trkpt>
      <trkpt lat="44.1571" lon="5.14922">
        <ele>621.7</ele>
        <time>2022-07-21T05:03:03Z</time>
      </trkpt>
      <trkpt lat="44.15711" lon="5.14924">
        <ele>621.8</ele>
        <time>2022-07-21T05:03:04Z</time>
      </trkpt>
      <trkpt lat="44.15712" lon="5.14925">
        <ele>621.9</ele>
        <time>2022-07-21T05:03:05Z</time>
      </trkpt>
      <trkpt lat="44.15713" lon="5.14927">
        <ele>622.1</ele>
        <time>2022-07-21T05:03:06Z</time>
      </trkpt>
      <trkpt lat="44.15714" lon="5.14929">
        <ele>622.2</ele>
        <time>2022-07-21T05:03:07Z</time>
      </trkpt>
      <trkpt lat="44.15714" lon="5.14931">
        <ele>622.4</ele>
        <time>2022-07-21T05:03:08Z</time>
      </trkpt>
      <trkpt lat="44.15715" lon="5.14933">
        <ele>622.6</ele>
        <time>2022-07-21T05:03:09Z</time>
      </trkpt>
      <trkpt lat="44.15715" lon="5.14935">
        <ele>622.7</ele>
        <time>2022-07-21T05:03:10Z</time>
      </trkpt>
      <trkpt lat="44.15716" lon="5.14937">
        <ele>622.8</ele>
        <time>2022-07-21T05:03:11Z</time>
      </trkpt>
      <trkpt lat="44.15716" lon="5.14939">
        <ele>623</ele>
        <time>2022-07-21T05:03:12Z</time>
      </trkpt>
      <trkpt lat="44.15717" lon="5.14941">
        <ele>623.1</ele>
        <time>2022-07-21T05:03:13Z</time>
      </trkpt>
      <trkpt lat="44.15717" lon="5.14943">
        <ele>623.2</ele>
        <time>2022-07-21T05:03:14Z</time>
      </trkpt>
      <trkpt lat="44.15718" lon="5.14945">
        <ele>623.4</ele>
        <time>2022-07-21T05:03:15Z</time>
      </trkpt>
      <trkpt lat="44.15718" lon="5.14947">
        <ele>623.6</ele>
        <time>2022-07-21T05:03:16Z</time>
      </trkpt>
      <trkpt lat="44.15719" lon="5.14948">
        <ele>623.7</ele>
        <time>2022-07-21T05:03:17Z</time>
      </trkpt>
      <trkpt lat="44.15719" lon="5.1495">
        <ele>623.8</ele>
        <time>2022-07-21T05:03:18Z</time>
      </trkpt>
      <trkpt lat="44.15719" lon="5.14952">
        <ele>623.9</ele>
        <time>2022-07-21T05:03:19Z</time>
      </trkpt>
      <trkpt lat="44.15719" lon="5.14954">
        <ele>624</ele>
        <time>2022-07-21T05:03:20Z</time>
      </trkpt>
      <trkpt lat="44.1572" lon="5.14956">
        <ele>624.2</ele>
        <time>2022-07-21T05:03:21Z</time>
      </trkpt>
      <trkpt lat="44.1572" lon="5.14958">
        <ele>624.3</ele>
        <time>2022-07-21T05:03:22Z</time>
      </trkpt>
      <trkpt lat="44.1572" lon="5.1496">
        <ele>624.5</ele>
        <time>2022-07-21T05:03:23Z</time>
      </trkpt>
      <trkpt lat="44.15721" lon="5.14962">
        <ele>624.6</ele>
        <time>2022-07-21T05:03:24Z</time>
      </trkpt>
      <trkpt lat="44.15721" lon="5.14964">
        <ele>624.8</ele>
        <time>2022-07-21T05:03:25Z</time>
      </trkpt>
      <trkpt lat="44.15721" lon="5.14965">
        <ele>624.9</ele>
        <time>2022-07-21T05:03:26Z</time>
      </trkpt>
      <trkpt lat="44.15722" lon="5.14968">
        <ele>625.1</ele>
        <time>2022-07-21T05:03:27Z</time>
      </trkpt>
      <trkpt lat="44.15722" lon="5.1497">
        <ele>625.2</ele>
        <time>2022-07-21T05:03:28Z</time>
      </trkpt>
      <trkpt lat="44.15722" lon="5.14971">
        <ele>625.3</ele>
        <time>2022-07-21T05:03:29Z</time>
      </trkpt>
      <trkpt lat="44.15722" lon="5.14973">
        <ele>625.5</ele>
        <time>2022-07-21T05:03:30Z</time>
      </trkpt>
      <trkpt lat="44.15722" lon="5.14975">
        <ele>625.6</ele>
        <time>2022-07-21T05:03:31Z</time>
      </trkpt>
      <trkpt lat="44.15723" lon="5.14977">
        <ele>625.8</ele>
        <time>2022-07-21T05:03:32Z</time>
      </trkpt>
      <trkpt lat="44.15723" lon="5.1498">
        <ele>625.9</ele>
        <time>2022-07-21T05:03:33Z</time>
      </trkpt>
      <trkpt lat="44.15723" lon="5.14982">
        <ele>626.1</ele>
        <time>2022-07-21T05:03:34Z</time>
      </trkpt>
      <trkpt lat="44.15723" lon="5.14984">
        <ele>626.3</ele>
        <time>2022-07-21T05:03:35Z</time>
      </trkpt>
      <trkpt lat="44.15723" lon="5.14986">
        <ele>626.4</ele>
        <time>2022-07-21T05:03:36Z</time>
      </trkpt>
      <trkpt lat="44.15723" lon="5.14988">
        <ele>626.6</ele>
        <time>2022-07-21T05:03:37Z</time>
      </trkpt>
      <trkpt lat="44.15723" lon="5.14989">
        <ele>626.7</ele>
        <time>2022-07-21T05:03:38Z</time>
      </trkpt>
      <trkpt lat="44.15723" lon="5.14991">
        <ele>626.8</ele>
        <time>2022-07-21T05:03:39Z</time>
      </trkpt>
      <trkpt lat="44.15723" lon="5.14993">
        <ele>626.9</ele>
        <time>2022-07-21T05:03:40Z</time>
      </trkpt>
      <trkpt lat="44.15723" lon="5.14996">
        <ele>627.2</ele>
        <time>2022-07-21T05:03:41Z</time>
      </trkpt>
      <trkpt lat="44.15723" lon="5.14997">
        <ele>627.3</ele>
        <time>2022-07-21T05:03:42Z</time>
      </trkpt>
      <trkpt lat="44.15723" lon="5.14998">
        <ele>627.4</ele>
        <time>2022-07-21T05:03:43Z</time>
      </trkpt>
      <trkpt lat="44.15723" lon="5.15">
        <ele>627.5</ele>
        <time>2022-07-21T05:03:44Z</time>
      </trkpt>
      <trkpt lat="44.15723" lon="5.15002">
        <ele>627.7</ele>
        <time>2022-07-21T05:03:45Z</time>
      </trkpt>
      <trkpt lat="44.15724" lon="5.15004">
        <ele>627.9</ele>
        <time>2022-07-21T05:03:46Z</time>
      </trkpt>
      <trkpt lat="44.15724" lon="5.15006">
        <ele>628</ele>
        <time>2022-07-21T05:03:47Z</time>
      </trkpt>
      <trkpt lat="44.15724" lon="5.15009">
        <ele>628.2</ele>
        <time>2022-07-21T05:03:48Z</time>
      </trkpt>
      <trkpt lat="44.15724" lon="5.1501">
        <ele>628.3</ele>
        <time>2022-07-21T05:03:49Z</time>
      </trkpt>
      <trkpt lat="44.15723" lon="5.15013">
        <ele>628.5</ele>
        <time>2022-07-21T05:03:50Z</time>
      </trkpt>
      <trkpt lat="44.15722" lon="5.15014">
        <ele>628.6</ele>
        <time>2022-07-21T05:03:51Z</time>
      </trkpt>
      <trkpt lat="44.15722" lon="5.15015">
        <ele>628.7</ele>
        <time>2022-07-21T05:03:52Z</time>
      </trkpt>
      <trkpt lat="44.15721" lon="5.15018">
        <ele>629</ele>
        <time>2022-07-21T05:03:53Z</time>
      </trkpt>
      <trkpt lat="44.15721" lon="5.15019">
        <ele>629</ele>
        <time>2022-07-21T05:03:54Z</time>
      </trkpt>
      <trkpt lat="44.15721" lon="5.1502">
        <ele>629.1</ele>
        <time>2022-07-21T05:03:55Z</time>
      </trkpt>
      <trkpt lat="44.15721" lon="5.15023">
        <ele>629.4</ele>
        <time>2022-07-21T05:03:56Z</time>
      </trkpt>
      <trkpt lat="44.1572" lon="5.15024">
        <ele>629.5</ele>
        <time>2022-07-21T05:03:57Z</time>
      </trkpt>
      <trkpt lat="44.1572" lon="5.15026">
        <ele>629.6</ele>
        <time>2022-07-21T05:03:58Z</time>
      </trkpt>
      <trkpt lat="44.1572" lon="5.15027">
        <ele>629.7</ele>
        <time>2022-07-21T05:03:59Z</time>
      </trkpt>
      <trkpt lat="44.1572" lon="5.15029">
        <ele>629.9</ele>
        <time>2022-07-21T05:04:00Z</time>
      </trkpt>
      <trkpt lat="44.15719" lon="5.15032">
        <ele>630.1</ele>
        <time>2022-07-21T05:04:01Z</time>
      </trkpt>
      <trkpt lat="44.15719" lon="5.15034">
        <ele>630.3</ele>
        <time>2022-07-21T05:04:02Z</time>
      </trkpt>
      <trkpt lat="44.15719" lon="5.15036">
        <ele>630.4</ele>
        <time>2022-07-21T05:04:03Z</time>
      </trkpt>
      <trkpt lat="44.15718" lon="5.15038">
        <ele>630.6</ele>
        <time>2022-07-21T05:04:04Z</time>
      </trkpt>
      <trkpt lat="44.15717" lon="5.1504">
        <ele>630.8</ele>
        <time>2022-07-21T05:04:05Z</time>
      </trkpt>
      <trkpt lat="44.15717" lon="5.15041">
        <ele>630.9</ele>
        <time>2022-07-21T05:04:06Z</time>
      </trkpt>
      <trkpt lat="44.15716" lon="5.15042">
        <ele>631</ele>
        <time>2022-07-21T05:04:07Z</time>
      </trkpt>
      <trkpt lat="44.15716" lon="5.15044">
        <ele>631.2</ele>
        <time>2022-07-21T05:04:08Z</time>
      </trkpt>
      <trkpt lat="44.15716" lon="5.15046">
        <ele>631.4</ele>
        <time>2022-07-21T05:04:09Z</time>
      </trkpt>
      <trkpt lat="44.15715" lon="5.15048">
        <ele>631.6</ele>
        <time>2022-07-21T05:04:10Z</time>
      </trkpt>
      <trkpt lat="44.15715" lon="5.15051">
        <ele>631.8</ele>
        <time>2022-07-21T05:04:11Z</time>
      </trkpt>
      <trkpt lat="44.15715" lon="5.15053">
        <ele>632</ele>
        <time>2022-07-21T05:04:12Z</time>
      </trkpt>
      <trkpt lat="44.15715" lon="5.15056">
        <ele>632.2</ele>
        <time>2022-07-21T05:04:13Z</time>
      </trkpt>
      <trkpt lat="44.15715" lon="5.15058">
        <ele>632.4</ele>
        <time>2022-07-21T05:04:14Z</time>
      </trkpt>
      <trkpt lat="44.15715" lon="5.1506">
        <ele>632.5</ele>
        <time>2022-07-21T05:04:15Z</time>
      </trkpt>
      <trkpt lat="44.15715" lon="5.15062">
        <ele>632.7</ele>
        <time>2022-07-21T05:04:16Z</time>
      </trkpt>
      <trkpt lat="44.15714" lon="5.15064">
        <ele>632.9</ele>
        <time>2022-07-21T05:04:17Z</time>
      </trkpt>
      <trkpt lat="44.15714" lon="5.15066">
        <ele>633</ele>
        <time>2022-07-21T05:04:18Z</time>
      </trkpt>
      <trkpt lat="44.15714" lon="5.15068">
        <ele>633.2</ele>
        <time>2022-07-21T05:04:19Z</time>
      </trkpt>
      <trkpt lat="44.15715" lon="5.15071">
        <ele>633.4</ele>
        <time>2022-07-21T05:04:20Z</time>
      </trkpt>
      <trkpt lat="44.15715" lon="5.15073">
        <ele>633.6</ele>
        <time>2022-07-21T05:04:21Z</time>
      </trkpt>
      <trkpt lat="44.15716" lon="5.15075">
        <ele>633.8</ele>
        <time>2022-07-21T05:04:22Z</time>
      </trkpt>
      <trkpt lat="44.15716" lon="5.15077">
        <ele>634</ele>
        <time>2022-07-21T05:04:23Z</time>
      </trkpt>
      <trkpt lat="44.15717" lon="5.15081">
        <ele>634.3</ele>
        <time>2022-07-21T05:04:24Z</time>
      </trkpt>
      <trkpt lat="44.15717" lon="5.15082">
        <ele>634.4</ele>
        <time>2022-07-21T05:04:25Z</time>
      </trkpt>
      <trkpt lat="44.15718" lon="5.15084">
        <ele>634.7</ele>
        <time>2022-07-21T05:04:26Z</time>
      </trkpt>
      <trkpt lat="44.15719" lon="5.15086">
        <ele>634.9</ele>
        <time>2022-07-21T05:04:27Z</time>
      </trkpt>
      <trkpt lat="44.15719" lon="5.15089">
        <ele>635</ele>
        <time>2022-07-21T05:04:28Z</time>
      </trkpt>
      <trkpt lat="44.1572" lon="5.15091">
        <ele>635.2</ele>
        <time>2022-07-21T05:04:29Z</time>
      </trkpt>
      <trkpt lat="44.1572" lon="5.15093">
        <ele>635.4</ele>
        <time>2022-07-21T05:04:30Z</time>
      </trkpt>
      <trkpt lat="44.1572" lon="5.15095">
        <ele>635.6</ele>
        <time>2022-07-21T05:04:31Z</time>
      </trkpt>
      <trkpt lat="44.15721" lon="5.15097">
        <ele>635.8</ele>
        <time>2022-07-21T05:04:32Z</time>
      </trkpt>
      <trkpt lat="44.15721" lon="5.15099">
        <ele>636</ele>
        <time>2022-07-21T05:04:33Z</time>
      </trkpt>
      <trkpt lat="44.15722" lon="5.15102">
        <ele>636.1</ele>
        <time>2022-07-21T05:04:34Z</time>
      </trkpt>
      <trkpt lat="44.15722" lon="5.15104">
        <ele>636.3</ele>
        <time>2022-07-21T05:04:35Z</time>
      </trkpt>
      <trkpt lat="44.15723" lon="5.15106">
        <ele>636.5</ele>
        <time>2022-07-21T05:04:36Z</time>
      </trkpt>
      <trkpt lat="44.15723" lon="5.15108">
        <ele>636.6</ele>
        <time>2022-07-21T05:04:37Z</time>
      </trkpt>
      <trkpt lat="44.15724" lon="5.1511">
        <ele>636.8</ele>
        <time>2022-07-21T05:04:38Z</time>
      </trkpt>
      <trkpt lat="44.15724" lon="5.15112">
        <ele>636.9</ele>
        <time>2022-07-21T05:04:39Z</time>
      </trkpt>
      <trkpt lat="44.15725" lon="5.15113">
        <ele>637</ele>
        <time>2022-07-21T05:04:40Z</time>
      </trkpt>
      <trkpt lat="44.15726" lon="5.15116">
        <ele>637.3</ele>
        <time>2022-07-21T05:04:41Z</time>
      </trkpt>
      <trkpt lat="44.15726" lon="5.15118">
        <ele>637.4</ele>
        <time>2022-07-21T05:04:42Z</time>
      </trkpt>
      <trkpt lat="44.15726" lon="5.1512">
        <ele>637.5</ele>
        <time>2022-07-21T05:04:43Z</time>
      </trkpt>
      <trkpt lat="44.15727" lon="5.15122">
        <ele>637.7</ele>
        <time>2022-07-21T05:04:44Z</time>
      </trkpt>
      <trkpt lat="44.15727" lon="5.15124">
        <ele>637.8</ele>
        <time>2022-07-21T05:04:45Z</time>
      </trkpt>
      <trkpt lat="44.15728" lon="5.15126">
        <ele>637.9</ele>
        <time>2022-07-21T05:04:46Z</time>
      </trkpt>
      <trkpt lat="44.15729" lon="5.15128">
        <ele>638.1</ele>
        <time>2022-07-21T05:04:47Z</time>
      </trkpt>
      <trkpt lat="44.15729" lon="5.1513">
        <ele>638.2</ele>
        <time>2022-07-21T05:04:48Z</time>
      </trkpt>
      <trkpt lat="44.1573" lon="5.15132">
        <ele>638.4</ele>
        <time>2022-07-21T05:04:49Z</time>
      </trkpt>
      <trkpt lat="44.1573" lon="5.15134">
        <ele>638.5</ele>
        <time>2022-07-21T05:04:50Z</time>
      </trkpt>
      <trkpt lat="44.15731" lon="5.15136">
        <ele>638.6</ele>
        <time>2022-07-21T05:04:51Z</time>
      </trkpt>
      <trkpt lat="44.15731" lon="5.15138">
        <ele>638.8</ele>
        <time>2022-07-21T05:04:52Z</time>
      </trkpt>
      <trkpt lat="44.15732" lon="5.1514">
        <ele>638.9</ele>
        <time>2022-07-21T05:04:53Z</time>
      </trkpt>
      <trkpt lat="44.15733" lon="5.15142">
        <ele>639.1</ele>
        <time>2022-07-21T05:04:54Z</time>
      </trkpt>
      <trkpt lat="44.15733" lon="5.15144">
        <ele>639.2</ele>
        <time>2022-07-21T05:04:55Z</time>
      </trkpt>
      <trkpt lat="44.15734" lon="5.15146">
        <ele>639.3</ele>
        <time>2022-07-21T05:04:56Z</time>
      </trkpt>
      <trkpt lat="44.15735" lon="5.15148">
        <ele>639.5</ele>
        <time>2022-07-21T05:04:57Z</time>
      </trkpt>
      <trkpt lat="44.15735" lon="5.15151">
        <ele>639.6</ele>
        <time>2022-07-21T05:04:58Z</time>
      </trkpt>
      <trkpt lat="44.15736" lon="5.15153">
        <ele>639.8</ele>
        <time>2022-07-21T05:04:59Z</time>
      </trkpt>
      <trkpt lat="44.15736" lon="5.15154">
        <ele>639.9</ele>
        <time>2022-07-21T05:05:00Z</time>
      </trkpt>
      <trkpt lat="44.15737" lon="5.15156">
        <ele>640</ele>
        <time>2022-07-21T05:05:01Z</time>
      </trkpt>
      <trkpt lat="44.15738" lon="5.15158">
        <ele>640.1</ele>
        <time>2022-07-21T05:05:02Z</time>
      </trkpt>
      <trkpt lat="44.15738" lon="5.1516">
        <ele>640.2</ele>
        <time>2022-07-21T05:05:03Z</time>
      </trkpt>
      <trkpt lat="44.15739" lon="5.15162">
        <ele>640.4</ele>
        <time>2022-07-21T05:05:04Z</time>
      </trkpt>
      <trkpt lat="44.15739" lon="5.15164">
        <ele>640.5</ele>
        <time>2022-07-21T05:05:05Z</time>
      </trkpt>
      <trkpt lat="44.1574" lon="5.15166">
        <ele>640.6</ele>
        <time>2022-07-21T05:05:06Z</time>
      </trkpt>
      <trkpt lat="44.1574" lon="5.15168">
        <ele>640.8</ele>
        <time>2022-07-21T05:05:07Z</time>
      </trkpt>
      <trkpt lat="44.15741" lon="5.1517">
        <ele>640.9</ele>
        <time>2022-07-21T05:05:08Z</time>
      </trkpt>
      <trkpt lat="44.15742" lon="5.15172">
        <ele>641.1</ele>
        <time>2022-07-21T05:05:09Z</time>
      </trkpt>
      <trkpt lat="44.15742" lon="5.15174">
        <ele>641.2</ele>
        <time>2022-07-21T05:05:10Z</time>
      </trkpt>
      <trkpt lat="44.15743" lon="5.15176">
        <ele>641.4</ele>
        <time>2022-07-21T05:05:11Z</time>
      </trkpt>
      <trkpt lat="44.15743" lon="5.15178">
        <ele>641.5</ele>
        <time>2022-07-21T05:05:12Z</time>
      </trkpt>
      <trkpt lat="44.15744" lon="5.1518">
        <ele>641.7</ele>
        <time>2022-07-21T05:05:13Z</time>
      </trkpt>
      <trkpt lat="44.15745" lon="5.15182">
        <ele>641.8</ele>
        <time>2022-07-21T05:05:14Z</time>
      </trkpt>
      <trkpt lat="44.15745" lon="5.15184">
        <ele>642</ele>
        <time>2022-07-21T05:05:15Z</time>
      </trkpt>
      <trkpt lat="44.15746" lon="5.15186">
        <ele>642.1</ele>
        <time>2022-07-21T05:05:16Z</time>
      </trkpt>
      <trkpt lat="44.15747" lon="5.15188">
        <ele>642.3</ele>
        <time>2022-07-21T05:05:17Z</time>
      </trkpt>
      <trkpt lat="44.15747" lon="5.1519">
        <ele>642.4</ele>
        <time>2022-07-21T05:05:18Z</time>
      </trkpt>
      <trkpt lat="44.15748" lon="5.15191">
        <ele>642.5</ele>
        <time>2022-07-21T05:05:19Z</time>
      </trkpt>
      <trkpt lat="44.15748" lon="5.15193">
        <ele>642.7</ele>
        <time>2022-07-21T05:05:20Z</time>
      </trkpt>
      <trkpt lat="44.15749" lon="5.15195">
        <ele>642.8</ele>
        <time>2022-07-21T05:05:21Z</time>
      </trkpt>
      <trkpt lat="44.1575" lon="5.15198">
        <ele>643</ele>
        <time>2022-07-21T05:05:22Z</time>
      </trkpt>
      <trkpt lat="44.1575" lon="5.15199">
        <ele>643.1</ele>
        <time>2022-07-21T05:05:23Z</time>
      </trkpt>
      <trkpt lat="44.15751" lon="5.15201">
        <ele>643.3</ele>
        <time>2022-07-21T05:05:24Z</time>
      </trkpt>
      <trkpt lat="44.15752" lon="5.15203">
        <ele>643.4</ele>
        <time>2022-07-21T05:05:25Z</time>
      </trkpt>
      <trkpt lat="44.15753" lon="5.15205">
        <ele>643.6</ele>
        <time>2022-07-21T05:05:26Z</time>
      </trkpt>
      <trkpt lat="44.15754" lon="5.15209">
        <ele>643.8</ele>
        <time>2022-07-21T05:05:27Z</time>
      </trkpt>
      <trkpt lat="44.15755" lon="5.1521">
        <ele>643.9</ele>
        <time>2022-07-21T05:05:28Z</time>
      </trkpt>
      <trkpt lat="44.15755" lon="5.15212">
        <ele>644.1</ele>
        <time>2022-07-21T05:05:29Z</time>
      </trkpt>
      <trkpt lat="44.15756" lon="5.15214">
        <ele>644.3</ele>
        <time>2022-07-21T05:05:30Z</time>
      </trkpt>
      <trkpt lat="44.15757" lon="5.15216">
        <ele>644.4</ele>
        <time>2022-07-21T05:05:31Z</time>
      </trkpt>
      <trkpt lat="44.15758" lon="5.15218">
        <ele>644.6</ele>
        <time>2022-07-21T05:05:32Z</time>
      </trkpt>
      <trkpt lat="44.15759" lon="5.1522">
        <ele>644.8</ele>
        <time>2022-07-21T05:05:33Z</time>
      </trkpt>
      <trkpt lat="44.1576" lon="5.15222">
        <ele>644.9</ele>
        <time>2022-07-21T05:05:34Z</time>
      </trkpt>
      <trkpt lat="44.1576" lon="5.15224">
        <ele>645.1</ele>
        <time>2022-07-21T05:05:35Z</time>
      </trkpt>
      <trkpt lat="44.15761" lon="5.15226">
        <ele>645.2</ele>
        <time>2022-07-21T05:05:36Z</time>
      </trkpt>
      <trkpt lat="44.15762" lon="5.15228">
        <ele>645.4</ele>
        <time>2022-07-21T05:05:37Z</time>
      </trkpt>
      <trkpt lat="44.15763" lon="5.1523">
        <ele>645.6</ele>
        <time>2022-07-21T05:05:38Z</time>
      </trkpt>
      <trkpt lat="44.15764" lon="5.15232">
        <ele>645.7</ele>
        <time>2022-07-21T05:05:39Z</time>
      </trkpt>
      <trkpt lat="44.15765" lon="5.15233">
        <ele>645.9</ele>
        <time>2022-07-21T05:05:40Z</time>
      </trkpt>
      <trkpt lat="44.15766" lon="5.15235">
        <ele>646.1</ele>
        <time>2022-07-21T05:05:41Z</time>
      </trkpt>
      <trkpt lat="44.15766" lon="5.15236">
        <ele>646.2</ele>
        <time>2022-07-21T05:05:42Z</time>
      </trkpt>
      <trkpt lat="44.15767" lon="5.15238">
        <ele>646.4</ele>
        <time>2022-07-21T05:05:43Z</time>
      </trkpt>
      <trkpt lat="44.15768" lon="5.1524">
        <ele>646.5</ele>
        <time>2022-07-21T05:05:44Z</time>
      </trkpt>
      <trkpt lat="44.15769" lon="5.15241">
        <ele>646.7</ele>
        <time>2022-07-21T05:05:45Z</time>
      </trkpt>
      <trkpt lat="44.1577" lon="5.15243">
        <ele>646.9</ele>
        <time>2022-07-21T05:05:46Z</time>
      </trkpt>
      <trkpt lat="44.15772" lon="5.15244">
        <ele>647.1</ele>
        <time>2022-07-21T05:05:47Z</time>
      </trkpt>
      <trkpt lat="44.15773" lon="5.15246">
        <ele>647.2</ele>
        <time>2022-07-21T05:05:48Z</time>
      </trkpt>
      <trkpt lat="44.15774" lon="5.15248">
        <ele>647.4</ele>
        <time>2022-07-21T05:05:49Z</time>
      </trkpt>
      <trkpt lat="44.15775" lon="5.1525">
        <ele>647.6</ele>
        <time>2022-07-21T05:05:50Z</time>
      </trkpt>
      <trkpt lat="44.15776" lon="5.15251">
        <ele>647.7</ele>
        <time>2022-07-21T05:05:51Z</time>
      </trkpt>
      <trkpt lat="44.15777" lon="5.15253">
        <ele>647.9</ele>
        <time>2022-07-21T05:05:52Z</time>
      </trkpt>
      <trkpt lat="44.15778" lon="5.15255">
        <ele>648.1</ele>
        <time>2022-07-21T05:05:53Z</time>
      </trkpt>
      <trkpt lat="44.15779" lon="5.15256">
        <ele>648.2</ele>
        <time>2022-07-21T05:05:54Z</time>
      </trkpt>
      <trkpt lat="44.1578" lon="5.15258">
        <ele>648.4</ele>
        <time>2022-07-21T05:05:55Z</time>
      </trkpt>
      <trkpt lat="44.15781" lon="5.15259">
        <ele>648.6</ele>
        <time>2022-07-21T05:05:56Z</time>
      </trkpt>
      <trkpt lat="44.15782" lon="5.15261">
        <ele>648.7</ele>
        <time>2022-07-21T05:05:57Z</time>
      </trkpt>
      <trkpt lat="44.15783" lon="5.15262">
        <ele>648.9</ele>
        <time>2022-07-21T05:05:58Z</time>
      </trkpt>
      <trkpt lat="44.15784" lon="5.15264">
        <ele>649.1</ele>
        <time>2022-07-21T05:05:59Z</time>
      </trkpt>
      <trkpt lat="44.15785" lon="5.15265">
        <ele>649.3</ele>
        <time>2022-07-21T05:06:00Z</time>
      </trkpt>
      <trkpt lat="44.15787" lon="5.15266">
        <ele>649.4</ele>
        <time>2022-07-21T05:06:01Z</time>
      </trkpt>
      <trkpt lat="44.15788" lon="5.15267">
        <ele>649.6</ele>
        <time>2022-07-21T05:06:02Z</time>
      </trkpt>
      <trkpt lat="44.15789" lon="5.15269">
        <ele>649.7</ele>
        <time>2022-07-21T05:06:03Z</time>
      </trkpt>
      <trkpt lat="44.1579" lon="5.1527">
        <ele>649.9</ele>
        <time>2022-07-21T05:06:04Z</time>
      </trkpt>
      <trkpt lat="44.15792" lon="5.15271">
        <ele>650.1</ele>
        <time>2022-07-21T05:06:05Z</time>
      </trkpt>
      <trkpt lat="44.15792" lon="5.15273">
        <ele>650.2</ele>
        <time>2022-07-21T05:06:06Z</time>
      </trkpt>
      <trkpt lat="44.15793" lon="5.15274">
        <ele>650.3</ele>
        <time>2022-07-21T05:06:07Z</time>
      </trkpt>
      <trkpt lat="44.15794" lon="5.15276">
        <ele>650.5</ele>
        <time>2022-07-21T05:06:08Z</time>
      </trkpt>
      <trkpt lat="44.15796" lon="5.15278">
        <ele>650.7</ele>
        <time>2022-07-21T05:06:09Z</time>
      </trkpt>
      <trkpt lat="44.15796" lon="5.15279">
        <ele>650.8</ele>
        <time>2022-07-21T05:06:10Z</time>
      </trkpt>
      <trkpt lat="44.15797" lon="5.1528">
        <ele>650.9</ele>
        <time>2022-07-21T05:06:11Z</time>
      </trkpt>
      <trkpt lat="44.15799" lon="5.15282">
        <ele>651.1</ele>
        <time>2022-07-21T05:06:12Z</time>
      </trkpt>
      <trkpt lat="44.15799" lon="5.15283">
        <ele>651.2</ele>
        <time>2022-07-21T05:06:13Z</time>
      </trkpt>
      <trkpt lat="44.158" lon="5.15283">
        <ele>651.3</ele>
        <time>2022-07-21T05:06:14Z</time>
      </trkpt>
      <trkpt lat="44.15802" lon="5.15285">
        <ele>651.5</ele>
        <time>2022-07-21T05:06:15Z</time>
      </trkpt>
      <trkpt lat="44.15802" lon="5.15286">
        <ele>651.6</ele>
        <time>2022-07-21T05:06:16Z</time>
      </trkpt>
      <trkpt lat="44.15803" lon="5.15287">
        <ele>651.7</ele>
        <time>2022-07-21T05:06:17Z</time>
      </trkpt>
      <trkpt lat="44.15804" lon="5.15288">
        <ele>651.9</ele>
        <time>2022-07-21T05:06:18Z</time>
      </trkpt>
      <trkpt lat="44.15805" lon="5.1529">
        <ele>652.1</ele>
        <time>2022-07-21T05:06:19Z</time>
      </trkpt>
      <trkpt lat="44.15806" lon="5.15291">
        <ele>652.2</ele>
        <time>2022-07-21T05:06:20Z</time>
      </trkpt>
      <trkpt lat="44.15808" lon="5.15293">
        <ele>652.4</ele>
        <time>2022-07-21T05:06:21Z</time>
      </trkpt>
      <trkpt lat="44.15809" lon="5.15294">
        <ele>652.5</ele>
        <time>2022-07-21T05:06:22Z</time>
      </trkpt>
      <trkpt lat="44.1581" lon="5.15295">
        <ele>652.7</ele>
        <time>2022-07-21T05:06:23Z</time>
      </trkpt>
      <trkpt lat="44.15811" lon="5.15297">
        <ele>652.8</ele>
        <time>2022-07-21T05:06:24Z</time>
      </trkpt>
      <trkpt lat="44.15812" lon="5.15298">
        <ele>653</ele>
        <time>2022-07-21T05:06:25Z</time>
      </trkpt>
      <trkpt lat="44.15814" lon="5.15299">
        <ele>653.2</ele>
        <time>2022-07-21T05:06:26Z</time>
      </trkpt>
      <trkpt lat="44.15815" lon="5.153">
        <ele>653.3</ele>
        <time>2022-07-21T05:06:27Z</time>
      </trkpt>
      <trkpt lat="44.15816" lon="5.15302">
        <ele>653.5</ele>
        <time>2022-07-21T05:06:28Z</time>
      </trkpt>
      <trkpt lat="44.15817" lon="5.15303">
        <ele>653.6</ele>
        <time>2022-07-21T05:06:29Z</time>
      </trkpt>
      <trkpt lat="44.15818" lon="5.15304">
        <ele>653.8</ele>
        <time>2022-07-21T05:06:30Z</time>
      </trkpt>
      <trkpt lat="44.1582" lon="5.15306">
        <ele>653.9</ele>
        <time>2022-07-21T05:06:31Z</time>
      </trkpt>
      <trkpt lat="44.15821" lon="5.15307">
        <ele>654.1</ele>
        <time>2022-07-21T05:06:32Z</time>
      </trkpt>
      <trkpt lat="44.15822" lon="5.15309">
        <ele>654.2</ele>
        <time>2022-07-21T05:06:33Z</time>
      </trkpt>
      <trkpt lat="44.15822" lon="5.1531">
        <ele>654.4</ele>
        <time>2022-07-21T05:06:34Z</time>
      </trkpt>
      <trkpt lat="44.15823" lon="5.15312">
        <ele>654.5</ele>
        <time>2022-07-21T05:06:35Z</time>
      </trkpt>
      <trkpt lat="44.15824" lon="5.15313">
        <ele>654.7</ele>
        <time>2022-07-21T05:06:36Z</time>
      </trkpt>
      <trkpt lat="44.15826" lon="5.15315">
        <ele>654.9</ele>
        <time>2022-07-21T05:06:37Z</time>
      </trkpt>
      <trkpt lat="44.15827" lon="5.15317">
        <ele>655</ele>
        <time>2022-07-21T05:06:38Z</time>
      </trkpt>
      <trkpt lat="44.15828" lon="5.15318">
        <ele>655.2</ele>
        <time>2022-07-21T05:06:39Z</time>
      </trkpt>
      <trkpt lat="44.1583" lon="5.15321">
        <ele>655.5</ele>
        <time>2022-07-21T05:06:40Z</time>
      </trkpt>
      <trkpt lat="44.15831" lon="5.15322">
        <ele>655.6</ele>
        <time>2022-07-21T05:06:41Z</time>
      </trkpt>
      <trkpt lat="44.15831" lon="5.15324">
        <ele>655.7</ele>
        <time>2022-07-21T05:06:42Z</time>
      </trkpt>
      <trkpt lat="44.15832" lon="5.15326">
        <ele>655.9</ele>
        <time>2022-07-21T05:06:43Z</time>
      </trkpt>
      <trkpt lat="44.15833" lon="5.15327">
        <ele>656</ele>
        <time>2022-07-21T05:06:44Z</time>
      </trkpt>
      <trkpt lat="44.15834" lon="5.15329">
        <ele>656.2</ele>
        <time>2022-07-21T05:06:45Z</time>
      </trkpt>
      <trkpt lat="44.15835" lon="5.15331">
        <ele>656.3</ele>
        <time>2022-07-21T05:06:46Z</time>
      </trkpt>
      <trkpt lat="44.15836" lon="5.15332">
        <ele>656.5</ele>
        <time>2022-07-21T05:06:47Z</time>
      </trkpt>
      <trkpt lat="44.15837" lon="5.15334">
        <ele>656.6</ele>
        <time>2022-07-21T05:06:48Z</time>
      </trkpt>
      <trkpt lat="44.15838" lon="5.15335">
        <ele>656.8</ele>
        <time>2022-07-21T05:06:49Z</time>
      </trkpt>
      <trkpt lat="44.15839" lon="5.15337">
        <ele>656.9</ele>
        <time>2022-07-21T05:06:50Z</time>
      </trkpt>
      <trkpt lat="44.1584" lon="5.15339">
        <ele>657.2</ele>
        <time>2022-07-21T05:06:51Z</time>
      </trkpt>
      <trkpt lat="44.15841" lon="5.1534">
        <ele>657.3</ele>
        <time>2022-07-21T05:06:52Z</time>
      </trkpt>
      <trkpt lat="44.15842" lon="5.15342">
        <ele>657.5</ele>
        <time>2022-07-21T05:06:53Z</time>
      </trkpt>
      <trkpt lat="44.15843" lon="5.15343">
        <ele>657.6</ele>
        <time>2022-07-21T05:06:54Z</time>
      </trkpt>
      <trkpt lat="44.15844" lon="5.15345">
        <ele>657.8</ele>
        <time>2022-07-21T05:06:55Z</time>
      </trkpt>
      <trkpt lat="44.15845" lon="5.15347">
        <ele>657.9</ele>
        <time>2022-07-21T05:06:56Z</time>
      </trkpt>
      <trkpt lat="44.15845" lon="5.15348">
        <ele>658.1</ele>
        <time>2022-07-21T05:06:57Z</time>
      </trkpt>
      <trkpt lat="44.15846" lon="5.1535">
        <ele>658.2</ele>
        <time>2022-07-21T05:06:58Z</time>
      </trkpt>
      <trkpt lat="44.15847" lon="5.15352">
        <ele>658.4</ele>
        <time>2022-07-21T05:06:59Z</time>
      </trkpt>
      <trkpt lat="44.15847" lon="5.15354">
        <ele>658.5</ele>
        <time>2022-07-21T05:07:00Z</time>
      </trkpt>
      <trkpt lat="44.15848" lon="5.15355">
        <ele>658.7</ele>
        <time>2022-07-21T05:07:01Z</time>
      </trkpt>
      <trkpt lat="44.15849" lon="5.15357">
        <ele>658.8</ele>
        <time>2022-07-21T05:07:02Z</time>
      </trkpt>
      <trkpt lat="44.1585" lon="5.15358">
        <ele>659</ele>
        <time>2022-07-21T05:07:03Z</time>
      </trkpt>
      <trkpt lat="44.15851" lon="5.1536">
        <ele>659.1</ele>
        <time>2022-07-21T05:07:04Z</time>
      </trkpt>
      <trkpt lat="44.15851" lon="5.15362">
        <ele>659.3</ele>
        <time>2022-07-21T05:07:05Z</time>
      </trkpt>
      <trkpt lat="44.15852" lon="5.15363">
        <ele>659.4</ele>
        <time>2022-07-21T05:07:06Z</time>
      </trkpt>
      <trkpt lat="44.15853" lon="5.15365">
        <ele>659.6</ele>
        <time>2022-07-21T05:07:07Z</time>
      </trkpt>
      <trkpt lat="44.15853" lon="5.15367">
        <ele>659.7</ele>
        <time>2022-07-21T05:07:08Z</time>
      </trkpt>
      <trkpt lat="44.15854" lon="5.15369">
        <ele>659.9</ele>
        <time>2022-07-21T05:07:09Z</time>
      </trkpt>
      <trkpt lat="44.15855" lon="5.15371">
        <ele>660.1</ele>
        <time>2022-07-21T05:07:10Z</time>
      </trkpt>
      <trkpt lat="44.15856" lon="5.15373">
        <ele>660.3</ele>
        <time>2022-07-21T05:07:11Z</time>
      </trkpt>
      <trkpt lat="44.15858" lon="5.15374">
        <ele>660.5</ele>
        <time>2022-07-21T05:07:12Z</time>
      </trkpt>
      <trkpt lat="44.15858" lon="5.15376">
        <ele>660.6</ele>
        <time>2022-07-21T05:07:13Z</time>
      </trkpt>
      <trkpt lat="44.15859" lon="5.15378">
        <ele>660.8</ele>
        <time>2022-07-21T05:07:14Z</time>
      </trkpt>
      <trkpt lat="44.1586" lon="5.15379">
        <ele>661</ele>
        <time>2022-07-21T05:07:15Z</time>
      </trkpt>
      <trkpt lat="44.15861" lon="5.15381">
        <ele>661.2</ele>
        <time>2022-07-21T05:07:16Z</time>
      </trkpt>
      <trkpt lat="44.15862" lon="5.15383">
        <ele>661.3</ele>
        <time>2022-07-21T05:07:17Z</time>
      </trkpt>
      <trkpt lat="44.15863" lon="5.15385">
        <ele>661.5</ele>
        <time>2022-07-21T05:07:18Z</time>
      </trkpt>
      <trkpt lat="44.15864" lon="5.15386">
        <ele>661.7</ele>
        <time>2022-07-21T05:07:19Z</time>
      </trkpt>
      <trkpt lat="44.15865" lon="5.15388">
        <ele>661.8</ele>
        <time>2022-07-21T05:07:20Z</time>
      </trkpt>
      <trkpt lat="44.15866" lon="5.15389">
        <ele>662</ele>
        <time>2022-07-21T05:07:21Z</time>
      </trkpt>
      <trkpt lat="44.15867" lon="5.15391">
        <ele>662.2</ele>
        <time>2022-07-21T05:07:22Z</time>
      </trkpt>
      <trkpt lat="44.15868" lon="5.15392">
        <ele>662.3</ele>
        <time>2022-07-21T05:07:23Z</time>
      </trkpt>
      <trkpt lat="44.15869" lon="5.15394">
        <ele>662.5</ele>
        <time>2022-07-21T05:07:24Z</time>
      </trkpt>
      <trkpt lat="44.1587" lon="5.15395">
        <ele>662.6</ele>
        <time>2022-07-21T05:07:25Z</time>
      </trkpt>
      <trkpt lat="44.15871" lon="5.15397">
        <ele>662.8</ele>
        <time>2022-07-21T05:07:26Z</time>
      </trkpt>
      <trkpt lat="44.15872" lon="5.15398">
        <ele>663</ele>
        <time>2022-07-21T05:07:27Z</time>
      </trkpt>
      <trkpt lat="44.15873" lon="5.15399">
        <ele>663.1</ele>
        <time>2022-07-21T05:07:28Z</time>
      </trkpt>
      <trkpt lat="44.15874" lon="5.15401">
        <ele>663.3</ele>
        <time>2022-07-21T05:07:29Z</time>
      </trkpt>
      <trkpt lat="44.15876" lon="5.15402">
        <ele>663.5</ele>
        <time>2022-07-21T05:07:30Z</time>
      </trkpt>
      <trkpt lat="44.15877" lon="5.15403">
        <ele>663.6</ele>
        <time>2022-07-21T05:07:31Z</time>
      </trkpt>
      <trkpt lat="44.15879" lon="5.15404">
        <ele>663.8</ele>
        <time>2022-07-21T05:07:32Z</time>
      </trkpt>
      <trkpt lat="44.1588" lon="5.15405">
        <ele>663.9</ele>
        <time>2022-07-21T05:07:33Z</time>
      </trkpt>
      <trkpt lat="44.15881" lon="5.15406">
        <ele>664.1</ele>
        <time>2022-07-21T05:07:34Z</time>
      </trkpt>
      <trkpt lat="44.15882" lon="5.15407">
        <ele>664.2</ele>
        <time>2022-07-21T05:07:35Z</time>
      </trkpt>
      <trkpt lat="44.15884" lon="5.15408">
        <ele>664.4</ele>
        <time>2022-07-21T05:07:36Z</time>
      </trkpt>
      <trkpt lat="44.15885" lon="5.15408">
        <ele>664.5</ele>
        <time>2022-07-21T05:07:37Z</time>
      </trkpt>
      <trkpt lat="44.15886" lon="5.15409">
        <ele>664.7</ele>
        <time>2022-07-21T05:07:38Z</time>
      </trkpt>
      <trkpt lat="44.15888" lon="5.15409">
        <ele>664.8</ele>
        <time>2022-07-21T05:07:39Z</time>
      </trkpt>
      <trkpt lat="44.1589" lon="5.1541">
        <ele>665</ele>
        <time>2022-07-21T05:07:40Z</time>
      </trkpt>
      <trkpt lat="44.15891" lon="5.1541">
        <ele>665.1</ele>
        <time>2022-07-21T05:07:41Z</time>
      </trkpt>
      <trkpt lat="44.15891" lon="5.1541">
        <ele>665.2</ele>
        <time>2022-07-21T05:07:42Z</time>
      </trkpt>
      <trkpt lat="44.15893" lon="5.1541">
        <ele>665.3</ele>
        <time>2022-07-21T05:07:43Z</time>
      </trkpt>
      <trkpt lat="44.15894" lon="5.1541">
        <ele>665.4</ele>
        <time>2022-07-21T05:07:44Z</time>
      </trkpt>
      <trkpt lat="44.15896" lon="5.1541">
        <ele>665.6</ele>
        <time>2022-07-21T05:07:45Z</time>
      </trkpt>
      <trkpt lat="44.15897" lon="5.1541">
        <ele>665.7</ele>
        <time>2022-07-21T05:07:46Z</time>
      </trkpt>
      <trkpt lat="44.15899" lon="5.1541">
        <ele>665.8</ele>
        <time>2022-07-21T05:07:47Z</time>
      </trkpt>
      <trkpt lat="44.159" lon="5.15409">
        <ele>666</ele>
        <time>2022-07-21T05:07:48Z</time>
      </trkpt>
      <trkpt lat="44.15902" lon="5.15409">
        <ele>666.1</ele>
        <time>2022-07-21T05:07:49Z</time>
      </trkpt>
      <trkpt lat="44.15903" lon="5.15409">
        <ele>666.2</ele>
        <time>2022-07-21T05:07:50Z</time>
      </trkpt>
      <trkpt lat="44.15905" lon="5.15409">
        <ele>666.4</ele>
        <time>2022-07-21T05:07:51Z</time>
      </trkpt>
      <trkpt lat="44.15906" lon="5.15408">
        <ele>666.5</ele>
        <time>2022-07-21T05:07:52Z</time>
      </trkpt>
      <trkpt lat="44.15907" lon="5.15408">
        <ele>666.6</ele>
        <time>2022-07-21T05:07:53Z</time>
      </trkpt>
      <trkpt lat="44.15909" lon="5.15408">
        <ele>666.7</ele>
        <time>2022-07-21T05:07:54Z</time>
      </trkpt>
      <trkpt lat="44.1591" lon="5.15407">
        <ele>666.8</ele>
        <time>2022-07-21T05:07:55Z</time>
      </trkpt>
      <trkpt lat="44.15911" lon="5.15407">
        <ele>666.9</ele>
        <time>2022-07-21T05:07:56Z</time>
      </trkpt>
      <trkpt lat="44.15913" lon="5.15407">
        <ele>667.1</ele>
        <time>2022-07-21T05:07:57Z</time>
      </trkpt>
      <trkpt lat="44.15914" lon="5.15407">
        <ele>667.2</ele>
        <time>2022-07-21T05:07:58Z</time>
      </trkpt>
      <trkpt lat="44.15916" lon="5.15407">
        <ele>667.3</ele>
        <time>2022-07-21T05:07:59Z</time>
      </trkpt>
      <trkpt lat="44.15917" lon="5.15407">
        <ele>667.4</ele>
        <time>2022-07-21T05:08:00Z</time>
      </trkpt>
      <trkpt lat="44.15919" lon="5.15406">
        <ele>667.6</ele>
        <time>2022-07-21T05:08:01Z</time>
      </trkpt>
      <trkpt lat="44.1592" lon="5.15406">
        <ele>667.6</ele>
        <time>2022-07-21T05:08:02Z</time>
      </trkpt>
      <trkpt lat="44.15921" lon="5.15406">
        <ele>667.7</ele>
        <time>2022-07-21T05:08:03Z</time>
      </trkpt>
      <trkpt lat="44.15923" lon="5.15406">
        <ele>667.8</ele>
        <time>2022-07-21T05:08:04Z</time>
      </trkpt>
      <trkpt lat="44.15924" lon="5.15406">
        <ele>667.9</ele>
        <time>2022-07-21T05:08:05Z</time>
      </trkpt>
      <trkpt lat="44.15925" lon="5.15405">
        <ele>668</ele>
        <time>2022-07-21T05:08:06Z</time>
      </trkpt>
      <trkpt lat="44.15926" lon="5.15405">
        <ele>668.1</ele>
        <time>2022-07-21T05:08:07Z</time>
      </trkpt>
      <trkpt lat="44.15928" lon="5.15405">
        <ele>668.2</ele>
        <time>2022-07-21T05:08:08Z</time>
      </trkpt>
      <trkpt lat="44.1593" lon="5.15405">
        <ele>668.4</ele>
        <time>2022-07-21T05:08:09Z</time>
      </trkpt>
      <trkpt lat="44.15931" lon="5.15405">
        <ele>668.4</ele>
        <time>2022-07-21T05:08:10Z</time>
      </trkpt>
      <trkpt lat="44.15932" lon="5.15405">
        <ele>668.5</ele>
        <time>2022-07-21T05:08:11Z</time>
      </trkpt>
      <trkpt lat="44.15933" lon="5.15405">
        <ele>668.6</ele>
        <time>2022-07-21T05:08:12Z</time>
      </trkpt>
      <trkpt lat="44.15935" lon="5.15405">
        <ele>668.7</ele>
        <time>2022-07-21T05:08:13Z</time>
      </trkpt>
      <trkpt lat="44.15936" lon="5.15405">
        <ele>668.8</ele>
        <time>2022-07-21T05:08:14Z</time>
      </trkpt>
      <trkpt lat="44.15938" lon="5.15405">
        <ele>668.9</ele>
        <time>2022-07-21T05:08:15Z</time>
      </trkpt>
      <trkpt lat="44.15941" lon="5.15404">
        <ele>669.1</ele>
        <time>2022-07-21T05:08:16Z</time>
      </trkpt>
      <trkpt lat="44.15942" lon="5.15404">
        <ele>669.2</ele>
        <time>2022-07-21T05:08:17Z</time>
      </trkpt>
      <trkpt lat="44.15945" lon="5.15404">
        <ele>669.4</ele>
        <time>2022-07-21T05:08:18Z</time>
      </trkpt>
      <trkpt lat="44.15946" lon="5.15404">
        <ele>669.5</ele>
        <time>2022-07-21T05:08:19Z</time>
      </trkpt>
      <trkpt lat="44.15947" lon="5.15404">
        <ele>669.6</ele>
        <time>2022-07-21T05:08:20Z</time>
      </trkpt>
      <trkpt lat="44.15949" lon="5.15404">
        <ele>669.7</ele>
        <time>2022-07-21T05:08:21Z</time>
      </trkpt>
      <trkpt lat="44.15951" lon="5.15404">
        <ele>669.9</ele>
        <time>2022-07-21T05:08:22Z</time>
      </trkpt>
      <trkpt lat="44.15952" lon="5.15404">
        <ele>670</ele>
        <time>2022-07-21T05:08:23Z</time>
      </trkpt>
      <trkpt lat="44.15955" lon="5.15405">
        <ele>670.2</ele>
        <time>2022-07-21T05:08:24Z</time>
      </trkpt>
      <trkpt lat="44.15956" lon="5.15405">
        <ele>670.2</ele>
        <time>2022-07-21T05:08:25Z</time>
      </trkpt>
      <trkpt lat="44.15959" lon="5.15405">
        <ele>670.4</ele>
        <time>2022-07-21T05:08:26Z</time>
      </trkpt>
      <trkpt lat="44.1596" lon="5.15406">
        <ele>670.5</ele>
        <time>2022-07-21T05:08:27Z</time>
      </trkpt>
      <trkpt lat="44.15961" lon="5.15406">
        <ele>670.6</ele>
        <time>2022-07-21T05:08:28Z</time>
      </trkpt>
      <trkpt lat="44.15963" lon="5.15406">
        <ele>670.8</ele>
        <time>2022-07-21T05:08:29Z</time>
      </trkpt>
      <trkpt lat="44.15965" lon="5.15407">
        <ele>670.9</ele>
        <time>2022-07-21T05:08:30Z</time>
      </trkpt>
      <trkpt lat="44.15966" lon="5.15407">
        <ele>671</ele>
        <time>2022-07-21T05:08:31Z</time>
      </trkpt>
      <trkpt lat="44.15968" lon="5.15408">
        <ele>671.1</ele>
        <time>2022-07-21T05:08:32Z</time>
      </trkpt>
      <trkpt lat="44.15969" lon="5.15408">
        <ele>671.2</ele>
        <time>2022-07-21T05:08:33Z</time>
      </trkpt>
      <trkpt lat="44.15971" lon="5.15409">
        <ele>671.4</ele>
        <time>2022-07-21T05:08:34Z</time>
      </trkpt>
      <trkpt lat="44.15973" lon="5.1541">
        <ele>671.5</ele>
        <time>2022-07-21T05:08:35Z</time>
      </trkpt>
      <trkpt lat="44.15975" lon="5.15411">
        <ele>671.7</ele>
        <time>2022-07-21T05:08:36Z</time>
      </trkpt>
      <trkpt lat="44.15976" lon="5.15411">
        <ele>671.8</ele>
        <time>2022-07-21T05:08:37Z</time>
      </trkpt>
      <trkpt lat="44.15979" lon="5.15412">
        <ele>672</ele>
        <time>2022-07-21T05:08:38Z</time>
      </trkpt>
      <trkpt lat="44.1598" lon="5.15412">
        <ele>672.1</ele>
        <time>2022-07-21T05:08:39Z</time>
      </trkpt>
      <trkpt lat="44.15983" lon="5.15413">
        <ele>672.3</ele>
        <time>2022-07-21T05:08:40Z</time>
      </trkpt>
      <trkpt lat="44.15984" lon="5.15413">
        <ele>672.4</ele>
        <time>2022-07-21T05:08:41Z</time>
      </trkpt>
      <trkpt lat="44.15985" lon="5.15413">
        <ele>672.5</ele>
        <time>2022-07-21T05:08:42Z</time>
      </trkpt>
      <trkpt lat="44.15987" lon="5.15414">
        <ele>672.6</ele>
        <time>2022-07-21T05:08:43Z</time>
      </trkpt>
      <trkpt lat="44.1599" lon="5.15414">
        <ele>672.9</ele>
        <time>2022-07-21T05:08:44Z</time>
      </trkpt>
      <trkpt lat="44.15991" lon="5.15414">
        <ele>673</ele>
        <time>2022-07-21T05:08:45Z</time>
      </trkpt>
      <trkpt lat="44.15994" lon="5.15414">
        <ele>673.2</ele>
        <time>2022-07-21T05:08:46Z</time>
      </trkpt>
      <trkpt lat="44.15995" lon="5.15415">
        <ele>673.3</ele>
        <time>2022-07-21T05:08:47Z</time>
      </trkpt>
      <trkpt lat="44.15997" lon="5.15415">
        <ele>673.4</ele>
        <time>2022-07-21T05:08:48Z</time>
      </trkpt>
      <trkpt lat="44.15999" lon="5.15415">
        <ele>673.6</ele>
        <time>2022-07-21T05:08:49Z</time>
      </trkpt>
      <trkpt lat="44.16002" lon="5.15415">
        <ele>673.8</ele>
        <time>2022-07-21T05:08:50Z</time>
      </trkpt>
      <trkpt lat="44.16002" lon="5.15415">
        <ele>673.9</ele>
        <time>2022-07-21T05:08:51Z</time>
      </trkpt>
      <trkpt lat="44.16004" lon="5.15415">
        <ele>674</ele>
        <time>2022-07-21T05:08:52Z</time>
      </trkpt>
      <trkpt lat="44.16006" lon="5.15415">
        <ele>674.1</ele>
        <time>2022-07-21T05:08:53Z</time>
      </trkpt>
      <trkpt lat="44.16009" lon="5.15414">
        <ele>674.4</ele>
        <time>2022-07-21T05:08:54Z</time>
      </trkpt>
      <trkpt lat="44.1601" lon="5.15414">
        <ele>674.5</ele>
        <time>2022-07-21T05:08:55Z</time>
      </trkpt>
      <trkpt lat="44.16013" lon="5.15414">
        <ele>674.7</ele>
        <time>2022-07-21T05:08:56Z</time>
      </trkpt>
      <trkpt lat="44.16014" lon="5.15414">
        <ele>674.8</ele>
        <time>2022-07-21T05:08:57Z</time>
      </trkpt>
      <trkpt lat="44.16017" lon="5.15414">
        <ele>675</ele>
        <time>2022-07-21T05:08:58Z</time>
      </trkpt>
      <trkpt lat="44.16018" lon="5.15414">
        <ele>675.1</ele>
        <time>2022-07-21T05:08:59Z</time>
      </trkpt>
      <trkpt lat="44.16021" lon="5.15414">
        <ele>675.3</ele>
        <time>2022-07-21T05:09:00Z</time>
      </trkpt>
      <trkpt lat="44.16022" lon="5.15414">
        <ele>675.4</ele>
        <time>2022-07-21T05:09:01Z</time>
      </trkpt>
      <trkpt lat="44.16024" lon="5.15415">
        <ele>675.6</ele>
        <time>2022-07-21T05:09:02Z</time>
      </trkpt>
      <trkpt lat="44.16025" lon="5.15415">
        <ele>675.7</ele>
        <time>2022-07-21T05:09:03Z</time>
      </trkpt>
      <trkpt lat="44.16028" lon="5.15416">
        <ele>675.9</ele>
        <time>2022-07-21T05:09:04Z</time>
      </trkpt>
      <trkpt lat="44.16029" lon="5.15417">
        <ele>676</ele>
        <time>2022-07-21T05:09:05Z</time>
      </trkpt>
      <trkpt lat="44.16031" lon="5.15418">
        <ele>676.1</ele>
        <time>2022-07-21T05:09:06Z</time>
      </trkpt>
      <trkpt lat="44.16033" lon="5.15419">
        <ele>676.3</ele>
        <time>2022-07-21T05:09:07Z</time>
      </trkpt>
      <trkpt lat="44.16035" lon="5.1542">
        <ele>676.5</ele>
        <time>2022-07-21T05:09:08Z</time>
      </trkpt>
      <trkpt lat="44.16036" lon="5.15421">
        <ele>676.6</ele>
        <time>2022-07-21T05:09:09Z</time>
      </trkpt>
      <trkpt lat="44.16039" lon="5.15423">
        <ele>676.8</ele>
        <time>2022-07-21T05:09:10Z</time>
      </trkpt>
      <trkpt lat="44.1604" lon="5.15424">
        <ele>676.9</ele>
        <time>2022-07-21T05:09:11Z</time>
      </trkpt>
      <trkpt lat="44.16043" lon="5.15425">
        <ele>677.2</ele>
        <time>2022-07-21T05:09:12Z</time>
      </trkpt>
      <trkpt lat="44.16044" lon="5.15426">
        <ele>677.2</ele>
        <time>2022-07-21T05:09:13Z</time>
      </trkpt>
      <trkpt lat="44.16047" lon="5.15428">
        <ele>677.5</ele>
        <time>2022-07-21T05:09:14Z</time>
      </trkpt>
      <trkpt lat="44.16047" lon="5.15429">
        <ele>677.5</ele>
        <time>2022-07-21T05:09:15Z</time>
      </trkpt>
      <trkpt lat="44.1605" lon="5.1543">
        <ele>677.7</ele>
        <time>2022-07-21T05:09:16Z</time>
      </trkpt>
      <trkpt lat="44.16051" lon="5.15431">
        <ele>677.8</ele>
        <time>2022-07-21T05:09:17Z</time>
      </trkpt>
      <trkpt lat="44.16053" lon="5.15432">
        <ele>678</ele>
        <time>2022-07-21T05:09:18Z</time>
      </trkpt>
      <trkpt lat="44.16054" lon="5.15433">
        <ele>678.1</ele>
        <time>2022-07-21T05:09:19Z</time>
      </trkpt>
      <trkpt lat="44.16056" lon="5.15434">
        <ele>678.2</ele>
        <time>2022-07-21T05:09:20Z</time>
      </trkpt>
      <trkpt lat="44.16057" lon="5.15435">
        <ele>678.3</ele>
        <time>2022-07-21T05:09:21Z</time>
      </trkpt>
      <trkpt lat="44.16058" lon="5.15436">
        <ele>678.4</ele>
        <time>2022-07-21T05:09:22Z</time>
      </trkpt>
      <trkpt lat="44.16059" lon="5.15438">
        <ele>678.5</ele>
        <time>2022-07-21T05:09:23Z</time>
      </trkpt>
      <trkpt lat="44.16062" lon="5.15439">
        <ele>678.7</ele>
        <time>2022-07-21T05:09:24Z</time>
      </trkpt>
      <trkpt lat="44.16063" lon="5.1544">
        <ele>678.8</ele>
        <time>2022-07-21T05:09:25Z</time>
      </trkpt>
      <trkpt lat="44.16065" lon="5.15441">
        <ele>679</ele>
        <time>2022-07-21T05:09:26Z</time>
      </trkpt>
      <trkpt lat="44.16066" lon="5.15442">
        <ele>679.1</ele>
        <time>2022-07-21T05:09:27Z</time>
      </trkpt>
      <trkpt lat="44.16069" lon="5.15444">
        <ele>679.3</ele>
        <time>2022-07-21T05:09:28Z</time>
      </trkpt>
      <trkpt lat="44.1607" lon="5.15445">
        <ele>679.3</ele>
        <time>2022-07-21T05:09:29Z</time>
      </trkpt>
      <trkpt lat="44.16072" lon="5.15447">
        <ele>679.5</ele>
        <time>2022-07-21T05:09:30Z</time>
      </trkpt>
      <trkpt lat="44.16073" lon="5.15448">
        <ele>679.6</ele>
        <time>2022-07-21T05:09:31Z</time>
      </trkpt>
      <trkpt lat="44.16076" lon="5.1545">
        <ele>679.9</ele>
        <time>2022-07-21T05:09:32Z</time>
      </trkpt>
      <trkpt lat="44.16077" lon="5.15451">
        <ele>679.9</ele>
        <time>2022-07-21T05:09:33Z</time>
      </trkpt>
      <trkpt lat="44.1608" lon="5.15453">
        <ele>680.2</ele>
        <time>2022-07-21T05:09:34Z</time>
      </trkpt>
      <trkpt lat="44.16081" lon="5.15453">
        <ele>680.2</ele>
        <time>2022-07-21T05:09:35Z</time>
      </trkpt>
      <trkpt lat="44.16083" lon="5.15455">
        <ele>680.4</ele>
        <time>2022-07-21T05:09:36Z</time>
      </trkpt>
      <trkpt lat="44.16084" lon="5.15456">
        <ele>680.5</ele>
        <time>2022-07-21T05:09:37Z</time>
      </trkpt>
      <trkpt lat="44.16087" lon="5.15459">
        <ele>680.7</ele>
        <time>2022-07-21T05:09:38Z</time>
      </trkpt>
      <trkpt lat="44.16088" lon="5.1546">
        <ele>680.8</ele>
        <time>2022-07-21T05:09:39Z</time>
      </trkpt>
      <trkpt lat="44.1609" lon="5.15462">
        <ele>681</ele>
        <time>2022-07-21T05:09:40Z</time>
      </trkpt>
      <trkpt lat="44.16091" lon="5.15462">
        <ele>681</ele>
        <time>2022-07-21T05:09:41Z</time>
      </trkpt>
      <trkpt lat="44.16094" lon="5.15465">
        <ele>681.2</ele>
        <time>2022-07-21T05:09:42Z</time>
      </trkpt>
      <trkpt lat="44.16095" lon="5.15465">
        <ele>681.3</ele>
        <time>2022-07-21T05:09:43Z</time>
      </trkpt>
      <trkpt lat="44.16097" lon="5.15468">
        <ele>681.5</ele>
        <time>2022-07-21T05:09:44Z</time>
      </trkpt>
      <trkpt lat="44.16098" lon="5.15468">
        <ele>681.5</ele>
        <time>2022-07-21T05:09:45Z</time>
      </trkpt>
      <trkpt lat="44.16101" lon="5.15471">
        <ele>681.7</ele>
        <time>2022-07-21T05:09:46Z</time>
      </trkpt>
      <trkpt lat="44.16102" lon="5.15471">
        <ele>681.8</ele>
        <time>2022-07-21T05:09:47Z</time>
      </trkpt>
      <trkpt lat="44.16103" lon="5.15472">
        <ele>681.9</ele>
        <time>2022-07-21T05:09:48Z</time>
      </trkpt>
      <trkpt lat="44.16105" lon="5.15473">
        <ele>682</ele>
        <time>2022-07-21T05:09:49Z</time>
      </trkpt>
      <trkpt lat="44.16108" lon="5.15474">
        <ele>682.2</ele>
        <time>2022-07-21T05:09:50Z</time>
      </trkpt>
      <trkpt lat="44.16109" lon="5.15475">
        <ele>682.2</ele>
        <time>2022-07-21T05:09:51Z</time>
      </trkpt>
      <trkpt lat="44.16111" lon="5.15477">
        <ele>682.4</ele>
        <time>2022-07-21T05:09:52Z</time>
      </trkpt>
      <trkpt lat="44.16112" lon="5.15477">
        <ele>682.5</ele>
        <time>2022-07-21T05:09:53Z</time>
      </trkpt>
      <trkpt lat="44.16113" lon="5.15478">
        <ele>682.6</ele>
        <time>2022-07-21T05:09:54Z</time>
      </trkpt>
      <trkpt lat="44.16115" lon="5.15479">
        <ele>682.7</ele>
        <time>2022-07-21T05:09:55Z</time>
      </trkpt>
      <trkpt lat="44.16116" lon="5.15481">
        <ele>682.8</ele>
        <time>2022-07-21T05:09:56Z</time>
      </trkpt>
      <trkpt lat="44.16118" lon="5.15482">
        <ele>682.9</ele>
        <time>2022-07-21T05:09:57Z</time>
      </trkpt>
      <trkpt lat="44.16119" lon="5.15483">
        <ele>683</ele>
        <time>2022-07-21T05:09:58Z</time>
      </trkpt>
      <trkpt lat="44.1612" lon="5.15485">
        <ele>683.1</ele>
        <time>2022-07-21T05:09:59Z</time>
      </trkpt>
      <trkpt lat="44.16123" lon="5.15487">
        <ele>683.3</ele>
        <time>2022-07-21T05:10:00Z</time>
      </trkpt>
      <trkpt lat="44.16123" lon="5.15488">
        <ele>683.3</ele>
        <time>2022-07-21T05:10:01Z</time>
      </trkpt>
      <trkpt lat="44.16125" lon="5.15489">
        <ele>683.4</ele>
        <time>2022-07-21T05:10:02Z</time>
      </trkpt>
      <trkpt lat="44.16126" lon="5.1549">
        <ele>683.5</ele>
        <time>2022-07-21T05:10:03Z</time>
      </trkpt>
      <trkpt lat="44.16127" lon="5.15491">
        <ele>683.6</ele>
        <time>2022-07-21T05:10:04Z</time>
      </trkpt>
      <trkpt lat="44.16129" lon="5.15493">
        <ele>683.7</ele>
        <time>2022-07-21T05:10:05Z</time>
      </trkpt>
      <trkpt lat="44.1613" lon="5.15494">
        <ele>683.8</ele>
        <time>2022-07-21T05:10:06Z</time>
      </trkpt>
      <trkpt lat="44.16131" lon="5.15495">
        <ele>683.9</ele>
        <time>2022-07-21T05:10:07Z</time>
      </trkpt>
      <trkpt lat="44.16134" lon="5.15498">
        <ele>684</ele>
        <time>2022-07-21T05:10:08Z</time>
      </trkpt>
      <trkpt lat="44.16135" lon="5.15498">
        <ele>684.1</ele>
        <time>2022-07-21T05:10:09Z</time>
      </trkpt>
      <trkpt lat="44.16137" lon="5.15501">
        <ele>684.2</ele>
        <time>2022-07-21T05:10:10Z</time>
      </trkpt>
      <trkpt lat="44.16138" lon="5.15501">
        <ele>684.3</ele>
        <time>2022-07-21T05:10:11Z</time>
      </trkpt>
      <trkpt lat="44.1614" lon="5.15504">
        <ele>684.5</ele>
        <time>2022-07-21T05:10:12Z</time>
      </trkpt>
      <trkpt lat="44.16141" lon="5.15504">
        <ele>684.5</ele>
        <time>2022-07-21T05:10:13Z</time>
      </trkpt>
      <trkpt lat="44.16144" lon="5.15507">
        <ele>684.7</ele>
        <time>2022-07-21T05:10:14Z</time>
      </trkpt>
      <trkpt lat="44.16144" lon="5.15508">
        <ele>684.7</ele>
        <time>2022-07-21T05:10:15Z</time>
      </trkpt>
      <trkpt lat="44.16147" lon="5.1551">
        <ele>684.9</ele>
        <time>2022-07-21T05:10:16Z</time>
      </trkpt>
      <trkpt lat="44.16148" lon="5.15511">
        <ele>684.9</ele>
        <time>2022-07-21T05:10:17Z</time>
      </trkpt>
      <trkpt lat="44.1615" lon="5.15513">
        <ele>685.1</ele>
        <time>2022-07-21T05:10:18Z</time>
      </trkpt>
      <trkpt lat="44.16151" lon="5.15514">
        <ele>685.2</ele>
        <time>2022-07-21T05:10:19Z</time>
      </trkpt>
      <trkpt lat="44.16153" lon="5.15516">
        <ele>685.4</ele>
        <time>2022-07-21T05:10:20Z</time>
      </trkpt>
      <trkpt lat="44.16154" lon="5.15517">
        <ele>685.4</ele>
        <time>2022-07-21T05:10:21Z</time>
      </trkpt>
      <trkpt lat="44.16157" lon="5.15519">
        <ele>685.6</ele>
        <time>2022-07-21T05:10:22Z</time>
      </trkpt>
      <trkpt lat="44.16158" lon="5.1552">
        <ele>685.7</ele>
        <time>2022-07-21T05:10:23Z</time>
      </trkpt>
      <trkpt lat="44.16159" lon="5.15521">
        <ele>685.8</ele>
        <time>2022-07-21T05:10:24Z</time>
      </trkpt>
      <trkpt lat="44.1616" lon="5.15523">
        <ele>685.9</ele>
        <time>2022-07-21T05:10:25Z</time>
      </trkpt>
      <trkpt lat="44.16162" lon="5.15525">
        <ele>686.1</ele>
        <time>2022-07-21T05:10:26Z</time>
      </trkpt>
      <trkpt lat="44.16163" lon="5.15526">
        <ele>686.1</ele>
        <time>2022-07-21T05:10:27Z</time>
      </trkpt>
      <trkpt lat="44.16165" lon="5.15528">
        <ele>686.3</ele>
        <time>2022-07-21T05:10:28Z</time>
      </trkpt>
      <trkpt lat="44.16166" lon="5.15529">
        <ele>686.4</ele>
        <time>2022-07-21T05:10:29Z</time>
      </trkpt>
      <trkpt lat="44.16167" lon="5.15531">
        <ele>686.5</ele>
        <time>2022-07-21T05:10:30Z</time>
      </trkpt>
      <trkpt lat="44.16168" lon="5.15532">
        <ele>686.6</ele>
        <time>2022-07-21T05:10:31Z</time>
      </trkpt>
      <trkpt lat="44.16169" lon="5.15534">
        <ele>686.7</ele>
        <time>2022-07-21T05:10:32Z</time>
      </trkpt>
      <trkpt lat="44.1617" lon="5.15535">
        <ele>686.8</ele>
        <time>2022-07-21T05:10:33Z</time>
      </trkpt>
      <trkpt lat="44.16171" lon="5.15537">
        <ele>686.9</ele>
        <time>2022-07-21T05:10:34Z</time>
      </trkpt>
      <trkpt lat="44.16172" lon="5.15538">
        <ele>687</ele>
        <time>2022-07-21T05:10:35Z</time>
      </trkpt>
      <trkpt lat="44.16173" lon="5.1554">
        <ele>687.1</ele>
        <time>2022-07-21T05:10:36Z</time>
      </trkpt>
      <trkpt lat="44.16174" lon="5.15542">
        <ele>687.2</ele>
        <time>2022-07-21T05:10:37Z</time>
      </trkpt>
      <trkpt lat="44.16175" lon="5.15543">
        <ele>687.3</ele>
        <time>2022-07-21T05:10:38Z</time>
      </trkpt>
      <trkpt lat="44.16176" lon="5.15545">
        <ele>687.4</ele>
        <time>2022-07-21T05:10:39Z</time>
      </trkpt>
      <trkpt lat="44.16177" lon="5.15547">
        <ele>687.5</ele>
        <time>2022-07-21T05:10:40Z</time>
      </trkpt>
      <trkpt lat="44.16178" lon="5.15549">
        <ele>687.6</ele>
        <time>2022-07-21T05:10:41Z</time>
      </trkpt>
      <trkpt lat="44.16179" lon="5.15553">
        <ele>687.8</ele>
        <time>2022-07-21T05:10:42Z</time>
      </trkpt>
      <trkpt lat="44.1618" lon="5.15554">
        <ele>687.9</ele>
        <time>2022-07-21T05:10:43Z</time>
      </trkpt>
      <trkpt lat="44.16182" lon="5.15558">
        <ele>688.1</ele>
        <time>2022-07-21T05:10:44Z</time>
      </trkpt>
      <trkpt lat="44.16182" lon="5.15559">
        <ele>688.2</ele>
        <time>2022-07-21T05:10:45Z</time>
      </trkpt>
      <trkpt lat="44.16184" lon="5.15562">
        <ele>688.3</ele>
        <time>2022-07-21T05:10:46Z</time>
      </trkpt>
      <trkpt lat="44.16185" lon="5.15563">
        <ele>688.4</ele>
        <time>2022-07-21T05:10:47Z</time>
      </trkpt>
      <trkpt lat="44.16187" lon="5.15566">
        <ele>688.6</ele>
        <time>2022-07-21T05:10:48Z</time>
      </trkpt>
      <trkpt lat="44.16187" lon="5.15567">
        <ele>688.6</ele>
        <time>2022-07-21T05:10:49Z</time>
      </trkpt>
      <trkpt lat="44.16189" lon="5.1557">
        <ele>688.8</ele>
        <time>2022-07-21T05:10:50Z</time>
      </trkpt>
      <trkpt lat="44.16189" lon="5.15571">
        <ele>688.9</ele>
        <time>2022-07-21T05:10:51Z</time>
      </trkpt>
      <trkpt lat="44.16191" lon="5.15575">
        <ele>689</ele>
        <time>2022-07-21T05:10:52Z</time>
      </trkpt>
      <trkpt lat="44.16192" lon="5.15576">
        <ele>689.1</ele>
        <time>2022-07-21T05:10:53Z</time>
      </trkpt>
      <trkpt lat="44.16193" lon="5.15578">
        <ele>689.2</ele>
        <time>2022-07-21T05:10:54Z</time>
      </trkpt>
      <trkpt lat="44.16193" lon="5.1558">
        <ele>689.3</ele>
        <time>2022-07-21T05:10:55Z</time>
      </trkpt>
      <trkpt lat="44.16194" lon="5.15581">
        <ele>689.4</ele>
        <time>2022-07-21T05:10:56Z</time>
      </trkpt>
      <trkpt lat="44.16195" lon="5.15583">
        <ele>689.5</ele>
        <time>2022-07-21T05:10:57Z</time>
      </trkpt>
      <trkpt lat="44.16197" lon="5.15587">
        <ele>689.7</ele>
        <time>2022-07-21T05:10:58Z</time>
      </trkpt>
      <trkpt lat="44.16198" lon="5.15588">
        <ele>689.8</ele>
        <time>2022-07-21T05:10:59Z</time>
      </trkpt>
      <trkpt lat="44.16199" lon="5.15591">
        <ele>689.9</ele>
        <time>2022-07-21T05:11:00Z</time>
      </trkpt>
      <trkpt lat="44.162" lon="5.15592">
        <ele>690</ele>
        <time>2022-07-21T05:11:01Z</time>
      </trkpt>
      <trkpt lat="44.16201" lon="5.15596">
        <ele>690.2</ele>
        <time>2022-07-21T05:11:02Z</time>
      </trkpt>
      <trkpt lat="44.16202" lon="5.15597">
        <ele>690.2</ele>
        <time>2022-07-21T05:11:03Z</time>
      </trkpt>
      <trkpt lat="44.16203" lon="5.156">
        <ele>690.4</ele>
        <time>2022-07-21T05:11:04Z</time>
      </trkpt>
      <trkpt lat="44.16204" lon="5.15601">
        <ele>690.4</ele>
        <time>2022-07-21T05:11:05Z</time>
      </trkpt>
      <trkpt lat="44.16205" lon="5.15603">
        <ele>690.5</ele>
        <time>2022-07-21T05:11:06Z</time>
      </trkpt>
      <trkpt lat="44.16205" lon="5.15606">
        <ele>690.6</ele>
        <time>2022-07-21T05:11:07Z</time>
      </trkpt>
      <trkpt lat="44.16207" lon="5.15609">
        <ele>690.8</ele>
        <time>2022-07-21T05:11:08Z</time>
      </trkpt>
      <trkpt lat="44.16207" lon="5.15611">
        <ele>690.9</ele>
        <time>2022-07-21T05:11:09Z</time>
      </trkpt>
      <trkpt lat="44.16208" lon="5.15614">
        <ele>691</ele>
        <time>2022-07-21T05:11:10Z</time>
      </trkpt>
      <trkpt lat="44.16209" lon="5.15616">
        <ele>691.1</ele>
        <time>2022-07-21T05:11:11Z</time>
      </trkpt>
      <trkpt lat="44.1621" lon="5.15619">
        <ele>691.3</ele>
        <time>2022-07-21T05:11:12Z</time>
      </trkpt>
      <trkpt lat="44.16211" lon="5.1562">
        <ele>691.3</ele>
        <time>2022-07-21T05:11:13Z</time>
      </trkpt>
      <trkpt lat="44.16211" lon="5.15623">
        <ele>691.4</ele>
        <time>2022-07-21T05:11:14Z</time>
      </trkpt>
      <trkpt lat="44.16212" lon="5.15625">
        <ele>691.5</ele>
        <time>2022-07-21T05:11:15Z</time>
      </trkpt>
      <trkpt lat="44.16213" lon="5.15628">
        <ele>691.7</ele>
        <time>2022-07-21T05:11:16Z</time>
      </trkpt>
      <trkpt lat="44.16214" lon="5.1563">
        <ele>691.8</ele>
        <time>2022-07-21T05:11:17Z</time>
      </trkpt>
      <trkpt lat="44.16215" lon="5.15632">
        <ele>691.9</ele>
        <time>2022-07-21T05:11:18Z</time>
      </trkpt>
      <trkpt lat="44.16215" lon="5.15634">
        <ele>692</ele>
        <time>2022-07-21T05:11:19Z</time>
      </trkpt>
      <trkpt lat="44.16217" lon="5.15638">
        <ele>692.1</ele>
        <time>2022-07-21T05:11:20Z</time>
      </trkpt>
      <trkpt lat="44.16217" lon="5.15639">
        <ele>692.2</ele>
        <time>2022-07-21T05:11:21Z</time>
      </trkpt>
      <trkpt lat="44.16219" lon="5.15643">
        <ele>692.4</ele>
        <time>2022-07-21T05:11:22Z</time>
      </trkpt>
      <trkpt lat="44.16219" lon="5.15644">
        <ele>692.4</ele>
        <time>2022-07-21T05:11:23Z</time>
      </trkpt>
      <trkpt lat="44.1622" lon="5.15647">
        <ele>692.6</ele>
        <time>2022-07-21T05:11:24Z</time>
      </trkpt>
      <trkpt lat="44.1622" lon="5.15649">
        <ele>692.6</ele>
        <time>2022-07-21T05:11:25Z</time>
      </trkpt>
      <trkpt lat="44.16221" lon="5.15651">
        <ele>692.7</ele>
        <time>2022-07-21T05:11:26Z</time>
      </trkpt>
      <trkpt lat="44.16222" lon="5.15653">
        <ele>692.8</ele>
        <time>2022-07-21T05:11:27Z</time>
      </trkpt>
      <trkpt lat="44.16223" lon="5.15657">
        <ele>693</ele>
        <time>2022-07-21T05:11:28Z</time>
      </trkpt>
      <trkpt lat="44.16223" lon="5.15658">
        <ele>693</ele>
        <time>2022-07-21T05:11:29Z</time>
      </trkpt>
      <trkpt lat="44.16224" lon="5.15662">
        <ele>693.2</ele>
        <time>2022-07-21T05:11:30Z</time>
      </trkpt>
      <trkpt lat="44.16224" lon="5.15664">
        <ele>693.2</ele>
        <time>2022-07-21T05:11:31Z</time>
      </trkpt>
      <trkpt lat="44.16225" lon="5.15669">
        <ele>693.4</ele>
        <time>2022-07-21T05:11:32Z</time>
      </trkpt>
      <trkpt lat="44.16226" lon="5.1567">
        <ele>693.5</ele>
        <time>2022-07-21T05:11:33Z</time>
      </trkpt>
      <trkpt lat="44.16226" lon="5.15675">
        <ele>693.6</ele>
        <time>2022-07-21T05:11:34Z</time>
      </trkpt>
      <trkpt lat="44.16227" lon="5.15676">
        <ele>693.7</ele>
        <time>2022-07-21T05:11:35Z</time>
      </trkpt>
      <trkpt lat="44.16227" lon="5.15681">
        <ele>693.8</ele>
        <time>2022-07-21T05:11:36Z</time>
      </trkpt>
      <trkpt lat="44.16228" lon="5.15683">
        <ele>693.9</ele>
        <time>2022-07-21T05:11:37Z</time>
      </trkpt>
      <trkpt lat="44.16228" lon="5.15688">
        <ele>694</ele>
        <time>2022-07-21T05:11:38Z</time>
      </trkpt>
      <trkpt lat="44.16228" lon="5.15689">
        <ele>694.1</ele>
        <time>2022-07-21T05:11:39Z</time>
      </trkpt>
      <trkpt lat="44.16229" lon="5.15694">
        <ele>694.2</ele>
        <time>2022-07-21T05:11:40Z</time>
      </trkpt>
      <trkpt lat="44.16229" lon="5.15696">
        <ele>694.3</ele>
        <time>2022-07-21T05:11:41Z</time>
      </trkpt>
      <trkpt lat="44.1623" lon="5.157">
        <ele>694.4</ele>
        <time>2022-07-21T05:11:42Z</time>
      </trkpt>
      <trkpt lat="44.1623" lon="5.15702">
        <ele>694.5</ele>
        <time>2022-07-21T05:11:43Z</time>
      </trkpt>
      <trkpt lat="44.1623" lon="5.15706">
        <ele>694.6</ele>
        <time>2022-07-21T05:11:44Z</time>
      </trkpt>
      <trkpt lat="44.1623" lon="5.15708">
        <ele>694.6</ele>
        <time>2022-07-21T05:11:45Z</time>
      </trkpt>
      <trkpt lat="44.16231" lon="5.15713">
        <ele>694.8</ele>
        <time>2022-07-21T05:11:46Z</time>
      </trkpt>
      <trkpt lat="44.16231" lon="5.15714">
        <ele>694.8</ele>
        <time>2022-07-21T05:11:47Z</time>
      </trkpt>
      <trkpt lat="44.16231" lon="5.15719">
        <ele>695</ele>
        <time>2022-07-21T05:11:48Z</time>
      </trkpt>
      <trkpt lat="44.16232" lon="5.15721">
        <ele>695</ele>
        <time>2022-07-21T05:11:49Z</time>
      </trkpt>
      <trkpt lat="44.16232" lon="5.15726">
        <ele>695.1</ele>
        <time>2022-07-21T05:11:50Z</time>
      </trkpt>
      <trkpt lat="44.16232" lon="5.15727">
        <ele>695.2</ele>
        <time>2022-07-21T05:11:51Z</time>
      </trkpt>
      <trkpt lat="44.16233" lon="5.15731">
        <ele>695.3</ele>
        <time>2022-07-21T05:11:52Z</time>
      </trkpt>
      <trkpt lat="44.16233" lon="5.15733">
        <ele>695.4</ele>
        <time>2022-07-21T05:11:53Z</time>
      </trkpt>
      <trkpt lat="44.16233" lon="5.15738">
        <ele>695.5</ele>
        <time>2022-07-21T05:11:54Z</time>
      </trkpt>
      <trkpt lat="44.16233" lon="5.15739">
        <ele>695.5</ele>
        <time>2022-07-21T05:11:55Z</time>
      </trkpt>
      <trkpt lat="44.16233" lon="5.15745">
        <ele>695.7</ele>
        <time>2022-07-21T05:11:56Z</time>
      </trkpt>
      <trkpt lat="44.16234" lon="5.15746">
        <ele>695.7</ele>
        <time>2022-07-21T05:11:57Z</time>
      </trkpt>
      <trkpt lat="44.16234" lon="5.15752">
        <ele>695.8</ele>
        <time>2022-07-21T05:11:58Z</time>
      </trkpt>
      <trkpt lat="44.16234" lon="5.15754">
        <ele>695.9</ele>
        <time>2022-07-21T05:11:59Z</time>
      </trkpt>
      <trkpt lat="44.16235" lon="5.15759">
        <ele>696</ele>
        <time>2022-07-21T05:12:00Z</time>
      </trkpt>
      <trkpt lat="44.16235" lon="5.15761">
        <ele>696.1</ele>
        <time>2022-07-21T05:12:01Z</time>
      </trkpt>
      <trkpt lat="44.16236" lon="5.15766">
        <ele>696.2</ele>
        <time>2022-07-21T05:12:02Z</time>
      </trkpt>
      <trkpt lat="44.16236" lon="5.15768">
        <ele>696.2</ele>
        <time>2022-07-21T05:12:03Z</time>
      </trkpt>
      <trkpt lat="44.16237" lon="5.15773">
        <ele>696.4</ele>
        <time>2022-07-21T05:12:04Z</time>
      </trkpt>
      <trkpt lat="44.16237" lon="5.15774">
        <ele>696.4</ele>
        <time>2022-07-21T05:12:05Z</time>
      </trkpt>
      <trkpt lat="44.16237" lon="5.15779">
        <ele>696.6</ele>
        <time>2022-07-21T05:12:06Z</time>
      </trkpt>
      <trkpt lat="44.16238" lon="5.15781">
        <ele>696.6</ele>
        <time>2022-07-21T05:12:07Z</time>
      </trkpt>
      <trkpt lat="44.16238" lon="5.15785">
        <ele>696.7</ele>
        <time>2022-07-21T05:12:08Z</time>
      </trkpt>
      <trkpt lat="44.1624" lon="5.1579">
        <ele>696.8</ele>
        <time>2022-07-21T05:12:09Z</time>
      </trkpt>
      <trkpt lat="44.1624" lon="5.15791">
        <ele>696.9</ele>
        <time>2022-07-21T05:12:10Z</time>
      </trkpt>
      <trkpt lat="44.16241" lon="5.15795">
        <ele>697</ele>
        <time>2022-07-21T05:12:11Z</time>
      </trkpt>
      <trkpt lat="44.16241" lon="5.15796">
        <ele>697</ele>
        <time>2022-07-21T05:12:12Z</time>
      </trkpt>
      <trkpt lat="44.16242" lon="5.15801">
        <ele>697.2</ele>
        <time>2022-07-21T05:12:13Z</time>
      </trkpt>
      <trkpt lat="44.16242" lon="5.15803">
        <ele>697.2</ele>
        <time>2022-07-21T05:12:14Z</time>
      </trkpt>
      <trkpt lat="44.16242" lon="5.15807">
        <ele>697.3</ele>
        <time>2022-07-21T05:12:15Z</time>
      </trkpt>
      <trkpt lat="44.16242" lon="5.15809">
        <ele>697.4</ele>
        <time>2022-07-21T05:12:16Z</time>
      </trkpt>
      <trkpt lat="44.16242" lon="5.15814">
        <ele>697.5</ele>
        <time>2022-07-21T05:12:17Z</time>
      </trkpt>
      <trkpt lat="44.16243" lon="5.15816">
        <ele>697.5</ele>
        <time>2022-07-21T05:12:18Z</time>
      </trkpt>
      <trkpt lat="44.16243" lon="5.1582">
        <ele>697.6</ele>
        <time>2022-07-21T05:12:19Z</time>
      </trkpt>
      <trkpt lat="44.16243" lon="5.15822">
        <ele>697.7</ele>
        <time>2022-07-21T05:12:20Z</time>
      </trkpt>
      <trkpt lat="44.16244" lon="5.15826">
        <ele>697.8</ele>
        <time>2022-07-21T05:12:21Z</time>
      </trkpt>
      <trkpt lat="44.16244" lon="5.15828">
        <ele>697.8</ele>
        <time>2022-07-21T05:12:22Z</time>
      </trkpt>
      <trkpt lat="44.16245" lon="5.15833">
        <ele>697.9</ele>
        <time>2022-07-21T05:12:23Z</time>
      </trkpt>
      <trkpt lat="44.16246" lon="5.15835">
        <ele>698</ele>
        <time>2022-07-21T05:12:24Z</time>
      </trkpt>
      <trkpt lat="44.16247" lon="5.1584">
        <ele>698.1</ele>
        <time>2022-07-21T05:12:25Z</time>
      </trkpt>
      <trkpt lat="44.16247" lon="5.15842">
        <ele>698.1</ele>
        <time>2022-07-21T05:12:26Z</time>
      </trkpt>
      <trkpt lat="44.16248" lon="5.15846">
        <ele>698.2</ele>
        <time>2022-07-21T05:12:27Z</time>
      </trkpt>
      <trkpt lat="44.16249" lon="5.15851">
        <ele>698.3</ele>
        <time>2022-07-21T05:12:28Z</time>
      </trkpt>
      <trkpt lat="44.16249" lon="5.15853">
        <ele>698.4</ele>
        <time>2022-07-21T05:12:29Z</time>
      </trkpt>
      <trkpt lat="44.1625" lon="5.15856">
        <ele>698.4</ele>
        <time>2022-07-21T05:12:30Z</time>
      </trkpt>
      <trkpt lat="44.16251" lon="5.1586">
        <ele>698.5</ele>
        <time>2022-07-21T05:12:31Z</time>
      </trkpt>
      <trkpt lat="44.16252" lon="5.15863">
        <ele>698.6</ele>
        <time>2022-07-21T05:12:32Z</time>
      </trkpt>
      <trkpt lat="44.16254" lon="5.15867">
        <ele>698.6</ele>
        <time>2022-07-21T05:12:33Z</time>
      </trkpt>
      <trkpt lat="44.16255" lon="5.1587">
        <ele>698.7</ele>
        <time>2022-07-21T05:12:34Z</time>
      </trkpt>
      <trkpt lat="44.16257" lon="5.15873">
        <ele>698.7</ele>
        <time>2022-07-21T05:12:35Z</time>
      </trkpt>
      <trkpt lat="44.16259" lon="5.15876">
        <ele>698.7</ele>
        <time>2022-07-21T05:12:36Z</time>
      </trkpt>
      <trkpt lat="44.16261" lon="5.15878">
        <ele>698.8</ele>
        <time>2022-07-21T05:12:37Z</time>
      </trkpt>
      <trkpt lat="44.16263" lon="5.15881">
        <ele>698.8</ele>
        <time>2022-07-21T05:12:38Z</time>
      </trkpt>
      <trkpt lat="44.16266" lon="5.15883">
        <ele>698.9</ele>
        <time>2022-07-21T05:12:39Z</time>
      </trkpt>
      <trkpt lat="44.16268" lon="5.15885">
        <ele>698.9</ele>
        <time>2022-07-21T05:12:40Z</time>
      </trkpt>
      <trkpt lat="44.1627" lon="5.15887">
        <ele>698.9</ele>
        <time>2022-07-21T05:12:41Z</time>
      </trkpt>
      <trkpt lat="44.16274" lon="5.15891">
        <ele>699</ele>
        <time>2022-07-21T05:12:42Z</time>
      </trkpt>
      <trkpt lat="44.16275" lon="5.15892">
        <ele>699</ele>
        <time>2022-07-21T05:12:43Z</time>
      </trkpt>
      <trkpt lat="44.16277" lon="5.15894">
        <ele>699</ele>
        <time>2022-07-21T05:12:44Z</time>
      </trkpt>
      <trkpt lat="44.1628" lon="5.15895">
        <ele>699.1</ele>
        <time>2022-07-21T05:12:45Z</time>
      </trkpt>
      <trkpt lat="44.16282" lon="5.15897">
        <ele>699.1</ele>
        <time>2022-07-21T05:12:46Z</time>
      </trkpt>
      <trkpt lat="44.16285" lon="5.15899">
        <ele>699.1</ele>
        <time>2022-07-21T05:12:47Z</time>
      </trkpt>
      <trkpt lat="44.16288" lon="5.15901">
        <ele>699.2</ele>
        <time>2022-07-21T05:12:48Z</time>
      </trkpt>
      <trkpt lat="44.16289" lon="5.15902">
        <ele>699.2</ele>
        <time>2022-07-21T05:12:49Z</time>
      </trkpt>
      <trkpt lat="44.16292" lon="5.15904">
        <ele>699.2</ele>
        <time>2022-07-21T05:12:50Z</time>
      </trkpt>
      <trkpt lat="44.16295" lon="5.15906">
        <ele>699.3</ele>
        <time>2022-07-21T05:12:51Z</time>
      </trkpt>
      <trkpt lat="44.16296" lon="5.15907">
        <ele>699.3</ele>
        <time>2022-07-21T05:12:52Z</time>
      </trkpt>
      <trkpt lat="44.16299" lon="5.15909">
        <ele>699.3</ele>
        <time>2022-07-21T05:12:53Z</time>
      </trkpt>
      <trkpt lat="44.16302" lon="5.15912">
        <ele>699.4</ele>
        <time>2022-07-21T05:12:54Z</time>
      </trkpt>
      <trkpt lat="44.16303" lon="5.15912">
        <ele>699.4</ele>
        <time>2022-07-21T05:12:55Z</time>
      </trkpt>
      <trkpt lat="44.16307" lon="5.15915">
        <ele>699.5</ele>
        <time>2022-07-21T05:12:56Z</time>
      </trkpt>
      <trkpt lat="44.16308" lon="5.15916">
        <ele>699.5</ele>
        <time>2022-07-21T05:12:57Z</time>
      </trkpt>
      <trkpt lat="44.16311" lon="5.15918">
        <ele>699.5</ele>
        <time>2022-07-21T05:12:58Z</time>
      </trkpt>
      <trkpt lat="44.16311" lon="5.15918">
        <ele>699.6</ele>
        <time>2022-07-21T05:12:59Z</time>
      </trkpt>
      <trkpt lat="44.16315" lon="5.15921">
        <ele>699.6</ele>
        <time>2022-07-21T05:13:00Z</time>
      </trkpt>
      <trkpt lat="44.16316" lon="5.15922">
        <ele>699.6</ele>
        <time>2022-07-21T05:13:01Z</time>
      </trkpt>
      <trkpt lat="44.16319" lon="5.15926">
        <ele>699.7</ele>
        <time>2022-07-21T05:13:02Z</time>
      </trkpt>
      <trkpt lat="44.1632" lon="5.15927">
        <ele>699.7</ele>
        <time>2022-07-21T05:13:03Z</time>
      </trkpt>
      <trkpt lat="44.16323" lon="5.15929">
        <ele>699.8</ele>
        <time>2022-07-21T05:13:04Z</time>
      </trkpt>
      <trkpt lat="44.16325" lon="5.1593">
        <ele>699.8</ele>
        <time>2022-07-21T05:13:05Z</time>
      </trkpt>
      <trkpt lat="44.16328" lon="5.15931">
        <ele>699.9</ele>
        <time>2022-07-21T05:13:06Z</time>
      </trkpt>
      <trkpt lat="44.16332" lon="5.15932">
        <ele>699.9</ele>
        <time>2022-07-21T05:13:07Z</time>
      </trkpt>
      <trkpt lat="44.16334" lon="5.15933">
        <ele>700</ele>
        <time>2022-07-21T05:13:08Z</time>
      </trkpt>
      <trkpt lat="44.16337" lon="5.15933">
        <ele>700</ele>
        <time>2022-07-21T05:13:09Z</time>
      </trkpt>
      <trkpt lat="44.1634" lon="5.15934">
        <ele>700.1</ele>
        <time>2022-07-21T05:13:10Z</time>
      </trkpt>
      <trkpt lat="44.16344" lon="5.15934">
        <ele>700.1</ele>
        <time>2022-07-21T05:13:11Z</time>
      </trkpt>
      <trkpt lat="44.16347" lon="5.15935">
        <ele>700.2</ele>
        <time>2022-07-21T05:13:12Z</time>
      </trkpt>
      <trkpt lat="44.1635" lon="5.15935">
        <ele>700.2</ele>
        <time>2022-07-21T05:13:13Z</time>
      </trkpt>
      <trkpt lat="44.16353" lon="5.15936">
        <ele>700.3</ele>
        <time>2022-07-21T05:13:14Z</time>
      </trkpt>
      <trkpt lat="44.16356" lon="5.15936">
        <ele>700.4</ele>
        <time>2022-07-21T05:13:15Z</time>
      </trkpt>
      <trkpt lat="44.16358" lon="5.15937">
        <ele>700.5</ele>
        <time>2022-07-21T05:13:16Z</time>
      </trkpt>
      <trkpt lat="44.16361" lon="5.15937">
        <ele>700.5</ele>
        <time>2022-07-21T05:13:17Z</time>
      </trkpt>
      <trkpt lat="44.16364" lon="5.15937">
        <ele>700.6</ele>
        <time>2022-07-21T05:13:18Z</time>
      </trkpt>
      <trkpt lat="44.16367" lon="5.15938">
        <ele>700.7</ele>
        <time>2022-07-21T05:13:19Z</time>
      </trkpt>
      <trkpt lat="44.1637" lon="5.15939">
        <ele>700.7</ele>
        <time>2022-07-21T05:13:20Z</time>
      </trkpt>
      <trkpt lat="44.16373" lon="5.15939">
        <ele>700.8</ele>
        <time>2022-07-21T05:13:21Z</time>
      </trkpt>
      <trkpt lat="44.16376" lon="5.15939">
        <ele>700.9</ele>
        <time>2022-07-21T05:13:22Z</time>
      </trkpt>
      <trkpt lat="44.16379" lon="5.1594">
        <ele>700.9</ele>
        <time>2022-07-21T05:13:23Z</time>
      </trkpt>
      <trkpt lat="44.16382" lon="5.1594">
        <ele>701</ele>
        <time>2022-07-21T05:13:24Z</time>
      </trkpt>
      <trkpt lat="44.16385" lon="5.1594">
        <ele>701</ele>
        <time>2022-07-21T05:13:25Z</time>
      </trkpt>
      <trkpt lat="44.16388" lon="5.15941">
        <ele>701.1</ele>
        <time>2022-07-21T05:13:26Z</time>
      </trkpt>
      <trkpt lat="44.1639" lon="5.15942">
        <ele>701.2</ele>
        <time>2022-07-21T05:13:27Z</time>
      </trkpt>
      <trkpt lat="44.16393" lon="5.15943">
        <ele>701.2</ele>
        <time>2022-07-21T05:13:28Z</time>
      </trkpt>
      <trkpt lat="44.16396" lon="5.15944">
        <ele>701.3</ele>
        <time>2022-07-21T05:13:29Z</time>
      </trkpt>
      <trkpt lat="44.16399" lon="5.15945">
        <ele>701.4</ele>
        <time>2022-07-21T05:13:30Z</time>
      </trkpt>
      <trkpt lat="44.16402" lon="5.15947">
        <ele>701.5</ele>
        <time>2022-07-21T05:13:31Z</time>
      </trkpt>
      <trkpt lat="44.16404" lon="5.15949">
        <ele>701.6</ele>
        <time>2022-07-21T05:13:32Z</time>
      </trkpt>
      <trkpt lat="44.16407" lon="5.15951">
        <ele>701.7</ele>
        <time>2022-07-21T05:13:33Z</time>
      </trkpt>
      <trkpt lat="44.16409" lon="5.15953">
        <ele>701.8</ele>
        <time>2022-07-21T05:13:34Z</time>
      </trkpt>
      <trkpt lat="44.16413" lon="5.15956">
        <ele>702</ele>
        <time>2022-07-21T05:13:35Z</time>
      </trkpt>
      <trkpt lat="44.16414" lon="5.15957">
        <ele>702</ele>
        <time>2022-07-21T05:13:36Z</time>
      </trkpt>
      <trkpt lat="44.16417" lon="5.1596">
        <ele>702.2</ele>
        <time>2022-07-21T05:13:37Z</time>
      </trkpt>
      <trkpt lat="44.16418" lon="5.15961">
        <ele>702.2</ele>
        <time>2022-07-21T05:13:38Z</time>
      </trkpt>
      <trkpt lat="44.1642" lon="5.15964">
        <ele>702.4</ele>
        <time>2022-07-21T05:13:39Z</time>
      </trkpt>
      <trkpt lat="44.16421" lon="5.15965">
        <ele>702.4</ele>
        <time>2022-07-21T05:13:40Z</time>
      </trkpt>
      <trkpt lat="44.16423" lon="5.15968">
        <ele>702.6</ele>
        <time>2022-07-21T05:13:41Z</time>
      </trkpt>
      <trkpt lat="44.16424" lon="5.15969">
        <ele>702.6</ele>
        <time>2022-07-21T05:13:42Z</time>
      </trkpt>
      <trkpt lat="44.16426" lon="5.15972">
        <ele>702.8</ele>
        <time>2022-07-21T05:13:43Z</time>
      </trkpt>
      <trkpt lat="44.16427" lon="5.15972">
        <ele>702.8</ele>
        <time>2022-07-21T05:13:44Z</time>
      </trkpt>
      <trkpt lat="44.16429" lon="5.15975">
        <ele>703</ele>
        <time>2022-07-21T05:13:45Z</time>
      </trkpt>
      <trkpt lat="44.16429" lon="5.15976">
        <ele>703.1</ele>
        <time>2022-07-21T05:13:46Z</time>
      </trkpt>
      <trkpt lat="44.16431" lon="5.15979">
        <ele>703.3</ele>
        <time>2022-07-21T05:13:47Z</time>
      </trkpt>
      <trkpt lat="44.16432" lon="5.1598">
        <ele>703.3</ele>
        <time>2022-07-21T05:13:48Z</time>
      </trkpt>
      <trkpt lat="44.16434" lon="5.15983">
        <ele>703.5</ele>
        <time>2022-07-21T05:13:49Z</time>
      </trkpt>
      <trkpt lat="44.16435" lon="5.15984">
        <ele>703.6</ele>
        <time>2022-07-21T05:13:50Z</time>
      </trkpt>
      <trkpt lat="44.16437" lon="5.15987">
        <ele>703.8</ele>
        <time>2022-07-21T05:13:52Z</time>
      </trkpt>
      <trkpt lat="44.16438" lon="5.15988">
        <ele>703.8</ele>
        <time>2022-07-21T05:13:53Z</time>
      </trkpt>
      <trkpt lat="44.1644" lon="5.15991">
        <ele>704</ele>
        <time>2022-07-21T05:13:54Z</time>
      </trkpt>
      <trkpt lat="44.1644" lon="5.15992">
        <ele>704.1</ele>
        <time>2022-07-21T05:13:55Z</time>
      </trkpt>
      <trkpt lat="44.16442" lon="5.15995">
        <ele>704.3</ele>
        <time>2022-07-21T05:13:56Z</time>
      </trkpt>
      <trkpt lat="44.16442" lon="5.15996">
        <ele>704.4</ele>
        <time>2022-07-21T05:13:57Z</time>
      </trkpt>
      <trkpt lat="44.16444" lon="5.15999">
        <ele>704.6</ele>
        <time>2022-07-21T05:13:58Z</time>
      </trkpt>
      <trkpt lat="44.16445" lon="5.16">
        <ele>704.7</ele>
        <time>2022-07-21T05:13:59Z</time>
      </trkpt>
      <trkpt lat="44.16446" lon="5.16004">
        <ele>704.9</ele>
        <time>2022-07-21T05:14:00Z</time>
      </trkpt>
      <trkpt lat="44.16447" lon="5.16005">
        <ele>705</ele>
        <time>2022-07-21T05:14:01Z</time>
      </trkpt>
      <trkpt lat="44.16449" lon="5.16008">
        <ele>705.2</ele>
        <time>2022-07-21T05:14:02Z</time>
      </trkpt>
      <trkpt lat="44.16449" lon="5.16009">
        <ele>705.2</ele>
        <time>2022-07-21T05:14:03Z</time>
      </trkpt>
      <trkpt lat="44.16451" lon="5.16012">
        <ele>705.5</ele>
        <time>2022-07-21T05:14:04Z</time>
      </trkpt>
      <trkpt lat="44.16451" lon="5.16013">
        <ele>705.5</ele>
        <time>2022-07-21T05:14:05Z</time>
      </trkpt>
      <trkpt lat="44.16453" lon="5.16017">
        <ele>705.8</ele>
        <time>2022-07-21T05:14:06Z</time>
      </trkpt>
      <trkpt lat="44.16453" lon="5.16018">
        <ele>705.8</ele>
        <time>2022-07-21T05:14:07Z</time>
      </trkpt>
      <trkpt lat="44.16455" lon="5.16022">
        <ele>706.1</ele>
        <time>2022-07-21T05:14:08Z</time>
      </trkpt>
      <trkpt lat="44.16455" lon="5.16023">
        <ele>706.1</ele>
        <time>2022-07-21T05:14:09Z</time>
      </trkpt>
      <trkpt lat="44.16457" lon="5.16027">
        <ele>706.4</ele>
        <time>2022-07-21T05:14:10Z</time>
      </trkpt>
      <trkpt lat="44.16457" lon="5.16028">
        <ele>706.4</ele>
        <time>2022-07-21T05:14:11Z</time>
      </trkpt>
      <trkpt lat="44.16458" lon="5.1603">
        <ele>706.6</ele>
        <time>2022-07-21T05:14:12Z</time>
      </trkpt>
      <trkpt lat="44.16459" lon="5.16032">
        <ele>706.7</ele>
        <time>2022-07-21T05:14:13Z</time>
      </trkpt>
      <trkpt lat="44.16459" lon="5.16034">
        <ele>706.8</ele>
        <time>2022-07-21T05:14:14Z</time>
      </trkpt>
      <trkpt lat="44.1646" lon="5.16036">
        <ele>706.9</ele>
        <time>2022-07-21T05:14:15Z</time>
      </trkpt>
      <trkpt lat="44.16461" lon="5.1604">
        <ele>707.2</ele>
        <time>2022-07-21T05:14:16Z</time>
      </trkpt>
      <trkpt lat="44.16461" lon="5.16041">
        <ele>707.2</ele>
        <time>2022-07-21T05:14:17Z</time>
      </trkpt>
      <trkpt lat="44.16463" lon="5.16046">
        <ele>707.5</ele>
        <time>2022-07-21T05:14:18Z</time>
      </trkpt>
      <trkpt lat="44.16463" lon="5.16048">
        <ele>707.6</ele>
        <time>2022-07-21T05:14:19Z</time>
      </trkpt>
      <trkpt lat="44.16464" lon="5.1605">
        <ele>707.7</ele>
        <time>2022-07-21T05:14:20Z</time>
      </trkpt>
      <trkpt lat="44.16464" lon="5.16052">
        <ele>707.8</ele>
        <time>2022-07-21T05:14:21Z</time>
      </trkpt>
      <trkpt lat="44.16465" lon="5.16054">
        <ele>707.9</ele>
        <time>2022-07-21T05:14:22Z</time>
      </trkpt>
      <trkpt lat="44.16465" lon="5.16057">
        <ele>708.1</ele>
        <time>2022-07-21T05:14:23Z</time>
      </trkpt>
      <trkpt lat="44.16466" lon="5.16059">
        <ele>708.2</ele>
        <time>2022-07-21T05:14:24Z</time>
      </trkpt>
      <trkpt lat="44.16467" lon="5.16061">
        <ele>708.3</ele>
        <time>2022-07-21T05:14:25Z</time>
      </trkpt>
      <trkpt lat="44.16468" lon="5.16065">
        <ele>708.5</ele>
        <time>2022-07-21T05:14:26Z</time>
      </trkpt>
      <trkpt lat="44.16468" lon="5.16066">
        <ele>708.6</ele>
        <time>2022-07-21T05:14:27Z</time>
      </trkpt>
      <trkpt lat="44.1647" lon="5.16069">
        <ele>708.8</ele>
        <time>2022-07-21T05:14:28Z</time>
      </trkpt>
      <trkpt lat="44.1647" lon="5.1607">
        <ele>708.8</ele>
        <time>2022-07-21T05:14:29Z</time>
      </trkpt>
      <trkpt lat="44.16471" lon="5.16072">
        <ele>709</ele>
        <time>2022-07-21T05:14:30Z</time>
      </trkpt>
      <trkpt lat="44.16471" lon="5.16074">
        <ele>709</ele>
        <time>2022-07-21T05:14:31Z</time>
      </trkpt>
      <trkpt lat="44.16471" lon="5.16076">
        <ele>709.1</ele>
        <time>2022-07-21T05:14:32Z</time>
      </trkpt>
      <trkpt lat="44.16472" lon="5.16078">
        <ele>709.2</ele>
        <time>2022-07-21T05:14:33Z</time>
      </trkpt>
      <trkpt lat="44.16473" lon="5.1608">
        <ele>709.4</ele>
        <time>2022-07-21T05:14:34Z</time>
      </trkpt>
      <trkpt lat="44.16473" lon="5.16081">
        <ele>709.4</ele>
        <time>2022-07-21T05:14:35Z</time>
      </trkpt>
      <trkpt lat="44.16474" lon="5.16083">
        <ele>709.5</ele>
        <time>2022-07-21T05:14:36Z</time>
      </trkpt>
      <trkpt lat="44.16474" lon="5.16086">
        <ele>709.7</ele>
        <time>2022-07-21T05:14:37Z</time>
      </trkpt>
      <trkpt lat="44.16475" lon="5.16088">
        <ele>709.8</ele>
        <time>2022-07-21T05:14:38Z</time>
      </trkpt>
      <trkpt lat="44.16475" lon="5.1609">
        <ele>709.9</ele>
        <time>2022-07-21T05:14:39Z</time>
      </trkpt>
      <trkpt lat="44.16475" lon="5.16092">
        <ele>710</ele>
        <time>2022-07-21T05:14:40Z</time>
      </trkpt>
      <trkpt lat="44.16476" lon="5.16094">
        <ele>710.1</ele>
        <time>2022-07-21T05:14:41Z</time>
      </trkpt>
      <trkpt lat="44.16476" lon="5.16097">
        <ele>710.2</ele>
        <time>2022-07-21T05:14:42Z</time>
      </trkpt>
      <trkpt lat="44.16476" lon="5.16098">
        <ele>710.3</ele>
        <time>2022-07-21T05:14:43Z</time>
      </trkpt>
      <trkpt lat="44.16476" lon="5.16099">
        <ele>710.4</ele>
        <time>2022-07-21T05:14:44Z</time>
      </trkpt>
      <trkpt lat="44.16476" lon="5.16101">
        <ele>710.5</ele>
        <time>2022-07-21T05:14:45Z</time>
      </trkpt>
      <trkpt lat="44.16476" lon="5.16104">
        <ele>710.6</ele>
        <time>2022-07-21T05:14:46Z</time>
      </trkpt>
      <trkpt lat="44.16476" lon="5.16106">
        <ele>710.7</ele>
        <time>2022-07-21T05:14:47Z</time>
      </trkpt>
      <trkpt lat="44.16477" lon="5.16109">
        <ele>710.8</ele>
        <time>2022-07-21T05:14:48Z</time>
      </trkpt>
      <trkpt lat="44.16477" lon="5.16113">
        <ele>711</ele>
        <time>2022-07-21T05:14:49Z</time>
      </trkpt>
      <trkpt lat="44.16477" lon="5.16114">
        <ele>711.1</ele>
        <time>2022-07-21T05:14:50Z</time>
      </trkpt>
      <trkpt lat="44.16477" lon="5.16116">
        <ele>711.2</ele>
        <time>2022-07-21T05:14:51Z</time>
      </trkpt>
      <trkpt lat="44.16478" lon="5.16118">
        <ele>711.3</ele>
        <time>2022-07-21T05:14:52Z</time>
      </trkpt>
      <trkpt lat="44.16478" lon="5.16121">
        <ele>711.5</ele>
        <time>2022-07-21T05:14:53Z</time>
      </trkpt>
      <trkpt lat="44.16478" lon="5.16123">
        <ele>711.6</ele>
        <time>2022-07-21T05:14:54Z</time>
      </trkpt>
      <trkpt lat="44.16479" lon="5.16125">
        <ele>711.7</ele>
        <time>2022-07-21T05:14:55Z</time>
      </trkpt>
      <trkpt lat="44.16479" lon="5.16127">
        <ele>711.8</ele>
        <time>2022-07-21T05:14:56Z</time>
      </trkpt>
      <trkpt lat="44.16479" lon="5.1613">
        <ele>712</ele>
        <time>2022-07-21T05:14:57Z</time>
      </trkpt>
      <trkpt lat="44.16479" lon="5.16132">
        <ele>712.1</ele>
        <time>2022-07-21T05:14:58Z</time>
      </trkpt>
      <trkpt lat="44.1648" lon="5.16134">
        <ele>712.2</ele>
        <time>2022-07-21T05:14:59Z</time>
      </trkpt>
      <trkpt lat="44.1648" lon="5.16136">
        <ele>712.4</ele>
        <time>2022-07-21T05:15:00Z</time>
      </trkpt>
      <trkpt lat="44.16481" lon="5.16139">
        <ele>712.5</ele>
        <time>2022-07-21T05:15:01Z</time>
      </trkpt>
      <trkpt lat="44.16481" lon="5.16141">
        <ele>712.6</ele>
        <time>2022-07-21T05:15:02Z</time>
      </trkpt>
      <trkpt lat="44.16481" lon="5.16144">
        <ele>712.8</ele>
        <time>2022-07-21T05:15:03Z</time>
      </trkpt>
      <trkpt lat="44.16482" lon="5.16146">
        <ele>712.9</ele>
        <time>2022-07-21T05:15:04Z</time>
      </trkpt>
      <trkpt lat="44.16482" lon="5.1615">
        <ele>713.1</ele>
        <time>2022-07-21T05:15:05Z</time>
      </trkpt>
      <trkpt lat="44.16483" lon="5.16151">
        <ele>713.2</ele>
        <time>2022-07-21T05:15:06Z</time>
      </trkpt>
      <trkpt lat="44.16483" lon="5.16155">
        <ele>713.5</ele>
        <time>2022-07-21T05:15:07Z</time>
      </trkpt>
      <trkpt lat="44.16483" lon="5.16156">
        <ele>713.5</ele>
        <time>2022-07-21T05:15:08Z</time>
      </trkpt>
      <trkpt lat="44.16484" lon="5.1616">
        <ele>713.8</ele>
        <time>2022-07-21T05:15:09Z</time>
      </trkpt>
      <trkpt lat="44.16484" lon="5.16161">
        <ele>713.8</ele>
        <time>2022-07-21T05:15:10Z</time>
      </trkpt>
      <trkpt lat="44.16484" lon="5.16164">
        <ele>714</ele>
        <time>2022-07-21T05:15:11Z</time>
      </trkpt>
      <trkpt lat="44.16485" lon="5.16166">
        <ele>714.1</ele>
        <time>2022-07-21T05:15:12Z</time>
      </trkpt>
      <trkpt lat="44.16485" lon="5.16168">
        <ele>714.3</ele>
        <time>2022-07-21T05:15:13Z</time>
      </trkpt>
      <trkpt lat="44.16486" lon="5.1617">
        <ele>714.4</ele>
        <time>2022-07-21T05:15:14Z</time>
      </trkpt>
      <trkpt lat="44.16486" lon="5.16173">
        <ele>714.5</ele>
        <time>2022-07-21T05:15:15Z</time>
      </trkpt>
      <trkpt lat="44.16486" lon="5.16175">
        <ele>714.7</ele>
        <time>2022-07-21T05:15:16Z</time>
      </trkpt>
      <trkpt lat="44.16487" lon="5.16179">
        <ele>714.9</ele>
        <time>2022-07-21T05:15:17Z</time>
      </trkpt>
      <trkpt lat="44.16487" lon="5.1618">
        <ele>715</ele>
        <time>2022-07-21T05:15:18Z</time>
      </trkpt>
      <trkpt lat="44.16488" lon="5.16182">
        <ele>715.2</ele>
        <time>2022-07-21T05:15:19Z</time>
      </trkpt>
      <trkpt lat="44.16488" lon="5.16185">
        <ele>715.3</ele>
        <time>2022-07-21T05:15:20Z</time>
      </trkpt>
      <trkpt lat="44.16489" lon="5.16188">
        <ele>715.6</ele>
        <time>2022-07-21T05:15:21Z</time>
      </trkpt>
      <trkpt lat="44.16489" lon="5.1619">
        <ele>715.6</ele>
        <time>2022-07-21T05:15:22Z</time>
      </trkpt>
      <trkpt lat="44.16491" lon="5.16193">
        <ele>715.9</ele>
        <time>2022-07-21T05:15:23Z</time>
      </trkpt>
      <trkpt lat="44.16491" lon="5.16195">
        <ele>716</ele>
        <time>2022-07-21T05:15:24Z</time>
      </trkpt>
      <trkpt lat="44.16492" lon="5.16196">
        <ele>716.1</ele>
        <time>2022-07-21T05:15:25Z</time>
      </trkpt>
      <trkpt lat="44.16492" lon="5.16198">
        <ele>716.2</ele>
        <time>2022-07-21T05:15:26Z</time>
      </trkpt>
      <trkpt lat="44.16494" lon="5.16202">
        <ele>716.5</ele>
        <time>2022-07-21T05:15:27Z</time>
      </trkpt>
      <trkpt lat="44.16494" lon="5.16203">
        <ele>716.6</ele>
        <time>2022-07-21T05:15:28Z</time>
      </trkpt>
      <trkpt lat="44.16494" lon="5.16205">
        <ele>716.7</ele>
        <time>2022-07-21T05:15:29Z</time>
      </trkpt>
      <trkpt lat="44.16495" lon="5.16207">
        <ele>716.8</ele>
        <time>2022-07-21T05:15:30Z</time>
      </trkpt>
      <trkpt lat="44.16495" lon="5.16209">
        <ele>717</ele>
        <time>2022-07-21T05:15:31Z</time>
      </trkpt>
      <trkpt lat="44.16496" lon="5.16212">
        <ele>717.1</ele>
        <time>2022-07-21T05:15:32Z</time>
      </trkpt>
      <trkpt lat="44.16497" lon="5.16215">
        <ele>717.4</ele>
        <time>2022-07-21T05:15:33Z</time>
      </trkpt>
      <trkpt lat="44.16497" lon="5.16216">
        <ele>717.4</ele>
        <time>2022-07-21T05:15:34Z</time>
      </trkpt>
      <trkpt lat="44.16499" lon="5.1622">
        <ele>717.7</ele>
        <time>2022-07-21T05:15:35Z</time>
      </trkpt>
      <trkpt lat="44.16499" lon="5.16221">
        <ele>717.8</ele>
        <time>2022-07-21T05:15:36Z</time>
      </trkpt>
      <trkpt lat="44.16501" lon="5.16224">
        <ele>718</ele>
        <time>2022-07-21T05:15:37Z</time>
      </trkpt>
      <trkpt lat="44.16501" lon="5.16226">
        <ele>718.1</ele>
        <time>2022-07-21T05:15:38Z</time>
      </trkpt>
      <trkpt lat="44.16503" lon="5.16229">
        <ele>718.3</ele>
        <time>2022-07-21T05:15:39Z</time>
      </trkpt>
      <trkpt lat="44.16503" lon="5.1623">
        <ele>718.4</ele>
        <time>2022-07-21T05:15:40Z</time>
      </trkpt>
      <trkpt lat="44.16505" lon="5.16233">
        <ele>718.6</ele>
        <time>2022-07-21T05:15:41Z</time>
      </trkpt>
      <trkpt lat="44.16506" lon="5.16234">
        <ele>718.7</ele>
        <time>2022-07-21T05:15:42Z</time>
      </trkpt>
      <trkpt lat="44.16507" lon="5.16236">
        <ele>718.8</ele>
        <time>2022-07-21T05:15:43Z</time>
      </trkpt>
      <trkpt lat="44.16508" lon="5.16238">
        <ele>718.9</ele>
        <time>2022-07-21T05:15:44Z</time>
      </trkpt>
      <trkpt lat="44.16509" lon="5.1624">
        <ele>719.1</ele>
        <time>2022-07-21T05:15:45Z</time>
      </trkpt>
      <trkpt lat="44.1651" lon="5.16242">
        <ele>719.2</ele>
        <time>2022-07-21T05:15:46Z</time>
      </trkpt>
      <trkpt lat="44.16512" lon="5.16245">
        <ele>719.4</ele>
        <time>2022-07-21T05:15:47Z</time>
      </trkpt>
      <trkpt lat="44.16512" lon="5.16246">
        <ele>719.5</ele>
        <time>2022-07-21T05:15:48Z</time>
      </trkpt>
      <trkpt lat="44.16514" lon="5.16248">
        <ele>719.6</ele>
        <time>2022-07-21T05:15:49Z</time>
      </trkpt>
      <trkpt lat="44.16515" lon="5.16249">
        <ele>719.8</ele>
        <time>2022-07-21T05:15:50Z</time>
      </trkpt>
      <trkpt lat="44.16516" lon="5.16251">
        <ele>719.9</ele>
        <time>2022-07-21T05:15:51Z</time>
      </trkpt>
      <trkpt lat="44.16517" lon="5.16253">
        <ele>720</ele>
        <time>2022-07-21T05:15:52Z</time>
      </trkpt>
      <trkpt lat="44.16519" lon="5.16256">
        <ele>720.2</ele>
        <time>2022-07-21T05:15:53Z</time>
      </trkpt>
      <trkpt lat="44.16519" lon="5.16257">
        <ele>720.3</ele>
        <time>2022-07-21T05:15:54Z</time>
      </trkpt>
      <trkpt lat="44.16521" lon="5.16259">
        <ele>720.5</ele>
        <time>2022-07-21T05:15:55Z</time>
      </trkpt>
      <trkpt lat="44.16522" lon="5.1626">
        <ele>720.5</ele>
        <time>2022-07-21T05:15:56Z</time>
      </trkpt>
      <trkpt lat="44.16524" lon="5.16263">
        <ele>720.7</ele>
        <time>2022-07-21T05:15:57Z</time>
      </trkpt>
      <trkpt lat="44.16525" lon="5.16264">
        <ele>720.8</ele>
        <time>2022-07-21T05:15:58Z</time>
      </trkpt>
      <trkpt lat="44.16526" lon="5.16267">
        <ele>721</ele>
        <time>2022-07-21T05:15:59Z</time>
      </trkpt>
      <trkpt lat="44.16527" lon="5.16269">
        <ele>721.1</ele>
        <time>2022-07-21T05:16:00Z</time>
      </trkpt>
      <trkpt lat="44.16529" lon="5.16272">
        <ele>721.3</ele>
        <time>2022-07-21T05:16:01Z</time>
      </trkpt>
      <trkpt lat="44.16529" lon="5.16273">
        <ele>721.3</ele>
        <time>2022-07-21T05:16:02Z</time>
      </trkpt>
      <trkpt lat="44.16531" lon="5.16276">
        <ele>721.5</ele>
        <time>2022-07-21T05:16:03Z</time>
      </trkpt>
      <trkpt lat="44.16532" lon="5.16277">
        <ele>721.6</ele>
        <time>2022-07-21T05:16:04Z</time>
      </trkpt>
      <trkpt lat="44.16534" lon="5.16279">
        <ele>721.8</ele>
        <time>2022-07-21T05:16:05Z</time>
      </trkpt>
      <trkpt lat="44.16534" lon="5.1628">
        <ele>721.8</ele>
        <time>2022-07-21T05:16:06Z</time>
      </trkpt>
      <trkpt lat="44.16536" lon="5.16283">
        <ele>722</ele>
        <time>2022-07-21T05:16:07Z</time>
      </trkpt>
      <trkpt lat="44.16537" lon="5.16284">
        <ele>722.1</ele>
        <time>2022-07-21T05:16:08Z</time>
      </trkpt>
      <trkpt lat="44.16539" lon="5.16287">
        <ele>722.3</ele>
        <time>2022-07-21T05:16:09Z</time>
      </trkpt>
      <trkpt lat="44.1654" lon="5.16288">
        <ele>722.4</ele>
        <time>2022-07-21T05:16:10Z</time>
      </trkpt>
      <trkpt lat="44.16542" lon="5.1629">
        <ele>722.5</ele>
        <time>2022-07-21T05:16:11Z</time>
      </trkpt>
      <trkpt lat="44.16542" lon="5.16291">
        <ele>722.6</ele>
        <time>2022-07-21T05:16:12Z</time>
      </trkpt>
      <trkpt lat="44.16544" lon="5.16294">
        <ele>722.8</ele>
        <time>2022-07-21T05:16:13Z</time>
      </trkpt>
      <trkpt lat="44.16545" lon="5.16295">
        <ele>722.9</ele>
        <time>2022-07-21T05:16:14Z</time>
      </trkpt>
      <trkpt lat="44.16547" lon="5.16298">
        <ele>723.1</ele>
        <time>2022-07-21T05:16:15Z</time>
      </trkpt>
      <trkpt lat="44.16547" lon="5.16299">
        <ele>723.1</ele>
        <time>2022-07-21T05:16:16Z</time>
      </trkpt>
      <trkpt lat="44.16548" lon="5.16301">
        <ele>723.3</ele>
        <time>2022-07-21T05:16:17Z</time>
      </trkpt>
      <trkpt lat="44.16549" lon="5.16303">
        <ele>723.4</ele>
        <time>2022-07-21T05:16:18Z</time>
      </trkpt>
      <trkpt lat="44.1655" lon="5.16305">
        <ele>723.5</ele>
        <time>2022-07-21T05:16:19Z</time>
      </trkpt>
      <trkpt lat="44.16551" lon="5.16307">
        <ele>723.6</ele>
        <time>2022-07-21T05:16:20Z</time>
      </trkpt>
      <trkpt lat="44.16552" lon="5.16309">
        <ele>723.7</ele>
        <time>2022-07-21T05:16:21Z</time>
      </trkpt>
      <trkpt lat="44.16553" lon="5.16311">
        <ele>723.9</ele>
        <time>2022-07-21T05:16:22Z</time>
      </trkpt>
      <trkpt lat="44.16554" lon="5.16313">
        <ele>724</ele>
        <time>2022-07-21T05:16:23Z</time>
      </trkpt>
      <trkpt lat="44.16555" lon="5.16315">
        <ele>724.1</ele>
        <time>2022-07-21T05:16:24Z</time>
      </trkpt>
      <trkpt lat="44.16556" lon="5.16317">
        <ele>724.2</ele>
        <time>2022-07-21T05:16:25Z</time>
      </trkpt>
      <trkpt lat="44.16557" lon="5.16319">
        <ele>724.3</ele>
        <time>2022-07-21T05:16:26Z</time>
      </trkpt>
      <trkpt lat="44.16558" lon="5.16321">
        <ele>724.5</ele>
        <time>2022-07-21T05:16:27Z</time>
      </trkpt>
      <trkpt lat="44.16559" lon="5.16323">
        <ele>724.6</ele>
        <time>2022-07-21T05:16:28Z</time>
      </trkpt>
      <trkpt lat="44.1656" lon="5.16325">
        <ele>724.7</ele>
        <time>2022-07-21T05:16:29Z</time>
      </trkpt>
      <trkpt lat="44.16561" lon="5.16327">
        <ele>724.8</ele>
        <time>2022-07-21T05:16:30Z</time>
      </trkpt>
      <trkpt lat="44.16562" lon="5.16331">
        <ele>725</ele>
        <time>2022-07-21T05:16:31Z</time>
      </trkpt>
      <trkpt lat="44.16563" lon="5.16332">
        <ele>725.1</ele>
        <time>2022-07-21T05:16:32Z</time>
      </trkpt>
      <trkpt lat="44.16563" lon="5.16334">
        <ele>725.2</ele>
        <time>2022-07-21T05:16:33Z</time>
      </trkpt>
      <trkpt lat="44.16564" lon="5.16336">
        <ele>725.3</ele>
        <time>2022-07-21T05:16:34Z</time>
      </trkpt>
      <trkpt lat="44.16565" lon="5.16338">
        <ele>725.5</ele>
        <time>2022-07-21T05:16:35Z</time>
      </trkpt>
      <trkpt lat="44.16567" lon="5.16343">
        <ele>725.7</ele>
        <time>2022-07-21T05:16:37Z</time>
      </trkpt>
      <trkpt lat="44.16568" lon="5.16345">
        <ele>725.9</ele>
        <time>2022-07-21T05:16:38Z</time>
      </trkpt>
      <trkpt lat="44.16569" lon="5.16348">
        <ele>726.1</ele>
        <time>2022-07-21T05:16:39Z</time>
      </trkpt>
      <trkpt lat="44.16569" lon="5.16349">
        <ele>726.2</ele>
        <time>2022-07-21T05:16:40Z</time>
      </trkpt>
      <trkpt lat="44.1657" lon="5.16351">
        <ele>726.3</ele>
        <time>2022-07-21T05:16:41Z</time>
      </trkpt>
      <trkpt lat="44.16571" lon="5.16354">
        <ele>726.4</ele>
        <time>2022-07-21T05:16:42Z</time>
      </trkpt>
      <trkpt lat="44.16571" lon="5.16356">
        <ele>726.6</ele>
        <time>2022-07-21T05:16:43Z</time>
      </trkpt>
      <trkpt lat="44.16572" lon="5.16358">
        <ele>726.7</ele>
        <time>2022-07-21T05:16:44Z</time>
      </trkpt>
      <trkpt lat="44.16573" lon="5.16361">
        <ele>726.9</ele>
        <time>2022-07-21T05:16:45Z</time>
      </trkpt>
      <trkpt lat="44.16574" lon="5.16363">
        <ele>727</ele>
        <time>2022-07-21T05:16:46Z</time>
      </trkpt>
      <trkpt lat="44.16575" lon="5.16365">
        <ele>727.2</ele>
        <time>2022-07-21T05:16:47Z</time>
      </trkpt>
      <trkpt lat="44.16575" lon="5.16367">
        <ele>727.3</ele>
        <time>2022-07-21T05:16:48Z</time>
      </trkpt>
      <trkpt lat="44.16576" lon="5.16371">
        <ele>727.5</ele>
        <time>2022-07-21T05:16:49Z</time>
      </trkpt>
      <trkpt lat="44.16577" lon="5.16372">
        <ele>727.6</ele>
        <time>2022-07-21T05:16:50Z</time>
      </trkpt>
      <trkpt lat="44.16578" lon="5.16375">
        <ele>727.8</ele>
        <time>2022-07-21T05:16:51Z</time>
      </trkpt>
      <trkpt lat="44.16578" lon="5.16377">
        <ele>727.9</ele>
        <time>2022-07-21T05:16:52Z</time>
      </trkpt>
      <trkpt lat="44.16579" lon="5.1638">
        <ele>728.1</ele>
        <time>2022-07-21T05:16:53Z</time>
      </trkpt>
      <trkpt lat="44.16579" lon="5.16382">
        <ele>728.2</ele>
        <time>2022-07-21T05:16:54Z</time>
      </trkpt>
      <trkpt lat="44.1658" lon="5.16385">
        <ele>728.4</ele>
        <time>2022-07-21T05:16:55Z</time>
      </trkpt>
      <trkpt lat="44.16581" lon="5.16386">
        <ele>728.5</ele>
        <time>2022-07-21T05:16:56Z</time>
      </trkpt>
      <trkpt lat="44.16581" lon="5.16389">
        <ele>728.6</ele>
        <time>2022-07-21T05:16:57Z</time>
      </trkpt>
      <trkpt lat="44.16582" lon="5.16391">
        <ele>728.8</ele>
        <time>2022-07-21T05:16:58Z</time>
      </trkpt>
      <trkpt lat="44.16582" lon="5.16393">
        <ele>728.9</ele>
        <time>2022-07-21T05:16:59Z</time>
      </trkpt>
      <trkpt lat="44.16582" lon="5.16396">
        <ele>729</ele>
        <time>2022-07-21T05:17:00Z</time>
      </trkpt>
      <trkpt lat="44.16583" lon="5.16398">
        <ele>729.2</ele>
        <time>2022-07-21T05:17:01Z</time>
      </trkpt>
      <trkpt lat="44.16583" lon="5.164">
        <ele>729.3</ele>
        <time>2022-07-21T05:17:02Z</time>
      </trkpt>
      <trkpt lat="44.16584" lon="5.16402">
        <ele>729.4</ele>
        <time>2022-07-21T05:17:03Z</time>
      </trkpt>
      <trkpt lat="44.16584" lon="5.16404">
        <ele>729.5</ele>
        <time>2022-07-21T05:17:04Z</time>
      </trkpt>
      <trkpt lat="44.16584" lon="5.16408">
        <ele>729.7</ele>
        <time>2022-07-21T05:17:05Z</time>
      </trkpt>
      <trkpt lat="44.16585" lon="5.16409">
        <ele>729.8</ele>
        <time>2022-07-21T05:17:06Z</time>
      </trkpt>
      <trkpt lat="44.16585" lon="5.16413">
        <ele>730</ele>
        <time>2022-07-21T05:17:07Z</time>
      </trkpt>
      <trkpt lat="44.16585" lon="5.16414">
        <ele>730.1</ele>
        <time>2022-07-21T05:17:08Z</time>
      </trkpt>
      <trkpt lat="44.16585" lon="5.16418">
        <ele>730.3</ele>
        <time>2022-07-21T05:17:09Z</time>
      </trkpt>
      <trkpt lat="44.16585" lon="5.16419">
        <ele>730.4</ele>
        <time>2022-07-21T05:17:10Z</time>
      </trkpt>
      <trkpt lat="44.16586" lon="5.16423">
        <ele>730.6</ele>
        <time>2022-07-21T05:17:11Z</time>
      </trkpt>
      <trkpt lat="44.16586" lon="5.16425">
        <ele>730.7</ele>
        <time>2022-07-21T05:17:12Z</time>
      </trkpt>
      <trkpt lat="44.16586" lon="5.16427">
        <ele>730.8</ele>
        <time>2022-07-21T05:17:13Z</time>
      </trkpt>
      <trkpt lat="44.16586" lon="5.16429">
        <ele>731</ele>
        <time>2022-07-21T05:17:14Z</time>
      </trkpt>
      <trkpt lat="44.16586" lon="5.16432">
        <ele>731.1</ele>
        <time>2022-07-21T05:17:15Z</time>
      </trkpt>
      <trkpt lat="44.16587" lon="5.16434">
        <ele>731.2</ele>
        <time>2022-07-21T05:17:16Z</time>
      </trkpt>
      <trkpt lat="44.16587" lon="5.16436">
        <ele>731.4</ele>
        <time>2022-07-21T05:17:17Z</time>
      </trkpt>
      <trkpt lat="44.16587" lon="5.16438">
        <ele>731.5</ele>
        <time>2022-07-21T05:17:18Z</time>
      </trkpt>
      <trkpt lat="44.16588" lon="5.1644">
        <ele>731.6</ele>
        <time>2022-07-21T05:17:19Z</time>
      </trkpt>
      <trkpt lat="44.16588" lon="5.16443">
        <ele>731.7</ele>
        <time>2022-07-21T05:17:20Z</time>
      </trkpt>
      <trkpt lat="44.16588" lon="5.16447">
        <ele>731.9</ele>
        <time>2022-07-21T05:17:21Z</time>
      </trkpt>
      <trkpt lat="44.16588" lon="5.16448">
        <ele>732</ele>
        <time>2022-07-21T05:17:22Z</time>
      </trkpt>
      <trkpt lat="44.16589" lon="5.16452">
        <ele>732.2</ele>
        <time>2022-07-21T05:17:23Z</time>
      </trkpt>
      <trkpt lat="44.16589" lon="5.16453">
        <ele>732.3</ele>
        <time>2022-07-21T05:17:24Z</time>
      </trkpt>
      <trkpt lat="44.1659" lon="5.16456">
        <ele>732.4</ele>
        <time>2022-07-21T05:17:25Z</time>
      </trkpt>
      <trkpt lat="44.1659" lon="5.16458">
        <ele>732.5</ele>
        <time>2022-07-21T05:17:26Z</time>
      </trkpt>
      <trkpt lat="44.1659" lon="5.1646">
        <ele>732.7</ele>
        <time>2022-07-21T05:17:27Z</time>
      </trkpt>
      <trkpt lat="44.1659" lon="5.16462">
        <ele>732.8</ele>
        <time>2022-07-21T05:17:28Z</time>
      </trkpt>
      <trkpt lat="44.16591" lon="5.16466">
        <ele>733</ele>
        <time>2022-07-21T05:17:29Z</time>
      </trkpt>
      <trkpt lat="44.16591" lon="5.16468">
        <ele>733.1</ele>
        <time>2022-07-21T05:17:30Z</time>
      </trkpt>
      <trkpt lat="44.16591" lon="5.1647">
        <ele>733.2</ele>
        <time>2022-07-21T05:17:31Z</time>
      </trkpt>
      <trkpt lat="44.16592" lon="5.16472">
        <ele>733.3</ele>
        <time>2022-07-21T05:17:32Z</time>
      </trkpt>
      <trkpt lat="44.16592" lon="5.16474">
        <ele>733.4</ele>
        <time>2022-07-21T05:17:33Z</time>
      </trkpt>
      <trkpt lat="44.16592" lon="5.16476">
        <ele>733.5</ele>
        <time>2022-07-21T05:17:34Z</time>
      </trkpt>
      <trkpt lat="44.16593" lon="5.1648">
        <ele>733.7</ele>
        <time>2022-07-21T05:17:35Z</time>
      </trkpt>
      <trkpt lat="44.16593" lon="5.16481">
        <ele>733.8</ele>
        <time>2022-07-21T05:17:36Z</time>
      </trkpt>
      <trkpt lat="44.16594" lon="5.16484">
        <ele>734</ele>
        <time>2022-07-21T05:17:37Z</time>
      </trkpt>
      <trkpt lat="44.16594" lon="5.16486">
        <ele>734.1</ele>
        <time>2022-07-21T05:17:38Z</time>
      </trkpt>
      <trkpt lat="44.16594" lon="5.16488">
        <ele>734.2</ele>
        <time>2022-07-21T05:17:39Z</time>
      </trkpt>
      <trkpt lat="44.16595" lon="5.16491">
        <ele>734.3</ele>
        <time>2022-07-21T05:17:40Z</time>
      </trkpt>
      <trkpt lat="44.16595" lon="5.16493">
        <ele>734.4</ele>
        <time>2022-07-21T05:17:41Z</time>
      </trkpt>
      <trkpt lat="44.16595" lon="5.16495">
        <ele>734.5</ele>
        <time>2022-07-21T05:17:42Z</time>
      </trkpt>
      <trkpt lat="44.16595" lon="5.16497">
        <ele>734.6</ele>
        <time>2022-07-21T05:17:43Z</time>
      </trkpt>
      <trkpt lat="44.16595" lon="5.16499">
        <ele>734.7</ele>
        <time>2022-07-21T05:17:44Z</time>
      </trkpt>
      <trkpt lat="44.16595" lon="5.16504">
        <ele>735</ele>
        <time>2022-07-21T05:17:45Z</time>
      </trkpt>
      <trkpt lat="44.16596" lon="5.16505">
        <ele>735.1</ele>
        <time>2022-07-21T05:17:46Z</time>
      </trkpt>
      <trkpt lat="44.16596" lon="5.1651">
        <ele>735.3</ele>
        <time>2022-07-21T05:17:47Z</time>
      </trkpt>
      <trkpt lat="44.16596" lon="5.16511">
        <ele>735.4</ele>
        <time>2022-07-21T05:17:48Z</time>
      </trkpt>
      <trkpt lat="44.16597" lon="5.16515">
        <ele>735.6</ele>
        <time>2022-07-21T05:17:49Z</time>
      </trkpt>
      <trkpt lat="44.16597" lon="5.16516">
        <ele>735.6</ele>
        <time>2022-07-21T05:17:50Z</time>
      </trkpt>
      <trkpt lat="44.16597" lon="5.1652">
        <ele>735.8</ele>
        <time>2022-07-21T05:17:51Z</time>
      </trkpt>
      <trkpt lat="44.16597" lon="5.16521">
        <ele>735.9</ele>
        <time>2022-07-21T05:17:52Z</time>
      </trkpt>
      <trkpt lat="44.16597" lon="5.16525">
        <ele>736.1</ele>
        <time>2022-07-21T05:17:53Z</time>
      </trkpt>
      <trkpt lat="44.16598" lon="5.16527">
        <ele>736.1</ele>
        <time>2022-07-21T05:17:54Z</time>
      </trkpt>
      <trkpt lat="44.16598" lon="5.16529">
        <ele>736.3</ele>
        <time>2022-07-21T05:17:55Z</time>
      </trkpt>
      <trkpt lat="44.16598" lon="5.16532">
        <ele>736.4</ele>
        <time>2022-07-21T05:17:56Z</time>
      </trkpt>
      <trkpt lat="44.16598" lon="5.16534">
        <ele>736.5</ele>
        <time>2022-07-21T05:17:57Z</time>
      </trkpt>
      <trkpt lat="44.16598" lon="5.16536">
        <ele>736.6</ele>
        <time>2022-07-21T05:17:58Z</time>
      </trkpt>
      <trkpt lat="44.16599" lon="5.1654">
        <ele>736.8</ele>
        <time>2022-07-21T05:17:59Z</time>
      </trkpt>
      <trkpt lat="44.16599" lon="5.16542">
        <ele>736.9</ele>
        <time>2022-07-21T05:18:00Z</time>
      </trkpt>
      <trkpt lat="44.16599" lon="5.16545">
        <ele>737.1</ele>
        <time>2022-07-21T05:18:01Z</time>
      </trkpt>
      <trkpt lat="44.16599" lon="5.16547">
        <ele>737.2</ele>
        <time>2022-07-21T05:18:02Z</time>
      </trkpt>
      <trkpt lat="44.166" lon="5.1655">
        <ele>737.3</ele>
        <time>2022-07-21T05:18:03Z</time>
      </trkpt>
      <trkpt lat="44.166" lon="5.16552">
        <ele>737.4</ele>
        <time>2022-07-21T05:18:04Z</time>
      </trkpt>
      <trkpt lat="44.166" lon="5.16556">
        <ele>737.6</ele>
        <time>2022-07-21T05:18:05Z</time>
      </trkpt>
      <trkpt lat="44.166" lon="5.16557">
        <ele>737.7</ele>
        <time>2022-07-21T05:18:06Z</time>
      </trkpt>
      <trkpt lat="44.166" lon="5.16559">
        <ele>737.8</ele>
        <time>2022-07-21T05:18:07Z</time>
      </trkpt>
      <trkpt lat="44.16601" lon="5.16562">
        <ele>737.9</ele>
        <time>2022-07-21T05:18:08Z</time>
      </trkpt>
      <trkpt lat="44.16601" lon="5.16566">
        <ele>738.1</ele>
        <time>2022-07-21T05:18:09Z</time>
      </trkpt>
      <trkpt lat="44.16601" lon="5.16567">
        <ele>738.2</ele>
        <time>2022-07-21T05:18:10Z</time>
      </trkpt>
      <trkpt lat="44.16602" lon="5.16571">
        <ele>738.4</ele>
        <time>2022-07-21T05:18:11Z</time>
      </trkpt>
      <trkpt lat="44.16602" lon="5.16572">
        <ele>738.4</ele>
        <time>2022-07-21T05:18:12Z</time>
      </trkpt>
      <trkpt lat="44.16602" lon="5.16576">
        <ele>738.6</ele>
        <time>2022-07-21T05:18:13Z</time>
      </trkpt>
      <trkpt lat="44.16602" lon="5.16577">
        <ele>738.7</ele>
        <time>2022-07-21T05:18:14Z</time>
      </trkpt>
      <trkpt lat="44.16603" lon="5.16582">
        <ele>738.9</ele>
        <time>2022-07-21T05:18:15Z</time>
      </trkpt>
      <trkpt lat="44.16603" lon="5.16583">
        <ele>739</ele>
        <time>2022-07-21T05:18:16Z</time>
      </trkpt>
      <trkpt lat="44.16604" lon="5.16587">
        <ele>739.2</ele>
        <time>2022-07-21T05:18:17Z</time>
      </trkpt>
      <trkpt lat="44.16604" lon="5.16588">
        <ele>739.2</ele>
        <time>2022-07-21T05:18:18Z</time>
      </trkpt>
      <trkpt lat="44.16604" lon="5.16591">
        <ele>739.4</ele>
        <time>2022-07-21T05:18:19Z</time>
      </trkpt>
      <trkpt lat="44.16605" lon="5.16593">
        <ele>739.5</ele>
        <time>2022-07-21T05:18:20Z</time>
      </trkpt>
      <trkpt lat="44.16605" lon="5.16597">
        <ele>739.6</ele>
        <time>2022-07-21T05:18:21Z</time>
      </trkpt>
      <trkpt lat="44.16605" lon="5.16598">
        <ele>739.7</ele>
        <time>2022-07-21T05:18:22Z</time>
      </trkpt>
      <trkpt lat="44.16607" lon="5.16602">
        <ele>739.9</ele>
        <time>2022-07-21T05:18:23Z</time>
      </trkpt>
      <trkpt lat="44.16607" lon="5.16604">
        <ele>740</ele>
        <time>2022-07-21T05:18:24Z</time>
      </trkpt>
      <trkpt lat="44.16608" lon="5.16608">
        <ele>740.1</ele>
        <time>2022-07-21T05:18:25Z</time>
      </trkpt>
      <trkpt lat="44.16608" lon="5.16609">
        <ele>740.2</ele>
        <time>2022-07-21T05:18:26Z</time>
      </trkpt>
      <trkpt lat="44.16609" lon="5.16613">
        <ele>740.4</ele>
        <time>2022-07-21T05:18:27Z</time>
      </trkpt>
      <trkpt lat="44.16609" lon="5.16614">
        <ele>740.4</ele>
        <time>2022-07-21T05:18:28Z</time>
      </trkpt>
      <trkpt lat="44.1661" lon="5.16618">
        <ele>740.6</ele>
        <time>2022-07-21T05:18:29Z</time>
      </trkpt>
      <trkpt lat="44.1661" lon="5.1662">
        <ele>740.7</ele>
        <time>2022-07-21T05:18:30Z</time>
      </trkpt>
      <trkpt lat="44.16611" lon="5.16623">
        <ele>740.9</ele>
        <time>2022-07-21T05:18:31Z</time>
      </trkpt>
      <trkpt lat="44.16612" lon="5.16624">
        <ele>740.9</ele>
        <time>2022-07-21T05:18:32Z</time>
      </trkpt>
      <trkpt lat="44.16612" lon="5.16626">
        <ele>741</ele>
        <time>2022-07-21T05:18:33Z</time>
      </trkpt>
      <trkpt lat="44.16613" lon="5.16628">
        <ele>741.1</ele>
        <time>2022-07-21T05:18:34Z</time>
      </trkpt>
      <trkpt lat="44.16613" lon="5.16633">
        <ele>741.3</ele>
        <time>2022-07-21T05:18:35Z</time>
      </trkpt>
      <trkpt lat="44.16614" lon="5.16634">
        <ele>741.4</ele>
        <time>2022-07-21T05:18:36Z</time>
      </trkpt>
      <trkpt lat="44.16615" lon="5.16638">
        <ele>741.6</ele>
        <time>2022-07-21T05:18:37Z</time>
      </trkpt>
      <trkpt lat="44.16615" lon="5.16639">
        <ele>741.6</ele>
        <time>2022-07-21T05:18:38Z</time>
      </trkpt>
      <trkpt lat="44.16616" lon="5.16644">
        <ele>741.8</ele>
        <time>2022-07-21T05:18:39Z</time>
      </trkpt>
      <trkpt lat="44.16616" lon="5.16645">
        <ele>741.9</ele>
        <time>2022-07-21T05:18:40Z</time>
      </trkpt>
      <trkpt lat="44.16617" lon="5.1665">
        <ele>742.1</ele>
        <time>2022-07-21T05:18:41Z</time>
      </trkpt>
      <trkpt lat="44.16617" lon="5.16652">
        <ele>742.2</ele>
        <time>2022-07-21T05:18:42Z</time>
      </trkpt>
      <trkpt lat="44.16618" lon="5.16656">
        <ele>742.4</ele>
        <time>2022-07-21T05:18:43Z</time>
      </trkpt>
      <trkpt lat="44.16618" lon="5.16657">
        <ele>742.4</ele>
        <time>2022-07-21T05:18:44Z</time>
      </trkpt>
      <trkpt lat="44.16619" lon="5.16662">
        <ele>742.6</ele>
        <time>2022-07-21T05:18:45Z</time>
      </trkpt>
      <trkpt lat="44.16619" lon="5.16663">
        <ele>742.7</ele>
        <time>2022-07-21T05:18:46Z</time>
      </trkpt>
      <trkpt lat="44.1662" lon="5.16668">
        <ele>742.9</ele>
        <time>2022-07-21T05:18:47Z</time>
      </trkpt>
      <trkpt lat="44.1662" lon="5.1667">
        <ele>743</ele>
        <time>2022-07-21T05:18:48Z</time>
      </trkpt>
      <trkpt lat="44.16621" lon="5.16675">
        <ele>743.2</ele>
        <time>2022-07-21T05:18:49Z</time>
      </trkpt>
      <trkpt lat="44.16621" lon="5.16676">
        <ele>743.2</ele>
        <time>2022-07-21T05:18:50Z</time>
      </trkpt>
      <trkpt lat="44.16622" lon="5.16681">
        <ele>743.5</ele>
        <time>2022-07-21T05:18:51Z</time>
      </trkpt>
      <trkpt lat="44.16622" lon="5.16683">
        <ele>743.5</ele>
        <time>2022-07-21T05:18:52Z</time>
      </trkpt>
      <trkpt lat="44.16623" lon="5.16687">
        <ele>743.7</ele>
        <time>2022-07-21T05:18:53Z</time>
      </trkpt>
      <trkpt lat="44.16623" lon="5.16689">
        <ele>743.8</ele>
        <time>2022-07-21T05:18:54Z</time>
      </trkpt>
      <trkpt lat="44.16624" lon="5.16691">
        <ele>743.9</ele>
        <time>2022-07-21T05:18:55Z</time>
      </trkpt>
      <trkpt lat="44.16625" lon="5.16693">
        <ele>744</ele>
        <time>2022-07-21T05:18:56Z</time>
      </trkpt>
      <trkpt lat="44.16626" lon="5.16698">
        <ele>744.2</ele>
        <time>2022-07-21T05:18:57Z</time>
      </trkpt>
      <trkpt lat="44.16626" lon="5.16699">
        <ele>744.2</ele>
        <time>2022-07-21T05:18:58Z</time>
      </trkpt>
      <trkpt lat="44.16627" lon="5.16703">
        <ele>744.4</ele>
        <time>2022-07-21T05:18:59Z</time>
      </trkpt>
      <trkpt lat="44.16628" lon="5.16704">
        <ele>744.5</ele>
        <time>2022-07-21T05:19:00Z</time>
      </trkpt>
      <trkpt lat="44.16629" lon="5.16708">
        <ele>744.7</ele>
        <time>2022-07-21T05:19:01Z</time>
      </trkpt>
      <trkpt lat="44.16629" lon="5.1671">
        <ele>744.8</ele>
        <time>2022-07-21T05:19:02Z</time>
      </trkpt>
      <trkpt lat="44.16631" lon="5.16714">
        <ele>745</ele>
        <time>2022-07-21T05:19:03Z</time>
      </trkpt>
      <trkpt lat="44.16631" lon="5.16715">
        <ele>745</ele>
        <time>2022-07-21T05:19:04Z</time>
      </trkpt>
      <trkpt lat="44.16632" lon="5.16719">
        <ele>745.2</ele>
        <time>2022-07-21T05:19:05Z</time>
      </trkpt>
      <trkpt lat="44.16633" lon="5.1672">
        <ele>745.3</ele>
        <time>2022-07-21T05:19:06Z</time>
      </trkpt>
      <trkpt lat="44.16634" lon="5.16724">
        <ele>745.5</ele>
        <time>2022-07-21T05:19:07Z</time>
      </trkpt>
      <trkpt lat="44.16634" lon="5.16725">
        <ele>745.5</ele>
        <time>2022-07-21T05:19:08Z</time>
      </trkpt>
      <trkpt lat="44.16636" lon="5.16729">
        <ele>745.7</ele>
        <time>2022-07-21T05:19:09Z</time>
      </trkpt>
      <trkpt lat="44.16636" lon="5.1673">
        <ele>745.8</ele>
        <time>2022-07-21T05:19:10Z</time>
      </trkpt>
      <trkpt lat="44.16638" lon="5.16733">
        <ele>746</ele>
        <time>2022-07-21T05:19:11Z</time>
      </trkpt>
      <trkpt lat="44.16639" lon="5.16735">
        <ele>746.1</ele>
        <time>2022-07-21T05:19:12Z</time>
      </trkpt>
      <trkpt lat="44.16641" lon="5.16738">
        <ele>746.2</ele>
        <time>2022-07-21T05:19:13Z</time>
      </trkpt>
      <trkpt lat="44.16642" lon="5.16739">
        <ele>746.3</ele>
        <time>2022-07-21T05:19:14Z</time>
      </trkpt>
      <trkpt lat="44.16643" lon="5.16743">
        <ele>746.5</ele>
        <time>2022-07-21T05:19:15Z</time>
      </trkpt>
      <trkpt lat="44.16644" lon="5.16744">
        <ele>746.6</ele>
        <time>2022-07-21T05:19:16Z</time>
      </trkpt>
      <trkpt lat="44.16645" lon="5.16748">
        <ele>746.8</ele>
        <time>2022-07-21T05:19:17Z</time>
      </trkpt>
      <trkpt lat="44.16646" lon="5.16749">
        <ele>746.9</ele>
        <time>2022-07-21T05:19:18Z</time>
      </trkpt>
      <trkpt lat="44.16648" lon="5.16754">
        <ele>747.1</ele>
        <time>2022-07-21T05:19:19Z</time>
      </trkpt>
      <trkpt lat="44.16648" lon="5.16755">
        <ele>747.2</ele>
        <time>2022-07-21T05:19:20Z</time>
      </trkpt>
      <trkpt lat="44.1665" lon="5.16759">
        <ele>747.4</ele>
        <time>2022-07-21T05:19:21Z</time>
      </trkpt>
      <trkpt lat="44.16651" lon="5.1676">
        <ele>747.5</ele>
        <time>2022-07-21T05:19:22Z</time>
      </trkpt>
      <trkpt lat="44.16652" lon="5.16763">
        <ele>747.7</ele>
        <time>2022-07-21T05:19:23Z</time>
      </trkpt>
      <trkpt lat="44.16653" lon="5.16764">
        <ele>747.7</ele>
        <time>2022-07-21T05:19:24Z</time>
      </trkpt>
      <trkpt lat="44.16655" lon="5.16768">
        <ele>747.9</ele>
        <time>2022-07-21T05:19:25Z</time>
      </trkpt>
      <trkpt lat="44.16655" lon="5.16769">
        <ele>748</ele>
        <time>2022-07-21T05:19:26Z</time>
      </trkpt>
      <trkpt lat="44.16657" lon="5.16772">
        <ele>748.2</ele>
        <time>2022-07-21T05:19:27Z</time>
      </trkpt>
      <trkpt lat="44.16658" lon="5.16773">
        <ele>748.2</ele>
        <time>2022-07-21T05:19:28Z</time>
      </trkpt>
      <trkpt lat="44.16659" lon="5.16777">
        <ele>748.4</ele>
        <time>2022-07-21T05:19:29Z</time>
      </trkpt>
      <trkpt lat="44.16659" lon="5.16778">
        <ele>748.5</ele>
        <time>2022-07-21T05:19:30Z</time>
      </trkpt>
      <trkpt lat="44.16661" lon="5.16781">
        <ele>748.7</ele>
        <time>2022-07-21T05:19:31Z</time>
      </trkpt>
      <trkpt lat="44.16662" lon="5.16782">
        <ele>748.7</ele>
        <time>2022-07-21T05:19:32Z</time>
      </trkpt>
      <trkpt lat="44.16663" lon="5.16786">
        <ele>748.9</ele>
        <time>2022-07-21T05:19:33Z</time>
      </trkpt>
      <trkpt lat="44.16664" lon="5.16787">
        <ele>749</ele>
        <time>2022-07-21T05:19:34Z</time>
      </trkpt>
      <trkpt lat="44.16666" lon="5.1679">
        <ele>749.2</ele>
        <time>2022-07-21T05:19:35Z</time>
      </trkpt>
      <trkpt lat="44.16666" lon="5.16791">
        <ele>749.2</ele>
        <time>2022-07-21T05:19:36Z</time>
      </trkpt>
      <trkpt lat="44.16668" lon="5.16795">
        <ele>749.4</ele>
        <time>2022-07-21T05:19:37Z</time>
      </trkpt>
      <trkpt lat="44.16669" lon="5.16796">
        <ele>749.5</ele>
        <time>2022-07-21T05:19:38Z</time>
      </trkpt>
      <trkpt lat="44.1667" lon="5.16797">
        <ele>749.6</ele>
        <time>2022-07-21T05:19:39Z</time>
      </trkpt>
      <trkpt lat="44.16671" lon="5.16799">
        <ele>749.6</ele>
        <time>2022-07-21T05:19:40Z</time>
      </trkpt>
      <trkpt lat="44.16673" lon="5.16804">
        <ele>749.9</ele>
        <time>2022-07-21T05:19:42Z</time>
      </trkpt>
      <trkpt lat="44.16674" lon="5.16805">
        <ele>750</ele>
        <time>2022-07-21T05:19:43Z</time>
      </trkpt>
      <trkpt lat="44.16676" lon="5.16809">
        <ele>750.1</ele>
        <time>2022-07-21T05:19:44Z</time>
      </trkpt>
      <trkpt lat="44.16676" lon="5.1681">
        <ele>750.2</ele>
        <time>2022-07-21T05:19:45Z</time>
      </trkpt>
      <trkpt lat="44.16678" lon="5.16813">
        <ele>750.4</ele>
        <time>2022-07-21T05:19:46Z</time>
      </trkpt>
      <trkpt lat="44.16679" lon="5.16814">
        <ele>750.4</ele>
        <time>2022-07-21T05:19:47Z</time>
      </trkpt>
      <trkpt lat="44.1668" lon="5.16818">
        <ele>750.6</ele>
        <time>2022-07-21T05:19:48Z</time>
      </trkpt>
      <trkpt lat="44.1668" lon="5.16819">
        <ele>750.6</ele>
        <time>2022-07-21T05:19:49Z</time>
      </trkpt>
      <trkpt lat="44.16682" lon="5.16823">
        <ele>750.8</ele>
        <time>2022-07-21T05:19:50Z</time>
      </trkpt>
      <trkpt lat="44.16682" lon="5.16824">
        <ele>750.8</ele>
        <time>2022-07-21T05:19:51Z</time>
      </trkpt>
      <trkpt lat="44.16684" lon="5.16828">
        <ele>751</ele>
        <time>2022-07-21T05:19:52Z</time>
      </trkpt>
      <trkpt lat="44.16685" lon="5.16829">
        <ele>751.1</ele>
        <time>2022-07-21T05:19:53Z</time>
      </trkpt>
      <trkpt lat="44.16687" lon="5.16833">
        <ele>751.2</ele>
        <time>2022-07-21T05:19:54Z</time>
      </trkpt>
      <trkpt lat="44.16687" lon="5.16834">
        <ele>751.3</ele>
        <time>2022-07-21T05:19:55Z</time>
      </trkpt>
      <trkpt lat="44.16689" lon="5.16838">
        <ele>751.5</ele>
        <time>2022-07-21T05:19:56Z</time>
      </trkpt>
      <trkpt lat="44.16689" lon="5.16839">
        <ele>751.5</ele>
        <time>2022-07-21T05:19:57Z</time>
      </trkpt>
      <trkpt lat="44.16691" lon="5.16843">
        <ele>751.7</ele>
        <time>2022-07-21T05:19:58Z</time>
      </trkpt>
      <trkpt lat="44.16691" lon="5.16845">
        <ele>751.7</ele>
        <time>2022-07-21T05:19:59Z</time>
      </trkpt>
      <trkpt lat="44.16693" lon="5.16848">
        <ele>751.9</ele>
        <time>2022-07-21T05:20:00Z</time>
      </trkpt>
      <trkpt lat="44.16693" lon="5.1685">
        <ele>751.9</ele>
        <time>2022-07-21T05:20:01Z</time>
      </trkpt>
      <trkpt lat="44.16694" lon="5.16854">
        <ele>752.1</ele>
        <time>2022-07-21T05:20:02Z</time>
      </trkpt>
      <trkpt lat="44.16695" lon="5.16855">
        <ele>752.2</ele>
        <time>2022-07-21T05:20:03Z</time>
      </trkpt>
      <trkpt lat="44.16696" lon="5.16858">
        <ele>752.3</ele>
        <time>2022-07-21T05:20:04Z</time>
      </trkpt>
      <trkpt lat="44.16697" lon="5.1686">
        <ele>752.3</ele>
        <time>2022-07-21T05:20:05Z</time>
      </trkpt>
      <trkpt lat="44.16698" lon="5.16863">
        <ele>752.5</ele>
        <time>2022-07-21T05:20:06Z</time>
      </trkpt>
      <trkpt lat="44.16699" lon="5.16864">
        <ele>752.5</ele>
        <time>2022-07-21T05:20:07Z</time>
      </trkpt>
      <trkpt lat="44.16699" lon="5.16867">
        <ele>752.6</ele>
        <time>2022-07-21T05:20:08Z</time>
      </trkpt>
      <trkpt lat="44.167" lon="5.16869">
        <ele>752.7</ele>
        <time>2022-07-21T05:20:09Z</time>
      </trkpt>
      <trkpt lat="44.16701" lon="5.16872">
        <ele>752.8</ele>
        <time>2022-07-21T05:20:10Z</time>
      </trkpt>
      <trkpt lat="44.16702" lon="5.16873">
        <ele>752.9</ele>
        <time>2022-07-21T05:20:11Z</time>
      </trkpt>
      <trkpt lat="44.16703" lon="5.16877">
        <ele>753</ele>
        <time>2022-07-21T05:20:12Z</time>
      </trkpt>
      <trkpt lat="44.16704" lon="5.16878">
        <ele>753.1</ele>
        <time>2022-07-21T05:20:13Z</time>
      </trkpt>
      <trkpt lat="44.16705" lon="5.16882">
        <ele>753.2</ele>
        <time>2022-07-21T05:20:14Z</time>
      </trkpt>
      <trkpt lat="44.16706" lon="5.16884">
        <ele>753.3</ele>
        <time>2022-07-21T05:20:15Z</time>
      </trkpt>
      <trkpt lat="44.16707" lon="5.16887">
        <ele>753.4</ele>
        <time>2022-07-21T05:20:16Z</time>
      </trkpt>
      <trkpt lat="44.16708" lon="5.16889">
        <ele>753.5</ele>
        <time>2022-07-21T05:20:17Z</time>
      </trkpt>
      <trkpt lat="44.16709" lon="5.16892">
        <ele>753.6</ele>
        <time>2022-07-21T05:20:18Z</time>
      </trkpt>
      <trkpt lat="44.1671" lon="5.16893">
        <ele>753.7</ele>
        <time>2022-07-21T05:20:19Z</time>
      </trkpt>
      <trkpt lat="44.16711" lon="5.16897">
        <ele>753.8</ele>
        <time>2022-07-21T05:20:20Z</time>
      </trkpt>
      <trkpt lat="44.16711" lon="5.16898">
        <ele>753.8</ele>
        <time>2022-07-21T05:20:21Z</time>
      </trkpt>
      <trkpt lat="44.16712" lon="5.169">
        <ele>753.9</ele>
        <time>2022-07-21T05:20:22Z</time>
      </trkpt>
      <trkpt lat="44.16713" lon="5.16903">
        <ele>754</ele>
        <time>2022-07-21T05:20:23Z</time>
      </trkpt>
      <trkpt lat="44.16714" lon="5.16906">
        <ele>754.1</ele>
        <time>2022-07-21T05:20:24Z</time>
      </trkpt>
      <trkpt lat="44.16714" lon="5.16908">
        <ele>754.2</ele>
        <time>2022-07-21T05:20:25Z</time>
      </trkpt>
      <trkpt lat="44.16715" lon="5.16912">
        <ele>754.3</ele>
        <time>2022-07-21T05:20:26Z</time>
      </trkpt>
      <trkpt lat="44.16715" lon="5.16913">
        <ele>754.4</ele>
        <time>2022-07-21T05:20:27Z</time>
      </trkpt>
      <trkpt lat="44.16716" lon="5.16917">
        <ele>754.5</ele>
        <time>2022-07-21T05:20:28Z</time>
      </trkpt>
      <trkpt lat="44.16716" lon="5.16918">
        <ele>754.5</ele>
        <time>2022-07-21T05:20:29Z</time>
      </trkpt>
      <trkpt lat="44.16717" lon="5.16922">
        <ele>754.6</ele>
        <time>2022-07-21T05:20:30Z</time>
      </trkpt>
      <trkpt lat="44.16717" lon="5.16923">
        <ele>754.7</ele>
        <time>2022-07-21T05:20:31Z</time>
      </trkpt>
      <trkpt lat="44.16719" lon="5.16927">
        <ele>754.8</ele>
        <time>2022-07-21T05:20:32Z</time>
      </trkpt>
      <trkpt lat="44.16719" lon="5.16928">
        <ele>754.9</ele>
        <time>2022-07-21T05:20:33Z</time>
      </trkpt>
      <trkpt lat="44.1672" lon="5.16932">
        <ele>755</ele>
        <time>2022-07-21T05:20:34Z</time>
      </trkpt>
      <trkpt lat="44.1672" lon="5.16933">
        <ele>755</ele>
        <time>2022-07-21T05:20:35Z</time>
      </trkpt>
      <trkpt lat="44.16721" lon="5.16937">
        <ele>755.2</ele>
        <time>2022-07-21T05:20:36Z</time>
      </trkpt>
      <trkpt lat="44.16722" lon="5.16939">
        <ele>755.2</ele>
        <time>2022-07-21T05:20:37Z</time>
      </trkpt>
      <trkpt lat="44.16723" lon="5.16943">
        <ele>755.3</ele>
        <time>2022-07-21T05:20:38Z</time>
      </trkpt>
      <trkpt lat="44.16723" lon="5.16945">
        <ele>755.4</ele>
        <time>2022-07-21T05:20:39Z</time>
      </trkpt>
      <trkpt lat="44.16724" lon="5.16949">
        <ele>755.5</ele>
        <time>2022-07-21T05:20:40Z</time>
      </trkpt>
      <trkpt lat="44.16724" lon="5.1695">
        <ele>755.6</ele>
        <time>2022-07-21T05:20:41Z</time>
      </trkpt>
      <trkpt lat="44.16724" lon="5.16955">
        <ele>755.7</ele>
        <time>2022-07-21T05:20:42Z</time>
      </trkpt>
      <trkpt lat="44.16724" lon="5.16957">
        <ele>755.7</ele>
        <time>2022-07-21T05:20:43Z</time>
      </trkpt>
      <trkpt lat="44.16725" lon="5.16962">
        <ele>755.9</ele>
        <time>2022-07-21T05:20:44Z</time>
      </trkpt>
      <trkpt lat="44.16725" lon="5.16963">
        <ele>755.9</ele>
        <time>2022-07-21T05:20:45Z</time>
      </trkpt>
      <trkpt lat="44.16725" lon="5.16968">
        <ele>756</ele>
        <time>2022-07-21T05:20:46Z</time>
      </trkpt>
      <trkpt lat="44.16725" lon="5.16969">
        <ele>756.1</ele>
        <time>2022-07-21T05:20:47Z</time>
      </trkpt>
      <trkpt lat="44.16726" lon="5.16973">
        <ele>756.2</ele>
        <time>2022-07-21T05:20:48Z</time>
      </trkpt>
      <trkpt lat="44.16726" lon="5.16974">
        <ele>756.2</ele>
        <time>2022-07-21T05:20:49Z</time>
      </trkpt>
      <trkpt lat="44.16726" lon="5.16978">
        <ele>756.3</ele>
        <time>2022-07-21T05:20:50Z</time>
      </trkpt>
      <trkpt lat="44.16726" lon="5.1698">
        <ele>756.4</ele>
        <time>2022-07-21T05:20:51Z</time>
      </trkpt>
      <trkpt lat="44.16726" lon="5.16984">
        <ele>756.5</ele>
        <time>2022-07-21T05:20:52Z</time>
      </trkpt>
      <trkpt lat="44.16726" lon="5.16985">
        <ele>756.5</ele>
        <time>2022-07-21T05:20:53Z</time>
      </trkpt>
      <trkpt lat="44.16726" lon="5.16989">
        <ele>756.6</ele>
        <time>2022-07-21T05:20:54Z</time>
      </trkpt>
      <trkpt lat="44.16726" lon="5.16991">
        <ele>756.6</ele>
        <time>2022-07-21T05:20:55Z</time>
      </trkpt>
      <trkpt lat="44.16726" lon="5.16995">
        <ele>756.7</ele>
        <time>2022-07-21T05:20:56Z</time>
      </trkpt>
      <trkpt lat="44.16726" lon="5.16996">
        <ele>756.8</ele>
        <time>2022-07-21T05:20:57Z</time>
      </trkpt>
      <trkpt lat="44.16726" lon="5.16998">
        <ele>756.8</ele>
        <time>2022-07-21T05:20:58Z</time>
      </trkpt>
      <trkpt lat="44.16726" lon="5.17">
        <ele>756.8</ele>
        <time>2022-07-21T05:20:59Z</time>
      </trkpt>
      <trkpt lat="44.16725" lon="5.17003">
        <ele>756.8</ele>
        <time>2022-07-21T05:21:00Z</time>
      </trkpt>
      <trkpt lat="44.16725" lon="5.17005">
        <ele>756.7</ele>
        <time>2022-07-21T05:21:01Z</time>
      </trkpt>
      <trkpt lat="44.16725" lon="5.17009">
        <ele>756.7</ele>
        <time>2022-07-21T05:21:02Z</time>
      </trkpt>
      <trkpt lat="44.16725" lon="5.17011">
        <ele>756.7</ele>
        <time>2022-07-21T05:21:03Z</time>
      </trkpt>
      <trkpt lat="44.16724" lon="5.17014">
        <ele>756.6</ele>
        <time>2022-07-21T05:21:04Z</time>
      </trkpt>
      <trkpt lat="44.16724" lon="5.17016">
        <ele>756.6</ele>
        <time>2022-07-21T05:21:05Z</time>
      </trkpt>
      <trkpt lat="44.16724" lon="5.1702">
        <ele>756.5</ele>
        <time>2022-07-21T05:21:06Z</time>
      </trkpt>
      <trkpt lat="44.16724" lon="5.17021">
        <ele>756.5</ele>
        <time>2022-07-21T05:21:07Z</time>
      </trkpt>
      <trkpt lat="44.16723" lon="5.17025">
        <ele>756.5</ele>
        <time>2022-07-21T05:21:08Z</time>
      </trkpt>
      <trkpt lat="44.16723" lon="5.17026">
        <ele>756.4</ele>
        <time>2022-07-21T05:21:09Z</time>
      </trkpt>
      <trkpt lat="44.16723" lon="5.17031">
        <ele>756.5</ele>
        <time>2022-07-21T05:21:10Z</time>
      </trkpt>
      <trkpt lat="44.16723" lon="5.17032">
        <ele>756.6</ele>
        <time>2022-07-21T05:21:11Z</time>
      </trkpt>
      <trkpt lat="44.16722" lon="5.17037">
        <ele>756.7</ele>
        <time>2022-07-21T05:21:12Z</time>
      </trkpt>
      <trkpt lat="44.16722" lon="5.17038">
        <ele>756.8</ele>
        <time>2022-07-21T05:21:13Z</time>
      </trkpt>
      <trkpt lat="44.16722" lon="5.17042">
        <ele>756.9</ele>
        <time>2022-07-21T05:21:14Z</time>
      </trkpt>
      <trkpt lat="44.16722" lon="5.17044">
        <ele>757</ele>
        <time>2022-07-21T05:21:15Z</time>
      </trkpt>
      <trkpt lat="44.16721" lon="5.17048">
        <ele>757.1</ele>
        <time>2022-07-21T05:21:16Z</time>
      </trkpt>
      <trkpt lat="44.16721" lon="5.17049">
        <ele>757.2</ele>
        <time>2022-07-21T05:21:17Z</time>
      </trkpt>
      <trkpt lat="44.16721" lon="5.17053">
        <ele>757.3</ele>
        <time>2022-07-21T05:21:18Z</time>
      </trkpt>
      <trkpt lat="44.1672" lon="5.17054">
        <ele>757.4</ele>
        <time>2022-07-21T05:21:19Z</time>
      </trkpt>
      <trkpt lat="44.1672" lon="5.17058">
        <ele>757.6</ele>
        <time>2022-07-21T05:21:20Z</time>
      </trkpt>
      <trkpt lat="44.1672" lon="5.17059">
        <ele>757.6</ele>
        <time>2022-07-21T05:21:21Z</time>
      </trkpt>
      <trkpt lat="44.16719" lon="5.17063">
        <ele>757.8</ele>
        <time>2022-07-21T05:21:22Z</time>
      </trkpt>
      <trkpt lat="44.16719" lon="5.17065">
        <ele>757.8</ele>
        <time>2022-07-21T05:21:23Z</time>
      </trkpt>
      <trkpt lat="44.16718" lon="5.17069">
        <ele>758</ele>
        <time>2022-07-21T05:21:24Z</time>
      </trkpt>
      <trkpt lat="44.16718" lon="5.1707">
        <ele>758.1</ele>
        <time>2022-07-21T05:21:25Z</time>
      </trkpt>
      <trkpt lat="44.16718" lon="5.17072">
        <ele>758.2</ele>
        <time>2022-07-21T05:21:26Z</time>
      </trkpt>
      <trkpt lat="44.16717" lon="5.17074">
        <ele>758.3</ele>
        <time>2022-07-21T05:21:27Z</time>
      </trkpt>
      <trkpt lat="44.16717" lon="5.17077">
        <ele>758.4</ele>
        <time>2022-07-21T05:21:28Z</time>
      </trkpt>
      <trkpt lat="44.16717" lon="5.17079">
        <ele>758.5</ele>
        <time>2022-07-21T05:21:29Z</time>
      </trkpt>
      <trkpt lat="44.16716" lon="5.17081">
        <ele>758.7</ele>
        <time>2022-07-21T05:21:30Z</time>
      </trkpt>
      <trkpt lat="44.16716" lon="5.17084">
        <ele>758.8</ele>
        <time>2022-07-21T05:21:31Z</time>
      </trkpt>
      <trkpt lat="44.16716" lon="5.17088">
        <ele>759</ele>
        <time>2022-07-21T05:21:32Z</time>
      </trkpt>
      <trkpt lat="44.16716" lon="5.17089">
        <ele>759.1</ele>
        <time>2022-07-21T05:21:33Z</time>
      </trkpt>
      <trkpt lat="44.16716" lon="5.17091">
        <ele>759.2</ele>
        <time>2022-07-21T05:21:34Z</time>
      </trkpt>
      <trkpt lat="44.16716" lon="5.17093">
        <ele>759.3</ele>
        <time>2022-07-21T05:21:35Z</time>
      </trkpt>
      <trkpt lat="44.16715" lon="5.17095">
        <ele>759.4</ele>
        <time>2022-07-21T05:21:36Z</time>
      </trkpt>
      <trkpt lat="44.16715" lon="5.17097">
        <ele>759.5</ele>
        <time>2022-07-21T05:21:37Z</time>
      </trkpt>
      <trkpt lat="44.16715" lon="5.171">
        <ele>759.7</ele>
        <time>2022-07-21T05:21:38Z</time>
      </trkpt>
      <trkpt lat="44.16715" lon="5.17102">
        <ele>759.8</ele>
        <time>2022-07-21T05:21:39Z</time>
      </trkpt>
      <trkpt lat="44.16715" lon="5.17104">
        <ele>759.9</ele>
        <time>2022-07-21T05:21:40Z</time>
      </trkpt>
      <trkpt lat="44.16714" lon="5.17107">
        <ele>760.1</ele>
        <time>2022-07-21T05:21:41Z</time>
      </trkpt>
      <trkpt lat="44.16714" lon="5.17109">
        <ele>760.2</ele>
        <time>2022-07-21T05:21:42Z</time>
      </trkpt>
      <trkpt lat="44.16714" lon="5.17112">
        <ele>760.3</ele>
        <time>2022-07-21T05:21:43Z</time>
      </trkpt>
      <trkpt lat="44.16714" lon="5.17115">
        <ele>760.6</ele>
        <time>2022-07-21T05:21:44Z</time>
      </trkpt>
      <trkpt lat="44.16714" lon="5.17117">
        <ele>760.6</ele>
        <time>2022-07-21T05:21:45Z</time>
      </trkpt>
      <trkpt lat="44.16714" lon="5.17119">
        <ele>760.8</ele>
        <time>2022-07-21T05:21:46Z</time>
      </trkpt>
      <trkpt lat="44.16714" lon="5.17122">
        <ele>760.9</ele>
        <time>2022-07-21T05:21:47Z</time>
      </trkpt>
      <trkpt lat="44.16714" lon="5.17124">
        <ele>761</ele>
        <time>2022-07-21T05:21:48Z</time>
      </trkpt>
      <trkpt lat="44.16714" lon="5.17126">
        <ele>761.1</ele>
        <time>2022-07-21T05:21:49Z</time>
      </trkpt>
      <trkpt lat="44.16714" lon="5.17128">
        <ele>761.3</ele>
        <time>2022-07-21T05:21:50Z</time>
      </trkpt>
      <trkpt lat="44.16714" lon="5.1713">
        <ele>761.4</ele>
        <time>2022-07-21T05:21:51Z</time>
      </trkpt>
      <trkpt lat="44.16713" lon="5.17132">
        <ele>761.5</ele>
        <time>2022-07-21T05:21:52Z</time>
      </trkpt>
      <trkpt lat="44.16713" lon="5.17135">
        <ele>761.7</ele>
        <time>2022-07-21T05:21:53Z</time>
      </trkpt>
      <trkpt lat="44.16713" lon="5.17137">
        <ele>761.8</ele>
        <time>2022-07-21T05:21:54Z</time>
      </trkpt>
      <trkpt lat="44.16714" lon="5.1714">
        <ele>762</ele>
        <time>2022-07-21T05:21:55Z</time>
      </trkpt>
      <trkpt lat="44.16714" lon="5.17142">
        <ele>762.1</ele>
        <time>2022-07-21T05:21:56Z</time>
      </trkpt>
      <trkpt lat="44.16713" lon="5.17144">
        <ele>762.3</ele>
        <time>2022-07-21T05:21:57Z</time>
      </trkpt>
      <trkpt lat="44.16713" lon="5.17147">
        <ele>762.4</ele>
        <time>2022-07-21T05:21:58Z</time>
      </trkpt>
      <trkpt lat="44.16713" lon="5.17149">
        <ele>762.6</ele>
        <time>2022-07-21T05:21:59Z</time>
      </trkpt>
      <trkpt lat="44.16713" lon="5.17151">
        <ele>762.7</ele>
        <time>2022-07-21T05:22:00Z</time>
      </trkpt>
      <trkpt lat="44.16713" lon="5.17153">
        <ele>762.8</ele>
        <time>2022-07-21T05:22:01Z</time>
      </trkpt>
      <trkpt lat="44.16712" lon="5.17155">
        <ele>763</ele>
        <time>2022-07-21T05:22:02Z</time>
      </trkpt>
      <trkpt lat="44.16712" lon="5.17157">
        <ele>763.1</ele>
        <time>2022-07-21T05:22:03Z</time>
      </trkpt>
      <trkpt lat="44.16712" lon="5.17159">
        <ele>763.3</ele>
        <time>2022-07-21T05:22:04Z</time>
      </trkpt>
      <trkpt lat="44.16712" lon="5.17162">
        <ele>763.4</ele>
        <time>2022-07-21T05:22:05Z</time>
      </trkpt>
      <trkpt lat="44.16712" lon="5.17164">
        <ele>763.6</ele>
        <time>2022-07-21T05:22:06Z</time>
      </trkpt>
      <trkpt lat="44.16712" lon="5.17166">
        <ele>763.7</ele>
        <time>2022-07-21T05:22:07Z</time>
      </trkpt>
      <trkpt lat="44.16713" lon="5.17168">
        <ele>763.9</ele>
        <time>2022-07-21T05:22:08Z</time>
      </trkpt>
      <trkpt lat="44.16713" lon="5.1717">
        <ele>764</ele>
        <time>2022-07-21T05:22:09Z</time>
      </trkpt>
      <trkpt lat="44.16713" lon="5.17173">
        <ele>764.2</ele>
        <time>2022-07-21T05:22:10Z</time>
      </trkpt>
      <trkpt lat="44.16712" lon="5.17174">
        <ele>764.3</ele>
        <time>2022-07-21T05:22:11Z</time>
      </trkpt>
      <trkpt lat="44.16712" lon="5.17175">
        <ele>764.4</ele>
        <time>2022-07-21T05:22:12Z</time>
      </trkpt>
      <trkpt lat="44.16712" lon="5.17177">
        <ele>764.5</ele>
        <time>2022-07-21T05:22:13Z</time>
      </trkpt>
      <trkpt lat="44.16712" lon="5.1718">
        <ele>764.7</ele>
        <time>2022-07-21T05:22:14Z</time>
      </trkpt>
      <trkpt lat="44.16712" lon="5.17182">
        <ele>764.9</ele>
        <time>2022-07-21T05:22:15Z</time>
      </trkpt>
      <trkpt lat="44.16712" lon="5.17184">
        <ele>765</ele>
        <time>2022-07-21T05:22:16Z</time>
      </trkpt>
      <trkpt lat="44.16712" lon="5.17186">
        <ele>765.2</ele>
        <time>2022-07-21T05:22:17Z</time>
      </trkpt>
      <trkpt lat="44.16712" lon="5.17188">
        <ele>765.3</ele>
        <time>2022-07-21T05:22:18Z</time>
      </trkpt>
      <trkpt lat="44.16712" lon="5.1719">
        <ele>765.5</ele>
        <time>2022-07-21T05:22:19Z</time>
      </trkpt>
      <trkpt lat="44.16712" lon="5.17192">
        <ele>765.6</ele>
        <time>2022-07-21T05:22:20Z</time>
      </trkpt>
      <trkpt lat="44.16712" lon="5.17195">
        <ele>765.8</ele>
        <time>2022-07-21T05:22:21Z</time>
      </trkpt>
      <trkpt lat="44.16711" lon="5.17197">
        <ele>765.9</ele>
        <time>2022-07-21T05:22:22Z</time>
      </trkpt>
      <trkpt lat="44.16711" lon="5.17198">
        <ele>766</ele>
        <time>2022-07-21T05:22:23Z</time>
      </trkpt>
      <trkpt lat="44.16711" lon="5.172">
        <ele>766.2</ele>
        <time>2022-07-21T05:22:24Z</time>
      </trkpt>
      <trkpt lat="44.16711" lon="5.17202">
        <ele>766.3</ele>
        <time>2022-07-21T05:22:25Z</time>
      </trkpt>
      <trkpt lat="44.16711" lon="5.17204">
        <ele>766.5</ele>
        <time>2022-07-21T05:22:26Z</time>
      </trkpt>
      <trkpt lat="44.16711" lon="5.17206">
        <ele>766.6</ele>
        <time>2022-07-21T05:22:27Z</time>
      </trkpt>
      <trkpt lat="44.16711" lon="5.1721">
        <ele>766.9</ele>
        <time>2022-07-21T05:22:28Z</time>
      </trkpt>
      <trkpt lat="44.16712" lon="5.17212">
        <ele>767</ele>
        <time>2022-07-21T05:22:29Z</time>
      </trkpt>
      <trkpt lat="44.16712" lon="5.17214">
        <ele>767.2</ele>
        <time>2022-07-21T05:22:30Z</time>
      </trkpt>
      <trkpt lat="44.16712" lon="5.17216">
        <ele>767.3</ele>
        <time>2022-07-21T05:22:31Z</time>
      </trkpt>
      <trkpt lat="44.16712" lon="5.17218">
        <ele>767.5</ele>
        <time>2022-07-21T05:22:32Z</time>
      </trkpt>
      <trkpt lat="44.16712" lon="5.17221">
        <ele>767.6</ele>
        <time>2022-07-21T05:22:33Z</time>
      </trkpt>
      <trkpt lat="44.16712" lon="5.17223">
        <ele>767.8</ele>
        <time>2022-07-21T05:22:34Z</time>
      </trkpt>
      <trkpt lat="44.16712" lon="5.17225">
        <ele>767.9</ele>
        <time>2022-07-21T05:22:35Z</time>
      </trkpt>
      <trkpt lat="44.16712" lon="5.17227">
        <ele>768.1</ele>
        <time>2022-07-21T05:22:36Z</time>
      </trkpt>
      <trkpt lat="44.16713" lon="5.17229">
        <ele>768.2</ele>
        <time>2022-07-21T05:22:37Z</time>
      </trkpt>
      <trkpt lat="44.16713" lon="5.17231">
        <ele>768.4</ele>
        <time>2022-07-21T05:22:38Z</time>
      </trkpt>
      <trkpt lat="44.16713" lon="5.17233">
        <ele>768.5</ele>
        <time>2022-07-21T05:22:39Z</time>
      </trkpt>
      <trkpt lat="44.16713" lon="5.17236">
        <ele>768.7</ele>
        <time>2022-07-21T05:22:40Z</time>
      </trkpt>
      <trkpt lat="44.16713" lon="5.17238">
        <ele>768.8</ele>
        <time>2022-07-21T05:22:41Z</time>
      </trkpt>
      <trkpt lat="44.16713" lon="5.1724">
        <ele>769</ele>
        <time>2022-07-21T05:22:42Z</time>
      </trkpt>
      <trkpt lat="44.16713" lon="5.17242">
        <ele>769.1</ele>
        <time>2022-07-21T05:22:43Z</time>
      </trkpt>
      <trkpt lat="44.16713" lon="5.17244">
        <ele>769.3</ele>
        <time>2022-07-21T05:22:44Z</time>
      </trkpt>
      <trkpt lat="44.16714" lon="5.17246">
        <ele>769.4</ele>
        <time>2022-07-21T05:22:45Z</time>
      </trkpt>
      <trkpt lat="44.16714" lon="5.17248">
        <ele>769.6</ele>
        <time>2022-07-21T05:22:46Z</time>
      </trkpt>
      <trkpt lat="44.16714" lon="5.1725">
        <ele>769.7</ele>
        <time>2022-07-21T05:22:47Z</time>
      </trkpt>
      <trkpt lat="44.16714" lon="5.17253">
        <ele>769.9</ele>
        <time>2022-07-21T05:22:48Z</time>
      </trkpt>
      <trkpt lat="44.16713" lon="5.17255">
        <ele>770</ele>
        <time>2022-07-21T05:22:49Z</time>
      </trkpt>
      <trkpt lat="44.16713" lon="5.17257">
        <ele>770.1</ele>
        <time>2022-07-21T05:22:50Z</time>
      </trkpt>
      <trkpt lat="44.16713" lon="5.17258">
        <ele>770.3</ele>
        <time>2022-07-21T05:22:51Z</time>
      </trkpt>
      <trkpt lat="44.16713" lon="5.1726">
        <ele>770.4</ele>
        <time>2022-07-21T05:22:52Z</time>
      </trkpt>
      <trkpt lat="44.16713" lon="5.17263">
        <ele>770.6</ele>
        <time>2022-07-21T05:22:53Z</time>
      </trkpt>
      <trkpt lat="44.16713" lon="5.17265">
        <ele>770.7</ele>
        <time>2022-07-21T05:22:54Z</time>
      </trkpt>
      <trkpt lat="44.16713" lon="5.17266">
        <ele>770.8</ele>
        <time>2022-07-21T05:22:55Z</time>
      </trkpt>
      <trkpt lat="44.16713" lon="5.17268">
        <ele>771</ele>
        <time>2022-07-21T05:22:56Z</time>
      </trkpt>
      <trkpt lat="44.16713" lon="5.17271">
        <ele>771.1</ele>
        <time>2022-07-21T05:22:57Z</time>
      </trkpt>
      <trkpt lat="44.16713" lon="5.17273">
        <ele>771.3</ele>
        <time>2022-07-21T05:22:58Z</time>
      </trkpt>
      <trkpt lat="44.16712" lon="5.17275">
        <ele>771.4</ele>
        <time>2022-07-21T05:22:59Z</time>
      </trkpt>
      <trkpt lat="44.16712" lon="5.17278">
        <ele>771.6</ele>
        <time>2022-07-21T05:23:00Z</time>
      </trkpt>
      <trkpt lat="44.16712" lon="5.1728">
        <ele>771.7</ele>
        <time>2022-07-21T05:23:01Z</time>
      </trkpt>
      <trkpt lat="44.16712" lon="5.17282">
        <ele>771.9</ele>
        <time>2022-07-21T05:23:02Z</time>
      </trkpt>
      <trkpt lat="44.16713" lon="5.17284">
        <ele>772</ele>
        <time>2022-07-21T05:23:03Z</time>
      </trkpt>
      <trkpt lat="44.16713" lon="5.17286">
        <ele>772.1</ele>
        <time>2022-07-21T05:23:04Z</time>
      </trkpt>
      <trkpt lat="44.16713" lon="5.17288">
        <ele>772.3</ele>
        <time>2022-07-21T05:23:05Z</time>
      </trkpt>
      <trkpt lat="44.16713" lon="5.1729">
        <ele>772.4</ele>
        <time>2022-07-21T05:23:06Z</time>
      </trkpt>
      <trkpt lat="44.16713" lon="5.17292">
        <ele>772.6</ele>
        <time>2022-07-21T05:23:07Z</time>
      </trkpt>
      <trkpt lat="44.16712" lon="5.17294">
        <ele>772.7</ele>
        <time>2022-07-21T05:23:08Z</time>
      </trkpt>
      <trkpt lat="44.16712" lon="5.17296">
        <ele>772.9</ele>
        <time>2022-07-21T05:23:09Z</time>
      </trkpt>
      <trkpt lat="44.16712" lon="5.17299">
        <ele>773</ele>
        <time>2022-07-21T05:23:10Z</time>
      </trkpt>
      <trkpt lat="44.16712" lon="5.17301">
        <ele>773.2</ele>
        <time>2022-07-21T05:23:11Z</time>
      </trkpt>
      <trkpt lat="44.16712" lon="5.17303">
        <ele>773.4</ele>
        <time>2022-07-21T05:23:12Z</time>
      </trkpt>
      <trkpt lat="44.16712" lon="5.17305">
        <ele>773.5</ele>
        <time>2022-07-21T05:23:13Z</time>
      </trkpt>
      <trkpt lat="44.16713" lon="5.17307">
        <ele>773.7</ele>
        <time>2022-07-21T05:23:14Z</time>
      </trkpt>
      <trkpt lat="44.16713" lon="5.1731">
        <ele>773.8</ele>
        <time>2022-07-21T05:23:15Z</time>
      </trkpt>
      <trkpt lat="44.16713" lon="5.17311">
        <ele>774</ele>
        <time>2022-07-21T05:23:16Z</time>
      </trkpt>
      <trkpt lat="44.16712" lon="5.17313">
        <ele>774.1</ele>
        <time>2022-07-21T05:23:17Z</time>
      </trkpt>
      <trkpt lat="44.16712" lon="5.17315">
        <ele>774.3</ele>
        <time>2022-07-21T05:23:18Z</time>
      </trkpt>
      <trkpt lat="44.16712" lon="5.17318">
        <ele>774.4</ele>
        <time>2022-07-21T05:23:19Z</time>
      </trkpt>
      <trkpt lat="44.16712" lon="5.17322">
        <ele>774.7</ele>
        <time>2022-07-21T05:23:20Z</time>
      </trkpt>
      <trkpt lat="44.16712" lon="5.17323">
        <ele>774.8</ele>
        <time>2022-07-21T05:23:21Z</time>
      </trkpt>
      <trkpt lat="44.16712" lon="5.17326">
        <ele>775</ele>
        <time>2022-07-21T05:23:22Z</time>
      </trkpt>
      <trkpt lat="44.16712" lon="5.17328">
        <ele>775.2</ele>
        <time>2022-07-21T05:23:23Z</time>
      </trkpt>
      <trkpt lat="44.16712" lon="5.17332">
        <ele>775.5</ele>
        <time>2022-07-21T05:23:24Z</time>
      </trkpt>
      <trkpt lat="44.16712" lon="5.17333">
        <ele>775.6</ele>
        <time>2022-07-21T05:23:25Z</time>
      </trkpt>
      <trkpt lat="44.16712" lon="5.17336">
        <ele>775.7</ele>
        <time>2022-07-21T05:23:26Z</time>
      </trkpt>
      <trkpt lat="44.16711" lon="5.17338">
        <ele>775.9</ele>
        <time>2022-07-21T05:23:27Z</time>
      </trkpt>
      <trkpt lat="44.16711" lon="5.1734">
        <ele>776.1</ele>
        <time>2022-07-21T05:23:28Z</time>
      </trkpt>
      <trkpt lat="44.16711" lon="5.17342">
        <ele>776.2</ele>
        <time>2022-07-21T05:23:29Z</time>
      </trkpt>
      <trkpt lat="44.16711" lon="5.17344">
        <ele>776.4</ele>
        <time>2022-07-21T05:23:30Z</time>
      </trkpt>
      <trkpt lat="44.16711" lon="5.17346">
        <ele>776.5</ele>
        <time>2022-07-21T05:23:31Z</time>
      </trkpt>
      <trkpt lat="44.16711" lon="5.17349">
        <ele>776.7</ele>
        <time>2022-07-21T05:23:32Z</time>
      </trkpt>
      <trkpt lat="44.16711" lon="5.17351">
        <ele>776.8</ele>
        <time>2022-07-21T05:23:33Z</time>
      </trkpt>
      <trkpt lat="44.16711" lon="5.17353">
        <ele>777</ele>
        <time>2022-07-21T05:23:34Z</time>
      </trkpt>
      <trkpt lat="44.16711" lon="5.17355">
        <ele>777.1</ele>
        <time>2022-07-21T05:23:35Z</time>
      </trkpt>
      <trkpt lat="44.16711" lon="5.17358">
        <ele>777.3</ele>
        <time>2022-07-21T05:23:36Z</time>
      </trkpt>
      <trkpt lat="44.16711" lon="5.1736">
        <ele>777.5</ele>
        <time>2022-07-21T05:23:37Z</time>
      </trkpt>
      <trkpt lat="44.16711" lon="5.17363">
        <ele>777.6</ele>
        <time>2022-07-21T05:23:38Z</time>
      </trkpt>
      <trkpt lat="44.16711" lon="5.17365">
        <ele>777.8</ele>
        <time>2022-07-21T05:23:39Z</time>
      </trkpt>
      <trkpt lat="44.16711" lon="5.17367">
        <ele>778</ele>
        <time>2022-07-21T05:23:40Z</time>
      </trkpt>
      <trkpt lat="44.16711" lon="5.1737">
        <ele>778.1</ele>
        <time>2022-07-21T05:23:41Z</time>
      </trkpt>
      <trkpt lat="44.16711" lon="5.17372">
        <ele>778.2</ele>
        <time>2022-07-21T05:23:42Z</time>
      </trkpt>
      <trkpt lat="44.16711" lon="5.17375">
        <ele>778.4</ele>
        <time>2022-07-21T05:23:43Z</time>
      </trkpt>
      <trkpt lat="44.16711" lon="5.17379">
        <ele>778.7</ele>
        <time>2022-07-21T05:23:44Z</time>
      </trkpt>
      <trkpt lat="44.16711" lon="5.1738">
        <ele>778.7</ele>
        <time>2022-07-21T05:23:45Z</time>
      </trkpt>
      <trkpt lat="44.16711" lon="5.17384">
        <ele>779</ele>
        <time>2022-07-21T05:23:46Z</time>
      </trkpt>
      <trkpt lat="44.16711" lon="5.17385">
        <ele>779.1</ele>
        <time>2022-07-21T05:23:47Z</time>
      </trkpt>
      <trkpt lat="44.16711" lon="5.17389">
        <ele>779.3</ele>
        <time>2022-07-21T05:23:48Z</time>
      </trkpt>
      <trkpt lat="44.16712" lon="5.17391">
        <ele>779.4</ele>
        <time>2022-07-21T05:23:49Z</time>
      </trkpt>
      <trkpt lat="44.16712" lon="5.17393">
        <ele>779.5</ele>
        <time>2022-07-21T05:23:50Z</time>
      </trkpt>
      <trkpt lat="44.16712" lon="5.17395">
        <ele>779.7</ele>
        <time>2022-07-21T05:23:51Z</time>
      </trkpt>
      <trkpt lat="44.16712" lon="5.17398">
        <ele>779.8</ele>
        <time>2022-07-21T05:23:52Z</time>
      </trkpt>
      <trkpt lat="44.16711" lon="5.174">
        <ele>779.9</ele>
        <time>2022-07-21T05:23:53Z</time>
      </trkpt>
      <trkpt lat="44.16711" lon="5.17404">
        <ele>780.1</ele>
        <time>2022-07-21T05:23:54Z</time>
      </trkpt>
      <trkpt lat="44.16711" lon="5.17405">
        <ele>780.2</ele>
        <time>2022-07-21T05:23:55Z</time>
      </trkpt>
      <trkpt lat="44.16712" lon="5.17409">
        <ele>780.4</ele>
        <time>2022-07-21T05:23:56Z</time>
      </trkpt>
      <trkpt lat="44.16712" lon="5.1741">
        <ele>780.4</ele>
        <time>2022-07-21T05:23:57Z</time>
      </trkpt>
      <trkpt lat="44.16712" lon="5.17414">
        <ele>780.6</ele>
        <time>2022-07-21T05:23:58Z</time>
      </trkpt>
      <trkpt lat="44.16712" lon="5.17415">
        <ele>780.7</ele>
        <time>2022-07-21T05:23:59Z</time>
      </trkpt>
      <trkpt lat="44.16712" lon="5.17419">
        <ele>780.9</ele>
        <time>2022-07-21T05:24:00Z</time>
      </trkpt>
      <trkpt lat="44.16713" lon="5.17421">
        <ele>781</ele>
        <time>2022-07-21T05:24:01Z</time>
      </trkpt>
      <trkpt lat="44.16713" lon="5.17425">
        <ele>781.1</ele>
        <time>2022-07-21T05:24:02Z</time>
      </trkpt>
      <trkpt lat="44.16713" lon="5.17426">
        <ele>781.2</ele>
        <time>2022-07-21T05:24:03Z</time>
      </trkpt>
      <trkpt lat="44.16713" lon="5.1743">
        <ele>781.4</ele>
        <time>2022-07-21T05:24:04Z</time>
      </trkpt>
      <trkpt lat="44.16713" lon="5.17431">
        <ele>781.4</ele>
        <time>2022-07-21T05:24:05Z</time>
      </trkpt>
      <trkpt lat="44.16713" lon="5.17436">
        <ele>781.6</ele>
        <time>2022-07-21T05:24:06Z</time>
      </trkpt>
      <trkpt lat="44.16713" lon="5.17437">
        <ele>781.7</ele>
        <time>2022-07-21T05:24:07Z</time>
      </trkpt>
      <trkpt lat="44.16713" lon="5.17441">
        <ele>781.8</ele>
        <time>2022-07-21T05:24:08Z</time>
      </trkpt>
      <trkpt lat="44.16713" lon="5.17442">
        <ele>781.9</ele>
        <time>2022-07-21T05:24:09Z</time>
      </trkpt>
      <trkpt lat="44.16713" lon="5.17446">
        <ele>782</ele>
        <time>2022-07-21T05:24:10Z</time>
      </trkpt>
      <trkpt lat="44.16713" lon="5.17448">
        <ele>782.1</ele>
        <time>2022-07-21T05:24:11Z</time>
      </trkpt>
      <trkpt lat="44.16714" lon="5.17451">
        <ele>782.2</ele>
        <time>2022-07-21T05:24:12Z</time>
      </trkpt>
      <trkpt lat="44.16714" lon="5.17453">
        <ele>782.3</ele>
        <time>2022-07-21T05:24:13Z</time>
      </trkpt>
      <trkpt lat="44.16714" lon="5.17455">
        <ele>782.4</ele>
        <time>2022-07-21T05:24:14Z</time>
      </trkpt>
      <trkpt lat="44.16714" lon="5.17458">
        <ele>782.5</ele>
        <time>2022-07-21T05:24:15Z</time>
      </trkpt>
      <trkpt lat="44.16714" lon="5.1746">
        <ele>782.6</ele>
        <time>2022-07-21T05:24:16Z</time>
      </trkpt>
      <trkpt lat="44.16714" lon="5.17462">
        <ele>782.7</ele>
        <time>2022-07-21T05:24:17Z</time>
      </trkpt>
      <trkpt lat="44.16714" lon="5.17465">
        <ele>782.8</ele>
        <time>2022-07-21T05:24:18Z</time>
      </trkpt>
      <trkpt lat="44.16714" lon="5.17467">
        <ele>782.9</ele>
        <time>2022-07-21T05:24:19Z</time>
      </trkpt>
      <trkpt lat="44.16715" lon="5.17469">
        <ele>783</ele>
        <time>2022-07-21T05:24:20Z</time>
      </trkpt>
      <trkpt lat="44.16715" lon="5.17472">
        <ele>783.1</ele>
        <time>2022-07-21T05:24:21Z</time>
      </trkpt>
      <trkpt lat="44.16715" lon="5.17476">
        <ele>783.2</ele>
        <time>2022-07-21T05:24:22Z</time>
      </trkpt>
      <trkpt lat="44.16715" lon="5.17477">
        <ele>783.3</ele>
        <time>2022-07-21T05:24:23Z</time>
      </trkpt>
      <trkpt lat="44.16716" lon="5.17479">
        <ele>783.4</ele>
        <time>2022-07-21T05:24:24Z</time>
      </trkpt>
      <trkpt lat="44.16716" lon="5.17482">
        <ele>783.5</ele>
        <time>2022-07-21T05:24:25Z</time>
      </trkpt>
      <trkpt lat="44.16716" lon="5.17485">
        <ele>783.6</ele>
        <time>2022-07-21T05:24:26Z</time>
      </trkpt>
      <trkpt lat="44.16716" lon="5.17487">
        <ele>783.7</ele>
        <time>2022-07-21T05:24:27Z</time>
      </trkpt>
      <trkpt lat="44.16716" lon="5.17491">
        <ele>783.8</ele>
        <time>2022-07-21T05:24:28Z</time>
      </trkpt>
      <trkpt lat="44.16716" lon="5.17492">
        <ele>783.9</ele>
        <time>2022-07-21T05:24:29Z</time>
      </trkpt>
      <trkpt lat="44.16716" lon="5.17496">
        <ele>784.1</ele>
        <time>2022-07-21T05:24:30Z</time>
      </trkpt>
      <trkpt lat="44.16716" lon="5.17498">
        <ele>784.2</ele>
        <time>2022-07-21T05:24:31Z</time>
      </trkpt>
      <trkpt lat="44.16716" lon="5.17502">
        <ele>784.3</ele>
        <time>2022-07-21T05:24:32Z</time>
      </trkpt>
      <trkpt lat="44.16716" lon="5.17503">
        <ele>784.4</ele>
        <time>2022-07-21T05:24:33Z</time>
      </trkpt>
      <trkpt lat="44.16716" lon="5.17507">
        <ele>784.6</ele>
        <time>2022-07-21T05:24:34Z</time>
      </trkpt>
      <trkpt lat="44.16715" lon="5.17509">
        <ele>784.6</ele>
        <time>2022-07-21T05:24:35Z</time>
      </trkpt>
      <trkpt lat="44.16715" lon="5.17512">
        <ele>784.8</ele>
        <time>2022-07-21T05:24:36Z</time>
      </trkpt>
      <trkpt lat="44.16715" lon="5.17514">
        <ele>784.8</ele>
        <time>2022-07-21T05:24:37Z</time>
      </trkpt>
      <trkpt lat="44.16716" lon="5.17518">
        <ele>785</ele>
        <time>2022-07-21T05:24:38Z</time>
      </trkpt>
      <trkpt lat="44.16716" lon="5.17519">
        <ele>785.1</ele>
        <time>2022-07-21T05:24:39Z</time>
      </trkpt>
      <trkpt lat="44.16716" lon="5.17523">
        <ele>785.3</ele>
        <time>2022-07-21T05:24:40Z</time>
      </trkpt>
      <trkpt lat="44.16716" lon="5.17525">
        <ele>785.3</ele>
        <time>2022-07-21T05:24:41Z</time>
      </trkpt>
      <trkpt lat="44.16716" lon="5.17529">
        <ele>785.5</ele>
        <time>2022-07-21T05:24:42Z</time>
      </trkpt>
      <trkpt lat="44.16717" lon="5.1753">
        <ele>785.5</ele>
        <time>2022-07-21T05:24:43Z</time>
      </trkpt>
      <trkpt lat="44.16717" lon="5.17533">
        <ele>785.7</ele>
        <time>2022-07-21T05:24:44Z</time>
      </trkpt>
      <trkpt lat="44.16717" lon="5.17535">
        <ele>785.7</ele>
        <time>2022-07-21T05:24:45Z</time>
      </trkpt>
      <trkpt lat="44.16717" lon="5.17539">
        <ele>785.9</ele>
        <time>2022-07-21T05:24:46Z</time>
      </trkpt>
      <trkpt lat="44.16717" lon="5.1754">
        <ele>786</ele>
        <time>2022-07-21T05:24:47Z</time>
      </trkpt>
      <trkpt lat="44.16718" lon="5.17544">
        <ele>786.1</ele>
        <time>2022-07-21T05:24:48Z</time>
      </trkpt>
      <trkpt lat="44.16718" lon="5.17546">
        <ele>786.2</ele>
        <time>2022-07-21T05:24:49Z</time>
      </trkpt>
      <trkpt lat="44.16719" lon="5.1755">
        <ele>786.4</ele>
        <time>2022-07-21T05:24:50Z</time>
      </trkpt>
      <trkpt lat="44.16719" lon="5.17551">
        <ele>786.4</ele>
        <time>2022-07-21T05:24:51Z</time>
      </trkpt>
      <trkpt lat="44.1672" lon="5.17556">
        <ele>786.6</ele>
        <time>2022-07-21T05:24:52Z</time>
      </trkpt>
      <trkpt lat="44.16721" lon="5.17557">
        <ele>786.7</ele>
        <time>2022-07-21T05:24:53Z</time>
      </trkpt>
      <trkpt lat="44.16722" lon="5.17561">
        <ele>786.8</ele>
        <time>2022-07-21T05:24:54Z</time>
      </trkpt>
      <trkpt lat="44.16722" lon="5.17562">
        <ele>786.9</ele>
        <time>2022-07-21T05:24:55Z</time>
      </trkpt>
      <trkpt lat="44.16723" lon="5.17566">
        <ele>787</ele>
        <time>2022-07-21T05:24:56Z</time>
      </trkpt>
      <trkpt lat="44.16724" lon="5.17567">
        <ele>787.1</ele>
        <time>2022-07-21T05:24:57Z</time>
      </trkpt>
      <trkpt lat="44.16725" lon="5.17571">
        <ele>787.3</ele>
        <time>2022-07-21T05:24:58Z</time>
      </trkpt>
      <trkpt lat="44.16726" lon="5.17573">
        <ele>787.3</ele>
        <time>2022-07-21T05:24:59Z</time>
      </trkpt>
      <trkpt lat="44.16727" lon="5.17576">
        <ele>787.5</ele>
        <time>2022-07-21T05:25:00Z</time>
      </trkpt>
      <trkpt lat="44.16727" lon="5.17577">
        <ele>787.5</ele>
        <time>2022-07-21T05:25:01Z</time>
      </trkpt>
      <trkpt lat="44.16728" lon="5.1758">
        <ele>787.6</ele>
        <time>2022-07-21T05:25:02Z</time>
      </trkpt>
      <trkpt lat="44.16729" lon="5.17582">
        <ele>787.7</ele>
        <time>2022-07-21T05:25:03Z</time>
      </trkpt>
      <trkpt lat="44.1673" lon="5.17586">
        <ele>787.9</ele>
        <time>2022-07-21T05:25:04Z</time>
      </trkpt>
      <trkpt lat="44.16731" lon="5.17587">
        <ele>788</ele>
        <time>2022-07-21T05:25:05Z</time>
      </trkpt>
      <trkpt lat="44.16732" lon="5.17591">
        <ele>788.2</ele>
        <time>2022-07-21T05:25:06Z</time>
      </trkpt>
      <trkpt lat="44.16732" lon="5.17592">
        <ele>788.2</ele>
        <time>2022-07-21T05:25:07Z</time>
      </trkpt>
      <trkpt lat="44.16734" lon="5.17595">
        <ele>788.4</ele>
        <time>2022-07-21T05:25:08Z</time>
      </trkpt>
      <trkpt lat="44.16734" lon="5.17597">
        <ele>788.4</ele>
        <time>2022-07-21T05:25:09Z</time>
      </trkpt>
      <trkpt lat="44.16735" lon="5.17599">
        <ele>788.5</ele>
        <time>2022-07-21T05:25:10Z</time>
      </trkpt>
      <trkpt lat="44.16736" lon="5.17601">
        <ele>788.6</ele>
        <time>2022-07-21T05:25:11Z</time>
      </trkpt>
      <trkpt lat="44.16737" lon="5.17604">
        <ele>788.8</ele>
        <time>2022-07-21T05:25:12Z</time>
      </trkpt>
      <trkpt lat="44.16737" lon="5.17606">
        <ele>788.9</ele>
        <time>2022-07-21T05:25:13Z</time>
      </trkpt>
      <trkpt lat="44.16738" lon="5.17609">
        <ele>789.1</ele>
        <time>2022-07-21T05:25:14Z</time>
      </trkpt>
      <trkpt lat="44.16739" lon="5.1761">
        <ele>789.1</ele>
        <time>2022-07-21T05:25:15Z</time>
      </trkpt>
      <trkpt lat="44.16739" lon="5.17612">
        <ele>789.2</ele>
        <time>2022-07-21T05:25:16Z</time>
      </trkpt>
      <trkpt lat="44.1674" lon="5.17615">
        <ele>789.3</ele>
        <time>2022-07-21T05:25:17Z</time>
      </trkpt>
      <trkpt lat="44.16741" lon="5.17617">
        <ele>789.4</ele>
        <time>2022-07-21T05:25:18Z</time>
      </trkpt>
      <trkpt lat="44.16741" lon="5.17619">
        <ele>789.5</ele>
        <time>2022-07-21T05:25:19Z</time>
      </trkpt>
      <trkpt lat="44.16742" lon="5.1762">
        <ele>789.6</ele>
        <time>2022-07-21T05:25:20Z</time>
      </trkpt>
      <trkpt lat="44.16742" lon="5.17623">
        <ele>789.7</ele>
        <time>2022-07-21T05:25:21Z</time>
      </trkpt>
      <trkpt lat="44.16743" lon="5.17625">
        <ele>789.8</ele>
        <time>2022-07-21T05:25:22Z</time>
      </trkpt>
      <trkpt lat="44.16743" lon="5.17627">
        <ele>789.9</ele>
        <time>2022-07-21T05:25:23Z</time>
      </trkpt>
      <trkpt lat="44.16744" lon="5.17631">
        <ele>790.1</ele>
        <time>2022-07-21T05:25:24Z</time>
      </trkpt>
      <trkpt lat="44.16744" lon="5.17632">
        <ele>790.2</ele>
        <time>2022-07-21T05:25:25Z</time>
      </trkpt>
      <trkpt lat="44.16745" lon="5.17635">
        <ele>790.3</ele>
        <time>2022-07-21T05:25:26Z</time>
      </trkpt>
      <trkpt lat="44.16746" lon="5.17637">
        <ele>790.4</ele>
        <time>2022-07-21T05:25:27Z</time>
      </trkpt>
      <trkpt lat="44.16746" lon="5.17639">
        <ele>790.5</ele>
        <time>2022-07-21T05:25:28Z</time>
      </trkpt>
      <trkpt lat="44.16747" lon="5.17641">
        <ele>790.7</ele>
        <time>2022-07-21T05:25:29Z</time>
      </trkpt>
      <trkpt lat="44.16747" lon="5.17643">
        <ele>790.8</ele>
        <time>2022-07-21T05:25:30Z</time>
      </trkpt>
      <trkpt lat="44.16748" lon="5.17645">
        <ele>790.9</ele>
        <time>2022-07-21T05:25:31Z</time>
      </trkpt>
      <trkpt lat="44.16748" lon="5.17649">
        <ele>791.1</ele>
        <time>2022-07-21T05:25:32Z</time>
      </trkpt>
      <trkpt lat="44.16748" lon="5.17651">
        <ele>791.1</ele>
        <time>2022-07-21T05:25:33Z</time>
      </trkpt>
      <trkpt lat="44.16749" lon="5.17654">
        <ele>791.3</ele>
        <time>2022-07-21T05:25:34Z</time>
      </trkpt>
      <trkpt lat="44.16749" lon="5.17656">
        <ele>791.4</ele>
        <time>2022-07-21T05:25:35Z</time>
      </trkpt>
      <trkpt lat="44.16749" lon="5.1766">
        <ele>791.6</ele>
        <time>2022-07-21T05:25:36Z</time>
      </trkpt>
      <trkpt lat="44.1675" lon="5.17661">
        <ele>791.7</ele>
        <time>2022-07-21T05:25:37Z</time>
      </trkpt>
      <trkpt lat="44.1675" lon="5.17667">
        <ele>792</ele>
        <time>2022-07-21T05:25:39Z</time>
      </trkpt>
      <trkpt lat="44.16751" lon="5.17671">
        <ele>792.3</ele>
        <time>2022-07-21T05:25:40Z</time>
      </trkpt>
      <trkpt lat="44.16751" lon="5.17672">
        <ele>792.3</ele>
        <time>2022-07-21T05:25:41Z</time>
      </trkpt>
      <trkpt lat="44.1675" lon="5.17674">
        <ele>792.5</ele>
        <time>2022-07-21T05:25:42Z</time>
      </trkpt>
      <trkpt lat="44.1675" lon="5.17676">
        <ele>792.6</ele>
        <time>2022-07-21T05:25:43Z</time>
      </trkpt>
      <trkpt lat="44.1675" lon="5.1768">
        <ele>792.9</ele>
        <time>2022-07-21T05:25:44Z</time>
      </trkpt>
      <trkpt lat="44.1675" lon="5.17682">
        <ele>792.9</ele>
        <time>2022-07-21T05:25:45Z</time>
      </trkpt>
      <trkpt lat="44.1675" lon="5.17684">
        <ele>793.1</ele>
        <time>2022-07-21T05:25:46Z</time>
      </trkpt>
      <trkpt lat="44.16749" lon="5.17686">
        <ele>793.2</ele>
        <time>2022-07-21T05:25:47Z</time>
      </trkpt>
      <trkpt lat="44.16749" lon="5.1769">
        <ele>793.5</ele>
        <time>2022-07-21T05:25:48Z</time>
      </trkpt>
      <trkpt lat="44.16749" lon="5.17691">
        <ele>793.6</ele>
        <time>2022-07-21T05:25:49Z</time>
      </trkpt>
      <trkpt lat="44.16749" lon="5.17695">
        <ele>793.8</ele>
        <time>2022-07-21T05:25:50Z</time>
      </trkpt>
      <trkpt lat="44.16749" lon="5.17697">
        <ele>793.9</ele>
        <time>2022-07-21T05:25:51Z</time>
      </trkpt>
      <trkpt lat="44.16748" lon="5.17701">
        <ele>794.2</ele>
        <time>2022-07-21T05:25:52Z</time>
      </trkpt>
      <trkpt lat="44.16748" lon="5.17702">
        <ele>794.3</ele>
        <time>2022-07-21T05:25:53Z</time>
      </trkpt>
      <trkpt lat="44.16748" lon="5.17704">
        <ele>794.5</ele>
        <time>2022-07-21T05:25:54Z</time>
      </trkpt>
      <trkpt lat="44.16748" lon="5.17707">
        <ele>794.6</ele>
        <time>2022-07-21T05:25:55Z</time>
      </trkpt>
      <trkpt lat="44.16747" lon="5.17711">
        <ele>794.9</ele>
        <time>2022-07-21T05:25:56Z</time>
      </trkpt>
      <trkpt lat="44.16747" lon="5.17712">
        <ele>795</ele>
        <time>2022-07-21T05:25:57Z</time>
      </trkpt>
      <trkpt lat="44.16747" lon="5.17715">
        <ele>795.2</ele>
        <time>2022-07-21T05:25:58Z</time>
      </trkpt>
      <trkpt lat="44.16746" lon="5.17717">
        <ele>795.4</ele>
        <time>2022-07-21T05:25:59Z</time>
      </trkpt>
      <trkpt lat="44.16746" lon="5.17719">
        <ele>795.5</ele>
        <time>2022-07-21T05:26:00Z</time>
      </trkpt>
      <trkpt lat="44.16745" lon="5.17721">
        <ele>795.7</ele>
        <time>2022-07-21T05:26:01Z</time>
      </trkpt>
      <trkpt lat="44.16745" lon="5.17723">
        <ele>795.9</ele>
        <time>2022-07-21T05:26:02Z</time>
      </trkpt>
      <trkpt lat="44.16744" lon="5.17725">
        <ele>796</ele>
        <time>2022-07-21T05:26:03Z</time>
      </trkpt>
      <trkpt lat="44.16743" lon="5.17728">
        <ele>796.2</ele>
        <time>2022-07-21T05:26:04Z</time>
      </trkpt>
      <trkpt lat="44.16743" lon="5.1773">
        <ele>796.4</ele>
        <time>2022-07-21T05:26:05Z</time>
      </trkpt>
      <trkpt lat="44.16742" lon="5.17732">
        <ele>796.5</ele>
        <time>2022-07-21T05:26:06Z</time>
      </trkpt>
      <trkpt lat="44.16742" lon="5.17734">
        <ele>796.7</ele>
        <time>2022-07-21T05:26:07Z</time>
      </trkpt>
      <trkpt lat="44.16741" lon="5.17736">
        <ele>796.8</ele>
        <time>2022-07-21T05:26:08Z</time>
      </trkpt>
      <trkpt lat="44.16741" lon="5.17738">
        <ele>797</ele>
        <time>2022-07-21T05:26:09Z</time>
      </trkpt>
      <trkpt lat="44.1674" lon="5.17742">
        <ele>797.3</ele>
        <time>2022-07-21T05:26:10Z</time>
      </trkpt>
      <trkpt lat="44.16739" lon="5.17743">
        <ele>797.4</ele>
        <time>2022-07-21T05:26:11Z</time>
      </trkpt>
      <trkpt lat="44.16738" lon="5.17746">
        <ele>797.6</ele>
        <time>2022-07-21T05:26:12Z</time>
      </trkpt>
      <trkpt lat="44.16738" lon="5.17747">
        <ele>797.7</ele>
        <time>2022-07-21T05:26:13Z</time>
      </trkpt>
      <trkpt lat="44.16736" lon="5.17751">
        <ele>798.1</ele>
        <time>2022-07-21T05:26:14Z</time>
      </trkpt>
      <trkpt lat="44.16736" lon="5.17753">
        <ele>798.2</ele>
        <time>2022-07-21T05:26:15Z</time>
      </trkpt>
      <trkpt lat="44.16736" lon="5.17755">
        <ele>798.4</ele>
        <time>2022-07-21T05:26:16Z</time>
      </trkpt>
      <trkpt lat="44.16735" lon="5.17757">
        <ele>798.5</ele>
        <time>2022-07-21T05:26:17Z</time>
      </trkpt>
      <trkpt lat="44.16734" lon="5.17759">
        <ele>798.7</ele>
        <time>2022-07-21T05:26:18Z</time>
      </trkpt>
      <trkpt lat="44.16734" lon="5.17761">
        <ele>798.9</ele>
        <time>2022-07-21T05:26:19Z</time>
      </trkpt>
      <trkpt lat="44.16733" lon="5.17763">
        <ele>799</ele>
        <time>2022-07-21T05:26:20Z</time>
      </trkpt>
      <trkpt lat="44.16732" lon="5.17765">
        <ele>799.2</ele>
        <time>2022-07-21T05:26:21Z</time>
      </trkpt>
      <trkpt lat="44.16731" lon="5.17768">
        <ele>799.5</ele>
        <time>2022-07-21T05:26:22Z</time>
      </trkpt>
      <trkpt lat="44.1673" lon="5.17769">
        <ele>799.6</ele>
        <time>2022-07-21T05:26:23Z</time>
      </trkpt>
      <trkpt lat="44.1673" lon="5.1777">
        <ele>799.6</ele>
        <time>2022-07-21T05:26:24Z</time>
      </trkpt>
      <trkpt lat="44.16729" lon="5.17772">
        <ele>799.8</ele>
        <time>2022-07-21T05:26:25Z</time>
      </trkpt>
      <trkpt lat="44.16728" lon="5.17773">
        <ele>800</ele>
        <time>2022-07-21T05:26:26Z</time>
      </trkpt>
      <trkpt lat="44.16727" lon="5.17776">
        <ele>800.2</ele>
        <time>2022-07-21T05:26:27Z</time>
      </trkpt>
      <trkpt lat="44.16727" lon="5.17777">
        <ele>800.3</ele>
        <time>2022-07-21T05:26:28Z</time>
      </trkpt>
      <trkpt lat="44.16726" lon="5.17778">
        <ele>800.4</ele>
        <time>2022-07-21T05:26:29Z</time>
      </trkpt>
      <trkpt lat="44.16725" lon="5.17779">
        <ele>800.5</ele>
        <time>2022-07-21T05:26:30Z</time>
      </trkpt>
      <trkpt lat="44.16725" lon="5.17781">
        <ele>800.7</ele>
        <time>2022-07-21T05:26:31Z</time>
      </trkpt>
      <trkpt lat="44.16724" lon="5.17783">
        <ele>800.9</ele>
        <time>2022-07-21T05:26:32Z</time>
      </trkpt>
      <trkpt lat="44.16723" lon="5.17785">
        <ele>801.1</ele>
        <time>2022-07-21T05:26:33Z</time>
      </trkpt>
      <trkpt lat="44.16722" lon="5.17787">
        <ele>801.3</ele>
        <time>2022-07-21T05:26:34Z</time>
      </trkpt>
      <trkpt lat="44.16721" lon="5.17789">
        <ele>801.4</ele>
        <time>2022-07-21T05:26:35Z</time>
      </trkpt>
      <trkpt lat="44.1672" lon="5.17791">
        <ele>801.6</ele>
        <time>2022-07-21T05:26:36Z</time>
      </trkpt>
      <trkpt lat="44.1672" lon="5.17793">
        <ele>801.8</ele>
        <time>2022-07-21T05:26:37Z</time>
      </trkpt>
      <trkpt lat="44.16719" lon="5.17795">
        <ele>802</ele>
        <time>2022-07-21T05:26:38Z</time>
      </trkpt>
      <trkpt lat="44.16718" lon="5.17797">
        <ele>802.2</ele>
        <time>2022-07-21T05:26:39Z</time>
      </trkpt>
      <trkpt lat="44.16717" lon="5.17799">
        <ele>802.4</ele>
        <time>2022-07-21T05:26:40Z</time>
      </trkpt>
      <trkpt lat="44.16716" lon="5.178">
        <ele>802.5</ele>
        <time>2022-07-21T05:26:41Z</time>
      </trkpt>
      <trkpt lat="44.16715" lon="5.17802">
        <ele>802.7</ele>
        <time>2022-07-21T05:26:42Z</time>
      </trkpt>
      <trkpt lat="44.16714" lon="5.17803">
        <ele>802.9</ele>
        <time>2022-07-21T05:26:43Z</time>
      </trkpt>
      <trkpt lat="44.16713" lon="5.17805">
        <ele>803.1</ele>
        <time>2022-07-21T05:26:44Z</time>
      </trkpt>
      <trkpt lat="44.16712" lon="5.17807">
        <ele>803.2</ele>
        <time>2022-07-21T05:26:45Z</time>
      </trkpt>
      <trkpt lat="44.16711" lon="5.17808">
        <ele>803.4</ele>
        <time>2022-07-21T05:26:46Z</time>
      </trkpt>
      <trkpt lat="44.1671" lon="5.1781">
        <ele>803.6</ele>
        <time>2022-07-21T05:26:47Z</time>
      </trkpt>
      <trkpt lat="44.16709" lon="5.17812">
        <ele>803.8</ele>
        <time>2022-07-21T05:26:48Z</time>
      </trkpt>
      <trkpt lat="44.16708" lon="5.17814">
        <ele>803.9</ele>
        <time>2022-07-21T05:26:49Z</time>
      </trkpt>
      <trkpt lat="44.16708" lon="5.17815">
        <ele>804.1</ele>
        <time>2022-07-21T05:26:50Z</time>
      </trkpt>
      <trkpt lat="44.16707" lon="5.17817">
        <ele>804.2</ele>
        <time>2022-07-21T05:26:51Z</time>
      </trkpt>
      <trkpt lat="44.16707" lon="5.17818">
        <ele>804.4</ele>
        <time>2022-07-21T05:26:52Z</time>
      </trkpt>
      <trkpt lat="44.16707" lon="5.1782">
        <ele>804.5</ele>
        <time>2022-07-21T05:26:53Z</time>
      </trkpt>
      <trkpt lat="44.16706" lon="5.17822">
        <ele>804.7</ele>
        <time>2022-07-21T05:26:54Z</time>
      </trkpt>
      <trkpt lat="44.16706" lon="5.17824">
        <ele>804.9</ele>
        <time>2022-07-21T05:26:55Z</time>
      </trkpt>
      <trkpt lat="44.16705" lon="5.17826">
        <ele>805.1</ele>
        <time>2022-07-21T05:26:56Z</time>
      </trkpt>
      <trkpt lat="44.16705" lon="5.17828">
        <ele>805.2</ele>
        <time>2022-07-21T05:26:57Z</time>
      </trkpt>
      <trkpt lat="44.16705" lon="5.1783">
        <ele>805.4</ele>
        <time>2022-07-21T05:26:58Z</time>
      </trkpt>
      <trkpt lat="44.16704" lon="5.17832">
        <ele>805.6</ele>
        <time>2022-07-21T05:26:59Z</time>
      </trkpt>
      <trkpt lat="44.16703" lon="5.17834">
        <ele>805.8</ele>
        <time>2022-07-21T05:27:00Z</time>
      </trkpt>
      <trkpt lat="44.16703" lon="5.17836">
        <ele>805.9</ele>
        <time>2022-07-21T05:27:01Z</time>
      </trkpt>
      <trkpt lat="44.16702" lon="5.17837">
        <ele>806.1</ele>
        <time>2022-07-21T05:27:02Z</time>
      </trkpt>
      <trkpt lat="44.16701" lon="5.1784">
        <ele>806.4</ele>
        <time>2022-07-21T05:27:03Z</time>
      </trkpt>
      <trkpt lat="44.167" lon="5.17841">
        <ele>806.5</ele>
        <time>2022-07-21T05:27:04Z</time>
      </trkpt>
      <trkpt lat="44.167" lon="5.17842">
        <ele>806.6</ele>
        <time>2022-07-21T05:27:05Z</time>
      </trkpt>
      <trkpt lat="44.16699" lon="5.17844">
        <ele>806.8</ele>
        <time>2022-07-21T05:27:06Z</time>
      </trkpt>
      <trkpt lat="44.16699" lon="5.17846">
        <ele>806.9</ele>
        <time>2022-07-21T05:27:07Z</time>
      </trkpt>
      <trkpt lat="44.16699" lon="5.17848">
        <ele>807.1</ele>
        <time>2022-07-21T05:27:08Z</time>
      </trkpt>
      <trkpt lat="44.16698" lon="5.1785">
        <ele>807.3</ele>
        <time>2022-07-21T05:27:09Z</time>
      </trkpt>
      <trkpt lat="44.16698" lon="5.17851">
        <ele>807.4</ele>
        <time>2022-07-21T05:27:10Z</time>
      </trkpt>
      <trkpt lat="44.16697" lon="5.17854">
        <ele>807.6</ele>
        <time>2022-07-21T05:27:11Z</time>
      </trkpt>
      <trkpt lat="44.16697" lon="5.17856">
        <ele>807.8</ele>
        <time>2022-07-21T05:27:12Z</time>
      </trkpt>
      <trkpt lat="44.16696" lon="5.17858">
        <ele>808</ele>
        <time>2022-07-21T05:27:13Z</time>
      </trkpt>
      <trkpt lat="44.16696" lon="5.1786">
        <ele>808.2</ele>
        <time>2022-07-21T05:27:14Z</time>
      </trkpt>
      <trkpt lat="44.16696" lon="5.17861">
        <ele>808.3</ele>
        <time>2022-07-21T05:27:15Z</time>
      </trkpt>
      <trkpt lat="44.16695" lon="5.17864">
        <ele>808.5</ele>
        <time>2022-07-21T05:27:16Z</time>
      </trkpt>
      <trkpt lat="44.16695" lon="5.17866">
        <ele>808.7</ele>
        <time>2022-07-21T05:27:17Z</time>
      </trkpt>
      <trkpt lat="44.16695" lon="5.17868">
        <ele>808.9</ele>
        <time>2022-07-21T05:27:18Z</time>
      </trkpt>
      <trkpt lat="44.16694" lon="5.1787">
        <ele>809.1</ele>
        <time>2022-07-21T05:27:19Z</time>
      </trkpt>
      <trkpt lat="44.16694" lon="5.17873">
        <ele>809.3</ele>
        <time>2022-07-21T05:27:20Z</time>
      </trkpt>
      <trkpt lat="44.16694" lon="5.17874">
        <ele>809.5</ele>
        <time>2022-07-21T05:27:21Z</time>
      </trkpt>
      <trkpt lat="44.16694" lon="5.17875">
        <ele>809.6</ele>
        <time>2022-07-21T05:27:22Z</time>
      </trkpt>
      <trkpt lat="44.16693" lon="5.17877">
        <ele>809.7</ele>
        <time>2022-07-21T05:27:23Z</time>
      </trkpt>
      <trkpt lat="44.16693" lon="5.17879">
        <ele>809.9</ele>
        <time>2022-07-21T05:27:24Z</time>
      </trkpt>
      <trkpt lat="44.16692" lon="5.17882">
        <ele>810.2</ele>
        <time>2022-07-21T05:27:25Z</time>
      </trkpt>
      <trkpt lat="44.16692" lon="5.17883">
        <ele>810.3</ele>
        <time>2022-07-21T05:27:26Z</time>
      </trkpt>
      <trkpt lat="44.16691" lon="5.17885">
        <ele>810.4</ele>
        <time>2022-07-21T05:27:27Z</time>
      </trkpt>
      <trkpt lat="44.16691" lon="5.17887">
        <ele>810.6</ele>
        <time>2022-07-21T05:27:28Z</time>
      </trkpt>
      <trkpt lat="44.16691" lon="5.17889">
        <ele>810.7</ele>
        <time>2022-07-21T05:27:29Z</time>
      </trkpt>
      <trkpt lat="44.1669" lon="5.17891">
        <ele>810.9</ele>
        <time>2022-07-21T05:27:30Z</time>
      </trkpt>
      <trkpt lat="44.1669" lon="5.17892">
        <ele>811</ele>
        <time>2022-07-21T05:27:31Z</time>
      </trkpt>
      <trkpt lat="44.16689" lon="5.17895">
        <ele>811.3</ele>
        <time>2022-07-21T05:27:32Z</time>
      </trkpt>
      <trkpt lat="44.16689" lon="5.17896">
        <ele>811.4</ele>
        <time>2022-07-21T05:27:33Z</time>
      </trkpt>
      <trkpt lat="44.16689" lon="5.17898">
        <ele>811.5</ele>
        <time>2022-07-21T05:27:34Z</time>
      </trkpt>
      <trkpt lat="44.16688" lon="5.17901">
        <ele>811.7</ele>
        <time>2022-07-21T05:27:35Z</time>
      </trkpt>
      <trkpt lat="44.16688" lon="5.17902">
        <ele>811.8</ele>
        <time>2022-07-21T05:27:36Z</time>
      </trkpt>
      <trkpt lat="44.16688" lon="5.17903">
        <ele>811.9</ele>
        <time>2022-07-21T05:27:37Z</time>
      </trkpt>
      <trkpt lat="44.16687" lon="5.17905">
        <ele>812.1</ele>
        <time>2022-07-21T05:27:38Z</time>
      </trkpt>
      <trkpt lat="44.16687" lon="5.17907">
        <ele>812.3</ele>
        <time>2022-07-21T05:27:39Z</time>
      </trkpt>
      <trkpt lat="44.16687" lon="5.1791">
        <ele>812.5</ele>
        <time>2022-07-21T05:27:40Z</time>
      </trkpt>
      <trkpt lat="44.16687" lon="5.17911">
        <ele>812.6</ele>
        <time>2022-07-21T05:27:41Z</time>
      </trkpt>
      <trkpt lat="44.16687" lon="5.17913">
        <ele>812.7</ele>
        <time>2022-07-21T05:27:42Z</time>
      </trkpt>
      <trkpt lat="44.16687" lon="5.17915">
        <ele>812.9</ele>
        <time>2022-07-21T05:27:43Z</time>
      </trkpt>
      <trkpt lat="44.16686" lon="5.17917">
        <ele>813.1</ele>
        <time>2022-07-21T05:27:44Z</time>
      </trkpt>
      <trkpt lat="44.16686" lon="5.1792">
        <ele>813.3</ele>
        <time>2022-07-21T05:27:45Z</time>
      </trkpt>
      <trkpt lat="44.16686" lon="5.17922">
        <ele>813.5</ele>
        <time>2022-07-21T05:27:46Z</time>
      </trkpt>
      <trkpt lat="44.16685" lon="5.17924">
        <ele>813.6</ele>
        <time>2022-07-21T05:27:47Z</time>
      </trkpt>
      <trkpt lat="44.16685" lon="5.17926">
        <ele>813.8</ele>
        <time>2022-07-21T05:27:48Z</time>
      </trkpt>
      <trkpt lat="44.16685" lon="5.17928">
        <ele>813.9</ele>
        <time>2022-07-21T05:27:49Z</time>
      </trkpt>
      <trkpt lat="44.16685" lon="5.1793">
        <ele>814.1</ele>
        <time>2022-07-21T05:27:50Z</time>
      </trkpt>
      <trkpt lat="44.16684" lon="5.17932">
        <ele>814.3</ele>
        <time>2022-07-21T05:27:51Z</time>
      </trkpt>
      <trkpt lat="44.16684" lon="5.17934">
        <ele>814.4</ele>
        <time>2022-07-21T05:27:52Z</time>
      </trkpt>
      <trkpt lat="44.16684" lon="5.17935">
        <ele>814.5</ele>
        <time>2022-07-21T05:27:53Z</time>
      </trkpt>
      <trkpt lat="44.16684" lon="5.17937">
        <ele>814.6</ele>
        <time>2022-07-21T05:27:54Z</time>
      </trkpt>
      <trkpt lat="44.16683" lon="5.1794">
        <ele>814.9</ele>
        <time>2022-07-21T05:27:55Z</time>
      </trkpt>
      <trkpt lat="44.16683" lon="5.17941">
        <ele>815</ele>
        <time>2022-07-21T05:27:56Z</time>
      </trkpt>
      <trkpt lat="44.16683" lon="5.17943">
        <ele>815.1</ele>
        <time>2022-07-21T05:27:57Z</time>
      </trkpt>
      <trkpt lat="44.16682" lon="5.17946">
        <ele>815.3</ele>
        <time>2022-07-21T05:27:58Z</time>
      </trkpt>
      <trkpt lat="44.16682" lon="5.17947">
        <ele>815.4</ele>
        <time>2022-07-21T05:27:59Z</time>
      </trkpt>
      <trkpt lat="44.16682" lon="5.17948">
        <ele>815.5</ele>
        <time>2022-07-21T05:28:00Z</time>
      </trkpt>
      <trkpt lat="44.16681" lon="5.1795">
        <ele>815.6</ele>
        <time>2022-07-21T05:28:01Z</time>
      </trkpt>
      <trkpt lat="44.1668" lon="5.17951">
        <ele>815.8</ele>
        <time>2022-07-21T05:28:02Z</time>
      </trkpt>
      <trkpt lat="44.16679" lon="5.17953">
        <ele>815.9</ele>
        <time>2022-07-21T05:28:03Z</time>
      </trkpt>
      <trkpt lat="44.16679" lon="5.17955">
        <ele>816.1</ele>
        <time>2022-07-21T05:28:04Z</time>
      </trkpt>
      <trkpt lat="44.16678" lon="5.17957">
        <ele>816.2</ele>
        <time>2022-07-21T05:28:05Z</time>
      </trkpt>
      <trkpt lat="44.16678" lon="5.17959">
        <ele>816.4</ele>
        <time>2022-07-21T05:28:06Z</time>
      </trkpt>
      <trkpt lat="44.16677" lon="5.17961">
        <ele>816.6</ele>
        <time>2022-07-21T05:28:07Z</time>
      </trkpt>
      <trkpt lat="44.16677" lon="5.17963">
        <ele>816.7</ele>
        <time>2022-07-21T05:28:08Z</time>
      </trkpt>
      <trkpt lat="44.16677" lon="5.17965">
        <ele>816.9</ele>
        <time>2022-07-21T05:28:09Z</time>
      </trkpt>
      <trkpt lat="44.16676" lon="5.17967">
        <ele>817.1</ele>
        <time>2022-07-21T05:28:10Z</time>
      </trkpt>
      <trkpt lat="44.16676" lon="5.17969">
        <ele>817.2</ele>
        <time>2022-07-21T05:28:11Z</time>
      </trkpt>
      <trkpt lat="44.16676" lon="5.17972">
        <ele>817.4</ele>
        <time>2022-07-21T05:28:12Z</time>
      </trkpt>
      <trkpt lat="44.16676" lon="5.17974">
        <ele>817.6</ele>
        <time>2022-07-21T05:28:13Z</time>
      </trkpt>
      <trkpt lat="44.16676" lon="5.17976">
        <ele>817.7</ele>
        <time>2022-07-21T05:28:14Z</time>
      </trkpt>
      <trkpt lat="44.16675" lon="5.17978">
        <ele>817.9</ele>
        <time>2022-07-21T05:28:15Z</time>
      </trkpt>
      <trkpt lat="44.16675" lon="5.1798">
        <ele>818</ele>
        <time>2022-07-21T05:28:16Z</time>
      </trkpt>
      <trkpt lat="44.16675" lon="5.17982">
        <ele>818.2</ele>
        <time>2022-07-21T05:28:17Z</time>
      </trkpt>
      <trkpt lat="44.16675" lon="5.17984">
        <ele>818.3</ele>
        <time>2022-07-21T05:28:18Z</time>
      </trkpt>
      <trkpt lat="44.16674" lon="5.17986">
        <ele>818.5</ele>
        <time>2022-07-21T05:28:19Z</time>
      </trkpt>
      <trkpt lat="44.16674" lon="5.17988">
        <ele>818.7</ele>
        <time>2022-07-21T05:28:20Z</time>
      </trkpt>
      <trkpt lat="44.16673" lon="5.1799">
        <ele>818.8</ele>
        <time>2022-07-21T05:28:21Z</time>
      </trkpt>
      <trkpt lat="44.16673" lon="5.17992">
        <ele>819</ele>
        <time>2022-07-21T05:28:22Z</time>
      </trkpt>
      <trkpt lat="44.16673" lon="5.17995">
        <ele>819.2</ele>
        <time>2022-07-21T05:28:23Z</time>
      </trkpt>
      <trkpt lat="44.16673" lon="5.17997">
        <ele>819.3</ele>
        <time>2022-07-21T05:28:24Z</time>
      </trkpt>
      <trkpt lat="44.16673" lon="5.17999">
        <ele>819.5</ele>
        <time>2022-07-21T05:28:25Z</time>
      </trkpt>
      <trkpt lat="44.16673" lon="5.18001">
        <ele>819.7</ele>
        <time>2022-07-21T05:28:26Z</time>
      </trkpt>
      <trkpt lat="44.16672" lon="5.18003">
        <ele>819.8</ele>
        <time>2022-07-21T05:28:27Z</time>
      </trkpt>
      <trkpt lat="44.16672" lon="5.18005">
        <ele>820</ele>
        <time>2022-07-21T05:28:28Z</time>
      </trkpt>
      <trkpt lat="44.16672" lon="5.18007">
        <ele>820.2</ele>
        <time>2022-07-21T05:28:29Z</time>
      </trkpt>
      <trkpt lat="44.16672" lon="5.18009">
        <ele>820.3</ele>
        <time>2022-07-21T05:28:30Z</time>
      </trkpt>
      <trkpt lat="44.16672" lon="5.18011">
        <ele>820.5</ele>
        <time>2022-07-21T05:28:31Z</time>
      </trkpt>
      <trkpt lat="44.16672" lon="5.18014">
        <ele>820.6</ele>
        <time>2022-07-21T05:28:32Z</time>
      </trkpt>
      <trkpt lat="44.16672" lon="5.18016">
        <ele>820.8</ele>
        <time>2022-07-21T05:28:33Z</time>
      </trkpt>
      <trkpt lat="44.16673" lon="5.18018">
        <ele>821</ele>
        <time>2022-07-21T05:28:34Z</time>
      </trkpt>
      <trkpt lat="44.16673" lon="5.1802">
        <ele>821.2</ele>
        <time>2022-07-21T05:28:35Z</time>
      </trkpt>
      <trkpt lat="44.16673" lon="5.18022">
        <ele>821.3</ele>
        <time>2022-07-21T05:28:36Z</time>
      </trkpt>
      <trkpt lat="44.16673" lon="5.18025">
        <ele>821.6</ele>
        <time>2022-07-21T05:28:37Z</time>
      </trkpt>
      <trkpt lat="44.16673" lon="5.18026">
        <ele>821.7</ele>
        <time>2022-07-21T05:28:38Z</time>
      </trkpt>
      <trkpt lat="44.16673" lon="5.18027">
        <ele>821.8</ele>
        <time>2022-07-21T05:28:39Z</time>
      </trkpt>
      <trkpt lat="44.16674" lon="5.1803">
        <ele>822</ele>
        <time>2022-07-21T05:28:40Z</time>
      </trkpt>
      <trkpt lat="44.16674" lon="5.18032">
        <ele>822.2</ele>
        <time>2022-07-21T05:28:41Z</time>
      </trkpt>
      <trkpt lat="44.16674" lon="5.18034">
        <ele>822.4</ele>
        <time>2022-07-21T05:28:42Z</time>
      </trkpt>
      <trkpt lat="44.16675" lon="5.18036">
        <ele>822.6</ele>
        <time>2022-07-21T05:28:43Z</time>
      </trkpt>
      <trkpt lat="44.16675" lon="5.18039">
        <ele>822.8</ele>
        <time>2022-07-21T05:28:44Z</time>
      </trkpt>
      <trkpt lat="44.16675" lon="5.1804">
        <ele>822.9</ele>
        <time>2022-07-21T05:28:45Z</time>
      </trkpt>
      <trkpt lat="44.16676" lon="5.18041">
        <ele>823</ele>
        <time>2022-07-21T05:28:46Z</time>
      </trkpt>
      <trkpt lat="44.16676" lon="5.18043">
        <ele>823.2</ele>
        <time>2022-07-21T05:28:47Z</time>
      </trkpt>
      <trkpt lat="44.16676" lon="5.18045">
        <ele>823.4</ele>
        <time>2022-07-21T05:28:48Z</time>
      </trkpt>
      <trkpt lat="44.16677" lon="5.18048">
        <ele>823.6</ele>
        <time>2022-07-21T05:28:49Z</time>
      </trkpt>
      <trkpt lat="44.16677" lon="5.1805">
        <ele>823.8</ele>
        <time>2022-07-21T05:28:50Z</time>
      </trkpt>
      <trkpt lat="44.16678" lon="5.18052">
        <ele>824</ele>
        <time>2022-07-21T05:28:51Z</time>
      </trkpt>
      <trkpt lat="44.16679" lon="5.18053">
        <ele>824.1</ele>
        <time>2022-07-21T05:28:52Z</time>
      </trkpt>
      <trkpt lat="44.16679" lon="5.18055">
        <ele>824.3</ele>
        <time>2022-07-21T05:28:53Z</time>
      </trkpt>
      <trkpt lat="44.1668" lon="5.18057">
        <ele>824.5</ele>
        <time>2022-07-21T05:28:54Z</time>
      </trkpt>
      <trkpt lat="44.16681" lon="5.18059">
        <ele>824.7</ele>
        <time>2022-07-21T05:28:55Z</time>
      </trkpt>
      <trkpt lat="44.16682" lon="5.18061">
        <ele>824.9</ele>
        <time>2022-07-21T05:28:56Z</time>
      </trkpt>
      <trkpt lat="44.16683" lon="5.18064">
        <ele>825.1</ele>
        <time>2022-07-21T05:28:57Z</time>
      </trkpt>
      <trkpt lat="44.16683" lon="5.18066">
        <ele>825.3</ele>
        <time>2022-07-21T05:28:58Z</time>
      </trkpt>
      <trkpt lat="44.16684" lon="5.18068">
        <ele>825.5</ele>
        <time>2022-07-21T05:28:59Z</time>
      </trkpt>
      <trkpt lat="44.16685" lon="5.1807">
        <ele>825.7</ele>
        <time>2022-07-21T05:29:00Z</time>
      </trkpt>
      <trkpt lat="44.16686" lon="5.18072">
        <ele>825.9</ele>
        <time>2022-07-21T05:29:01Z</time>
      </trkpt>
      <trkpt lat="44.16687" lon="5.18074">
        <ele>826</ele>
        <time>2022-07-21T05:29:02Z</time>
      </trkpt>
      <trkpt lat="44.16688" lon="5.18076">
        <ele>826.2</ele>
        <time>2022-07-21T05:29:03Z</time>
      </trkpt>
      <trkpt lat="44.16689" lon="5.18078">
        <ele>826.4</ele>
        <time>2022-07-21T05:29:04Z</time>
      </trkpt>
      <trkpt lat="44.16689" lon="5.1808">
        <ele>826.6</ele>
        <time>2022-07-21T05:29:05Z</time>
      </trkpt>
      <trkpt lat="44.1669" lon="5.18082">
        <ele>826.8</ele>
        <time>2022-07-21T05:29:06Z</time>
      </trkpt>
      <trkpt lat="44.16691" lon="5.18084">
        <ele>827</ele>
        <time>2022-07-21T05:29:07Z</time>
      </trkpt>
      <trkpt lat="44.16692" lon="5.18086">
        <ele>827.1</ele>
        <time>2022-07-21T05:29:08Z</time>
      </trkpt>
      <trkpt lat="44.16693" lon="5.18088">
        <ele>827.3</ele>
        <time>2022-07-21T05:29:09Z</time>
      </trkpt>
      <trkpt lat="44.16694" lon="5.1809">
        <ele>827.5</ele>
        <time>2022-07-21T05:29:10Z</time>
      </trkpt>
      <trkpt lat="44.16695" lon="5.18094">
        <ele>827.8</ele>
        <time>2022-07-21T05:29:11Z</time>
      </trkpt>
      <trkpt lat="44.16696" lon="5.18095">
        <ele>827.9</ele>
        <time>2022-07-21T05:29:12Z</time>
      </trkpt>
      <trkpt lat="44.16697" lon="5.18099">
        <ele>828.2</ele>
        <time>2022-07-21T05:29:13Z</time>
      </trkpt>
      <trkpt lat="44.16698" lon="5.181">
        <ele>828.3</ele>
        <time>2022-07-21T05:29:14Z</time>
      </trkpt>
      <trkpt lat="44.167" lon="5.18104">
        <ele>828.6</ele>
        <time>2022-07-21T05:29:15Z</time>
      </trkpt>
      <trkpt lat="44.167" lon="5.18105">
        <ele>828.7</ele>
        <time>2022-07-21T05:29:16Z</time>
      </trkpt>
      <trkpt lat="44.16702" lon="5.18108">
        <ele>829</ele>
        <time>2022-07-21T05:29:17Z</time>
      </trkpt>
      <trkpt lat="44.16702" lon="5.18109">
        <ele>829.1</ele>
        <time>2022-07-21T05:29:18Z</time>
      </trkpt>
      <trkpt lat="44.16704" lon="5.18113">
        <ele>829.4</ele>
        <time>2022-07-21T05:29:19Z</time>
      </trkpt>
      <trkpt lat="44.16704" lon="5.18114">
        <ele>829.5</ele>
        <time>2022-07-21T05:29:20Z</time>
      </trkpt>
      <trkpt lat="44.16705" lon="5.18117">
        <ele>829.7</ele>
        <time>2022-07-21T05:29:21Z</time>
      </trkpt>
      <trkpt lat="44.16706" lon="5.18118">
        <ele>829.8</ele>
        <time>2022-07-21T05:29:22Z</time>
      </trkpt>
      <trkpt lat="44.16707" lon="5.18122">
        <ele>830.1</ele>
        <time>2022-07-21T05:29:23Z</time>
      </trkpt>
      <trkpt lat="44.16707" lon="5.18123">
        <ele>830.2</ele>
        <time>2022-07-21T05:29:24Z</time>
      </trkpt>
      <trkpt lat="44.16709" lon="5.18126">
        <ele>830.4</ele>
        <time>2022-07-21T05:29:25Z</time>
      </trkpt>
      <trkpt lat="44.1671" lon="5.18128">
        <ele>830.5</ele>
        <time>2022-07-21T05:29:26Z</time>
      </trkpt>
      <trkpt lat="44.16711" lon="5.1813">
        <ele>830.7</ele>
        <time>2022-07-21T05:29:27Z</time>
      </trkpt>
      <trkpt lat="44.16711" lon="5.18132">
        <ele>830.8</ele>
        <time>2022-07-21T05:29:28Z</time>
      </trkpt>
      <trkpt lat="44.16712" lon="5.18134">
        <ele>831</ele>
        <time>2022-07-21T05:29:29Z</time>
      </trkpt>
      <trkpt lat="44.16713" lon="5.18136">
        <ele>831.2</ele>
        <time>2022-07-21T05:29:30Z</time>
      </trkpt>
      <trkpt lat="44.16714" lon="5.18138">
        <ele>831.3</ele>
        <time>2022-07-21T05:29:31Z</time>
      </trkpt>
      <trkpt lat="44.16715" lon="5.1814">
        <ele>831.5</ele>
        <time>2022-07-21T05:29:32Z</time>
      </trkpt>
      <trkpt lat="44.16716" lon="5.18142">
        <ele>831.6</ele>
        <time>2022-07-21T05:29:33Z</time>
      </trkpt>
      <trkpt lat="44.16716" lon="5.18144">
        <ele>831.7</ele>
        <time>2022-07-21T05:29:34Z</time>
      </trkpt>
      <trkpt lat="44.16717" lon="5.18146">
        <ele>831.9</ele>
        <time>2022-07-21T05:29:35Z</time>
      </trkpt>
      <trkpt lat="44.16717" lon="5.18147">
        <ele>832</ele>
        <time>2022-07-21T05:29:36Z</time>
      </trkpt>
      <trkpt lat="44.16718" lon="5.18149">
        <ele>832.1</ele>
        <time>2022-07-21T05:29:37Z</time>
      </trkpt>
      <trkpt lat="44.16718" lon="5.18151">
        <ele>832.2</ele>
        <time>2022-07-21T05:29:38Z</time>
      </trkpt>
      <trkpt lat="44.16719" lon="5.18153">
        <ele>832.3</ele>
        <time>2022-07-21T05:29:39Z</time>
      </trkpt>
      <trkpt lat="44.1672" lon="5.18155">
        <ele>832.5</ele>
        <time>2022-07-21T05:29:40Z</time>
      </trkpt>
      <trkpt lat="44.16721" lon="5.18157">
        <ele>832.6</ele>
        <time>2022-07-21T05:29:41Z</time>
      </trkpt>
      <trkpt lat="44.16721" lon="5.18159">
        <ele>832.8</ele>
        <time>2022-07-21T05:29:42Z</time>
      </trkpt>
      <trkpt lat="44.16722" lon="5.18161">
        <ele>832.9</ele>
        <time>2022-07-21T05:29:43Z</time>
      </trkpt>
      <trkpt lat="44.16723" lon="5.18163">
        <ele>833</ele>
        <time>2022-07-21T05:29:44Z</time>
      </trkpt>
      <trkpt lat="44.16723" lon="5.18164">
        <ele>833.2</ele>
        <time>2022-07-21T05:29:45Z</time>
      </trkpt>
      <trkpt lat="44.16724" lon="5.18166">
        <ele>833.3</ele>
        <time>2022-07-21T05:29:46Z</time>
      </trkpt>
      <trkpt lat="44.16725" lon="5.18168">
        <ele>833.4</ele>
        <time>2022-07-21T05:29:47Z</time>
      </trkpt>
      <trkpt lat="44.16727" lon="5.1817">
        <ele>833.6</ele>
        <time>2022-07-21T05:29:48Z</time>
      </trkpt>
      <trkpt lat="44.16727" lon="5.18171">
        <ele>833.7</ele>
        <time>2022-07-21T05:29:49Z</time>
      </trkpt>
      <trkpt lat="44.16728" lon="5.18172">
        <ele>833.7</ele>
        <time>2022-07-21T05:29:50Z</time>
      </trkpt>
      <trkpt lat="44.16728" lon="5.18174">
        <ele>833.9</ele>
        <time>2022-07-21T05:29:51Z</time>
      </trkpt>
      <trkpt lat="44.1673" lon="5.18175">
        <ele>834</ele>
        <time>2022-07-21T05:29:52Z</time>
      </trkpt>
      <trkpt lat="44.16731" lon="5.18178">
        <ele>834.2</ele>
        <time>2022-07-21T05:29:53Z</time>
      </trkpt>
      <trkpt lat="44.16731" lon="5.18179">
        <ele>834.2</ele>
        <time>2022-07-21T05:29:54Z</time>
      </trkpt>
      <trkpt lat="44.16732" lon="5.18181">
        <ele>834.2</ele>
        <time>2022-07-21T05:29:55Z</time>
      </trkpt>
      <trkpt lat="44.16733" lon="5.18184">
        <ele>834.2</ele>
        <time>2022-07-21T05:29:56Z</time>
      </trkpt>
      <trkpt lat="44.16733" lon="5.18186">
        <ele>834.2</ele>
        <time>2022-07-21T05:29:57Z</time>
      </trkpt>
      <trkpt lat="44.16735" lon="5.18189">
        <ele>834.2</ele>
        <time>2022-07-21T05:29:58Z</time>
      </trkpt>
      <trkpt lat="44.16735" lon="5.18191">
        <ele>834.2</ele>
        <time>2022-07-21T05:29:59Z</time>
      </trkpt>
      <trkpt lat="44.16737" lon="5.18194">
        <ele>834.3</ele>
        <time>2022-07-21T05:30:00Z</time>
      </trkpt>
      <trkpt lat="44.16738" lon="5.18195">
        <ele>834.3</ele>
        <time>2022-07-21T05:30:01Z</time>
      </trkpt>
      <trkpt lat="44.16739" lon="5.18199">
        <ele>834.3</ele>
        <time>2022-07-21T05:30:02Z</time>
      </trkpt>
      <trkpt lat="44.1674" lon="5.182">
        <ele>834.4</ele>
        <time>2022-07-21T05:30:03Z</time>
      </trkpt>
      <trkpt lat="44.16741" lon="5.18204">
        <ele>834.5</ele>
        <time>2022-07-21T05:30:04Z</time>
      </trkpt>
      <trkpt lat="44.16742" lon="5.18205">
        <ele>834.6</ele>
        <time>2022-07-21T05:30:05Z</time>
      </trkpt>
      <trkpt lat="44.16743" lon="5.18208">
        <ele>834.7</ele>
        <time>2022-07-21T05:30:06Z</time>
      </trkpt>
      <trkpt lat="44.16743" lon="5.1821">
        <ele>834.8</ele>
        <time>2022-07-21T05:30:07Z</time>
      </trkpt>
      <trkpt lat="44.16745" lon="5.18213">
        <ele>834.9</ele>
        <time>2022-07-21T05:30:08Z</time>
      </trkpt>
      <trkpt lat="44.16745" lon="5.18214">
        <ele>835</ele>
        <time>2022-07-21T05:30:09Z</time>
      </trkpt>
      <trkpt lat="44.16747" lon="5.18218">
        <ele>835.1</ele>
        <time>2022-07-21T05:30:10Z</time>
      </trkpt>
      <trkpt lat="44.16747" lon="5.18219">
        <ele>835.2</ele>
        <time>2022-07-21T05:30:11Z</time>
      </trkpt>
      <trkpt lat="44.16749" lon="5.18223">
        <ele>835.4</ele>
        <time>2022-07-21T05:30:12Z</time>
      </trkpt>
      <trkpt lat="44.16749" lon="5.18224">
        <ele>835.4</ele>
        <time>2022-07-21T05:30:13Z</time>
      </trkpt>
      <trkpt lat="44.16751" lon="5.18228">
        <ele>835.6</ele>
        <time>2022-07-21T05:30:14Z</time>
      </trkpt>
      <trkpt lat="44.16752" lon="5.18229">
        <ele>835.6</ele>
        <time>2022-07-21T05:30:15Z</time>
      </trkpt>
      <trkpt lat="44.16753" lon="5.18232">
        <ele>835.8</ele>
        <time>2022-07-21T05:30:16Z</time>
      </trkpt>
      <trkpt lat="44.16754" lon="5.18233">
        <ele>835.8</ele>
        <time>2022-07-21T05:30:17Z</time>
      </trkpt>
      <trkpt lat="44.16755" lon="5.18237">
        <ele>836</ele>
        <time>2022-07-21T05:30:18Z</time>
      </trkpt>
      <trkpt lat="44.16756" lon="5.18238">
        <ele>836</ele>
        <time>2022-07-21T05:30:19Z</time>
      </trkpt>
      <trkpt lat="44.16757" lon="5.18242">
        <ele>836.2</ele>
        <time>2022-07-21T05:30:20Z</time>
      </trkpt>
      <trkpt lat="44.16757" lon="5.18243">
        <ele>836.2</ele>
        <time>2022-07-21T05:30:21Z</time>
      </trkpt>
      <trkpt lat="44.16759" lon="5.18247">
        <ele>836.4</ele>
        <time>2022-07-21T05:30:22Z</time>
      </trkpt>
      <trkpt lat="44.16759" lon="5.18248">
        <ele>836.4</ele>
        <time>2022-07-21T05:30:23Z</time>
      </trkpt>
      <trkpt lat="44.16761" lon="5.18251">
        <ele>836.6</ele>
        <time>2022-07-21T05:30:24Z</time>
      </trkpt>
      <trkpt lat="44.16762" lon="5.18253">
        <ele>836.7</ele>
        <time>2022-07-21T05:30:25Z</time>
      </trkpt>
      <trkpt lat="44.16763" lon="5.18256">
        <ele>836.8</ele>
        <time>2022-07-21T05:30:26Z</time>
      </trkpt>
      <trkpt lat="44.16764" lon="5.18257">
        <ele>836.9</ele>
        <time>2022-07-21T05:30:27Z</time>
      </trkpt>
      <trkpt lat="44.16765" lon="5.18261">
        <ele>837</ele>
        <time>2022-07-21T05:30:28Z</time>
      </trkpt>
      <trkpt lat="44.16765" lon="5.18263">
        <ele>837.1</ele>
        <time>2022-07-21T05:30:29Z</time>
      </trkpt>
      <trkpt lat="44.16767" lon="5.18266">
        <ele>837.3</ele>
        <time>2022-07-21T05:30:30Z</time>
      </trkpt>
      <trkpt lat="44.16767" lon="5.18267">
        <ele>837.3</ele>
        <time>2022-07-21T05:30:31Z</time>
      </trkpt>
      <trkpt lat="44.16769" lon="5.18271">
        <ele>837.5</ele>
        <time>2022-07-21T05:30:32Z</time>
      </trkpt>
      <trkpt lat="44.16769" lon="5.18272">
        <ele>837.6</ele>
        <time>2022-07-21T05:30:33Z</time>
      </trkpt>
      <trkpt lat="44.1677" lon="5.18276">
        <ele>837.7</ele>
        <time>2022-07-21T05:30:34Z</time>
      </trkpt>
      <trkpt lat="44.16771" lon="5.18278">
        <ele>837.8</ele>
        <time>2022-07-21T05:30:35Z</time>
      </trkpt>
      <trkpt lat="44.16772" lon="5.18281">
        <ele>838</ele>
        <time>2022-07-21T05:30:36Z</time>
      </trkpt>
      <trkpt lat="44.16772" lon="5.18282">
        <ele>838</ele>
        <time>2022-07-21T05:30:37Z</time>
      </trkpt>
      <trkpt lat="44.16773" lon="5.18285">
        <ele>838.1</ele>
        <time>2022-07-21T05:30:38Z</time>
      </trkpt>
      <trkpt lat="44.16773" lon="5.18287">
        <ele>838.2</ele>
        <time>2022-07-21T05:30:39Z</time>
      </trkpt>
      <trkpt lat="44.16774" lon="5.18289">
        <ele>838.3</ele>
        <time>2022-07-21T05:30:40Z</time>
      </trkpt>
      <trkpt lat="44.16775" lon="5.18291">
        <ele>838.4</ele>
        <time>2022-07-21T05:30:41Z</time>
      </trkpt>
      <trkpt lat="44.16775" lon="5.18293">
        <ele>838.5</ele>
        <time>2022-07-21T05:30:42Z</time>
      </trkpt>
      <trkpt lat="44.16776" lon="5.18295">
        <ele>838.6</ele>
        <time>2022-07-21T05:30:43Z</time>
      </trkpt>
      <trkpt lat="44.16777" lon="5.18298">
        <ele>838.8</ele>
        <time>2022-07-21T05:30:44Z</time>
      </trkpt>
      <trkpt lat="44.16777" lon="5.183">
        <ele>838.9</ele>
        <time>2022-07-21T05:30:45Z</time>
      </trkpt>
      <trkpt lat="44.16778" lon="5.18302">
        <ele>839</ele>
        <time>2022-07-21T05:30:46Z</time>
      </trkpt>
      <trkpt lat="44.16779" lon="5.18304">
        <ele>839.1</ele>
        <time>2022-07-21T05:30:47Z</time>
      </trkpt>
      <trkpt lat="44.16779" lon="5.18306">
        <ele>839.2</ele>
        <time>2022-07-21T05:30:48Z</time>
      </trkpt>
      <trkpt lat="44.1678" lon="5.18308">
        <ele>839.3</ele>
        <time>2022-07-21T05:30:49Z</time>
      </trkpt>
      <trkpt lat="44.16781" lon="5.18312">
        <ele>839.5</ele>
        <time>2022-07-21T05:30:50Z</time>
      </trkpt>
      <trkpt lat="44.16781" lon="5.18313">
        <ele>839.5</ele>
        <time>2022-07-21T05:30:51Z</time>
      </trkpt>
      <trkpt lat="44.16782" lon="5.18317">
        <ele>839.7</ele>
        <time>2022-07-21T05:30:52Z</time>
      </trkpt>
      <trkpt lat="44.16782" lon="5.18318">
        <ele>839.7</ele>
        <time>2022-07-21T05:30:53Z</time>
      </trkpt>
      <trkpt lat="44.16783" lon="5.18322">
        <ele>839.9</ele>
        <time>2022-07-21T05:30:54Z</time>
      </trkpt>
      <trkpt lat="44.16783" lon="5.18323">
        <ele>840</ele>
        <time>2022-07-21T05:30:55Z</time>
      </trkpt>
      <trkpt lat="44.16783" lon="5.18326">
        <ele>840.1</ele>
        <time>2022-07-21T05:30:56Z</time>
      </trkpt>
      <trkpt lat="44.16784" lon="5.18328">
        <ele>840.2</ele>
        <time>2022-07-21T05:30:57Z</time>
      </trkpt>
      <trkpt lat="44.16784" lon="5.1833">
        <ele>840.3</ele>
        <time>2022-07-21T05:30:58Z</time>
      </trkpt>
      <trkpt lat="44.16785" lon="5.18332">
        <ele>840.4</ele>
        <time>2022-07-21T05:30:59Z</time>
      </trkpt>
      <trkpt lat="44.16785" lon="5.18335">
        <ele>840.5</ele>
        <time>2022-07-21T05:31:00Z</time>
      </trkpt>
      <trkpt lat="44.16786" lon="5.18337">
        <ele>840.6</ele>
        <time>2022-07-21T05:31:01Z</time>
      </trkpt>
      <trkpt lat="44.16786" lon="5.18339">
        <ele>840.7</ele>
        <time>2022-07-21T05:31:02Z</time>
      </trkpt>
      <trkpt lat="44.16787" lon="5.18342">
        <ele>840.8</ele>
        <time>2022-07-21T05:31:03Z</time>
      </trkpt>
      <trkpt lat="44.16787" lon="5.18344">
        <ele>840.9</ele>
        <time>2022-07-21T05:31:04Z</time>
      </trkpt>
      <trkpt lat="44.16788" lon="5.18346">
        <ele>841</ele>
        <time>2022-07-21T05:31:05Z</time>
      </trkpt>
      <trkpt lat="44.16788" lon="5.18349">
        <ele>841.1</ele>
        <time>2022-07-21T05:31:06Z</time>
      </trkpt>
      <trkpt lat="44.16789" lon="5.18351">
        <ele>841.2</ele>
        <time>2022-07-21T05:31:07Z</time>
      </trkpt>
      <trkpt lat="44.16789" lon="5.18355">
        <ele>841.3</ele>
        <time>2022-07-21T05:31:08Z</time>
      </trkpt>
      <trkpt lat="44.16789" lon="5.18356">
        <ele>841.4</ele>
        <time>2022-07-21T05:31:09Z</time>
      </trkpt>
      <trkpt lat="44.1679" lon="5.1836">
        <ele>841.6</ele>
        <time>2022-07-21T05:31:10Z</time>
      </trkpt>
      <trkpt lat="44.1679" lon="5.18361">
        <ele>841.6</ele>
        <time>2022-07-21T05:31:11Z</time>
      </trkpt>
      <trkpt lat="44.16791" lon="5.18363">
        <ele>841.7</ele>
        <time>2022-07-21T05:31:12Z</time>
      </trkpt>
      <trkpt lat="44.16791" lon="5.18366">
        <ele>841.8</ele>
        <time>2022-07-21T05:31:13Z</time>
      </trkpt>
      <trkpt lat="44.16792" lon="5.1837">
        <ele>842</ele>
        <time>2022-07-21T05:31:14Z</time>
      </trkpt>
      <trkpt lat="44.16792" lon="5.18371">
        <ele>842</ele>
        <time>2022-07-21T05:31:15Z</time>
      </trkpt>
      <trkpt lat="44.16792" lon="5.18373">
        <ele>842.1</ele>
        <time>2022-07-21T05:31:16Z</time>
      </trkpt>
      <trkpt lat="44.16793" lon="5.18376">
        <ele>842.2</ele>
        <time>2022-07-21T05:31:17Z</time>
      </trkpt>
      <trkpt lat="44.16793" lon="5.18378">
        <ele>842.3</ele>
        <time>2022-07-21T05:31:18Z</time>
      </trkpt>
      <trkpt lat="44.16794" lon="5.1838">
        <ele>842.4</ele>
        <time>2022-07-21T05:31:19Z</time>
      </trkpt>
      <trkpt lat="44.16794" lon="5.18383">
        <ele>842.5</ele>
        <time>2022-07-21T05:31:20Z</time>
      </trkpt>
      <trkpt lat="44.16794" lon="5.18385">
        <ele>842.6</ele>
        <time>2022-07-21T05:31:21Z</time>
      </trkpt>
      <trkpt lat="44.16795" lon="5.18387">
        <ele>842.8</ele>
        <time>2022-07-21T05:31:22Z</time>
      </trkpt>
      <trkpt lat="44.16795" lon="5.1839">
        <ele>842.9</ele>
        <time>2022-07-21T05:31:23Z</time>
      </trkpt>
      <trkpt lat="44.16795" lon="5.18394">
        <ele>843</ele>
        <time>2022-07-21T05:31:24Z</time>
      </trkpt>
      <trkpt lat="44.16795" lon="5.18395">
        <ele>843.1</ele>
        <time>2022-07-21T05:31:25Z</time>
      </trkpt>
      <trkpt lat="44.16796" lon="5.18399">
        <ele>843.2</ele>
        <time>2022-07-21T05:31:26Z</time>
      </trkpt>
      <trkpt lat="44.16796" lon="5.184">
        <ele>843.3</ele>
        <time>2022-07-21T05:31:27Z</time>
      </trkpt>
      <trkpt lat="44.16796" lon="5.18402">
        <ele>843.4</ele>
        <time>2022-07-21T05:31:28Z</time>
      </trkpt>
      <trkpt lat="44.16796" lon="5.18404">
        <ele>843.5</ele>
        <time>2022-07-21T05:31:29Z</time>
      </trkpt>
      <trkpt lat="44.16797" lon="5.18407">
        <ele>843.6</ele>
        <time>2022-07-21T05:31:30Z</time>
      </trkpt>
      <trkpt lat="44.16797" lon="5.18409">
        <ele>843.7</ele>
        <time>2022-07-21T05:31:31Z</time>
      </trkpt>
      <trkpt lat="44.16797" lon="5.18413">
        <ele>843.9</ele>
        <time>2022-07-21T05:31:32Z</time>
      </trkpt>
      <trkpt lat="44.16797" lon="5.18414">
        <ele>843.9</ele>
        <time>2022-07-21T05:31:33Z</time>
      </trkpt>
      <trkpt lat="44.16797" lon="5.18418">
        <ele>844.1</ele>
        <time>2022-07-21T05:31:34Z</time>
      </trkpt>
      <trkpt lat="44.16797" lon="5.1842">
        <ele>844.2</ele>
        <time>2022-07-21T05:31:35Z</time>
      </trkpt>
      <trkpt lat="44.16798" lon="5.18423">
        <ele>844.4</ele>
        <time>2022-07-21T05:31:36Z</time>
      </trkpt>
      <trkpt lat="44.16798" lon="5.18425">
        <ele>844.4</ele>
        <time>2022-07-21T05:31:37Z</time>
      </trkpt>
      <trkpt lat="44.16799" lon="5.18432">
        <ele>844.7</ele>
        <time>2022-07-21T05:31:39Z</time>
      </trkpt>
      <trkpt lat="44.16799" lon="5.18433">
        <ele>844.8</ele>
        <time>2022-07-21T05:31:40Z</time>
      </trkpt>
      <trkpt lat="44.168" lon="5.18437">
        <ele>845</ele>
        <time>2022-07-21T05:31:41Z</time>
      </trkpt>
      <trkpt lat="44.168" lon="5.18438">
        <ele>845</ele>
        <time>2022-07-21T05:31:42Z</time>
      </trkpt>
      <trkpt lat="44.16801" lon="5.18443">
        <ele>845.2</ele>
        <time>2022-07-21T05:31:43Z</time>
      </trkpt>
      <trkpt lat="44.16801" lon="5.18444">
        <ele>845.3</ele>
        <time>2022-07-21T05:31:44Z</time>
      </trkpt>
      <trkpt lat="44.16802" lon="5.18448">
        <ele>845.5</ele>
        <time>2022-07-21T05:31:45Z</time>
      </trkpt>
      <trkpt lat="44.16802" lon="5.1845">
        <ele>845.6</ele>
        <time>2022-07-21T05:31:46Z</time>
      </trkpt>
      <trkpt lat="44.16803" lon="5.18454">
        <ele>845.8</ele>
        <time>2022-07-21T05:31:47Z</time>
      </trkpt>
      <trkpt lat="44.16804" lon="5.18456">
        <ele>845.9</ele>
        <time>2022-07-21T05:31:48Z</time>
      </trkpt>
      <trkpt lat="44.16805" lon="5.1846">
        <ele>846.1</ele>
        <time>2022-07-21T05:31:49Z</time>
      </trkpt>
      <trkpt lat="44.16805" lon="5.18461">
        <ele>846.1</ele>
        <time>2022-07-21T05:31:50Z</time>
      </trkpt>
      <trkpt lat="44.16807" lon="5.18466">
        <ele>846.4</ele>
        <time>2022-07-21T05:31:51Z</time>
      </trkpt>
      <trkpt lat="44.16807" lon="5.18467">
        <ele>846.4</ele>
        <time>2022-07-21T05:31:52Z</time>
      </trkpt>
      <trkpt lat="44.16808" lon="5.18472">
        <ele>846.6</ele>
        <time>2022-07-21T05:31:53Z</time>
      </trkpt>
      <trkpt lat="44.16808" lon="5.18473">
        <ele>846.7</ele>
        <time>2022-07-21T05:31:54Z</time>
      </trkpt>
      <trkpt lat="44.16809" lon="5.18477">
        <ele>846.9</ele>
        <time>2022-07-21T05:31:55Z</time>
      </trkpt>
      <trkpt lat="44.1681" lon="5.18479">
        <ele>847</ele>
        <time>2022-07-21T05:31:56Z</time>
      </trkpt>
      <trkpt lat="44.16811" lon="5.18483">
        <ele>847.2</ele>
        <time>2022-07-21T05:31:57Z</time>
      </trkpt>
      <trkpt lat="44.16811" lon="5.18484">
        <ele>847.2</ele>
        <time>2022-07-21T05:31:58Z</time>
      </trkpt>
      <trkpt lat="44.16812" lon="5.18489">
        <ele>847.5</ele>
        <time>2022-07-21T05:31:59Z</time>
      </trkpt>
      <trkpt lat="44.16812" lon="5.1849">
        <ele>847.5</ele>
        <time>2022-07-21T05:32:00Z</time>
      </trkpt>
      <trkpt lat="44.16813" lon="5.18495">
        <ele>847.7</ele>
        <time>2022-07-21T05:32:01Z</time>
      </trkpt>
      <trkpt lat="44.16813" lon="5.18496">
        <ele>847.8</ele>
        <time>2022-07-21T05:32:02Z</time>
      </trkpt>
      <trkpt lat="44.16814" lon="5.185">
        <ele>848</ele>
        <time>2022-07-21T05:32:03Z</time>
      </trkpt>
      <trkpt lat="44.16814" lon="5.18502">
        <ele>848.1</ele>
        <time>2022-07-21T05:32:04Z</time>
      </trkpt>
      <trkpt lat="44.16815" lon="5.18506">
        <ele>848.3</ele>
        <time>2022-07-21T05:32:05Z</time>
      </trkpt>
      <trkpt lat="44.16816" lon="5.18507">
        <ele>848.4</ele>
        <time>2022-07-21T05:32:06Z</time>
      </trkpt>
      <trkpt lat="44.16817" lon="5.18512">
        <ele>848.6</ele>
        <time>2022-07-21T05:32:07Z</time>
      </trkpt>
      <trkpt lat="44.16817" lon="5.18513">
        <ele>848.6</ele>
        <time>2022-07-21T05:32:08Z</time>
      </trkpt>
      <trkpt lat="44.16818" lon="5.18517">
        <ele>848.9</ele>
        <time>2022-07-21T05:32:09Z</time>
      </trkpt>
      <trkpt lat="44.16818" lon="5.18519">
        <ele>848.9</ele>
        <time>2022-07-21T05:32:10Z</time>
      </trkpt>
      <trkpt lat="44.16819" lon="5.18523">
        <ele>849.1</ele>
        <time>2022-07-21T05:32:11Z</time>
      </trkpt>
      <trkpt lat="44.1682" lon="5.18524">
        <ele>849.2</ele>
        <time>2022-07-21T05:32:12Z</time>
      </trkpt>
      <trkpt lat="44.16821" lon="5.18528">
        <ele>849.4</ele>
        <time>2022-07-21T05:32:13Z</time>
      </trkpt>
      <trkpt lat="44.16821" lon="5.18529">
        <ele>849.5</ele>
        <time>2022-07-21T05:32:14Z</time>
      </trkpt>
      <trkpt lat="44.16823" lon="5.18533">
        <ele>849.7</ele>
        <time>2022-07-21T05:32:15Z</time>
      </trkpt>
      <trkpt lat="44.16823" lon="5.18534">
        <ele>849.7</ele>
        <time>2022-07-21T05:32:16Z</time>
      </trkpt>
      <trkpt lat="44.16824" lon="5.18538">
        <ele>849.9</ele>
        <time>2022-07-21T05:32:17Z</time>
      </trkpt>
      <trkpt lat="44.16824" lon="5.1854">
        <ele>850</ele>
        <time>2022-07-21T05:32:18Z</time>
      </trkpt>
      <trkpt lat="44.16826" lon="5.18544">
        <ele>850.2</ele>
        <time>2022-07-21T05:32:19Z</time>
      </trkpt>
      <trkpt lat="44.16826" lon="5.18545">
        <ele>850.3</ele>
        <time>2022-07-21T05:32:20Z</time>
      </trkpt>
      <trkpt lat="44.16827" lon="5.18549">
        <ele>850.5</ele>
        <time>2022-07-21T05:32:21Z</time>
      </trkpt>
      <trkpt lat="44.16828" lon="5.1855">
        <ele>850.6</ele>
        <time>2022-07-21T05:32:22Z</time>
      </trkpt>
      <trkpt lat="44.16829" lon="5.18554">
        <ele>850.8</ele>
        <time>2022-07-21T05:32:23Z</time>
      </trkpt>
      <trkpt lat="44.1683" lon="5.18555">
        <ele>850.8</ele>
        <time>2022-07-21T05:32:24Z</time>
      </trkpt>
      <trkpt lat="44.16831" lon="5.18558">
        <ele>851</ele>
        <time>2022-07-21T05:32:25Z</time>
      </trkpt>
      <trkpt lat="44.16832" lon="5.18559">
        <ele>851.1</ele>
        <time>2022-07-21T05:32:26Z</time>
      </trkpt>
      <trkpt lat="44.16834" lon="5.18563">
        <ele>851.3</ele>
        <time>2022-07-21T05:32:27Z</time>
      </trkpt>
      <trkpt lat="44.16835" lon="5.18564">
        <ele>851.4</ele>
        <time>2022-07-21T05:32:28Z</time>
      </trkpt>
      <trkpt lat="44.16837" lon="5.18567">
        <ele>851.6</ele>
        <time>2022-07-21T05:32:29Z</time>
      </trkpt>
      <trkpt lat="44.16837" lon="5.18568">
        <ele>851.6</ele>
        <time>2022-07-21T05:32:30Z</time>
      </trkpt>
      <trkpt lat="44.16839" lon="5.18572">
        <ele>851.8</ele>
        <time>2022-07-21T05:32:31Z</time>
      </trkpt>
      <trkpt lat="44.1684" lon="5.18573">
        <ele>851.9</ele>
        <time>2022-07-21T05:32:32Z</time>
      </trkpt>
      <trkpt lat="44.16842" lon="5.18576">
        <ele>852.1</ele>
        <time>2022-07-21T05:32:33Z</time>
      </trkpt>
      <trkpt lat="44.16843" lon="5.18577">
        <ele>852.1</ele>
        <time>2022-07-21T05:32:34Z</time>
      </trkpt>
      <trkpt lat="44.16845" lon="5.1858">
        <ele>852.3</ele>
        <time>2022-07-21T05:32:35Z</time>
      </trkpt>
      <trkpt lat="44.16846" lon="5.18582">
        <ele>852.4</ele>
        <time>2022-07-21T05:32:36Z</time>
      </trkpt>
      <trkpt lat="44.16848" lon="5.18585">
        <ele>852.6</ele>
        <time>2022-07-21T05:32:37Z</time>
      </trkpt>
      <trkpt lat="44.16848" lon="5.18586">
        <ele>852.7</ele>
        <time>2022-07-21T05:32:38Z</time>
      </trkpt>
      <trkpt lat="44.1685" lon="5.18589">
        <ele>852.9</ele>
        <time>2022-07-21T05:32:39Z</time>
      </trkpt>
      <trkpt lat="44.16851" lon="5.1859">
        <ele>852.9</ele>
        <time>2022-07-21T05:32:40Z</time>
      </trkpt>
      <trkpt lat="44.16853" lon="5.18593">
        <ele>853.1</ele>
        <time>2022-07-21T05:32:41Z</time>
      </trkpt>
      <trkpt lat="44.16854" lon="5.18594">
        <ele>853.2</ele>
        <time>2022-07-21T05:32:42Z</time>
      </trkpt>
      <trkpt lat="44.16856" lon="5.18598">
        <ele>853.4</ele>
        <time>2022-07-21T05:32:43Z</time>
      </trkpt>
      <trkpt lat="44.16857" lon="5.18599">
        <ele>853.4</ele>
        <time>2022-07-21T05:32:44Z</time>
      </trkpt>
      <trkpt lat="44.16859" lon="5.18602">
        <ele>853.6</ele>
        <time>2022-07-21T05:32:45Z</time>
      </trkpt>
      <trkpt lat="44.1686" lon="5.18604">
        <ele>853.7</ele>
        <time>2022-07-21T05:32:46Z</time>
      </trkpt>
      <trkpt lat="44.16862" lon="5.18607">
        <ele>853.9</ele>
        <time>2022-07-21T05:32:47Z</time>
      </trkpt>
      <trkpt lat="44.16863" lon="5.18608">
        <ele>853.9</ele>
        <time>2022-07-21T05:32:48Z</time>
      </trkpt>
      <trkpt lat="44.16865" lon="5.1861">
        <ele>854.1</ele>
        <time>2022-07-21T05:32:49Z</time>
      </trkpt>
      <trkpt lat="44.16866" lon="5.18611">
        <ele>854.2</ele>
        <time>2022-07-21T05:32:50Z</time>
      </trkpt>
      <trkpt lat="44.16868" lon="5.18614">
        <ele>854.4</ele>
        <time>2022-07-21T05:32:51Z</time>
      </trkpt>
      <trkpt lat="44.16869" lon="5.18615">
        <ele>854.4</ele>
        <time>2022-07-21T05:32:52Z</time>
      </trkpt>
      <trkpt lat="44.16871" lon="5.18619">
        <ele>854.6</ele>
        <time>2022-07-21T05:32:53Z</time>
      </trkpt>
      <trkpt lat="44.16871" lon="5.1862">
        <ele>854.7</ele>
        <time>2022-07-21T05:32:54Z</time>
      </trkpt>
      <trkpt lat="44.16874" lon="5.18623">
        <ele>854.8</ele>
        <time>2022-07-21T05:32:55Z</time>
      </trkpt>
      <trkpt lat="44.16874" lon="5.18624">
        <ele>854.9</ele>
        <time>2022-07-21T05:32:56Z</time>
      </trkpt>
      <trkpt lat="44.16876" lon="5.18628">
        <ele>855.1</ele>
        <time>2022-07-21T05:32:57Z</time>
      </trkpt>
      <trkpt lat="44.16877" lon="5.18629">
        <ele>855.2</ele>
        <time>2022-07-21T05:32:58Z</time>
      </trkpt>
      <trkpt lat="44.1688" lon="5.18632">
        <ele>855.4</ele>
        <time>2022-07-21T05:32:59Z</time>
      </trkpt>
      <trkpt lat="44.1688" lon="5.18634">
        <ele>855.4</ele>
        <time>2022-07-21T05:33:00Z</time>
      </trkpt>
      <trkpt lat="44.16883" lon="5.18637">
        <ele>855.6</ele>
        <time>2022-07-21T05:33:01Z</time>
      </trkpt>
      <trkpt lat="44.16884" lon="5.18638">
        <ele>855.7</ele>
        <time>2022-07-21T05:33:02Z</time>
      </trkpt>
      <trkpt lat="44.16886" lon="5.18642">
        <ele>855.9</ele>
        <time>2022-07-21T05:33:03Z</time>
      </trkpt>
      <trkpt lat="44.16886" lon="5.18643">
        <ele>855.9</ele>
        <time>2022-07-21T05:33:04Z</time>
      </trkpt>
      <trkpt lat="44.16888" lon="5.18647">
        <ele>856.1</ele>
        <time>2022-07-21T05:33:05Z</time>
      </trkpt>
      <trkpt lat="44.16889" lon="5.18648">
        <ele>856.2</ele>
        <time>2022-07-21T05:33:06Z</time>
      </trkpt>
      <trkpt lat="44.16891" lon="5.18652">
        <ele>856.4</ele>
        <time>2022-07-21T05:33:07Z</time>
      </trkpt>
      <trkpt lat="44.16891" lon="5.18654">
        <ele>856.5</ele>
        <time>2022-07-21T05:33:08Z</time>
      </trkpt>
      <trkpt lat="44.16893" lon="5.18658">
        <ele>856.6</ele>
        <time>2022-07-21T05:33:09Z</time>
      </trkpt>
      <trkpt lat="44.16893" lon="5.18659">
        <ele>856.7</ele>
        <time>2022-07-21T05:33:10Z</time>
      </trkpt>
      <trkpt lat="44.16894" lon="5.18663">
        <ele>856.9</ele>
        <time>2022-07-21T05:33:11Z</time>
      </trkpt>
      <trkpt lat="44.16895" lon="5.18665">
        <ele>857</ele>
        <time>2022-07-21T05:33:12Z</time>
      </trkpt>
      <trkpt lat="44.16896" lon="5.18669">
        <ele>857.2</ele>
        <time>2022-07-21T05:33:13Z</time>
      </trkpt>
      <trkpt lat="44.16896" lon="5.18671">
        <ele>857.2</ele>
        <time>2022-07-21T05:33:14Z</time>
      </trkpt>
      <trkpt lat="44.16897" lon="5.18676">
        <ele>857.4</ele>
        <time>2022-07-21T05:33:15Z</time>
      </trkpt>
      <trkpt lat="44.16897" lon="5.18677">
        <ele>857.5</ele>
        <time>2022-07-21T05:33:16Z</time>
      </trkpt>
      <trkpt lat="44.16897" lon="5.18682">
        <ele>857.7</ele>
        <time>2022-07-21T05:33:17Z</time>
      </trkpt>
      <trkpt lat="44.16897" lon="5.18684">
        <ele>857.7</ele>
        <time>2022-07-21T05:33:18Z</time>
      </trkpt>
      <trkpt lat="44.16897" lon="5.18688">
        <ele>857.9</ele>
        <time>2022-07-21T05:33:19Z</time>
      </trkpt>
      <trkpt lat="44.16897" lon="5.1869">
        <ele>858</ele>
        <time>2022-07-21T05:33:20Z</time>
      </trkpt>
      <trkpt lat="44.16897" lon="5.18695">
        <ele>858.2</ele>
        <time>2022-07-21T05:33:21Z</time>
      </trkpt>
      <trkpt lat="44.16897" lon="5.18696">
        <ele>858.2</ele>
        <time>2022-07-21T05:33:22Z</time>
      </trkpt>
      <trkpt lat="44.16896" lon="5.18701">
        <ele>858.4</ele>
        <time>2022-07-21T05:33:23Z</time>
      </trkpt>
      <trkpt lat="44.16896" lon="5.18702">
        <ele>858.5</ele>
        <time>2022-07-21T05:33:24Z</time>
      </trkpt>
      <trkpt lat="44.16895" lon="5.18707">
        <ele>858.7</ele>
        <time>2022-07-21T05:33:25Z</time>
      </trkpt>
      <trkpt lat="44.16894" lon="5.18708">
        <ele>858.7</ele>
        <time>2022-07-21T05:33:26Z</time>
      </trkpt>
      <trkpt lat="44.16893" lon="5.18712">
        <ele>858.9</ele>
        <time>2022-07-21T05:33:27Z</time>
      </trkpt>
      <trkpt lat="44.16893" lon="5.18713">
        <ele>858.9</ele>
        <time>2022-07-21T05:33:28Z</time>
      </trkpt>
      <trkpt lat="44.16891" lon="5.18717">
        <ele>859.1</ele>
        <time>2022-07-21T05:33:29Z</time>
      </trkpt>
      <trkpt lat="44.16891" lon="5.18718">
        <ele>859.2</ele>
        <time>2022-07-21T05:33:30Z</time>
      </trkpt>
      <trkpt lat="44.16889" lon="5.18722">
        <ele>859.3</ele>
        <time>2022-07-21T05:33:31Z</time>
      </trkpt>
      <trkpt lat="44.16889" lon="5.18723">
        <ele>859.4</ele>
        <time>2022-07-21T05:33:32Z</time>
      </trkpt>
      <trkpt lat="44.16886" lon="5.18729">
        <ele>859.7</ele>
        <time>2022-07-21T05:33:34Z</time>
      </trkpt>
      <trkpt lat="44.16886" lon="5.1873">
        <ele>859.7</ele>
        <time>2022-07-21T05:33:35Z</time>
      </trkpt>
      <trkpt lat="44.16884" lon="5.18734">
        <ele>859.9</ele>
        <time>2022-07-21T05:33:36Z</time>
      </trkpt>
      <trkpt lat="44.16884" lon="5.18735">
        <ele>859.9</ele>
        <time>2022-07-21T05:33:37Z</time>
      </trkpt>
      <trkpt lat="44.16882" lon="5.18738">
        <ele>860.1</ele>
        <time>2022-07-21T05:33:38Z</time>
      </trkpt>
      <trkpt lat="44.16882" lon="5.18739">
        <ele>860.2</ele>
        <time>2022-07-21T05:33:39Z</time>
      </trkpt>
      <trkpt lat="44.1688" lon="5.18743">
        <ele>860.3</ele>
        <time>2022-07-21T05:33:40Z</time>
      </trkpt>
      <trkpt lat="44.1688" lon="5.18744">
        <ele>860.4</ele>
        <time>2022-07-21T05:33:41Z</time>
      </trkpt>
      <trkpt lat="44.16878" lon="5.18747">
        <ele>860.5</ele>
        <time>2022-07-21T05:33:42Z</time>
      </trkpt>
      <trkpt lat="44.16878" lon="5.18748">
        <ele>860.6</ele>
        <time>2022-07-21T05:33:43Z</time>
      </trkpt>
      <trkpt lat="44.16876" lon="5.18752">
        <ele>860.8</ele>
        <time>2022-07-21T05:33:44Z</time>
      </trkpt>
      <trkpt lat="44.16875" lon="5.18753">
        <ele>860.8</ele>
        <time>2022-07-21T05:33:45Z</time>
      </trkpt>
      <trkpt lat="44.16874" lon="5.18757">
        <ele>861</ele>
        <time>2022-07-21T05:33:46Z</time>
      </trkpt>
      <trkpt lat="44.16873" lon="5.18758">
        <ele>861.1</ele>
        <time>2022-07-21T05:33:47Z</time>
      </trkpt>
      <trkpt lat="44.16872" lon="5.18761">
        <ele>861.2</ele>
        <time>2022-07-21T05:33:48Z</time>
      </trkpt>
      <trkpt lat="44.16871" lon="5.18762">
        <ele>861.3</ele>
        <time>2022-07-21T05:33:49Z</time>
      </trkpt>
      <trkpt lat="44.1687" lon="5.18765">
        <ele>861.5</ele>
        <time>2022-07-21T05:33:50Z</time>
      </trkpt>
      <trkpt lat="44.16869" lon="5.18767">
        <ele>861.5</ele>
        <time>2022-07-21T05:33:51Z</time>
      </trkpt>
      <trkpt lat="44.16868" lon="5.1877">
        <ele>861.7</ele>
        <time>2022-07-21T05:33:52Z</time>
      </trkpt>
      <trkpt lat="44.16867" lon="5.18771">
        <ele>861.8</ele>
        <time>2022-07-21T05:33:53Z</time>
      </trkpt>
      <trkpt lat="44.16866" lon="5.18774">
        <ele>862</ele>
        <time>2022-07-21T05:33:54Z</time>
      </trkpt>
      <trkpt lat="44.16865" lon="5.18775">
        <ele>862</ele>
        <time>2022-07-21T05:33:55Z</time>
      </trkpt>
      <trkpt lat="44.16864" lon="5.18779">
        <ele>862.2</ele>
        <time>2022-07-21T05:33:56Z</time>
      </trkpt>
      <trkpt lat="44.16863" lon="5.1878">
        <ele>862.3</ele>
        <time>2022-07-21T05:33:57Z</time>
      </trkpt>
      <trkpt lat="44.16862" lon="5.18783">
        <ele>862.5</ele>
        <time>2022-07-21T05:33:58Z</time>
      </trkpt>
      <trkpt lat="44.16861" lon="5.18784">
        <ele>862.5</ele>
        <time>2022-07-21T05:33:59Z</time>
      </trkpt>
      <trkpt lat="44.1686" lon="5.18788">
        <ele>862.7</ele>
        <time>2022-07-21T05:34:00Z</time>
      </trkpt>
      <trkpt lat="44.1686" lon="5.18789">
        <ele>862.8</ele>
        <time>2022-07-21T05:34:01Z</time>
      </trkpt>
      <trkpt lat="44.16858" lon="5.18792">
        <ele>863</ele>
        <time>2022-07-21T05:34:02Z</time>
      </trkpt>
      <trkpt lat="44.16858" lon="5.18793">
        <ele>863</ele>
        <time>2022-07-21T05:34:03Z</time>
      </trkpt>
      <trkpt lat="44.16857" lon="5.18795">
        <ele>863.2</ele>
        <time>2022-07-21T05:34:04Z</time>
      </trkpt>
      <trkpt lat="44.16856" lon="5.18797">
        <ele>863.3</ele>
        <time>2022-07-21T05:34:05Z</time>
      </trkpt>
      <trkpt lat="44.16855" lon="5.18799">
        <ele>863.4</ele>
        <time>2022-07-21T05:34:06Z</time>
      </trkpt>
      <trkpt lat="44.16854" lon="5.18801">
        <ele>863.5</ele>
        <time>2022-07-21T05:34:07Z</time>
      </trkpt>
      <trkpt lat="44.16853" lon="5.18803">
        <ele>863.7</ele>
        <time>2022-07-21T05:34:08Z</time>
      </trkpt>
      <trkpt lat="44.16852" lon="5.18805">
        <ele>863.8</ele>
        <time>2022-07-21T05:34:09Z</time>
      </trkpt>
      <trkpt lat="44.16851" lon="5.18806">
        <ele>863.9</ele>
        <time>2022-07-21T05:34:10Z</time>
      </trkpt>
      <trkpt lat="44.1685" lon="5.18809">
        <ele>864.1</ele>
        <time>2022-07-21T05:34:11Z</time>
      </trkpt>
      <trkpt lat="44.16848" lon="5.18812">
        <ele>864.3</ele>
        <time>2022-07-21T05:34:12Z</time>
      </trkpt>
      <trkpt lat="44.16848" lon="5.18813">
        <ele>864.4</ele>
        <time>2022-07-21T05:34:13Z</time>
      </trkpt>
      <trkpt lat="44.16847" lon="5.18816">
        <ele>864.6</ele>
        <time>2022-07-21T05:34:14Z</time>
      </trkpt>
      <trkpt lat="44.16846" lon="5.18817">
        <ele>864.6</ele>
        <time>2022-07-21T05:34:15Z</time>
      </trkpt>
      <trkpt lat="44.16845" lon="5.18819">
        <ele>864.8</ele>
        <time>2022-07-21T05:34:16Z</time>
      </trkpt>
      <trkpt lat="44.16844" lon="5.18821">
        <ele>864.9</ele>
        <time>2022-07-21T05:34:17Z</time>
      </trkpt>
      <trkpt lat="44.16843" lon="5.18823">
        <ele>865.1</ele>
        <time>2022-07-21T05:34:18Z</time>
      </trkpt>
      <trkpt lat="44.16842" lon="5.18825">
        <ele>865.2</ele>
        <time>2022-07-21T05:34:19Z</time>
      </trkpt>
      <trkpt lat="44.16841" lon="5.18827">
        <ele>865.4</ele>
        <time>2022-07-21T05:34:20Z</time>
      </trkpt>
      <trkpt lat="44.1684" lon="5.18829">
        <ele>865.5</ele>
        <time>2022-07-21T05:34:21Z</time>
      </trkpt>
      <trkpt lat="44.16839" lon="5.18831">
        <ele>865.7</ele>
        <time>2022-07-21T05:34:22Z</time>
      </trkpt>
      <trkpt lat="44.16838" lon="5.18833">
        <ele>865.8</ele>
        <time>2022-07-21T05:34:23Z</time>
      </trkpt>
      <trkpt lat="44.16837" lon="5.18835">
        <ele>866</ele>
        <time>2022-07-21T05:34:24Z</time>
      </trkpt>
      <trkpt lat="44.16836" lon="5.18837">
        <ele>866.1</ele>
        <time>2022-07-21T05:34:25Z</time>
      </trkpt>
      <trkpt lat="44.16835" lon="5.18839">
        <ele>866.2</ele>
        <time>2022-07-21T05:34:26Z</time>
      </trkpt>
      <trkpt lat="44.16834" lon="5.1884">
        <ele>866.4</ele>
        <time>2022-07-21T05:34:27Z</time>
      </trkpt>
      <trkpt lat="44.16833" lon="5.18842">
        <ele>866.5</ele>
        <time>2022-07-21T05:34:28Z</time>
      </trkpt>
      <trkpt lat="44.16832" lon="5.18844">
        <ele>866.7</ele>
        <time>2022-07-21T05:34:29Z</time>
      </trkpt>
      <trkpt lat="44.1683" lon="5.18846">
        <ele>866.8</ele>
        <time>2022-07-21T05:34:30Z</time>
      </trkpt>
      <trkpt lat="44.16829" lon="5.18847">
        <ele>866.9</ele>
        <time>2022-07-21T05:34:31Z</time>
      </trkpt>
      <trkpt lat="44.16828" lon="5.18849">
        <ele>867.1</ele>
        <time>2022-07-21T05:34:32Z</time>
      </trkpt>
      <trkpt lat="44.16827" lon="5.18851">
        <ele>867.2</ele>
        <time>2022-07-21T05:34:33Z</time>
      </trkpt>
      <trkpt lat="44.16826" lon="5.18853">
        <ele>867.4</ele>
        <time>2022-07-21T05:34:34Z</time>
      </trkpt>
      <trkpt lat="44.16826" lon="5.18855">
        <ele>867.5</ele>
        <time>2022-07-21T05:34:35Z</time>
      </trkpt>
      <trkpt lat="44.16825" lon="5.18857">
        <ele>867.7</ele>
        <time>2022-07-21T05:34:36Z</time>
      </trkpt>
      <trkpt lat="44.16824" lon="5.18859">
        <ele>867.8</ele>
        <time>2022-07-21T05:34:37Z</time>
      </trkpt>
      <trkpt lat="44.16823" lon="5.18861">
        <ele>868</ele>
        <time>2022-07-21T05:34:38Z</time>
      </trkpt>
      <trkpt lat="44.16823" lon="5.18863">
        <ele>868.1</ele>
        <time>2022-07-21T05:34:39Z</time>
      </trkpt>
      <trkpt lat="44.16822" lon="5.18866">
        <ele>868.2</ele>
        <time>2022-07-21T05:34:40Z</time>
      </trkpt>
      <trkpt lat="44.16821" lon="5.18868">
        <ele>868.4</ele>
        <time>2022-07-21T05:34:41Z</time>
      </trkpt>
      <trkpt lat="44.1682" lon="5.1887">
        <ele>868.5</ele>
        <time>2022-07-21T05:34:42Z</time>
      </trkpt>
      <trkpt lat="44.1682" lon="5.18872">
        <ele>868.7</ele>
        <time>2022-07-21T05:34:43Z</time>
      </trkpt>
      <trkpt lat="44.16819" lon="5.18873">
        <ele>868.8</ele>
        <time>2022-07-21T05:34:44Z</time>
      </trkpt>
      <trkpt lat="44.16818" lon="5.18875">
        <ele>868.9</ele>
        <time>2022-07-21T05:34:45Z</time>
      </trkpt>
      <trkpt lat="44.16818" lon="5.18877">
        <ele>869</ele>
        <time>2022-07-21T05:34:46Z</time>
      </trkpt>
      <trkpt lat="44.16817" lon="5.1888">
        <ele>869.2</ele>
        <time>2022-07-21T05:34:47Z</time>
      </trkpt>
      <trkpt lat="44.16817" lon="5.18882">
        <ele>869.3</ele>
        <time>2022-07-21T05:34:48Z</time>
      </trkpt>
      <trkpt lat="44.16816" lon="5.18884">
        <ele>869.4</ele>
        <time>2022-07-21T05:34:49Z</time>
      </trkpt>
      <trkpt lat="44.16816" lon="5.18886">
        <ele>869.6</ele>
        <time>2022-07-21T05:34:50Z</time>
      </trkpt>
      <trkpt lat="44.16816" lon="5.18889">
        <ele>869.7</ele>
        <time>2022-07-21T05:34:51Z</time>
      </trkpt>
      <trkpt lat="44.16816" lon="5.18893">
        <ele>869.9</ele>
        <time>2022-07-21T05:34:52Z</time>
      </trkpt>
      <trkpt lat="44.16816" lon="5.18894">
        <ele>870</ele>
        <time>2022-07-21T05:34:53Z</time>
      </trkpt>
      <trkpt lat="44.16816" lon="5.18898">
        <ele>870.3</ele>
        <time>2022-07-21T05:34:54Z</time>
      </trkpt>
      <trkpt lat="44.16816" lon="5.189">
        <ele>870.3</ele>
        <time>2022-07-21T05:34:55Z</time>
      </trkpt>
      <trkpt lat="44.16816" lon="5.18904">
        <ele>870.6</ele>
        <time>2022-07-21T05:34:56Z</time>
      </trkpt>
      <trkpt lat="44.16816" lon="5.18905">
        <ele>870.6</ele>
        <time>2022-07-21T05:34:57Z</time>
      </trkpt>
      <trkpt lat="44.16817" lon="5.18909">
        <ele>870.9</ele>
        <time>2022-07-21T05:34:58Z</time>
      </trkpt>
      <trkpt lat="44.16817" lon="5.1891">
        <ele>870.9</ele>
        <time>2022-07-21T05:34:59Z</time>
      </trkpt>
      <trkpt lat="44.16818" lon="5.18914">
        <ele>871.1</ele>
        <time>2022-07-21T05:35:00Z</time>
      </trkpt>
      <trkpt lat="44.16818" lon="5.18915">
        <ele>871.2</ele>
        <time>2022-07-21T05:35:01Z</time>
      </trkpt>
      <trkpt lat="44.16819" lon="5.18919">
        <ele>871.4</ele>
        <time>2022-07-21T05:35:02Z</time>
      </trkpt>
      <trkpt lat="44.1682" lon="5.1892">
        <ele>871.5</ele>
        <time>2022-07-21T05:35:03Z</time>
      </trkpt>
      <trkpt lat="44.16821" lon="5.18924">
        <ele>871.7</ele>
        <time>2022-07-21T05:35:04Z</time>
      </trkpt>
      <trkpt lat="44.16821" lon="5.18925">
        <ele>871.8</ele>
        <time>2022-07-21T05:35:05Z</time>
      </trkpt>
      <trkpt lat="44.16822" lon="5.18929">
        <ele>872</ele>
        <time>2022-07-21T05:35:06Z</time>
      </trkpt>
      <trkpt lat="44.16823" lon="5.1893">
        <ele>872</ele>
        <time>2022-07-21T05:35:07Z</time>
      </trkpt>
      <trkpt lat="44.16824" lon="5.18933">
        <ele>872.2</ele>
        <time>2022-07-21T05:35:08Z</time>
      </trkpt>
      <trkpt lat="44.16824" lon="5.18935">
        <ele>872.3</ele>
        <time>2022-07-21T05:35:09Z</time>
      </trkpt>
      <trkpt lat="44.16826" lon="5.18938">
        <ele>872.5</ele>
        <time>2022-07-21T05:35:10Z</time>
      </trkpt>
      <trkpt lat="44.16827" lon="5.18939">
        <ele>872.5</ele>
        <time>2022-07-21T05:35:11Z</time>
      </trkpt>
      <trkpt lat="44.16828" lon="5.18942">
        <ele>872.7</ele>
        <time>2022-07-21T05:35:12Z</time>
      </trkpt>
      <trkpt lat="44.16829" lon="5.18943">
        <ele>872.8</ele>
        <time>2022-07-21T05:35:13Z</time>
      </trkpt>
      <trkpt lat="44.1683" lon="5.18945">
        <ele>872.9</ele>
        <time>2022-07-21T05:35:14Z</time>
      </trkpt>
      <trkpt lat="44.16831" lon="5.18947">
        <ele>873</ele>
        <time>2022-07-21T05:35:15Z</time>
      </trkpt>
      <trkpt lat="44.16832" lon="5.18948">
        <ele>873.1</ele>
        <time>2022-07-21T05:35:16Z</time>
      </trkpt>
      <trkpt lat="44.16833" lon="5.1895">
        <ele>873.2</ele>
        <time>2022-07-21T05:35:17Z</time>
      </trkpt>
      <trkpt lat="44.16835" lon="5.18952">
        <ele>873.3</ele>
        <time>2022-07-21T05:35:18Z</time>
      </trkpt>
      <trkpt lat="44.16836" lon="5.18954">
        <ele>873.4</ele>
        <time>2022-07-21T05:35:19Z</time>
      </trkpt>
      <trkpt lat="44.16837" lon="5.18955">
        <ele>873.5</ele>
        <time>2022-07-21T05:35:20Z</time>
      </trkpt>
      <trkpt lat="44.16838" lon="5.18957">
        <ele>873.6</ele>
        <time>2022-07-21T05:35:21Z</time>
      </trkpt>
      <trkpt lat="44.16839" lon="5.18958">
        <ele>873.7</ele>
        <time>2022-07-21T05:35:22Z</time>
      </trkpt>
      <trkpt lat="44.1684" lon="5.18959">
        <ele>873.8</ele>
        <time>2022-07-21T05:35:23Z</time>
      </trkpt>
      <trkpt lat="44.16842" lon="5.18961">
        <ele>873.9</ele>
        <time>2022-07-21T05:35:24Z</time>
      </trkpt>
      <trkpt lat="44.16843" lon="5.18962">
        <ele>874</ele>
        <time>2022-07-21T05:35:25Z</time>
      </trkpt>
      <trkpt lat="44.16844" lon="5.18964">
        <ele>874.1</ele>
        <time>2022-07-21T05:35:26Z</time>
      </trkpt>
      <trkpt lat="44.16846" lon="5.18966">
        <ele>874.2</ele>
        <time>2022-07-21T05:35:27Z</time>
      </trkpt>
      <trkpt lat="44.16847" lon="5.18967">
        <ele>874.3</ele>
        <time>2022-07-21T05:35:28Z</time>
      </trkpt>
      <trkpt lat="44.16848" lon="5.18969">
        <ele>874.4</ele>
        <time>2022-07-21T05:35:29Z</time>
      </trkpt>
      <trkpt lat="44.16849" lon="5.1897">
        <ele>874.5</ele>
        <time>2022-07-21T05:35:30Z</time>
      </trkpt>
      <trkpt lat="44.16851" lon="5.18972">
        <ele>874.6</ele>
        <time>2022-07-21T05:35:31Z</time>
      </trkpt>
      <trkpt lat="44.16852" lon="5.18974">
        <ele>874.7</ele>
        <time>2022-07-21T05:35:32Z</time>
      </trkpt>
      <trkpt lat="44.16853" lon="5.18975">
        <ele>874.8</ele>
        <time>2022-07-21T05:35:33Z</time>
      </trkpt>
      <trkpt lat="44.16855" lon="5.18977">
        <ele>874.9</ele>
        <time>2022-07-21T05:35:34Z</time>
      </trkpt>
      <trkpt lat="44.16856" lon="5.18978">
        <ele>875</ele>
        <time>2022-07-21T05:35:35Z</time>
      </trkpt>
      <trkpt lat="44.16857" lon="5.18979">
        <ele>875.1</ele>
        <time>2022-07-21T05:35:36Z</time>
      </trkpt>
      <trkpt lat="44.16859" lon="5.18981">
        <ele>875.2</ele>
        <time>2022-07-21T05:35:37Z</time>
      </trkpt>
      <trkpt lat="44.16861" lon="5.18983">
        <ele>875.3</ele>
        <time>2022-07-21T05:35:38Z</time>
      </trkpt>
      <trkpt lat="44.16861" lon="5.18984">
        <ele>875.4</ele>
        <time>2022-07-21T05:35:39Z</time>
      </trkpt>
      <trkpt lat="44.16864" lon="5.18987">
        <ele>875.6</ele>
        <time>2022-07-21T05:35:40Z</time>
      </trkpt>
      <trkpt lat="44.16864" lon="5.18988">
        <ele>875.6</ele>
        <time>2022-07-21T05:35:41Z</time>
      </trkpt>
      <trkpt lat="44.16867" lon="5.1899">
        <ele>875.8</ele>
        <time>2022-07-21T05:35:42Z</time>
      </trkpt>
      <trkpt lat="44.16867" lon="5.18991">
        <ele>875.8</ele>
        <time>2022-07-21T05:35:43Z</time>
      </trkpt>
      <trkpt lat="44.1687" lon="5.18994">
        <ele>876</ele>
        <time>2022-07-21T05:35:44Z</time>
      </trkpt>
      <trkpt lat="44.16871" lon="5.18994">
        <ele>876</ele>
        <time>2022-07-21T05:35:45Z</time>
      </trkpt>
      <trkpt lat="44.16873" lon="5.18997">
        <ele>876.2</ele>
        <time>2022-07-21T05:35:46Z</time>
      </trkpt>
      <trkpt lat="44.16874" lon="5.18998">
        <ele>876.2</ele>
        <time>2022-07-21T05:35:47Z</time>
      </trkpt>
      <trkpt lat="44.16877" lon="5.19">
        <ele>876.4</ele>
        <time>2022-07-21T05:35:48Z</time>
      </trkpt>
      <trkpt lat="44.16877" lon="5.19001">
        <ele>876.4</ele>
        <time>2022-07-21T05:35:49Z</time>
      </trkpt>
      <trkpt lat="44.1688" lon="5.19004">
        <ele>876.6</ele>
        <time>2022-07-21T05:35:50Z</time>
      </trkpt>
      <trkpt lat="44.16881" lon="5.19005">
        <ele>876.7</ele>
        <time>2022-07-21T05:35:51Z</time>
      </trkpt>
      <trkpt lat="44.16884" lon="5.19007">
        <ele>876.8</ele>
        <time>2022-07-21T05:35:52Z</time>
      </trkpt>
      <trkpt lat="44.16884" lon="5.19008">
        <ele>876.9</ele>
        <time>2022-07-21T05:35:53Z</time>
      </trkpt>
      <trkpt lat="44.16887" lon="5.19011">
        <ele>877</ele>
        <time>2022-07-21T05:35:54Z</time>
      </trkpt>
      <trkpt lat="44.16888" lon="5.19012">
        <ele>877.1</ele>
        <time>2022-07-21T05:35:55Z</time>
      </trkpt>
      <trkpt lat="44.1689" lon="5.19015">
        <ele>877.3</ele>
        <time>2022-07-21T05:35:56Z</time>
      </trkpt>
      <trkpt lat="44.16891" lon="5.19016">
        <ele>877.3</ele>
        <time>2022-07-21T05:35:57Z</time>
      </trkpt>
      <trkpt lat="44.16894" lon="5.19019">
        <ele>877.5</ele>
        <time>2022-07-21T05:35:58Z</time>
      </trkpt>
      <trkpt lat="44.16895" lon="5.1902">
        <ele>877.6</ele>
        <time>2022-07-21T05:35:59Z</time>
      </trkpt>
      <trkpt lat="44.16897" lon="5.19023">
        <ele>877.7</ele>
        <time>2022-07-21T05:36:00Z</time>
      </trkpt>
      <trkpt lat="44.16898" lon="5.19024">
        <ele>877.8</ele>
        <time>2022-07-21T05:36:01Z</time>
      </trkpt>
      <trkpt lat="44.16901" lon="5.19027">
        <ele>878</ele>
        <time>2022-07-21T05:36:02Z</time>
      </trkpt>
      <trkpt lat="44.16902" lon="5.19028">
        <ele>878</ele>
        <time>2022-07-21T05:36:03Z</time>
      </trkpt>
      <trkpt lat="44.16904" lon="5.19031">
        <ele>878.2</ele>
        <time>2022-07-21T05:36:04Z</time>
      </trkpt>
      <trkpt lat="44.16905" lon="5.19032">
        <ele>878.3</ele>
        <time>2022-07-21T05:36:05Z</time>
      </trkpt>
      <trkpt lat="44.16907" lon="5.19035">
        <ele>878.4</ele>
        <time>2022-07-21T05:36:06Z</time>
      </trkpt>
      <trkpt lat="44.16908" lon="5.19036">
        <ele>878.5</ele>
        <time>2022-07-21T05:36:07Z</time>
      </trkpt>
      <trkpt lat="44.1691" lon="5.19039">
        <ele>878.7</ele>
        <time>2022-07-21T05:36:08Z</time>
      </trkpt>
      <trkpt lat="44.16911" lon="5.1904">
        <ele>878.7</ele>
        <time>2022-07-21T05:36:09Z</time>
      </trkpt>
      <trkpt lat="44.16913" lon="5.19043">
        <ele>878.9</ele>
        <time>2022-07-21T05:36:10Z</time>
      </trkpt>
      <trkpt lat="44.16914" lon="5.19044">
        <ele>878.9</ele>
        <time>2022-07-21T05:36:11Z</time>
      </trkpt>
      <trkpt lat="44.16916" lon="5.19047">
        <ele>879.1</ele>
        <time>2022-07-21T05:36:12Z</time>
      </trkpt>
      <trkpt lat="44.16917" lon="5.19048">
        <ele>879.2</ele>
        <time>2022-07-21T05:36:13Z</time>
      </trkpt>
      <trkpt lat="44.16919" lon="5.19051">
        <ele>879.3</ele>
        <time>2022-07-21T05:36:14Z</time>
      </trkpt>
      <trkpt lat="44.1692" lon="5.19052">
        <ele>879.4</ele>
        <time>2022-07-21T05:36:15Z</time>
      </trkpt>
      <trkpt lat="44.16922" lon="5.19055">
        <ele>879.5</ele>
        <time>2022-07-21T05:36:16Z</time>
      </trkpt>
      <trkpt lat="44.16923" lon="5.19056">
        <ele>879.6</ele>
        <time>2022-07-21T05:36:17Z</time>
      </trkpt>
      <trkpt lat="44.16925" lon="5.19059">
        <ele>879.7</ele>
        <time>2022-07-21T05:36:18Z</time>
      </trkpt>
      <trkpt lat="44.16926" lon="5.1906">
        <ele>879.8</ele>
        <time>2022-07-21T05:36:19Z</time>
      </trkpt>
      <trkpt lat="44.16928" lon="5.19064">
        <ele>880</ele>
        <time>2022-07-21T05:36:20Z</time>
      </trkpt>
      <trkpt lat="44.16928" lon="5.19065">
        <ele>880</ele>
        <time>2022-07-21T05:36:21Z</time>
      </trkpt>
      <trkpt lat="44.16931" lon="5.19069">
        <ele>880.2</ele>
        <time>2022-07-21T05:36:22Z</time>
      </trkpt>
      <trkpt lat="44.16931" lon="5.19071">
        <ele>880.3</ele>
        <time>2022-07-21T05:36:23Z</time>
      </trkpt>
      <trkpt lat="44.16933" lon="5.19075">
        <ele>880.5</ele>
        <time>2022-07-21T05:36:24Z</time>
      </trkpt>
      <trkpt lat="44.16934" lon="5.19076">
        <ele>880.5</ele>
        <time>2022-07-21T05:36:25Z</time>
      </trkpt>
      <trkpt lat="44.16935" lon="5.19081">
        <ele>880.7</ele>
        <time>2022-07-21T05:36:26Z</time>
      </trkpt>
      <trkpt lat="44.16935" lon="5.19082">
        <ele>880.8</ele>
        <time>2022-07-21T05:36:27Z</time>
      </trkpt>
      <trkpt lat="44.16936" lon="5.19087">
        <ele>881</ele>
        <time>2022-07-21T05:36:28Z</time>
      </trkpt>
      <trkpt lat="44.16936" lon="5.19089">
        <ele>881.1</ele>
        <time>2022-07-21T05:36:29Z</time>
      </trkpt>
      <trkpt lat="44.16935" lon="5.19094">
        <ele>881.3</ele>
        <time>2022-07-21T05:36:30Z</time>
      </trkpt>
      <trkpt lat="44.16935" lon="5.19096">
        <ele>881.3</ele>
        <time>2022-07-21T05:36:31Z</time>
      </trkpt>
      <trkpt lat="44.16935" lon="5.19099">
        <ele>881.4</ele>
        <time>2022-07-21T05:36:32Z</time>
      </trkpt>
      <trkpt lat="44.16934" lon="5.19102">
        <ele>881.5</ele>
        <time>2022-07-21T05:36:34Z</time>
      </trkpt>
      <trkpt lat="44.1693" lon="5.19109">
        <ele>881.8</ele>
        <time>2022-07-21T05:36:35Z</time>
      </trkpt>
      <trkpt lat="44.1693" lon="5.1911">
        <ele>881.9</ele>
        <time>2022-07-21T05:36:36Z</time>
      </trkpt>
      <trkpt lat="44.16927" lon="5.19114">
        <ele>882</ele>
        <time>2022-07-21T05:36:37Z</time>
      </trkpt>
      <trkpt lat="44.16927" lon="5.19115">
        <ele>882.1</ele>
        <time>2022-07-21T05:36:38Z</time>
      </trkpt>
      <trkpt lat="44.16924" lon="5.19118">
        <ele>882.2</ele>
        <time>2022-07-21T05:36:39Z</time>
      </trkpt>
      <trkpt lat="44.16924" lon="5.19119">
        <ele>882.3</ele>
        <time>2022-07-21T05:36:40Z</time>
      </trkpt>
      <trkpt lat="44.16921" lon="5.19122">
        <ele>882.4</ele>
        <time>2022-07-21T05:36:41Z</time>
      </trkpt>
      <trkpt lat="44.1692" lon="5.19122">
        <ele>882.5</ele>
        <time>2022-07-21T05:36:42Z</time>
      </trkpt>
      <trkpt lat="44.16918" lon="5.19125">
        <ele>882.6</ele>
        <time>2022-07-21T05:36:43Z</time>
      </trkpt>
      <trkpt lat="44.16917" lon="5.19125">
        <ele>882.6</ele>
        <time>2022-07-21T05:36:44Z</time>
      </trkpt>
      <trkpt lat="44.16914" lon="5.19127">
        <ele>882.8</ele>
        <time>2022-07-21T05:36:45Z</time>
      </trkpt>
      <trkpt lat="44.16913" lon="5.19128">
        <ele>882.8</ele>
        <time>2022-07-21T05:36:46Z</time>
      </trkpt>
      <trkpt lat="44.1691" lon="5.1913">
        <ele>883</ele>
        <time>2022-07-21T05:36:47Z</time>
      </trkpt>
      <trkpt lat="44.1691" lon="5.19131">
        <ele>883</ele>
        <time>2022-07-21T05:36:48Z</time>
      </trkpt>
      <trkpt lat="44.16907" lon="5.19132">
        <ele>883.1</ele>
        <time>2022-07-21T05:36:49Z</time>
      </trkpt>
      <trkpt lat="44.16905" lon="5.19133">
        <ele>883.2</ele>
        <time>2022-07-21T05:36:50Z</time>
      </trkpt>
      <trkpt lat="44.16902" lon="5.19134">
        <ele>883.4</ele>
        <time>2022-07-21T05:36:51Z</time>
      </trkpt>
      <trkpt lat="44.16901" lon="5.19135">
        <ele>883.4</ele>
        <time>2022-07-21T05:36:52Z</time>
      </trkpt>
      <trkpt lat="44.16898" lon="5.19137">
        <ele>883.6</ele>
        <time>2022-07-21T05:36:53Z</time>
      </trkpt>
      <trkpt lat="44.16897" lon="5.19137">
        <ele>883.6</ele>
        <time>2022-07-21T05:36:54Z</time>
      </trkpt>
      <trkpt lat="44.16893" lon="5.19139">
        <ele>883.8</ele>
        <time>2022-07-21T05:36:55Z</time>
      </trkpt>
      <trkpt lat="44.16891" lon="5.1914">
        <ele>883.9</ele>
        <time>2022-07-21T05:36:56Z</time>
      </trkpt>
      <trkpt lat="44.16889" lon="5.19141">
        <ele>884</ele>
        <time>2022-07-21T05:36:57Z</time>
      </trkpt>
      <trkpt lat="44.16886" lon="5.19143">
        <ele>884.1</ele>
        <time>2022-07-21T05:36:58Z</time>
      </trkpt>
      <trkpt lat="44.16883" lon="5.19144">
        <ele>884.3</ele>
        <time>2022-07-21T05:36:59Z</time>
      </trkpt>
      <trkpt lat="44.16881" lon="5.19146">
        <ele>884.4</ele>
        <time>2022-07-21T05:37:00Z</time>
      </trkpt>
      <trkpt lat="44.16878" lon="5.19147">
        <ele>884.6</ele>
        <time>2022-07-21T05:37:01Z</time>
      </trkpt>
      <trkpt lat="44.16874" lon="5.19149">
        <ele>884.7</ele>
        <time>2022-07-21T05:37:02Z</time>
      </trkpt>
      <trkpt lat="44.16873" lon="5.19149">
        <ele>884.8</ele>
        <time>2022-07-21T05:37:03Z</time>
      </trkpt>
      <trkpt lat="44.1687" lon="5.19151">
        <ele>884.9</ele>
        <time>2022-07-21T05:37:04Z</time>
      </trkpt>
      <trkpt lat="44.16867" lon="5.19152">
        <ele>885.1</ele>
        <time>2022-07-21T05:37:05Z</time>
      </trkpt>
      <trkpt lat="44.16865" lon="5.19153">
        <ele>885.2</ele>
        <time>2022-07-21T05:37:06Z</time>
      </trkpt>
      <trkpt lat="44.16861" lon="5.19154">
        <ele>885.4</ele>
        <time>2022-07-21T05:37:07Z</time>
      </trkpt>
      <trkpt lat="44.1686" lon="5.19155">
        <ele>885.5</ele>
        <time>2022-07-21T05:37:08Z</time>
      </trkpt>
      <trkpt lat="44.16856" lon="5.19156">
        <ele>885.7</ele>
        <time>2022-07-21T05:37:09Z</time>
      </trkpt>
      <trkpt lat="44.16855" lon="5.19157">
        <ele>885.7</ele>
        <time>2022-07-21T05:37:10Z</time>
      </trkpt>
      <trkpt lat="44.16852" lon="5.19157">
        <ele>885.9</ele>
        <time>2022-07-21T05:37:11Z</time>
      </trkpt>
      <trkpt lat="44.16848" lon="5.19158">
        <ele>886</ele>
        <time>2022-07-21T05:37:12Z</time>
      </trkpt>
      <trkpt lat="44.16845" lon="5.19159">
        <ele>886.2</ele>
        <time>2022-07-21T05:37:13Z</time>
      </trkpt>
      <trkpt lat="44.16842" lon="5.1916">
        <ele>886.4</ele>
        <time>2022-07-21T05:37:14Z</time>
      </trkpt>
      <trkpt lat="44.16839" lon="5.1916">
        <ele>886.5</ele>
        <time>2022-07-21T05:37:15Z</time>
      </trkpt>
      <trkpt lat="44.16836" lon="5.19161">
        <ele>886.7</ele>
        <time>2022-07-21T05:37:16Z</time>
      </trkpt>
      <trkpt lat="44.16833" lon="5.19162">
        <ele>886.8</ele>
        <time>2022-07-21T05:37:17Z</time>
      </trkpt>
      <trkpt lat="44.16829" lon="5.19162">
        <ele>887</ele>
        <time>2022-07-21T05:37:18Z</time>
      </trkpt>
      <trkpt lat="44.16828" lon="5.19162">
        <ele>887.1</ele>
        <time>2022-07-21T05:37:19Z</time>
      </trkpt>
      <trkpt lat="44.16824" lon="5.19163">
        <ele>887.3</ele>
        <time>2022-07-21T05:37:20Z</time>
      </trkpt>
      <trkpt lat="44.16822" lon="5.19163">
        <ele>887.4</ele>
        <time>2022-07-21T05:37:21Z</time>
      </trkpt>
      <trkpt lat="44.16819" lon="5.19163">
        <ele>887.5</ele>
        <time>2022-07-21T05:37:22Z</time>
      </trkpt>
      <trkpt lat="44.16816" lon="5.19163">
        <ele>887.7</ele>
        <time>2022-07-21T05:37:23Z</time>
      </trkpt>
      <trkpt lat="44.16813" lon="5.19163">
        <ele>887.9</ele>
        <time>2022-07-21T05:37:24Z</time>
      </trkpt>
      <trkpt lat="44.1681" lon="5.19164">
        <ele>888</ele>
        <time>2022-07-21T05:37:25Z</time>
      </trkpt>
      <trkpt lat="44.16807" lon="5.19164">
        <ele>888.2</ele>
        <time>2022-07-21T05:37:26Z</time>
      </trkpt>
      <trkpt lat="44.16804" lon="5.19165">
        <ele>888.4</ele>
        <time>2022-07-21T05:37:27Z</time>
      </trkpt>
      <trkpt lat="44.168" lon="5.19165">
        <ele>888.6</ele>
        <time>2022-07-21T05:37:28Z</time>
      </trkpt>
      <trkpt lat="44.16798" lon="5.19165">
        <ele>888.7</ele>
        <time>2022-07-21T05:37:29Z</time>
      </trkpt>
      <trkpt lat="44.16795" lon="5.19166">
        <ele>888.9</ele>
        <time>2022-07-21T05:37:30Z</time>
      </trkpt>
      <trkpt lat="44.16792" lon="5.19167">
        <ele>889</ele>
        <time>2022-07-21T05:37:31Z</time>
      </trkpt>
      <trkpt lat="44.16789" lon="5.19168">
        <ele>889.2</ele>
        <time>2022-07-21T05:37:32Z</time>
      </trkpt>
      <trkpt lat="44.16787" lon="5.19169">
        <ele>889.4</ele>
        <time>2022-07-21T05:37:33Z</time>
      </trkpt>
      <trkpt lat="44.16782" lon="5.1917">
        <ele>889.7</ele>
        <time>2022-07-21T05:37:34Z</time>
      </trkpt>
      <trkpt lat="44.1678" lon="5.1917">
        <ele>889.8</ele>
        <time>2022-07-21T05:37:35Z</time>
      </trkpt>
      <trkpt lat="44.16778" lon="5.1917">
        <ele>889.9</ele>
        <time>2022-07-21T05:37:36Z</time>
      </trkpt>
      <trkpt lat="44.16775" lon="5.19171">
        <ele>890.1</ele>
        <time>2022-07-21T05:37:37Z</time>
      </trkpt>
      <trkpt lat="44.16773" lon="5.19172">
        <ele>890.3</ele>
        <time>2022-07-21T05:37:38Z</time>
      </trkpt>
      <trkpt lat="44.1677" lon="5.19174">
        <ele>890.4</ele>
        <time>2022-07-21T05:37:39Z</time>
      </trkpt>
      <trkpt lat="44.16767" lon="5.19175">
        <ele>890.6</ele>
        <time>2022-07-21T05:37:40Z</time>
      </trkpt>
      <trkpt lat="44.16764" lon="5.19176">
        <ele>890.8</ele>
        <time>2022-07-21T05:37:41Z</time>
      </trkpt>
      <trkpt lat="44.16761" lon="5.19177">
        <ele>891</ele>
        <time>2022-07-21T05:37:42Z</time>
      </trkpt>
      <trkpt lat="44.16758" lon="5.19179">
        <ele>891.2</ele>
        <time>2022-07-21T05:37:43Z</time>
      </trkpt>
      <trkpt lat="44.16755" lon="5.1918">
        <ele>891.4</ele>
        <time>2022-07-21T05:37:44Z</time>
      </trkpt>
      <trkpt lat="44.16751" lon="5.19182">
        <ele>891.6</ele>
        <time>2022-07-21T05:37:45Z</time>
      </trkpt>
      <trkpt lat="44.16748" lon="5.19184">
        <ele>891.8</ele>
        <time>2022-07-21T05:37:46Z</time>
      </trkpt>
      <trkpt lat="44.16746" lon="5.19185">
        <ele>892</ele>
        <time>2022-07-21T05:37:47Z</time>
      </trkpt>
      <trkpt lat="44.16742" lon="5.19187">
        <ele>892.2</ele>
        <time>2022-07-21T05:37:48Z</time>
      </trkpt>
      <trkpt lat="44.1674" lon="5.19188">
        <ele>892.3</ele>
        <time>2022-07-21T05:37:49Z</time>
      </trkpt>
      <trkpt lat="44.16738" lon="5.1919">
        <ele>892.5</ele>
        <time>2022-07-21T05:37:50Z</time>
      </trkpt>
      <trkpt lat="44.16735" lon="5.19192">
        <ele>892.7</ele>
        <time>2022-07-21T05:37:51Z</time>
      </trkpt>
      <trkpt lat="44.16732" lon="5.19194">
        <ele>892.9</ele>
        <time>2022-07-21T05:37:52Z</time>
      </trkpt>
      <trkpt lat="44.1673" lon="5.19196">
        <ele>893.1</ele>
        <time>2022-07-21T05:37:53Z</time>
      </trkpt>
      <trkpt lat="44.16727" lon="5.19198">
        <ele>893.3</ele>
        <time>2022-07-21T05:37:54Z</time>
      </trkpt>
      <trkpt lat="44.16725" lon="5.192">
        <ele>893.4</ele>
        <time>2022-07-21T05:37:55Z</time>
      </trkpt>
      <trkpt lat="44.16723" lon="5.19203">
        <ele>893.6</ele>
        <time>2022-07-21T05:37:56Z</time>
      </trkpt>
      <trkpt lat="44.1672" lon="5.19206">
        <ele>893.8</ele>
        <time>2022-07-21T05:37:57Z</time>
      </trkpt>
      <trkpt lat="44.16718" lon="5.19208">
        <ele>894</ele>
        <time>2022-07-21T05:37:58Z</time>
      </trkpt>
      <trkpt lat="44.16716" lon="5.19211">
        <ele>894.2</ele>
        <time>2022-07-21T05:37:59Z</time>
      </trkpt>
      <trkpt lat="44.16714" lon="5.19214">
        <ele>894.3</ele>
        <time>2022-07-21T05:38:00Z</time>
      </trkpt>
      <trkpt lat="44.16712" lon="5.19216">
        <ele>894.5</ele>
        <time>2022-07-21T05:38:01Z</time>
      </trkpt>
      <trkpt lat="44.16709" lon="5.1922">
        <ele>894.7</ele>
        <time>2022-07-21T05:38:02Z</time>
      </trkpt>
      <trkpt lat="44.16708" lon="5.19221">
        <ele>894.8</ele>
        <time>2022-07-21T05:38:03Z</time>
      </trkpt>
      <trkpt lat="44.16706" lon="5.19224">
        <ele>894.9</ele>
        <time>2022-07-21T05:38:04Z</time>
      </trkpt>
      <trkpt lat="44.16706" lon="5.19225">
        <ele>895</ele>
        <time>2022-07-21T05:38:05Z</time>
      </trkpt>
      <trkpt lat="44.16704" lon="5.19227">
        <ele>895.1</ele>
        <time>2022-07-21T05:38:06Z</time>
      </trkpt>
      <trkpt lat="44.16704" lon="5.19228">
        <ele>895.1</ele>
        <time>2022-07-21T05:38:07Z</time>
      </trkpt>
      <trkpt lat="44.16703" lon="5.19228">
        <ele>895.2</ele>
        <time>2022-07-21T05:38:08Z</time>
      </trkpt>
      <trkpt lat="44.16703" lon="5.19229">
        <ele>895.2</ele>
        <time>2022-07-21T05:38:09Z</time>
      </trkpt>
      <trkpt lat="44.16702" lon="5.1923">
        <ele>895.3</ele>
        <time>2022-07-21T05:38:10Z</time>
      </trkpt>
      <trkpt lat="44.16702" lon="5.19231">
        <ele>895.3</ele>
        <time>2022-07-21T05:38:11Z</time>
      </trkpt>
      <trkpt lat="44.16702" lon="5.19232">
        <ele>895.4</ele>
        <time>2022-07-21T05:38:12Z</time>
      </trkpt>
      <trkpt lat="44.16701" lon="5.19233">
        <ele>895.4</ele>
        <time>2022-07-21T05:38:13Z</time>
      </trkpt>
      <trkpt lat="44.16701" lon="5.19234">
        <ele>895.4</ele>
        <time>2022-07-21T05:38:14Z</time>
      </trkpt>
      <trkpt lat="44.167" lon="5.19235">
        <ele>895.5</ele>
        <time>2022-07-21T05:38:15Z</time>
      </trkpt>
      <trkpt lat="44.167" lon="5.19236">
        <ele>895.5</ele>
        <time>2022-07-21T05:38:16Z</time>
      </trkpt>
      <trkpt lat="44.16699" lon="5.19236">
        <ele>895.6</ele>
        <time>2022-07-21T05:39:32Z</time>
      </trkpt>
      <trkpt lat="44.16699" lon="5.19237">
        <ele>895.6</ele>
        <time>2022-07-21T05:39:33Z</time>
      </trkpt>
      <trkpt lat="44.16698" lon="5.19238">
        <ele>895.7</ele>
        <time>2022-07-21T05:39:34Z</time>
      </trkpt>
      <trkpt lat="44.16697" lon="5.19241">
        <ele>895.8</ele>
        <time>2022-07-21T05:39:35Z</time>
      </trkpt>
      <trkpt lat="44.16696" lon="5.19242">
        <ele>895.9</ele>
        <time>2022-07-21T05:39:36Z</time>
      </trkpt>
      <trkpt lat="44.16694" lon="5.19246">
        <ele>896.1</ele>
        <time>2022-07-21T05:39:37Z</time>
      </trkpt>
      <trkpt lat="44.16694" lon="5.19248">
        <ele>896.1</ele>
        <time>2022-07-21T05:39:38Z</time>
      </trkpt>
      <trkpt lat="44.16692" lon="5.19252">
        <ele>896.3</ele>
        <time>2022-07-21T05:39:39Z</time>
      </trkpt>
      <trkpt lat="44.16691" lon="5.19254">
        <ele>896.4</ele>
        <time>2022-07-21T05:39:40Z</time>
      </trkpt>
      <trkpt lat="44.16689" lon="5.19258">
        <ele>896.6</ele>
        <time>2022-07-21T05:39:41Z</time>
      </trkpt>
      <trkpt lat="44.16689" lon="5.1926">
        <ele>896.7</ele>
        <time>2022-07-21T05:39:42Z</time>
      </trkpt>
      <trkpt lat="44.16687" lon="5.19264">
        <ele>896.9</ele>
        <time>2022-07-21T05:39:43Z</time>
      </trkpt>
      <trkpt lat="44.16686" lon="5.19265">
        <ele>896.9</ele>
        <time>2022-07-21T05:39:44Z</time>
      </trkpt>
      <trkpt lat="44.16685" lon="5.19269">
        <ele>897.1</ele>
        <time>2022-07-21T05:39:45Z</time>
      </trkpt>
      <trkpt lat="44.16684" lon="5.19271">
        <ele>897.2</ele>
        <time>2022-07-21T05:39:46Z</time>
      </trkpt>
      <trkpt lat="44.16683" lon="5.19274">
        <ele>897.3</ele>
        <time>2022-07-21T05:39:47Z</time>
      </trkpt>
      <trkpt lat="44.16681" lon="5.19279">
        <ele>897.5</ele>
        <time>2022-07-21T05:39:49Z</time>
      </trkpt>
      <trkpt lat="44.16679" lon="5.19282">
        <ele>897.6</ele>
        <time>2022-07-21T05:39:50Z</time>
      </trkpt>
      <trkpt lat="44.16677" lon="5.19286">
        <ele>897.8</ele>
        <time>2022-07-21T05:39:51Z</time>
      </trkpt>
      <trkpt lat="44.16677" lon="5.19287">
        <ele>897.9</ele>
        <time>2022-07-21T05:39:52Z</time>
      </trkpt>
      <trkpt lat="44.16676" lon="5.19289">
        <ele>898</ele>
        <time>2022-07-21T05:39:53Z</time>
      </trkpt>
      <trkpt lat="44.16674" lon="5.19294">
        <ele>898.2</ele>
        <time>2022-07-21T05:39:55Z</time>
      </trkpt>
      <trkpt lat="44.16673" lon="5.19296">
        <ele>898.3</ele>
        <time>2022-07-21T05:39:56Z</time>
      </trkpt>
      <trkpt lat="44.16671" lon="5.19301">
        <ele>898.5</ele>
        <time>2022-07-21T05:39:57Z</time>
      </trkpt>
      <trkpt lat="44.16671" lon="5.19302">
        <ele>898.5</ele>
        <time>2022-07-21T05:39:58Z</time>
      </trkpt>
      <trkpt lat="44.1667" lon="5.19307">
        <ele>898.7</ele>
        <time>2022-07-21T05:39:59Z</time>
      </trkpt>
      <trkpt lat="44.16669" lon="5.19308">
        <ele>898.8</ele>
        <time>2022-07-21T05:40:00Z</time>
      </trkpt>
      <trkpt lat="44.16667" lon="5.19312">
        <ele>899</ele>
        <time>2022-07-21T05:40:01Z</time>
      </trkpt>
      <trkpt lat="44.16667" lon="5.19313">
        <ele>899</ele>
        <time>2022-07-21T05:40:02Z</time>
      </trkpt>
      <trkpt lat="44.16665" lon="5.19317">
        <ele>899.2</ele>
        <time>2022-07-21T05:40:03Z</time>
      </trkpt>
      <trkpt lat="44.16665" lon="5.19319">
        <ele>899.3</ele>
        <time>2022-07-21T05:40:04Z</time>
      </trkpt>
      <trkpt lat="44.16664" lon="5.19323">
        <ele>899.5</ele>
        <time>2022-07-21T05:40:05Z</time>
      </trkpt>
      <trkpt lat="44.16663" lon="5.19324">
        <ele>899.5</ele>
        <time>2022-07-21T05:40:06Z</time>
      </trkpt>
      <trkpt lat="44.16661" lon="5.19328">
        <ele>899.7</ele>
        <time>2022-07-21T05:40:07Z</time>
      </trkpt>
      <trkpt lat="44.16661" lon="5.1933">
        <ele>899.8</ele>
        <time>2022-07-21T05:40:08Z</time>
      </trkpt>
      <trkpt lat="44.16659" lon="5.19334">
        <ele>900</ele>
        <time>2022-07-21T05:40:09Z</time>
      </trkpt>
      <trkpt lat="44.16658" lon="5.19335">
        <ele>900</ele>
        <time>2022-07-21T05:40:10Z</time>
      </trkpt>
      <trkpt lat="44.16656" lon="5.19341">
        <ele>900.3</ele>
        <time>2022-07-21T05:40:12Z</time>
      </trkpt>
      <trkpt lat="44.16655" lon="5.19343">
        <ele>900.4</ele>
        <time>2022-07-21T05:40:13Z</time>
      </trkpt>
      <trkpt lat="44.16654" lon="5.19346">
        <ele>900.5</ele>
        <time>2022-07-21T05:40:14Z</time>
      </trkpt>
      <trkpt lat="44.16652" lon="5.1935">
        <ele>900.7</ele>
        <time>2022-07-21T05:40:15Z</time>
      </trkpt>
      <trkpt lat="44.16652" lon="5.19352">
        <ele>900.8</ele>
        <time>2022-07-21T05:40:16Z</time>
      </trkpt>
      <trkpt lat="44.1665" lon="5.19357">
        <ele>901</ele>
        <time>2022-07-21T05:40:17Z</time>
      </trkpt>
      <trkpt lat="44.1665" lon="5.19358">
        <ele>901</ele>
        <time>2022-07-21T05:40:18Z</time>
      </trkpt>
      <trkpt lat="44.16649" lon="5.19363">
        <ele>901.2</ele>
        <time>2022-07-21T05:40:19Z</time>
      </trkpt>
      <trkpt lat="44.16648" lon="5.19364">
        <ele>901.3</ele>
        <time>2022-07-21T05:40:20Z</time>
      </trkpt>
      <trkpt lat="44.16647" lon="5.19368">
        <ele>901.5</ele>
        <time>2022-07-21T05:40:21Z</time>
      </trkpt>
      <trkpt lat="44.16646" lon="5.19369">
        <ele>901.5</ele>
        <time>2022-07-21T05:40:22Z</time>
      </trkpt>
      <trkpt lat="44.16645" lon="5.19374">
        <ele>901.7</ele>
        <time>2022-07-21T05:40:23Z</time>
      </trkpt>
      <trkpt lat="44.16644" lon="5.19375">
        <ele>901.8</ele>
        <time>2022-07-21T05:40:24Z</time>
      </trkpt>
      <trkpt lat="44.16643" lon="5.1938">
        <ele>902</ele>
        <time>2022-07-21T05:40:25Z</time>
      </trkpt>
      <trkpt lat="44.16643" lon="5.19382">
        <ele>902.1</ele>
        <time>2022-07-21T05:40:26Z</time>
      </trkpt>
      <trkpt lat="44.16643" lon="5.19386">
        <ele>902.3</ele>
        <time>2022-07-21T05:40:27Z</time>
      </trkpt>
      <trkpt lat="44.16643" lon="5.19388">
        <ele>902.3</ele>
        <time>2022-07-21T05:40:28Z</time>
      </trkpt>
      <trkpt lat="44.16642" lon="5.19393">
        <ele>902.5</ele>
        <time>2022-07-21T05:40:29Z</time>
      </trkpt>
      <trkpt lat="44.16642" lon="5.19394">
        <ele>902.6</ele>
        <time>2022-07-21T05:40:30Z</time>
      </trkpt>
      <trkpt lat="44.16642" lon="5.19399">
        <ele>902.8</ele>
        <time>2022-07-21T05:40:31Z</time>
      </trkpt>
      <trkpt lat="44.16643" lon="5.19401">
        <ele>902.9</ele>
        <time>2022-07-21T05:40:32Z</time>
      </trkpt>
      <trkpt lat="44.16643" lon="5.19406">
        <ele>903.1</ele>
        <time>2022-07-21T05:40:33Z</time>
      </trkpt>
      <trkpt lat="44.16643" lon="5.19408">
        <ele>903.2</ele>
        <time>2022-07-21T05:40:34Z</time>
      </trkpt>
      <trkpt lat="44.16643" lon="5.19412">
        <ele>903.4</ele>
        <time>2022-07-21T05:40:35Z</time>
      </trkpt>
      <trkpt lat="44.16644" lon="5.19414">
        <ele>903.5</ele>
        <time>2022-07-21T05:40:36Z</time>
      </trkpt>
      <trkpt lat="44.16645" lon="5.19419">
        <ele>903.7</ele>
        <time>2022-07-21T05:40:37Z</time>
      </trkpt>
      <trkpt lat="44.16645" lon="5.1942">
        <ele>903.8</ele>
        <time>2022-07-21T05:40:38Z</time>
      </trkpt>
      <trkpt lat="44.16646" lon="5.19423">
        <ele>903.9</ele>
        <time>2022-07-21T05:40:39Z</time>
      </trkpt>
      <trkpt lat="44.16646" lon="5.19426">
        <ele>904.1</ele>
        <time>2022-07-21T05:40:41Z</time>
      </trkpt>
      <trkpt lat="44.16649" lon="5.19433">
        <ele>904.4</ele>
        <time>2022-07-21T05:40:42Z</time>
      </trkpt>
      <trkpt lat="44.1665" lon="5.19435">
        <ele>904.5</ele>
        <time>2022-07-21T05:40:43Z</time>
      </trkpt>
      <trkpt lat="44.16652" lon="5.19439">
        <ele>904.7</ele>
        <time>2022-07-21T05:40:44Z</time>
      </trkpt>
      <trkpt lat="44.16653" lon="5.1944">
        <ele>904.8</ele>
        <time>2022-07-21T05:40:45Z</time>
      </trkpt>
      <trkpt lat="44.16655" lon="5.19444">
        <ele>905</ele>
        <time>2022-07-21T05:40:46Z</time>
      </trkpt>
      <trkpt lat="44.16656" lon="5.19445">
        <ele>905.1</ele>
        <time>2022-07-21T05:40:47Z</time>
      </trkpt>
      <trkpt lat="44.16658" lon="5.19448">
        <ele>905.2</ele>
        <time>2022-07-21T05:40:48Z</time>
      </trkpt>
      <trkpt lat="44.16659" lon="5.19449">
        <ele>905.3</ele>
        <time>2022-07-21T05:40:49Z</time>
      </trkpt>
      <trkpt lat="44.16662" lon="5.19452">
        <ele>905.5</ele>
        <time>2022-07-21T05:40:50Z</time>
      </trkpt>
      <trkpt lat="44.16662" lon="5.19453">
        <ele>905.6</ele>
        <time>2022-07-21T05:40:51Z</time>
      </trkpt>
      <trkpt lat="44.16665" lon="5.19455">
        <ele>905.8</ele>
        <time>2022-07-21T05:40:52Z</time>
      </trkpt>
      <trkpt lat="44.16666" lon="5.19456">
        <ele>905.8</ele>
        <time>2022-07-21T05:40:53Z</time>
      </trkpt>
      <trkpt lat="44.16668" lon="5.19459">
        <ele>906</ele>
        <time>2022-07-21T05:40:54Z</time>
      </trkpt>
      <trkpt lat="44.16669" lon="5.19459">
        <ele>906.1</ele>
        <time>2022-07-21T05:40:55Z</time>
      </trkpt>
      <trkpt lat="44.16672" lon="5.19462">
        <ele>906.2</ele>
        <time>2022-07-21T05:40:56Z</time>
      </trkpt>
      <trkpt lat="44.16673" lon="5.19463">
        <ele>906.3</ele>
        <time>2022-07-21T05:40:57Z</time>
      </trkpt>
      <trkpt lat="44.16676" lon="5.19465">
        <ele>906.5</ele>
        <time>2022-07-21T05:40:58Z</time>
      </trkpt>
      <trkpt lat="44.16677" lon="5.19466">
        <ele>906.6</ele>
        <time>2022-07-21T05:40:59Z</time>
      </trkpt>
      <trkpt lat="44.1668" lon="5.19468">
        <ele>906.8</ele>
        <time>2022-07-21T05:41:00Z</time>
      </trkpt>
      <trkpt lat="44.16681" lon="5.19469">
        <ele>906.8</ele>
        <time>2022-07-21T05:41:01Z</time>
      </trkpt>
      <trkpt lat="44.16684" lon="5.19471">
        <ele>907</ele>
        <time>2022-07-21T05:41:02Z</time>
      </trkpt>
      <trkpt lat="44.16685" lon="5.19472">
        <ele>907.1</ele>
        <time>2022-07-21T05:41:03Z</time>
      </trkpt>
      <trkpt lat="44.16688" lon="5.19475">
        <ele>907.3</ele>
        <time>2022-07-21T05:41:04Z</time>
      </trkpt>
      <trkpt lat="44.1669" lon="5.19476">
        <ele>907.3</ele>
        <time>2022-07-21T05:41:05Z</time>
      </trkpt>
      <trkpt lat="44.16693" lon="5.19478">
        <ele>907.5</ele>
        <time>2022-07-21T05:41:06Z</time>
      </trkpt>
      <trkpt lat="44.16694" lon="5.19479">
        <ele>907.6</ele>
        <time>2022-07-21T05:41:07Z</time>
      </trkpt>
      <trkpt lat="44.16697" lon="5.1948">
        <ele>907.7</ele>
        <time>2022-07-21T05:41:08Z</time>
      </trkpt>
      <trkpt lat="44.16699" lon="5.19482">
        <ele>907.8</ele>
        <time>2022-07-21T05:41:09Z</time>
      </trkpt>
      <trkpt lat="44.16702" lon="5.19483">
        <ele>908</ele>
        <time>2022-07-21T05:41:10Z</time>
      </trkpt>
      <trkpt lat="44.16704" lon="5.19485">
        <ele>908.1</ele>
        <time>2022-07-21T05:41:11Z</time>
      </trkpt>
      <trkpt lat="44.16707" lon="5.19487">
        <ele>908.2</ele>
        <time>2022-07-21T05:41:12Z</time>
      </trkpt>
      <trkpt lat="44.1671" lon="5.19488">
        <ele>908.4</ele>
        <time>2022-07-21T05:41:13Z</time>
      </trkpt>
      <trkpt lat="44.16712" lon="5.1949">
        <ele>908.5</ele>
        <time>2022-07-21T05:41:14Z</time>
      </trkpt>
      <trkpt lat="44.16715" lon="5.19491">
        <ele>908.6</ele>
        <time>2022-07-21T05:41:15Z</time>
      </trkpt>
      <trkpt lat="44.16718" lon="5.19493">
        <ele>908.7</ele>
        <time>2022-07-21T05:41:16Z</time>
      </trkpt>
      <trkpt lat="44.1672" lon="5.19494">
        <ele>908.9</ele>
        <time>2022-07-21T05:41:17Z</time>
      </trkpt>
      <trkpt lat="44.16724" lon="5.19497">
        <ele>909.1</ele>
        <time>2022-07-21T05:41:18Z</time>
      </trkpt>
      <trkpt lat="44.16725" lon="5.19497">
        <ele>909.1</ele>
        <time>2022-07-21T05:41:19Z</time>
      </trkpt>
      <trkpt lat="44.16729" lon="5.19499">
        <ele>909.3</ele>
        <time>2022-07-21T05:41:20Z</time>
      </trkpt>
      <trkpt lat="44.1673" lon="5.195">
        <ele>909.3</ele>
        <time>2022-07-21T05:41:21Z</time>
      </trkpt>
      <trkpt lat="44.16733" lon="5.19502">
        <ele>909.5</ele>
        <time>2022-07-21T05:41:22Z</time>
      </trkpt>
      <trkpt lat="44.16735" lon="5.19502">
        <ele>909.6</ele>
        <time>2022-07-21T05:41:23Z</time>
      </trkpt>
      <trkpt lat="44.16738" lon="5.19504">
        <ele>909.7</ele>
        <time>2022-07-21T05:41:24Z</time>
      </trkpt>
      <trkpt lat="44.16739" lon="5.19504">
        <ele>909.8</ele>
        <time>2022-07-21T05:41:25Z</time>
      </trkpt>
      <trkpt lat="44.16742" lon="5.19505">
        <ele>909.9</ele>
        <time>2022-07-21T05:41:26Z</time>
      </trkpt>
      <trkpt lat="44.16743" lon="5.19506">
        <ele>910</ele>
        <time>2022-07-21T05:41:27Z</time>
      </trkpt>
      <trkpt lat="44.16747" lon="5.19507">
        <ele>910.2</ele>
        <time>2022-07-21T05:41:28Z</time>
      </trkpt>
      <trkpt lat="44.16749" lon="5.19507">
        <ele>910.3</ele>
        <time>2022-07-21T05:41:29Z</time>
      </trkpt>
      <trkpt lat="44.16751" lon="5.19508">
        <ele>910.4</ele>
        <time>2022-07-21T05:41:30Z</time>
      </trkpt>
      <trkpt lat="44.16754" lon="5.19509">
        <ele>910.5</ele>
        <time>2022-07-21T05:41:31Z</time>
      </trkpt>
      <trkpt lat="44.16757" lon="5.1951">
        <ele>910.7</ele>
        <time>2022-07-21T05:41:32Z</time>
      </trkpt>
      <trkpt lat="44.1676" lon="5.19511">
        <ele>910.8</ele>
        <time>2022-07-21T05:41:33Z</time>
      </trkpt>
      <trkpt lat="44.16764" lon="5.19512">
        <ele>911</ele>
        <time>2022-07-21T05:41:34Z</time>
      </trkpt>
      <trkpt lat="44.16765" lon="5.19512">
        <ele>911.1</ele>
        <time>2022-07-21T05:41:35Z</time>
      </trkpt>
      <trkpt lat="44.16767" lon="5.19513">
        <ele>911.2</ele>
        <time>2022-07-21T05:41:36Z</time>
      </trkpt>
      <trkpt lat="44.16771" lon="5.19514">
        <ele>911.4</ele>
        <time>2022-07-21T05:41:37Z</time>
      </trkpt>
      <trkpt lat="44.16772" lon="5.19514">
        <ele>911.4</ele>
        <time>2022-07-21T05:41:38Z</time>
      </trkpt>
      <trkpt lat="44.16776" lon="5.19516">
        <ele>911.6</ele>
        <time>2022-07-21T05:41:39Z</time>
      </trkpt>
      <trkpt lat="44.16777" lon="5.19516">
        <ele>911.7</ele>
        <time>2022-07-21T05:41:40Z</time>
      </trkpt>
      <trkpt lat="44.16781" lon="5.19517">
        <ele>911.9</ele>
        <time>2022-07-21T05:41:41Z</time>
      </trkpt>
      <trkpt lat="44.16782" lon="5.19517">
        <ele>911.9</ele>
        <time>2022-07-21T05:41:42Z</time>
      </trkpt>
      <trkpt lat="44.16785" lon="5.19518">
        <ele>912.1</ele>
        <time>2022-07-21T05:41:43Z</time>
      </trkpt>
      <trkpt lat="44.16786" lon="5.19519">
        <ele>912.2</ele>
        <time>2022-07-21T05:41:44Z</time>
      </trkpt>
      <trkpt lat="44.1679" lon="5.19521">
        <ele>912.3</ele>
        <time>2022-07-21T05:41:45Z</time>
      </trkpt>
      <trkpt lat="44.16791" lon="5.19521">
        <ele>912.4</ele>
        <time>2022-07-21T05:41:46Z</time>
      </trkpt>
      <trkpt lat="44.16794" lon="5.19523">
        <ele>912.6</ele>
        <time>2022-07-21T05:41:47Z</time>
      </trkpt>
      <trkpt lat="44.16796" lon="5.19524">
        <ele>912.7</ele>
        <time>2022-07-21T05:41:48Z</time>
      </trkpt>
      <trkpt lat="44.168" lon="5.19525">
        <ele>912.9</ele>
        <time>2022-07-21T05:41:49Z</time>
      </trkpt>
      <trkpt lat="44.16801" lon="5.19526">
        <ele>912.9</ele>
        <time>2022-07-21T05:41:50Z</time>
      </trkpt>
      <trkpt lat="44.16803" lon="5.19527">
        <ele>913.1</ele>
        <time>2022-07-21T05:41:51Z</time>
      </trkpt>
      <trkpt lat="44.16806" lon="5.19528">
        <ele>913.2</ele>
        <time>2022-07-21T05:41:52Z</time>
      </trkpt>
      <trkpt lat="44.16809" lon="5.19529">
        <ele>913.4</ele>
        <time>2022-07-21T05:41:53Z</time>
      </trkpt>
      <trkpt lat="44.16812" lon="5.1953">
        <ele>913.5</ele>
        <time>2022-07-21T05:41:54Z</time>
      </trkpt>
      <trkpt lat="44.16816" lon="5.19531">
        <ele>913.7</ele>
        <time>2022-07-21T05:41:55Z</time>
      </trkpt>
      <trkpt lat="44.16817" lon="5.19532">
        <ele>913.8</ele>
        <time>2022-07-21T05:41:56Z</time>
      </trkpt>
      <trkpt lat="44.16821" lon="5.19534">
        <ele>914</ele>
        <time>2022-07-21T05:41:57Z</time>
      </trkpt>
      <trkpt lat="44.16822" lon="5.19534">
        <ele>914</ele>
        <time>2022-07-21T05:41:58Z</time>
      </trkpt>
      <trkpt lat="44.16825" lon="5.19536">
        <ele>914.2</ele>
        <time>2022-07-21T05:41:59Z</time>
      </trkpt>
      <trkpt lat="44.16826" lon="5.19536">
        <ele>914.2</ele>
        <time>2022-07-21T05:42:00Z</time>
      </trkpt>
      <trkpt lat="44.1683" lon="5.19537">
        <ele>914.4</ele>
        <time>2022-07-21T05:42:01Z</time>
      </trkpt>
      <trkpt lat="44.16831" lon="5.19538">
        <ele>914.5</ele>
        <time>2022-07-21T05:42:02Z</time>
      </trkpt>
      <trkpt lat="44.16834" lon="5.19539">
        <ele>914.6</ele>
        <time>2022-07-21T05:42:03Z</time>
      </trkpt>
      <trkpt lat="44.16835" lon="5.19539">
        <ele>914.7</ele>
        <time>2022-07-21T05:42:04Z</time>
      </trkpt>
      <trkpt lat="44.16838" lon="5.19541">
        <ele>914.8</ele>
        <time>2022-07-21T05:42:05Z</time>
      </trkpt>
      <trkpt lat="44.16841" lon="5.19542">
        <ele>915</ele>
        <time>2022-07-21T05:42:06Z</time>
      </trkpt>
      <trkpt lat="44.16843" lon="5.19543">
        <ele>915.1</ele>
        <time>2022-07-21T05:42:07Z</time>
      </trkpt>
      <trkpt lat="44.16847" lon="5.19545">
        <ele>915.3</ele>
        <time>2022-07-21T05:42:08Z</time>
      </trkpt>
      <trkpt lat="44.16848" lon="5.19545">
        <ele>915.3</ele>
        <time>2022-07-21T05:42:09Z</time>
      </trkpt>
      <trkpt lat="44.16852" lon="5.19547">
        <ele>915.5</ele>
        <time>2022-07-21T05:42:10Z</time>
      </trkpt>
      <trkpt lat="44.16853" lon="5.19547">
        <ele>915.6</ele>
        <time>2022-07-21T05:42:11Z</time>
      </trkpt>
      <trkpt lat="44.16857" lon="5.19549">
        <ele>915.8</ele>
        <time>2022-07-21T05:42:12Z</time>
      </trkpt>
      <trkpt lat="44.16858" lon="5.19549">
        <ele>915.8</ele>
        <time>2022-07-21T05:42:13Z</time>
      </trkpt>
      <trkpt lat="44.16861" lon="5.1955">
        <ele>916</ele>
        <time>2022-07-21T05:42:14Z</time>
      </trkpt>
      <trkpt lat="44.16864" lon="5.19552">
        <ele>916.1</ele>
        <time>2022-07-21T05:42:15Z</time>
      </trkpt>
      <trkpt lat="44.16869" lon="5.19554">
        <ele>916.4</ele>
        <time>2022-07-21T05:42:17Z</time>
      </trkpt>
      <trkpt lat="44.1687" lon="5.19555">
        <ele>916.5</ele>
        <time>2022-07-21T05:42:18Z</time>
      </trkpt>
      <trkpt lat="44.16874" lon="5.19556">
        <ele>916.6</ele>
        <time>2022-07-21T05:42:19Z</time>
      </trkpt>
      <trkpt lat="44.16875" lon="5.19557">
        <ele>916.7</ele>
        <time>2022-07-21T05:42:20Z</time>
      </trkpt>
      <trkpt lat="44.16879" lon="5.19559">
        <ele>916.9</ele>
        <time>2022-07-21T05:42:21Z</time>
      </trkpt>
      <trkpt lat="44.1688" lon="5.1956">
        <ele>917</ele>
        <time>2022-07-21T05:42:22Z</time>
      </trkpt>
      <trkpt lat="44.16882" lon="5.19561">
        <ele>917.1</ele>
        <time>2022-07-21T05:42:23Z</time>
      </trkpt>
      <trkpt lat="44.16886" lon="5.19563">
        <ele>917.3</ele>
        <time>2022-07-21T05:42:24Z</time>
      </trkpt>
      <trkpt lat="44.16887" lon="5.19564">
        <ele>917.3</ele>
        <time>2022-07-21T05:42:25Z</time>
      </trkpt>
      <trkpt lat="44.1689" lon="5.19566">
        <ele>917.5</ele>
        <time>2022-07-21T05:42:26Z</time>
      </trkpt>
      <trkpt lat="44.16892" lon="5.19567">
        <ele>917.6</ele>
        <time>2022-07-21T05:42:27Z</time>
      </trkpt>
      <trkpt lat="44.16894" lon="5.19569">
        <ele>917.7</ele>
        <time>2022-07-21T05:42:28Z</time>
      </trkpt>
      <trkpt lat="44.16898" lon="5.19571">
        <ele>917.9</ele>
        <time>2022-07-21T05:42:29Z</time>
      </trkpt>
      <trkpt lat="44.16899" lon="5.19572">
        <ele>918</ele>
        <time>2022-07-21T05:42:30Z</time>
      </trkpt>
      <trkpt lat="44.16902" lon="5.19574">
        <ele>918.2</ele>
        <time>2022-07-21T05:42:31Z</time>
      </trkpt>
      <trkpt lat="44.16903" lon="5.19574">
        <ele>918.2</ele>
        <time>2022-07-21T05:42:32Z</time>
      </trkpt>
      <trkpt lat="44.16907" lon="5.19576">
        <ele>918.4</ele>
        <time>2022-07-21T05:42:33Z</time>
      </trkpt>
      <trkpt lat="44.16908" lon="5.19577">
        <ele>918.5</ele>
        <time>2022-07-21T05:42:34Z</time>
      </trkpt>
      <trkpt lat="44.16911" lon="5.19579">
        <ele>918.6</ele>
        <time>2022-07-21T05:42:35Z</time>
      </trkpt>
      <trkpt lat="44.16912" lon="5.1958">
        <ele>918.7</ele>
        <time>2022-07-21T05:42:36Z</time>
      </trkpt>
      <trkpt lat="44.16916" lon="5.19581">
        <ele>918.9</ele>
        <time>2022-07-21T05:42:37Z</time>
      </trkpt>
      <trkpt lat="44.16917" lon="5.19582">
        <ele>918.9</ele>
        <time>2022-07-21T05:42:38Z</time>
      </trkpt>
      <trkpt lat="44.1692" lon="5.19583">
        <ele>919.1</ele>
        <time>2022-07-21T05:42:39Z</time>
      </trkpt>
      <trkpt lat="44.16923" lon="5.19585">
        <ele>919.3</ele>
        <time>2022-07-21T05:42:40Z</time>
      </trkpt>
      <trkpt lat="44.16925" lon="5.19586">
        <ele>919.3</ele>
        <time>2022-07-21T05:42:41Z</time>
      </trkpt>
      <trkpt lat="44.16928" lon="5.19588">
        <ele>919.5</ele>
        <time>2022-07-21T05:42:42Z</time>
      </trkpt>
      <trkpt lat="44.16929" lon="5.19589">
        <ele>919.6</ele>
        <time>2022-07-21T05:42:43Z</time>
      </trkpt>
      <trkpt lat="44.16933" lon="5.19592">
        <ele>919.8</ele>
        <time>2022-07-21T05:42:44Z</time>
      </trkpt>
      <trkpt lat="44.16934" lon="5.19593">
        <ele>919.8</ele>
        <time>2022-07-21T05:42:45Z</time>
      </trkpt>
      <trkpt lat="44.16937" lon="5.19595">
        <ele>920</ele>
        <time>2022-07-21T05:42:46Z</time>
      </trkpt>
      <trkpt lat="44.16938" lon="5.19596">
        <ele>920</ele>
        <time>2022-07-21T05:42:47Z</time>
      </trkpt>
      <trkpt lat="44.16942" lon="5.19598">
        <ele>920.2</ele>
        <time>2022-07-21T05:42:48Z</time>
      </trkpt>
      <trkpt lat="44.16943" lon="5.19599">
        <ele>920.3</ele>
        <time>2022-07-21T05:42:49Z</time>
      </trkpt>
      <trkpt lat="44.16946" lon="5.19602">
        <ele>920.5</ele>
        <time>2022-07-21T05:42:50Z</time>
      </trkpt>
      <trkpt lat="44.16947" lon="5.19603">
        <ele>920.5</ele>
        <time>2022-07-21T05:42:51Z</time>
      </trkpt>
      <trkpt lat="44.16951" lon="5.19606">
        <ele>920.7</ele>
        <time>2022-07-21T05:42:52Z</time>
      </trkpt>
      <trkpt lat="44.16952" lon="5.19607">
        <ele>920.8</ele>
        <time>2022-07-21T05:42:53Z</time>
      </trkpt>
      <trkpt lat="44.16955" lon="5.1961">
        <ele>921</ele>
        <time>2022-07-21T05:42:54Z</time>
      </trkpt>
      <trkpt lat="44.16956" lon="5.19611">
        <ele>921.1</ele>
        <time>2022-07-21T05:42:55Z</time>
      </trkpt>
      <trkpt lat="44.16959" lon="5.19614">
        <ele>921.3</ele>
        <time>2022-07-21T05:42:56Z</time>
      </trkpt>
      <trkpt lat="44.1696" lon="5.19615">
        <ele>921.3</ele>
        <time>2022-07-21T05:42:57Z</time>
      </trkpt>
      <trkpt lat="44.16962" lon="5.19619">
        <ele>921.5</ele>
        <time>2022-07-21T05:42:58Z</time>
      </trkpt>
      <trkpt lat="44.16963" lon="5.1962">
        <ele>921.5</ele>
        <time>2022-07-21T05:42:59Z</time>
      </trkpt>
      <trkpt lat="44.16965" lon="5.19624">
        <ele>921.7</ele>
        <time>2022-07-21T05:43:00Z</time>
      </trkpt>
      <trkpt lat="44.16966" lon="5.19625">
        <ele>921.7</ele>
        <time>2022-07-21T05:43:01Z</time>
      </trkpt>
      <trkpt lat="44.16968" lon="5.19629">
        <ele>921.9</ele>
        <time>2022-07-21T05:43:02Z</time>
      </trkpt>
      <trkpt lat="44.16969" lon="5.1963">
        <ele>922</ele>
        <time>2022-07-21T05:43:03Z</time>
      </trkpt>
      <trkpt lat="44.1697" lon="5.19634">
        <ele>922.1</ele>
        <time>2022-07-21T05:43:04Z</time>
      </trkpt>
      <trkpt lat="44.16971" lon="5.19636">
        <ele>922.2</ele>
        <time>2022-07-21T05:43:05Z</time>
      </trkpt>
      <trkpt lat="44.16972" lon="5.1964">
        <ele>922.3</ele>
        <time>2022-07-21T05:43:06Z</time>
      </trkpt>
      <trkpt lat="44.16972" lon="5.19642">
        <ele>922.3</ele>
        <time>2022-07-21T05:43:07Z</time>
      </trkpt>
      <trkpt lat="44.16973" lon="5.19646">
        <ele>922.2</ele>
        <time>2022-07-21T05:43:08Z</time>
      </trkpt>
      <trkpt lat="44.16973" lon="5.19648">
        <ele>922.2</ele>
        <time>2022-07-21T05:43:09Z</time>
      </trkpt>
      <trkpt lat="44.16973" lon="5.19653">
        <ele>922.2</ele>
        <time>2022-07-21T05:43:10Z</time>
      </trkpt>
      <trkpt lat="44.16973" lon="5.19654">
        <ele>922.1</ele>
        <time>2022-07-21T05:43:11Z</time>
      </trkpt>
      <trkpt lat="44.16973" lon="5.19659">
        <ele>922.3</ele>
        <time>2022-07-21T05:43:12Z</time>
      </trkpt>
      <trkpt lat="44.16973" lon="5.1966">
        <ele>922.4</ele>
        <time>2022-07-21T05:43:13Z</time>
      </trkpt>
      <trkpt lat="44.16972" lon="5.19664">
        <ele>922.6</ele>
        <time>2022-07-21T05:43:14Z</time>
      </trkpt>
      <trkpt lat="44.16972" lon="5.19666">
        <ele>922.7</ele>
        <time>2022-07-21T05:43:15Z</time>
      </trkpt>
      <trkpt lat="44.16971" lon="5.1967">
        <ele>922.9</ele>
        <time>2022-07-21T05:43:16Z</time>
      </trkpt>
      <trkpt lat="44.16971" lon="5.19671">
        <ele>923</ele>
        <time>2022-07-21T05:43:17Z</time>
      </trkpt>
      <trkpt lat="44.16969" lon="5.19674">
        <ele>923.2</ele>
        <time>2022-07-21T05:43:18Z</time>
      </trkpt>
      <trkpt lat="44.16969" lon="5.19676">
        <ele>923.3</ele>
        <time>2022-07-21T05:43:19Z</time>
      </trkpt>
      <trkpt lat="44.16967" lon="5.19679">
        <ele>923.5</ele>
        <time>2022-07-21T05:43:20Z</time>
      </trkpt>
      <trkpt lat="44.16967" lon="5.1968">
        <ele>923.5</ele>
        <time>2022-07-21T05:43:21Z</time>
      </trkpt>
      <trkpt lat="44.16966" lon="5.19684">
        <ele>923.7</ele>
        <time>2022-07-21T05:43:22Z</time>
      </trkpt>
      <trkpt lat="44.16965" lon="5.19685">
        <ele>923.8</ele>
        <time>2022-07-21T05:43:23Z</time>
      </trkpt>
      <trkpt lat="44.16964" lon="5.19688">
        <ele>924</ele>
        <time>2022-07-21T05:43:24Z</time>
      </trkpt>
      <trkpt lat="44.16963" lon="5.19689">
        <ele>924.1</ele>
        <time>2022-07-21T05:43:25Z</time>
      </trkpt>
      <trkpt lat="44.16961" lon="5.19693">
        <ele>924.2</ele>
        <time>2022-07-21T05:43:26Z</time>
      </trkpt>
      <trkpt lat="44.16961" lon="5.19694">
        <ele>924.3</ele>
        <time>2022-07-21T05:43:27Z</time>
      </trkpt>
      <trkpt lat="44.16959" lon="5.19697">
        <ele>924.5</ele>
        <time>2022-07-21T05:43:28Z</time>
      </trkpt>
      <trkpt lat="44.16958" lon="5.19698">
        <ele>924.5</ele>
        <time>2022-07-21T05:43:29Z</time>
      </trkpt>
      <trkpt lat="44.16957" lon="5.19701">
        <ele>924.7</ele>
        <time>2022-07-21T05:43:30Z</time>
      </trkpt>
      <trkpt lat="44.16956" lon="5.19702">
        <ele>924.8</ele>
        <time>2022-07-21T05:43:31Z</time>
      </trkpt>
      <trkpt lat="44.16955" lon="5.19703">
        <ele>924.9</ele>
        <time>2022-07-21T05:43:32Z</time>
      </trkpt>
      <trkpt lat="44.16954" lon="5.19705">
        <ele>925</ele>
        <time>2022-07-21T05:43:33Z</time>
      </trkpt>
      <trkpt lat="44.16952" lon="5.19708">
        <ele>925.1</ele>
        <time>2022-07-21T05:43:34Z</time>
      </trkpt>
      <trkpt lat="44.16951" lon="5.19709">
        <ele>925.2</ele>
        <time>2022-07-21T05:43:35Z</time>
      </trkpt>
      <trkpt lat="44.1695" lon="5.1971">
        <ele>925.3</ele>
        <time>2022-07-21T05:43:36Z</time>
      </trkpt>
      <trkpt lat="44.16949" lon="5.19712">
        <ele>925.4</ele>
        <time>2022-07-21T05:43:37Z</time>
      </trkpt>
      <trkpt lat="44.16947" lon="5.19715">
        <ele>925.6</ele>
        <time>2022-07-21T05:43:38Z</time>
      </trkpt>
      <trkpt lat="44.16947" lon="5.19716">
        <ele>925.6</ele>
        <time>2022-07-21T05:43:39Z</time>
      </trkpt>
      <trkpt lat="44.16945" lon="5.19719">
        <ele>925.8</ele>
        <time>2022-07-21T05:43:40Z</time>
      </trkpt>
      <trkpt lat="44.16944" lon="5.1972">
        <ele>925.9</ele>
        <time>2022-07-21T05:43:41Z</time>
      </trkpt>
      <trkpt lat="44.16942" lon="5.19723">
        <ele>926</ele>
        <time>2022-07-21T05:43:42Z</time>
      </trkpt>
      <trkpt lat="44.16942" lon="5.19724">
        <ele>926.1</ele>
        <time>2022-07-21T05:43:43Z</time>
      </trkpt>
      <trkpt lat="44.1694" lon="5.19727">
        <ele>926.3</ele>
        <time>2022-07-21T05:43:44Z</time>
      </trkpt>
      <trkpt lat="44.1694" lon="5.19728">
        <ele>926.3</ele>
        <time>2022-07-21T05:43:45Z</time>
      </trkpt>
      <trkpt lat="44.16938" lon="5.19731">
        <ele>926.5</ele>
        <time>2022-07-21T05:43:46Z</time>
      </trkpt>
      <trkpt lat="44.16937" lon="5.19732">
        <ele>926.6</ele>
        <time>2022-07-21T05:43:47Z</time>
      </trkpt>
      <trkpt lat="44.16935" lon="5.19735">
        <ele>926.7</ele>
        <time>2022-07-21T05:43:48Z</time>
      </trkpt>
      <trkpt lat="44.16934" lon="5.19736">
        <ele>926.8</ele>
        <time>2022-07-21T05:43:49Z</time>
      </trkpt>
      <trkpt lat="44.16933" lon="5.19738">
        <ele>926.9</ele>
        <time>2022-07-21T05:43:50Z</time>
      </trkpt>
      <trkpt lat="44.16932" lon="5.1974">
        <ele>927</ele>
        <time>2022-07-21T05:43:51Z</time>
      </trkpt>
      <trkpt lat="44.1693" lon="5.19743">
        <ele>927.2</ele>
        <time>2022-07-21T05:43:52Z</time>
      </trkpt>
      <trkpt lat="44.1693" lon="5.19744">
        <ele>927.3</ele>
        <time>2022-07-21T05:43:53Z</time>
      </trkpt>
      <trkpt lat="44.16928" lon="5.19748">
        <ele>927.5</ele>
        <time>2022-07-21T05:43:54Z</time>
      </trkpt>
      <trkpt lat="44.16928" lon="5.19749">
        <ele>927.6</ele>
        <time>2022-07-21T05:43:55Z</time>
      </trkpt>
      <trkpt lat="44.16926" lon="5.1975">
        <ele>927.7</ele>
        <time>2022-07-21T05:43:56Z</time>
      </trkpt>
      <trkpt lat="44.16925" lon="5.19751">
        <ele>927.8</ele>
        <time>2022-07-21T05:43:57Z</time>
      </trkpt>
      <trkpt lat="44.16923" lon="5.19754">
        <ele>928</ele>
        <time>2022-07-21T05:43:58Z</time>
      </trkpt>
      <trkpt lat="44.16923" lon="5.19755">
        <ele>928</ele>
        <time>2022-07-21T05:43:59Z</time>
      </trkpt>
      <trkpt lat="44.16921" lon="5.19759">
        <ele>928.2</ele>
        <time>2022-07-21T05:44:00Z</time>
      </trkpt>
      <trkpt lat="44.1692" lon="5.1976">
        <ele>928.3</ele>
        <time>2022-07-21T05:44:01Z</time>
      </trkpt>
      <trkpt lat="44.16919" lon="5.19763">
        <ele>928.5</ele>
        <time>2022-07-21T05:44:02Z</time>
      </trkpt>
      <trkpt lat="44.16918" lon="5.19764">
        <ele>928.6</ele>
        <time>2022-07-21T05:44:03Z</time>
      </trkpt>
      <trkpt lat="44.16916" lon="5.19767">
        <ele>928.8</ele>
        <time>2022-07-21T05:44:04Z</time>
      </trkpt>
      <trkpt lat="44.16916" lon="5.19768">
        <ele>928.9</ele>
        <time>2022-07-21T05:44:05Z</time>
      </trkpt>
      <trkpt lat="44.16914" lon="5.19771">
        <ele>929.1</ele>
        <time>2022-07-21T05:44:06Z</time>
      </trkpt>
      <trkpt lat="44.16913" lon="5.19772">
        <ele>929.2</ele>
        <time>2022-07-21T05:44:07Z</time>
      </trkpt>
      <trkpt lat="44.16911" lon="5.19775">
        <ele>929.4</ele>
        <time>2022-07-21T05:44:08Z</time>
      </trkpt>
      <trkpt lat="44.16911" lon="5.19776">
        <ele>929.5</ele>
        <time>2022-07-21T05:44:09Z</time>
      </trkpt>
      <trkpt lat="44.16909" lon="5.19779">
        <ele>929.7</ele>
        <time>2022-07-21T05:44:10Z</time>
      </trkpt>
      <trkpt lat="44.16908" lon="5.1978">
        <ele>929.8</ele>
        <time>2022-07-21T05:44:11Z</time>
      </trkpt>
      <trkpt lat="44.16906" lon="5.19783">
        <ele>930.1</ele>
        <time>2022-07-21T05:44:12Z</time>
      </trkpt>
      <trkpt lat="44.16906" lon="5.19784">
        <ele>930.1</ele>
        <time>2022-07-21T05:44:13Z</time>
      </trkpt>
      <trkpt lat="44.16904" lon="5.19787">
        <ele>930.4</ele>
        <time>2022-07-21T05:44:14Z</time>
      </trkpt>
      <trkpt lat="44.16903" lon="5.19788">
        <ele>930.5</ele>
        <time>2022-07-21T05:44:15Z</time>
      </trkpt>
      <trkpt lat="44.16902" lon="5.19789">
        <ele>930.6</ele>
        <time>2022-07-21T05:44:16Z</time>
      </trkpt>
      <trkpt lat="44.16901" lon="5.19791">
        <ele>930.8</ele>
        <time>2022-07-21T05:44:17Z</time>
      </trkpt>
      <trkpt lat="44.16899" lon="5.19794">
        <ele>931</ele>
        <time>2022-07-21T05:44:18Z</time>
      </trkpt>
      <trkpt lat="44.16898" lon="5.19795">
        <ele>931.1</ele>
        <time>2022-07-21T05:44:19Z</time>
      </trkpt>
      <trkpt lat="44.16896" lon="5.19798">
        <ele>931.4</ele>
        <time>2022-07-21T05:44:20Z</time>
      </trkpt>
      <trkpt lat="44.16896" lon="5.19799">
        <ele>931.4</ele>
        <time>2022-07-21T05:44:21Z</time>
      </trkpt>
      <trkpt lat="44.16894" lon="5.19802">
        <ele>931.7</ele>
        <time>2022-07-21T05:44:22Z</time>
      </trkpt>
      <trkpt lat="44.16893" lon="5.19803">
        <ele>931.8</ele>
        <time>2022-07-21T05:44:23Z</time>
      </trkpt>
      <trkpt lat="44.16892" lon="5.19804">
        <ele>932</ele>
        <time>2022-07-21T05:44:24Z</time>
      </trkpt>
      <trkpt lat="44.16891" lon="5.19806">
        <ele>932.1</ele>
        <time>2022-07-21T05:44:25Z</time>
      </trkpt>
      <trkpt lat="44.16889" lon="5.19808">
        <ele>932.3</ele>
        <time>2022-07-21T05:44:26Z</time>
      </trkpt>
      <trkpt lat="44.16888" lon="5.1981">
        <ele>932.5</ele>
        <time>2022-07-21T05:44:27Z</time>
      </trkpt>
      <trkpt lat="44.16887" lon="5.19812">
        <ele>932.6</ele>
        <time>2022-07-21T05:44:28Z</time>
      </trkpt>
      <trkpt lat="44.16886" lon="5.19814">
        <ele>932.8</ele>
        <time>2022-07-21T05:44:29Z</time>
      </trkpt>
      <trkpt lat="44.16884" lon="5.19817">
        <ele>933.1</ele>
        <time>2022-07-21T05:44:30Z</time>
      </trkpt>
      <trkpt lat="44.16884" lon="5.19817">
        <ele>933.2</ele>
        <time>2022-07-21T05:44:31Z</time>
      </trkpt>
      <trkpt lat="44.16882" lon="5.19821">
        <ele>933.5</ele>
        <time>2022-07-21T05:44:32Z</time>
      </trkpt>
      <trkpt lat="44.16881" lon="5.19822">
        <ele>933.6</ele>
        <time>2022-07-21T05:44:33Z</time>
      </trkpt>
      <trkpt lat="44.1688" lon="5.19825">
        <ele>933.9</ele>
        <time>2022-07-21T05:44:34Z</time>
      </trkpt>
      <trkpt lat="44.16879" lon="5.19825">
        <ele>934</ele>
        <time>2022-07-21T05:44:35Z</time>
      </trkpt>
      <trkpt lat="44.16877" lon="5.19828">
        <ele>934.3</ele>
        <time>2022-07-21T05:44:36Z</time>
      </trkpt>
      <trkpt lat="44.16876" lon="5.19829">
        <ele>934.4</ele>
        <time>2022-07-21T05:44:37Z</time>
      </trkpt>
      <trkpt lat="44.16875" lon="5.19831">
        <ele>934.6</ele>
        <time>2022-07-21T05:44:38Z</time>
      </trkpt>
      <trkpt lat="44.16874" lon="5.19832">
        <ele>934.7</ele>
        <time>2022-07-21T05:44:39Z</time>
      </trkpt>
      <trkpt lat="44.16873" lon="5.19834">
        <ele>934.9</ele>
        <time>2022-07-21T05:44:40Z</time>
      </trkpt>
      <trkpt lat="44.16872" lon="5.19836">
        <ele>935.1</ele>
        <time>2022-07-21T05:44:41Z</time>
      </trkpt>
      <trkpt lat="44.1687" lon="5.19839">
        <ele>935.4</ele>
        <time>2022-07-21T05:44:42Z</time>
      </trkpt>
      <trkpt lat="44.1687" lon="5.1984">
        <ele>935.5</ele>
        <time>2022-07-21T05:44:43Z</time>
      </trkpt>
      <trkpt lat="44.16869" lon="5.19842">
        <ele>935.7</ele>
        <time>2022-07-21T05:44:44Z</time>
      </trkpt>
      <trkpt lat="44.16868" lon="5.19844">
        <ele>935.9</ele>
        <time>2022-07-21T05:44:45Z</time>
      </trkpt>
      <trkpt lat="44.16867" lon="5.19846">
        <ele>936</ele>
        <time>2022-07-21T05:44:46Z</time>
      </trkpt>
      <trkpt lat="44.16866" lon="5.19848">
        <ele>936.3</ele>
        <time>2022-07-21T05:44:47Z</time>
      </trkpt>
      <trkpt lat="44.16865" lon="5.1985">
        <ele>936.5</ele>
        <time>2022-07-21T05:44:48Z</time>
      </trkpt>
      <trkpt lat="44.16865" lon="5.19852">
        <ele>936.7</ele>
        <time>2022-07-21T05:44:49Z</time>
      </trkpt>
      <trkpt lat="44.16864" lon="5.19855">
        <ele>936.9</ele>
        <time>2022-07-21T05:44:50Z</time>
      </trkpt>
      <trkpt lat="44.16863" lon="5.19857">
        <ele>937.1</ele>
        <time>2022-07-21T05:44:51Z</time>
      </trkpt>
      <trkpt lat="44.16862" lon="5.1986">
        <ele>937.4</ele>
        <time>2022-07-21T05:44:52Z</time>
      </trkpt>
      <trkpt lat="44.16861" lon="5.19862">
        <ele>937.5</ele>
        <time>2022-07-21T05:44:53Z</time>
      </trkpt>
      <trkpt lat="44.1686" lon="5.19865">
        <ele>937.8</ele>
        <time>2022-07-21T05:44:54Z</time>
      </trkpt>
      <trkpt lat="44.1686" lon="5.19867">
        <ele>937.9</ele>
        <time>2022-07-21T05:44:55Z</time>
      </trkpt>
      <trkpt lat="44.16859" lon="5.1987">
        <ele>938.3</ele>
        <time>2022-07-21T05:44:56Z</time>
      </trkpt>
      <trkpt lat="44.16859" lon="5.19872">
        <ele>938.4</ele>
        <time>2022-07-21T05:44:57Z</time>
      </trkpt>
      <trkpt lat="44.16859" lon="5.19874">
        <ele>938.5</ele>
        <time>2022-07-21T05:44:58Z</time>
      </trkpt>
      <trkpt lat="44.16858" lon="5.19876">
        <ele>938.7</ele>
        <time>2022-07-21T05:44:59Z</time>
      </trkpt>
      <trkpt lat="44.16858" lon="5.1988">
        <ele>939</ele>
        <time>2022-07-21T05:45:00Z</time>
      </trkpt>
      <trkpt lat="44.16858" lon="5.19881">
        <ele>939.1</ele>
        <time>2022-07-21T05:45:01Z</time>
      </trkpt>
      <trkpt lat="44.16857" lon="5.19885">
        <ele>939.4</ele>
        <time>2022-07-21T05:45:02Z</time>
      </trkpt>
      <trkpt lat="44.16857" lon="5.19887">
        <ele>939.5</ele>
        <time>2022-07-21T05:45:03Z</time>
      </trkpt>
      <trkpt lat="44.16857" lon="5.19891">
        <ele>939.8</ele>
        <time>2022-07-21T05:45:04Z</time>
      </trkpt>
      <trkpt lat="44.16857" lon="5.19892">
        <ele>939.9</ele>
        <time>2022-07-21T05:45:05Z</time>
      </trkpt>
      <trkpt lat="44.16857" lon="5.19896">
        <ele>940.2</ele>
        <time>2022-07-21T05:45:06Z</time>
      </trkpt>
      <trkpt lat="44.16857" lon="5.19897">
        <ele>940.3</ele>
        <time>2022-07-21T05:45:07Z</time>
      </trkpt>
      <trkpt lat="44.16857" lon="5.19902">
        <ele>940.6</ele>
        <time>2022-07-21T05:45:08Z</time>
      </trkpt>
      <trkpt lat="44.16857" lon="5.19903">
        <ele>940.7</ele>
        <time>2022-07-21T05:45:09Z</time>
      </trkpt>
      <trkpt lat="44.16857" lon="5.19908">
        <ele>941</ele>
        <time>2022-07-21T05:45:10Z</time>
      </trkpt>
      <trkpt lat="44.16857" lon="5.19909">
        <ele>941.1</ele>
        <time>2022-07-21T05:45:11Z</time>
      </trkpt>
      <trkpt lat="44.16858" lon="5.19913">
        <ele>941.4</ele>
        <time>2022-07-21T05:45:12Z</time>
      </trkpt>
      <trkpt lat="44.16858" lon="5.19915">
        <ele>941.5</ele>
        <time>2022-07-21T05:45:13Z</time>
      </trkpt>
      <trkpt lat="44.16858" lon="5.19919">
        <ele>941.8</ele>
        <time>2022-07-21T05:45:14Z</time>
      </trkpt>
      <trkpt lat="44.16859" lon="5.1992">
        <ele>941.9</ele>
        <time>2022-07-21T05:45:15Z</time>
      </trkpt>
      <trkpt lat="44.16859" lon="5.19924">
        <ele>942.2</ele>
        <time>2022-07-21T05:45:16Z</time>
      </trkpt>
      <trkpt lat="44.16859" lon="5.19925">
        <ele>942.2</ele>
        <time>2022-07-21T05:45:17Z</time>
      </trkpt>
      <trkpt lat="44.16859" lon="5.19927">
        <ele>942.4</ele>
        <time>2022-07-21T05:45:18Z</time>
      </trkpt>
      <trkpt lat="44.16859" lon="5.1993">
        <ele>942.6</ele>
        <time>2022-07-21T05:45:19Z</time>
      </trkpt>
      <trkpt lat="44.1686" lon="5.19932">
        <ele>942.7</ele>
        <time>2022-07-21T05:45:20Z</time>
      </trkpt>
      <trkpt lat="44.1686" lon="5.19934">
        <ele>942.9</ele>
        <time>2022-07-21T05:45:21Z</time>
      </trkpt>
      <trkpt lat="44.1686" lon="5.19938">
        <ele>943.2</ele>
        <time>2022-07-21T05:45:22Z</time>
      </trkpt>
      <trkpt lat="44.1686" lon="5.19939">
        <ele>943.3</ele>
        <time>2022-07-21T05:45:23Z</time>
      </trkpt>
      <trkpt lat="44.16861" lon="5.19943">
        <ele>943.6</ele>
        <time>2022-07-21T05:45:24Z</time>
      </trkpt>
      <trkpt lat="44.16861" lon="5.19945">
        <ele>943.7</ele>
        <time>2022-07-21T05:45:25Z</time>
      </trkpt>
      <trkpt lat="44.16861" lon="5.19947">
        <ele>943.8</ele>
        <time>2022-07-21T05:45:26Z</time>
      </trkpt>
      <trkpt lat="44.16862" lon="5.19949">
        <ele>944</ele>
        <time>2022-07-21T05:45:27Z</time>
      </trkpt>
      <trkpt lat="44.16862" lon="5.19952">
        <ele>944.2</ele>
        <time>2022-07-21T05:45:28Z</time>
      </trkpt>
      <trkpt lat="44.16863" lon="5.19954">
        <ele>944.4</ele>
        <time>2022-07-21T05:45:29Z</time>
      </trkpt>
      <trkpt lat="44.16863" lon="5.19957">
        <ele>944.6</ele>
        <time>2022-07-21T05:45:30Z</time>
      </trkpt>
      <trkpt lat="44.16864" lon="5.19959">
        <ele>944.8</ele>
        <time>2022-07-21T05:45:31Z</time>
      </trkpt>
      <trkpt lat="44.16865" lon="5.19963">
        <ele>945.1</ele>
        <time>2022-07-21T05:45:32Z</time>
      </trkpt>
      <trkpt lat="44.16865" lon="5.19964">
        <ele>945.2</ele>
        <time>2022-07-21T05:45:33Z</time>
      </trkpt>
      <trkpt lat="44.16866" lon="5.19968">
        <ele>945.4</ele>
        <time>2022-07-21T05:45:34Z</time>
      </trkpt>
      <trkpt lat="44.16866" lon="5.19969">
        <ele>945.5</ele>
        <time>2022-07-21T05:45:35Z</time>
      </trkpt>
      <trkpt lat="44.16867" lon="5.19971">
        <ele>945.7</ele>
        <time>2022-07-21T05:45:36Z</time>
      </trkpt>
      <trkpt lat="44.16868" lon="5.19973">
        <ele>945.9</ele>
        <time>2022-07-21T05:45:37Z</time>
      </trkpt>
      <trkpt lat="44.16869" lon="5.19977">
        <ele>946.1</ele>
        <time>2022-07-21T05:45:38Z</time>
      </trkpt>
      <trkpt lat="44.16869" lon="5.19978">
        <ele>946.2</ele>
        <time>2022-07-21T05:45:39Z</time>
      </trkpt>
      <trkpt lat="44.16871" lon="5.19982">
        <ele>946.5</ele>
        <time>2022-07-21T05:45:40Z</time>
      </trkpt>
      <trkpt lat="44.16871" lon="5.19983">
        <ele>946.6</ele>
        <time>2022-07-21T05:45:41Z</time>
      </trkpt>
      <trkpt lat="44.16872" lon="5.19985">
        <ele>946.8</ele>
        <time>2022-07-21T05:45:42Z</time>
      </trkpt>
      <trkpt lat="44.16873" lon="5.19987">
        <ele>947</ele>
        <time>2022-07-21T05:45:43Z</time>
      </trkpt>
      <trkpt lat="44.16874" lon="5.19989">
        <ele>947.1</ele>
        <time>2022-07-21T05:45:44Z</time>
      </trkpt>
      <trkpt lat="44.16875" lon="5.19991">
        <ele>947.3</ele>
        <time>2022-07-21T05:45:45Z</time>
      </trkpt>
      <trkpt lat="44.16876" lon="5.19993">
        <ele>947.5</ele>
        <time>2022-07-21T05:45:46Z</time>
      </trkpt>
      <trkpt lat="44.16877" lon="5.19995">
        <ele>947.6</ele>
        <time>2022-07-21T05:45:47Z</time>
      </trkpt>
      <trkpt lat="44.16878" lon="5.19998">
        <ele>947.9</ele>
        <time>2022-07-21T05:45:48Z</time>
      </trkpt>
      <trkpt lat="44.16879" lon="5.19999">
        <ele>948</ele>
        <time>2022-07-21T05:45:49Z</time>
      </trkpt>
      <trkpt lat="44.1688" lon="5.20002">
        <ele>948.3</ele>
        <time>2022-07-21T05:45:50Z</time>
      </trkpt>
      <trkpt lat="44.16881" lon="5.20004">
        <ele>948.4</ele>
        <time>2022-07-21T05:45:51Z</time>
      </trkpt>
      <trkpt lat="44.16883" lon="5.20007">
        <ele>948.7</ele>
        <time>2022-07-21T05:45:52Z</time>
      </trkpt>
      <trkpt lat="44.16883" lon="5.20008">
        <ele>948.8</ele>
        <time>2022-07-21T05:45:53Z</time>
      </trkpt>
      <trkpt lat="44.16884" lon="5.20009">
        <ele>949</ele>
        <time>2022-07-21T05:45:54Z</time>
      </trkpt>
      <trkpt lat="44.16885" lon="5.20011">
        <ele>949.1</ele>
        <time>2022-07-21T05:45:55Z</time>
      </trkpt>
      <trkpt lat="44.16886" lon="5.20013">
        <ele>949.3</ele>
        <time>2022-07-21T05:45:56Z</time>
      </trkpt>
      <trkpt lat="44.16887" lon="5.20015">
        <ele>949.5</ele>
        <time>2022-07-21T05:45:57Z</time>
      </trkpt>
      <trkpt lat="44.16889" lon="5.20019">
        <ele>949.8</ele>
        <time>2022-07-21T05:45:58Z</time>
      </trkpt>
      <trkpt lat="44.1689" lon="5.2002">
        <ele>949.9</ele>
        <time>2022-07-21T05:45:59Z</time>
      </trkpt>
      <trkpt lat="44.16891" lon="5.20021">
        <ele>950.1</ele>
        <time>2022-07-21T05:46:00Z</time>
      </trkpt>
      <trkpt lat="44.16893" lon="5.20023">
        <ele>950.2</ele>
        <time>2022-07-21T05:46:01Z</time>
      </trkpt>
      <trkpt lat="44.16895" lon="5.20026">
        <ele>950.5</ele>
        <time>2022-07-21T05:46:02Z</time>
      </trkpt>
      <trkpt lat="44.16895" lon="5.20027">
        <ele>950.6</ele>
        <time>2022-07-21T05:46:03Z</time>
      </trkpt>
      <trkpt lat="44.16897" lon="5.2003">
        <ele>950.9</ele>
        <time>2022-07-21T05:46:04Z</time>
      </trkpt>
      <trkpt lat="44.16898" lon="5.20031">
        <ele>951</ele>
        <time>2022-07-21T05:46:05Z</time>
      </trkpt>
      <trkpt lat="44.169" lon="5.20033">
        <ele>951.2</ele>
        <time>2022-07-21T05:46:06Z</time>
      </trkpt>
      <trkpt lat="44.169" lon="5.20034">
        <ele>951.3</ele>
        <time>2022-07-21T05:46:07Z</time>
      </trkpt>
      <trkpt lat="44.16902" lon="5.20037">
        <ele>951.6</ele>
        <time>2022-07-21T05:46:08Z</time>
      </trkpt>
      <trkpt lat="44.16903" lon="5.20038">
        <ele>951.7</ele>
        <time>2022-07-21T05:46:09Z</time>
      </trkpt>
      <trkpt lat="44.16904" lon="5.20039">
        <ele>951.8</ele>
        <time>2022-07-21T05:46:10Z</time>
      </trkpt>
      <trkpt lat="44.16905" lon="5.20041">
        <ele>952</ele>
        <time>2022-07-21T05:46:11Z</time>
      </trkpt>
      <trkpt lat="44.16906" lon="5.20044">
        <ele>952.2</ele>
        <time>2022-07-21T05:46:12Z</time>
      </trkpt>
      <trkpt lat="44.16907" lon="5.20046">
        <ele>952.3</ele>
        <time>2022-07-21T05:46:13Z</time>
      </trkpt>
      <trkpt lat="44.16909" lon="5.20049">
        <ele>952.6</ele>
        <time>2022-07-21T05:46:14Z</time>
      </trkpt>
      <trkpt lat="44.1691" lon="5.20049">
        <ele>952.7</ele>
        <time>2022-07-21T05:46:15Z</time>
      </trkpt>
      <trkpt lat="44.16912" lon="5.20052">
        <ele>953</ele>
        <time>2022-07-21T05:46:16Z</time>
      </trkpt>
      <trkpt lat="44.16913" lon="5.20053">
        <ele>953.1</ele>
        <time>2022-07-21T05:46:17Z</time>
      </trkpt>
      <trkpt lat="44.16915" lon="5.20056">
        <ele>953.4</ele>
        <time>2022-07-21T05:46:18Z</time>
      </trkpt>
      <trkpt lat="44.16916" lon="5.20057">
        <ele>953.5</ele>
        <time>2022-07-21T05:46:19Z</time>
      </trkpt>
      <trkpt lat="44.16918" lon="5.2006">
        <ele>953.8</ele>
        <time>2022-07-21T05:46:20Z</time>
      </trkpt>
      <trkpt lat="44.16919" lon="5.20061">
        <ele>953.9</ele>
        <time>2022-07-21T05:46:21Z</time>
      </trkpt>
      <trkpt lat="44.16921" lon="5.20064">
        <ele>954.3</ele>
        <time>2022-07-21T05:46:22Z</time>
      </trkpt>
      <trkpt lat="44.16922" lon="5.20065">
        <ele>954.4</ele>
        <time>2022-07-21T05:46:23Z</time>
      </trkpt>
      <trkpt lat="44.16925" lon="5.20068">
        <ele>954.7</ele>
        <time>2022-07-21T05:46:24Z</time>
      </trkpt>
      <trkpt lat="44.16925" lon="5.20069">
        <ele>954.8</ele>
        <time>2022-07-21T05:46:25Z</time>
      </trkpt>
      <trkpt lat="44.16927" lon="5.20071">
        <ele>955</ele>
        <time>2022-07-21T05:46:26Z</time>
      </trkpt>
      <trkpt lat="44.16928" lon="5.20072">
        <ele>955.1</ele>
        <time>2022-07-21T05:46:27Z</time>
      </trkpt>
      <trkpt lat="44.1693" lon="5.20075">
        <ele>955.4</ele>
        <time>2022-07-21T05:46:28Z</time>
      </trkpt>
      <trkpt lat="44.16931" lon="5.20076">
        <ele>955.5</ele>
        <time>2022-07-21T05:46:29Z</time>
      </trkpt>
      <trkpt lat="44.16933" lon="5.20079">
        <ele>955.8</ele>
        <time>2022-07-21T05:46:30Z</time>
      </trkpt>
      <trkpt lat="44.16934" lon="5.20079">
        <ele>955.9</ele>
        <time>2022-07-21T05:46:31Z</time>
      </trkpt>
      <trkpt lat="44.16936" lon="5.20082">
        <ele>956.1</ele>
        <time>2022-07-21T05:46:32Z</time>
      </trkpt>
      <trkpt lat="44.16937" lon="5.20083">
        <ele>956.2</ele>
        <time>2022-07-21T05:46:33Z</time>
      </trkpt>
      <trkpt lat="44.16939" lon="5.20086">
        <ele>956.5</ele>
        <time>2022-07-21T05:46:34Z</time>
      </trkpt>
      <trkpt lat="44.1694" lon="5.20087">
        <ele>956.6</ele>
        <time>2022-07-21T05:46:35Z</time>
      </trkpt>
      <trkpt lat="44.16943" lon="5.20089">
        <ele>956.9</ele>
        <time>2022-07-21T05:46:36Z</time>
      </trkpt>
      <trkpt lat="44.16944" lon="5.20089">
        <ele>957</ele>
        <time>2022-07-21T05:46:37Z</time>
      </trkpt>
      <trkpt lat="44.16947" lon="5.20092">
        <ele>957.3</ele>
        <time>2022-07-21T05:46:38Z</time>
      </trkpt>
      <trkpt lat="44.16948" lon="5.20092">
        <ele>957.3</ele>
        <time>2022-07-21T05:46:39Z</time>
      </trkpt>
      <trkpt lat="44.16951" lon="5.20095">
        <ele>957.6</ele>
        <time>2022-07-21T05:46:40Z</time>
      </trkpt>
      <trkpt lat="44.16952" lon="5.20095">
        <ele>957.7</ele>
        <time>2022-07-21T05:46:41Z</time>
      </trkpt>
      <trkpt lat="44.16954" lon="5.20098">
        <ele>957.9</ele>
        <time>2022-07-21T05:46:42Z</time>
      </trkpt>
      <trkpt lat="44.16955" lon="5.20098">
        <ele>958</ele>
        <time>2022-07-21T05:46:43Z</time>
      </trkpt>
      <trkpt lat="44.16958" lon="5.20101">
        <ele>958.2</ele>
        <time>2022-07-21T05:46:44Z</time>
      </trkpt>
      <trkpt lat="44.16958" lon="5.20101">
        <ele>958.3</ele>
        <time>2022-07-21T05:46:45Z</time>
      </trkpt>
      <trkpt lat="44.16961" lon="5.20103">
        <ele>958.5</ele>
        <time>2022-07-21T05:46:46Z</time>
      </trkpt>
      <trkpt lat="44.16962" lon="5.20103">
        <ele>958.5</ele>
        <time>2022-07-21T05:46:47Z</time>
      </trkpt>
      <trkpt lat="44.16964" lon="5.20105">
        <ele>958.7</ele>
        <time>2022-07-21T05:46:48Z</time>
      </trkpt>
      <trkpt lat="44.16965" lon="5.20106">
        <ele>958.8</ele>
        <time>2022-07-21T05:46:49Z</time>
      </trkpt>
      <trkpt lat="44.16967" lon="5.20107">
        <ele>958.9</ele>
        <time>2022-07-21T05:46:50Z</time>
      </trkpt>
      <trkpt lat="44.16968" lon="5.20108">
        <ele>959.1</ele>
        <time>2022-07-21T05:46:51Z</time>
      </trkpt>
      <trkpt lat="44.16971" lon="5.20109">
        <ele>959.3</ele>
        <time>2022-07-21T05:46:52Z</time>
      </trkpt>
      <trkpt lat="44.16972" lon="5.2011">
        <ele>959.3</ele>
        <time>2022-07-21T05:46:53Z</time>
      </trkpt>
      <trkpt lat="44.16975" lon="5.20111">
        <ele>959.5</ele>
        <time>2022-07-21T05:46:54Z</time>
      </trkpt>
      <trkpt lat="44.16976" lon="5.20112">
        <ele>959.6</ele>
        <time>2022-07-21T05:46:55Z</time>
      </trkpt>
      <trkpt lat="44.16978" lon="5.20114">
        <ele>959.8</ele>
        <time>2022-07-21T05:46:56Z</time>
      </trkpt>
      <trkpt lat="44.16979" lon="5.20114">
        <ele>959.8</ele>
        <time>2022-07-21T05:46:57Z</time>
      </trkpt>
      <trkpt lat="44.16982" lon="5.20115">
        <ele>960</ele>
        <time>2022-07-21T05:46:58Z</time>
      </trkpt>
      <trkpt lat="44.16983" lon="5.20116">
        <ele>960.1</ele>
        <time>2022-07-21T05:46:59Z</time>
      </trkpt>
      <trkpt lat="44.16984" lon="5.20116">
        <ele>960.2</ele>
        <time>2022-07-21T05:47:00Z</time>
      </trkpt>
      <trkpt lat="44.16986" lon="5.20117">
        <ele>960.3</ele>
        <time>2022-07-21T05:47:01Z</time>
      </trkpt>
      <trkpt lat="44.16989" lon="5.20118">
        <ele>960.5</ele>
        <time>2022-07-21T05:47:02Z</time>
      </trkpt>
      <trkpt lat="44.1699" lon="5.20118">
        <ele>960.6</ele>
        <time>2022-07-21T05:47:03Z</time>
      </trkpt>
      <trkpt lat="44.16993" lon="5.20119">
        <ele>960.8</ele>
        <time>2022-07-21T05:47:04Z</time>
      </trkpt>
      <trkpt lat="44.16994" lon="5.2012">
        <ele>960.8</ele>
        <time>2022-07-21T05:47:05Z</time>
      </trkpt>
      <trkpt lat="44.16997" lon="5.20121">
        <ele>961</ele>
        <time>2022-07-21T05:47:06Z</time>
      </trkpt>
      <trkpt lat="44.16998" lon="5.20121">
        <ele>961.1</ele>
        <time>2022-07-21T05:47:07Z</time>
      </trkpt>
      <trkpt lat="44.17001" lon="5.20122">
        <ele>961.3</ele>
        <time>2022-07-21T05:47:08Z</time>
      </trkpt>
      <trkpt lat="44.17002" lon="5.20123">
        <ele>961.4</ele>
        <time>2022-07-21T05:47:09Z</time>
      </trkpt>
      <trkpt lat="44.17004" lon="5.20124">
        <ele>961.5</ele>
        <time>2022-07-21T05:47:10Z</time>
      </trkpt>
      <trkpt lat="44.17005" lon="5.20125">
        <ele>961.6</ele>
        <time>2022-07-21T05:47:11Z</time>
      </trkpt>
      <trkpt lat="44.17008" lon="5.20127">
        <ele>961.8</ele>
        <time>2022-07-21T05:47:12Z</time>
      </trkpt>
      <trkpt lat="44.17009" lon="5.20127">
        <ele>961.8</ele>
        <time>2022-07-21T05:47:13Z</time>
      </trkpt>
      <trkpt lat="44.17011" lon="5.20129">
        <ele>962</ele>
        <time>2022-07-21T05:47:14Z</time>
      </trkpt>
      <trkpt lat="44.17012" lon="5.20129">
        <ele>962.1</ele>
        <time>2022-07-21T05:47:15Z</time>
      </trkpt>
      <trkpt lat="44.17015" lon="5.2013">
        <ele>962.3</ele>
        <time>2022-07-21T05:47:16Z</time>
      </trkpt>
      <trkpt lat="44.17016" lon="5.20131">
        <ele>962.4</ele>
        <time>2022-07-21T05:47:17Z</time>
      </trkpt>
      <trkpt lat="44.17019" lon="5.20131">
        <ele>962.6</ele>
        <time>2022-07-21T05:47:18Z</time>
      </trkpt>
      <trkpt lat="44.1702" lon="5.20132">
        <ele>962.6</ele>
        <time>2022-07-21T05:47:19Z</time>
      </trkpt>
      <trkpt lat="44.17023" lon="5.20132">
        <ele>962.8</ele>
        <time>2022-07-21T05:47:20Z</time>
      </trkpt>
      <trkpt lat="44.17024" lon="5.20133">
        <ele>962.9</ele>
        <time>2022-07-21T05:47:21Z</time>
      </trkpt>
      <trkpt lat="44.17027" lon="5.20134">
        <ele>963.1</ele>
        <time>2022-07-21T05:47:22Z</time>
      </trkpt>
      <trkpt lat="44.17028" lon="5.20134">
        <ele>963.1</ele>
        <time>2022-07-21T05:47:23Z</time>
      </trkpt>
      <trkpt lat="44.17031" lon="5.20136">
        <ele>963.3</ele>
        <time>2022-07-21T05:47:24Z</time>
      </trkpt>
      <trkpt lat="44.17032" lon="5.20137">
        <ele>963.4</ele>
        <time>2022-07-21T05:47:25Z</time>
      </trkpt>
      <trkpt lat="44.17035" lon="5.20138">
        <ele>963.6</ele>
        <time>2022-07-21T05:47:26Z</time>
      </trkpt>
      <trkpt lat="44.17036" lon="5.20138">
        <ele>963.7</ele>
        <time>2022-07-21T05:47:27Z</time>
      </trkpt>
      <trkpt lat="44.17039" lon="5.2014">
        <ele>963.8</ele>
        <time>2022-07-21T05:47:28Z</time>
      </trkpt>
      <trkpt lat="44.17039" lon="5.2014">
        <ele>963.9</ele>
        <time>2022-07-21T05:47:29Z</time>
      </trkpt>
      <trkpt lat="44.17042" lon="5.20142">
        <ele>964.1</ele>
        <time>2022-07-21T05:47:30Z</time>
      </trkpt>
      <trkpt lat="44.17044" lon="5.20142">
        <ele>964.2</ele>
        <time>2022-07-21T05:47:31Z</time>
      </trkpt>
      <trkpt lat="44.17047" lon="5.20144">
        <ele>964.4</ele>
        <time>2022-07-21T05:47:32Z</time>
      </trkpt>
      <trkpt lat="44.17048" lon="5.20145">
        <ele>964.5</ele>
        <time>2022-07-21T05:47:33Z</time>
      </trkpt>
      <trkpt lat="44.1705" lon="5.20147">
        <ele>964.7</ele>
        <time>2022-07-21T05:47:34Z</time>
      </trkpt>
      <trkpt lat="44.17051" lon="5.20148">
        <ele>964.7</ele>
        <time>2022-07-21T05:47:35Z</time>
      </trkpt>
      <trkpt lat="44.17054" lon="5.20151">
        <ele>964.9</ele>
        <time>2022-07-21T05:47:36Z</time>
      </trkpt>
      <trkpt lat="44.17055" lon="5.20152">
        <ele>965</ele>
        <time>2022-07-21T05:47:37Z</time>
      </trkpt>
      <trkpt lat="44.17057" lon="5.20154">
        <ele>965.2</ele>
        <time>2022-07-21T05:47:38Z</time>
      </trkpt>
      <trkpt lat="44.17058" lon="5.20155">
        <ele>965.3</ele>
        <time>2022-07-21T05:47:39Z</time>
      </trkpt>
      <trkpt lat="44.17061" lon="5.20157">
        <ele>965.5</ele>
        <time>2022-07-21T05:47:40Z</time>
      </trkpt>
      <trkpt lat="44.17061" lon="5.20158">
        <ele>965.5</ele>
        <time>2022-07-21T05:47:41Z</time>
      </trkpt>
      <trkpt lat="44.17064" lon="5.20161">
        <ele>965.8</ele>
        <time>2022-07-21T05:47:42Z</time>
      </trkpt>
      <trkpt lat="44.17065" lon="5.20162">
        <ele>965.8</ele>
        <time>2022-07-21T05:47:43Z</time>
      </trkpt>
      <trkpt lat="44.17068" lon="5.20166">
        <ele>966</ele>
        <time>2022-07-21T05:47:44Z</time>
      </trkpt>
      <trkpt lat="44.17069" lon="5.20167">
        <ele>966</ele>
        <time>2022-07-21T05:47:45Z</time>
      </trkpt>
      <trkpt lat="44.17071" lon="5.2017">
        <ele>966.1</ele>
        <time>2022-07-21T05:47:46Z</time>
      </trkpt>
      <trkpt lat="44.17072" lon="5.20172">
        <ele>966.1</ele>
        <time>2022-07-21T05:47:47Z</time>
      </trkpt>
      <trkpt lat="44.17074" lon="5.20175">
        <ele>966.1</ele>
        <time>2022-07-21T05:47:48Z</time>
      </trkpt>
      <trkpt lat="44.17075" lon="5.20177">
        <ele>966.1</ele>
        <time>2022-07-21T05:47:49Z</time>
      </trkpt>
      <trkpt lat="44.17079" lon="5.20183">
        <ele>966.2</ele>
        <time>2022-07-21T05:47:51Z</time>
      </trkpt>
      <trkpt lat="44.17079" lon="5.20184">
        <ele>966.2</ele>
        <time>2022-07-21T05:47:52Z</time>
      </trkpt>
      <trkpt lat="44.17081" lon="5.20188">
        <ele>966.1</ele>
        <time>2022-07-21T05:47:53Z</time>
      </trkpt>
      <trkpt lat="44.17082" lon="5.20189">
        <ele>966.1</ele>
        <time>2022-07-21T05:47:54Z</time>
      </trkpt>
      <trkpt lat="44.17083" lon="5.20193">
        <ele>966.1</ele>
        <time>2022-07-21T05:47:55Z</time>
      </trkpt>
      <trkpt lat="44.17084" lon="5.20195">
        <ele>966</ele>
        <time>2022-07-21T05:47:56Z</time>
      </trkpt>
      <trkpt lat="44.17086" lon="5.20199">
        <ele>966</ele>
        <time>2022-07-21T05:47:57Z</time>
      </trkpt>
      <trkpt lat="44.17086" lon="5.202">
        <ele>965.9</ele>
        <time>2022-07-21T05:47:58Z</time>
      </trkpt>
      <trkpt lat="44.17087" lon="5.20203">
        <ele>965.9</ele>
        <time>2022-07-21T05:47:59Z</time>
      </trkpt>
      <trkpt lat="44.17088" lon="5.20205">
        <ele>965.9</ele>
        <time>2022-07-21T05:48:00Z</time>
      </trkpt>
      <trkpt lat="44.17088" lon="5.20209">
        <ele>966.1</ele>
        <time>2022-07-21T05:48:01Z</time>
      </trkpt>
      <trkpt lat="44.17089" lon="5.2021">
        <ele>966.1</ele>
        <time>2022-07-21T05:48:02Z</time>
      </trkpt>
      <trkpt lat="44.17089" lon="5.20214">
        <ele>966.3</ele>
        <time>2022-07-21T05:48:03Z</time>
      </trkpt>
      <trkpt lat="44.1709" lon="5.20215">
        <ele>966.4</ele>
        <time>2022-07-21T05:48:04Z</time>
      </trkpt>
      <trkpt lat="44.1709" lon="5.20217">
        <ele>966.5</ele>
        <time>2022-07-21T05:48:05Z</time>
      </trkpt>
      <trkpt lat="44.1709" lon="5.2022">
        <ele>966.6</ele>
        <time>2022-07-21T05:48:06Z</time>
      </trkpt>
      <trkpt lat="44.1709" lon="5.20222">
        <ele>966.7</ele>
        <time>2022-07-21T05:48:07Z</time>
      </trkpt>
      <trkpt lat="44.17091" lon="5.20224">
        <ele>966.8</ele>
        <time>2022-07-21T05:48:08Z</time>
      </trkpt>
      <trkpt lat="44.17091" lon="5.20226">
        <ele>966.9</ele>
        <time>2022-07-21T05:48:09Z</time>
      </trkpt>
      <trkpt lat="44.17091" lon="5.20229">
        <ele>967</ele>
        <time>2022-07-21T05:48:10Z</time>
      </trkpt>
      <trkpt lat="44.17091" lon="5.20231">
        <ele>967.2</ele>
        <time>2022-07-21T05:48:11Z</time>
      </trkpt>
      <trkpt lat="44.17091" lon="5.20233">
        <ele>967.3</ele>
        <time>2022-07-21T05:48:12Z</time>
      </trkpt>
      <trkpt lat="44.1709" lon="5.20235">
        <ele>967.4</ele>
        <time>2022-07-21T05:48:13Z</time>
      </trkpt>
      <trkpt lat="44.1709" lon="5.20237">
        <ele>967.5</ele>
        <time>2022-07-21T05:48:14Z</time>
      </trkpt>
      <trkpt lat="44.1709" lon="5.2024">
        <ele>967.6</ele>
        <time>2022-07-21T05:48:15Z</time>
      </trkpt>
      <trkpt lat="44.1709" lon="5.20242">
        <ele>967.7</ele>
        <time>2022-07-21T05:48:16Z</time>
      </trkpt>
      <trkpt lat="44.1709" lon="5.20244">
        <ele>967.9</ele>
        <time>2022-07-21T05:48:17Z</time>
      </trkpt>
      <trkpt lat="44.1709" lon="5.20246">
        <ele>968</ele>
        <time>2022-07-21T05:48:18Z</time>
      </trkpt>
      <trkpt lat="44.1709" lon="5.20249">
        <ele>968.1</ele>
        <time>2022-07-21T05:48:19Z</time>
      </trkpt>
      <trkpt lat="44.1709" lon="5.20251">
        <ele>968.2</ele>
        <time>2022-07-21T05:48:20Z</time>
      </trkpt>
      <trkpt lat="44.1709" lon="5.20253">
        <ele>968.3</ele>
        <time>2022-07-21T05:48:21Z</time>
      </trkpt>
      <trkpt lat="44.1709" lon="5.20255">
        <ele>968.4</ele>
        <time>2022-07-21T05:48:22Z</time>
      </trkpt>
      <trkpt lat="44.1709" lon="5.20257">
        <ele>968.6</ele>
        <time>2022-07-21T05:48:23Z</time>
      </trkpt>
      <trkpt lat="44.1709" lon="5.20259">
        <ele>968.7</ele>
        <time>2022-07-21T05:48:24Z</time>
      </trkpt>
      <trkpt lat="44.17089" lon="5.20261">
        <ele>968.8</ele>
        <time>2022-07-21T05:48:25Z</time>
      </trkpt>
      <trkpt lat="44.17089" lon="5.20263">
        <ele>968.9</ele>
        <time>2022-07-21T05:48:26Z</time>
      </trkpt>
      <trkpt lat="44.17088" lon="5.20265">
        <ele>969</ele>
        <time>2022-07-21T05:48:27Z</time>
      </trkpt>
      <trkpt lat="44.17088" lon="5.20266">
        <ele>969.1</ele>
        <time>2022-07-21T05:48:28Z</time>
      </trkpt>
      <trkpt lat="44.17087" lon="5.20269">
        <ele>969.3</ele>
        <time>2022-07-21T05:48:29Z</time>
      </trkpt>
      <trkpt lat="44.17087" lon="5.20271">
        <ele>969.6</ele>
        <time>2022-07-21T05:48:30Z</time>
      </trkpt>
      <trkpt lat="44.17087" lon="5.20272">
        <ele>969.7</ele>
        <time>2022-07-21T05:48:31Z</time>
      </trkpt>
      <trkpt lat="44.17086" lon="5.20274">
        <ele>969.8</ele>
        <time>2022-07-21T05:48:32Z</time>
      </trkpt>
      <trkpt lat="44.17086" lon="5.20276">
        <ele>970</ele>
        <time>2022-07-21T05:48:33Z</time>
      </trkpt>
      <trkpt lat="44.17086" lon="5.20277">
        <ele>970.1</ele>
        <time>2022-07-21T05:48:34Z</time>
      </trkpt>
      <trkpt lat="44.17086" lon="5.2028">
        <ele>970.3</ele>
        <time>2022-07-21T05:48:35Z</time>
      </trkpt>
      <trkpt lat="44.17086" lon="5.20282">
        <ele>970.4</ele>
        <time>2022-07-21T05:48:36Z</time>
      </trkpt>
      <trkpt lat="44.17085" lon="5.20284">
        <ele>970.6</ele>
        <time>2022-07-21T05:48:37Z</time>
      </trkpt>
      <trkpt lat="44.17084" lon="5.20287">
        <ele>970.9</ele>
        <time>2022-07-21T05:48:39Z</time>
      </trkpt>
      <trkpt lat="44.17084" lon="5.20289">
        <ele>971</ele>
        <time>2022-07-21T05:48:40Z</time>
      </trkpt>
      <trkpt lat="44.17083" lon="5.20291">
        <ele>971.2</ele>
        <time>2022-07-21T05:48:41Z</time>
      </trkpt>
      <trkpt lat="44.17083" lon="5.20293">
        <ele>971.3</ele>
        <time>2022-07-21T05:48:42Z</time>
      </trkpt>
      <trkpt lat="44.17082" lon="5.20296">
        <ele>971.5</ele>
        <time>2022-07-21T05:48:43Z</time>
      </trkpt>
      <trkpt lat="44.17082" lon="5.20297">
        <ele>971.6</ele>
        <time>2022-07-21T05:48:44Z</time>
      </trkpt>
      <trkpt lat="44.17081" lon="5.20298">
        <ele>971.7</ele>
        <time>2022-07-21T05:48:45Z</time>
      </trkpt>
      <trkpt lat="44.17081" lon="5.203">
        <ele>971.9</ele>
        <time>2022-07-21T05:48:46Z</time>
      </trkpt>
      <trkpt lat="44.1708" lon="5.20301">
        <ele>972</ele>
        <time>2022-07-21T05:48:47Z</time>
      </trkpt>
      <trkpt lat="44.1708" lon="5.20303">
        <ele>972.2</ele>
        <time>2022-07-21T05:48:48Z</time>
      </trkpt>
      <trkpt lat="44.17079" lon="5.20305">
        <ele>972.3</ele>
        <time>2022-07-21T05:48:49Z</time>
      </trkpt>
      <trkpt lat="44.17079" lon="5.20307">
        <ele>972.5</ele>
        <time>2022-07-21T05:48:50Z</time>
      </trkpt>
      <trkpt lat="44.17078" lon="5.20309">
        <ele>972.7</ele>
        <time>2022-07-21T05:48:51Z</time>
      </trkpt>
      <trkpt lat="44.17077" lon="5.20315">
        <ele>973.1</ele>
        <time>2022-07-21T05:48:53Z</time>
      </trkpt>
      <trkpt lat="44.17077" lon="5.20316">
        <ele>973.2</ele>
        <time>2022-07-21T05:48:54Z</time>
      </trkpt>
      <trkpt lat="44.17076" lon="5.20317">
        <ele>973.3</ele>
        <time>2022-07-21T05:48:55Z</time>
      </trkpt>
      <trkpt lat="44.17076" lon="5.20319">
        <ele>973.5</ele>
        <time>2022-07-21T05:48:56Z</time>
      </trkpt>
      <trkpt lat="44.17075" lon="5.20321">
        <ele>973.7</ele>
        <time>2022-07-21T05:48:57Z</time>
      </trkpt>
      <trkpt lat="44.17075" lon="5.20323">
        <ele>973.8</ele>
        <time>2022-07-21T05:48:58Z</time>
      </trkpt>
      <trkpt lat="44.17075" lon="5.20325">
        <ele>974</ele>
        <time>2022-07-21T05:48:59Z</time>
      </trkpt>
      <trkpt lat="44.17074" lon="5.20327">
        <ele>974.1</ele>
        <time>2022-07-21T05:49:00Z</time>
      </trkpt>
      <trkpt lat="44.17074" lon="5.20329">
        <ele>974.3</ele>
        <time>2022-07-21T05:49:01Z</time>
      </trkpt>
      <trkpt lat="44.17073" lon="5.20331">
        <ele>974.5</ele>
        <time>2022-07-21T05:49:02Z</time>
      </trkpt>
      <trkpt lat="44.17073" lon="5.20332">
        <ele>974.6</ele>
        <time>2022-07-21T05:49:03Z</time>
      </trkpt>
      <trkpt lat="44.17072" lon="5.20333">
        <ele>974.8</ele>
        <time>2022-07-21T05:49:04Z</time>
      </trkpt>
      <trkpt lat="44.17071" lon="5.20335">
        <ele>974.9</ele>
        <time>2022-07-21T05:49:05Z</time>
      </trkpt>
      <trkpt lat="44.1707" lon="5.20336">
        <ele>975.1</ele>
        <time>2022-07-21T05:49:06Z</time>
      </trkpt>
      <trkpt lat="44.1707" lon="5.20338">
        <ele>975.2</ele>
        <time>2022-07-21T05:49:07Z</time>
      </trkpt>
      <trkpt lat="44.17069" lon="5.20339">
        <ele>975.4</ele>
        <time>2022-07-21T05:49:08Z</time>
      </trkpt>
      <trkpt lat="44.17068" lon="5.20342">
        <ele>975.7</ele>
        <time>2022-07-21T05:49:09Z</time>
      </trkpt>
      <trkpt lat="44.17068" lon="5.20343">
        <ele>975.8</ele>
        <time>2022-07-21T05:49:10Z</time>
      </trkpt>
      <trkpt lat="44.17068" lon="5.20344">
        <ele>975.9</ele>
        <time>2022-07-21T05:49:11Z</time>
      </trkpt>
      <trkpt lat="44.17067" lon="5.20347">
        <ele>976.1</ele>
        <time>2022-07-21T05:49:12Z</time>
      </trkpt>
      <trkpt lat="44.17067" lon="5.20348">
        <ele>976.2</ele>
        <time>2022-07-21T05:49:13Z</time>
      </trkpt>
      <trkpt lat="44.17066" lon="5.2035">
        <ele>976.4</ele>
        <time>2022-07-21T05:49:14Z</time>
      </trkpt>
      <trkpt lat="44.17066" lon="5.20352">
        <ele>976.6</ele>
        <time>2022-07-21T05:49:15Z</time>
      </trkpt>
      <trkpt lat="44.17065" lon="5.20354">
        <ele>976.7</ele>
        <time>2022-07-21T05:49:16Z</time>
      </trkpt>
      <trkpt lat="44.17065" lon="5.20356">
        <ele>976.9</ele>
        <time>2022-07-21T05:49:17Z</time>
      </trkpt>
      <trkpt lat="44.17065" lon="5.20358">
        <ele>977.2</ele>
        <time>2022-07-21T05:49:18Z</time>
      </trkpt>
      <trkpt lat="44.17065" lon="5.20361">
        <ele>977.4</ele>
        <time>2022-07-21T05:49:19Z</time>
      </trkpt>
      <trkpt lat="44.17064" lon="5.20363">
        <ele>977.6</ele>
        <time>2022-07-21T05:49:20Z</time>
      </trkpt>
      <trkpt lat="44.17064" lon="5.20367">
        <ele>978</ele>
        <time>2022-07-21T05:49:21Z</time>
      </trkpt>
      <trkpt lat="44.17064" lon="5.20368">
        <ele>978.1</ele>
        <time>2022-07-21T05:49:22Z</time>
      </trkpt>
      <trkpt lat="44.17064" lon="5.2037">
        <ele>978.3</ele>
        <time>2022-07-21T05:49:23Z</time>
      </trkpt>
      <trkpt lat="44.17063" lon="5.20372">
        <ele>978.5</ele>
        <time>2022-07-21T05:49:24Z</time>
      </trkpt>
      <trkpt lat="44.17063" lon="5.20374">
        <ele>978.7</ele>
        <time>2022-07-21T05:49:25Z</time>
      </trkpt>
      <trkpt lat="44.17062" lon="5.20376">
        <ele>978.9</ele>
        <time>2022-07-21T05:49:26Z</time>
      </trkpt>
      <trkpt lat="44.17062" lon="5.20378">
        <ele>979.1</ele>
        <time>2022-07-21T05:49:27Z</time>
      </trkpt>
      <trkpt lat="44.17062" lon="5.2038">
        <ele>979.3</ele>
        <time>2022-07-21T05:49:28Z</time>
      </trkpt>
      <trkpt lat="44.17062" lon="5.20383">
        <ele>979.5</ele>
        <time>2022-07-21T05:49:29Z</time>
      </trkpt>
      <trkpt lat="44.17062" lon="5.20385">
        <ele>979.7</ele>
        <time>2022-07-21T05:49:30Z</time>
      </trkpt>
      <trkpt lat="44.17061" lon="5.20387">
        <ele>979.9</ele>
        <time>2022-07-21T05:49:31Z</time>
      </trkpt>
      <trkpt lat="44.17061" lon="5.20389">
        <ele>980.2</ele>
        <time>2022-07-21T05:49:32Z</time>
      </trkpt>
      <trkpt lat="44.17061" lon="5.20392">
        <ele>980.4</ele>
        <time>2022-07-21T05:49:33Z</time>
      </trkpt>
      <trkpt lat="44.17061" lon="5.20394">
        <ele>980.7</ele>
        <time>2022-07-21T05:49:34Z</time>
      </trkpt>
      <trkpt lat="44.17061" lon="5.20397">
        <ele>980.9</ele>
        <time>2022-07-21T05:49:35Z</time>
      </trkpt>
      <trkpt lat="44.17061" lon="5.20399">
        <ele>981.2</ele>
        <time>2022-07-21T05:49:36Z</time>
      </trkpt>
      <trkpt lat="44.1706" lon="5.20401">
        <ele>981.4</ele>
        <time>2022-07-21T05:49:37Z</time>
      </trkpt>
      <trkpt lat="44.1706" lon="5.20403">
        <ele>981.6</ele>
        <time>2022-07-21T05:49:38Z</time>
      </trkpt>
      <trkpt lat="44.1706" lon="5.20406">
        <ele>981.9</ele>
        <time>2022-07-21T05:49:39Z</time>
      </trkpt>
      <trkpt lat="44.17059" lon="5.20407">
        <ele>982.1</ele>
        <time>2022-07-21T05:49:40Z</time>
      </trkpt>
      <trkpt lat="44.17059" lon="5.20408">
        <ele>982.2</ele>
        <time>2022-07-21T05:49:41Z</time>
      </trkpt>
      <trkpt lat="44.17059" lon="5.20411">
        <ele>982.4</ele>
        <time>2022-07-21T05:49:42Z</time>
      </trkpt>
      <trkpt lat="44.17059" lon="5.20412">
        <ele>982.6</ele>
        <time>2022-07-21T05:49:43Z</time>
      </trkpt>
      <trkpt lat="44.17059" lon="5.20414">
        <ele>982.8</ele>
        <time>2022-07-21T05:49:44Z</time>
      </trkpt>
      <trkpt lat="44.17059" lon="5.20417">
        <ele>983</ele>
        <time>2022-07-21T05:49:45Z</time>
      </trkpt>
      <trkpt lat="44.17059" lon="5.20419">
        <ele>983.3</ele>
        <time>2022-07-21T05:49:46Z</time>
      </trkpt>
      <trkpt lat="44.17059" lon="5.20421">
        <ele>983.5</ele>
        <time>2022-07-21T05:49:47Z</time>
      </trkpt>
      <trkpt lat="44.17059" lon="5.20423">
        <ele>983.7</ele>
        <time>2022-07-21T05:49:48Z</time>
      </trkpt>
      <trkpt lat="44.17059" lon="5.20426">
        <ele>984</ele>
        <time>2022-07-21T05:49:49Z</time>
      </trkpt>
      <trkpt lat="44.17059" lon="5.2043">
        <ele>984.4</ele>
        <time>2022-07-21T05:49:50Z</time>
      </trkpt>
      <trkpt lat="44.17059" lon="5.20432">
        <ele>984.6</ele>
        <time>2022-07-21T05:49:51Z</time>
      </trkpt>
      <trkpt lat="44.17059" lon="5.20434">
        <ele>984.8</ele>
        <time>2022-07-21T05:49:52Z</time>
      </trkpt>
      <trkpt lat="44.17059" lon="5.20436">
        <ele>985</ele>
        <time>2022-07-21T05:49:53Z</time>
      </trkpt>
      <trkpt lat="44.1706" lon="5.20437">
        <ele>985.2</ele>
        <time>2022-07-21T05:49:54Z</time>
      </trkpt>
      <trkpt lat="44.1706" lon="5.20439">
        <ele>985.4</ele>
        <time>2022-07-21T05:49:55Z</time>
      </trkpt>
      <trkpt lat="44.17061" lon="5.20442">
        <ele>985.6</ele>
        <time>2022-07-21T05:49:56Z</time>
      </trkpt>
      <trkpt lat="44.17061" lon="5.20444">
        <ele>985.9</ele>
        <time>2022-07-21T05:49:57Z</time>
      </trkpt>
      <trkpt lat="44.17062" lon="5.20446">
        <ele>986.1</ele>
        <time>2022-07-21T05:49:58Z</time>
      </trkpt>
      <trkpt lat="44.17062" lon="5.20448">
        <ele>986.3</ele>
        <time>2022-07-21T05:49:59Z</time>
      </trkpt>
      <trkpt lat="44.17062" lon="5.2045">
        <ele>986.5</ele>
        <time>2022-07-21T05:50:00Z</time>
      </trkpt>
      <trkpt lat="44.17062" lon="5.20452">
        <ele>986.7</ele>
        <time>2022-07-21T05:50:01Z</time>
      </trkpt>
      <trkpt lat="44.17062" lon="5.20454">
        <ele>986.9</ele>
        <time>2022-07-21T05:50:02Z</time>
      </trkpt>
      <trkpt lat="44.17063" lon="5.20455">
        <ele>987.1</ele>
        <time>2022-07-21T05:50:03Z</time>
      </trkpt>
      <trkpt lat="44.17064" lon="5.20457">
        <ele>987.3</ele>
        <time>2022-07-21T05:50:04Z</time>
      </trkpt>
      <trkpt lat="44.17064" lon="5.2046">
        <ele>987.6</ele>
        <time>2022-07-21T05:50:05Z</time>
      </trkpt>
      <trkpt lat="44.17065" lon="5.20462">
        <ele>987.8</ele>
        <time>2022-07-21T05:50:06Z</time>
      </trkpt>
      <trkpt lat="44.17066" lon="5.20464">
        <ele>988.1</ele>
        <time>2022-07-21T05:50:07Z</time>
      </trkpt>
      <trkpt lat="44.17068" lon="5.20467">
        <ele>988.5</ele>
        <time>2022-07-21T05:50:08Z</time>
      </trkpt>
      <trkpt lat="44.17068" lon="5.20468">
        <ele>988.6</ele>
        <time>2022-07-21T05:50:09Z</time>
      </trkpt>
      <trkpt lat="44.17069" lon="5.2047">
        <ele>988.9</ele>
        <time>2022-07-21T05:50:10Z</time>
      </trkpt>
      <trkpt lat="44.1707" lon="5.20472">
        <ele>989.1</ele>
        <time>2022-07-21T05:50:11Z</time>
      </trkpt>
      <trkpt lat="44.17071" lon="5.20474">
        <ele>989.3</ele>
        <time>2022-07-21T05:50:12Z</time>
      </trkpt>
      <trkpt lat="44.17071" lon="5.20476">
        <ele>989.5</ele>
        <time>2022-07-21T05:50:13Z</time>
      </trkpt>
      <trkpt lat="44.17072" lon="5.20477">
        <ele>989.6</ele>
        <time>2022-07-21T05:50:14Z</time>
      </trkpt>
      <trkpt lat="44.17072" lon="5.20479">
        <ele>989.8</ele>
        <time>2022-07-21T05:50:15Z</time>
      </trkpt>
      <trkpt lat="44.17072" lon="5.20482">
        <ele>990</ele>
        <time>2022-07-21T05:50:16Z</time>
      </trkpt>
      <trkpt lat="44.17072" lon="5.20484">
        <ele>990.2</ele>
        <time>2022-07-21T05:50:17Z</time>
      </trkpt>
      <trkpt lat="44.17073" lon="5.20486">
        <ele>990.4</ele>
        <time>2022-07-21T05:50:18Z</time>
      </trkpt>
      <trkpt lat="44.17074" lon="5.20487">
        <ele>990.6</ele>
        <time>2022-07-21T05:50:19Z</time>
      </trkpt>
      <trkpt lat="44.17075" lon="5.20489">
        <ele>990.8</ele>
        <time>2022-07-21T05:50:20Z</time>
      </trkpt>
      <trkpt lat="44.17077" lon="5.20491">
        <ele>991</ele>
        <time>2022-07-21T05:50:21Z</time>
      </trkpt>
      <trkpt lat="44.17078" lon="5.20492">
        <ele>991.2</ele>
        <time>2022-07-21T05:50:22Z</time>
      </trkpt>
      <trkpt lat="44.17079" lon="5.20494">
        <ele>991.4</ele>
        <time>2022-07-21T05:50:23Z</time>
      </trkpt>
      <trkpt lat="44.1708" lon="5.20496">
        <ele>991.6</ele>
        <time>2022-07-21T05:50:24Z</time>
      </trkpt>
      <trkpt lat="44.17081" lon="5.20498">
        <ele>991.7</ele>
        <time>2022-07-21T05:50:25Z</time>
      </trkpt>
      <trkpt lat="44.17082" lon="5.20499">
        <ele>991.9</ele>
        <time>2022-07-21T05:50:26Z</time>
      </trkpt>
      <trkpt lat="44.17083" lon="5.20501">
        <ele>992</ele>
        <time>2022-07-21T05:50:27Z</time>
      </trkpt>
      <trkpt lat="44.17084" lon="5.20503">
        <ele>992.2</ele>
        <time>2022-07-21T05:50:28Z</time>
      </trkpt>
      <trkpt lat="44.17085" lon="5.20505">
        <ele>992.3</ele>
        <time>2022-07-21T05:50:29Z</time>
      </trkpt>
      <trkpt lat="44.17086" lon="5.20506">
        <ele>992.5</ele>
        <time>2022-07-21T05:50:30Z</time>
      </trkpt>
      <trkpt lat="44.17087" lon="5.20508">
        <ele>992.7</ele>
        <time>2022-07-21T05:50:31Z</time>
      </trkpt>
      <trkpt lat="44.17088" lon="5.2051">
        <ele>992.8</ele>
        <time>2022-07-21T05:50:32Z</time>
      </trkpt>
      <trkpt lat="44.17089" lon="5.20511">
        <ele>993</ele>
        <time>2022-07-21T05:50:33Z</time>
      </trkpt>
      <trkpt lat="44.1709" lon="5.20513">
        <ele>993.1</ele>
        <time>2022-07-21T05:50:34Z</time>
      </trkpt>
      <trkpt lat="44.17091" lon="5.20515">
        <ele>993.3</ele>
        <time>2022-07-21T05:50:35Z</time>
      </trkpt>
      <trkpt lat="44.17091" lon="5.20517">
        <ele>993.4</ele>
        <time>2022-07-21T05:50:36Z</time>
      </trkpt>
      <trkpt lat="44.17092" lon="5.20519">
        <ele>993.6</ele>
        <time>2022-07-21T05:50:37Z</time>
      </trkpt>
      <trkpt lat="44.17093" lon="5.20521">
        <ele>993.7</ele>
        <time>2022-07-21T05:50:38Z</time>
      </trkpt>
      <trkpt lat="44.17094" lon="5.20523">
        <ele>993.9</ele>
        <time>2022-07-21T05:50:39Z</time>
      </trkpt>
      <trkpt lat="44.17095" lon="5.20524">
        <ele>994</ele>
        <time>2022-07-21T05:50:40Z</time>
      </trkpt>
      <trkpt lat="44.17096" lon="5.20526">
        <ele>994.2</ele>
        <time>2022-07-21T05:50:41Z</time>
      </trkpt>
      <trkpt lat="44.17097" lon="5.20528">
        <ele>994.4</ele>
        <time>2022-07-21T05:50:42Z</time>
      </trkpt>
      <trkpt lat="44.17098" lon="5.20529">
        <ele>994.5</ele>
        <time>2022-07-21T05:50:43Z</time>
      </trkpt>
      <trkpt lat="44.17099" lon="5.2053">
        <ele>994.6</ele>
        <time>2022-07-21T05:50:44Z</time>
      </trkpt>
      <trkpt lat="44.171" lon="5.20532">
        <ele>994.7</ele>
        <time>2022-07-21T05:50:45Z</time>
      </trkpt>
      <trkpt lat="44.171" lon="5.20533">
        <ele>994.9</ele>
        <time>2022-07-21T05:50:46Z</time>
      </trkpt>
      <trkpt lat="44.17101" lon="5.20535">
        <ele>995.1</ele>
        <time>2022-07-21T05:50:47Z</time>
      </trkpt>
      <trkpt lat="44.17102" lon="5.20537">
        <ele>995.2</ele>
        <time>2022-07-21T05:50:48Z</time>
      </trkpt>
      <trkpt lat="44.17104" lon="5.2054">
        <ele>995.5</ele>
        <time>2022-07-21T05:50:49Z</time>
      </trkpt>
      <trkpt lat="44.17105" lon="5.20541">
        <ele>995.6</ele>
        <time>2022-07-21T05:50:50Z</time>
      </trkpt>
      <trkpt lat="44.17106" lon="5.20542">
        <ele>995.7</ele>
        <time>2022-07-21T05:50:51Z</time>
      </trkpt>
      <trkpt lat="44.17107" lon="5.20543">
        <ele>995.9</ele>
        <time>2022-07-21T05:50:52Z</time>
      </trkpt>
      <trkpt lat="44.17108" lon="5.20545">
        <ele>996</ele>
        <time>2022-07-21T05:50:53Z</time>
      </trkpt>
      <trkpt lat="44.17108" lon="5.20547">
        <ele>996.2</ele>
        <time>2022-07-21T05:50:54Z</time>
      </trkpt>
      <trkpt lat="44.17109" lon="5.20549">
        <ele>996.4</ele>
        <time>2022-07-21T05:50:55Z</time>
      </trkpt>
      <trkpt lat="44.1711" lon="5.20551">
        <ele>996.6</ele>
        <time>2022-07-21T05:50:56Z</time>
      </trkpt>
      <trkpt lat="44.17111" lon="5.20553">
        <ele>996.7</ele>
        <time>2022-07-21T05:50:57Z</time>
      </trkpt>
      <trkpt lat="44.17111" lon="5.20555">
        <ele>996.9</ele>
        <time>2022-07-21T05:50:58Z</time>
      </trkpt>
      <trkpt lat="44.17113" lon="5.20556">
        <ele>997.1</ele>
        <time>2022-07-21T05:50:59Z</time>
      </trkpt>
      <trkpt lat="44.17113" lon="5.20558">
        <ele>997.2</ele>
        <time>2022-07-21T05:51:00Z</time>
      </trkpt>
      <trkpt lat="44.17114" lon="5.2056">
        <ele>997.4</ele>
        <time>2022-07-21T05:51:01Z</time>
      </trkpt>
      <trkpt lat="44.17115" lon="5.20562">
        <ele>997.6</ele>
        <time>2022-07-21T05:51:02Z</time>
      </trkpt>
      <trkpt lat="44.17116" lon="5.20564">
        <ele>997.8</ele>
        <time>2022-07-21T05:51:03Z</time>
      </trkpt>
      <trkpt lat="44.17117" lon="5.20566">
        <ele>997.9</ele>
        <time>2022-07-21T05:51:04Z</time>
      </trkpt>
      <trkpt lat="44.17117" lon="5.20568">
        <ele>998.1</ele>
        <time>2022-07-21T05:51:05Z</time>
      </trkpt>
      <trkpt lat="44.17118" lon="5.2057">
        <ele>998.3</ele>
        <time>2022-07-21T05:51:06Z</time>
      </trkpt>
      <trkpt lat="44.17119" lon="5.20572">
        <ele>998.5</ele>
        <time>2022-07-21T05:51:07Z</time>
      </trkpt>
      <trkpt lat="44.1712" lon="5.20574">
        <ele>998.6</ele>
        <time>2022-07-21T05:51:08Z</time>
      </trkpt>
      <trkpt lat="44.1712" lon="5.20576">
        <ele>998.8</ele>
        <time>2022-07-21T05:51:09Z</time>
      </trkpt>
      <trkpt lat="44.17121" lon="5.20578">
        <ele>999</ele>
        <time>2022-07-21T05:51:10Z</time>
      </trkpt>
      <trkpt lat="44.17122" lon="5.20579">
        <ele>999.2</ele>
        <time>2022-07-21T05:51:11Z</time>
      </trkpt>
      <trkpt lat="44.17123" lon="5.20581">
        <ele>999.3</ele>
        <time>2022-07-21T05:51:12Z</time>
      </trkpt>
      <trkpt lat="44.17123" lon="5.20583">
        <ele>999.5</ele>
        <time>2022-07-21T05:51:13Z</time>
      </trkpt>
      <trkpt lat="44.17124" lon="5.20585">
        <ele>999.7</ele>
        <time>2022-07-21T05:51:14Z</time>
      </trkpt>
      <trkpt lat="44.17125" lon="5.20587">
        <ele>999.8</ele>
        <time>2022-07-21T05:51:15Z</time>
      </trkpt>
      <trkpt lat="44.17126" lon="5.20589">
        <ele>1000</ele>
        <time>2022-07-21T05:51:16Z</time>
      </trkpt>
      <trkpt lat="44.17127" lon="5.20591">
        <ele>1000.2</ele>
        <time>2022-07-21T05:51:17Z</time>
      </trkpt>
      <trkpt lat="44.17128" lon="5.20593">
        <ele>1000.4</ele>
        <time>2022-07-21T05:51:18Z</time>
      </trkpt>
      <trkpt lat="44.17128" lon="5.20595">
        <ele>1000.6</ele>
        <time>2022-07-21T05:51:19Z</time>
      </trkpt>
      <trkpt lat="44.17129" lon="5.20597">
        <ele>1000.8</ele>
        <time>2022-07-21T05:51:20Z</time>
      </trkpt>
      <trkpt lat="44.1713" lon="5.20598">
        <ele>1000.9</ele>
        <time>2022-07-21T05:51:21Z</time>
      </trkpt>
      <trkpt lat="44.1713" lon="5.206">
        <ele>1001.1</ele>
        <time>2022-07-21T05:51:22Z</time>
      </trkpt>
      <trkpt lat="44.17131" lon="5.20602">
        <ele>1001.3</ele>
        <time>2022-07-21T05:51:23Z</time>
      </trkpt>
      <trkpt lat="44.17132" lon="5.20604">
        <ele>1001.4</ele>
        <time>2022-07-21T05:51:24Z</time>
      </trkpt>
      <trkpt lat="44.17132" lon="5.20606">
        <ele>1001.6</ele>
        <time>2022-07-21T05:51:25Z</time>
      </trkpt>
      <trkpt lat="44.17133" lon="5.20609">
        <ele>1001.9</ele>
        <time>2022-07-21T05:51:26Z</time>
      </trkpt>
      <trkpt lat="44.17134" lon="5.2061">
        <ele>1002</ele>
        <time>2022-07-21T05:51:27Z</time>
      </trkpt>
      <trkpt lat="44.17134" lon="5.20611">
        <ele>1002.1</ele>
        <time>2022-07-21T05:51:28Z</time>
      </trkpt>
      <trkpt lat="44.17134" lon="5.20613">
        <ele>1002.2</ele>
        <time>2022-07-21T05:51:29Z</time>
      </trkpt>
      <trkpt lat="44.17135" lon="5.20615">
        <ele>1002.4</ele>
        <time>2022-07-21T05:51:30Z</time>
      </trkpt>
      <trkpt lat="44.17135" lon="5.20617">
        <ele>1002.5</ele>
        <time>2022-07-21T05:51:31Z</time>
      </trkpt>
      <trkpt lat="44.17136" lon="5.20619">
        <ele>1002.7</ele>
        <time>2022-07-21T05:51:32Z</time>
      </trkpt>
      <trkpt lat="44.17137" lon="5.20621">
        <ele>1002.9</ele>
        <time>2022-07-21T05:51:33Z</time>
      </trkpt>
      <trkpt lat="44.17138" lon="5.20623">
        <ele>1003.1</ele>
        <time>2022-07-21T05:51:34Z</time>
      </trkpt>
      <trkpt lat="44.17138" lon="5.20625">
        <ele>1003.3</ele>
        <time>2022-07-21T05:51:35Z</time>
      </trkpt>
      <trkpt lat="44.17139" lon="5.20627">
        <ele>1003.4</ele>
        <time>2022-07-21T05:51:36Z</time>
      </trkpt>
      <trkpt lat="44.1714" lon="5.20629">
        <ele>1003.6</ele>
        <time>2022-07-21T05:51:37Z</time>
      </trkpt>
      <trkpt lat="44.17141" lon="5.2063">
        <ele>1003.8</ele>
        <time>2022-07-21T05:51:38Z</time>
      </trkpt>
      <trkpt lat="44.17141" lon="5.20632">
        <ele>1004</ele>
        <time>2022-07-21T05:51:39Z</time>
      </trkpt>
      <trkpt lat="44.17142" lon="5.20634">
        <ele>1004.1</ele>
        <time>2022-07-21T05:51:40Z</time>
      </trkpt>
      <trkpt lat="44.17143" lon="5.20636">
        <ele>1004.3</ele>
        <time>2022-07-21T05:51:41Z</time>
      </trkpt>
      <trkpt lat="44.17144" lon="5.20638">
        <ele>1004.5</ele>
        <time>2022-07-21T05:51:42Z</time>
      </trkpt>
      <trkpt lat="44.17144" lon="5.20641">
        <ele>1004.7</ele>
        <time>2022-07-21T05:51:43Z</time>
      </trkpt>
      <trkpt lat="44.17145" lon="5.20643">
        <ele>1004.8</ele>
        <time>2022-07-21T05:51:44Z</time>
      </trkpt>
      <trkpt lat="44.17145" lon="5.20645">
        <ele>1005</ele>
        <time>2022-07-21T05:51:45Z</time>
      </trkpt>
      <trkpt lat="44.17146" lon="5.20647">
        <ele>1005.2</ele>
        <time>2022-07-21T05:51:46Z</time>
      </trkpt>
      <trkpt lat="44.17147" lon="5.20651">
        <ele>1005.5</ele>
        <time>2022-07-21T05:51:47Z</time>
      </trkpt>
      <trkpt lat="44.17148" lon="5.20653">
        <ele>1005.7</ele>
        <time>2022-07-21T05:51:49Z</time>
      </trkpt>
      <trkpt lat="44.17149" lon="5.20655">
        <ele>1005.8</ele>
        <time>2022-07-21T05:51:50Z</time>
      </trkpt>
      <trkpt lat="44.1715" lon="5.20657">
        <ele>1006</ele>
        <time>2022-07-21T05:51:51Z</time>
      </trkpt>
      <trkpt lat="44.1715" lon="5.20659">
        <ele>1006.1</ele>
        <time>2022-07-21T05:51:52Z</time>
      </trkpt>
      <trkpt lat="44.17151" lon="5.20661">
        <ele>1006.3</ele>
        <time>2022-07-21T05:51:53Z</time>
      </trkpt>
      <trkpt lat="44.17152" lon="5.20663">
        <ele>1006.5</ele>
        <time>2022-07-21T05:51:54Z</time>
      </trkpt>
      <trkpt lat="44.17152" lon="5.20665">
        <ele>1006.7</ele>
        <time>2022-07-21T05:51:55Z</time>
      </trkpt>
      <trkpt lat="44.17153" lon="5.20667">
        <ele>1006.8</ele>
        <time>2022-07-21T05:51:56Z</time>
      </trkpt>
      <trkpt lat="44.17154" lon="5.20669">
        <ele>1007</ele>
        <time>2022-07-21T05:51:57Z</time>
      </trkpt>
      <trkpt lat="44.17154" lon="5.20671">
        <ele>1007.2</ele>
        <time>2022-07-21T05:51:58Z</time>
      </trkpt>
      <trkpt lat="44.17155" lon="5.20673">
        <ele>1007.3</ele>
        <time>2022-07-21T05:51:59Z</time>
      </trkpt>
      <trkpt lat="44.17155" lon="5.20674">
        <ele>1007.5</ele>
        <time>2022-07-21T05:52:00Z</time>
      </trkpt>
      <trkpt lat="44.17156" lon="5.20676">
        <ele>1007.6</ele>
        <time>2022-07-21T05:52:01Z</time>
      </trkpt>
      <trkpt lat="44.17156" lon="5.20679">
        <ele>1007.8</ele>
        <time>2022-07-21T05:52:02Z</time>
      </trkpt>
      <trkpt lat="44.17156" lon="5.20681">
        <ele>1008</ele>
        <time>2022-07-21T05:52:03Z</time>
      </trkpt>
      <trkpt lat="44.17157" lon="5.20682">
        <ele>1008.1</ele>
        <time>2022-07-21T05:52:04Z</time>
      </trkpt>
      <trkpt lat="44.17157" lon="5.20684">
        <ele>1008.3</ele>
        <time>2022-07-21T05:52:05Z</time>
      </trkpt>
      <trkpt lat="44.17158" lon="5.20686">
        <ele>1008.5</ele>
        <time>2022-07-21T05:52:06Z</time>
      </trkpt>
      <trkpt lat="44.17159" lon="5.20688">
        <ele>1008.6</ele>
        <time>2022-07-21T05:52:07Z</time>
      </trkpt>
      <trkpt lat="44.17159" lon="5.2069">
        <ele>1008.8</ele>
        <time>2022-07-21T05:52:08Z</time>
      </trkpt>
      <trkpt lat="44.1716" lon="5.20692">
        <ele>1009</ele>
        <time>2022-07-21T05:52:09Z</time>
      </trkpt>
      <trkpt lat="44.17161" lon="5.20694">
        <ele>1009.2</ele>
        <time>2022-07-21T05:52:10Z</time>
      </trkpt>
      <trkpt lat="44.17161" lon="5.20696">
        <ele>1009.3</ele>
        <time>2022-07-21T05:52:11Z</time>
      </trkpt>
      <trkpt lat="44.17162" lon="5.20698">
        <ele>1009.5</ele>
        <time>2022-07-21T05:52:12Z</time>
      </trkpt>
      <trkpt lat="44.17162" lon="5.207">
        <ele>1009.7</ele>
        <time>2022-07-21T05:52:13Z</time>
      </trkpt>
      <trkpt lat="44.17163" lon="5.20702">
        <ele>1009.9</ele>
        <time>2022-07-21T05:52:14Z</time>
      </trkpt>
      <trkpt lat="44.17164" lon="5.20704">
        <ele>1010</ele>
        <time>2022-07-21T05:52:15Z</time>
      </trkpt>
      <trkpt lat="44.17164" lon="5.20706">
        <ele>1010.2</ele>
        <time>2022-07-21T05:52:16Z</time>
      </trkpt>
      <trkpt lat="44.17165" lon="5.20708">
        <ele>1010.4</ele>
        <time>2022-07-21T05:52:17Z</time>
      </trkpt>
      <trkpt lat="44.17166" lon="5.2071">
        <ele>1010.6</ele>
        <time>2022-07-21T05:52:18Z</time>
      </trkpt>
      <trkpt lat="44.17166" lon="5.20712">
        <ele>1010.8</ele>
        <time>2022-07-21T05:52:19Z</time>
      </trkpt>
      <trkpt lat="44.17167" lon="5.20714">
        <ele>1011</ele>
        <time>2022-07-21T05:52:20Z</time>
      </trkpt>
      <trkpt lat="44.17168" lon="5.20717">
        <ele>1011.2</ele>
        <time>2022-07-21T05:52:21Z</time>
      </trkpt>
      <trkpt lat="44.17168" lon="5.20719">
        <ele>1011.4</ele>
        <time>2022-07-21T05:52:22Z</time>
      </trkpt>
      <trkpt lat="44.17168" lon="5.20721">
        <ele>1011.5</ele>
        <time>2022-07-21T05:52:23Z</time>
      </trkpt>
      <trkpt lat="44.17169" lon="5.20723">
        <ele>1011.7</ele>
        <time>2022-07-21T05:52:24Z</time>
      </trkpt>
      <trkpt lat="44.1717" lon="5.20725">
        <ele>1011.9</ele>
        <time>2022-07-21T05:52:25Z</time>
      </trkpt>
      <trkpt lat="44.1717" lon="5.20727">
        <ele>1012.1</ele>
        <time>2022-07-21T05:52:26Z</time>
      </trkpt>
      <trkpt lat="44.17171" lon="5.20729">
        <ele>1012.3</ele>
        <time>2022-07-21T05:52:27Z</time>
      </trkpt>
      <trkpt lat="44.17172" lon="5.20731">
        <ele>1012.5</ele>
        <time>2022-07-21T05:52:28Z</time>
      </trkpt>
      <trkpt lat="44.17172" lon="5.20733">
        <ele>1012.6</ele>
        <time>2022-07-21T05:52:29Z</time>
      </trkpt>
      <trkpt lat="44.17173" lon="5.20735">
        <ele>1012.8</ele>
        <time>2022-07-21T05:52:30Z</time>
      </trkpt>
      <trkpt lat="44.17174" lon="5.20737">
        <ele>1013</ele>
        <time>2022-07-21T05:52:31Z</time>
      </trkpt>
      <trkpt lat="44.17174" lon="5.20739">
        <ele>1013.2</ele>
        <time>2022-07-21T05:52:32Z</time>
      </trkpt>
      <trkpt lat="44.17175" lon="5.20741">
        <ele>1013.4</ele>
        <time>2022-07-21T05:52:33Z</time>
      </trkpt>
      <trkpt lat="44.17176" lon="5.20743">
        <ele>1013.6</ele>
        <time>2022-07-21T05:52:34Z</time>
      </trkpt>
      <trkpt lat="44.17176" lon="5.20745">
        <ele>1013.8</ele>
        <time>2022-07-21T05:52:35Z</time>
      </trkpt>
      <trkpt lat="44.17177" lon="5.20747">
        <ele>1013.9</ele>
        <time>2022-07-21T05:52:36Z</time>
      </trkpt>
      <trkpt lat="44.17177" lon="5.20749">
        <ele>1014.1</ele>
        <time>2022-07-21T05:52:37Z</time>
      </trkpt>
      <trkpt lat="44.17178" lon="5.20751">
        <ele>1014.3</ele>
        <time>2022-07-21T05:52:38Z</time>
      </trkpt>
      <trkpt lat="44.17179" lon="5.20753">
        <ele>1014.5</ele>
        <time>2022-07-21T05:52:39Z</time>
      </trkpt>
      <trkpt lat="44.17179" lon="5.20755">
        <ele>1014.7</ele>
        <time>2022-07-21T05:52:40Z</time>
      </trkpt>
      <trkpt lat="44.1718" lon="5.20757">
        <ele>1014.8</ele>
        <time>2022-07-21T05:52:41Z</time>
      </trkpt>
      <trkpt lat="44.1718" lon="5.20759">
        <ele>1015</ele>
        <time>2022-07-21T05:52:42Z</time>
      </trkpt>
      <trkpt lat="44.17181" lon="5.20761">
        <ele>1015.2</ele>
        <time>2022-07-21T05:52:43Z</time>
      </trkpt>
      <trkpt lat="44.17181" lon="5.20763">
        <ele>1015.4</ele>
        <time>2022-07-21T05:52:44Z</time>
      </trkpt>
      <trkpt lat="44.17182" lon="5.20765">
        <ele>1015.6</ele>
        <time>2022-07-21T05:52:45Z</time>
      </trkpt>
      <trkpt lat="44.17182" lon="5.20768">
        <ele>1015.7</ele>
        <time>2022-07-21T05:52:46Z</time>
      </trkpt>
      <trkpt lat="44.17183" lon="5.2077">
        <ele>1015.9</ele>
        <time>2022-07-21T05:52:47Z</time>
      </trkpt>
      <trkpt lat="44.17183" lon="5.20772">
        <ele>1016.1</ele>
        <time>2022-07-21T05:52:48Z</time>
      </trkpt>
      <trkpt lat="44.17184" lon="5.20774">
        <ele>1016.3</ele>
        <time>2022-07-21T05:52:49Z</time>
      </trkpt>
      <trkpt lat="44.17184" lon="5.20776">
        <ele>1016.4</ele>
        <time>2022-07-21T05:52:50Z</time>
      </trkpt>
      <trkpt lat="44.17185" lon="5.20777">
        <ele>1016.6</ele>
        <time>2022-07-21T05:52:51Z</time>
      </trkpt>
      <trkpt lat="44.17186" lon="5.20779">
        <ele>1016.8</ele>
        <time>2022-07-21T05:52:52Z</time>
      </trkpt>
      <trkpt lat="44.17186" lon="5.20781">
        <ele>1016.9</ele>
        <time>2022-07-21T05:52:53Z</time>
      </trkpt>
      <trkpt lat="44.17186" lon="5.20783">
        <ele>1017.1</ele>
        <time>2022-07-21T05:52:54Z</time>
      </trkpt>
      <trkpt lat="44.17187" lon="5.20785">
        <ele>1017.3</ele>
        <time>2022-07-21T05:52:55Z</time>
      </trkpt>
      <trkpt lat="44.17187" lon="5.20788">
        <ele>1017.4</ele>
        <time>2022-07-21T05:52:56Z</time>
      </trkpt>
      <trkpt lat="44.17188" lon="5.2079">
        <ele>1017.6</ele>
        <time>2022-07-21T05:52:57Z</time>
      </trkpt>
      <trkpt lat="44.17188" lon="5.20791">
        <ele>1017.8</ele>
        <time>2022-07-21T05:52:58Z</time>
      </trkpt>
      <trkpt lat="44.17188" lon="5.20794">
        <ele>1017.9</ele>
        <time>2022-07-21T05:52:59Z</time>
      </trkpt>
      <trkpt lat="44.17189" lon="5.20796">
        <ele>1018.1</ele>
        <time>2022-07-21T05:53:00Z</time>
      </trkpt>
      <trkpt lat="44.17189" lon="5.20798">
        <ele>1018.3</ele>
        <time>2022-07-21T05:53:01Z</time>
      </trkpt>
      <trkpt lat="44.17189" lon="5.208">
        <ele>1018.5</ele>
        <time>2022-07-21T05:53:02Z</time>
      </trkpt>
      <trkpt lat="44.1719" lon="5.20802">
        <ele>1018.7</ele>
        <time>2022-07-21T05:53:03Z</time>
      </trkpt>
      <trkpt lat="44.17191" lon="5.20806">
        <ele>1019</ele>
        <time>2022-07-21T05:53:04Z</time>
      </trkpt>
      <trkpt lat="44.17191" lon="5.20807">
        <ele>1019.1</ele>
        <time>2022-07-21T05:53:05Z</time>
      </trkpt>
      <trkpt lat="44.17192" lon="5.20809">
        <ele>1019.3</ele>
        <time>2022-07-21T05:53:06Z</time>
      </trkpt>
      <trkpt lat="44.17193" lon="5.20811">
        <ele>1019.5</ele>
        <time>2022-07-21T05:53:07Z</time>
      </trkpt>
      <trkpt lat="44.17193" lon="5.20813">
        <ele>1019.6</ele>
        <time>2022-07-21T05:53:08Z</time>
      </trkpt>
      <trkpt lat="44.17193" lon="5.20815">
        <ele>1019.8</ele>
        <time>2022-07-21T05:53:09Z</time>
      </trkpt>
      <trkpt lat="44.17194" lon="5.20817">
        <ele>1020</ele>
        <time>2022-07-21T05:53:10Z</time>
      </trkpt>
      <trkpt lat="44.17194" lon="5.2082">
        <ele>1020.1</ele>
        <time>2022-07-21T05:53:11Z</time>
      </trkpt>
      <trkpt lat="44.17195" lon="5.20822">
        <ele>1020.3</ele>
        <time>2022-07-21T05:53:12Z</time>
      </trkpt>
      <trkpt lat="44.17195" lon="5.20824">
        <ele>1020.5</ele>
        <time>2022-07-21T05:53:13Z</time>
      </trkpt>
      <trkpt lat="44.17195" lon="5.20826">
        <ele>1020.7</ele>
        <time>2022-07-21T05:53:14Z</time>
      </trkpt>
      <trkpt lat="44.17196" lon="5.20828">
        <ele>1020.9</ele>
        <time>2022-07-21T05:53:15Z</time>
      </trkpt>
      <trkpt lat="44.17196" lon="5.2083">
        <ele>1021.1</ele>
        <time>2022-07-21T05:53:16Z</time>
      </trkpt>
      <trkpt lat="44.17196" lon="5.20833">
        <ele>1021.3</ele>
        <time>2022-07-21T05:53:17Z</time>
      </trkpt>
      <trkpt lat="44.17197" lon="5.20836">
        <ele>1021.6</ele>
        <time>2022-07-21T05:53:18Z</time>
      </trkpt>
      <trkpt lat="44.17198" lon="5.20837">
        <ele>1021.7</ele>
        <time>2022-07-21T05:53:19Z</time>
      </trkpt>
      <trkpt lat="44.17199" lon="5.2084">
        <ele>1021.9</ele>
        <time>2022-07-21T05:53:20Z</time>
      </trkpt>
      <trkpt lat="44.17199" lon="5.20842">
        <ele>1022.1</ele>
        <time>2022-07-21T05:53:21Z</time>
      </trkpt>
      <trkpt lat="44.172" lon="5.20844">
        <ele>1022.3</ele>
        <time>2022-07-21T05:53:22Z</time>
      </trkpt>
      <trkpt lat="44.17201" lon="5.20846">
        <ele>1022.5</ele>
        <time>2022-07-21T05:53:23Z</time>
      </trkpt>
      <trkpt lat="44.17202" lon="5.20848">
        <ele>1022.7</ele>
        <time>2022-07-21T05:53:24Z</time>
      </trkpt>
      <trkpt lat="44.17202" lon="5.2085">
        <ele>1022.9</ele>
        <time>2022-07-21T05:53:25Z</time>
      </trkpt>
      <trkpt lat="44.17203" lon="5.20852">
        <ele>1023</ele>
        <time>2022-07-21T05:53:26Z</time>
      </trkpt>
      <trkpt lat="44.17203" lon="5.20855">
        <ele>1023.2</ele>
        <time>2022-07-21T05:53:27Z</time>
      </trkpt>
      <trkpt lat="44.17204" lon="5.20857">
        <ele>1023.4</ele>
        <time>2022-07-21T05:53:28Z</time>
      </trkpt>
      <trkpt lat="44.17204" lon="5.20859">
        <ele>1023.6</ele>
        <time>2022-07-21T05:53:29Z</time>
      </trkpt>
      <trkpt lat="44.17204" lon="5.20862">
        <ele>1023.8</ele>
        <time>2022-07-21T05:53:30Z</time>
      </trkpt>
      <trkpt lat="44.17205" lon="5.20864">
        <ele>1024</ele>
        <time>2022-07-21T05:53:31Z</time>
      </trkpt>
      <trkpt lat="44.17205" lon="5.20866">
        <ele>1024.1</ele>
        <time>2022-07-21T05:53:32Z</time>
      </trkpt>
      <trkpt lat="44.17205" lon="5.20869">
        <ele>1024.3</ele>
        <time>2022-07-21T05:53:33Z</time>
      </trkpt>
      <trkpt lat="44.17206" lon="5.20871">
        <ele>1024.5</ele>
        <time>2022-07-21T05:53:34Z</time>
      </trkpt>
      <trkpt lat="44.17206" lon="5.20873">
        <ele>1024.7</ele>
        <time>2022-07-21T05:53:35Z</time>
      </trkpt>
      <trkpt lat="44.17207" lon="5.20875">
        <ele>1024.8</ele>
        <time>2022-07-21T05:53:36Z</time>
      </trkpt>
      <trkpt lat="44.17207" lon="5.20878">
        <ele>1025</ele>
        <time>2022-07-21T05:53:37Z</time>
      </trkpt>
      <trkpt lat="44.17208" lon="5.20881">
        <ele>1025.3</ele>
        <time>2022-07-21T05:53:38Z</time>
      </trkpt>
      <trkpt lat="44.17209" lon="5.20883">
        <ele>1025.4</ele>
        <time>2022-07-21T05:53:39Z</time>
      </trkpt>
      <trkpt lat="44.17209" lon="5.20885">
        <ele>1025.5</ele>
        <time>2022-07-21T05:53:40Z</time>
      </trkpt>
      <trkpt lat="44.1721" lon="5.20887">
        <ele>1025.7</ele>
        <time>2022-07-21T05:53:41Z</time>
      </trkpt>
      <trkpt lat="44.17211" lon="5.20891">
        <ele>1026</ele>
        <time>2022-07-21T05:53:43Z</time>
      </trkpt>
      <trkpt lat="44.17211" lon="5.20893">
        <ele>1026.2</ele>
        <time>2022-07-21T05:53:44Z</time>
      </trkpt>
      <trkpt lat="44.17212" lon="5.20896">
        <ele>1026.4</ele>
        <time>2022-07-21T05:53:45Z</time>
      </trkpt>
      <trkpt lat="44.17212" lon="5.20898">
        <ele>1026.5</ele>
        <time>2022-07-21T05:53:46Z</time>
      </trkpt>
      <trkpt lat="44.17213" lon="5.209">
        <ele>1026.7</ele>
        <time>2022-07-21T05:53:47Z</time>
      </trkpt>
      <trkpt lat="44.17214" lon="5.20902">
        <ele>1026.9</ele>
        <time>2022-07-21T05:53:48Z</time>
      </trkpt>
      <trkpt lat="44.17214" lon="5.20904">
        <ele>1027.1</ele>
        <time>2022-07-21T05:53:49Z</time>
      </trkpt>
      <trkpt lat="44.17215" lon="5.20908">
        <ele>1027.4</ele>
        <time>2022-07-21T05:53:50Z</time>
      </trkpt>
      <trkpt lat="44.17215" lon="5.20909">
        <ele>1027.5</ele>
        <time>2022-07-21T05:53:51Z</time>
      </trkpt>
      <trkpt lat="44.17216" lon="5.20912">
        <ele>1027.6</ele>
        <time>2022-07-21T05:53:52Z</time>
      </trkpt>
      <trkpt lat="44.17216" lon="5.20914">
        <ele>1027.8</ele>
        <time>2022-07-21T05:53:53Z</time>
      </trkpt>
      <trkpt lat="44.17216" lon="5.20916">
        <ele>1028</ele>
        <time>2022-07-21T05:53:54Z</time>
      </trkpt>
      <trkpt lat="44.17216" lon="5.20918">
        <ele>1028.1</ele>
        <time>2022-07-21T05:53:55Z</time>
      </trkpt>
      <trkpt lat="44.17216" lon="5.2092">
        <ele>1028.3</ele>
        <time>2022-07-21T05:53:56Z</time>
      </trkpt>
      <trkpt lat="44.17217" lon="5.20922">
        <ele>1028.4</ele>
        <time>2022-07-21T05:53:57Z</time>
      </trkpt>
      <trkpt lat="44.17217" lon="5.20924">
        <ele>1028.6</ele>
        <time>2022-07-21T05:53:58Z</time>
      </trkpt>
      <trkpt lat="44.17217" lon="5.20926">
        <ele>1028.7</ele>
        <time>2022-07-21T05:53:59Z</time>
      </trkpt>
      <trkpt lat="44.17217" lon="5.20928">
        <ele>1028.9</ele>
        <time>2022-07-21T05:54:00Z</time>
      </trkpt>
      <trkpt lat="44.17218" lon="5.2093">
        <ele>1029.1</ele>
        <time>2022-07-21T05:54:01Z</time>
      </trkpt>
      <trkpt lat="44.17218" lon="5.20932">
        <ele>1029.2</ele>
        <time>2022-07-21T05:54:02Z</time>
      </trkpt>
      <trkpt lat="44.17218" lon="5.20934">
        <ele>1029.4</ele>
        <time>2022-07-21T05:54:03Z</time>
      </trkpt>
      <trkpt lat="44.17218" lon="5.20936">
        <ele>1029.5</ele>
        <time>2022-07-21T05:54:04Z</time>
      </trkpt>
      <trkpt lat="44.17218" lon="5.20938">
        <ele>1029.7</ele>
        <time>2022-07-21T05:54:05Z</time>
      </trkpt>
      <trkpt lat="44.17219" lon="5.2094">
        <ele>1029.8</ele>
        <time>2022-07-21T05:54:06Z</time>
      </trkpt>
      <trkpt lat="44.17219" lon="5.20942">
        <ele>1030</ele>
        <time>2022-07-21T05:54:07Z</time>
      </trkpt>
      <trkpt lat="44.17219" lon="5.20945">
        <ele>1030.2</ele>
        <time>2022-07-21T05:54:08Z</time>
      </trkpt>
      <trkpt lat="44.1722" lon="5.20947">
        <ele>1030.4</ele>
        <time>2022-07-21T05:54:09Z</time>
      </trkpt>
      <trkpt lat="44.1722" lon="5.20951">
        <ele>1030.7</ele>
        <time>2022-07-21T05:54:10Z</time>
      </trkpt>
      <trkpt lat="44.17221" lon="5.20952">
        <ele>1030.8</ele>
        <time>2022-07-21T05:54:11Z</time>
      </trkpt>
      <trkpt lat="44.17221" lon="5.20954">
        <ele>1031</ele>
        <time>2022-07-21T05:54:12Z</time>
      </trkpt>
      <trkpt lat="44.17221" lon="5.20956">
        <ele>1031.1</ele>
        <time>2022-07-21T05:54:13Z</time>
      </trkpt>
      <trkpt lat="44.17222" lon="5.20959">
        <ele>1031.3</ele>
        <time>2022-07-21T05:54:14Z</time>
      </trkpt>
      <trkpt lat="44.17222" lon="5.20961">
        <ele>1031.5</ele>
        <time>2022-07-21T05:54:15Z</time>
      </trkpt>
      <trkpt lat="44.17223" lon="5.20963">
        <ele>1031.6</ele>
        <time>2022-07-21T05:54:16Z</time>
      </trkpt>
      <trkpt lat="44.17223" lon="5.20965">
        <ele>1031.8</ele>
        <time>2022-07-21T05:54:17Z</time>
      </trkpt>
      <trkpt lat="44.17223" lon="5.20967">
        <ele>1032</ele>
        <time>2022-07-21T05:54:18Z</time>
      </trkpt>
      <trkpt lat="44.17224" lon="5.20969">
        <ele>1032.2</ele>
        <time>2022-07-21T05:54:19Z</time>
      </trkpt>
      <trkpt lat="44.17224" lon="5.20972">
        <ele>1032.4</ele>
        <time>2022-07-21T05:54:20Z</time>
      </trkpt>
      <trkpt lat="44.17225" lon="5.20974">
        <ele>1032.6</ele>
        <time>2022-07-21T05:54:21Z</time>
      </trkpt>
      <trkpt lat="44.17225" lon="5.20976">
        <ele>1032.7</ele>
        <time>2022-07-21T05:54:22Z</time>
      </trkpt>
      <trkpt lat="44.17225" lon="5.20978">
        <ele>1032.9</ele>
        <time>2022-07-21T05:54:23Z</time>
      </trkpt>
      <trkpt lat="44.17225" lon="5.2098">
        <ele>1033.1</ele>
        <time>2022-07-21T05:54:24Z</time>
      </trkpt>
      <trkpt lat="44.17226" lon="5.20982">
        <ele>1033.2</ele>
        <time>2022-07-21T05:54:25Z</time>
      </trkpt>
      <trkpt lat="44.17226" lon="5.20984">
        <ele>1033.4</ele>
        <time>2022-07-21T05:54:26Z</time>
      </trkpt>
      <trkpt lat="44.17226" lon="5.20986">
        <ele>1033.6</ele>
        <time>2022-07-21T05:54:27Z</time>
      </trkpt>
      <trkpt lat="44.17227" lon="5.20988">
        <ele>1033.7</ele>
        <time>2022-07-21T05:54:28Z</time>
      </trkpt>
      <trkpt lat="44.17227" lon="5.2099">
        <ele>1033.9</ele>
        <time>2022-07-21T05:54:29Z</time>
      </trkpt>
      <trkpt lat="44.17228" lon="5.20992">
        <ele>1034.1</ele>
        <time>2022-07-21T05:54:30Z</time>
      </trkpt>
      <trkpt lat="44.17228" lon="5.20994">
        <ele>1034.2</ele>
        <time>2022-07-21T05:54:31Z</time>
      </trkpt>
      <trkpt lat="44.17229" lon="5.20996">
        <ele>1034.4</ele>
        <time>2022-07-21T05:54:32Z</time>
      </trkpt>
      <trkpt lat="44.17229" lon="5.20998">
        <ele>1034.6</ele>
        <time>2022-07-21T05:54:33Z</time>
      </trkpt>
      <trkpt lat="44.1723" lon="5.21">
        <ele>1034.7</ele>
        <time>2022-07-21T05:54:34Z</time>
      </trkpt>
      <trkpt lat="44.1723" lon="5.21002">
        <ele>1034.9</ele>
        <time>2022-07-21T05:54:35Z</time>
      </trkpt>
      <trkpt lat="44.17231" lon="5.21004">
        <ele>1035.1</ele>
        <time>2022-07-21T05:54:36Z</time>
      </trkpt>
      <trkpt lat="44.17231" lon="5.21006">
        <ele>1035.2</ele>
        <time>2022-07-21T05:54:37Z</time>
      </trkpt>
      <trkpt lat="44.17232" lon="5.21008">
        <ele>1035.4</ele>
        <time>2022-07-21T05:54:38Z</time>
      </trkpt>
      <trkpt lat="44.17232" lon="5.21011">
        <ele>1035.6</ele>
        <time>2022-07-21T05:54:39Z</time>
      </trkpt>
      <trkpt lat="44.17233" lon="5.21013">
        <ele>1035.8</ele>
        <time>2022-07-21T05:54:40Z</time>
      </trkpt>
      <trkpt lat="44.17233" lon="5.21015">
        <ele>1035.9</ele>
        <time>2022-07-21T05:54:41Z</time>
      </trkpt>
      <trkpt lat="44.17234" lon="5.21016">
        <ele>1036</ele>
        <time>2022-07-21T05:54:42Z</time>
      </trkpt>
      <trkpt lat="44.17234" lon="5.21019">
        <ele>1036.2</ele>
        <time>2022-07-21T05:54:43Z</time>
      </trkpt>
      <trkpt lat="44.17234" lon="5.2102">
        <ele>1036.3</ele>
        <time>2022-07-21T05:54:44Z</time>
      </trkpt>
      <trkpt lat="44.17235" lon="5.21023">
        <ele>1036.5</ele>
        <time>2022-07-21T05:54:45Z</time>
      </trkpt>
      <trkpt lat="44.17235" lon="5.21025">
        <ele>1036.7</ele>
        <time>2022-07-21T05:54:46Z</time>
      </trkpt>
      <trkpt lat="44.17236" lon="5.21027">
        <ele>1036.8</ele>
        <time>2022-07-21T05:54:47Z</time>
      </trkpt>
      <trkpt lat="44.17236" lon="5.21029">
        <ele>1037</ele>
        <time>2022-07-21T05:54:48Z</time>
      </trkpt>
      <trkpt lat="44.17237" lon="5.21031">
        <ele>1037.2</ele>
        <time>2022-07-21T05:54:49Z</time>
      </trkpt>
      <trkpt lat="44.17237" lon="5.21033">
        <ele>1037.3</ele>
        <time>2022-07-21T05:54:50Z</time>
      </trkpt>
      <trkpt lat="44.17238" lon="5.21036">
        <ele>1037.5</ele>
        <time>2022-07-21T05:54:51Z</time>
      </trkpt>
      <trkpt lat="44.17238" lon="5.21038">
        <ele>1037.7</ele>
        <time>2022-07-21T05:54:52Z</time>
      </trkpt>
      <trkpt lat="44.17239" lon="5.2104">
        <ele>1037.8</ele>
        <time>2022-07-21T05:54:53Z</time>
      </trkpt>
      <trkpt lat="44.17239" lon="5.21042">
        <ele>1038</ele>
        <time>2022-07-21T05:54:54Z</time>
      </trkpt>
      <trkpt lat="44.17239" lon="5.21044">
        <ele>1038.2</ele>
        <time>2022-07-21T05:54:55Z</time>
      </trkpt>
      <trkpt lat="44.1724" lon="5.21046">
        <ele>1038.3</ele>
        <time>2022-07-21T05:54:56Z</time>
      </trkpt>
      <trkpt lat="44.1724" lon="5.21048">
        <ele>1038.5</ele>
        <time>2022-07-21T05:54:57Z</time>
      </trkpt>
      <trkpt lat="44.1724" lon="5.21051">
        <ele>1038.6</ele>
        <time>2022-07-21T05:54:58Z</time>
      </trkpt>
      <trkpt lat="44.1724" lon="5.21053">
        <ele>1038.8</ele>
        <time>2022-07-21T05:54:59Z</time>
      </trkpt>
      <trkpt lat="44.17241" lon="5.21055">
        <ele>1039</ele>
        <time>2022-07-21T05:55:00Z</time>
      </trkpt>
      <trkpt lat="44.17241" lon="5.21057">
        <ele>1039.1</ele>
        <time>2022-07-21T05:55:01Z</time>
      </trkpt>
      <trkpt lat="44.17241" lon="5.21059">
        <ele>1039.3</ele>
        <time>2022-07-21T05:55:02Z</time>
      </trkpt>
      <trkpt lat="44.17242" lon="5.21062">
        <ele>1039.5</ele>
        <time>2022-07-21T05:55:03Z</time>
      </trkpt>
      <trkpt lat="44.17242" lon="5.21065">
        <ele>1039.7</ele>
        <time>2022-07-21T05:55:04Z</time>
      </trkpt>
      <trkpt lat="44.17243" lon="5.21066">
        <ele>1039.8</ele>
        <time>2022-07-21T05:55:05Z</time>
      </trkpt>
      <trkpt lat="44.17243" lon="5.21067">
        <ele>1039.8</ele>
        <time>2022-07-21T05:55:06Z</time>
      </trkpt>
      <trkpt lat="44.17243" lon="5.21069">
        <ele>1040</ele>
        <time>2022-07-21T05:55:07Z</time>
      </trkpt>
      <trkpt lat="44.17243" lon="5.21071">
        <ele>1040.1</ele>
        <time>2022-07-21T05:55:08Z</time>
      </trkpt>
      <trkpt lat="44.17243" lon="5.21073">
        <ele>1040.3</ele>
        <time>2022-07-21T05:55:09Z</time>
      </trkpt>
      <trkpt lat="44.17243" lon="5.21075">
        <ele>1040.4</ele>
        <time>2022-07-21T05:55:10Z</time>
      </trkpt>
      <trkpt lat="44.17244" lon="5.21077">
        <ele>1040.6</ele>
        <time>2022-07-21T05:55:11Z</time>
      </trkpt>
      <trkpt lat="44.17244" lon="5.21079">
        <ele>1040.7</ele>
        <time>2022-07-21T05:55:12Z</time>
      </trkpt>
      <trkpt lat="44.17244" lon="5.21081">
        <ele>1040.9</ele>
        <time>2022-07-21T05:55:13Z</time>
      </trkpt>
      <trkpt lat="44.17244" lon="5.21083">
        <ele>1041</ele>
        <time>2022-07-21T05:55:14Z</time>
      </trkpt>
      <trkpt lat="44.17245" lon="5.21086">
        <ele>1041.2</ele>
        <time>2022-07-21T05:55:15Z</time>
      </trkpt>
      <trkpt lat="44.17245" lon="5.21088">
        <ele>1041.4</ele>
        <time>2022-07-21T05:55:16Z</time>
      </trkpt>
      <trkpt lat="44.17246" lon="5.2109">
        <ele>1041.6</ele>
        <time>2022-07-21T05:55:17Z</time>
      </trkpt>
      <trkpt lat="44.17246" lon="5.21092">
        <ele>1041.7</ele>
        <time>2022-07-21T05:55:18Z</time>
      </trkpt>
      <trkpt lat="44.17246" lon="5.21094">
        <ele>1041.8</ele>
        <time>2022-07-21T05:55:19Z</time>
      </trkpt>
      <trkpt lat="44.17246" lon="5.21096">
        <ele>1042</ele>
        <time>2022-07-21T05:55:20Z</time>
      </trkpt>
      <trkpt lat="44.17246" lon="5.21098">
        <ele>1042.1</ele>
        <time>2022-07-21T05:55:21Z</time>
      </trkpt>
      <trkpt lat="44.17247" lon="5.211">
        <ele>1042.3</ele>
        <time>2022-07-21T05:55:22Z</time>
      </trkpt>
      <trkpt lat="44.17247" lon="5.21102">
        <ele>1042.4</ele>
        <time>2022-07-21T05:55:23Z</time>
      </trkpt>
      <trkpt lat="44.17247" lon="5.21104">
        <ele>1042.6</ele>
        <time>2022-07-21T05:55:24Z</time>
      </trkpt>
      <trkpt lat="44.17247" lon="5.21106">
        <ele>1042.7</ele>
        <time>2022-07-21T05:55:25Z</time>
      </trkpt>
      <trkpt lat="44.17247" lon="5.21108">
        <ele>1042.9</ele>
        <time>2022-07-21T05:55:26Z</time>
      </trkpt>
      <trkpt lat="44.17247" lon="5.21111">
        <ele>1043.1</ele>
        <time>2022-07-21T05:55:27Z</time>
      </trkpt>
      <trkpt lat="44.17248" lon="5.21112">
        <ele>1043.2</ele>
        <time>2022-07-21T05:55:28Z</time>
      </trkpt>
      <trkpt lat="44.17248" lon="5.21113">
        <ele>1043.3</ele>
        <time>2022-07-21T05:55:29Z</time>
      </trkpt>
      <trkpt lat="44.17248" lon="5.21116">
        <ele>1043.4</ele>
        <time>2022-07-21T05:55:30Z</time>
      </trkpt>
      <trkpt lat="44.17249" lon="5.21118">
        <ele>1043.6</ele>
        <time>2022-07-21T05:55:31Z</time>
      </trkpt>
      <trkpt lat="44.17249" lon="5.21121">
        <ele>1043.8</ele>
        <time>2022-07-21T05:55:32Z</time>
      </trkpt>
      <trkpt lat="44.17249" lon="5.21123">
        <ele>1043.9</ele>
        <time>2022-07-21T05:55:33Z</time>
      </trkpt>
      <trkpt lat="44.17249" lon="5.21125">
        <ele>1044.1</ele>
        <time>2022-07-21T05:55:34Z</time>
      </trkpt>
      <trkpt lat="44.1725" lon="5.2113">
        <ele>1044.5</ele>
        <time>2022-07-21T05:55:36Z</time>
      </trkpt>
      <trkpt lat="44.1725" lon="5.21132">
        <ele>1044.6</ele>
        <time>2022-07-21T05:55:37Z</time>
      </trkpt>
      <trkpt lat="44.1725" lon="5.21134">
        <ele>1044.8</ele>
        <time>2022-07-21T05:55:38Z</time>
      </trkpt>
      <trkpt lat="44.1725" lon="5.21136">
        <ele>1044.9</ele>
        <time>2022-07-21T05:55:39Z</time>
      </trkpt>
      <trkpt lat="44.17251" lon="5.21139">
        <ele>1045.1</ele>
        <time>2022-07-21T05:55:40Z</time>
      </trkpt>
      <trkpt lat="44.17251" lon="5.21141">
        <ele>1045.2</ele>
        <time>2022-07-21T05:55:41Z</time>
      </trkpt>
      <trkpt lat="44.17251" lon="5.21143">
        <ele>1045.4</ele>
        <time>2022-07-21T05:55:42Z</time>
      </trkpt>
      <trkpt lat="44.17251" lon="5.21145">
        <ele>1045.6</ele>
        <time>2022-07-21T05:55:43Z</time>
      </trkpt>
      <trkpt lat="44.17251" lon="5.21147">
        <ele>1045.7</ele>
        <time>2022-07-21T05:55:44Z</time>
      </trkpt>
      <trkpt lat="44.1725" lon="5.2115">
        <ele>1045.9</ele>
        <time>2022-07-21T05:55:45Z</time>
      </trkpt>
      <trkpt lat="44.17251" lon="5.21155">
        <ele>1046.4</ele>
        <time>2022-07-21T05:55:47Z</time>
      </trkpt>
      <trkpt lat="44.17251" lon="5.21157">
        <ele>1046.5</ele>
        <time>2022-07-21T05:55:48Z</time>
      </trkpt>
      <trkpt lat="44.17251" lon="5.21159">
        <ele>1046.7</ele>
        <time>2022-07-21T05:55:49Z</time>
      </trkpt>
      <trkpt lat="44.17251" lon="5.21161">
        <ele>1046.9</ele>
        <time>2022-07-21T05:55:50Z</time>
      </trkpt>
      <trkpt lat="44.17252" lon="5.21164">
        <ele>1047</ele>
        <time>2022-07-21T05:55:51Z</time>
      </trkpt>
      <trkpt lat="44.17252" lon="5.21166">
        <ele>1047.2</ele>
        <time>2022-07-21T05:55:52Z</time>
      </trkpt>
      <trkpt lat="44.17253" lon="5.21168">
        <ele>1047.4</ele>
        <time>2022-07-21T05:55:53Z</time>
      </trkpt>
      <trkpt lat="44.17253" lon="5.21171">
        <ele>1047.6</ele>
        <time>2022-07-21T05:55:54Z</time>
      </trkpt>
      <trkpt lat="44.17253" lon="5.21174">
        <ele>1047.9</ele>
        <time>2022-07-21T05:55:55Z</time>
      </trkpt>
      <trkpt lat="44.17253" lon="5.21176">
        <ele>1048</ele>
        <time>2022-07-21T05:55:56Z</time>
      </trkpt>
      <trkpt lat="44.17253" lon="5.21178">
        <ele>1048.2</ele>
        <time>2022-07-21T05:55:57Z</time>
      </trkpt>
      <trkpt lat="44.17253" lon="5.2118">
        <ele>1048.4</ele>
        <time>2022-07-21T05:55:58Z</time>
      </trkpt>
      <trkpt lat="44.17254" lon="5.21182">
        <ele>1048.6</ele>
        <time>2022-07-21T05:55:59Z</time>
      </trkpt>
      <trkpt lat="44.17254" lon="5.21184">
        <ele>1048.8</ele>
        <time>2022-07-21T05:56:00Z</time>
      </trkpt>
      <trkpt lat="44.17254" lon="5.21187">
        <ele>1049</ele>
        <time>2022-07-21T05:56:01Z</time>
      </trkpt>
      <trkpt lat="44.17255" lon="5.21189">
        <ele>1049.2</ele>
        <time>2022-07-21T05:56:02Z</time>
      </trkpt>
      <trkpt lat="44.17255" lon="5.21193">
        <ele>1049.5</ele>
        <time>2022-07-21T05:56:03Z</time>
      </trkpt>
      <trkpt lat="44.17255" lon="5.21194">
        <ele>1049.6</ele>
        <time>2022-07-21T05:56:04Z</time>
      </trkpt>
      <trkpt lat="44.17256" lon="5.21196">
        <ele>1049.8</ele>
        <time>2022-07-21T05:56:05Z</time>
      </trkpt>
      <trkpt lat="44.17256" lon="5.21198">
        <ele>1050</ele>
        <time>2022-07-21T05:56:06Z</time>
      </trkpt>
      <trkpt lat="44.17256" lon="5.21201">
        <ele>1050.2</ele>
        <time>2022-07-21T05:56:07Z</time>
      </trkpt>
      <trkpt lat="44.17256" lon="5.21203">
        <ele>1050.4</ele>
        <time>2022-07-21T05:56:08Z</time>
      </trkpt>
      <trkpt lat="44.17256" lon="5.21205">
        <ele>1050.6</ele>
        <time>2022-07-21T05:56:09Z</time>
      </trkpt>
      <trkpt lat="44.17256" lon="5.21208">
        <ele>1050.8</ele>
        <time>2022-07-21T05:56:10Z</time>
      </trkpt>
      <trkpt lat="44.17256" lon="5.2121">
        <ele>1051.1</ele>
        <time>2022-07-21T05:56:11Z</time>
      </trkpt>
      <trkpt lat="44.17256" lon="5.21213">
        <ele>1051.3</ele>
        <time>2022-07-21T05:56:12Z</time>
      </trkpt>
      <trkpt lat="44.17257" lon="5.21215">
        <ele>1051.5</ele>
        <time>2022-07-21T05:56:13Z</time>
      </trkpt>
      <trkpt lat="44.17257" lon="5.21217">
        <ele>1051.6</ele>
        <time>2022-07-21T05:56:14Z</time>
      </trkpt>
      <trkpt lat="44.17257" lon="5.21219">
        <ele>1051.8</ele>
        <time>2022-07-21T05:56:15Z</time>
      </trkpt>
      <trkpt lat="44.17258" lon="5.21221">
        <ele>1052.1</ele>
        <time>2022-07-21T05:56:16Z</time>
      </trkpt>
      <trkpt lat="44.17259" lon="5.21224">
        <ele>1052.3</ele>
        <time>2022-07-21T05:56:17Z</time>
      </trkpt>
      <trkpt lat="44.17259" lon="5.21226">
        <ele>1052.5</ele>
        <time>2022-07-21T05:56:18Z</time>
      </trkpt>
      <trkpt lat="44.1726" lon="5.21228">
        <ele>1052.7</ele>
        <time>2022-07-21T05:56:19Z</time>
      </trkpt>
      <trkpt lat="44.1726" lon="5.2123">
        <ele>1052.9</ele>
        <time>2022-07-21T05:56:20Z</time>
      </trkpt>
      <trkpt lat="44.17261" lon="5.21234">
        <ele>1053.2</ele>
        <time>2022-07-21T05:56:21Z</time>
      </trkpt>
      <trkpt lat="44.17261" lon="5.21235">
        <ele>1053.3</ele>
        <time>2022-07-21T05:56:22Z</time>
      </trkpt>
      <trkpt lat="44.17262" lon="5.21237">
        <ele>1053.5</ele>
        <time>2022-07-21T05:56:23Z</time>
      </trkpt>
      <trkpt lat="44.17262" lon="5.21239">
        <ele>1053.7</ele>
        <time>2022-07-21T05:56:24Z</time>
      </trkpt>
      <trkpt lat="44.17262" lon="5.21241">
        <ele>1053.9</ele>
        <time>2022-07-21T05:56:25Z</time>
      </trkpt>
      <trkpt lat="44.17263" lon="5.21243">
        <ele>1054.1</ele>
        <time>2022-07-21T05:56:26Z</time>
      </trkpt>
      <trkpt lat="44.17264" lon="5.21245">
        <ele>1054.3</ele>
        <time>2022-07-21T05:56:27Z</time>
      </trkpt>
      <trkpt lat="44.17265" lon="5.21247">
        <ele>1054.5</ele>
        <time>2022-07-21T05:56:28Z</time>
      </trkpt>
      <trkpt lat="44.17266" lon="5.21249">
        <ele>1054.7</ele>
        <time>2022-07-21T05:56:29Z</time>
      </trkpt>
      <trkpt lat="44.17267" lon="5.21251">
        <ele>1054.9</ele>
        <time>2022-07-21T05:56:30Z</time>
      </trkpt>
      <trkpt lat="44.17267" lon="5.21254">
        <ele>1055.1</ele>
        <time>2022-07-21T05:56:31Z</time>
      </trkpt>
      <trkpt lat="44.17268" lon="5.21256">
        <ele>1055.3</ele>
        <time>2022-07-21T05:56:32Z</time>
      </trkpt>
      <trkpt lat="44.17269" lon="5.21258">
        <ele>1055.5</ele>
        <time>2022-07-21T05:56:33Z</time>
      </trkpt>
      <trkpt lat="44.17269" lon="5.2126">
        <ele>1055.7</ele>
        <time>2022-07-21T05:56:34Z</time>
      </trkpt>
      <trkpt lat="44.1727" lon="5.21262">
        <ele>1055.9</ele>
        <time>2022-07-21T05:56:35Z</time>
      </trkpt>
      <trkpt lat="44.1727" lon="5.21264">
        <ele>1056.1</ele>
        <time>2022-07-21T05:56:36Z</time>
      </trkpt>
      <trkpt lat="44.1727" lon="5.21266">
        <ele>1056.2</ele>
        <time>2022-07-21T05:56:37Z</time>
      </trkpt>
      <trkpt lat="44.17271" lon="5.21268">
        <ele>1056.4</ele>
        <time>2022-07-21T05:56:38Z</time>
      </trkpt>
      <trkpt lat="44.17272" lon="5.2127">
        <ele>1056.6</ele>
        <time>2022-07-21T05:56:39Z</time>
      </trkpt>
      <trkpt lat="44.17272" lon="5.21272">
        <ele>1056.8</ele>
        <time>2022-07-21T05:56:40Z</time>
      </trkpt>
      <trkpt lat="44.17273" lon="5.21275">
        <ele>1056.9</ele>
        <time>2022-07-21T05:56:41Z</time>
      </trkpt>
      <trkpt lat="44.17273" lon="5.21277">
        <ele>1057.1</ele>
        <time>2022-07-21T05:56:42Z</time>
      </trkpt>
      <trkpt lat="44.17274" lon="5.21279">
        <ele>1057.3</ele>
        <time>2022-07-21T05:56:43Z</time>
      </trkpt>
      <trkpt lat="44.17274" lon="5.2128">
        <ele>1057.4</ele>
        <time>2022-07-21T05:56:44Z</time>
      </trkpt>
      <trkpt lat="44.17275" lon="5.21282">
        <ele>1057.6</ele>
        <time>2022-07-21T05:56:45Z</time>
      </trkpt>
      <trkpt lat="44.17276" lon="5.21284">
        <ele>1057.8</ele>
        <time>2022-07-21T05:56:46Z</time>
      </trkpt>
      <trkpt lat="44.17276" lon="5.21286">
        <ele>1057.9</ele>
        <time>2022-07-21T05:56:47Z</time>
      </trkpt>
      <trkpt lat="44.17277" lon="5.21288">
        <ele>1058.1</ele>
        <time>2022-07-21T05:56:48Z</time>
      </trkpt>
      <trkpt lat="44.17277" lon="5.2129">
        <ele>1058.2</ele>
        <time>2022-07-21T05:56:49Z</time>
      </trkpt>
      <trkpt lat="44.17278" lon="5.21292">
        <ele>1058.4</ele>
        <time>2022-07-21T05:56:50Z</time>
      </trkpt>
      <trkpt lat="44.17278" lon="5.21294">
        <ele>1058.5</ele>
        <time>2022-07-21T05:56:51Z</time>
      </trkpt>
      <trkpt lat="44.17278" lon="5.21296">
        <ele>1058.7</ele>
        <time>2022-07-21T05:56:52Z</time>
      </trkpt>
      <trkpt lat="44.17279" lon="5.21298">
        <ele>1058.8</ele>
        <time>2022-07-21T05:56:53Z</time>
      </trkpt>
      <trkpt lat="44.17279" lon="5.213">
        <ele>1059</ele>
        <time>2022-07-21T05:56:54Z</time>
      </trkpt>
      <trkpt lat="44.1728" lon="5.21302">
        <ele>1059.1</ele>
        <time>2022-07-21T05:56:55Z</time>
      </trkpt>
      <trkpt lat="44.1728" lon="5.21304">
        <ele>1059.2</ele>
        <time>2022-07-21T05:56:56Z</time>
      </trkpt>
      <trkpt lat="44.17281" lon="5.21306">
        <ele>1059.5</ele>
        <time>2022-07-21T05:56:57Z</time>
      </trkpt>
      <trkpt lat="44.17281" lon="5.21307">
        <ele>1059.5</ele>
        <time>2022-07-21T05:56:58Z</time>
      </trkpt>
      <trkpt lat="44.17282" lon="5.21308">
        <ele>1059.6</ele>
        <time>2022-07-21T05:56:59Z</time>
      </trkpt>
      <trkpt lat="44.17282" lon="5.2131">
        <ele>1059.8</ele>
        <time>2022-07-21T05:57:00Z</time>
      </trkpt>
      <trkpt lat="44.17282" lon="5.21312">
        <ele>1059.9</ele>
        <time>2022-07-21T05:57:01Z</time>
      </trkpt>
      <trkpt lat="44.17282" lon="5.21314">
        <ele>1060.1</ele>
        <time>2022-07-21T05:57:02Z</time>
      </trkpt>
      <trkpt lat="44.17283" lon="5.21316">
        <ele>1060.2</ele>
        <time>2022-07-21T05:57:03Z</time>
      </trkpt>
      <trkpt lat="44.17283" lon="5.21318">
        <ele>1060.4</ele>
        <time>2022-07-21T05:57:04Z</time>
      </trkpt>
      <trkpt lat="44.17284" lon="5.2132">
        <ele>1060.6</ele>
        <time>2022-07-21T05:57:05Z</time>
      </trkpt>
      <trkpt lat="44.17284" lon="5.21322">
        <ele>1060.7</ele>
        <time>2022-07-21T05:57:06Z</time>
      </trkpt>
      <trkpt lat="44.17285" lon="5.21324">
        <ele>1060.9</ele>
        <time>2022-07-21T05:57:07Z</time>
      </trkpt>
      <trkpt lat="44.17286" lon="5.21326">
        <ele>1061.1</ele>
        <time>2022-07-21T05:57:08Z</time>
      </trkpt>
      <trkpt lat="44.17287" lon="5.21328">
        <ele>1061.2</ele>
        <time>2022-07-21T05:57:09Z</time>
      </trkpt>
      <trkpt lat="44.17287" lon="5.2133">
        <ele>1061.4</ele>
        <time>2022-07-21T05:57:10Z</time>
      </trkpt>
      <trkpt lat="44.17288" lon="5.21333">
        <ele>1061.6</ele>
        <time>2022-07-21T05:57:11Z</time>
      </trkpt>
      <trkpt lat="44.17289" lon="5.21335">
        <ele>1061.8</ele>
        <time>2022-07-21T05:57:12Z</time>
      </trkpt>
      <trkpt lat="44.1729" lon="5.21337">
        <ele>1062</ele>
        <time>2022-07-21T05:57:13Z</time>
      </trkpt>
      <trkpt lat="44.1729" lon="5.21339">
        <ele>1062.1</ele>
        <time>2022-07-21T05:57:14Z</time>
      </trkpt>
      <trkpt lat="44.1729" lon="5.21341">
        <ele>1062.3</ele>
        <time>2022-07-21T05:57:15Z</time>
      </trkpt>
      <trkpt lat="44.1729" lon="5.21343">
        <ele>1062.5</ele>
        <time>2022-07-21T05:57:16Z</time>
      </trkpt>
      <trkpt lat="44.1729" lon="5.21345">
        <ele>1062.6</ele>
        <time>2022-07-21T05:57:17Z</time>
      </trkpt>
      <trkpt lat="44.17291" lon="5.21347">
        <ele>1062.8</ele>
        <time>2022-07-21T05:57:18Z</time>
      </trkpt>
      <trkpt lat="44.17291" lon="5.2135">
        <ele>1063</ele>
        <time>2022-07-21T05:57:19Z</time>
      </trkpt>
      <trkpt lat="44.17291" lon="5.21352">
        <ele>1063.2</ele>
        <time>2022-07-21T05:57:20Z</time>
      </trkpt>
      <trkpt lat="44.17292" lon="5.21354">
        <ele>1063.4</ele>
        <time>2022-07-21T05:57:21Z</time>
      </trkpt>
      <trkpt lat="44.17292" lon="5.21356">
        <ele>1063.6</ele>
        <time>2022-07-21T05:57:22Z</time>
      </trkpt>
      <trkpt lat="44.17293" lon="5.21358">
        <ele>1063.7</ele>
        <time>2022-07-21T05:57:23Z</time>
      </trkpt>
      <trkpt lat="44.17294" lon="5.2136">
        <ele>1063.9</ele>
        <time>2022-07-21T05:57:24Z</time>
      </trkpt>
      <trkpt lat="44.17294" lon="5.21362">
        <ele>1064.1</ele>
        <time>2022-07-21T05:57:25Z</time>
      </trkpt>
      <trkpt lat="44.17294" lon="5.21364">
        <ele>1064.3</ele>
        <time>2022-07-21T05:57:26Z</time>
      </trkpt>
      <trkpt lat="44.17295" lon="5.21366">
        <ele>1064.4</ele>
        <time>2022-07-21T05:57:27Z</time>
      </trkpt>
      <trkpt lat="44.17295" lon="5.21369">
        <ele>1064.6</ele>
        <time>2022-07-21T05:57:28Z</time>
      </trkpt>
      <trkpt lat="44.17296" lon="5.21371">
        <ele>1064.8</ele>
        <time>2022-07-21T05:57:29Z</time>
      </trkpt>
      <trkpt lat="44.17296" lon="5.21373">
        <ele>1065</ele>
        <time>2022-07-21T05:57:30Z</time>
      </trkpt>
      <trkpt lat="44.17297" lon="5.21375">
        <ele>1065.2</ele>
        <time>2022-07-21T05:57:31Z</time>
      </trkpt>
      <trkpt lat="44.17297" lon="5.21377">
        <ele>1065.4</ele>
        <time>2022-07-21T05:57:32Z</time>
      </trkpt>
      <trkpt lat="44.17298" lon="5.21379">
        <ele>1065.6</ele>
        <time>2022-07-21T05:57:33Z</time>
      </trkpt>
      <trkpt lat="44.17298" lon="5.21381">
        <ele>1065.7</ele>
        <time>2022-07-21T05:57:34Z</time>
      </trkpt>
      <trkpt lat="44.17298" lon="5.21383">
        <ele>1065.9</ele>
        <time>2022-07-21T05:57:35Z</time>
      </trkpt>
      <trkpt lat="44.17299" lon="5.21385">
        <ele>1066.1</ele>
        <time>2022-07-21T05:57:36Z</time>
      </trkpt>
      <trkpt lat="44.17299" lon="5.21388">
        <ele>1066.3</ele>
        <time>2022-07-21T05:57:37Z</time>
      </trkpt>
      <trkpt lat="44.17299" lon="5.2139">
        <ele>1066.5</ele>
        <time>2022-07-21T05:57:38Z</time>
      </trkpt>
      <trkpt lat="44.17299" lon="5.21392">
        <ele>1066.7</ele>
        <time>2022-07-21T05:57:39Z</time>
      </trkpt>
      <trkpt lat="44.173" lon="5.21394">
        <ele>1066.9</ele>
        <time>2022-07-21T05:57:40Z</time>
      </trkpt>
      <trkpt lat="44.173" lon="5.21396">
        <ele>1067.1</ele>
        <time>2022-07-21T05:57:41Z</time>
      </trkpt>
      <trkpt lat="44.17301" lon="5.21399">
        <ele>1067.3</ele>
        <time>2022-07-21T05:57:42Z</time>
      </trkpt>
      <trkpt lat="44.17301" lon="5.214">
        <ele>1067.5</ele>
        <time>2022-07-21T05:57:43Z</time>
      </trkpt>
      <trkpt lat="44.17301" lon="5.21402">
        <ele>1067.6</ele>
        <time>2022-07-21T05:57:44Z</time>
      </trkpt>
      <trkpt lat="44.17302" lon="5.21404">
        <ele>1067.8</ele>
        <time>2022-07-21T05:57:45Z</time>
      </trkpt>
      <trkpt lat="44.17302" lon="5.21405">
        <ele>1068</ele>
        <time>2022-07-21T05:57:46Z</time>
      </trkpt>
      <trkpt lat="44.17303" lon="5.21407">
        <ele>1068.1</ele>
        <time>2022-07-21T05:57:47Z</time>
      </trkpt>
      <trkpt lat="44.17303" lon="5.21409">
        <ele>1068.3</ele>
        <time>2022-07-21T05:57:48Z</time>
      </trkpt>
      <trkpt lat="44.17304" lon="5.21411">
        <ele>1068.5</ele>
        <time>2022-07-21T05:57:49Z</time>
      </trkpt>
      <trkpt lat="44.17305" lon="5.21412">
        <ele>1068.7</ele>
        <time>2022-07-21T05:57:50Z</time>
      </trkpt>
      <trkpt lat="44.17305" lon="5.21415">
        <ele>1069</ele>
        <time>2022-07-21T05:57:51Z</time>
      </trkpt>
      <trkpt lat="44.17305" lon="5.21416">
        <ele>1069.1</ele>
        <time>2022-07-21T05:57:52Z</time>
      </trkpt>
      <trkpt lat="44.17305" lon="5.21417">
        <ele>1069.2</ele>
        <time>2022-07-21T05:57:53Z</time>
      </trkpt>
      <trkpt lat="44.17306" lon="5.21419">
        <ele>1069.3</ele>
        <time>2022-07-21T05:57:54Z</time>
      </trkpt>
      <trkpt lat="44.17306" lon="5.2142">
        <ele>1069.4</ele>
        <time>2022-07-21T05:57:55Z</time>
      </trkpt>
      <trkpt lat="44.17306" lon="5.21422">
        <ele>1069.6</ele>
        <time>2022-07-21T05:57:56Z</time>
      </trkpt>
      <trkpt lat="44.17307" lon="5.21424">
        <ele>1069.8</ele>
        <time>2022-07-21T05:57:57Z</time>
      </trkpt>
      <trkpt lat="44.17308" lon="5.21425">
        <ele>1070</ele>
        <time>2022-07-21T05:57:58Z</time>
      </trkpt>
      <trkpt lat="44.17309" lon="5.21428">
        <ele>1070.2</ele>
        <time>2022-07-21T05:57:59Z</time>
      </trkpt>
      <trkpt lat="44.17309" lon="5.2143">
        <ele>1070.4</ele>
        <time>2022-07-21T05:58:00Z</time>
      </trkpt>
      <trkpt lat="44.1731" lon="5.21432">
        <ele>1070.6</ele>
        <time>2022-07-21T05:58:01Z</time>
      </trkpt>
      <trkpt lat="44.17311" lon="5.21434">
        <ele>1070.8</ele>
        <time>2022-07-21T05:58:02Z</time>
      </trkpt>
      <trkpt lat="44.17311" lon="5.21436">
        <ele>1071</ele>
        <time>2022-07-21T05:58:03Z</time>
      </trkpt>
      <trkpt lat="44.17312" lon="5.21438">
        <ele>1071.2</ele>
        <time>2022-07-21T05:58:04Z</time>
      </trkpt>
      <trkpt lat="44.17312" lon="5.2144">
        <ele>1071.4</ele>
        <time>2022-07-21T05:58:05Z</time>
      </trkpt>
      <trkpt lat="44.17313" lon="5.21441">
        <ele>1071.6</ele>
        <time>2022-07-21T05:58:06Z</time>
      </trkpt>
      <trkpt lat="44.17313" lon="5.21443">
        <ele>1071.8</ele>
        <time>2022-07-21T05:58:07Z</time>
      </trkpt>
      <trkpt lat="44.17314" lon="5.21446">
        <ele>1072</ele>
        <time>2022-07-21T05:58:08Z</time>
      </trkpt>
      <trkpt lat="44.17314" lon="5.21448">
        <ele>1072.2</ele>
        <time>2022-07-21T05:58:09Z</time>
      </trkpt>
      <trkpt lat="44.17315" lon="5.2145">
        <ele>1072.4</ele>
        <time>2022-07-21T05:58:10Z</time>
      </trkpt>
      <trkpt lat="44.17315" lon="5.21452">
        <ele>1072.6</ele>
        <time>2022-07-21T05:58:11Z</time>
      </trkpt>
      <trkpt lat="44.17316" lon="5.21454">
        <ele>1072.8</ele>
        <time>2022-07-21T05:58:12Z</time>
      </trkpt>
      <trkpt lat="44.17317" lon="5.21456">
        <ele>1073</ele>
        <time>2022-07-21T05:58:13Z</time>
      </trkpt>
      <trkpt lat="44.17318" lon="5.21458">
        <ele>1073.2</ele>
        <time>2022-07-21T05:58:14Z</time>
      </trkpt>
      <trkpt lat="44.17319" lon="5.2146">
        <ele>1073.4</ele>
        <time>2022-07-21T05:58:15Z</time>
      </trkpt>
      <trkpt lat="44.1732" lon="5.21462">
        <ele>1073.6</ele>
        <time>2022-07-21T05:58:16Z</time>
      </trkpt>
      <trkpt lat="44.17321" lon="5.21465">
        <ele>1073.9</ele>
        <time>2022-07-21T05:58:17Z</time>
      </trkpt>
      <trkpt lat="44.17322" lon="5.21466">
        <ele>1074</ele>
        <time>2022-07-21T05:58:18Z</time>
      </trkpt>
      <trkpt lat="44.17322" lon="5.21468">
        <ele>1074.2</ele>
        <time>2022-07-21T05:58:19Z</time>
      </trkpt>
      <trkpt lat="44.17323" lon="5.2147">
        <ele>1074.4</ele>
        <time>2022-07-21T05:58:20Z</time>
      </trkpt>
      <trkpt lat="44.17323" lon="5.21472">
        <ele>1074.6</ele>
        <time>2022-07-21T05:58:21Z</time>
      </trkpt>
      <trkpt lat="44.17324" lon="5.21474">
        <ele>1074.8</ele>
        <time>2022-07-21T05:58:22Z</time>
      </trkpt>
      <trkpt lat="44.17324" lon="5.21476">
        <ele>1074.9</ele>
        <time>2022-07-21T05:58:23Z</time>
      </trkpt>
      <trkpt lat="44.17325" lon="5.21478">
        <ele>1075.1</ele>
        <time>2022-07-21T05:58:24Z</time>
      </trkpt>
      <trkpt lat="44.17325" lon="5.2148">
        <ele>1075.3</ele>
        <time>2022-07-21T05:58:25Z</time>
      </trkpt>
      <trkpt lat="44.17326" lon="5.21482">
        <ele>1075.4</ele>
        <time>2022-07-21T05:58:26Z</time>
      </trkpt>
      <trkpt lat="44.17326" lon="5.21484">
        <ele>1075.6</ele>
        <time>2022-07-21T05:58:27Z</time>
      </trkpt>
      <trkpt lat="44.17327" lon="5.21487">
        <ele>1075.8</ele>
        <time>2022-07-21T05:58:28Z</time>
      </trkpt>
      <trkpt lat="44.17327" lon="5.21489">
        <ele>1076</ele>
        <time>2022-07-21T05:58:29Z</time>
      </trkpt>
      <trkpt lat="44.17328" lon="5.21491">
        <ele>1076.1</ele>
        <time>2022-07-21T05:58:30Z</time>
      </trkpt>
      <trkpt lat="44.17328" lon="5.21493">
        <ele>1076.3</ele>
        <time>2022-07-21T05:58:31Z</time>
      </trkpt>
      <trkpt lat="44.17329" lon="5.21495">
        <ele>1076.5</ele>
        <time>2022-07-21T05:58:32Z</time>
      </trkpt>
      <trkpt lat="44.1733" lon="5.21497">
        <ele>1076.7</ele>
        <time>2022-07-21T05:58:33Z</time>
      </trkpt>
      <trkpt lat="44.17331" lon="5.21498">
        <ele>1076.8</ele>
        <time>2022-07-21T05:58:34Z</time>
      </trkpt>
      <trkpt lat="44.17332" lon="5.215">
        <ele>1077</ele>
        <time>2022-07-21T05:58:35Z</time>
      </trkpt>
      <trkpt lat="44.17332" lon="5.21502">
        <ele>1077.2</ele>
        <time>2022-07-21T05:58:36Z</time>
      </trkpt>
      <trkpt lat="44.17333" lon="5.21505">
        <ele>1077.3</ele>
        <time>2022-07-21T05:58:37Z</time>
      </trkpt>
      <trkpt lat="44.17333" lon="5.21507">
        <ele>1077.5</ele>
        <time>2022-07-21T05:58:38Z</time>
      </trkpt>
      <trkpt lat="44.17334" lon="5.21509">
        <ele>1077.7</ele>
        <time>2022-07-21T05:58:39Z</time>
      </trkpt>
      <trkpt lat="44.17335" lon="5.21511">
        <ele>1077.9</ele>
        <time>2022-07-21T05:58:40Z</time>
      </trkpt>
      <trkpt lat="44.17336" lon="5.21514">
        <ele>1078.1</ele>
        <time>2022-07-21T05:58:41Z</time>
      </trkpt>
      <trkpt lat="44.17336" lon="5.21516">
        <ele>1078.2</ele>
        <time>2022-07-21T05:58:42Z</time>
      </trkpt>
      <trkpt lat="44.17337" lon="5.21518">
        <ele>1078.4</ele>
        <time>2022-07-21T05:58:43Z</time>
      </trkpt>
      <trkpt lat="44.17338" lon="5.2152">
        <ele>1078.6</ele>
        <time>2022-07-21T05:58:44Z</time>
      </trkpt>
      <trkpt lat="44.17338" lon="5.21522">
        <ele>1078.7</ele>
        <time>2022-07-21T05:58:45Z</time>
      </trkpt>
      <trkpt lat="44.17339" lon="5.21524">
        <ele>1078.9</ele>
        <time>2022-07-21T05:58:46Z</time>
      </trkpt>
      <trkpt lat="44.17339" lon="5.21526">
        <ele>1079.1</ele>
        <time>2022-07-21T05:58:47Z</time>
      </trkpt>
      <trkpt lat="44.1734" lon="5.21528">
        <ele>1079.2</ele>
        <time>2022-07-21T05:58:48Z</time>
      </trkpt>
      <trkpt lat="44.17341" lon="5.21531">
        <ele>1079.4</ele>
        <time>2022-07-21T05:58:49Z</time>
      </trkpt>
      <trkpt lat="44.17341" lon="5.21532">
        <ele>1079.5</ele>
        <time>2022-07-21T05:58:50Z</time>
      </trkpt>
      <trkpt lat="44.17342" lon="5.21533">
        <ele>1079.6</ele>
        <time>2022-07-21T05:58:51Z</time>
      </trkpt>
      <trkpt lat="44.17342" lon="5.21535">
        <ele>1079.8</ele>
        <time>2022-07-21T05:58:52Z</time>
      </trkpt>
      <trkpt lat="44.17343" lon="5.21537">
        <ele>1079.9</ele>
        <time>2022-07-21T05:58:53Z</time>
      </trkpt>
      <trkpt lat="44.17344" lon="5.21539">
        <ele>1080.1</ele>
        <time>2022-07-21T05:58:54Z</time>
      </trkpt>
      <trkpt lat="44.17344" lon="5.21541">
        <ele>1080.2</ele>
        <time>2022-07-21T05:58:55Z</time>
      </trkpt>
      <trkpt lat="44.17345" lon="5.21544">
        <ele>1080.4</ele>
        <time>2022-07-21T05:58:56Z</time>
      </trkpt>
      <trkpt lat="44.17345" lon="5.21546">
        <ele>1080.5</ele>
        <time>2022-07-21T05:58:57Z</time>
      </trkpt>
      <trkpt lat="44.17346" lon="5.21547">
        <ele>1080.7</ele>
        <time>2022-07-21T05:58:58Z</time>
      </trkpt>
      <trkpt lat="44.17346" lon="5.2155">
        <ele>1080.8</ele>
        <time>2022-07-21T05:58:59Z</time>
      </trkpt>
      <trkpt lat="44.17347" lon="5.21552">
        <ele>1081</ele>
        <time>2022-07-21T05:59:00Z</time>
      </trkpt>
      <trkpt lat="44.17347" lon="5.21554">
        <ele>1081.1</ele>
        <time>2022-07-21T05:59:01Z</time>
      </trkpt>
      <trkpt lat="44.17348" lon="5.21556">
        <ele>1081.3</ele>
        <time>2022-07-21T05:59:02Z</time>
      </trkpt>
      <trkpt lat="44.17348" lon="5.21557">
        <ele>1081.4</ele>
        <time>2022-07-21T05:59:03Z</time>
      </trkpt>
      <trkpt lat="44.17348" lon="5.21559">
        <ele>1081.5</ele>
        <time>2022-07-21T05:59:04Z</time>
      </trkpt>
      <trkpt lat="44.17349" lon="5.21561">
        <ele>1081.7</ele>
        <time>2022-07-21T05:59:05Z</time>
      </trkpt>
      <trkpt lat="44.17349" lon="5.21563">
        <ele>1081.8</ele>
        <time>2022-07-21T05:59:06Z</time>
      </trkpt>
      <trkpt lat="44.1735" lon="5.21564">
        <ele>1081.9</ele>
        <time>2022-07-21T05:59:07Z</time>
      </trkpt>
      <trkpt lat="44.1735" lon="5.21566">
        <ele>1082</ele>
        <time>2022-07-21T05:59:08Z</time>
      </trkpt>
      <trkpt lat="44.17351" lon="5.21568">
        <ele>1082.2</ele>
        <time>2022-07-21T05:59:09Z</time>
      </trkpt>
      <trkpt lat="44.17352" lon="5.2157">
        <ele>1082.4</ele>
        <time>2022-07-21T05:59:10Z</time>
      </trkpt>
      <trkpt lat="44.17352" lon="5.21572">
        <ele>1082.5</ele>
        <time>2022-07-21T05:59:11Z</time>
      </trkpt>
      <trkpt lat="44.17353" lon="5.21573">
        <ele>1082.6</ele>
        <time>2022-07-21T05:59:12Z</time>
      </trkpt>
      <trkpt lat="44.17354" lon="5.21575">
        <ele>1082.8</ele>
        <time>2022-07-21T05:59:13Z</time>
      </trkpt>
      <trkpt lat="44.17354" lon="5.21577">
        <ele>1082.9</ele>
        <time>2022-07-21T05:59:14Z</time>
      </trkpt>
      <trkpt lat="44.17355" lon="5.21578">
        <ele>1083</ele>
        <time>2022-07-21T05:59:15Z</time>
      </trkpt>
      <trkpt lat="44.17355" lon="5.2158">
        <ele>1083.1</ele>
        <time>2022-07-21T05:59:16Z</time>
      </trkpt>
      <trkpt lat="44.17355" lon="5.21582">
        <ele>1083.3</ele>
        <time>2022-07-21T05:59:17Z</time>
      </trkpt>
      <trkpt lat="44.17356" lon="5.21585">
        <ele>1083.5</ele>
        <time>2022-07-21T05:59:18Z</time>
      </trkpt>
      <trkpt lat="44.17357" lon="5.21587">
        <ele>1083.6</ele>
        <time>2022-07-21T05:59:19Z</time>
      </trkpt>
      <trkpt lat="44.17358" lon="5.2159">
        <ele>1083.9</ele>
        <time>2022-07-21T05:59:20Z</time>
      </trkpt>
      <trkpt lat="44.17358" lon="5.21592">
        <ele>1084</ele>
        <time>2022-07-21T05:59:21Z</time>
      </trkpt>
      <trkpt lat="44.17359" lon="5.21594">
        <ele>1084.2</ele>
        <time>2022-07-21T05:59:22Z</time>
      </trkpt>
      <trkpt lat="44.17359" lon="5.21596">
        <ele>1084.3</ele>
        <time>2022-07-21T05:59:23Z</time>
      </trkpt>
      <trkpt lat="44.17359" lon="5.21597">
        <ele>1084.4</ele>
        <time>2022-07-21T05:59:24Z</time>
      </trkpt>
      <trkpt lat="44.1736" lon="5.21599">
        <ele>1084.6</ele>
        <time>2022-07-21T05:59:25Z</time>
      </trkpt>
      <trkpt lat="44.1736" lon="5.216">
        <ele>1084.7</ele>
        <time>2022-07-21T05:59:26Z</time>
      </trkpt>
      <trkpt lat="44.17361" lon="5.21603">
        <ele>1084.9</ele>
        <time>2022-07-21T05:59:27Z</time>
      </trkpt>
      <trkpt lat="44.17362" lon="5.21605">
        <ele>1085</ele>
        <time>2022-07-21T05:59:28Z</time>
      </trkpt>
      <trkpt lat="44.17362" lon="5.21607">
        <ele>1085.2</ele>
        <time>2022-07-21T05:59:29Z</time>
      </trkpt>
      <trkpt lat="44.17362" lon="5.21609">
        <ele>1085.4</ele>
        <time>2022-07-21T05:59:30Z</time>
      </trkpt>
      <trkpt lat="44.17363" lon="5.21611">
        <ele>1085.5</ele>
        <time>2022-07-21T05:59:31Z</time>
      </trkpt>
      <trkpt lat="44.17364" lon="5.21614">
        <ele>1085.7</ele>
        <time>2022-07-21T05:59:32Z</time>
      </trkpt>
      <trkpt lat="44.17365" lon="5.21617">
        <ele>1086</ele>
        <time>2022-07-21T05:59:33Z</time>
      </trkpt>
      <trkpt lat="44.17365" lon="5.21618">
        <ele>1086.1</ele>
        <time>2022-07-21T05:59:34Z</time>
      </trkpt>
      <trkpt lat="44.17366" lon="5.2162">
        <ele>1086.3</ele>
        <time>2022-07-21T05:59:35Z</time>
      </trkpt>
      <trkpt lat="44.17366" lon="5.21623">
        <ele>1086.4</ele>
        <time>2022-07-21T05:59:36Z</time>
      </trkpt>
      <trkpt lat="44.17367" lon="5.21625">
        <ele>1086.6</ele>
        <time>2022-07-21T05:59:37Z</time>
      </trkpt>
      <trkpt lat="44.17367" lon="5.21627">
        <ele>1086.8</ele>
        <time>2022-07-21T05:59:38Z</time>
      </trkpt>
      <trkpt lat="44.17368" lon="5.21629">
        <ele>1086.9</ele>
        <time>2022-07-21T05:59:39Z</time>
      </trkpt>
      <trkpt lat="44.17368" lon="5.21631">
        <ele>1087.1</ele>
        <time>2022-07-21T05:59:40Z</time>
      </trkpt>
      <trkpt lat="44.17369" lon="5.21633">
        <ele>1087.3</ele>
        <time>2022-07-21T05:59:41Z</time>
      </trkpt>
      <trkpt lat="44.1737" lon="5.21635">
        <ele>1087.4</ele>
        <time>2022-07-21T05:59:42Z</time>
      </trkpt>
      <trkpt lat="44.1737" lon="5.21636">
        <ele>1087.5</ele>
        <time>2022-07-21T05:59:43Z</time>
      </trkpt>
      <trkpt lat="44.17371" lon="5.21638">
        <ele>1087.7</ele>
        <time>2022-07-21T05:59:44Z</time>
      </trkpt>
      <trkpt lat="44.17372" lon="5.21639">
        <ele>1087.8</ele>
        <time>2022-07-21T05:59:45Z</time>
      </trkpt>
      <trkpt lat="44.17372" lon="5.21641">
        <ele>1088</ele>
        <time>2022-07-21T05:59:46Z</time>
      </trkpt>
      <trkpt lat="44.17372" lon="5.21642">
        <ele>1088.1</ele>
        <time>2022-07-21T05:59:47Z</time>
      </trkpt>
      <trkpt lat="44.17373" lon="5.21645">
        <ele>1088.3</ele>
        <time>2022-07-21T05:59:48Z</time>
      </trkpt>
      <trkpt lat="44.17373" lon="5.21647">
        <ele>1088.5</ele>
        <time>2022-07-21T05:59:49Z</time>
      </trkpt>
      <trkpt lat="44.17374" lon="5.21648">
        <ele>1088.6</ele>
        <time>2022-07-21T05:59:50Z</time>
      </trkpt>
      <trkpt lat="44.17375" lon="5.21654">
        <ele>1089.1</ele>
        <time>2022-07-21T05:59:52Z</time>
      </trkpt>
      <trkpt lat="44.17375" lon="5.21655">
        <ele>1089.2</ele>
        <time>2022-07-21T05:59:53Z</time>
      </trkpt>
      <trkpt lat="44.17375" lon="5.21656">
        <ele>1089.3</ele>
        <time>2022-07-21T05:59:54Z</time>
      </trkpt>
      <trkpt lat="44.17375" lon="5.21658">
        <ele>1089.5</ele>
        <time>2022-07-21T05:59:55Z</time>
      </trkpt>
      <trkpt lat="44.17376" lon="5.2166">
        <ele>1089.6</ele>
        <time>2022-07-21T05:59:56Z</time>
      </trkpt>
      <trkpt lat="44.17376" lon="5.21662">
        <ele>1089.8</ele>
        <time>2022-07-21T05:59:57Z</time>
      </trkpt>
      <trkpt lat="44.17378" lon="5.21665">
        <ele>1090.2</ele>
        <time>2022-07-21T05:59:58Z</time>
      </trkpt>
      <trkpt lat="44.17378" lon="5.21667">
        <ele>1090.3</ele>
        <time>2022-07-21T05:59:59Z</time>
      </trkpt>
      <trkpt lat="44.17379" lon="5.2167">
        <ele>1090.7</ele>
        <time>2022-07-21T06:00:00Z</time>
      </trkpt>
      <trkpt lat="44.17379" lon="5.21671">
        <ele>1090.8</ele>
        <time>2022-07-21T06:00:01Z</time>
      </trkpt>
      <trkpt lat="44.1738" lon="5.21674">
        <ele>1091</ele>
        <time>2022-07-21T06:00:02Z</time>
      </trkpt>
      <trkpt lat="44.17381" lon="5.21676">
        <ele>1091.2</ele>
        <time>2022-07-21T06:00:03Z</time>
      </trkpt>
      <trkpt lat="44.17381" lon="5.21678">
        <ele>1091.4</ele>
        <time>2022-07-21T06:00:04Z</time>
      </trkpt>
      <trkpt lat="44.17382" lon="5.2168">
        <ele>1091.6</ele>
        <time>2022-07-21T06:00:05Z</time>
      </trkpt>
      <trkpt lat="44.17382" lon="5.21683">
        <ele>1091.9</ele>
        <time>2022-07-21T06:00:06Z</time>
      </trkpt>
      <trkpt lat="44.17382" lon="5.21684">
        <ele>1092</ele>
        <time>2022-07-21T06:00:07Z</time>
      </trkpt>
      <trkpt lat="44.17382" lon="5.21685">
        <ele>1092.1</ele>
        <time>2022-07-21T06:00:08Z</time>
      </trkpt>
      <trkpt lat="44.17382" lon="5.21687">
        <ele>1092.3</ele>
        <time>2022-07-21T06:00:09Z</time>
      </trkpt>
      <trkpt lat="44.17382" lon="5.21689">
        <ele>1092.5</ele>
        <time>2022-07-21T06:00:10Z</time>
      </trkpt>
      <trkpt lat="44.17382" lon="5.21691">
        <ele>1092.7</ele>
        <time>2022-07-21T06:00:11Z</time>
      </trkpt>
      <trkpt lat="44.17382" lon="5.21693">
        <ele>1092.9</ele>
        <time>2022-07-21T06:00:12Z</time>
      </trkpt>
      <trkpt lat="44.17382" lon="5.21695">
        <ele>1093.2</ele>
        <time>2022-07-21T06:00:13Z</time>
      </trkpt>
      <trkpt lat="44.17382" lon="5.21698">
        <ele>1093.4</ele>
        <time>2022-07-21T06:00:14Z</time>
      </trkpt>
      <trkpt lat="44.17382" lon="5.217">
        <ele>1093.6</ele>
        <time>2022-07-21T06:00:15Z</time>
      </trkpt>
      <trkpt lat="44.17381" lon="5.21702">
        <ele>1093.8</ele>
        <time>2022-07-21T06:00:16Z</time>
      </trkpt>
      <trkpt lat="44.17381" lon="5.21705">
        <ele>1094.1</ele>
        <time>2022-07-21T06:00:17Z</time>
      </trkpt>
      <trkpt lat="44.1738" lon="5.21706">
        <ele>1094.3</ele>
        <time>2022-07-21T06:00:18Z</time>
      </trkpt>
      <trkpt lat="44.1738" lon="5.21707">
        <ele>1094.4</ele>
        <time>2022-07-21T06:00:19Z</time>
      </trkpt>
      <trkpt lat="44.1738" lon="5.2171">
        <ele>1095</ele>
        <time>2022-07-21T06:00:20Z</time>
      </trkpt>
      <trkpt lat="44.17379" lon="5.21712">
        <ele>1095.1</ele>
        <time>2022-07-21T06:00:21Z</time>
      </trkpt>
      <trkpt lat="44.17378" lon="5.21714">
        <ele>1095.4</ele>
        <time>2022-07-21T06:00:22Z</time>
      </trkpt>
      <trkpt lat="44.17377" lon="5.21715">
        <ele>1095.5</ele>
        <time>2022-07-21T06:00:23Z</time>
      </trkpt>
      <trkpt lat="44.17376" lon="5.21716">
        <ele>1095.6</ele>
        <time>2022-07-21T06:00:24Z</time>
      </trkpt>
      <trkpt lat="44.17376" lon="5.21717">
        <ele>1095.7</ele>
        <time>2022-07-21T06:00:25Z</time>
      </trkpt>
      <trkpt lat="44.17375" lon="5.21719">
        <ele>1095.9</ele>
        <time>2022-07-21T06:00:26Z</time>
      </trkpt>
      <trkpt lat="44.17375" lon="5.21721">
        <ele>1096.1</ele>
        <time>2022-07-21T06:00:27Z</time>
      </trkpt>
      <trkpt lat="44.17374" lon="5.21723">
        <ele>1096.2</ele>
        <time>2022-07-21T06:00:28Z</time>
      </trkpt>
      <trkpt lat="44.17373" lon="5.21725">
        <ele>1096.4</ele>
        <time>2022-07-21T06:00:29Z</time>
      </trkpt>
      <trkpt lat="44.17373" lon="5.21727">
        <ele>1096.5</ele>
        <time>2022-07-21T06:00:30Z</time>
      </trkpt>
      <trkpt lat="44.17372" lon="5.21729">
        <ele>1096.7</ele>
        <time>2022-07-21T06:00:31Z</time>
      </trkpt>
      <trkpt lat="44.17371" lon="5.21731">
        <ele>1096.9</ele>
        <time>2022-07-21T06:00:32Z</time>
      </trkpt>
      <trkpt lat="44.1737" lon="5.21733">
        <ele>1097</ele>
        <time>2022-07-21T06:00:33Z</time>
      </trkpt>
      <trkpt lat="44.17369" lon="5.21735">
        <ele>1097.2</ele>
        <time>2022-07-21T06:00:34Z</time>
      </trkpt>
      <trkpt lat="44.17368" lon="5.21737">
        <ele>1097.4</ele>
        <time>2022-07-21T06:00:35Z</time>
      </trkpt>
      <trkpt lat="44.17367" lon="5.21739">
        <ele>1097.5</ele>
        <time>2022-07-21T06:00:36Z</time>
      </trkpt>
      <trkpt lat="44.17366" lon="5.2174">
        <ele>1097.7</ele>
        <time>2022-07-21T06:00:37Z</time>
      </trkpt>
      <trkpt lat="44.17366" lon="5.21742">
        <ele>1097.8</ele>
        <time>2022-07-21T06:00:38Z</time>
      </trkpt>
      <trkpt lat="44.17365" lon="5.21744">
        <ele>1098</ele>
        <time>2022-07-21T06:00:39Z</time>
      </trkpt>
      <trkpt lat="44.17364" lon="5.21746">
        <ele>1098.1</ele>
        <time>2022-07-21T06:00:40Z</time>
      </trkpt>
      <trkpt lat="44.17363" lon="5.21748">
        <ele>1098.3</ele>
        <time>2022-07-21T06:00:41Z</time>
      </trkpt>
      <trkpt lat="44.17362" lon="5.2175">
        <ele>1098.5</ele>
        <time>2022-07-21T06:00:42Z</time>
      </trkpt>
      <trkpt lat="44.17361" lon="5.21752">
        <ele>1098.6</ele>
        <time>2022-07-21T06:00:43Z</time>
      </trkpt>
      <trkpt lat="44.1736" lon="5.21753">
        <ele>1098.8</ele>
        <time>2022-07-21T06:00:44Z</time>
      </trkpt>
      <trkpt lat="44.17359" lon="5.21755">
        <ele>1099</ele>
        <time>2022-07-21T06:00:45Z</time>
      </trkpt>
      <trkpt lat="44.17358" lon="5.21757">
        <ele>1099.1</ele>
        <time>2022-07-21T06:00:46Z</time>
      </trkpt>
      <trkpt lat="44.17357" lon="5.21759">
        <ele>1099.3</ele>
        <time>2022-07-21T06:00:47Z</time>
      </trkpt>
      <trkpt lat="44.17356" lon="5.21761">
        <ele>1099.5</ele>
        <time>2022-07-21T06:00:48Z</time>
      </trkpt>
      <trkpt lat="44.17355" lon="5.21763">
        <ele>1099.7</ele>
        <time>2022-07-21T06:00:49Z</time>
      </trkpt>
      <trkpt lat="44.17355" lon="5.21765">
        <ele>1099.8</ele>
        <time>2022-07-21T06:00:50Z</time>
      </trkpt>
      <trkpt lat="44.17354" lon="5.21767">
        <ele>1100</ele>
        <time>2022-07-21T06:00:51Z</time>
      </trkpt>
      <trkpt lat="44.17353" lon="5.21769">
        <ele>1100.1</ele>
        <time>2022-07-21T06:00:52Z</time>
      </trkpt>
      <trkpt lat="44.17352" lon="5.2177">
        <ele>1100.3</ele>
        <time>2022-07-21T06:00:53Z</time>
      </trkpt>
      <trkpt lat="44.17351" lon="5.21772">
        <ele>1100.5</ele>
        <time>2022-07-21T06:00:54Z</time>
      </trkpt>
      <trkpt lat="44.1735" lon="5.21774">
        <ele>1100.6</ele>
        <time>2022-07-21T06:00:55Z</time>
      </trkpt>
      <trkpt lat="44.17349" lon="5.21775">
        <ele>1100.8</ele>
        <time>2022-07-21T06:00:56Z</time>
      </trkpt>
      <trkpt lat="44.17348" lon="5.21777">
        <ele>1101</ele>
        <time>2022-07-21T06:00:57Z</time>
      </trkpt>
      <trkpt lat="44.17347" lon="5.21779">
        <ele>1101.2</ele>
        <time>2022-07-21T06:00:58Z</time>
      </trkpt>
      <trkpt lat="44.17346" lon="5.2178">
        <ele>1101.3</ele>
        <time>2022-07-21T06:00:59Z</time>
      </trkpt>
      <trkpt lat="44.17345" lon="5.21782">
        <ele>1101.5</ele>
        <time>2022-07-21T06:01:00Z</time>
      </trkpt>
      <trkpt lat="44.17343" lon="5.21784">
        <ele>1101.7</ele>
        <time>2022-07-21T06:01:01Z</time>
      </trkpt>
      <trkpt lat="44.17342" lon="5.21786">
        <ele>1101.9</ele>
        <time>2022-07-21T06:01:02Z</time>
      </trkpt>
      <trkpt lat="44.17341" lon="5.21789">
        <ele>1102.2</ele>
        <time>2022-07-21T06:01:03Z</time>
      </trkpt>
      <trkpt lat="44.1734" lon="5.2179">
        <ele>1102.3</ele>
        <time>2022-07-21T06:01:04Z</time>
      </trkpt>
      <trkpt lat="44.17339" lon="5.21791">
        <ele>1102.5</ele>
        <time>2022-07-21T06:01:05Z</time>
      </trkpt>
      <trkpt lat="44.17338" lon="5.21793">
        <ele>1102.7</ele>
        <time>2022-07-21T06:01:06Z</time>
      </trkpt>
      <trkpt lat="44.17337" lon="5.21795">
        <ele>1102.9</ele>
        <time>2022-07-21T06:01:07Z</time>
      </trkpt>
      <trkpt lat="44.17336" lon="5.21797">
        <ele>1103.1</ele>
        <time>2022-07-21T06:01:08Z</time>
      </trkpt>
      <trkpt lat="44.17335" lon="5.21799">
        <ele>1103.3</ele>
        <time>2022-07-21T06:01:09Z</time>
      </trkpt>
      <trkpt lat="44.17334" lon="5.21801">
        <ele>1103.5</ele>
        <time>2022-07-21T06:01:10Z</time>
      </trkpt>
      <trkpt lat="44.17333" lon="5.21803">
        <ele>1103.7</ele>
        <time>2022-07-21T06:01:11Z</time>
      </trkpt>
      <trkpt lat="44.17332" lon="5.21805">
        <ele>1103.9</ele>
        <time>2022-07-21T06:01:12Z</time>
      </trkpt>
      <trkpt lat="44.17331" lon="5.21807">
        <ele>1104.1</ele>
        <time>2022-07-21T06:01:13Z</time>
      </trkpt>
      <trkpt lat="44.1733" lon="5.21809">
        <ele>1104.3</ele>
        <time>2022-07-21T06:01:14Z</time>
      </trkpt>
      <trkpt lat="44.17329" lon="5.21811">
        <ele>1104.5</ele>
        <time>2022-07-21T06:01:15Z</time>
      </trkpt>
      <trkpt lat="44.17329" lon="5.21812">
        <ele>1104.6</ele>
        <time>2022-07-21T06:01:16Z</time>
      </trkpt>
      <trkpt lat="44.17328" lon="5.21814">
        <ele>1104.8</ele>
        <time>2022-07-21T06:01:17Z</time>
      </trkpt>
      <trkpt lat="44.17327" lon="5.21816">
        <ele>1105</ele>
        <time>2022-07-21T06:01:18Z</time>
      </trkpt>
      <trkpt lat="44.17326" lon="5.21818">
        <ele>1105.2</ele>
        <time>2022-07-21T06:01:19Z</time>
      </trkpt>
      <trkpt lat="44.17326" lon="5.2182">
        <ele>1105.4</ele>
        <time>2022-07-21T06:01:20Z</time>
      </trkpt>
      <trkpt lat="44.17325" lon="5.21824">
        <ele>1105.8</ele>
        <time>2022-07-21T06:01:21Z</time>
      </trkpt>
      <trkpt lat="44.17324" lon="5.21826">
        <ele>1105.9</ele>
        <time>2022-07-21T06:01:22Z</time>
      </trkpt>
      <trkpt lat="44.17324" lon="5.21829">
        <ele>1106.2</ele>
        <time>2022-07-21T06:01:23Z</time>
      </trkpt>
      <trkpt lat="44.17324" lon="5.21831">
        <ele>1106.4</ele>
        <time>2022-07-21T06:01:24Z</time>
      </trkpt>
      <trkpt lat="44.17323" lon="5.21833">
        <ele>1106.5</ele>
        <time>2022-07-21T06:01:25Z</time>
      </trkpt>
      <trkpt lat="44.17323" lon="5.21835">
        <ele>1106.8</ele>
        <time>2022-07-21T06:01:26Z</time>
      </trkpt>
      <trkpt lat="44.17322" lon="5.21838">
        <ele>1107</ele>
        <time>2022-07-21T06:01:27Z</time>
      </trkpt>
      <trkpt lat="44.17322" lon="5.21839">
        <ele>1107.1</ele>
        <time>2022-07-21T06:01:28Z</time>
      </trkpt>
      <trkpt lat="44.17322" lon="5.2184">
        <ele>1107.2</ele>
        <time>2022-07-21T06:01:29Z</time>
      </trkpt>
      <trkpt lat="44.17321" lon="5.21842">
        <ele>1107.4</ele>
        <time>2022-07-21T06:01:30Z</time>
      </trkpt>
      <trkpt lat="44.17321" lon="5.21844">
        <ele>1107.6</ele>
        <time>2022-07-21T06:01:31Z</time>
      </trkpt>
      <trkpt lat="44.1732" lon="5.21846">
        <ele>1107.8</ele>
        <time>2022-07-21T06:01:32Z</time>
      </trkpt>
      <trkpt lat="44.1732" lon="5.21848">
        <ele>1107.9</ele>
        <time>2022-07-21T06:01:33Z</time>
      </trkpt>
      <trkpt lat="44.1732" lon="5.2185">
        <ele>1108.1</ele>
        <time>2022-07-21T06:01:34Z</time>
      </trkpt>
      <trkpt lat="44.17319" lon="5.21852">
        <ele>1108.3</ele>
        <time>2022-07-21T06:01:35Z</time>
      </trkpt>
      <trkpt lat="44.17319" lon="5.21854">
        <ele>1108.4</ele>
        <time>2022-07-21T06:01:36Z</time>
      </trkpt>
      <trkpt lat="44.17318" lon="5.21856">
        <ele>1108.6</ele>
        <time>2022-07-21T06:01:37Z</time>
      </trkpt>
      <trkpt lat="44.17318" lon="5.21858">
        <ele>1108.8</ele>
        <time>2022-07-21T06:01:38Z</time>
      </trkpt>
      <trkpt lat="44.17318" lon="5.2186">
        <ele>1109</ele>
        <time>2022-07-21T06:01:39Z</time>
      </trkpt>
      <trkpt lat="44.17317" lon="5.21863">
        <ele>1109.3</ele>
        <time>2022-07-21T06:01:40Z</time>
      </trkpt>
      <trkpt lat="44.17316" lon="5.21864">
        <ele>1109.4</ele>
        <time>2022-07-21T06:01:42Z</time>
      </trkpt>
      <trkpt lat="44.17316" lon="5.21866">
        <ele>1109.6</ele>
        <time>2022-07-21T06:01:43Z</time>
      </trkpt>
      <trkpt lat="44.17315" lon="5.21868">
        <ele>1109.8</ele>
        <time>2022-07-21T06:01:44Z</time>
      </trkpt>
      <trkpt lat="44.17315" lon="5.2187">
        <ele>1109.9</ele>
        <time>2022-07-21T06:01:45Z</time>
      </trkpt>
      <trkpt lat="44.17315" lon="5.21873">
        <ele>1110.2</ele>
        <time>2022-07-21T06:01:46Z</time>
      </trkpt>
      <trkpt lat="44.17315" lon="5.21874">
        <ele>1110.3</ele>
        <time>2022-07-21T06:01:47Z</time>
      </trkpt>
      <trkpt lat="44.17314" lon="5.21876">
        <ele>1110.4</ele>
        <time>2022-07-21T06:01:48Z</time>
      </trkpt>
      <trkpt lat="44.17315" lon="5.21878">
        <ele>1110.6</ele>
        <time>2022-07-21T06:01:49Z</time>
      </trkpt>
      <trkpt lat="44.17315" lon="5.2188">
        <ele>1110.7</ele>
        <time>2022-07-21T06:01:50Z</time>
      </trkpt>
      <trkpt lat="44.17315" lon="5.21882">
        <ele>1110.9</ele>
        <time>2022-07-21T06:01:51Z</time>
      </trkpt>
      <trkpt lat="44.17314" lon="5.21884">
        <ele>1111</ele>
        <time>2022-07-21T06:01:52Z</time>
      </trkpt>
      <trkpt lat="44.17314" lon="5.21886">
        <ele>1111.2</ele>
        <time>2022-07-21T06:01:53Z</time>
      </trkpt>
      <trkpt lat="44.17314" lon="5.21887">
        <ele>1111.3</ele>
        <time>2022-07-21T06:01:54Z</time>
      </trkpt>
      <trkpt lat="44.17314" lon="5.21889">
        <ele>1111.4</ele>
        <time>2022-07-21T06:01:55Z</time>
      </trkpt>
      <trkpt lat="44.17313" lon="5.21892">
        <ele>1111.7</ele>
        <time>2022-07-21T06:01:56Z</time>
      </trkpt>
      <trkpt lat="44.17313" lon="5.21893">
        <ele>1111.8</ele>
        <time>2022-07-21T06:01:57Z</time>
      </trkpt>
      <trkpt lat="44.17313" lon="5.21894">
        <ele>1111.9</ele>
        <time>2022-07-21T06:01:58Z</time>
      </trkpt>
      <trkpt lat="44.17313" lon="5.21896">
        <ele>1112</ele>
        <time>2022-07-21T06:01:59Z</time>
      </trkpt>
      <trkpt lat="44.17312" lon="5.21899">
        <ele>1112.2</ele>
        <time>2022-07-21T06:02:00Z</time>
      </trkpt>
      <trkpt lat="44.17312" lon="5.219">
        <ele>1112.3</ele>
        <time>2022-07-21T06:02:01Z</time>
      </trkpt>
      <trkpt lat="44.17312" lon="5.21902">
        <ele>1112.5</ele>
        <time>2022-07-21T06:02:02Z</time>
      </trkpt>
      <trkpt lat="44.17311" lon="5.21905">
        <ele>1112.7</ele>
        <time>2022-07-21T06:02:03Z</time>
      </trkpt>
      <trkpt lat="44.17311" lon="5.21906">
        <ele>1112.8</ele>
        <time>2022-07-21T06:02:04Z</time>
      </trkpt>
      <trkpt lat="44.17311" lon="5.21907">
        <ele>1112.9</ele>
        <time>2022-07-21T06:02:05Z</time>
      </trkpt>
      <trkpt lat="44.1731" lon="5.21909">
        <ele>1113.1</ele>
        <time>2022-07-21T06:02:06Z</time>
      </trkpt>
      <trkpt lat="44.1731" lon="5.21911">
        <ele>1113.2</ele>
        <time>2022-07-21T06:02:07Z</time>
      </trkpt>
      <trkpt lat="44.17309" lon="5.21914">
        <ele>1113.5</ele>
        <time>2022-07-21T06:02:08Z</time>
      </trkpt>
      <trkpt lat="44.17309" lon="5.21916">
        <ele>1113.6</ele>
        <time>2022-07-21T06:02:09Z</time>
      </trkpt>
      <trkpt lat="44.17309" lon="5.21917">
        <ele>1113.7</ele>
        <time>2022-07-21T06:02:10Z</time>
      </trkpt>
      <trkpt lat="44.17309" lon="5.21919">
        <ele>1113.9</ele>
        <time>2022-07-21T06:02:11Z</time>
      </trkpt>
      <trkpt lat="44.17309" lon="5.21921">
        <ele>1114</ele>
        <time>2022-07-21T06:02:12Z</time>
      </trkpt>
      <trkpt lat="44.17309" lon="5.21923">
        <ele>1114.2</ele>
        <time>2022-07-21T06:02:13Z</time>
      </trkpt>
      <trkpt lat="44.1731" lon="5.21925">
        <ele>1114.4</ele>
        <time>2022-07-21T06:02:14Z</time>
      </trkpt>
      <trkpt lat="44.1731" lon="5.21929">
        <ele>1114.7</ele>
        <time>2022-07-21T06:02:15Z</time>
      </trkpt>
      <trkpt lat="44.1731" lon="5.21931">
        <ele>1114.8</ele>
        <time>2022-07-21T06:02:16Z</time>
      </trkpt>
      <trkpt lat="44.1731" lon="5.21935">
        <ele>1115.2</ele>
        <time>2022-07-21T06:02:17Z</time>
      </trkpt>
      <trkpt lat="44.1731" lon="5.21936">
        <ele>1115.3</ele>
        <time>2022-07-21T06:02:18Z</time>
      </trkpt>
      <trkpt lat="44.1731" lon="5.2194">
        <ele>1115.6</ele>
        <time>2022-07-21T06:02:19Z</time>
      </trkpt>
      <trkpt lat="44.1731" lon="5.21941">
        <ele>1115.7</ele>
        <time>2022-07-21T06:02:20Z</time>
      </trkpt>
      <trkpt lat="44.1731" lon="5.21946">
        <ele>1116.1</ele>
        <time>2022-07-21T06:02:21Z</time>
      </trkpt>
      <trkpt lat="44.1731" lon="5.21947">
        <ele>1116.2</ele>
        <time>2022-07-21T06:02:22Z</time>
      </trkpt>
      <trkpt lat="44.1731" lon="5.2195">
        <ele>1116.5</ele>
        <time>2022-07-21T06:02:23Z</time>
      </trkpt>
      <trkpt lat="44.1731" lon="5.21951">
        <ele>1116.6</ele>
        <time>2022-07-21T06:02:24Z</time>
      </trkpt>
      <trkpt lat="44.1731" lon="5.21952">
        <ele>1116.7</ele>
        <time>2022-07-21T06:02:25Z</time>
      </trkpt>
      <trkpt lat="44.1731" lon="5.21954">
        <ele>1116.8</ele>
        <time>2022-07-21T06:02:26Z</time>
      </trkpt>
      <trkpt lat="44.17309" lon="5.21955">
        <ele>1116.9</ele>
        <time>2022-07-21T06:02:27Z</time>
      </trkpt>
      <trkpt lat="44.17309" lon="5.21957">
        <ele>1117.1</ele>
        <time>2022-07-21T06:02:28Z</time>
      </trkpt>
      <trkpt lat="44.17308" lon="5.21959">
        <ele>1117.3</ele>
        <time>2022-07-21T06:02:29Z</time>
      </trkpt>
      <trkpt lat="44.17308" lon="5.21961">
        <ele>1117.5</ele>
        <time>2022-07-21T06:02:30Z</time>
      </trkpt>
      <trkpt lat="44.17308" lon="5.21964">
        <ele>1117.8</ele>
        <time>2022-07-21T06:02:31Z</time>
      </trkpt>
      <trkpt lat="44.17308" lon="5.21966">
        <ele>1118</ele>
        <time>2022-07-21T06:02:32Z</time>
      </trkpt>
      <trkpt lat="44.17308" lon="5.2197">
        <ele>1118.3</ele>
        <time>2022-07-21T06:02:33Z</time>
      </trkpt>
      <trkpt lat="44.17308" lon="5.21971">
        <ele>1118.5</ele>
        <time>2022-07-21T06:02:34Z</time>
      </trkpt>
      <trkpt lat="44.17308" lon="5.21973">
        <ele>1118.7</ele>
        <time>2022-07-21T06:02:35Z</time>
      </trkpt>
      <trkpt lat="44.17308" lon="5.21975">
        <ele>1118.9</ele>
        <time>2022-07-21T06:02:36Z</time>
      </trkpt>
      <trkpt lat="44.17308" lon="5.21977">
        <ele>1119</ele>
        <time>2022-07-21T06:02:37Z</time>
      </trkpt>
      <trkpt lat="44.17308" lon="5.21979">
        <ele>1119.2</ele>
        <time>2022-07-21T06:02:38Z</time>
      </trkpt>
      <trkpt lat="44.17308" lon="5.21982">
        <ele>1119.5</ele>
        <time>2022-07-21T06:02:39Z</time>
      </trkpt>
      <trkpt lat="44.17307" lon="5.21983">
        <ele>1119.6</ele>
        <time>2022-07-21T06:02:40Z</time>
      </trkpt>
      <trkpt lat="44.17307" lon="5.21985">
        <ele>1119.7</ele>
        <time>2022-07-21T06:02:41Z</time>
      </trkpt>
      <trkpt lat="44.17307" lon="5.21987">
        <ele>1119.9</ele>
        <time>2022-07-21T06:02:42Z</time>
      </trkpt>
      <trkpt lat="44.17307" lon="5.21989">
        <ele>1120.2</ele>
        <time>2022-07-21T06:02:43Z</time>
      </trkpt>
      <trkpt lat="44.17306" lon="5.21991">
        <ele>1120.3</ele>
        <time>2022-07-21T06:02:44Z</time>
      </trkpt>
      <trkpt lat="44.17306" lon="5.21993">
        <ele>1120.5</ele>
        <time>2022-07-21T06:02:45Z</time>
      </trkpt>
      <trkpt lat="44.17306" lon="5.21996">
        <ele>1120.8</ele>
        <time>2022-07-21T06:02:46Z</time>
      </trkpt>
      <trkpt lat="44.17306" lon="5.21998">
        <ele>1121</ele>
        <time>2022-07-21T06:02:47Z</time>
      </trkpt>
      <trkpt lat="44.17306" lon="5.22001">
        <ele>1121.3</ele>
        <time>2022-07-21T06:02:48Z</time>
      </trkpt>
      <trkpt lat="44.17306" lon="5.22002">
        <ele>1121.4</ele>
        <time>2022-07-21T06:02:49Z</time>
      </trkpt>
      <trkpt lat="44.17306" lon="5.22004">
        <ele>1121.5</ele>
        <time>2022-07-21T06:02:50Z</time>
      </trkpt>
      <trkpt lat="44.17306" lon="5.22008">
        <ele>1121.9</ele>
        <time>2022-07-21T06:02:51Z</time>
      </trkpt>
      <trkpt lat="44.17306" lon="5.22009">
        <ele>1122</ele>
        <time>2022-07-21T06:02:52Z</time>
      </trkpt>
      <trkpt lat="44.17306" lon="5.22011">
        <ele>1122.2</ele>
        <time>2022-07-21T06:02:53Z</time>
      </trkpt>
      <trkpt lat="44.17306" lon="5.22013">
        <ele>1122.4</ele>
        <time>2022-07-21T06:02:54Z</time>
      </trkpt>
      <trkpt lat="44.17307" lon="5.22015">
        <ele>1122.6</ele>
        <time>2022-07-21T06:02:55Z</time>
      </trkpt>
      <trkpt lat="44.17307" lon="5.22017">
        <ele>1122.7</ele>
        <time>2022-07-21T06:02:56Z</time>
      </trkpt>
      <trkpt lat="44.17308" lon="5.22019">
        <ele>1122.9</ele>
        <time>2022-07-21T06:02:57Z</time>
      </trkpt>
      <trkpt lat="44.17308" lon="5.22021">
        <ele>1123.1</ele>
        <time>2022-07-21T06:02:58Z</time>
      </trkpt>
      <trkpt lat="44.17309" lon="5.22025">
        <ele>1123.5</ele>
        <time>2022-07-21T06:02:59Z</time>
      </trkpt>
      <trkpt lat="44.1731" lon="5.22027">
        <ele>1123.7</ele>
        <time>2022-07-21T06:03:00Z</time>
      </trkpt>
      <trkpt lat="44.17311" lon="5.22032">
        <ele>1124.1</ele>
        <time>2022-07-21T06:03:01Z</time>
      </trkpt>
      <trkpt lat="44.17312" lon="5.22034">
        <ele>1124.3</ele>
        <time>2022-07-21T06:03:02Z</time>
      </trkpt>
      <trkpt lat="44.17313" lon="5.22038">
        <ele>1124.7</ele>
        <time>2022-07-21T06:03:03Z</time>
      </trkpt>
      <trkpt lat="44.17313" lon="5.22039">
        <ele>1124.8</ele>
        <time>2022-07-21T06:03:04Z</time>
      </trkpt>
      <trkpt lat="44.17314" lon="5.22042">
        <ele>1125.1</ele>
        <time>2022-07-21T06:03:05Z</time>
      </trkpt>
      <trkpt lat="44.17315" lon="5.22044">
        <ele>1125.3</ele>
        <time>2022-07-21T06:03:06Z</time>
      </trkpt>
      <trkpt lat="44.17316" lon="5.22047">
        <ele>1125.6</ele>
        <time>2022-07-21T06:03:07Z</time>
      </trkpt>
      <trkpt lat="44.17317" lon="5.22048">
        <ele>1125.7</ele>
        <time>2022-07-21T06:03:08Z</time>
      </trkpt>
      <trkpt lat="44.17318" lon="5.22049">
        <ele>1125.9</ele>
        <time>2022-07-21T06:03:09Z</time>
      </trkpt>
      <trkpt lat="44.17319" lon="5.22051">
        <ele>1126.1</ele>
        <time>2022-07-21T06:03:10Z</time>
      </trkpt>
      <trkpt lat="44.1732" lon="5.22053">
        <ele>1126.2</ele>
        <time>2022-07-21T06:03:11Z</time>
      </trkpt>
      <trkpt lat="44.1732" lon="5.22055">
        <ele>1126.4</ele>
        <time>2022-07-21T06:03:12Z</time>
      </trkpt>
      <trkpt lat="44.17322" lon="5.22057">
        <ele>1126.7</ele>
        <time>2022-07-21T06:03:13Z</time>
      </trkpt>
      <trkpt lat="44.17322" lon="5.22058">
        <ele>1126.8</ele>
        <time>2022-07-21T06:03:14Z</time>
      </trkpt>
      <trkpt lat="44.17323" lon="5.22059">
        <ele>1126.9</ele>
        <time>2022-07-21T06:03:15Z</time>
      </trkpt>
      <trkpt lat="44.17324" lon="5.2206">
        <ele>1127</ele>
        <time>2022-07-21T06:03:16Z</time>
      </trkpt>
      <trkpt lat="44.17325" lon="5.22062">
        <ele>1127.2</ele>
        <time>2022-07-21T06:03:17Z</time>
      </trkpt>
      <trkpt lat="44.17326" lon="5.22064">
        <ele>1127.4</ele>
        <time>2022-07-21T06:03:18Z</time>
      </trkpt>
      <trkpt lat="44.17326" lon="5.22065">
        <ele>1127.5</ele>
        <time>2022-07-21T06:03:19Z</time>
      </trkpt>
      <trkpt lat="44.17326" lon="5.22066">
        <ele>1127.6</ele>
        <time>2022-07-21T06:03:20Z</time>
      </trkpt>
      <trkpt lat="44.17327" lon="5.22068">
        <ele>1127.8</ele>
        <time>2022-07-21T06:03:21Z</time>
      </trkpt>
      <trkpt lat="44.17328" lon="5.2207">
        <ele>1127.9</ele>
        <time>2022-07-21T06:03:22Z</time>
      </trkpt>
      <trkpt lat="44.17328" lon="5.22072">
        <ele>1128.1</ele>
        <time>2022-07-21T06:03:23Z</time>
      </trkpt>
      <trkpt lat="44.17329" lon="5.22073">
        <ele>1128.2</ele>
        <time>2022-07-21T06:03:24Z</time>
      </trkpt>
      <trkpt lat="44.1733" lon="5.22075">
        <ele>1128.4</ele>
        <time>2022-07-21T06:03:25Z</time>
      </trkpt>
      <trkpt lat="44.1733" lon="5.22077">
        <ele>1128.6</ele>
        <time>2022-07-21T06:03:26Z</time>
      </trkpt>
      <trkpt lat="44.17331" lon="5.22079">
        <ele>1128.7</ele>
        <time>2022-07-21T06:03:27Z</time>
      </trkpt>
      <trkpt lat="44.17333" lon="5.22081">
        <ele>1128.9</ele>
        <time>2022-07-21T06:03:28Z</time>
      </trkpt>
      <trkpt lat="44.17334" lon="5.22082">
        <ele>1129.1</ele>
        <time>2022-07-21T06:03:29Z</time>
      </trkpt>
      <trkpt lat="44.17335" lon="5.22084">
        <ele>1129.3</ele>
        <time>2022-07-21T06:03:30Z</time>
      </trkpt>
      <trkpt lat="44.17336" lon="5.22085">
        <ele>1129.5</ele>
        <time>2022-07-21T06:03:31Z</time>
      </trkpt>
      <trkpt lat="44.17338" lon="5.22087">
        <ele>1129.7</ele>
        <time>2022-07-21T06:03:32Z</time>
      </trkpt>
      <trkpt lat="44.17339" lon="5.22089">
        <ele>1129.8</ele>
        <time>2022-07-21T06:03:33Z</time>
      </trkpt>
      <trkpt lat="44.17339" lon="5.22091">
        <ele>1130</ele>
        <time>2022-07-21T06:03:34Z</time>
      </trkpt>
      <trkpt lat="44.1734" lon="5.22093">
        <ele>1130.2</ele>
        <time>2022-07-21T06:03:35Z</time>
      </trkpt>
      <trkpt lat="44.17341" lon="5.22095">
        <ele>1130.3</ele>
        <time>2022-07-21T06:03:36Z</time>
      </trkpt>
      <trkpt lat="44.17342" lon="5.22097">
        <ele>1130.5</ele>
        <time>2022-07-21T06:03:37Z</time>
      </trkpt>
      <trkpt lat="44.17343" lon="5.22098">
        <ele>1130.7</ele>
        <time>2022-07-21T06:03:38Z</time>
      </trkpt>
      <trkpt lat="44.17343" lon="5.221">
        <ele>1130.8</ele>
        <time>2022-07-21T06:03:39Z</time>
      </trkpt>
      <trkpt lat="44.17343" lon="5.22103">
        <ele>1131</ele>
        <time>2022-07-21T06:03:40Z</time>
      </trkpt>
      <trkpt lat="44.17343" lon="5.22106">
        <ele>1131.2</ele>
        <time>2022-07-21T06:03:41Z</time>
      </trkpt>
      <trkpt lat="44.17343" lon="5.22107">
        <ele>1131.3</ele>
        <time>2022-07-21T06:03:42Z</time>
      </trkpt>
      <trkpt lat="44.17343" lon="5.22108">
        <ele>1131.4</ele>
        <time>2022-07-21T06:03:43Z</time>
      </trkpt>
      <trkpt lat="44.17342" lon="5.22111">
        <ele>1131.6</ele>
        <time>2022-07-21T06:03:44Z</time>
      </trkpt>
      <trkpt lat="44.17342" lon="5.22112">
        <ele>1131.7</ele>
        <time>2022-07-21T06:03:45Z</time>
      </trkpt>
      <trkpt lat="44.17342" lon="5.22113">
        <ele>1131.8</ele>
        <time>2022-07-21T06:03:46Z</time>
      </trkpt>
      <trkpt lat="44.17341" lon="5.22115">
        <ele>1132</ele>
        <time>2022-07-21T06:03:47Z</time>
      </trkpt>
      <trkpt lat="44.17341" lon="5.22117">
        <ele>1132.1</ele>
        <time>2022-07-21T06:03:48Z</time>
      </trkpt>
      <trkpt lat="44.17341" lon="5.22119">
        <ele>1132.3</ele>
        <time>2022-07-21T06:03:49Z</time>
      </trkpt>
      <trkpt lat="44.1734" lon="5.22121">
        <ele>1132.7</ele>
        <time>2022-07-21T06:03:50Z</time>
      </trkpt>
      <trkpt lat="44.1734" lon="5.22123">
        <ele>1132.9</ele>
        <time>2022-07-21T06:03:51Z</time>
      </trkpt>
      <trkpt lat="44.1734" lon="5.22125">
        <ele>1133</ele>
        <time>2022-07-21T06:03:52Z</time>
      </trkpt>
      <trkpt lat="44.1734" lon="5.22128">
        <ele>1133.3</ele>
        <time>2022-07-21T06:03:53Z</time>
      </trkpt>
      <trkpt lat="44.1734" lon="5.22129">
        <ele>1133.4</ele>
        <time>2022-07-21T06:03:54Z</time>
      </trkpt>
      <trkpt lat="44.1734" lon="5.2213">
        <ele>1133.5</ele>
        <time>2022-07-21T06:03:55Z</time>
      </trkpt>
      <trkpt lat="44.17339" lon="5.22133">
        <ele>1133.8</ele>
        <time>2022-07-21T06:03:56Z</time>
      </trkpt>
      <trkpt lat="44.17339" lon="5.22134">
        <ele>1133.9</ele>
        <time>2022-07-21T06:03:57Z</time>
      </trkpt>
      <trkpt lat="44.17339" lon="5.22135">
        <ele>1134</ele>
        <time>2022-07-21T06:03:58Z</time>
      </trkpt>
      <trkpt lat="44.17338" lon="5.22137">
        <ele>1134.2</ele>
        <time>2022-07-21T06:03:59Z</time>
      </trkpt>
      <trkpt lat="44.17338" lon="5.22138">
        <ele>1134.3</ele>
        <time>2022-07-21T06:04:00Z</time>
      </trkpt>
      <trkpt lat="44.17337" lon="5.22139">
        <ele>1134.4</ele>
        <time>2022-07-21T06:04:01Z</time>
      </trkpt>
      <trkpt lat="44.17336" lon="5.22141">
        <ele>1134.7</ele>
        <time>2022-07-21T06:04:02Z</time>
      </trkpt>
      <trkpt lat="44.17336" lon="5.22142">
        <ele>1134.8</ele>
        <time>2022-07-21T06:04:03Z</time>
      </trkpt>
      <trkpt lat="44.17335" lon="5.22144">
        <ele>1134.9</ele>
        <time>2022-07-21T06:04:04Z</time>
      </trkpt>
      <trkpt lat="44.17334" lon="5.22145">
        <ele>1135.1</ele>
        <time>2022-07-21T06:04:05Z</time>
      </trkpt>
      <trkpt lat="44.17334" lon="5.22147">
        <ele>1135.3</ele>
        <time>2022-07-21T06:04:06Z</time>
      </trkpt>
      <trkpt lat="44.17333" lon="5.2215">
        <ele>1135.6</ele>
        <time>2022-07-21T06:04:07Z</time>
      </trkpt>
      <trkpt lat="44.17332" lon="5.22151">
        <ele>1135.8</ele>
        <time>2022-07-21T06:04:08Z</time>
      </trkpt>
      <trkpt lat="44.17332" lon="5.22152">
        <ele>1135.9</ele>
        <time>2022-07-21T06:04:09Z</time>
      </trkpt>
      <trkpt lat="44.1733" lon="5.22154">
        <ele>1136.2</ele>
        <time>2022-07-21T06:04:10Z</time>
      </trkpt>
      <trkpt lat="44.17329" lon="5.22155">
        <ele>1136.3</ele>
        <time>2022-07-21T06:04:11Z</time>
      </trkpt>
      <trkpt lat="44.17328" lon="5.22155">
        <ele>1136.4</ele>
        <time>2022-07-21T06:04:12Z</time>
      </trkpt>
      <trkpt lat="44.17327" lon="5.22157">
        <ele>1136.7</ele>
        <time>2022-07-21T06:04:13Z</time>
      </trkpt>
      <trkpt lat="44.17326" lon="5.22157">
        <ele>1136.9</ele>
        <time>2022-07-21T06:04:14Z</time>
      </trkpt>
      <trkpt lat="44.17324" lon="5.22158">
        <ele>1137.1</ele>
        <time>2022-07-21T06:04:15Z</time>
      </trkpt>
      <trkpt lat="44.17323" lon="5.22159">
        <ele>1137.3</ele>
        <time>2022-07-21T06:04:16Z</time>
      </trkpt>
      <trkpt lat="44.17321" lon="5.2216">
        <ele>1137.5</ele>
        <time>2022-07-21T06:04:17Z</time>
      </trkpt>
      <trkpt lat="44.1732" lon="5.22161">
        <ele>1137.7</ele>
        <time>2022-07-21T06:04:18Z</time>
      </trkpt>
      <trkpt lat="44.17319" lon="5.22161">
        <ele>1137.8</ele>
        <time>2022-07-21T06:04:19Z</time>
      </trkpt>
      <trkpt lat="44.17318" lon="5.22162">
        <ele>1138</ele>
        <time>2022-07-21T06:04:20Z</time>
      </trkpt>
      <trkpt lat="44.17317" lon="5.22162">
        <ele>1138.1</ele>
        <time>2022-07-21T06:04:21Z</time>
      </trkpt>
      <trkpt lat="44.17315" lon="5.22162">
        <ele>1138.4</ele>
        <time>2022-07-21T06:04:22Z</time>
      </trkpt>
      <trkpt lat="44.17314" lon="5.22162">
        <ele>1138.5</ele>
        <time>2022-07-21T06:04:23Z</time>
      </trkpt>
      <trkpt lat="44.17313" lon="5.22162">
        <ele>1138.6</ele>
        <time>2022-07-21T06:04:24Z</time>
      </trkpt>
      <trkpt lat="44.17312" lon="5.22162">
        <ele>1138.8</ele>
        <time>2022-07-21T06:04:25Z</time>
      </trkpt>
      <trkpt lat="44.1731" lon="5.22162">
        <ele>1139</ele>
        <time>2022-07-21T06:04:26Z</time>
      </trkpt>
      <trkpt lat="44.17309" lon="5.22161">
        <ele>1139.2</ele>
        <time>2022-07-21T06:04:27Z</time>
      </trkpt>
      <trkpt lat="44.17307" lon="5.22161">
        <ele>1139.4</ele>
        <time>2022-07-21T06:04:28Z</time>
      </trkpt>
      <trkpt lat="44.17305" lon="5.22161">
        <ele>1139.6</ele>
        <time>2022-07-21T06:04:29Z</time>
      </trkpt>
      <trkpt lat="44.17304" lon="5.22161">
        <ele>1139.7</ele>
        <time>2022-07-21T06:04:30Z</time>
      </trkpt>
      <trkpt lat="44.17302" lon="5.22161">
        <ele>1140</ele>
        <time>2022-07-21T06:04:31Z</time>
      </trkpt>
      <trkpt lat="44.17301" lon="5.22161">
        <ele>1140.1</ele>
        <time>2022-07-21T06:04:32Z</time>
      </trkpt>
      <trkpt lat="44.173" lon="5.22161">
        <ele>1140.2</ele>
        <time>2022-07-21T06:04:33Z</time>
      </trkpt>
      <trkpt lat="44.17299" lon="5.22161">
        <ele>1140.3</ele>
        <time>2022-07-21T06:04:34Z</time>
      </trkpt>
      <trkpt lat="44.17297" lon="5.22161">
        <ele>1140.5</ele>
        <time>2022-07-21T06:04:35Z</time>
      </trkpt>
      <trkpt lat="44.17296" lon="5.2216">
        <ele>1140.7</ele>
        <time>2022-07-21T06:04:36Z</time>
      </trkpt>
      <trkpt lat="44.17295" lon="5.2216">
        <ele>1140.8</ele>
        <time>2022-07-21T06:04:37Z</time>
      </trkpt>
      <trkpt lat="44.17294" lon="5.2216">
        <ele>1140.9</ele>
        <time>2022-07-21T06:04:38Z</time>
      </trkpt>
      <trkpt lat="44.17291" lon="5.2216">
        <ele>1141.1</ele>
        <time>2022-07-21T06:04:39Z</time>
      </trkpt>
      <trkpt lat="44.1729" lon="5.2216">
        <ele>1141.2</ele>
        <time>2022-07-21T06:04:40Z</time>
      </trkpt>
      <trkpt lat="44.17289" lon="5.2216">
        <ele>1141.4</ele>
        <time>2022-07-21T06:04:41Z</time>
      </trkpt>
      <trkpt lat="44.17288" lon="5.2216">
        <ele>1141.5</ele>
        <time>2022-07-21T06:04:42Z</time>
      </trkpt>
      <trkpt lat="44.17287" lon="5.22159">
        <ele>1141.7</ele>
        <time>2022-07-21T06:04:43Z</time>
      </trkpt>
      <trkpt lat="44.17284" lon="5.22159">
        <ele>1141.9</ele>
        <time>2022-07-21T06:04:44Z</time>
      </trkpt>
      <trkpt lat="44.17284" lon="5.22158">
        <ele>1142</ele>
        <time>2022-07-21T06:04:45Z</time>
      </trkpt>
      <trkpt lat="44.17283" lon="5.22158">
        <ele>1142.1</ele>
        <time>2022-07-21T06:04:46Z</time>
      </trkpt>
      <trkpt lat="44.17281" lon="5.22158">
        <ele>1142.2</ele>
        <time>2022-07-21T06:04:47Z</time>
      </trkpt>
      <trkpt lat="44.1728" lon="5.22157">
        <ele>1142.4</ele>
        <time>2022-07-21T06:04:48Z</time>
      </trkpt>
      <trkpt lat="44.17278" lon="5.22157">
        <ele>1142.6</ele>
        <time>2022-07-21T06:04:49Z</time>
      </trkpt>
      <trkpt lat="44.17277" lon="5.22157">
        <ele>1142.7</ele>
        <time>2022-07-21T06:04:50Z</time>
      </trkpt>
      <trkpt lat="44.17276" lon="5.22157">
        <ele>1142.8</ele>
        <time>2022-07-21T06:04:51Z</time>
      </trkpt>
      <trkpt lat="44.17274" lon="5.22157">
        <ele>1142.9</ele>
        <time>2022-07-21T06:04:52Z</time>
      </trkpt>
      <trkpt lat="44.17273" lon="5.22157">
        <ele>1143.1</ele>
        <time>2022-07-21T06:04:53Z</time>
      </trkpt>
      <trkpt lat="44.17271" lon="5.22157">
        <ele>1143.3</ele>
        <time>2022-07-21T06:04:54Z</time>
      </trkpt>
      <trkpt lat="44.17269" lon="5.22157">
        <ele>1143.4</ele>
        <time>2022-07-21T06:04:55Z</time>
      </trkpt>
      <trkpt lat="44.17268" lon="5.22157">
        <ele>1143.6</ele>
        <time>2022-07-21T06:04:56Z</time>
      </trkpt>
      <trkpt lat="44.17266" lon="5.22157">
        <ele>1143.8</ele>
        <time>2022-07-21T06:04:57Z</time>
      </trkpt>
      <trkpt lat="44.17264" lon="5.22157">
        <ele>1143.9</ele>
        <time>2022-07-21T06:04:58Z</time>
      </trkpt>
      <trkpt lat="44.17263" lon="5.22156">
        <ele>1144.1</ele>
        <time>2022-07-21T06:04:59Z</time>
      </trkpt>
      <trkpt lat="44.1726" lon="5.22156">
        <ele>1144.4</ele>
        <time>2022-07-21T06:05:00Z</time>
      </trkpt>
      <trkpt lat="44.17259" lon="5.22156">
        <ele>1144.5</ele>
        <time>2022-07-21T06:05:01Z</time>
      </trkpt>
      <trkpt lat="44.17257" lon="5.22156">
        <ele>1144.7</ele>
        <time>2022-07-21T06:05:02Z</time>
      </trkpt>
      <trkpt lat="44.17255" lon="5.22155">
        <ele>1144.9</ele>
        <time>2022-07-21T06:05:03Z</time>
      </trkpt>
      <trkpt lat="44.17254" lon="5.22155">
        <ele>1145</ele>
        <time>2022-07-21T06:05:04Z</time>
      </trkpt>
      <trkpt lat="44.17252" lon="5.22154">
        <ele>1145.1</ele>
        <time>2022-07-21T06:05:05Z</time>
      </trkpt>
      <trkpt lat="44.1725" lon="5.22153">
        <ele>1145.4</ele>
        <time>2022-07-21T06:05:06Z</time>
      </trkpt>
      <trkpt lat="44.1725" lon="5.22152">
        <ele>1145.5</ele>
        <time>2022-07-21T06:05:07Z</time>
      </trkpt>
      <trkpt lat="44.17249" lon="5.22152">
        <ele>1145.6</ele>
        <time>2022-07-21T06:05:08Z</time>
      </trkpt>
      <trkpt lat="44.17247" lon="5.22151">
        <ele>1146.2</ele>
        <time>2022-07-21T06:05:09Z</time>
      </trkpt>
      <trkpt lat="44.17246" lon="5.2215">
        <ele>1146.3</ele>
        <time>2022-07-21T06:05:10Z</time>
      </trkpt>
      <trkpt lat="44.17246" lon="5.22149">
        <ele>1146.4</ele>
        <time>2022-07-21T06:05:11Z</time>
      </trkpt>
      <trkpt lat="44.17244" lon="5.22148">
        <ele>1146.5</ele>
        <time>2022-07-21T06:05:12Z</time>
      </trkpt>
      <trkpt lat="44.17243" lon="5.22147">
        <ele>1146.7</ele>
        <time>2022-07-21T06:05:13Z</time>
      </trkpt>
      <trkpt lat="44.17241" lon="5.22146">
        <ele>1146.9</ele>
        <time>2022-07-21T06:05:14Z</time>
      </trkpt>
      <trkpt lat="44.1724" lon="5.22146">
        <ele>1147</ele>
        <time>2022-07-21T06:05:15Z</time>
      </trkpt>
      <trkpt lat="44.17239" lon="5.22145">
        <ele>1147.1</ele>
        <time>2022-07-21T06:05:16Z</time>
      </trkpt>
      <trkpt lat="44.17238" lon="5.22145">
        <ele>1147.2</ele>
        <time>2022-07-21T06:05:17Z</time>
      </trkpt>
      <trkpt lat="44.17237" lon="5.22144">
        <ele>1147.3</ele>
        <time>2022-07-21T06:05:18Z</time>
      </trkpt>
      <trkpt lat="44.17237" lon="5.22143">
        <ele>1147.4</ele>
        <time>2022-07-21T06:05:19Z</time>
      </trkpt>
      <trkpt lat="44.17235" lon="5.22142">
        <ele>1147.6</ele>
        <time>2022-07-21T06:05:20Z</time>
      </trkpt>
      <trkpt lat="44.17234" lon="5.22141">
        <ele>1147.7</ele>
        <time>2022-07-21T06:05:21Z</time>
      </trkpt>
      <trkpt lat="44.17232" lon="5.2214">
        <ele>1148</ele>
        <time>2022-07-21T06:05:22Z</time>
      </trkpt>
      <trkpt lat="44.17231" lon="5.2214">
        <ele>1148</ele>
        <time>2022-07-21T06:05:23Z</time>
      </trkpt>
      <trkpt lat="44.1723" lon="5.2214">
        <ele>1148.1</ele>
        <time>2022-07-21T06:05:24Z</time>
      </trkpt>
      <trkpt lat="44.17229" lon="5.22138">
        <ele>1148.3</ele>
        <time>2022-07-21T06:05:25Z</time>
      </trkpt>
      <trkpt lat="44.17227" lon="5.22137">
        <ele>1148.5</ele>
        <time>2022-07-21T06:05:26Z</time>
      </trkpt>
      <trkpt lat="44.17226" lon="5.22136">
        <ele>1148.7</ele>
        <time>2022-07-21T06:05:27Z</time>
      </trkpt>
      <trkpt lat="44.17225" lon="5.22135">
        <ele>1148.8</ele>
        <time>2022-07-21T06:05:28Z</time>
      </trkpt>
      <trkpt lat="44.17224" lon="5.22133">
        <ele>1149</ele>
        <time>2022-07-21T06:05:29Z</time>
      </trkpt>
      <trkpt lat="44.17223" lon="5.22132">
        <ele>1149.1</ele>
        <time>2022-07-21T06:05:30Z</time>
      </trkpt>
      <trkpt lat="44.17222" lon="5.22131">
        <ele>1149.2</ele>
        <time>2022-07-21T06:05:31Z</time>
      </trkpt>
      <trkpt lat="44.17221" lon="5.2213">
        <ele>1149.3</ele>
        <time>2022-07-21T06:05:32Z</time>
      </trkpt>
      <trkpt lat="44.1722" lon="5.22129">
        <ele>1149.5</ele>
        <time>2022-07-21T06:05:33Z</time>
      </trkpt>
      <trkpt lat="44.17218" lon="5.22128">
        <ele>1149.6</ele>
        <time>2022-07-21T06:05:34Z</time>
      </trkpt>
      <trkpt lat="44.17217" lon="5.22127">
        <ele>1149.8</ele>
        <time>2022-07-21T06:05:35Z</time>
      </trkpt>
      <trkpt lat="44.17216" lon="5.22125">
        <ele>1149.9</ele>
        <time>2022-07-21T06:05:36Z</time>
      </trkpt>
      <trkpt lat="44.17216" lon="5.22124">
        <ele>1150</ele>
        <time>2022-07-21T06:05:37Z</time>
      </trkpt>
      <trkpt lat="44.17215" lon="5.22123">
        <ele>1150.1</ele>
        <time>2022-07-21T06:05:38Z</time>
      </trkpt>
      <trkpt lat="44.17215" lon="5.22122">
        <ele>1150.2</ele>
        <time>2022-07-21T06:05:39Z</time>
      </trkpt>
      <trkpt lat="44.17214" lon="5.22121">
        <ele>1150.3</ele>
        <time>2022-07-21T06:05:40Z</time>
      </trkpt>
      <trkpt lat="44.17213" lon="5.2212">
        <ele>1150.4</ele>
        <time>2022-07-21T06:05:41Z</time>
      </trkpt>
      <trkpt lat="44.17212" lon="5.22119">
        <ele>1150.5</ele>
        <time>2022-07-21T06:05:42Z</time>
      </trkpt>
      <trkpt lat="44.17211" lon="5.22118">
        <ele>1150.7</ele>
        <time>2022-07-21T06:05:43Z</time>
      </trkpt>
      <trkpt lat="44.1721" lon="5.22117">
        <ele>1150.8</ele>
        <time>2022-07-21T06:05:44Z</time>
      </trkpt>
      <trkpt lat="44.17209" lon="5.22116">
        <ele>1150.9</ele>
        <time>2022-07-21T06:05:45Z</time>
      </trkpt>
      <trkpt lat="44.17208" lon="5.22115">
        <ele>1151</ele>
        <time>2022-07-21T06:05:46Z</time>
      </trkpt>
      <trkpt lat="44.17208" lon="5.22114">
        <ele>1151.1</ele>
        <time>2022-07-21T06:05:47Z</time>
      </trkpt>
      <trkpt lat="44.17208" lon="5.22113">
        <ele>1151.1</ele>
        <time>2022-07-21T06:05:48Z</time>
      </trkpt>
      <trkpt lat="44.17207" lon="5.22112">
        <ele>1151.2</ele>
        <time>2022-07-21T06:05:49Z</time>
      </trkpt>
      <trkpt lat="44.17207" lon="5.22111">
        <ele>1151.3</ele>
        <time>2022-07-21T06:05:50Z</time>
      </trkpt>
      <trkpt lat="44.17206" lon="5.22109">
        <ele>1151.5</ele>
        <time>2022-07-21T06:05:51Z</time>
      </trkpt>
      <trkpt lat="44.17205" lon="5.22107">
        <ele>1151.7</ele>
        <time>2022-07-21T06:05:52Z</time>
      </trkpt>
      <trkpt lat="44.17204" lon="5.22106">
        <ele>1151.8</ele>
        <time>2022-07-21T06:05:53Z</time>
      </trkpt>
      <trkpt lat="44.17204" lon="5.22105">
        <ele>1151.9</ele>
        <time>2022-07-21T06:05:54Z</time>
      </trkpt>
      <trkpt lat="44.17201" lon="5.22103">
        <ele>1152.1</ele>
        <time>2022-07-21T06:05:55Z</time>
      </trkpt>
      <trkpt lat="44.172" lon="5.22103">
        <ele>1152.2</ele>
        <time>2022-07-21T06:05:56Z</time>
      </trkpt>
      <trkpt lat="44.17197" lon="5.22101">
        <ele>1152.5</ele>
        <time>2022-07-21T06:05:57Z</time>
      </trkpt>
      <trkpt lat="44.17196" lon="5.221">
        <ele>1152.7</ele>
        <time>2022-07-21T06:05:58Z</time>
      </trkpt>
      <trkpt lat="44.17192" lon="5.22098">
        <ele>1153</ele>
        <time>2022-07-21T06:05:59Z</time>
      </trkpt>
      <trkpt lat="44.17191" lon="5.22098">
        <ele>1153.2</ele>
        <time>2022-07-21T06:06:00Z</time>
      </trkpt>
      <trkpt lat="44.17188" lon="5.22096">
        <ele>1153.5</ele>
        <time>2022-07-21T06:06:01Z</time>
      </trkpt>
      <trkpt lat="44.17186" lon="5.22095">
        <ele>1153.6</ele>
        <time>2022-07-21T06:06:02Z</time>
      </trkpt>
      <trkpt lat="44.17184" lon="5.22093">
        <ele>1153.9</ele>
        <time>2022-07-21T06:06:03Z</time>
      </trkpt>
      <trkpt lat="44.17183" lon="5.22093">
        <ele>1154</ele>
        <time>2022-07-21T06:06:04Z</time>
      </trkpt>
      <trkpt lat="44.1718" lon="5.22091">
        <ele>1154.3</ele>
        <time>2022-07-21T06:06:05Z</time>
      </trkpt>
      <trkpt lat="44.17179" lon="5.2209">
        <ele>1154.4</ele>
        <time>2022-07-21T06:06:06Z</time>
      </trkpt>
      <trkpt lat="44.17178" lon="5.22089">
        <ele>1154.5</ele>
        <time>2022-07-21T06:06:07Z</time>
      </trkpt>
      <trkpt lat="44.17177" lon="5.22087">
        <ele>1154.7</ele>
        <time>2022-07-21T06:06:08Z</time>
      </trkpt>
      <trkpt lat="44.17176" lon="5.22086">
        <ele>1154.8</ele>
        <time>2022-07-21T06:06:09Z</time>
      </trkpt>
      <trkpt lat="44.17175" lon="5.22084">
        <ele>1154.9</ele>
        <time>2022-07-21T06:06:10Z</time>
      </trkpt>
      <trkpt lat="44.17174" lon="5.22082">
        <ele>1155.1</ele>
        <time>2022-07-21T06:06:11Z</time>
      </trkpt>
      <trkpt lat="44.17173" lon="5.22081">
        <ele>1155.2</ele>
        <time>2022-07-21T06:06:12Z</time>
      </trkpt>
      <trkpt lat="44.17172" lon="5.2208">
        <ele>1155.3</ele>
        <time>2022-07-21T06:06:13Z</time>
      </trkpt>
      <trkpt lat="44.17171" lon="5.22078">
        <ele>1155.5</ele>
        <time>2022-07-21T06:06:14Z</time>
      </trkpt>
      <trkpt lat="44.1717" lon="5.22077">
        <ele>1155.6</ele>
        <time>2022-07-21T06:06:15Z</time>
      </trkpt>
      <trkpt lat="44.17169" lon="5.22076">
        <ele>1155.7</ele>
        <time>2022-07-21T06:06:16Z</time>
      </trkpt>
      <trkpt lat="44.17168" lon="5.22074">
        <ele>1155.9</ele>
        <time>2022-07-21T06:06:17Z</time>
      </trkpt>
      <trkpt lat="44.17167" lon="5.22072">
        <ele>1156</ele>
        <time>2022-07-21T06:06:18Z</time>
      </trkpt>
      <trkpt lat="44.17166" lon="5.2207">
        <ele>1156.2</ele>
        <time>2022-07-21T06:06:19Z</time>
      </trkpt>
      <trkpt lat="44.17165" lon="5.22069">
        <ele>1156.3</ele>
        <time>2022-07-21T06:06:20Z</time>
      </trkpt>
      <trkpt lat="44.17165" lon="5.22068">
        <ele>1156.4</ele>
        <time>2022-07-21T06:06:21Z</time>
      </trkpt>
      <trkpt lat="44.17164" lon="5.22065">
        <ele>1156.5</ele>
        <time>2022-07-21T06:06:22Z</time>
      </trkpt>
      <trkpt lat="44.17163" lon="5.22064">
        <ele>1156.6</ele>
        <time>2022-07-21T06:06:23Z</time>
      </trkpt>
      <trkpt lat="44.17162" lon="5.22063">
        <ele>1156.7</ele>
        <time>2022-07-21T06:06:24Z</time>
      </trkpt>
      <trkpt lat="44.17161" lon="5.22061">
        <ele>1156.9</ele>
        <time>2022-07-21T06:06:25Z</time>
      </trkpt>
      <trkpt lat="44.1716" lon="5.2206">
        <ele>1157</ele>
        <time>2022-07-21T06:06:26Z</time>
      </trkpt>
      <trkpt lat="44.17159" lon="5.22058">
        <ele>1157.1</ele>
        <time>2022-07-21T06:06:27Z</time>
      </trkpt>
      <trkpt lat="44.17158" lon="5.22056">
        <ele>1157.3</ele>
        <time>2022-07-21T06:06:28Z</time>
      </trkpt>
      <trkpt lat="44.17157" lon="5.22055">
        <ele>1157.4</ele>
        <time>2022-07-21T06:06:29Z</time>
      </trkpt>
      <trkpt lat="44.17156" lon="5.22053">
        <ele>1157.5</ele>
        <time>2022-07-21T06:06:30Z</time>
      </trkpt>
      <trkpt lat="44.17154" lon="5.22052">
        <ele>1157.7</ele>
        <time>2022-07-21T06:06:31Z</time>
      </trkpt>
      <trkpt lat="44.17153" lon="5.22051">
        <ele>1157.8</ele>
        <time>2022-07-21T06:06:32Z</time>
      </trkpt>
      <trkpt lat="44.17151" lon="5.2205">
        <ele>1157.9</ele>
        <time>2022-07-21T06:06:33Z</time>
      </trkpt>
      <trkpt lat="44.1715" lon="5.22049">
        <ele>1158.1</ele>
        <time>2022-07-21T06:06:34Z</time>
      </trkpt>
      <trkpt lat="44.17148" lon="5.22048">
        <ele>1158.3</ele>
        <time>2022-07-21T06:06:35Z</time>
      </trkpt>
      <trkpt lat="44.17147" lon="5.22048">
        <ele>1158.3</ele>
        <time>2022-07-21T06:06:36Z</time>
      </trkpt>
      <trkpt lat="44.17146" lon="5.22048">
        <ele>1158.4</ele>
        <time>2022-07-21T06:06:37Z</time>
      </trkpt>
      <trkpt lat="44.17144" lon="5.22048">
        <ele>1158.5</ele>
        <time>2022-07-21T06:06:38Z</time>
      </trkpt>
      <trkpt lat="44.17143" lon="5.22048">
        <ele>1158.7</ele>
        <time>2022-07-21T06:06:39Z</time>
      </trkpt>
      <trkpt lat="44.17141" lon="5.22048">
        <ele>1158.8</ele>
        <time>2022-07-21T06:06:40Z</time>
      </trkpt>
      <trkpt lat="44.17139" lon="5.22049">
        <ele>1159</ele>
        <time>2022-07-21T06:06:41Z</time>
      </trkpt>
      <trkpt lat="44.17137" lon="5.22051">
        <ele>1159.2</ele>
        <time>2022-07-21T06:06:42Z</time>
      </trkpt>
      <trkpt lat="44.17136" lon="5.22052">
        <ele>1159.3</ele>
        <time>2022-07-21T06:06:43Z</time>
      </trkpt>
      <trkpt lat="44.17133" lon="5.22054">
        <ele>1159.5</ele>
        <time>2022-07-21T06:06:44Z</time>
      </trkpt>
      <trkpt lat="44.17133" lon="5.22054">
        <ele>1159.6</ele>
        <time>2022-07-21T06:06:45Z</time>
      </trkpt>
      <trkpt lat="44.17131" lon="5.22055">
        <ele>1159.7</ele>
        <time>2022-07-21T06:06:46Z</time>
      </trkpt>
      <trkpt lat="44.1713" lon="5.22057">
        <ele>1159.8</ele>
        <time>2022-07-21T06:06:47Z</time>
      </trkpt>
      <trkpt lat="44.1713" lon="5.22059">
        <ele>1159.9</ele>
        <time>2022-07-21T06:06:48Z</time>
      </trkpt>
      <trkpt lat="44.17129" lon="5.22061">
        <ele>1160</ele>
        <time>2022-07-21T06:06:49Z</time>
      </trkpt>
      <trkpt lat="44.17128" lon="5.22063">
        <ele>1160.1</ele>
        <time>2022-07-21T06:06:50Z</time>
      </trkpt>
      <trkpt lat="44.17127" lon="5.22064">
        <ele>1160.2</ele>
        <time>2022-07-21T06:06:51Z</time>
      </trkpt>
      <trkpt lat="44.17127" lon="5.22066">
        <ele>1160.3</ele>
        <time>2022-07-21T06:06:52Z</time>
      </trkpt>
      <trkpt lat="44.17126" lon="5.22067">
        <ele>1160.4</ele>
        <time>2022-07-21T06:06:53Z</time>
      </trkpt>
      <trkpt lat="44.17125" lon="5.22068">
        <ele>1160.5</ele>
        <time>2022-07-21T06:06:54Z</time>
      </trkpt>
      <trkpt lat="44.17125" lon="5.2207">
        <ele>1160.6</ele>
        <time>2022-07-21T06:06:55Z</time>
      </trkpt>
      <trkpt lat="44.17125" lon="5.22072">
        <ele>1160.7</ele>
        <time>2022-07-21T06:06:56Z</time>
      </trkpt>
      <trkpt lat="44.17126" lon="5.22074">
        <ele>1160.8</ele>
        <time>2022-07-21T06:06:57Z</time>
      </trkpt>
      <trkpt lat="44.17126" lon="5.22076">
        <ele>1160.9</ele>
        <time>2022-07-21T06:06:58Z</time>
      </trkpt>
      <trkpt lat="44.17128" lon="5.22079">
        <ele>1161</ele>
        <time>2022-07-21T06:06:59Z</time>
      </trkpt>
      <trkpt lat="44.17128" lon="5.22079">
        <ele>1161.1</ele>
        <time>2022-07-21T06:07:00Z</time>
      </trkpt>
      <trkpt lat="44.17129" lon="5.2208">
        <ele>1161.1</ele>
        <time>2022-07-21T06:07:01Z</time>
      </trkpt>
      <trkpt lat="44.1713" lon="5.22082">
        <ele>1161.2</ele>
        <time>2022-07-21T06:07:02Z</time>
      </trkpt>
      <trkpt lat="44.17131" lon="5.22083">
        <ele>1161.3</ele>
        <time>2022-07-21T06:07:03Z</time>
      </trkpt>
      <trkpt lat="44.17133" lon="5.22085">
        <ele>1161.4</ele>
        <time>2022-07-21T06:07:04Z</time>
      </trkpt>
      <trkpt lat="44.17134" lon="5.22087">
        <ele>1161.5</ele>
        <time>2022-07-21T06:07:05Z</time>
      </trkpt>
      <trkpt lat="44.17134" lon="5.22089">
        <ele>1161.6</ele>
        <time>2022-07-21T06:07:06Z</time>
      </trkpt>
      <trkpt lat="44.17135" lon="5.2209">
        <ele>1161.7</ele>
        <time>2022-07-21T06:07:07Z</time>
      </trkpt>
      <trkpt lat="44.17136" lon="5.22092">
        <ele>1161.8</ele>
        <time>2022-07-21T06:07:08Z</time>
      </trkpt>
      <trkpt lat="44.17137" lon="5.22094">
        <ele>1161.9</ele>
        <time>2022-07-21T06:07:09Z</time>
      </trkpt>
      <trkpt lat="44.17138" lon="5.22096">
        <ele>1162</ele>
        <time>2022-07-21T06:07:10Z</time>
      </trkpt>
      <trkpt lat="44.17138" lon="5.22098">
        <ele>1162.1</ele>
        <time>2022-07-21T06:07:11Z</time>
      </trkpt>
      <trkpt lat="44.17139" lon="5.221">
        <ele>1162.3</ele>
        <time>2022-07-21T06:07:12Z</time>
      </trkpt>
      <trkpt lat="44.1714" lon="5.22101">
        <ele>1162.4</ele>
        <time>2022-07-21T06:07:13Z</time>
      </trkpt>
      <trkpt lat="44.17141" lon="5.22103">
        <ele>1162.5</ele>
        <time>2022-07-21T06:07:14Z</time>
      </trkpt>
      <trkpt lat="44.17141" lon="5.22105">
        <ele>1162.6</ele>
        <time>2022-07-21T06:07:15Z</time>
      </trkpt>
      <trkpt lat="44.17143" lon="5.22109">
        <ele>1162.8</ele>
        <time>2022-07-21T06:07:16Z</time>
      </trkpt>
      <trkpt lat="44.17143" lon="5.2211">
        <ele>1162.9</ele>
        <time>2022-07-21T06:07:17Z</time>
      </trkpt>
      <trkpt lat="44.17144" lon="5.22112">
        <ele>1163</ele>
        <time>2022-07-21T06:07:18Z</time>
      </trkpt>
      <trkpt lat="44.17145" lon="5.22114">
        <ele>1163.1</ele>
        <time>2022-07-21T06:07:19Z</time>
      </trkpt>
      <trkpt lat="44.17145" lon="5.22116">
        <ele>1163.2</ele>
        <time>2022-07-21T06:07:20Z</time>
      </trkpt>
      <trkpt lat="44.17146" lon="5.22117">
        <ele>1163.4</ele>
        <time>2022-07-21T06:07:21Z</time>
      </trkpt>
      <trkpt lat="44.17147" lon="5.22119">
        <ele>1163.5</ele>
        <time>2022-07-21T06:07:22Z</time>
      </trkpt>
      <trkpt lat="44.17148" lon="5.22121">
        <ele>1163.6</ele>
        <time>2022-07-21T06:07:23Z</time>
      </trkpt>
      <trkpt lat="44.17149" lon="5.22124">
        <ele>1163.8</ele>
        <time>2022-07-21T06:07:24Z</time>
      </trkpt>
      <trkpt lat="44.1715" lon="5.22125">
        <ele>1163.9</ele>
        <time>2022-07-21T06:07:25Z</time>
      </trkpt>
      <trkpt lat="44.1715" lon="5.22126">
        <ele>1164</ele>
        <time>2022-07-21T06:07:26Z</time>
      </trkpt>
      <trkpt lat="44.17151" lon="5.22129">
        <ele>1164.2</ele>
        <time>2022-07-21T06:07:27Z</time>
      </trkpt>
      <trkpt lat="44.17152" lon="5.2213">
        <ele>1164.3</ele>
        <time>2022-07-21T06:07:28Z</time>
      </trkpt>
      <trkpt lat="44.17152" lon="5.22131">
        <ele>1164.4</ele>
        <time>2022-07-21T06:07:29Z</time>
      </trkpt>
      <trkpt lat="44.17152" lon="5.22132">
        <ele>1164.5</ele>
        <time>2022-07-21T06:07:30Z</time>
      </trkpt>
      <trkpt lat="44.17153" lon="5.22133">
        <ele>1164.6</ele>
        <time>2022-07-21T06:07:31Z</time>
      </trkpt>
      <trkpt lat="44.17154" lon="5.22135">
        <ele>1164.6</ele>
        <time>2022-07-21T06:07:32Z</time>
      </trkpt>
      <trkpt lat="44.17154" lon="5.22137">
        <ele>1164.7</ele>
        <time>2022-07-21T06:07:33Z</time>
      </trkpt>
      <trkpt lat="44.17155" lon="5.22139">
        <ele>1164.9</ele>
        <time>2022-07-21T06:07:34Z</time>
      </trkpt>
      <trkpt lat="44.17155" lon="5.22141">
        <ele>1165</ele>
        <time>2022-07-21T06:07:35Z</time>
      </trkpt>
      <trkpt lat="44.17156" lon="5.22143">
        <ele>1165.1</ele>
        <time>2022-07-21T06:07:36Z</time>
      </trkpt>
      <trkpt lat="44.17157" lon="5.22145">
        <ele>1165.2</ele>
        <time>2022-07-21T06:07:37Z</time>
      </trkpt>
      <trkpt lat="44.17157" lon="5.22146">
        <ele>1165.3</ele>
        <time>2022-07-21T06:07:38Z</time>
      </trkpt>
      <trkpt lat="44.17158" lon="5.22146">
        <ele>1165.3</ele>
        <time>2022-07-21T06:07:39Z</time>
      </trkpt>
      <trkpt lat="44.17158" lon="5.22146">
        <ele>1165.4</ele>
        <time>2022-07-21T06:07:40Z</time>
      </trkpt>
      <trkpt lat="44.17159" lon="5.22146">
        <ele>1165.4</ele>
        <time>2022-07-21T06:07:41Z</time>
      </trkpt>
      <trkpt lat="44.17159" lon="5.22147">
        <ele>1165.4</ele>
        <time>2022-07-21T06:07:42Z</time>
      </trkpt>
      <trkpt lat="44.1716" lon="5.22148">
        <ele>1165.5</ele>
        <time>2022-07-21T06:07:43Z</time>
      </trkpt>
      <trkpt lat="44.17161" lon="5.22149">
        <ele>1165.6</ele>
        <time>2022-07-21T06:07:44Z</time>
      </trkpt>
      <trkpt lat="44.17163" lon="5.22153">
        <ele>1165.9</ele>
        <time>2022-07-21T06:07:45Z</time>
      </trkpt>
      <trkpt lat="44.17163" lon="5.22155">
        <ele>1166</ele>
        <time>2022-07-21T06:07:46Z</time>
      </trkpt>
      <trkpt lat="44.17164" lon="5.22159">
        <ele>1166.2</ele>
        <time>2022-07-21T06:07:47Z</time>
      </trkpt>
      <trkpt lat="44.17165" lon="5.22161">
        <ele>1166.3</ele>
        <time>2022-07-21T06:07:48Z</time>
      </trkpt>
      <trkpt lat="44.17166" lon="5.22165">
        <ele>1166.5</ele>
        <time>2022-07-21T06:07:49Z</time>
      </trkpt>
      <trkpt lat="44.17166" lon="5.22166">
        <ele>1166.6</ele>
        <time>2022-07-21T06:07:50Z</time>
      </trkpt>
      <trkpt lat="44.17167" lon="5.22169">
        <ele>1166.8</ele>
        <time>2022-07-21T06:07:51Z</time>
      </trkpt>
      <trkpt lat="44.17168" lon="5.2217">
        <ele>1166.9</ele>
        <time>2022-07-21T06:07:52Z</time>
      </trkpt>
      <trkpt lat="44.17169" lon="5.22172">
        <ele>1167</ele>
        <time>2022-07-21T06:07:53Z</time>
      </trkpt>
      <trkpt lat="44.1717" lon="5.22174">
        <ele>1167.1</ele>
        <time>2022-07-21T06:07:54Z</time>
      </trkpt>
      <trkpt lat="44.17171" lon="5.22179">
        <ele>1167.3</ele>
        <time>2022-07-21T06:07:55Z</time>
      </trkpt>
      <trkpt lat="44.17171" lon="5.2218">
        <ele>1167.4</ele>
        <time>2022-07-21T06:07:56Z</time>
      </trkpt>
      <trkpt lat="44.17172" lon="5.22182">
        <ele>1167.5</ele>
        <time>2022-07-21T06:07:57Z</time>
      </trkpt>
      <trkpt lat="44.17173" lon="5.22184">
        <ele>1167.6</ele>
        <time>2022-07-21T06:07:58Z</time>
      </trkpt>
      <trkpt lat="44.17173" lon="5.22186">
        <ele>1167.7</ele>
        <time>2022-07-21T06:07:59Z</time>
      </trkpt>
      <trkpt lat="44.17174" lon="5.22188">
        <ele>1167.9</ele>
        <time>2022-07-21T06:08:00Z</time>
      </trkpt>
      <trkpt lat="44.17175" lon="5.22192">
        <ele>1168.1</ele>
        <time>2022-07-21T06:08:01Z</time>
      </trkpt>
      <trkpt lat="44.17176" lon="5.22194">
        <ele>1168.2</ele>
        <time>2022-07-21T06:08:02Z</time>
      </trkpt>
      <trkpt lat="44.17177" lon="5.22197">
        <ele>1168.4</ele>
        <time>2022-07-21T06:08:03Z</time>
      </trkpt>
      <trkpt lat="44.17178" lon="5.22199">
        <ele>1168.5</ele>
        <time>2022-07-21T06:08:04Z</time>
      </trkpt>
      <trkpt lat="44.17179" lon="5.22203">
        <ele>1168.8</ele>
        <time>2022-07-21T06:08:05Z</time>
      </trkpt>
      <trkpt lat="44.17179" lon="5.22205">
        <ele>1168.9</ele>
        <time>2022-07-21T06:08:06Z</time>
      </trkpt>
      <trkpt lat="44.17181" lon="5.22209">
        <ele>1169.1</ele>
        <time>2022-07-21T06:08:07Z</time>
      </trkpt>
      <trkpt lat="44.17181" lon="5.2221">
        <ele>1169.2</ele>
        <time>2022-07-21T06:08:08Z</time>
      </trkpt>
      <trkpt lat="44.17182" lon="5.22214">
        <ele>1169.4</ele>
        <time>2022-07-21T06:08:09Z</time>
      </trkpt>
      <trkpt lat="44.17183" lon="5.22215">
        <ele>1169.5</ele>
        <time>2022-07-21T06:08:10Z</time>
      </trkpt>
      <trkpt lat="44.17184" lon="5.22217">
        <ele>1169.6</ele>
        <time>2022-07-21T06:08:11Z</time>
      </trkpt>
      <trkpt lat="44.17185" lon="5.22219">
        <ele>1169.8</ele>
        <time>2022-07-21T06:08:12Z</time>
      </trkpt>
      <trkpt lat="44.17186" lon="5.22223">
        <ele>1170.1</ele>
        <time>2022-07-21T06:08:13Z</time>
      </trkpt>
      <trkpt lat="44.17187" lon="5.22224">
        <ele>1170.1</ele>
        <time>2022-07-21T06:08:14Z</time>
      </trkpt>
      <trkpt lat="44.17188" lon="5.22228">
        <ele>1170.4</ele>
        <time>2022-07-21T06:08:15Z</time>
      </trkpt>
      <trkpt lat="44.17188" lon="5.22229">
        <ele>1170.5</ele>
        <time>2022-07-21T06:08:16Z</time>
      </trkpt>
      <trkpt lat="44.17189" lon="5.22233">
        <ele>1170.8</ele>
        <time>2022-07-21T06:08:17Z</time>
      </trkpt>
      <trkpt lat="44.1719" lon="5.22234">
        <ele>1170.8</ele>
        <time>2022-07-21T06:08:18Z</time>
      </trkpt>
      <trkpt lat="44.1719" lon="5.22236">
        <ele>1171</ele>
        <time>2022-07-21T06:08:19Z</time>
      </trkpt>
      <trkpt lat="44.17191" lon="5.22238">
        <ele>1171.2</ele>
        <time>2022-07-21T06:08:20Z</time>
      </trkpt>
      <trkpt lat="44.17192" lon="5.22242">
        <ele>1171.5</ele>
        <time>2022-07-21T06:08:21Z</time>
      </trkpt>
      <trkpt lat="44.17192" lon="5.22243">
        <ele>1171.5</ele>
        <time>2022-07-21T06:08:22Z</time>
      </trkpt>
      <trkpt lat="44.17194" lon="5.22247">
        <ele>1171.8</ele>
        <time>2022-07-21T06:08:23Z</time>
      </trkpt>
      <trkpt lat="44.17194" lon="5.22248">
        <ele>1171.9</ele>
        <time>2022-07-21T06:08:24Z</time>
      </trkpt>
      <trkpt lat="44.17195" lon="5.22252">
        <ele>1172.2</ele>
        <time>2022-07-21T06:08:25Z</time>
      </trkpt>
      <trkpt lat="44.17195" lon="5.22253">
        <ele>1172.3</ele>
        <time>2022-07-21T06:08:26Z</time>
      </trkpt>
      <trkpt lat="44.17197" lon="5.22257">
        <ele>1172.5</ele>
        <time>2022-07-21T06:08:27Z</time>
      </trkpt>
      <trkpt lat="44.17197" lon="5.22258">
        <ele>1172.6</ele>
        <time>2022-07-21T06:08:28Z</time>
      </trkpt>
      <trkpt lat="44.17198" lon="5.2226">
        <ele>1172.8</ele>
        <time>2022-07-21T06:08:29Z</time>
      </trkpt>
      <trkpt lat="44.17198" lon="5.22262">
        <ele>1173</ele>
        <time>2022-07-21T06:08:30Z</time>
      </trkpt>
      <trkpt lat="44.17199" lon="5.22265">
        <ele>1173.2</ele>
        <time>2022-07-21T06:08:31Z</time>
      </trkpt>
      <trkpt lat="44.172" lon="5.22267">
        <ele>1173.3</ele>
        <time>2022-07-21T06:08:32Z</time>
      </trkpt>
      <trkpt lat="44.17201" lon="5.2227">
        <ele>1173.6</ele>
        <time>2022-07-21T06:08:33Z</time>
      </trkpt>
      <trkpt lat="44.17202" lon="5.22271">
        <ele>1173.7</ele>
        <time>2022-07-21T06:08:34Z</time>
      </trkpt>
      <trkpt lat="44.17202" lon="5.22274">
        <ele>1173.9</ele>
        <time>2022-07-21T06:08:35Z</time>
      </trkpt>
      <trkpt lat="44.17203" lon="5.22276">
        <ele>1174</ele>
        <time>2022-07-21T06:08:36Z</time>
      </trkpt>
      <trkpt lat="44.17203" lon="5.22278">
        <ele>1174.2</ele>
        <time>2022-07-21T06:08:37Z</time>
      </trkpt>
      <trkpt lat="44.17203" lon="5.2228">
        <ele>1174.3</ele>
        <time>2022-07-21T06:08:38Z</time>
      </trkpt>
      <trkpt lat="44.17204" lon="5.22281">
        <ele>1174.5</ele>
        <time>2022-07-21T06:08:39Z</time>
      </trkpt>
      <trkpt lat="44.17205" lon="5.22284">
        <ele>1174.7</ele>
        <time>2022-07-21T06:08:40Z</time>
      </trkpt>
      <trkpt lat="44.17205" lon="5.22286">
        <ele>1174.8</ele>
        <time>2022-07-21T06:08:41Z</time>
      </trkpt>
      <trkpt lat="44.17206" lon="5.22288">
        <ele>1175</ele>
        <time>2022-07-21T06:08:42Z</time>
      </trkpt>
      <trkpt lat="44.17207" lon="5.2229">
        <ele>1175.2</ele>
        <time>2022-07-21T06:08:43Z</time>
      </trkpt>
      <trkpt lat="44.17208" lon="5.22292">
        <ele>1175.4</ele>
        <time>2022-07-21T06:08:44Z</time>
      </trkpt>
      <trkpt lat="44.17208" lon="5.22294">
        <ele>1175.6</ele>
        <time>2022-07-21T06:08:45Z</time>
      </trkpt>
      <trkpt lat="44.17209" lon="5.22297">
        <ele>1175.8</ele>
        <time>2022-07-21T06:08:46Z</time>
      </trkpt>
      <trkpt lat="44.1721" lon="5.223">
        <ele>1176.1</ele>
        <time>2022-07-21T06:08:47Z</time>
      </trkpt>
      <trkpt lat="44.1721" lon="5.22302">
        <ele>1176.2</ele>
        <time>2022-07-21T06:08:48Z</time>
      </trkpt>
      <trkpt lat="44.1721" lon="5.22304">
        <ele>1176.4</ele>
        <time>2022-07-21T06:08:49Z</time>
      </trkpt>
      <trkpt lat="44.17211" lon="5.22306">
        <ele>1176.6</ele>
        <time>2022-07-21T06:08:50Z</time>
      </trkpt>
      <trkpt lat="44.17211" lon="5.22308">
        <ele>1176.7</ele>
        <time>2022-07-21T06:08:51Z</time>
      </trkpt>
      <trkpt lat="44.17212" lon="5.22309">
        <ele>1176.9</ele>
        <time>2022-07-21T06:08:52Z</time>
      </trkpt>
      <trkpt lat="44.17213" lon="5.22311">
        <ele>1177.1</ele>
        <time>2022-07-21T06:08:53Z</time>
      </trkpt>
      <trkpt lat="44.17213" lon="5.22313">
        <ele>1177.2</ele>
        <time>2022-07-21T06:08:54Z</time>
      </trkpt>
      <trkpt lat="44.17214" lon="5.22315">
        <ele>1177.4</ele>
        <time>2022-07-21T06:08:55Z</time>
      </trkpt>
      <trkpt lat="44.17214" lon="5.22317">
        <ele>1177.6</ele>
        <time>2022-07-21T06:08:56Z</time>
      </trkpt>
      <trkpt lat="44.17215" lon="5.22319">
        <ele>1177.8</ele>
        <time>2022-07-21T06:08:57Z</time>
      </trkpt>
      <trkpt lat="44.17215" lon="5.22321">
        <ele>1177.9</ele>
        <time>2022-07-21T06:08:58Z</time>
      </trkpt>
      <trkpt lat="44.17216" lon="5.22323">
        <ele>1178.1</ele>
        <time>2022-07-21T06:08:59Z</time>
      </trkpt>
      <trkpt lat="44.17216" lon="5.22324">
        <ele>1178.2</ele>
        <time>2022-07-21T06:09:00Z</time>
      </trkpt>
      <trkpt lat="44.17217" lon="5.22326">
        <ele>1178.4</ele>
        <time>2022-07-21T06:09:01Z</time>
      </trkpt>
      <trkpt lat="44.17218" lon="5.22328">
        <ele>1178.6</ele>
        <time>2022-07-21T06:09:02Z</time>
      </trkpt>
      <trkpt lat="44.17218" lon="5.2233">
        <ele>1178.7</ele>
        <time>2022-07-21T06:09:03Z</time>
      </trkpt>
      <trkpt lat="44.17219" lon="5.22332">
        <ele>1178.9</ele>
        <time>2022-07-21T06:09:04Z</time>
      </trkpt>
      <trkpt lat="44.17219" lon="5.22334">
        <ele>1179.1</ele>
        <time>2022-07-21T06:09:05Z</time>
      </trkpt>
      <trkpt lat="44.1722" lon="5.22336">
        <ele>1179.3</ele>
        <time>2022-07-21T06:09:06Z</time>
      </trkpt>
      <trkpt lat="44.17221" lon="5.22338">
        <ele>1179.5</ele>
        <time>2022-07-21T06:09:07Z</time>
      </trkpt>
      <trkpt lat="44.17221" lon="5.2234">
        <ele>1179.6</ele>
        <time>2022-07-21T06:09:08Z</time>
      </trkpt>
      <trkpt lat="44.17222" lon="5.22343">
        <ele>1179.8</ele>
        <time>2022-07-21T06:09:09Z</time>
      </trkpt>
      <trkpt lat="44.17223" lon="5.22344">
        <ele>1179.9</ele>
        <time>2022-07-21T06:09:10Z</time>
      </trkpt>
      <trkpt lat="44.17223" lon="5.22345">
        <ele>1180</ele>
        <time>2022-07-21T06:09:11Z</time>
      </trkpt>
      <trkpt lat="44.17224" lon="5.22348">
        <ele>1180.3</ele>
        <time>2022-07-21T06:09:12Z</time>
      </trkpt>
      <trkpt lat="44.17224" lon="5.22349">
        <ele>1180.4</ele>
        <time>2022-07-21T06:09:13Z</time>
      </trkpt>
      <trkpt lat="44.17225" lon="5.2235">
        <ele>1180.5</ele>
        <time>2022-07-21T06:09:14Z</time>
      </trkpt>
      <trkpt lat="44.17225" lon="5.22352">
        <ele>1180.7</ele>
        <time>2022-07-21T06:09:15Z</time>
      </trkpt>
      <trkpt lat="44.17226" lon="5.22354">
        <ele>1180.9</ele>
        <time>2022-07-21T06:09:16Z</time>
      </trkpt>
      <trkpt lat="44.17227" lon="5.22356">
        <ele>1181.1</ele>
        <time>2022-07-21T06:09:17Z</time>
      </trkpt>
      <trkpt lat="44.17228" lon="5.22358">
        <ele>1181.2</ele>
        <time>2022-07-21T06:09:18Z</time>
      </trkpt>
      <trkpt lat="44.17229" lon="5.22359">
        <ele>1181.4</ele>
        <time>2022-07-21T06:09:19Z</time>
      </trkpt>
      <trkpt lat="44.17229" lon="5.22361">
        <ele>1181.6</ele>
        <time>2022-07-21T06:09:20Z</time>
      </trkpt>
      <trkpt lat="44.1723" lon="5.22363">
        <ele>1181.8</ele>
        <time>2022-07-21T06:09:21Z</time>
      </trkpt>
      <trkpt lat="44.17231" lon="5.22365">
        <ele>1181.9</ele>
        <time>2022-07-21T06:09:22Z</time>
      </trkpt>
      <trkpt lat="44.17231" lon="5.22367">
        <ele>1182.1</ele>
        <time>2022-07-21T06:09:23Z</time>
      </trkpt>
      <trkpt lat="44.17232" lon="5.22369">
        <ele>1182.2</ele>
        <time>2022-07-21T06:09:24Z</time>
      </trkpt>
      <trkpt lat="44.17232" lon="5.2237">
        <ele>1182.4</ele>
        <time>2022-07-21T06:09:25Z</time>
      </trkpt>
      <trkpt lat="44.17232" lon="5.22371">
        <ele>1182.5</ele>
        <time>2022-07-21T06:09:26Z</time>
      </trkpt>
      <trkpt lat="44.17233" lon="5.22373">
        <ele>1182.6</ele>
        <time>2022-07-21T06:09:27Z</time>
      </trkpt>
      <trkpt lat="44.17234" lon="5.22376">
        <ele>1182.9</ele>
        <time>2022-07-21T06:09:28Z</time>
      </trkpt>
      <trkpt lat="44.17234" lon="5.22377">
        <ele>1183</ele>
        <time>2022-07-21T06:09:29Z</time>
      </trkpt>
      <trkpt lat="44.17235" lon="5.22378">
        <ele>1183.1</ele>
        <time>2022-07-21T06:09:30Z</time>
      </trkpt>
      <trkpt lat="44.17236" lon="5.2238">
        <ele>1183.3</ele>
        <time>2022-07-21T06:09:31Z</time>
      </trkpt>
      <trkpt lat="44.17237" lon="5.22381">
        <ele>1183.4</ele>
        <time>2022-07-21T06:09:32Z</time>
      </trkpt>
      <trkpt lat="44.17237" lon="5.22383">
        <ele>1183.6</ele>
        <time>2022-07-21T06:09:33Z</time>
      </trkpt>
      <trkpt lat="44.17238" lon="5.22385">
        <ele>1183.8</ele>
        <time>2022-07-21T06:09:34Z</time>
      </trkpt>
      <trkpt lat="44.17239" lon="5.22388">
        <ele>1184</ele>
        <time>2022-07-21T06:09:35Z</time>
      </trkpt>
      <trkpt lat="44.17239" lon="5.22389">
        <ele>1184.1</ele>
        <time>2022-07-21T06:09:36Z</time>
      </trkpt>
      <trkpt lat="44.17239" lon="5.2239">
        <ele>1184.3</ele>
        <time>2022-07-21T06:09:37Z</time>
      </trkpt>
      <trkpt lat="44.1724" lon="5.22393">
        <ele>1184.5</ele>
        <time>2022-07-21T06:09:38Z</time>
      </trkpt>
      <trkpt lat="44.17241" lon="5.22394">
        <ele>1184.6</ele>
        <time>2022-07-21T06:09:39Z</time>
      </trkpt>
      <trkpt lat="44.17241" lon="5.22395">
        <ele>1184.7</ele>
        <time>2022-07-21T06:09:40Z</time>
      </trkpt>
      <trkpt lat="44.17242" lon="5.22397">
        <ele>1184.9</ele>
        <time>2022-07-21T06:09:41Z</time>
      </trkpt>
      <trkpt lat="44.17243" lon="5.22399">
        <ele>1185</ele>
        <time>2022-07-21T06:09:42Z</time>
      </trkpt>
      <trkpt lat="44.17244" lon="5.22401">
        <ele>1185.3</ele>
        <time>2022-07-21T06:09:43Z</time>
      </trkpt>
      <trkpt lat="44.17244" lon="5.22402">
        <ele>1185.4</ele>
        <time>2022-07-21T06:09:44Z</time>
      </trkpt>
      <trkpt lat="44.17245" lon="5.22404">
        <ele>1185.5</ele>
        <time>2022-07-21T06:09:45Z</time>
      </trkpt>
      <trkpt lat="44.17245" lon="5.22405">
        <ele>1185.6</ele>
        <time>2022-07-21T06:09:46Z</time>
      </trkpt>
      <trkpt lat="44.17246" lon="5.22406">
        <ele>1185.8</ele>
        <time>2022-07-21T06:09:47Z</time>
      </trkpt>
      <trkpt lat="44.17247" lon="5.22408">
        <ele>1185.9</ele>
        <time>2022-07-21T06:09:48Z</time>
      </trkpt>
      <trkpt lat="44.17247" lon="5.22409">
        <ele>1186</ele>
        <time>2022-07-21T06:09:49Z</time>
      </trkpt>
      <trkpt lat="44.17247" lon="5.2241">
        <ele>1186.1</ele>
        <time>2022-07-21T06:09:50Z</time>
      </trkpt>
      <trkpt lat="44.17248" lon="5.22412">
        <ele>1186.3</ele>
        <time>2022-07-21T06:09:51Z</time>
      </trkpt>
      <trkpt lat="44.17249" lon="5.22414">
        <ele>1186.5</ele>
        <time>2022-07-21T06:09:52Z</time>
      </trkpt>
      <trkpt lat="44.1725" lon="5.22415">
        <ele>1186.6</ele>
        <time>2022-07-21T06:09:53Z</time>
      </trkpt>
      <trkpt lat="44.17251" lon="5.22418">
        <ele>1186.9</ele>
        <time>2022-07-21T06:09:54Z</time>
      </trkpt>
      <trkpt lat="44.17251" lon="5.22419">
        <ele>1187</ele>
        <time>2022-07-21T06:09:55Z</time>
      </trkpt>
      <trkpt lat="44.17252" lon="5.2242">
        <ele>1187.1</ele>
        <time>2022-07-21T06:09:56Z</time>
      </trkpt>
      <trkpt lat="44.17253" lon="5.22422">
        <ele>1187.3</ele>
        <time>2022-07-21T06:09:57Z</time>
      </trkpt>
      <trkpt lat="44.17253" lon="5.22424">
        <ele>1187.4</ele>
        <time>2022-07-21T06:09:58Z</time>
      </trkpt>
      <trkpt lat="44.17254" lon="5.22425">
        <ele>1187.6</ele>
        <time>2022-07-21T06:09:59Z</time>
      </trkpt>
      <trkpt lat="44.17255" lon="5.22427">
        <ele>1187.8</ele>
        <time>2022-07-21T06:10:00Z</time>
      </trkpt>
      <trkpt lat="44.17256" lon="5.22429">
        <ele>1187.9</ele>
        <time>2022-07-21T06:10:01Z</time>
      </trkpt>
      <trkpt lat="44.17256" lon="5.2243">
        <ele>1188.1</ele>
        <time>2022-07-21T06:10:02Z</time>
      </trkpt>
      <trkpt lat="44.17257" lon="5.22432">
        <ele>1188.3</ele>
        <time>2022-07-21T06:10:03Z</time>
      </trkpt>
      <trkpt lat="44.17258" lon="5.22433">
        <ele>1188.4</ele>
        <time>2022-07-21T06:10:04Z</time>
      </trkpt>
      <trkpt lat="44.17259" lon="5.22435">
        <ele>1188.6</ele>
        <time>2022-07-21T06:10:05Z</time>
      </trkpt>
      <trkpt lat="44.1726" lon="5.22437">
        <ele>1188.8</ele>
        <time>2022-07-21T06:10:06Z</time>
      </trkpt>
      <trkpt lat="44.17261" lon="5.22439">
        <ele>1189</ele>
        <time>2022-07-21T06:10:07Z</time>
      </trkpt>
      <trkpt lat="44.17262" lon="5.2244">
        <ele>1189.1</ele>
        <time>2022-07-21T06:10:08Z</time>
      </trkpt>
      <trkpt lat="44.17262" lon="5.22442">
        <ele>1189.2</ele>
        <time>2022-07-21T06:10:09Z</time>
      </trkpt>
      <trkpt lat="44.17263" lon="5.22443">
        <ele>1189.4</ele>
        <time>2022-07-21T06:10:10Z</time>
      </trkpt>
      <trkpt lat="44.17264" lon="5.22445">
        <ele>1189.6</ele>
        <time>2022-07-21T06:10:11Z</time>
      </trkpt>
      <trkpt lat="44.17265" lon="5.22447">
        <ele>1189.8</ele>
        <time>2022-07-21T06:10:12Z</time>
      </trkpt>
      <trkpt lat="44.17266" lon="5.22449">
        <ele>1190</ele>
        <time>2022-07-21T06:10:13Z</time>
      </trkpt>
      <trkpt lat="44.17267" lon="5.22451">
        <ele>1190.2</ele>
        <time>2022-07-21T06:10:14Z</time>
      </trkpt>
      <trkpt lat="44.17268" lon="5.22453">
        <ele>1190.4</ele>
        <time>2022-07-21T06:10:15Z</time>
      </trkpt>
      <trkpt lat="44.17269" lon="5.22455">
        <ele>1190.6</ele>
        <time>2022-07-21T06:10:16Z</time>
      </trkpt>
      <trkpt lat="44.1727" lon="5.22456">
        <ele>1190.8</ele>
        <time>2022-07-21T06:10:17Z</time>
      </trkpt>
      <trkpt lat="44.17271" lon="5.22458">
        <ele>1191</ele>
        <time>2022-07-21T06:10:18Z</time>
      </trkpt>
      <trkpt lat="44.17271" lon="5.2246">
        <ele>1191.2</ele>
        <time>2022-07-21T06:10:19Z</time>
      </trkpt>
      <trkpt lat="44.17272" lon="5.22462">
        <ele>1191.3</ele>
        <time>2022-07-21T06:10:20Z</time>
      </trkpt>
      <trkpt lat="44.17273" lon="5.22464">
        <ele>1191.5</ele>
        <time>2022-07-21T06:10:21Z</time>
      </trkpt>
      <trkpt lat="44.17274" lon="5.22465">
        <ele>1191.7</ele>
        <time>2022-07-21T06:10:22Z</time>
      </trkpt>
      <trkpt lat="44.17275" lon="5.22467">
        <ele>1191.9</ele>
        <time>2022-07-21T06:10:23Z</time>
      </trkpt>
      <trkpt lat="44.17275" lon="5.22469">
        <ele>1192.1</ele>
        <time>2022-07-21T06:10:24Z</time>
      </trkpt>
      <trkpt lat="44.17276" lon="5.22471">
        <ele>1192.3</ele>
        <time>2022-07-21T06:10:25Z</time>
      </trkpt>
      <trkpt lat="44.17277" lon="5.22474">
        <ele>1192.6</ele>
        <time>2022-07-21T06:10:26Z</time>
      </trkpt>
      <trkpt lat="44.17277" lon="5.22475">
        <ele>1192.7</ele>
        <time>2022-07-21T06:10:27Z</time>
      </trkpt>
      <trkpt lat="44.17278" lon="5.22477">
        <ele>1192.9</ele>
        <time>2022-07-21T06:10:28Z</time>
      </trkpt>
      <trkpt lat="44.17279" lon="5.22479">
        <ele>1193.1</ele>
        <time>2022-07-21T06:10:29Z</time>
      </trkpt>
      <trkpt lat="44.1728" lon="5.22481">
        <ele>1193.3</ele>
        <time>2022-07-21T06:10:30Z</time>
      </trkpt>
      <trkpt lat="44.1728" lon="5.22483">
        <ele>1193.5</ele>
        <time>2022-07-21T06:10:31Z</time>
      </trkpt>
      <trkpt lat="44.17281" lon="5.22484">
        <ele>1193.6</ele>
        <time>2022-07-21T06:10:32Z</time>
      </trkpt>
      <trkpt lat="44.17282" lon="5.22486">
        <ele>1193.8</ele>
        <time>2022-07-21T06:10:33Z</time>
      </trkpt>
      <trkpt lat="44.17282" lon="5.22488">
        <ele>1194</ele>
        <time>2022-07-21T06:10:34Z</time>
      </trkpt>
      <trkpt lat="44.17283" lon="5.22491">
        <ele>1194.3</ele>
        <time>2022-07-21T06:10:35Z</time>
      </trkpt>
      <trkpt lat="44.17284" lon="5.22493">
        <ele>1194.5</ele>
        <time>2022-07-21T06:10:36Z</time>
      </trkpt>
      <trkpt lat="44.17284" lon="5.22494">
        <ele>1194.6</ele>
        <time>2022-07-21T06:10:37Z</time>
      </trkpt>
      <trkpt lat="44.17285" lon="5.22496">
        <ele>1194.8</ele>
        <time>2022-07-21T06:10:38Z</time>
      </trkpt>
      <trkpt lat="44.17286" lon="5.22498">
        <ele>1195</ele>
        <time>2022-07-21T06:10:39Z</time>
      </trkpt>
      <trkpt lat="44.17287" lon="5.22499">
        <ele>1195.2</ele>
        <time>2022-07-21T06:10:40Z</time>
      </trkpt>
      <trkpt lat="44.17287" lon="5.22501">
        <ele>1195.4</ele>
        <time>2022-07-21T06:10:41Z</time>
      </trkpt>
      <trkpt lat="44.17288" lon="5.22503">
        <ele>1195.6</ele>
        <time>2022-07-21T06:10:42Z</time>
      </trkpt>
      <trkpt lat="44.17289" lon="5.22504">
        <ele>1195.7</ele>
        <time>2022-07-21T06:10:43Z</time>
      </trkpt>
      <trkpt lat="44.17289" lon="5.22505">
        <ele>1195.9</ele>
        <time>2022-07-21T06:10:44Z</time>
      </trkpt>
      <trkpt lat="44.1729" lon="5.22507">
        <ele>1196</ele>
        <time>2022-07-21T06:10:45Z</time>
      </trkpt>
      <trkpt lat="44.1729" lon="5.22509">
        <ele>1196.3</ele>
        <time>2022-07-21T06:10:46Z</time>
      </trkpt>
      <trkpt lat="44.17291" lon="5.22511">
        <ele>1196.5</ele>
        <time>2022-07-21T06:10:47Z</time>
      </trkpt>
      <trkpt lat="44.17291" lon="5.22514">
        <ele>1196.7</ele>
        <time>2022-07-21T06:10:48Z</time>
      </trkpt>
      <trkpt lat="44.17292" lon="5.22515">
        <ele>1196.9</ele>
        <time>2022-07-21T06:10:49Z</time>
      </trkpt>
      <trkpt lat="44.17292" lon="5.22517">
        <ele>1197.1</ele>
        <time>2022-07-21T06:10:50Z</time>
      </trkpt>
      <trkpt lat="44.17293" lon="5.22519">
        <ele>1197.2</ele>
        <time>2022-07-21T06:10:51Z</time>
      </trkpt>
      <trkpt lat="44.17293" lon="5.2252">
        <ele>1197.4</ele>
        <time>2022-07-21T06:10:52Z</time>
      </trkpt>
      <trkpt lat="44.17293" lon="5.22522">
        <ele>1197.5</ele>
        <time>2022-07-21T06:10:53Z</time>
      </trkpt>
      <trkpt lat="44.17294" lon="5.22525">
        <ele>1197.8</ele>
        <time>2022-07-21T06:10:54Z</time>
      </trkpt>
      <trkpt lat="44.17295" lon="5.22526">
        <ele>1197.9</ele>
        <time>2022-07-21T06:10:55Z</time>
      </trkpt>
      <trkpt lat="44.17295" lon="5.22527">
        <ele>1198</ele>
        <time>2022-07-21T06:10:56Z</time>
      </trkpt>
      <trkpt lat="44.17295" lon="5.2253">
        <ele>1198.3</ele>
        <time>2022-07-21T06:10:57Z</time>
      </trkpt>
      <trkpt lat="44.17296" lon="5.22531">
        <ele>1198.4</ele>
        <time>2022-07-21T06:10:58Z</time>
      </trkpt>
      <trkpt lat="44.17296" lon="5.22532">
        <ele>1198.5</ele>
        <time>2022-07-21T06:10:59Z</time>
      </trkpt>
      <trkpt lat="44.17296" lon="5.22533">
        <ele>1198.7</ele>
        <time>2022-07-21T06:11:00Z</time>
      </trkpt>
      <trkpt lat="44.17297" lon="5.22534">
        <ele>1198.8</ele>
        <time>2022-07-21T06:11:01Z</time>
      </trkpt>
      <trkpt lat="44.17297" lon="5.22536">
        <ele>1198.9</ele>
        <time>2022-07-21T06:11:02Z</time>
      </trkpt>
      <trkpt lat="44.17297" lon="5.22538">
        <ele>1199.1</ele>
        <time>2022-07-21T06:11:03Z</time>
      </trkpt>
      <trkpt lat="44.17297" lon="5.22539">
        <ele>1199.2</ele>
        <time>2022-07-21T06:11:04Z</time>
      </trkpt>
      <trkpt lat="44.17298" lon="5.2254">
        <ele>1199.3</ele>
        <time>2022-07-21T06:11:05Z</time>
      </trkpt>
      <trkpt lat="44.17298" lon="5.22543">
        <ele>1199.6</ele>
        <time>2022-07-21T06:11:06Z</time>
      </trkpt>
      <trkpt lat="44.17299" lon="5.22544">
        <ele>1199.7</ele>
        <time>2022-07-21T06:11:07Z</time>
      </trkpt>
      <trkpt lat="44.17299" lon="5.22545">
        <ele>1199.8</ele>
        <time>2022-07-21T06:11:08Z</time>
      </trkpt>
      <trkpt lat="44.173" lon="5.22548">
        <ele>1200</ele>
        <time>2022-07-21T06:11:09Z</time>
      </trkpt>
      <trkpt lat="44.173" lon="5.22549">
        <ele>1200.1</ele>
        <time>2022-07-21T06:11:10Z</time>
      </trkpt>
      <trkpt lat="44.173" lon="5.2255">
        <ele>1200.2</ele>
        <time>2022-07-21T06:11:11Z</time>
      </trkpt>
      <trkpt lat="44.173" lon="5.22552">
        <ele>1200.3</ele>
        <time>2022-07-21T06:11:12Z</time>
      </trkpt>
      <trkpt lat="44.173" lon="5.22553">
        <ele>1200.4</ele>
        <time>2022-07-21T06:11:13Z</time>
      </trkpt>
      <trkpt lat="44.173" lon="5.22554">
        <ele>1200.6</ele>
        <time>2022-07-21T06:11:14Z</time>
      </trkpt>
      <trkpt lat="44.17301" lon="5.22556">
        <ele>1200.7</ele>
        <time>2022-07-21T06:11:15Z</time>
      </trkpt>
      <trkpt lat="44.17301" lon="5.22558">
        <ele>1200.9</ele>
        <time>2022-07-21T06:11:16Z</time>
      </trkpt>
      <trkpt lat="44.17302" lon="5.22561">
        <ele>1201.2</ele>
        <time>2022-07-21T06:11:17Z</time>
      </trkpt>
      <trkpt lat="44.17302" lon="5.22562">
        <ele>1201.3</ele>
        <time>2022-07-21T06:11:18Z</time>
      </trkpt>
      <trkpt lat="44.17302" lon="5.22564">
        <ele>1201.4</ele>
        <time>2022-07-21T06:11:19Z</time>
      </trkpt>
      <trkpt lat="44.17303" lon="5.22566">
        <ele>1201.6</ele>
        <time>2022-07-21T06:11:20Z</time>
      </trkpt>
      <trkpt lat="44.17303" lon="5.22568">
        <ele>1201.8</ele>
        <time>2022-07-21T06:11:21Z</time>
      </trkpt>
      <trkpt lat="44.17304" lon="5.2257">
        <ele>1201.9</ele>
        <time>2022-07-21T06:11:22Z</time>
      </trkpt>
      <trkpt lat="44.17304" lon="5.22571">
        <ele>1202.1</ele>
        <time>2022-07-21T06:11:23Z</time>
      </trkpt>
      <trkpt lat="44.17305" lon="5.22574">
        <ele>1202.4</ele>
        <time>2022-07-21T06:11:24Z</time>
      </trkpt>
      <trkpt lat="44.17305" lon="5.22575">
        <ele>1202.5</ele>
        <time>2022-07-21T06:11:25Z</time>
      </trkpt>
      <trkpt lat="44.17306" lon="5.22576">
        <ele>1202.6</ele>
        <time>2022-07-21T06:11:26Z</time>
      </trkpt>
      <trkpt lat="44.17306" lon="5.22576">
        <ele>1202.6</ele>
        <time>2022-07-21T06:11:27Z</time>
      </trkpt>
      <trkpt lat="44.17307" lon="5.22578">
        <ele>1202.7</ele>
        <time>2022-07-21T06:11:28Z</time>
      </trkpt>
      <trkpt lat="44.17307" lon="5.22579">
        <ele>1202.9</ele>
        <time>2022-07-21T06:11:29Z</time>
      </trkpt>
      <trkpt lat="44.17308" lon="5.22582">
        <ele>1203.2</ele>
        <time>2022-07-21T06:11:30Z</time>
      </trkpt>
      <trkpt lat="44.17308" lon="5.22583">
        <ele>1203.3</ele>
        <time>2022-07-21T06:11:31Z</time>
      </trkpt>
      <trkpt lat="44.17309" lon="5.22584">
        <ele>1203.4</ele>
        <time>2022-07-21T06:11:32Z</time>
      </trkpt>
      <trkpt lat="44.17309" lon="5.22586">
        <ele>1203.5</ele>
        <time>2022-07-21T06:11:33Z</time>
      </trkpt>
      <trkpt lat="44.17309" lon="5.22587">
        <ele>1203.6</ele>
        <time>2022-07-21T06:11:34Z</time>
      </trkpt>
      <trkpt lat="44.17309" lon="5.22589">
        <ele>1203.8</ele>
        <time>2022-07-21T06:11:35Z</time>
      </trkpt>
      <trkpt lat="44.1731" lon="5.22591">
        <ele>1204</ele>
        <time>2022-07-21T06:11:36Z</time>
      </trkpt>
      <trkpt lat="44.1731" lon="5.22593">
        <ele>1204.1</ele>
        <time>2022-07-21T06:11:37Z</time>
      </trkpt>
      <trkpt lat="44.1731" lon="5.22595">
        <ele>1204.3</ele>
        <time>2022-07-21T06:11:38Z</time>
      </trkpt>
      <trkpt lat="44.17311" lon="5.22597">
        <ele>1204.5</ele>
        <time>2022-07-21T06:11:39Z</time>
      </trkpt>
      <trkpt lat="44.17311" lon="5.226">
        <ele>1204.8</ele>
        <time>2022-07-21T06:11:40Z</time>
      </trkpt>
      <trkpt lat="44.17311" lon="5.22601">
        <ele>1204.9</ele>
        <time>2022-07-21T06:11:41Z</time>
      </trkpt>
      <trkpt lat="44.17311" lon="5.22602">
        <ele>1205</ele>
        <time>2022-07-21T06:11:42Z</time>
      </trkpt>
      <trkpt lat="44.17312" lon="5.22604">
        <ele>1205.2</ele>
        <time>2022-07-21T06:11:43Z</time>
      </trkpt>
      <trkpt lat="44.17312" lon="5.22606">
        <ele>1205.4</ele>
        <time>2022-07-21T06:11:44Z</time>
      </trkpt>
      <trkpt lat="44.17313" lon="5.22608">
        <ele>1205.6</ele>
        <time>2022-07-21T06:11:45Z</time>
      </trkpt>
      <trkpt lat="44.17314" lon="5.2261">
        <ele>1205.8</ele>
        <time>2022-07-21T06:11:46Z</time>
      </trkpt>
      <trkpt lat="44.17314" lon="5.22613">
        <ele>1206</ele>
        <time>2022-07-21T06:11:47Z</time>
      </trkpt>
      <trkpt lat="44.17315" lon="5.22615">
        <ele>1206.2</ele>
        <time>2022-07-21T06:11:48Z</time>
      </trkpt>
      <trkpt lat="44.17315" lon="5.22616">
        <ele>1206.4</ele>
        <time>2022-07-21T06:11:49Z</time>
      </trkpt>
      <trkpt lat="44.17316" lon="5.22619">
        <ele>1206.6</ele>
        <time>2022-07-21T06:11:50Z</time>
      </trkpt>
      <trkpt lat="44.17316" lon="5.22621">
        <ele>1206.8</ele>
        <time>2022-07-21T06:11:51Z</time>
      </trkpt>
      <trkpt lat="44.17317" lon="5.22623">
        <ele>1207</ele>
        <time>2022-07-21T06:11:52Z</time>
      </trkpt>
      <trkpt lat="44.17317" lon="5.22625">
        <ele>1207.2</ele>
        <time>2022-07-21T06:11:53Z</time>
      </trkpt>
      <trkpt lat="44.17318" lon="5.22628">
        <ele>1207.4</ele>
        <time>2022-07-21T06:11:54Z</time>
      </trkpt>
      <trkpt lat="44.17318" lon="5.22629">
        <ele>1207.6</ele>
        <time>2022-07-21T06:11:55Z</time>
      </trkpt>
      <trkpt lat="44.17318" lon="5.22631">
        <ele>1207.7</ele>
        <time>2022-07-21T06:11:56Z</time>
      </trkpt>
      <trkpt lat="44.17319" lon="5.22632">
        <ele>1207.8</ele>
        <time>2022-07-21T06:11:57Z</time>
      </trkpt>
      <trkpt lat="44.1732" lon="5.22635">
        <ele>1208.1</ele>
        <time>2022-07-21T06:11:58Z</time>
      </trkpt>
      <trkpt lat="44.1732" lon="5.22636">
        <ele>1208.2</ele>
        <time>2022-07-21T06:11:59Z</time>
      </trkpt>
      <trkpt lat="44.17321" lon="5.22637">
        <ele>1208.3</ele>
        <time>2022-07-21T06:12:00Z</time>
      </trkpt>
      <trkpt lat="44.17321" lon="5.22638">
        <ele>1208.4</ele>
        <time>2022-07-21T06:12:01Z</time>
      </trkpt>
      <trkpt lat="44.17322" lon="5.2264">
        <ele>1208.5</ele>
        <time>2022-07-21T06:12:02Z</time>
      </trkpt>
      <trkpt lat="44.17322" lon="5.22641">
        <ele>1208.6</ele>
        <time>2022-07-21T06:12:03Z</time>
      </trkpt>
      <trkpt lat="44.17322" lon="5.22642">
        <ele>1208.8</ele>
        <time>2022-07-21T06:12:04Z</time>
      </trkpt>
      <trkpt lat="44.17323" lon="5.22644">
        <ele>1208.9</ele>
        <time>2022-07-21T06:12:05Z</time>
      </trkpt>
      <trkpt lat="44.17323" lon="5.22645">
        <ele>1209</ele>
        <time>2022-07-21T06:12:06Z</time>
      </trkpt>
      <trkpt lat="44.17324" lon="5.22646">
        <ele>1209.1</ele>
        <time>2022-07-21T06:12:07Z</time>
      </trkpt>
      <trkpt lat="44.17324" lon="5.22648">
        <ele>1209.3</ele>
        <time>2022-07-21T06:12:08Z</time>
      </trkpt>
      <trkpt lat="44.17324" lon="5.22649">
        <ele>1209.4</ele>
        <time>2022-07-21T06:12:09Z</time>
      </trkpt>
      <trkpt lat="44.17325" lon="5.22651">
        <ele>1209.6</ele>
        <time>2022-07-21T06:12:10Z</time>
      </trkpt>
      <trkpt lat="44.17325" lon="5.22652">
        <ele>1209.7</ele>
        <time>2022-07-21T06:12:11Z</time>
      </trkpt>
      <trkpt lat="44.17326" lon="5.22654">
        <ele>1209.8</ele>
        <time>2022-07-21T06:12:12Z</time>
      </trkpt>
      <trkpt lat="44.17327" lon="5.22656">
        <ele>1210.1</ele>
        <time>2022-07-21T06:12:13Z</time>
      </trkpt>
      <trkpt lat="44.17327" lon="5.22658">
        <ele>1210.2</ele>
        <time>2022-07-21T06:12:14Z</time>
      </trkpt>
      <trkpt lat="44.17327" lon="5.22659">
        <ele>1210.3</ele>
        <time>2022-07-21T06:12:15Z</time>
      </trkpt>
      <trkpt lat="44.17328" lon="5.22661">
        <ele>1210.5</ele>
        <time>2022-07-21T06:12:16Z</time>
      </trkpt>
      <trkpt lat="44.17328" lon="5.22663">
        <ele>1210.6</ele>
        <time>2022-07-21T06:12:17Z</time>
      </trkpt>
      <trkpt lat="44.17328" lon="5.22664">
        <ele>1210.8</ele>
        <time>2022-07-21T06:12:18Z</time>
      </trkpt>
      <trkpt lat="44.17329" lon="5.22666">
        <ele>1211</ele>
        <time>2022-07-21T06:12:19Z</time>
      </trkpt>
      <trkpt lat="44.17329" lon="5.22668">
        <ele>1211.1</ele>
        <time>2022-07-21T06:12:20Z</time>
      </trkpt>
      <trkpt lat="44.1733" lon="5.2267">
        <ele>1211.3</ele>
        <time>2022-07-21T06:12:21Z</time>
      </trkpt>
      <trkpt lat="44.1733" lon="5.22672">
        <ele>1211.5</ele>
        <time>2022-07-21T06:12:22Z</time>
      </trkpt>
      <trkpt lat="44.1733" lon="5.22674">
        <ele>1211.7</ele>
        <time>2022-07-21T06:12:23Z</time>
      </trkpt>
      <trkpt lat="44.17331" lon="5.22676">
        <ele>1211.8</ele>
        <time>2022-07-21T06:12:24Z</time>
      </trkpt>
      <trkpt lat="44.17331" lon="5.22679">
        <ele>1212.1</ele>
        <time>2022-07-21T06:12:25Z</time>
      </trkpt>
      <trkpt lat="44.17331" lon="5.2268">
        <ele>1212.2</ele>
        <time>2022-07-21T06:12:26Z</time>
      </trkpt>
      <trkpt lat="44.17332" lon="5.22681">
        <ele>1212.3</ele>
        <time>2022-07-21T06:12:27Z</time>
      </trkpt>
      <trkpt lat="44.17332" lon="5.22683">
        <ele>1212.5</ele>
        <time>2022-07-21T06:12:28Z</time>
      </trkpt>
      <trkpt lat="44.17332" lon="5.22684">
        <ele>1212.6</ele>
        <time>2022-07-21T06:12:29Z</time>
      </trkpt>
      <trkpt lat="44.17332" lon="5.22686">
        <ele>1212.8</ele>
        <time>2022-07-21T06:12:30Z</time>
      </trkpt>
      <trkpt lat="44.17333" lon="5.22688">
        <ele>1213</ele>
        <time>2022-07-21T06:12:31Z</time>
      </trkpt>
      <trkpt lat="44.17333" lon="5.2269">
        <ele>1213.1</ele>
        <time>2022-07-21T06:12:32Z</time>
      </trkpt>
      <trkpt lat="44.17334" lon="5.22692">
        <ele>1213.4</ele>
        <time>2022-07-21T06:12:33Z</time>
      </trkpt>
      <trkpt lat="44.17334" lon="5.22694">
        <ele>1213.5</ele>
        <time>2022-07-21T06:12:34Z</time>
      </trkpt>
      <trkpt lat="44.17334" lon="5.22695">
        <ele>1213.6</ele>
        <time>2022-07-21T06:12:35Z</time>
      </trkpt>
      <trkpt lat="44.17335" lon="5.22697">
        <ele>1213.8</ele>
        <time>2022-07-21T06:12:36Z</time>
      </trkpt>
      <trkpt lat="44.17335" lon="5.22698">
        <ele>1213.9</ele>
        <time>2022-07-21T06:12:37Z</time>
      </trkpt>
      <trkpt lat="44.17335" lon="5.22699">
        <ele>1214</ele>
        <time>2022-07-21T06:12:38Z</time>
      </trkpt>
      <trkpt lat="44.17335" lon="5.227">
        <ele>1214.1</ele>
        <time>2022-07-21T06:12:39Z</time>
      </trkpt>
      <trkpt lat="44.17335" lon="5.22702">
        <ele>1214.3</ele>
        <time>2022-07-21T06:12:40Z</time>
      </trkpt>
      <trkpt lat="44.17336" lon="5.22704">
        <ele>1214.5</ele>
        <time>2022-07-21T06:12:41Z</time>
      </trkpt>
      <trkpt lat="44.17336" lon="5.22706">
        <ele>1214.7</ele>
        <time>2022-07-21T06:12:42Z</time>
      </trkpt>
      <trkpt lat="44.17337" lon="5.22708">
        <ele>1214.9</ele>
        <time>2022-07-21T06:12:43Z</time>
      </trkpt>
      <trkpt lat="44.17337" lon="5.2271">
        <ele>1215</ele>
        <time>2022-07-21T06:12:44Z</time>
      </trkpt>
      <trkpt lat="44.17338" lon="5.22712">
        <ele>1215.2</ele>
        <time>2022-07-21T06:12:45Z</time>
      </trkpt>
      <trkpt lat="44.17338" lon="5.22714">
        <ele>1215.5</ele>
        <time>2022-07-21T06:12:46Z</time>
      </trkpt>
      <trkpt lat="44.17339" lon="5.22716">
        <ele>1215.7</ele>
        <time>2022-07-21T06:12:47Z</time>
      </trkpt>
      <trkpt lat="44.1734" lon="5.22718">
        <ele>1215.8</ele>
        <time>2022-07-21T06:12:48Z</time>
      </trkpt>
      <trkpt lat="44.1734" lon="5.2272">
        <ele>1216</ele>
        <time>2022-07-21T06:12:49Z</time>
      </trkpt>
      <trkpt lat="44.17341" lon="5.22722">
        <ele>1216.1</ele>
        <time>2022-07-21T06:12:50Z</time>
      </trkpt>
      <trkpt lat="44.17341" lon="5.22724">
        <ele>1216.3</ele>
        <time>2022-07-21T06:12:51Z</time>
      </trkpt>
      <trkpt lat="44.17342" lon="5.22726">
        <ele>1216.5</ele>
        <time>2022-07-21T06:12:52Z</time>
      </trkpt>
      <trkpt lat="44.17342" lon="5.22729">
        <ele>1216.8</ele>
        <time>2022-07-21T06:12:53Z</time>
      </trkpt>
      <trkpt lat="44.17342" lon="5.2273">
        <ele>1216.9</ele>
        <time>2022-07-21T06:12:54Z</time>
      </trkpt>
      <trkpt lat="44.17342" lon="5.22731">
        <ele>1217</ele>
        <time>2022-07-21T06:12:55Z</time>
      </trkpt>
      <trkpt lat="44.17343" lon="5.22733">
        <ele>1217.1</ele>
        <time>2022-07-21T06:12:56Z</time>
      </trkpt>
      <trkpt lat="44.17344" lon="5.22735">
        <ele>1217.3</ele>
        <time>2022-07-21T06:12:57Z</time>
      </trkpt>
      <trkpt lat="44.17344" lon="5.22736">
        <ele>1217.4</ele>
        <time>2022-07-21T06:12:58Z</time>
      </trkpt>
      <trkpt lat="44.17345" lon="5.22738">
        <ele>1217.6</ele>
        <time>2022-07-21T06:12:59Z</time>
      </trkpt>
      <trkpt lat="44.17345" lon="5.22739">
        <ele>1217.7</ele>
        <time>2022-07-21T06:13:00Z</time>
      </trkpt>
      <trkpt lat="44.17346" lon="5.22741">
        <ele>1217.9</ele>
        <time>2022-07-21T06:13:01Z</time>
      </trkpt>
      <trkpt lat="44.17346" lon="5.22743">
        <ele>1218</ele>
        <time>2022-07-21T06:13:02Z</time>
      </trkpt>
      <trkpt lat="44.17347" lon="5.22745">
        <ele>1218.2</ele>
        <time>2022-07-21T06:13:03Z</time>
      </trkpt>
      <trkpt lat="44.17347" lon="5.22747">
        <ele>1218.4</ele>
        <time>2022-07-21T06:13:04Z</time>
      </trkpt>
      <trkpt lat="44.17348" lon="5.2275">
        <ele>1218.7</ele>
        <time>2022-07-21T06:13:05Z</time>
      </trkpt>
      <trkpt lat="44.17349" lon="5.22751">
        <ele>1218.8</ele>
        <time>2022-07-21T06:13:06Z</time>
      </trkpt>
      <trkpt lat="44.17349" lon="5.22753">
        <ele>1218.9</ele>
        <time>2022-07-21T06:13:07Z</time>
      </trkpt>
      <trkpt lat="44.1735" lon="5.22755">
        <ele>1219.1</ele>
        <time>2022-07-21T06:13:08Z</time>
      </trkpt>
      <trkpt lat="44.1735" lon="5.22757">
        <ele>1219.3</ele>
        <time>2022-07-21T06:13:09Z</time>
      </trkpt>
      <trkpt lat="44.17351" lon="5.22759">
        <ele>1219.5</ele>
        <time>2022-07-21T06:13:10Z</time>
      </trkpt>
      <trkpt lat="44.17352" lon="5.22761">
        <ele>1219.6</ele>
        <time>2022-07-21T06:13:11Z</time>
      </trkpt>
      <trkpt lat="44.17353" lon="5.22763">
        <ele>1219.8</ele>
        <time>2022-07-21T06:13:12Z</time>
      </trkpt>
      <trkpt lat="44.17353" lon="5.22765">
        <ele>1220</ele>
        <time>2022-07-21T06:13:13Z</time>
      </trkpt>
      <trkpt lat="44.17354" lon="5.22767">
        <ele>1220.2</ele>
        <time>2022-07-21T06:13:14Z</time>
      </trkpt>
      <trkpt lat="44.17355" lon="5.22768">
        <ele>1220.3</ele>
        <time>2022-07-21T06:13:15Z</time>
      </trkpt>
      <trkpt lat="44.17356" lon="5.22771">
        <ele>1220.6</ele>
        <time>2022-07-21T06:13:16Z</time>
      </trkpt>
      <trkpt lat="44.17356" lon="5.22772">
        <ele>1220.7</ele>
        <time>2022-07-21T06:13:17Z</time>
      </trkpt>
      <trkpt lat="44.17357" lon="5.22773">
        <ele>1220.8</ele>
        <time>2022-07-21T06:13:18Z</time>
      </trkpt>
      <trkpt lat="44.17357" lon="5.22776">
        <ele>1221.1</ele>
        <time>2022-07-21T06:13:19Z</time>
      </trkpt>
      <trkpt lat="44.17358" lon="5.22777">
        <ele>1221.2</ele>
        <time>2022-07-21T06:13:20Z</time>
      </trkpt>
      <trkpt lat="44.17358" lon="5.22778">
        <ele>1221.3</ele>
        <time>2022-07-21T06:13:21Z</time>
      </trkpt>
      <trkpt lat="44.17359" lon="5.2278">
        <ele>1221.4</ele>
        <time>2022-07-21T06:13:22Z</time>
      </trkpt>
      <trkpt lat="44.1736" lon="5.22782">
        <ele>1221.6</ele>
        <time>2022-07-21T06:13:23Z</time>
      </trkpt>
      <trkpt lat="44.1736" lon="5.22784">
        <ele>1221.8</ele>
        <time>2022-07-21T06:13:24Z</time>
      </trkpt>
      <trkpt lat="44.17361" lon="5.22785">
        <ele>1221.9</ele>
        <time>2022-07-21T06:13:25Z</time>
      </trkpt>
      <trkpt lat="44.17362" lon="5.22787">
        <ele>1222.1</ele>
        <time>2022-07-21T06:13:26Z</time>
      </trkpt>
      <trkpt lat="44.17362" lon="5.22788">
        <ele>1222.2</ele>
        <time>2022-07-21T06:13:27Z</time>
      </trkpt>
      <trkpt lat="44.17363" lon="5.2279">
        <ele>1222.4</ele>
        <time>2022-07-21T06:13:28Z</time>
      </trkpt>
      <trkpt lat="44.17364" lon="5.22792">
        <ele>1222.6</ele>
        <time>2022-07-21T06:13:29Z</time>
      </trkpt>
      <trkpt lat="44.17364" lon="5.22793">
        <ele>1222.7</ele>
        <time>2022-07-21T06:13:30Z</time>
      </trkpt>
      <trkpt lat="44.17364" lon="5.22795">
        <ele>1222.8</ele>
        <time>2022-07-21T06:13:31Z</time>
      </trkpt>
      <trkpt lat="44.17365" lon="5.22796">
        <ele>1223</ele>
        <time>2022-07-21T06:13:32Z</time>
      </trkpt>
      <trkpt lat="44.17365" lon="5.22797">
        <ele>1223.1</ele>
        <time>2022-07-21T06:13:33Z</time>
      </trkpt>
      <trkpt lat="44.17366" lon="5.22799">
        <ele>1223.2</ele>
        <time>2022-07-21T06:13:34Z</time>
      </trkpt>
      <trkpt lat="44.17366" lon="5.22801">
        <ele>1223.4</ele>
        <time>2022-07-21T06:13:35Z</time>
      </trkpt>
      <trkpt lat="44.17367" lon="5.22802">
        <ele>1223.6</ele>
        <time>2022-07-21T06:13:36Z</time>
      </trkpt>
      <trkpt lat="44.17367" lon="5.22804">
        <ele>1223.8</ele>
        <time>2022-07-21T06:13:37Z</time>
      </trkpt>
      <trkpt lat="44.17368" lon="5.22806">
        <ele>1223.9</ele>
        <time>2022-07-21T06:13:38Z</time>
      </trkpt>
      <trkpt lat="44.17369" lon="5.22808">
        <ele>1224.1</ele>
        <time>2022-07-21T06:13:39Z</time>
      </trkpt>
      <trkpt lat="44.17369" lon="5.2281">
        <ele>1224.3</ele>
        <time>2022-07-21T06:13:40Z</time>
      </trkpt>
      <trkpt lat="44.1737" lon="5.22812">
        <ele>1224.5</ele>
        <time>2022-07-21T06:13:41Z</time>
      </trkpt>
      <trkpt lat="44.17371" lon="5.22814">
        <ele>1224.7</ele>
        <time>2022-07-21T06:13:42Z</time>
      </trkpt>
      <trkpt lat="44.17372" lon="5.22816">
        <ele>1224.9</ele>
        <time>2022-07-21T06:13:43Z</time>
      </trkpt>
      <trkpt lat="44.17372" lon="5.22817">
        <ele>1225.1</ele>
        <time>2022-07-21T06:13:44Z</time>
      </trkpt>
      <trkpt lat="44.17373" lon="5.2282">
        <ele>1225.3</ele>
        <time>2022-07-21T06:13:45Z</time>
      </trkpt>
      <trkpt lat="44.17374" lon="5.22821">
        <ele>1225.4</ele>
        <time>2022-07-21T06:13:46Z</time>
      </trkpt>
      <trkpt lat="44.17374" lon="5.22822">
        <ele>1225.6</ele>
        <time>2022-07-21T06:13:47Z</time>
      </trkpt>
      <trkpt lat="44.17375" lon="5.22825">
        <ele>1225.8</ele>
        <time>2022-07-21T06:13:48Z</time>
      </trkpt>
      <trkpt lat="44.17375" lon="5.22826">
        <ele>1225.9</ele>
        <time>2022-07-21T06:13:49Z</time>
      </trkpt>
      <trkpt lat="44.17376" lon="5.22827">
        <ele>1226</ele>
        <time>2022-07-21T06:13:50Z</time>
      </trkpt>
      <trkpt lat="44.17376" lon="5.22828">
        <ele>1226.2</ele>
        <time>2022-07-21T06:13:51Z</time>
      </trkpt>
      <trkpt lat="44.17377" lon="5.2283">
        <ele>1226.3</ele>
        <time>2022-07-21T06:13:52Z</time>
      </trkpt>
      <trkpt lat="44.17377" lon="5.22831">
        <ele>1226.5</ele>
        <time>2022-07-21T06:13:53Z</time>
      </trkpt>
      <trkpt lat="44.17378" lon="5.22834">
        <ele>1226.7</ele>
        <time>2022-07-21T06:13:54Z</time>
      </trkpt>
      <trkpt lat="44.17378" lon="5.22835">
        <ele>1226.9</ele>
        <time>2022-07-21T06:13:55Z</time>
      </trkpt>
      <trkpt lat="44.17379" lon="5.22837">
        <ele>1227</ele>
        <time>2022-07-21T06:13:56Z</time>
      </trkpt>
      <trkpt lat="44.1738" lon="5.22839">
        <ele>1227.2</ele>
        <time>2022-07-21T06:13:57Z</time>
      </trkpt>
      <trkpt lat="44.1738" lon="5.22841">
        <ele>1227.4</ele>
        <time>2022-07-21T06:13:58Z</time>
      </trkpt>
      <trkpt lat="44.1738" lon="5.22842">
        <ele>1227.5</ele>
        <time>2022-07-21T06:13:59Z</time>
      </trkpt>
      <trkpt lat="44.17381" lon="5.22845">
        <ele>1227.8</ele>
        <time>2022-07-21T06:14:00Z</time>
      </trkpt>
      <trkpt lat="44.17381" lon="5.22846">
        <ele>1227.9</ele>
        <time>2022-07-21T06:14:01Z</time>
      </trkpt>
      <trkpt lat="44.17382" lon="5.22847">
        <ele>1228</ele>
        <time>2022-07-21T06:14:02Z</time>
      </trkpt>
      <trkpt lat="44.17382" lon="5.22848">
        <ele>1228.1</ele>
        <time>2022-07-21T06:14:03Z</time>
      </trkpt>
      <trkpt lat="44.17383" lon="5.2285">
        <ele>1228.3</ele>
        <time>2022-07-21T06:14:04Z</time>
      </trkpt>
      <trkpt lat="44.17384" lon="5.22851">
        <ele>1228.5</ele>
        <time>2022-07-21T06:14:05Z</time>
      </trkpt>
      <trkpt lat="44.17385" lon="5.22853">
        <ele>1228.7</ele>
        <time>2022-07-21T06:14:06Z</time>
      </trkpt>
      <trkpt lat="44.17386" lon="5.22856">
        <ele>1229</ele>
        <time>2022-07-21T06:14:07Z</time>
      </trkpt>
      <trkpt lat="44.17386" lon="5.22857">
        <ele>1229.1</ele>
        <time>2022-07-21T06:14:08Z</time>
      </trkpt>
      <trkpt lat="44.17387" lon="5.22858">
        <ele>1229.2</ele>
        <time>2022-07-21T06:14:09Z</time>
      </trkpt>
      <trkpt lat="44.17387" lon="5.2286">
        <ele>1229.4</ele>
        <time>2022-07-21T06:14:10Z</time>
      </trkpt>
      <trkpt lat="44.17388" lon="5.22862">
        <ele>1229.5</ele>
        <time>2022-07-21T06:14:11Z</time>
      </trkpt>
      <trkpt lat="44.17389" lon="5.22864">
        <ele>1229.8</ele>
        <time>2022-07-21T06:14:12Z</time>
      </trkpt>
      <trkpt lat="44.17389" lon="5.22865">
        <ele>1229.9</ele>
        <time>2022-07-21T06:14:13Z</time>
      </trkpt>
      <trkpt lat="44.1739" lon="5.22866">
        <ele>1230</ele>
        <time>2022-07-21T06:14:14Z</time>
      </trkpt>
      <trkpt lat="44.1739" lon="5.22867">
        <ele>1230.1</ele>
        <time>2022-07-21T06:14:15Z</time>
      </trkpt>
      <trkpt lat="44.17391" lon="5.22869">
        <ele>1230.3</ele>
        <time>2022-07-21T06:14:16Z</time>
      </trkpt>
      <trkpt lat="44.17392" lon="5.2287">
        <ele>1230.4</ele>
        <time>2022-07-21T06:14:17Z</time>
      </trkpt>
      <trkpt lat="44.17393" lon="5.22873">
        <ele>1230.7</ele>
        <time>2022-07-21T06:14:18Z</time>
      </trkpt>
      <trkpt lat="44.17394" lon="5.22874">
        <ele>1230.8</ele>
        <time>2022-07-21T06:14:19Z</time>
      </trkpt>
      <trkpt lat="44.17394" lon="5.22875">
        <ele>1231</ele>
        <time>2022-07-21T06:14:20Z</time>
      </trkpt>
      <trkpt lat="44.17395" lon="5.22877">
        <ele>1231.1</ele>
        <time>2022-07-21T06:14:21Z</time>
      </trkpt>
      <trkpt lat="44.17396" lon="5.22878">
        <ele>1231.3</ele>
        <time>2022-07-21T06:14:22Z</time>
      </trkpt>
      <trkpt lat="44.17396" lon="5.2288">
        <ele>1231.5</ele>
        <time>2022-07-21T06:14:23Z</time>
      </trkpt>
      <trkpt lat="44.17397" lon="5.22882">
        <ele>1231.7</ele>
        <time>2022-07-21T06:14:24Z</time>
      </trkpt>
      <trkpt lat="44.17398" lon="5.22884">
        <ele>1231.9</ele>
        <time>2022-07-21T06:14:25Z</time>
      </trkpt>
      <trkpt lat="44.17399" lon="5.22886">
        <ele>1232.1</ele>
        <time>2022-07-21T06:14:26Z</time>
      </trkpt>
      <trkpt lat="44.17399" lon="5.22888">
        <ele>1232.2</ele>
        <time>2022-07-21T06:14:27Z</time>
      </trkpt>
      <trkpt lat="44.174" lon="5.22889">
        <ele>1232.4</ele>
        <time>2022-07-21T06:14:28Z</time>
      </trkpt>
      <trkpt lat="44.174" lon="5.2289">
        <ele>1232.5</ele>
        <time>2022-07-21T06:14:29Z</time>
      </trkpt>
      <trkpt lat="44.17401" lon="5.22892">
        <ele>1232.7</ele>
        <time>2022-07-21T06:14:30Z</time>
      </trkpt>
      <trkpt lat="44.17402" lon="5.22894">
        <ele>1232.9</ele>
        <time>2022-07-21T06:14:31Z</time>
      </trkpt>
      <trkpt lat="44.17402" lon="5.22895">
        <ele>1233</ele>
        <time>2022-07-21T06:14:32Z</time>
      </trkpt>
      <trkpt lat="44.17403" lon="5.22897">
        <ele>1233.3</ele>
        <time>2022-07-21T06:14:33Z</time>
      </trkpt>
      <trkpt lat="44.17404" lon="5.22898">
        <ele>1233.4</ele>
        <time>2022-07-21T06:14:34Z</time>
      </trkpt>
      <trkpt lat="44.17404" lon="5.22899">
        <ele>1233.5</ele>
        <time>2022-07-21T06:14:35Z</time>
      </trkpt>
      <trkpt lat="44.17405" lon="5.22902">
        <ele>1233.7</ele>
        <time>2022-07-21T06:14:36Z</time>
      </trkpt>
      <trkpt lat="44.17406" lon="5.22903">
        <ele>1233.9</ele>
        <time>2022-07-21T06:14:37Z</time>
      </trkpt>
      <trkpt lat="44.17406" lon="5.22904">
        <ele>1234</ele>
        <time>2022-07-21T06:14:38Z</time>
      </trkpt>
      <trkpt lat="44.17407" lon="5.22906">
        <ele>1234.1</ele>
        <time>2022-07-21T06:14:39Z</time>
      </trkpt>
      <trkpt lat="44.17408" lon="5.22907">
        <ele>1234.3</ele>
        <time>2022-07-21T06:14:40Z</time>
      </trkpt>
      <trkpt lat="44.17408" lon="5.22909">
        <ele>1234.5</ele>
        <time>2022-07-21T06:14:41Z</time>
      </trkpt>
      <trkpt lat="44.17409" lon="5.22911">
        <ele>1234.7</ele>
        <time>2022-07-21T06:14:42Z</time>
      </trkpt>
      <trkpt lat="44.1741" lon="5.22913">
        <ele>1234.9</ele>
        <time>2022-07-21T06:14:43Z</time>
      </trkpt>
      <trkpt lat="44.17411" lon="5.22915">
        <ele>1235.1</ele>
        <time>2022-07-21T06:14:44Z</time>
      </trkpt>
      <trkpt lat="44.17411" lon="5.22916">
        <ele>1235.2</ele>
        <time>2022-07-21T06:14:45Z</time>
      </trkpt>
      <trkpt lat="44.17412" lon="5.22918">
        <ele>1235.4</ele>
        <time>2022-07-21T06:14:46Z</time>
      </trkpt>
      <trkpt lat="44.17413" lon="5.2292">
        <ele>1235.6</ele>
        <time>2022-07-21T06:14:47Z</time>
      </trkpt>
      <trkpt lat="44.17414" lon="5.22921">
        <ele>1235.8</ele>
        <time>2022-07-21T06:14:48Z</time>
      </trkpt>
      <trkpt lat="44.17414" lon="5.22923">
        <ele>1236</ele>
        <time>2022-07-21T06:14:49Z</time>
      </trkpt>
      <trkpt lat="44.17415" lon="5.22925">
        <ele>1236.1</ele>
        <time>2022-07-21T06:14:50Z</time>
      </trkpt>
      <trkpt lat="44.17415" lon="5.22927">
        <ele>1236.3</ele>
        <time>2022-07-21T06:14:51Z</time>
      </trkpt>
      <trkpt lat="44.17416" lon="5.22928">
        <ele>1236.5</ele>
        <time>2022-07-21T06:14:52Z</time>
      </trkpt>
      <trkpt lat="44.17417" lon="5.22931">
        <ele>1236.8</ele>
        <time>2022-07-21T06:14:53Z</time>
      </trkpt>
      <trkpt lat="44.17418" lon="5.22932">
        <ele>1236.9</ele>
        <time>2022-07-21T06:14:54Z</time>
      </trkpt>
      <trkpt lat="44.17418" lon="5.22933">
        <ele>1237</ele>
        <time>2022-07-21T06:14:55Z</time>
      </trkpt>
      <trkpt lat="44.17419" lon="5.22934">
        <ele>1237.1</ele>
        <time>2022-07-21T06:14:56Z</time>
      </trkpt>
      <trkpt lat="44.17419" lon="5.22935">
        <ele>1237.2</ele>
        <time>2022-07-21T06:14:57Z</time>
      </trkpt>
      <trkpt lat="44.1742" lon="5.22936">
        <ele>1237.4</ele>
        <time>2022-07-21T06:14:58Z</time>
      </trkpt>
      <trkpt lat="44.17421" lon="5.22938">
        <ele>1237.5</ele>
        <time>2022-07-21T06:14:59Z</time>
      </trkpt>
      <trkpt lat="44.17421" lon="5.22939">
        <ele>1237.7</ele>
        <time>2022-07-21T06:15:00Z</time>
      </trkpt>
      <trkpt lat="44.17422" lon="5.2294">
        <ele>1237.8</ele>
        <time>2022-07-21T06:15:01Z</time>
      </trkpt>
      <trkpt lat="44.17423" lon="5.22941">
        <ele>1237.9</ele>
        <time>2022-07-21T06:15:02Z</time>
      </trkpt>
      <trkpt lat="44.17423" lon="5.22943">
        <ele>1238.1</ele>
        <time>2022-07-21T06:15:03Z</time>
      </trkpt>
      <trkpt lat="44.17424" lon="5.22944">
        <ele>1238.3</ele>
        <time>2022-07-21T06:15:04Z</time>
      </trkpt>
      <trkpt lat="44.17425" lon="5.22946">
        <ele>1238.5</ele>
        <time>2022-07-21T06:15:05Z</time>
      </trkpt>
      <trkpt lat="44.17426" lon="5.22948">
        <ele>1238.7</ele>
        <time>2022-07-21T06:15:06Z</time>
      </trkpt>
      <trkpt lat="44.17427" lon="5.22949">
        <ele>1238.8</ele>
        <time>2022-07-21T06:15:07Z</time>
      </trkpt>
      <trkpt lat="44.17428" lon="5.2295">
        <ele>1239</ele>
        <time>2022-07-21T06:15:08Z</time>
      </trkpt>
      <trkpt lat="44.17429" lon="5.22952">
        <ele>1239.2</ele>
        <time>2022-07-21T06:15:09Z</time>
      </trkpt>
      <trkpt lat="44.17429" lon="5.22953">
        <ele>1239.4</ele>
        <time>2022-07-21T06:15:10Z</time>
      </trkpt>
      <trkpt lat="44.1743" lon="5.22955">
        <ele>1239.5</ele>
        <time>2022-07-21T06:15:11Z</time>
      </trkpt>
      <trkpt lat="44.17431" lon="5.22957">
        <ele>1239.7</ele>
        <time>2022-07-21T06:15:12Z</time>
      </trkpt>
      <trkpt lat="44.17432" lon="5.22959">
        <ele>1239.9</ele>
        <time>2022-07-21T06:15:13Z</time>
      </trkpt>
      <trkpt lat="44.17432" lon="5.2296">
        <ele>1240.1</ele>
        <time>2022-07-21T06:15:14Z</time>
      </trkpt>
      <trkpt lat="44.17433" lon="5.22962">
        <ele>1240.3</ele>
        <time>2022-07-21T06:15:15Z</time>
      </trkpt>
      <trkpt lat="44.17434" lon="5.22964">
        <ele>1240.5</ele>
        <time>2022-07-21T06:15:16Z</time>
      </trkpt>
      <trkpt lat="44.17435" lon="5.22966">
        <ele>1240.7</ele>
        <time>2022-07-21T06:15:17Z</time>
      </trkpt>
      <trkpt lat="44.17436" lon="5.22967">
        <ele>1240.9</ele>
        <time>2022-07-21T06:15:18Z</time>
      </trkpt>
      <trkpt lat="44.17437" lon="5.22969">
        <ele>1241.1</ele>
        <time>2022-07-21T06:15:19Z</time>
      </trkpt>
      <trkpt lat="44.17438" lon="5.22971">
        <ele>1241.3</ele>
        <time>2022-07-21T06:15:20Z</time>
      </trkpt>
      <trkpt lat="44.17439" lon="5.22972">
        <ele>1241.6</ele>
        <time>2022-07-21T06:15:21Z</time>
      </trkpt>
      <trkpt lat="44.1744" lon="5.22974">
        <ele>1241.8</ele>
        <time>2022-07-21T06:15:22Z</time>
      </trkpt>
      <trkpt lat="44.17441" lon="5.22977">
        <ele>1242.1</ele>
        <time>2022-07-21T06:15:23Z</time>
      </trkpt>
      <trkpt lat="44.17442" lon="5.22978">
        <ele>1242.2</ele>
        <time>2022-07-21T06:15:24Z</time>
      </trkpt>
      <trkpt lat="44.17442" lon="5.22981">
        <ele>1242.5</ele>
        <time>2022-07-21T06:15:25Z</time>
      </trkpt>
      <trkpt lat="44.17443" lon="5.22983">
        <ele>1242.7</ele>
        <time>2022-07-21T06:15:26Z</time>
      </trkpt>
      <trkpt lat="44.17444" lon="5.22984">
        <ele>1242.9</ele>
        <time>2022-07-21T06:15:27Z</time>
      </trkpt>
      <trkpt lat="44.17445" lon="5.22986">
        <ele>1243.1</ele>
        <time>2022-07-21T06:15:28Z</time>
      </trkpt>
      <trkpt lat="44.17446" lon="5.22988">
        <ele>1243.2</ele>
        <time>2022-07-21T06:15:29Z</time>
      </trkpt>
      <trkpt lat="44.17447" lon="5.22989">
        <ele>1243.4</ele>
        <time>2022-07-21T06:15:30Z</time>
      </trkpt>
      <trkpt lat="44.17447" lon="5.22991">
        <ele>1243.6</ele>
        <time>2022-07-21T06:15:31Z</time>
      </trkpt>
      <trkpt lat="44.17448" lon="5.22992">
        <ele>1243.7</ele>
        <time>2022-07-21T06:15:32Z</time>
      </trkpt>
      <trkpt lat="44.17449" lon="5.22993">
        <ele>1243.8</ele>
        <time>2022-07-21T06:15:33Z</time>
      </trkpt>
      <trkpt lat="44.17449" lon="5.22994">
        <ele>1244</ele>
        <time>2022-07-21T06:15:34Z</time>
      </trkpt>
      <trkpt lat="44.1745" lon="5.22996">
        <ele>1244.1</ele>
        <time>2022-07-21T06:15:35Z</time>
      </trkpt>
      <trkpt lat="44.1745" lon="5.22997">
        <ele>1244.2</ele>
        <time>2022-07-21T06:15:36Z</time>
      </trkpt>
      <trkpt lat="44.17451" lon="5.22998">
        <ele>1244.4</ele>
        <time>2022-07-21T06:15:37Z</time>
      </trkpt>
      <trkpt lat="44.17452" lon="5.23">
        <ele>1244.6</ele>
        <time>2022-07-21T06:15:38Z</time>
      </trkpt>
      <trkpt lat="44.17453" lon="5.23002">
        <ele>1244.8</ele>
        <time>2022-07-21T06:15:39Z</time>
      </trkpt>
      <trkpt lat="44.17454" lon="5.23003">
        <ele>1245</ele>
        <time>2022-07-21T06:15:40Z</time>
      </trkpt>
      <trkpt lat="44.17455" lon="5.23005">
        <ele>1245.2</ele>
        <time>2022-07-21T06:15:41Z</time>
      </trkpt>
      <trkpt lat="44.17455" lon="5.23007">
        <ele>1245.4</ele>
        <time>2022-07-21T06:15:42Z</time>
      </trkpt>
      <trkpt lat="44.17456" lon="5.23009">
        <ele>1245.6</ele>
        <time>2022-07-21T06:15:43Z</time>
      </trkpt>
      <trkpt lat="44.17457" lon="5.23011">
        <ele>1245.8</ele>
        <time>2022-07-21T06:15:44Z</time>
      </trkpt>
      <trkpt lat="44.17458" lon="5.23013">
        <ele>1246</ele>
        <time>2022-07-21T06:15:45Z</time>
      </trkpt>
      <trkpt lat="44.17459" lon="5.23015">
        <ele>1246.2</ele>
        <time>2022-07-21T06:15:46Z</time>
      </trkpt>
      <trkpt lat="44.1746" lon="5.23016">
        <ele>1246.4</ele>
        <time>2022-07-21T06:15:47Z</time>
      </trkpt>
      <trkpt lat="44.1746" lon="5.23018">
        <ele>1246.5</ele>
        <time>2022-07-21T06:15:48Z</time>
      </trkpt>
      <trkpt lat="44.17462" lon="5.2302">
        <ele>1246.8</ele>
        <time>2022-07-21T06:15:49Z</time>
      </trkpt>
      <trkpt lat="44.17463" lon="5.23021">
        <ele>1246.9</ele>
        <time>2022-07-21T06:15:50Z</time>
      </trkpt>
      <trkpt lat="44.17463" lon="5.23022">
        <ele>1247</ele>
        <time>2022-07-21T06:15:51Z</time>
      </trkpt>
      <trkpt lat="44.17465" lon="5.23024">
        <ele>1247.3</ele>
        <time>2022-07-21T06:15:52Z</time>
      </trkpt>
      <trkpt lat="44.17465" lon="5.23025">
        <ele>1247.4</ele>
        <time>2022-07-21T06:15:53Z</time>
      </trkpt>
      <trkpt lat="44.17465" lon="5.23026">
        <ele>1247.5</ele>
        <time>2022-07-21T06:15:54Z</time>
      </trkpt>
      <trkpt lat="44.17466" lon="5.23029">
        <ele>1247.8</ele>
        <time>2022-07-21T06:15:55Z</time>
      </trkpt>
      <trkpt lat="44.17467" lon="5.2303">
        <ele>1247.9</ele>
        <time>2022-07-21T06:15:56Z</time>
      </trkpt>
      <trkpt lat="44.17467" lon="5.23031">
        <ele>1248</ele>
        <time>2022-07-21T06:15:57Z</time>
      </trkpt>
      <trkpt lat="44.17468" lon="5.23031">
        <ele>1248.1</ele>
        <time>2022-07-21T06:15:58Z</time>
      </trkpt>
      <trkpt lat="44.17469" lon="5.23033">
        <ele>1248.3</ele>
        <time>2022-07-21T06:15:59Z</time>
      </trkpt>
      <trkpt lat="44.1747" lon="5.23034">
        <ele>1248.4</ele>
        <time>2022-07-21T06:16:00Z</time>
      </trkpt>
      <trkpt lat="44.17471" lon="5.23034">
        <ele>1248.6</ele>
        <time>2022-07-21T06:16:01Z</time>
      </trkpt>
      <trkpt lat="44.17472" lon="5.23035">
        <ele>1248.7</ele>
        <time>2022-07-21T06:16:02Z</time>
      </trkpt>
      <trkpt lat="44.17473" lon="5.23036">
        <ele>1248.8</ele>
        <time>2022-07-21T06:16:03Z</time>
      </trkpt>
      <trkpt lat="44.17474" lon="5.23037">
        <ele>1249</ele>
        <time>2022-07-21T06:16:04Z</time>
      </trkpt>
      <trkpt lat="44.17475" lon="5.23038">
        <ele>1249.1</ele>
        <time>2022-07-21T06:16:05Z</time>
      </trkpt>
      <trkpt lat="44.17476" lon="5.23039">
        <ele>1249.3</ele>
        <time>2022-07-21T06:16:06Z</time>
      </trkpt>
      <trkpt lat="44.17476" lon="5.23041">
        <ele>1249.4</ele>
        <time>2022-07-21T06:16:07Z</time>
      </trkpt>
      <trkpt lat="44.17477" lon="5.23042">
        <ele>1249.5</ele>
        <time>2022-07-21T06:16:08Z</time>
      </trkpt>
      <trkpt lat="44.17477" lon="5.23043">
        <ele>1249.6</ele>
        <time>2022-07-21T06:16:09Z</time>
      </trkpt>
      <trkpt lat="44.17478" lon="5.23043">
        <ele>1249.8</ele>
        <time>2022-07-21T06:16:10Z</time>
      </trkpt>
      <trkpt lat="44.17479" lon="5.23045">
        <ele>1249.9</ele>
        <time>2022-07-21T06:16:11Z</time>
      </trkpt>
      <trkpt lat="44.1748" lon="5.23046">
        <ele>1250.1</ele>
        <time>2022-07-21T06:16:12Z</time>
      </trkpt>
      <trkpt lat="44.17482" lon="5.23048">
        <ele>1250.4</ele>
        <time>2022-07-21T06:16:13Z</time>
      </trkpt>
      <trkpt lat="44.17482" lon="5.23048">
        <ele>1250.5</ele>
        <time>2022-07-21T06:16:14Z</time>
      </trkpt>
      <trkpt lat="44.17483" lon="5.23049">
        <ele>1250.6</ele>
        <time>2022-07-21T06:16:15Z</time>
      </trkpt>
      <trkpt lat="44.17484" lon="5.2305">
        <ele>1250.8</ele>
        <time>2022-07-21T06:16:16Z</time>
      </trkpt>
      <trkpt lat="44.17485" lon="5.23052">
        <ele>1251</ele>
        <time>2022-07-21T06:16:17Z</time>
      </trkpt>
      <trkpt lat="44.17486" lon="5.23054">
        <ele>1251.2</ele>
        <time>2022-07-21T06:16:18Z</time>
      </trkpt>
      <trkpt lat="44.17487" lon="5.23055">
        <ele>1251.3</ele>
        <time>2022-07-21T06:16:19Z</time>
      </trkpt>
      <trkpt lat="44.17487" lon="5.23057">
        <ele>1251.5</ele>
        <time>2022-07-21T06:16:20Z</time>
      </trkpt>
      <trkpt lat="44.17488" lon="5.23058">
        <ele>1251.7</ele>
        <time>2022-07-21T06:16:21Z</time>
      </trkpt>
      <trkpt lat="44.1749" lon="5.2306">
        <ele>1252</ele>
        <time>2022-07-21T06:16:22Z</time>
      </trkpt>
      <trkpt lat="44.17491" lon="5.23062">
        <ele>1252.2</ele>
        <time>2022-07-21T06:16:23Z</time>
      </trkpt>
      <trkpt lat="44.17491" lon="5.23064">
        <ele>1252.4</ele>
        <time>2022-07-21T06:16:24Z</time>
      </trkpt>
      <trkpt lat="44.17492" lon="5.23066">
        <ele>1252.7</ele>
        <time>2022-07-21T06:16:25Z</time>
      </trkpt>
      <trkpt lat="44.17493" lon="5.23069">
        <ele>1252.9</ele>
        <time>2022-07-21T06:16:26Z</time>
      </trkpt>
      <trkpt lat="44.17494" lon="5.23071">
        <ele>1253.1</ele>
        <time>2022-07-21T06:16:27Z</time>
      </trkpt>
      <trkpt lat="44.17494" lon="5.23073">
        <ele>1253.4</ele>
        <time>2022-07-21T06:16:28Z</time>
      </trkpt>
      <trkpt lat="44.17495" lon="5.23075">
        <ele>1253.6</ele>
        <time>2022-07-21T06:16:29Z</time>
      </trkpt>
      <trkpt lat="44.17496" lon="5.23076">
        <ele>1253.8</ele>
        <time>2022-07-21T06:16:30Z</time>
      </trkpt>
      <trkpt lat="44.17497" lon="5.23078">
        <ele>1254</ele>
        <time>2022-07-21T06:16:31Z</time>
      </trkpt>
      <trkpt lat="44.17497" lon="5.2308">
        <ele>1254.2</ele>
        <time>2022-07-21T06:16:32Z</time>
      </trkpt>
      <trkpt lat="44.17498" lon="5.23081">
        <ele>1254.3</ele>
        <time>2022-07-21T06:16:33Z</time>
      </trkpt>
      <trkpt lat="44.17499" lon="5.23083">
        <ele>1254.5</ele>
        <time>2022-07-21T06:16:34Z</time>
      </trkpt>
      <trkpt lat="44.175" lon="5.23084">
        <ele>1254.6</ele>
        <time>2022-07-21T06:16:35Z</time>
      </trkpt>
      <trkpt lat="44.175" lon="5.23085">
        <ele>1254.8</ele>
        <time>2022-07-21T06:16:36Z</time>
      </trkpt>
      <trkpt lat="44.17501" lon="5.23088">
        <ele>1255.1</ele>
        <time>2022-07-21T06:16:37Z</time>
      </trkpt>
      <trkpt lat="44.17502" lon="5.23089">
        <ele>1255.2</ele>
        <time>2022-07-21T06:16:38Z</time>
      </trkpt>
      <trkpt lat="44.17502" lon="5.2309">
        <ele>1255.3</ele>
        <time>2022-07-21T06:16:39Z</time>
      </trkpt>
      <trkpt lat="44.17504" lon="5.23092">
        <ele>1255.6</ele>
        <time>2022-07-21T06:16:40Z</time>
      </trkpt>
      <trkpt lat="44.17504" lon="5.23093">
        <ele>1255.7</ele>
        <time>2022-07-21T06:16:41Z</time>
      </trkpt>
      <trkpt lat="44.17505" lon="5.23094">
        <ele>1255.9</ele>
        <time>2022-07-21T06:16:42Z</time>
      </trkpt>
      <trkpt lat="44.17505" lon="5.23096">
        <ele>1256</ele>
        <time>2022-07-21T06:16:43Z</time>
      </trkpt>
      <trkpt lat="44.17506" lon="5.23098">
        <ele>1256.2</ele>
        <time>2022-07-21T06:16:44Z</time>
      </trkpt>
      <trkpt lat="44.17506" lon="5.231">
        <ele>1256.4</ele>
        <time>2022-07-21T06:16:45Z</time>
      </trkpt>
      <trkpt lat="44.17507" lon="5.23102">
        <ele>1256.6</ele>
        <time>2022-07-21T06:16:46Z</time>
      </trkpt>
      <trkpt lat="44.17508" lon="5.23105">
        <ele>1256.9</ele>
        <time>2022-07-21T06:16:47Z</time>
      </trkpt>
      <trkpt lat="44.17508" lon="5.23106">
        <ele>1257</ele>
        <time>2022-07-21T06:16:48Z</time>
      </trkpt>
      <trkpt lat="44.17508" lon="5.23107">
        <ele>1257.1</ele>
        <time>2022-07-21T06:16:49Z</time>
      </trkpt>
      <trkpt lat="44.17509" lon="5.23109">
        <ele>1257.3</ele>
        <time>2022-07-21T06:16:50Z</time>
      </trkpt>
      <trkpt lat="44.1751" lon="5.2311">
        <ele>1257.4</ele>
        <time>2022-07-21T06:16:51Z</time>
      </trkpt>
      <trkpt lat="44.1751" lon="5.23111">
        <ele>1257.6</ele>
        <time>2022-07-21T06:16:52Z</time>
      </trkpt>
      <trkpt lat="44.17511" lon="5.23114">
        <ele>1257.8</ele>
        <time>2022-07-21T06:16:53Z</time>
      </trkpt>
      <trkpt lat="44.17511" lon="5.23115">
        <ele>1257.9</ele>
        <time>2022-07-21T06:16:54Z</time>
      </trkpt>
      <trkpt lat="44.17512" lon="5.23116">
        <ele>1258.1</ele>
        <time>2022-07-21T06:16:55Z</time>
      </trkpt>
      <trkpt lat="44.17512" lon="5.23119">
        <ele>1258.3</ele>
        <time>2022-07-21T06:16:56Z</time>
      </trkpt>
      <trkpt lat="44.17513" lon="5.2312">
        <ele>1258.4</ele>
        <time>2022-07-21T06:16:57Z</time>
      </trkpt>
      <trkpt lat="44.17513" lon="5.23121">
        <ele>1258.5</ele>
        <time>2022-07-21T06:16:58Z</time>
      </trkpt>
      <trkpt lat="44.17513" lon="5.23123">
        <ele>1258.7</ele>
        <time>2022-07-21T06:16:59Z</time>
      </trkpt>
      <trkpt lat="44.17514" lon="5.23125">
        <ele>1258.9</ele>
        <time>2022-07-21T06:17:00Z</time>
      </trkpt>
      <trkpt lat="44.17514" lon="5.23127">
        <ele>1259.1</ele>
        <time>2022-07-21T06:17:01Z</time>
      </trkpt>
      <trkpt lat="44.17515" lon="5.23129">
        <ele>1259.3</ele>
        <time>2022-07-21T06:17:02Z</time>
      </trkpt>
      <trkpt lat="44.17515" lon="5.2313">
        <ele>1259.4</ele>
        <time>2022-07-21T06:17:03Z</time>
      </trkpt>
      <trkpt lat="44.17516" lon="5.23132">
        <ele>1259.5</ele>
        <time>2022-07-21T06:17:04Z</time>
      </trkpt>
      <trkpt lat="44.17516" lon="5.23133">
        <ele>1259.7</ele>
        <time>2022-07-21T06:17:05Z</time>
      </trkpt>
      <trkpt lat="44.17517" lon="5.23136">
        <ele>1259.9</ele>
        <time>2022-07-21T06:17:06Z</time>
      </trkpt>
      <trkpt lat="44.17518" lon="5.23137">
        <ele>1260</ele>
        <time>2022-07-21T06:17:07Z</time>
      </trkpt>
      <trkpt lat="44.17518" lon="5.23138">
        <ele>1260.1</ele>
        <time>2022-07-21T06:17:08Z</time>
      </trkpt>
      <trkpt lat="44.17519" lon="5.23141">
        <ele>1260.4</ele>
        <time>2022-07-21T06:17:09Z</time>
      </trkpt>
      <trkpt lat="44.17519" lon="5.23142">
        <ele>1260.5</ele>
        <time>2022-07-21T06:17:10Z</time>
      </trkpt>
      <trkpt lat="44.1752" lon="5.23143">
        <ele>1260.6</ele>
        <time>2022-07-21T06:17:11Z</time>
      </trkpt>
      <trkpt lat="44.1752" lon="5.23146">
        <ele>1260.9</ele>
        <time>2022-07-21T06:17:12Z</time>
      </trkpt>
      <trkpt lat="44.17521" lon="5.23147">
        <ele>1261</ele>
        <time>2022-07-21T06:17:13Z</time>
      </trkpt>
      <trkpt lat="44.17521" lon="5.23148">
        <ele>1261.1</ele>
        <time>2022-07-21T06:17:14Z</time>
      </trkpt>
      <trkpt lat="44.17522" lon="5.2315">
        <ele>1261.4</ele>
        <time>2022-07-21T06:17:15Z</time>
      </trkpt>
      <trkpt lat="44.17522" lon="5.23152">
        <ele>1261.5</ele>
        <time>2022-07-21T06:17:16Z</time>
      </trkpt>
      <trkpt lat="44.17523" lon="5.23153">
        <ele>1261.6</ele>
        <time>2022-07-21T06:17:17Z</time>
      </trkpt>
      <trkpt lat="44.17524" lon="5.23154">
        <ele>1261.8</ele>
        <time>2022-07-21T06:17:18Z</time>
      </trkpt>
      <trkpt lat="44.17524" lon="5.23156">
        <ele>1261.9</ele>
        <time>2022-07-21T06:17:19Z</time>
      </trkpt>
      <trkpt lat="44.17525" lon="5.23158">
        <ele>1262.1</ele>
        <time>2022-07-21T06:17:20Z</time>
      </trkpt>
      <trkpt lat="44.17526" lon="5.23159">
        <ele>1262.3</ele>
        <time>2022-07-21T06:17:21Z</time>
      </trkpt>
      <trkpt lat="44.17527" lon="5.23162">
        <ele>1262.5</ele>
        <time>2022-07-21T06:17:22Z</time>
      </trkpt>
      <trkpt lat="44.17527" lon="5.23163">
        <ele>1262.7</ele>
        <time>2022-07-21T06:17:23Z</time>
      </trkpt>
      <trkpt lat="44.17527" lon="5.23165">
        <ele>1262.8</ele>
        <time>2022-07-21T06:17:24Z</time>
      </trkpt>
      <trkpt lat="44.17528" lon="5.23167">
        <ele>1263</ele>
        <time>2022-07-21T06:17:25Z</time>
      </trkpt>
      <trkpt lat="44.17529" lon="5.23168">
        <ele>1263.1</ele>
        <time>2022-07-21T06:17:26Z</time>
      </trkpt>
      <trkpt lat="44.17529" lon="5.23169">
        <ele>1263.2</ele>
        <time>2022-07-21T06:17:27Z</time>
      </trkpt>
      <trkpt lat="44.1753" lon="5.23172">
        <ele>1263.5</ele>
        <time>2022-07-21T06:17:28Z</time>
      </trkpt>
      <trkpt lat="44.1753" lon="5.23173">
        <ele>1263.6</ele>
        <time>2022-07-21T06:17:29Z</time>
      </trkpt>
      <trkpt lat="44.17531" lon="5.23174">
        <ele>1263.7</ele>
        <time>2022-07-21T06:17:30Z</time>
      </trkpt>
      <trkpt lat="44.17532" lon="5.23176">
        <ele>1264</ele>
        <time>2022-07-21T06:17:31Z</time>
      </trkpt>
      <trkpt lat="44.17532" lon="5.23177">
        <ele>1264.1</ele>
        <time>2022-07-21T06:17:32Z</time>
      </trkpt>
      <trkpt lat="44.17532" lon="5.23178">
        <ele>1264.2</ele>
        <time>2022-07-21T06:17:33Z</time>
      </trkpt>
      <trkpt lat="44.17533" lon="5.23181">
        <ele>1264.4</ele>
        <time>2022-07-21T06:17:34Z</time>
      </trkpt>
      <trkpt lat="44.17534" lon="5.23182">
        <ele>1264.5</ele>
        <time>2022-07-21T06:17:35Z</time>
      </trkpt>
      <trkpt lat="44.17534" lon="5.23184">
        <ele>1264.6</ele>
        <time>2022-07-21T06:17:36Z</time>
      </trkpt>
      <trkpt lat="44.17534" lon="5.23185">
        <ele>1264.8</ele>
        <time>2022-07-21T06:17:37Z</time>
      </trkpt>
      <trkpt lat="44.17535" lon="5.23187">
        <ele>1265</ele>
        <time>2022-07-21T06:17:38Z</time>
      </trkpt>
      <trkpt lat="44.17535" lon="5.23188">
        <ele>1265.1</ele>
        <time>2022-07-21T06:17:39Z</time>
      </trkpt>
      <trkpt lat="44.17535" lon="5.2319">
        <ele>1265.2</ele>
        <time>2022-07-21T06:17:40Z</time>
      </trkpt>
      <trkpt lat="44.17536" lon="5.23191">
        <ele>1265.4</ele>
        <time>2022-07-21T06:17:41Z</time>
      </trkpt>
      <trkpt lat="44.17536" lon="5.23192">
        <ele>1265.5</ele>
        <time>2022-07-21T06:17:42Z</time>
      </trkpt>
      <trkpt lat="44.17536" lon="5.23193">
        <ele>1265.6</ele>
        <time>2022-07-21T06:17:43Z</time>
      </trkpt>
      <trkpt lat="44.17536" lon="5.23194">
        <ele>1265.7</ele>
        <time>2022-07-21T06:17:44Z</time>
      </trkpt>
      <trkpt lat="44.17536" lon="5.23196">
        <ele>1265.8</ele>
        <time>2022-07-21T06:17:45Z</time>
      </trkpt>
      <trkpt lat="44.17537" lon="5.23198">
        <ele>1266</ele>
        <time>2022-07-21T06:17:46Z</time>
      </trkpt>
      <trkpt lat="44.17537" lon="5.232">
        <ele>1266.2</ele>
        <time>2022-07-21T06:17:47Z</time>
      </trkpt>
      <trkpt lat="44.17538" lon="5.23202">
        <ele>1266.4</ele>
        <time>2022-07-21T06:17:48Z</time>
      </trkpt>
      <trkpt lat="44.17538" lon="5.23204">
        <ele>1266.5</ele>
        <time>2022-07-21T06:17:49Z</time>
      </trkpt>
      <trkpt lat="44.17538" lon="5.23205">
        <ele>1266.7</ele>
        <time>2022-07-21T06:17:50Z</time>
      </trkpt>
      <trkpt lat="44.17539" lon="5.23208">
        <ele>1266.9</ele>
        <time>2022-07-21T06:17:51Z</time>
      </trkpt>
      <trkpt lat="44.17539" lon="5.23209">
        <ele>1267</ele>
        <time>2022-07-21T06:17:52Z</time>
      </trkpt>
      <trkpt lat="44.17539" lon="5.2321">
        <ele>1267.1</ele>
        <time>2022-07-21T06:17:53Z</time>
      </trkpt>
      <trkpt lat="44.1754" lon="5.23212">
        <ele>1267.3</ele>
        <time>2022-07-21T06:17:54Z</time>
      </trkpt>
      <trkpt lat="44.1754" lon="5.23214">
        <ele>1267.5</ele>
        <time>2022-07-21T06:17:55Z</time>
      </trkpt>
      <trkpt lat="44.17541" lon="5.23216">
        <ele>1267.7</ele>
        <time>2022-07-21T06:17:56Z</time>
      </trkpt>
      <trkpt lat="44.17541" lon="5.23217">
        <ele>1267.8</ele>
        <time>2022-07-21T06:17:57Z</time>
      </trkpt>
      <trkpt lat="44.17542" lon="5.23219">
        <ele>1268</ele>
        <time>2022-07-21T06:17:58Z</time>
      </trkpt>
      <trkpt lat="44.17542" lon="5.2322">
        <ele>1268.1</ele>
        <time>2022-07-21T06:17:59Z</time>
      </trkpt>
      <trkpt lat="44.17541" lon="5.23221">
        <ele>1268.2</ele>
        <time>2022-07-21T06:18:00Z</time>
      </trkpt>
      <trkpt lat="44.17541" lon="5.23224">
        <ele>1268.5</ele>
        <time>2022-07-21T06:18:01Z</time>
      </trkpt>
      <trkpt lat="44.17541" lon="5.23225">
        <ele>1268.6</ele>
        <time>2022-07-21T06:18:02Z</time>
      </trkpt>
      <trkpt lat="44.17542" lon="5.23226">
        <ele>1268.7</ele>
        <time>2022-07-21T06:18:03Z</time>
      </trkpt>
      <trkpt lat="44.17542" lon="5.23228">
        <ele>1268.8</ele>
        <time>2022-07-21T06:18:04Z</time>
      </trkpt>
      <trkpt lat="44.17542" lon="5.2323">
        <ele>1269</ele>
        <time>2022-07-21T06:18:05Z</time>
      </trkpt>
      <trkpt lat="44.17542" lon="5.23231">
        <ele>1269.2</ele>
        <time>2022-07-21T06:18:06Z</time>
      </trkpt>
      <trkpt lat="44.17543" lon="5.23233">
        <ele>1269.3</ele>
        <time>2022-07-21T06:18:07Z</time>
      </trkpt>
      <trkpt lat="44.17543" lon="5.23234">
        <ele>1269.4</ele>
        <time>2022-07-21T06:18:08Z</time>
      </trkpt>
      <trkpt lat="44.17543" lon="5.23236">
        <ele>1269.6</ele>
        <time>2022-07-21T06:18:09Z</time>
      </trkpt>
      <trkpt lat="44.17544" lon="5.23239">
        <ele>1269.9</ele>
        <time>2022-07-21T06:18:10Z</time>
      </trkpt>
      <trkpt lat="44.17545" lon="5.2324">
        <ele>1270</ele>
        <time>2022-07-21T06:18:11Z</time>
      </trkpt>
      <trkpt lat="44.17545" lon="5.23241">
        <ele>1270.1</ele>
        <time>2022-07-21T06:18:12Z</time>
      </trkpt>
      <trkpt lat="44.17545" lon="5.23244">
        <ele>1270.4</ele>
        <time>2022-07-21T06:18:13Z</time>
      </trkpt>
      <trkpt lat="44.17546" lon="5.23245">
        <ele>1270.5</ele>
        <time>2022-07-21T06:18:14Z</time>
      </trkpt>
      <trkpt lat="44.17546" lon="5.23246">
        <ele>1270.6</ele>
        <time>2022-07-21T06:18:15Z</time>
      </trkpt>
      <trkpt lat="44.17547" lon="5.23248">
        <ele>1270.9</ele>
        <time>2022-07-21T06:18:16Z</time>
      </trkpt>
      <trkpt lat="44.17547" lon="5.2325">
        <ele>1271</ele>
        <time>2022-07-21T06:18:17Z</time>
      </trkpt>
      <trkpt lat="44.17548" lon="5.23252">
        <ele>1271.2</ele>
        <time>2022-07-21T06:18:18Z</time>
      </trkpt>
      <trkpt lat="44.17548" lon="5.23254">
        <ele>1271.4</ele>
        <time>2022-07-21T06:18:19Z</time>
      </trkpt>
      <trkpt lat="44.17548" lon="5.23257">
        <ele>1271.7</ele>
        <time>2022-07-21T06:18:20Z</time>
      </trkpt>
      <trkpt lat="44.17549" lon="5.23258">
        <ele>1271.8</ele>
        <time>2022-07-21T06:18:21Z</time>
      </trkpt>
      <trkpt lat="44.17549" lon="5.23259">
        <ele>1271.9</ele>
        <time>2022-07-21T06:18:22Z</time>
      </trkpt>
      <trkpt lat="44.1755" lon="5.23261">
        <ele>1272.1</ele>
        <time>2022-07-21T06:18:23Z</time>
      </trkpt>
      <trkpt lat="44.1755" lon="5.23263">
        <ele>1272.3</ele>
        <time>2022-07-21T06:18:24Z</time>
      </trkpt>
      <trkpt lat="44.17552" lon="5.23266">
        <ele>1272.6</ele>
        <time>2022-07-21T06:18:25Z</time>
      </trkpt>
      <trkpt lat="44.17552" lon="5.23267">
        <ele>1272.7</ele>
        <time>2022-07-21T06:18:26Z</time>
      </trkpt>
      <trkpt lat="44.17552" lon="5.23268">
        <ele>1272.8</ele>
        <time>2022-07-21T06:18:27Z</time>
      </trkpt>
      <trkpt lat="44.17553" lon="5.2327">
        <ele>1273</ele>
        <time>2022-07-21T06:18:28Z</time>
      </trkpt>
      <trkpt lat="44.17553" lon="5.23272">
        <ele>1273.2</ele>
        <time>2022-07-21T06:18:29Z</time>
      </trkpt>
      <trkpt lat="44.17554" lon="5.23274">
        <ele>1273.3</ele>
        <time>2022-07-21T06:18:30Z</time>
      </trkpt>
      <trkpt lat="44.17554" lon="5.23276">
        <ele>1273.5</ele>
        <time>2022-07-21T06:18:31Z</time>
      </trkpt>
      <trkpt lat="44.17554" lon="5.23278">
        <ele>1273.7</ele>
        <time>2022-07-21T06:18:32Z</time>
      </trkpt>
      <trkpt lat="44.17554" lon="5.2328">
        <ele>1273.9</ele>
        <time>2022-07-21T06:18:33Z</time>
      </trkpt>
      <trkpt lat="44.17554" lon="5.23282">
        <ele>1274.1</ele>
        <time>2022-07-21T06:18:34Z</time>
      </trkpt>
      <trkpt lat="44.17554" lon="5.23284">
        <ele>1274.3</ele>
        <time>2022-07-21T06:18:35Z</time>
      </trkpt>
      <trkpt lat="44.17554" lon="5.23286">
        <ele>1274.5</ele>
        <time>2022-07-21T06:18:36Z</time>
      </trkpt>
      <trkpt lat="44.17555" lon="5.23288">
        <ele>1274.7</ele>
        <time>2022-07-21T06:18:37Z</time>
      </trkpt>
      <trkpt lat="44.17556" lon="5.2329">
        <ele>1274.9</ele>
        <time>2022-07-21T06:18:38Z</time>
      </trkpt>
      <trkpt lat="44.17557" lon="5.23292">
        <ele>1275.1</ele>
        <time>2022-07-21T06:18:39Z</time>
      </trkpt>
      <trkpt lat="44.17557" lon="5.23294">
        <ele>1275.3</ele>
        <time>2022-07-21T06:18:40Z</time>
      </trkpt>
      <trkpt lat="44.17558" lon="5.23296">
        <ele>1275.5</ele>
        <time>2022-07-21T06:18:41Z</time>
      </trkpt>
      <trkpt lat="44.17558" lon="5.23298">
        <ele>1275.7</ele>
        <time>2022-07-21T06:18:42Z</time>
      </trkpt>
      <trkpt lat="44.17558" lon="5.233">
        <ele>1275.8</ele>
        <time>2022-07-21T06:18:43Z</time>
      </trkpt>
      <trkpt lat="44.17558" lon="5.23302">
        <ele>1276</ele>
        <time>2022-07-21T06:18:44Z</time>
      </trkpt>
      <trkpt lat="44.17558" lon="5.23304">
        <ele>1276.2</ele>
        <time>2022-07-21T06:18:45Z</time>
      </trkpt>
      <trkpt lat="44.17558" lon="5.23306">
        <ele>1276.5</ele>
        <time>2022-07-21T06:18:46Z</time>
      </trkpt>
      <trkpt lat="44.17559" lon="5.23308">
        <ele>1276.6</ele>
        <time>2022-07-21T06:18:47Z</time>
      </trkpt>
      <trkpt lat="44.17559" lon="5.23309">
        <ele>1276.7</ele>
        <time>2022-07-21T06:18:48Z</time>
      </trkpt>
      <trkpt lat="44.17559" lon="5.23311">
        <ele>1276.9</ele>
        <time>2022-07-21T06:18:49Z</time>
      </trkpt>
      <trkpt lat="44.17559" lon="5.23313">
        <ele>1277</ele>
        <time>2022-07-21T06:18:50Z</time>
      </trkpt>
      <trkpt lat="44.1756" lon="5.23315">
        <ele>1277.2</ele>
        <time>2022-07-21T06:18:51Z</time>
      </trkpt>
      <trkpt lat="44.1756" lon="5.23317">
        <ele>1277.4</ele>
        <time>2022-07-21T06:18:52Z</time>
      </trkpt>
      <trkpt lat="44.1756" lon="5.23319">
        <ele>1277.6</ele>
        <time>2022-07-21T06:18:53Z</time>
      </trkpt>
      <trkpt lat="44.17561" lon="5.23321">
        <ele>1277.8</ele>
        <time>2022-07-21T06:18:54Z</time>
      </trkpt>
      <trkpt lat="44.17561" lon="5.23322">
        <ele>1277.9</ele>
        <time>2022-07-21T06:18:55Z</time>
      </trkpt>
      <trkpt lat="44.17561" lon="5.23323">
        <ele>1278</ele>
        <time>2022-07-21T06:18:56Z</time>
      </trkpt>
      <trkpt lat="44.17561" lon="5.23325">
        <ele>1278.1</ele>
        <time>2022-07-21T06:18:57Z</time>
      </trkpt>
      <trkpt lat="44.17561" lon="5.23326">
        <ele>1278.3</ele>
        <time>2022-07-21T06:18:58Z</time>
      </trkpt>
      <trkpt lat="44.17561" lon="5.23327">
        <ele>1278.3</ele>
        <time>2022-07-21T06:18:59Z</time>
      </trkpt>
      <trkpt lat="44.17561" lon="5.23329">
        <ele>1278.4</ele>
        <time>2022-07-21T06:19:00Z</time>
      </trkpt>
      <trkpt lat="44.17562" lon="5.23331">
        <ele>1278.7</ele>
        <time>2022-07-21T06:19:01Z</time>
      </trkpt>
      <trkpt lat="44.17562" lon="5.23332">
        <ele>1278.8</ele>
        <time>2022-07-21T06:19:02Z</time>
      </trkpt>
      <trkpt lat="44.17562" lon="5.23334">
        <ele>1278.9</ele>
        <time>2022-07-21T06:19:03Z</time>
      </trkpt>
      <trkpt lat="44.17562" lon="5.23336">
        <ele>1279.1</ele>
        <time>2022-07-21T06:19:04Z</time>
      </trkpt>
      <trkpt lat="44.17562" lon="5.23338">
        <ele>1279.2</ele>
        <time>2022-07-21T06:19:05Z</time>
      </trkpt>
      <trkpt lat="44.17562" lon="5.23339">
        <ele>1279.3</ele>
        <time>2022-07-21T06:19:06Z</time>
      </trkpt>
      <trkpt lat="44.17562" lon="5.23342">
        <ele>1279.5</ele>
        <time>2022-07-21T06:19:07Z</time>
      </trkpt>
      <trkpt lat="44.17562" lon="5.23343">
        <ele>1279.7</ele>
        <time>2022-07-21T06:19:08Z</time>
      </trkpt>
      <trkpt lat="44.17562" lon="5.23344">
        <ele>1279.8</ele>
        <time>2022-07-21T06:19:09Z</time>
      </trkpt>
      <trkpt lat="44.17562" lon="5.23346">
        <ele>1279.9</ele>
        <time>2022-07-21T06:19:10Z</time>
      </trkpt>
      <trkpt lat="44.17563" lon="5.23348">
        <ele>1280.1</ele>
        <time>2022-07-21T06:19:11Z</time>
      </trkpt>
      <trkpt lat="44.17563" lon="5.23351">
        <ele>1280.4</ele>
        <time>2022-07-21T06:19:12Z</time>
      </trkpt>
      <trkpt lat="44.17563" lon="5.23352">
        <ele>1280.5</ele>
        <time>2022-07-21T06:19:13Z</time>
      </trkpt>
      <trkpt lat="44.17563" lon="5.23354">
        <ele>1280.6</ele>
        <time>2022-07-21T06:19:14Z</time>
      </trkpt>
      <trkpt lat="44.17563" lon="5.23355">
        <ele>1280.7</ele>
        <time>2022-07-21T06:19:15Z</time>
      </trkpt>
      <trkpt lat="44.17562" lon="5.23357">
        <ele>1280.9</ele>
        <time>2022-07-21T06:19:16Z</time>
      </trkpt>
      <trkpt lat="44.17562" lon="5.23358">
        <ele>1281</ele>
        <time>2022-07-21T06:19:17Z</time>
      </trkpt>
      <trkpt lat="44.17562" lon="5.2336">
        <ele>1281.1</ele>
        <time>2022-07-21T06:19:18Z</time>
      </trkpt>
      <trkpt lat="44.17562" lon="5.23361">
        <ele>1281.2</ele>
        <time>2022-07-21T06:19:19Z</time>
      </trkpt>
      <trkpt lat="44.17562" lon="5.23363">
        <ele>1281.4</ele>
        <time>2022-07-21T06:19:20Z</time>
      </trkpt>
      <trkpt lat="44.17562" lon="5.23366">
        <ele>1281.6</ele>
        <time>2022-07-21T06:19:21Z</time>
      </trkpt>
      <trkpt lat="44.17562" lon="5.23367">
        <ele>1281.7</ele>
        <time>2022-07-21T06:19:22Z</time>
      </trkpt>
      <trkpt lat="44.17562" lon="5.23368">
        <ele>1281.8</ele>
        <time>2022-07-21T06:19:23Z</time>
      </trkpt>
      <trkpt lat="44.17562" lon="5.2337">
        <ele>1282</ele>
        <time>2022-07-21T06:19:24Z</time>
      </trkpt>
      <trkpt lat="44.17562" lon="5.23372">
        <ele>1282.2</ele>
        <time>2022-07-21T06:19:25Z</time>
      </trkpt>
      <trkpt lat="44.17561" lon="5.23375">
        <ele>1282.5</ele>
        <time>2022-07-21T06:19:26Z</time>
      </trkpt>
      <trkpt lat="44.17561" lon="5.23376">
        <ele>1282.6</ele>
        <time>2022-07-21T06:19:27Z</time>
      </trkpt>
      <trkpt lat="44.17561" lon="5.23377">
        <ele>1282.6</ele>
        <time>2022-07-21T06:19:28Z</time>
      </trkpt>
      <trkpt lat="44.17561" lon="5.23379">
        <ele>1282.8</ele>
        <time>2022-07-21T06:19:29Z</time>
      </trkpt>
      <trkpt lat="44.17561" lon="5.2338">
        <ele>1282.9</ele>
        <time>2022-07-21T06:19:30Z</time>
      </trkpt>
      <trkpt lat="44.17561" lon="5.23381">
        <ele>1283</ele>
        <time>2022-07-21T06:19:31Z</time>
      </trkpt>
      <trkpt lat="44.17561" lon="5.23384">
        <ele>1283.3</ele>
        <time>2022-07-21T06:19:32Z</time>
      </trkpt>
      <trkpt lat="44.17561" lon="5.23385">
        <ele>1283.4</ele>
        <time>2022-07-21T06:19:33Z</time>
      </trkpt>
      <trkpt lat="44.17562" lon="5.23387">
        <ele>1283.5</ele>
        <time>2022-07-21T06:19:34Z</time>
      </trkpt>
      <trkpt lat="44.17562" lon="5.23389">
        <ele>1283.7</ele>
        <time>2022-07-21T06:19:35Z</time>
      </trkpt>
      <trkpt lat="44.17562" lon="5.23391">
        <ele>1283.9</ele>
        <time>2022-07-21T06:19:36Z</time>
      </trkpt>
      <trkpt lat="44.17563" lon="5.23393">
        <ele>1284.1</ele>
        <time>2022-07-21T06:19:37Z</time>
      </trkpt>
      <trkpt lat="44.17563" lon="5.23395">
        <ele>1284.2</ele>
        <time>2022-07-21T06:19:38Z</time>
      </trkpt>
      <trkpt lat="44.17563" lon="5.23397">
        <ele>1284.4</ele>
        <time>2022-07-21T06:19:39Z</time>
      </trkpt>
      <trkpt lat="44.17562" lon="5.23399">
        <ele>1284.6</ele>
        <time>2022-07-21T06:19:40Z</time>
      </trkpt>
      <trkpt lat="44.17562" lon="5.23401">
        <ele>1284.8</ele>
        <time>2022-07-21T06:19:41Z</time>
      </trkpt>
      <trkpt lat="44.17562" lon="5.23403">
        <ele>1285</ele>
        <time>2022-07-21T06:19:42Z</time>
      </trkpt>
      <trkpt lat="44.17562" lon="5.23405">
        <ele>1285.1</ele>
        <time>2022-07-21T06:19:43Z</time>
      </trkpt>
      <trkpt lat="44.17562" lon="5.23407">
        <ele>1285.3</ele>
        <time>2022-07-21T06:19:44Z</time>
      </trkpt>
      <trkpt lat="44.17562" lon="5.23408">
        <ele>1285.4</ele>
        <time>2022-07-21T06:19:45Z</time>
      </trkpt>
      <trkpt lat="44.17562" lon="5.2341">
        <ele>1285.5</ele>
        <time>2022-07-21T06:19:46Z</time>
      </trkpt>
      <trkpt lat="44.17562" lon="5.23412">
        <ele>1285.7</ele>
        <time>2022-07-21T06:19:47Z</time>
      </trkpt>
      <trkpt lat="44.17562" lon="5.23414">
        <ele>1285.9</ele>
        <time>2022-07-21T06:19:48Z</time>
      </trkpt>
      <trkpt lat="44.17562" lon="5.23416">
        <ele>1286.1</ele>
        <time>2022-07-21T06:19:49Z</time>
      </trkpt>
      <trkpt lat="44.17562" lon="5.23419">
        <ele>1286.3</ele>
        <time>2022-07-21T06:19:50Z</time>
      </trkpt>
      <trkpt lat="44.17562" lon="5.2342">
        <ele>1286.5</ele>
        <time>2022-07-21T06:19:51Z</time>
      </trkpt>
      <trkpt lat="44.17562" lon="5.23421">
        <ele>1286.6</ele>
        <time>2022-07-21T06:19:52Z</time>
      </trkpt>
      <trkpt lat="44.17562" lon="5.23423">
        <ele>1286.7</ele>
        <time>2022-07-21T06:19:53Z</time>
      </trkpt>
      <trkpt lat="44.17562" lon="5.23424">
        <ele>1286.8</ele>
        <time>2022-07-21T06:19:54Z</time>
      </trkpt>
      <trkpt lat="44.17562" lon="5.23425">
        <ele>1286.9</ele>
        <time>2022-07-21T06:19:55Z</time>
      </trkpt>
      <trkpt lat="44.17562" lon="5.23426">
        <ele>1287</ele>
        <time>2022-07-21T06:19:56Z</time>
      </trkpt>
      <trkpt lat="44.17562" lon="5.23427">
        <ele>1287.2</ele>
        <time>2022-07-21T06:19:57Z</time>
      </trkpt>
      <trkpt lat="44.17562" lon="5.23429">
        <ele>1287.3</ele>
        <time>2022-07-21T06:19:58Z</time>
      </trkpt>
      <trkpt lat="44.17562" lon="5.2343">
        <ele>1287.4</ele>
        <time>2022-07-21T06:19:59Z</time>
      </trkpt>
      <trkpt lat="44.17562" lon="5.23431">
        <ele>1287.5</ele>
        <time>2022-07-21T06:20:00Z</time>
      </trkpt>
      <trkpt lat="44.17562" lon="5.23433">
        <ele>1287.7</ele>
        <time>2022-07-21T06:20:01Z</time>
      </trkpt>
      <trkpt lat="44.17562" lon="5.23434">
        <ele>1287.8</ele>
        <time>2022-07-21T06:20:02Z</time>
      </trkpt>
      <trkpt lat="44.17562" lon="5.23437">
        <ele>1288.1</ele>
        <time>2022-07-21T06:20:03Z</time>
      </trkpt>
      <trkpt lat="44.17562" lon="5.23438">
        <ele>1288.2</ele>
        <time>2022-07-21T06:20:04Z</time>
      </trkpt>
      <trkpt lat="44.17563" lon="5.2344">
        <ele>1288.3</ele>
        <time>2022-07-21T06:20:05Z</time>
      </trkpt>
      <trkpt lat="44.17563" lon="5.23442">
        <ele>1288.5</ele>
        <time>2022-07-21T06:20:06Z</time>
      </trkpt>
      <trkpt lat="44.17563" lon="5.23443">
        <ele>1288.7</ele>
        <time>2022-07-21T06:20:07Z</time>
      </trkpt>
      <trkpt lat="44.17562" lon="5.23445">
        <ele>1288.8</ele>
        <time>2022-07-21T06:20:08Z</time>
      </trkpt>
      <trkpt lat="44.17562" lon="5.23446">
        <ele>1289</ele>
        <time>2022-07-21T06:20:09Z</time>
      </trkpt>
      <trkpt lat="44.17562" lon="5.23448">
        <ele>1289.1</ele>
        <time>2022-07-21T06:20:10Z</time>
      </trkpt>
      <trkpt lat="44.17562" lon="5.23449">
        <ele>1289.3</ele>
        <time>2022-07-21T06:20:11Z</time>
      </trkpt>
      <trkpt lat="44.17561" lon="5.23451">
        <ele>1289.4</ele>
        <time>2022-07-21T06:20:12Z</time>
      </trkpt>
      <trkpt lat="44.17561" lon="5.23453">
        <ele>1289.6</ele>
        <time>2022-07-21T06:20:13Z</time>
      </trkpt>
      <trkpt lat="44.17561" lon="5.23455">
        <ele>1289.8</ele>
        <time>2022-07-21T06:20:14Z</time>
      </trkpt>
      <trkpt lat="44.17561" lon="5.23457">
        <ele>1290</ele>
        <time>2022-07-21T06:20:15Z</time>
      </trkpt>
      <trkpt lat="44.1756" lon="5.2346">
        <ele>1290.3</ele>
        <time>2022-07-21T06:20:16Z</time>
      </trkpt>
      <trkpt lat="44.1756" lon="5.23461">
        <ele>1290.4</ele>
        <time>2022-07-21T06:20:17Z</time>
      </trkpt>
      <trkpt lat="44.1756" lon="5.23462">
        <ele>1290.5</ele>
        <time>2022-07-21T06:20:18Z</time>
      </trkpt>
      <trkpt lat="44.17559" lon="5.23465">
        <ele>1290.8</ele>
        <time>2022-07-21T06:20:19Z</time>
      </trkpt>
      <trkpt lat="44.17559" lon="5.23466">
        <ele>1290.9</ele>
        <time>2022-07-21T06:20:20Z</time>
      </trkpt>
      <trkpt lat="44.17559" lon="5.23467">
        <ele>1291</ele>
        <time>2022-07-21T06:20:21Z</time>
      </trkpt>
      <trkpt lat="44.17559" lon="5.23469">
        <ele>1291.1</ele>
        <time>2022-07-21T06:20:22Z</time>
      </trkpt>
      <trkpt lat="44.17558" lon="5.2347">
        <ele>1291.3</ele>
        <time>2022-07-21T06:20:23Z</time>
      </trkpt>
      <trkpt lat="44.17557" lon="5.23472">
        <ele>1291.4</ele>
        <time>2022-07-21T06:20:24Z</time>
      </trkpt>
      <trkpt lat="44.17557" lon="5.23474">
        <ele>1291.7</ele>
        <time>2022-07-21T06:20:25Z</time>
      </trkpt>
      <trkpt lat="44.17556" lon="5.23475">
        <ele>1291.8</ele>
        <time>2022-07-21T06:20:26Z</time>
      </trkpt>
      <trkpt lat="44.17556" lon="5.23477">
        <ele>1291.9</ele>
        <time>2022-07-21T06:20:27Z</time>
      </trkpt>
      <trkpt lat="44.17555" lon="5.23479">
        <ele>1292.2</ele>
        <time>2022-07-21T06:20:28Z</time>
      </trkpt>
      <trkpt lat="44.17555" lon="5.2348">
        <ele>1292.3</ele>
        <time>2022-07-21T06:20:29Z</time>
      </trkpt>
      <trkpt lat="44.17554" lon="5.23481">
        <ele>1292.4</ele>
        <time>2022-07-21T06:20:30Z</time>
      </trkpt>
      <trkpt lat="44.17554" lon="5.23483">
        <ele>1292.5</ele>
        <time>2022-07-21T06:20:31Z</time>
      </trkpt>
      <trkpt lat="44.17553" lon="5.23485">
        <ele>1292.7</ele>
        <time>2022-07-21T06:20:32Z</time>
      </trkpt>
      <trkpt lat="44.17552" lon="5.23488">
        <ele>1293</ele>
        <time>2022-07-21T06:20:33Z</time>
      </trkpt>
      <trkpt lat="44.17552" lon="5.23489">
        <ele>1293.1</ele>
        <time>2022-07-21T06:20:34Z</time>
      </trkpt>
      <trkpt lat="44.17552" lon="5.2349">
        <ele>1293.3</ele>
        <time>2022-07-21T06:20:35Z</time>
      </trkpt>
      <trkpt lat="44.17551" lon="5.23493">
        <ele>1293.5</ele>
        <time>2022-07-21T06:20:36Z</time>
      </trkpt>
      <trkpt lat="44.1755" lon="5.23494">
        <ele>1293.7</ele>
        <time>2022-07-21T06:20:37Z</time>
      </trkpt>
      <trkpt lat="44.1755" lon="5.23495">
        <ele>1293.8</ele>
        <time>2022-07-21T06:20:38Z</time>
      </trkpt>
      <trkpt lat="44.17549" lon="5.23497">
        <ele>1294</ele>
        <time>2022-07-21T06:20:39Z</time>
      </trkpt>
      <trkpt lat="44.17548" lon="5.23498">
        <ele>1294.2</ele>
        <time>2022-07-21T06:20:40Z</time>
      </trkpt>
      <trkpt lat="44.17548" lon="5.23499">
        <ele>1294.3</ele>
        <time>2022-07-21T06:20:41Z</time>
      </trkpt>
      <trkpt lat="44.17547" lon="5.23501">
        <ele>1294.5</ele>
        <time>2022-07-21T06:20:42Z</time>
      </trkpt>
      <trkpt lat="44.17547" lon="5.23503">
        <ele>1294.7</ele>
        <time>2022-07-21T06:20:43Z</time>
      </trkpt>
      <trkpt lat="44.17546" lon="5.23506">
        <ele>1295</ele>
        <time>2022-07-21T06:20:44Z</time>
      </trkpt>
      <trkpt lat="44.17546" lon="5.23507">
        <ele>1295.1</ele>
        <time>2022-07-21T06:20:45Z</time>
      </trkpt>
      <trkpt lat="44.17546" lon="5.23508">
        <ele>1295.2</ele>
        <time>2022-07-21T06:20:46Z</time>
      </trkpt>
      <trkpt lat="44.17545" lon="5.2351">
        <ele>1295.5</ele>
        <time>2022-07-21T06:20:47Z</time>
      </trkpt>
      <trkpt lat="44.17544" lon="5.23512">
        <ele>1295.7</ele>
        <time>2022-07-21T06:20:48Z</time>
      </trkpt>
      <trkpt lat="44.17543" lon="5.23514">
        <ele>1296</ele>
        <time>2022-07-21T06:20:49Z</time>
      </trkpt>
      <trkpt lat="44.17543" lon="5.23515">
        <ele>1296.1</ele>
        <time>2022-07-21T06:20:50Z</time>
      </trkpt>
      <trkpt lat="44.17542" lon="5.23516">
        <ele>1296.3</ele>
        <time>2022-07-21T06:20:51Z</time>
      </trkpt>
      <trkpt lat="44.17541" lon="5.23518">
        <ele>1296.5</ele>
        <time>2022-07-21T06:20:52Z</time>
      </trkpt>
      <trkpt lat="44.17541" lon="5.2352">
        <ele>1296.7</ele>
        <time>2022-07-21T06:20:53Z</time>
      </trkpt>
      <trkpt lat="44.1754" lon="5.23522">
        <ele>1296.9</ele>
        <time>2022-07-21T06:20:54Z</time>
      </trkpt>
      <trkpt lat="44.1754" lon="5.23524">
        <ele>1297.1</ele>
        <time>2022-07-21T06:20:55Z</time>
      </trkpt>
      <trkpt lat="44.17539" lon="5.23526">
        <ele>1297.4</ele>
        <time>2022-07-21T06:20:56Z</time>
      </trkpt>
      <trkpt lat="44.17539" lon="5.23527">
        <ele>1297.6</ele>
        <time>2022-07-21T06:20:57Z</time>
      </trkpt>
      <trkpt lat="44.17539" lon="5.2353">
        <ele>1297.8</ele>
        <time>2022-07-21T06:20:58Z</time>
      </trkpt>
      <trkpt lat="44.17538" lon="5.23531">
        <ele>1298</ele>
        <time>2022-07-21T06:20:59Z</time>
      </trkpt>
      <trkpt lat="44.17537" lon="5.23533">
        <ele>1298.2</ele>
        <time>2022-07-21T06:21:00Z</time>
      </trkpt>
      <trkpt lat="44.17536" lon="5.23534">
        <ele>1298.4</ele>
        <time>2022-07-21T06:21:01Z</time>
      </trkpt>
      <trkpt lat="44.17535" lon="5.23536">
        <ele>1298.7</ele>
        <time>2022-07-21T06:21:02Z</time>
      </trkpt>
      <trkpt lat="44.17535" lon="5.23537">
        <ele>1298.9</ele>
        <time>2022-07-21T06:21:03Z</time>
      </trkpt>
      <trkpt lat="44.17534" lon="5.2354">
        <ele>1299.2</ele>
        <time>2022-07-21T06:21:04Z</time>
      </trkpt>
      <trkpt lat="44.17534" lon="5.23541">
        <ele>1299.3</ele>
        <time>2022-07-21T06:21:05Z</time>
      </trkpt>
      <trkpt lat="44.17534" lon="5.23543">
        <ele>1299.4</ele>
        <time>2022-07-21T06:21:06Z</time>
      </trkpt>
      <trkpt lat="44.17534" lon="5.23544">
        <ele>1299.5</ele>
        <time>2022-07-21T06:21:07Z</time>
      </trkpt>
      <trkpt lat="44.17534" lon="5.23546">
        <ele>1299.7</ele>
        <time>2022-07-21T06:21:08Z</time>
      </trkpt>
      <trkpt lat="44.17534" lon="5.23547">
        <ele>1299.9</ele>
        <time>2022-07-21T06:21:09Z</time>
      </trkpt>
      <trkpt lat="44.17534" lon="5.23549">
        <ele>1300</ele>
        <time>2022-07-21T06:21:10Z</time>
      </trkpt>
      <trkpt lat="44.17535" lon="5.2355">
        <ele>1300.1</ele>
        <time>2022-07-21T06:21:11Z</time>
      </trkpt>
      <trkpt lat="44.17535" lon="5.23551">
        <ele>1300.3</ele>
        <time>2022-07-21T06:21:12Z</time>
      </trkpt>
      <trkpt lat="44.17535" lon="5.23553">
        <ele>1300.4</ele>
        <time>2022-07-21T06:21:13Z</time>
      </trkpt>
      <trkpt lat="44.17535" lon="5.23555">
        <ele>1300.6</ele>
        <time>2022-07-21T06:21:14Z</time>
      </trkpt>
      <trkpt lat="44.17536" lon="5.23557">
        <ele>1300.9</ele>
        <time>2022-07-21T06:21:15Z</time>
      </trkpt>
      <trkpt lat="44.17537" lon="5.23559">
        <ele>1301.1</ele>
        <time>2022-07-21T06:21:16Z</time>
      </trkpt>
      <trkpt lat="44.17538" lon="5.23562">
        <ele>1301.4</ele>
        <time>2022-07-21T06:21:17Z</time>
      </trkpt>
      <trkpt lat="44.17538" lon="5.23563">
        <ele>1301.5</ele>
        <time>2022-07-21T06:21:18Z</time>
      </trkpt>
      <trkpt lat="44.17539" lon="5.23566">
        <ele>1301.7</ele>
        <time>2022-07-21T06:21:19Z</time>
      </trkpt>
      <trkpt lat="44.17539" lon="5.23567">
        <ele>1301.9</ele>
        <time>2022-07-21T06:21:20Z</time>
      </trkpt>
      <trkpt lat="44.1754" lon="5.23568">
        <ele>1302</ele>
        <time>2022-07-21T06:21:21Z</time>
      </trkpt>
      <trkpt lat="44.1754" lon="5.2357">
        <ele>1302.2</ele>
        <time>2022-07-21T06:21:22Z</time>
      </trkpt>
      <trkpt lat="44.17541" lon="5.23572">
        <ele>1302.4</ele>
        <time>2022-07-21T06:21:23Z</time>
      </trkpt>
      <trkpt lat="44.17542" lon="5.23574">
        <ele>1302.5</ele>
        <time>2022-07-21T06:21:24Z</time>
      </trkpt>
      <trkpt lat="44.17543" lon="5.23576">
        <ele>1302.7</ele>
        <time>2022-07-21T06:21:25Z</time>
      </trkpt>
      <trkpt lat="44.17543" lon="5.23578">
        <ele>1302.9</ele>
        <time>2022-07-21T06:21:26Z</time>
      </trkpt>
      <trkpt lat="44.17544" lon="5.2358">
        <ele>1303.1</ele>
        <time>2022-07-21T06:21:27Z</time>
      </trkpt>
      <trkpt lat="44.17545" lon="5.23582">
        <ele>1303.3</ele>
        <time>2022-07-21T06:21:28Z</time>
      </trkpt>
      <trkpt lat="44.17546" lon="5.23584">
        <ele>1303.4</ele>
        <time>2022-07-21T06:21:29Z</time>
      </trkpt>
      <trkpt lat="44.17547" lon="5.23586">
        <ele>1303.6</ele>
        <time>2022-07-21T06:21:30Z</time>
      </trkpt>
      <trkpt lat="44.17548" lon="5.23587">
        <ele>1303.8</ele>
        <time>2022-07-21T06:21:31Z</time>
      </trkpt>
      <trkpt lat="44.17549" lon="5.23589">
        <ele>1303.9</ele>
        <time>2022-07-21T06:21:32Z</time>
      </trkpt>
      <trkpt lat="44.1755" lon="5.23591">
        <ele>1304.1</ele>
        <time>2022-07-21T06:21:33Z</time>
      </trkpt>
      <trkpt lat="44.17551" lon="5.23593">
        <ele>1304.3</ele>
        <time>2022-07-21T06:21:34Z</time>
      </trkpt>
      <trkpt lat="44.17552" lon="5.23594">
        <ele>1304.3</ele>
        <time>2022-07-21T06:21:35Z</time>
      </trkpt>
      <trkpt lat="44.17552" lon="5.23595">
        <ele>1304.4</ele>
        <time>2022-07-21T06:21:36Z</time>
      </trkpt>
      <trkpt lat="44.17553" lon="5.23598">
        <ele>1304.6</ele>
        <time>2022-07-21T06:21:37Z</time>
      </trkpt>
      <trkpt lat="44.17554" lon="5.23598">
        <ele>1304.7</ele>
        <time>2022-07-21T06:21:38Z</time>
      </trkpt>
      <trkpt lat="44.17555" lon="5.23599">
        <ele>1304.8</ele>
        <time>2022-07-21T06:21:39Z</time>
      </trkpt>
      <trkpt lat="44.17555" lon="5.23601">
        <ele>1304.9</ele>
        <time>2022-07-21T06:21:40Z</time>
      </trkpt>
      <trkpt lat="44.17556" lon="5.23602">
        <ele>1305</ele>
        <time>2022-07-21T06:21:41Z</time>
      </trkpt>
      <trkpt lat="44.17557" lon="5.23604">
        <ele>1305.1</ele>
        <time>2022-07-21T06:21:42Z</time>
      </trkpt>
      <trkpt lat="44.17558" lon="5.23606">
        <ele>1305.3</ele>
        <time>2022-07-21T06:21:43Z</time>
      </trkpt>
      <trkpt lat="44.17559" lon="5.23607">
        <ele>1305.4</ele>
        <time>2022-07-21T06:21:44Z</time>
      </trkpt>
      <trkpt lat="44.1756" lon="5.23609">
        <ele>1305.5</ele>
        <time>2022-07-21T06:21:45Z</time>
      </trkpt>
      <trkpt lat="44.17561" lon="5.2361">
        <ele>1305.7</ele>
        <time>2022-07-21T06:21:46Z</time>
      </trkpt>
      <trkpt lat="44.17562" lon="5.23612">
        <ele>1305.8</ele>
        <time>2022-07-21T06:21:47Z</time>
      </trkpt>
      <trkpt lat="44.17563" lon="5.23613">
        <ele>1305.9</ele>
        <time>2022-07-21T06:21:48Z</time>
      </trkpt>
      <trkpt lat="44.17564" lon="5.23615">
        <ele>1306</ele>
        <time>2022-07-21T06:21:49Z</time>
      </trkpt>
      <trkpt lat="44.17565" lon="5.23616">
        <ele>1306.2</ele>
        <time>2022-07-21T06:21:50Z</time>
      </trkpt>
      <trkpt lat="44.17566" lon="5.23618">
        <ele>1306.3</ele>
        <time>2022-07-21T06:21:51Z</time>
      </trkpt>
      <trkpt lat="44.17567" lon="5.23619">
        <ele>1306.4</ele>
        <time>2022-07-21T06:21:52Z</time>
      </trkpt>
      <trkpt lat="44.17568" lon="5.23621">
        <ele>1306.5</ele>
        <time>2022-07-21T06:21:53Z</time>
      </trkpt>
      <trkpt lat="44.17569" lon="5.23623">
        <ele>1306.7</ele>
        <time>2022-07-21T06:21:54Z</time>
      </trkpt>
      <trkpt lat="44.1757" lon="5.23625">
        <ele>1306.8</ele>
        <time>2022-07-21T06:21:55Z</time>
      </trkpt>
      <trkpt lat="44.17571" lon="5.23626">
        <ele>1307</ele>
        <time>2022-07-21T06:21:56Z</time>
      </trkpt>
      <trkpt lat="44.17572" lon="5.23628">
        <ele>1307.1</ele>
        <time>2022-07-21T06:21:57Z</time>
      </trkpt>
      <trkpt lat="44.17573" lon="5.23629">
        <ele>1307.2</ele>
        <time>2022-07-21T06:21:58Z</time>
      </trkpt>
      <trkpt lat="44.17573" lon="5.23631">
        <ele>1307.3</ele>
        <time>2022-07-21T06:21:59Z</time>
      </trkpt>
      <trkpt lat="44.17574" lon="5.23632">
        <ele>1307.4</ele>
        <time>2022-07-21T06:22:00Z</time>
      </trkpt>
      <trkpt lat="44.17575" lon="5.23633">
        <ele>1307.5</ele>
        <time>2022-07-21T06:22:01Z</time>
      </trkpt>
      <trkpt lat="44.17576" lon="5.23635">
        <ele>1307.6</ele>
        <time>2022-07-21T06:22:02Z</time>
      </trkpt>
      <trkpt lat="44.17577" lon="5.23637">
        <ele>1307.7</ele>
        <time>2022-07-21T06:22:03Z</time>
      </trkpt>
      <trkpt lat="44.17578" lon="5.23638">
        <ele>1307.8</ele>
        <time>2022-07-21T06:22:04Z</time>
      </trkpt>
      <trkpt lat="44.17579" lon="5.23639">
        <ele>1307.9</ele>
        <time>2022-07-21T06:22:05Z</time>
      </trkpt>
      <trkpt lat="44.1758" lon="5.2364">
        <ele>1308</ele>
        <time>2022-07-21T06:22:06Z</time>
      </trkpt>
      <trkpt lat="44.17581" lon="5.23643">
        <ele>1308.2</ele>
        <time>2022-07-21T06:22:07Z</time>
      </trkpt>
      <trkpt lat="44.17582" lon="5.23644">
        <ele>1308.3</ele>
        <time>2022-07-21T06:22:08Z</time>
      </trkpt>
      <trkpt lat="44.17582" lon="5.23645">
        <ele>1308.4</ele>
        <time>2022-07-21T06:22:09Z</time>
      </trkpt>
      <trkpt lat="44.17584" lon="5.23647">
        <ele>1308.5</ele>
        <time>2022-07-21T06:22:10Z</time>
      </trkpt>
      <trkpt lat="44.17584" lon="5.23648">
        <ele>1308.6</ele>
        <time>2022-07-21T06:22:11Z</time>
      </trkpt>
      <trkpt lat="44.17585" lon="5.23649">
        <ele>1308.7</ele>
        <time>2022-07-21T06:22:12Z</time>
      </trkpt>
      <trkpt lat="44.17586" lon="5.2365">
        <ele>1308.8</ele>
        <time>2022-07-21T06:22:13Z</time>
      </trkpt>
      <trkpt lat="44.17587" lon="5.23652">
        <ele>1308.9</ele>
        <time>2022-07-21T06:22:14Z</time>
      </trkpt>
      <trkpt lat="44.17588" lon="5.23653">
        <ele>1309</ele>
        <time>2022-07-21T06:22:15Z</time>
      </trkpt>
      <trkpt lat="44.17589" lon="5.23654">
        <ele>1309.2</ele>
        <time>2022-07-21T06:22:16Z</time>
      </trkpt>
      <trkpt lat="44.1759" lon="5.23656">
        <ele>1309.3</ele>
        <time>2022-07-21T06:22:17Z</time>
      </trkpt>
      <trkpt lat="44.17591" lon="5.23657">
        <ele>1309.4</ele>
        <time>2022-07-21T06:22:18Z</time>
      </trkpt>
      <trkpt lat="44.17592" lon="5.23658">
        <ele>1309.5</ele>
        <time>2022-07-21T06:22:19Z</time>
      </trkpt>
      <trkpt lat="44.17593" lon="5.2366">
        <ele>1309.6</ele>
        <time>2022-07-21T06:22:20Z</time>
      </trkpt>
      <trkpt lat="44.17594" lon="5.23662">
        <ele>1309.8</ele>
        <time>2022-07-21T06:22:21Z</time>
      </trkpt>
      <trkpt lat="44.17595" lon="5.23663">
        <ele>1309.9</ele>
        <time>2022-07-21T06:22:22Z</time>
      </trkpt>
      <trkpt lat="44.17595" lon="5.23664">
        <ele>1310</ele>
        <time>2022-07-21T06:22:23Z</time>
      </trkpt>
      <trkpt lat="44.17596" lon="5.23666">
        <ele>1310.1</ele>
        <time>2022-07-21T06:22:24Z</time>
      </trkpt>
      <trkpt lat="44.17597" lon="5.23668">
        <ele>1310.2</ele>
        <time>2022-07-21T06:22:25Z</time>
      </trkpt>
      <trkpt lat="44.17598" lon="5.23669">
        <ele>1310.4</ele>
        <time>2022-07-21T06:22:26Z</time>
      </trkpt>
      <trkpt lat="44.17599" lon="5.23671">
        <ele>1310.5</ele>
        <time>2022-07-21T06:22:27Z</time>
      </trkpt>
      <trkpt lat="44.17599" lon="5.23672">
        <ele>1310.6</ele>
        <time>2022-07-21T06:22:28Z</time>
      </trkpt>
      <trkpt lat="44.176" lon="5.23673">
        <ele>1310.7</ele>
        <time>2022-07-21T06:22:29Z</time>
      </trkpt>
      <trkpt lat="44.17601" lon="5.23674">
        <ele>1310.8</ele>
        <time>2022-07-21T06:22:30Z</time>
      </trkpt>
      <trkpt lat="44.17602" lon="5.23676">
        <ele>1310.9</ele>
        <time>2022-07-21T06:22:31Z</time>
      </trkpt>
      <trkpt lat="44.17603" lon="5.23677">
        <ele>1311</ele>
        <time>2022-07-21T06:22:32Z</time>
      </trkpt>
      <trkpt lat="44.17603" lon="5.23678">
        <ele>1311.1</ele>
        <time>2022-07-21T06:22:33Z</time>
      </trkpt>
      <trkpt lat="44.17604" lon="5.23679">
        <ele>1311.2</ele>
        <time>2022-07-21T06:22:34Z</time>
      </trkpt>
      <trkpt lat="44.17605" lon="5.23681">
        <ele>1311.3</ele>
        <time>2022-07-21T06:22:35Z</time>
      </trkpt>
      <trkpt lat="44.17605" lon="5.23682">
        <ele>1311.4</ele>
        <time>2022-07-21T06:22:36Z</time>
      </trkpt>
      <trkpt lat="44.17606" lon="5.23683">
        <ele>1311.5</ele>
        <time>2022-07-21T06:22:37Z</time>
      </trkpt>
      <trkpt lat="44.17607" lon="5.23684">
        <ele>1311.6</ele>
        <time>2022-07-21T06:22:38Z</time>
      </trkpt>
      <trkpt lat="44.17608" lon="5.23686">
        <ele>1311.8</ele>
        <time>2022-07-21T06:22:39Z</time>
      </trkpt>
      <trkpt lat="44.17609" lon="5.23687">
        <ele>1311.9</ele>
        <time>2022-07-21T06:22:40Z</time>
      </trkpt>
      <trkpt lat="44.1761" lon="5.23688">
        <ele>1312</ele>
        <time>2022-07-21T06:22:41Z</time>
      </trkpt>
      <trkpt lat="44.17611" lon="5.23689">
        <ele>1312.1</ele>
        <time>2022-07-21T06:22:42Z</time>
      </trkpt>
      <trkpt lat="44.17612" lon="5.23691">
        <ele>1312.3</ele>
        <time>2022-07-21T06:22:43Z</time>
      </trkpt>
      <trkpt lat="44.17613" lon="5.23693">
        <ele>1312.4</ele>
        <time>2022-07-21T06:22:44Z</time>
      </trkpt>
      <trkpt lat="44.17613" lon="5.23694">
        <ele>1312.5</ele>
        <time>2022-07-21T06:22:45Z</time>
      </trkpt>
      <trkpt lat="44.17615" lon="5.23696">
        <ele>1312.8</ele>
        <time>2022-07-21T06:22:46Z</time>
      </trkpt>
      <trkpt lat="44.17615" lon="5.23697">
        <ele>1312.9</ele>
        <time>2022-07-21T06:22:47Z</time>
      </trkpt>
      <trkpt lat="44.17616" lon="5.23698">
        <ele>1313</ele>
        <time>2022-07-21T06:22:48Z</time>
      </trkpt>
      <trkpt lat="44.17617" lon="5.23701">
        <ele>1313.2</ele>
        <time>2022-07-21T06:22:49Z</time>
      </trkpt>
      <trkpt lat="44.17618" lon="5.23702">
        <ele>1313.3</ele>
        <time>2022-07-21T06:22:50Z</time>
      </trkpt>
      <trkpt lat="44.17618" lon="5.23703">
        <ele>1313.4</ele>
        <time>2022-07-21T06:22:51Z</time>
      </trkpt>
      <trkpt lat="44.17619" lon="5.23704">
        <ele>1313.5</ele>
        <time>2022-07-21T06:22:52Z</time>
      </trkpt>
      <trkpt lat="44.1762" lon="5.23706">
        <ele>1313.7</ele>
        <time>2022-07-21T06:22:53Z</time>
      </trkpt>
      <trkpt lat="44.1762" lon="5.23708">
        <ele>1313.8</ele>
        <time>2022-07-21T06:22:54Z</time>
      </trkpt>
      <trkpt lat="44.17621" lon="5.2371">
        <ele>1314</ele>
        <time>2022-07-21T06:22:55Z</time>
      </trkpt>
      <trkpt lat="44.17623" lon="5.23712">
        <ele>1314.2</ele>
        <time>2022-07-21T06:22:56Z</time>
      </trkpt>
      <trkpt lat="44.17623" lon="5.23713">
        <ele>1314.3</ele>
        <time>2022-07-21T06:22:57Z</time>
      </trkpt>
      <trkpt lat="44.17624" lon="5.23714">
        <ele>1314.4</ele>
        <time>2022-07-21T06:22:58Z</time>
      </trkpt>
      <trkpt lat="44.17625" lon="5.23715">
        <ele>1314.5</ele>
        <time>2022-07-21T06:22:59Z</time>
      </trkpt>
      <trkpt lat="44.17625" lon="5.23716">
        <ele>1314.6</ele>
        <time>2022-07-21T06:23:00Z</time>
      </trkpt>
      <trkpt lat="44.17626" lon="5.23717">
        <ele>1314.7</ele>
        <time>2022-07-21T06:23:01Z</time>
      </trkpt>
      <trkpt lat="44.17626" lon="5.23718">
        <ele>1314.8</ele>
        <time>2022-07-21T06:23:02Z</time>
      </trkpt>
      <trkpt lat="44.17627" lon="5.23718">
        <ele>1314.8</ele>
        <time>2022-07-21T06:23:03Z</time>
      </trkpt>
      <trkpt lat="44.17627" lon="5.23719">
        <ele>1314.9</ele>
        <time>2022-07-21T06:23:04Z</time>
      </trkpt>
      <trkpt lat="44.17628" lon="5.2372">
        <ele>1315</ele>
        <time>2022-07-21T06:23:05Z</time>
      </trkpt>
      <trkpt lat="44.17628" lon="5.23721">
        <ele>1315.1</ele>
        <time>2022-07-21T06:23:06Z</time>
      </trkpt>
      <trkpt lat="44.17629" lon="5.23722">
        <ele>1315.2</ele>
        <time>2022-07-21T06:23:07Z</time>
      </trkpt>
      <trkpt lat="44.1763" lon="5.23724">
        <ele>1315.4</ele>
        <time>2022-07-21T06:23:08Z</time>
      </trkpt>
      <trkpt lat="44.17632" lon="5.23726">
        <ele>1315.6</ele>
        <time>2022-07-21T06:23:09Z</time>
      </trkpt>
      <trkpt lat="44.17632" lon="5.23727">
        <ele>1315.7</ele>
        <time>2022-07-21T06:23:10Z</time>
      </trkpt>
      <trkpt lat="44.17633" lon="5.23729">
        <ele>1315.8</ele>
        <time>2022-07-21T06:23:11Z</time>
      </trkpt>
      <trkpt lat="44.17633" lon="5.23731">
        <ele>1316</ele>
        <time>2022-07-21T06:23:12Z</time>
      </trkpt>
      <trkpt lat="44.17634" lon="5.23733">
        <ele>1316.2</ele>
        <time>2022-07-21T06:23:13Z</time>
      </trkpt>
      <trkpt lat="44.17635" lon="5.23735">
        <ele>1316.4</ele>
        <time>2022-07-21T06:23:14Z</time>
      </trkpt>
      <trkpt lat="44.17636" lon="5.23737">
        <ele>1316.6</ele>
        <time>2022-07-21T06:23:15Z</time>
      </trkpt>
      <trkpt lat="44.17637" lon="5.23738">
        <ele>1316.7</ele>
        <time>2022-07-21T06:23:16Z</time>
      </trkpt>
      <trkpt lat="44.17638" lon="5.2374">
        <ele>1316.9</ele>
        <time>2022-07-21T06:23:17Z</time>
      </trkpt>
      <trkpt lat="44.17639" lon="5.23742">
        <ele>1317.1</ele>
        <time>2022-07-21T06:23:18Z</time>
      </trkpt>
      <trkpt lat="44.1764" lon="5.23743">
        <ele>1317.3</ele>
        <time>2022-07-21T06:23:19Z</time>
      </trkpt>
      <trkpt lat="44.17641" lon="5.23745">
        <ele>1317.4</ele>
        <time>2022-07-21T06:23:20Z</time>
      </trkpt>
      <trkpt lat="44.17642" lon="5.23747">
        <ele>1317.6</ele>
        <time>2022-07-21T06:23:21Z</time>
      </trkpt>
      <trkpt lat="44.17643" lon="5.23749">
        <ele>1317.8</ele>
        <time>2022-07-21T06:23:22Z</time>
      </trkpt>
      <trkpt lat="44.17644" lon="5.2375">
        <ele>1317.9</ele>
        <time>2022-07-21T06:23:23Z</time>
      </trkpt>
      <trkpt lat="44.17644" lon="5.23752">
        <ele>1318.1</ele>
        <time>2022-07-21T06:23:24Z</time>
      </trkpt>
      <trkpt lat="44.17645" lon="5.23754">
        <ele>1318.2</ele>
        <time>2022-07-21T06:23:25Z</time>
      </trkpt>
      <trkpt lat="44.17645" lon="5.23755">
        <ele>1318.3</ele>
        <time>2022-07-21T06:23:26Z</time>
      </trkpt>
      <trkpt lat="44.17646" lon="5.23757">
        <ele>1318.5</ele>
        <time>2022-07-21T06:23:27Z</time>
      </trkpt>
      <trkpt lat="44.17646" lon="5.23758">
        <ele>1318.6</ele>
        <time>2022-07-21T06:23:28Z</time>
      </trkpt>
      <trkpt lat="44.17647" lon="5.2376">
        <ele>1318.8</ele>
        <time>2022-07-21T06:23:29Z</time>
      </trkpt>
      <trkpt lat="44.17648" lon="5.23762">
        <ele>1318.9</ele>
        <time>2022-07-21T06:23:30Z</time>
      </trkpt>
      <trkpt lat="44.17649" lon="5.23763">
        <ele>1319.1</ele>
        <time>2022-07-21T06:23:31Z</time>
      </trkpt>
      <trkpt lat="44.1765" lon="5.23764">
        <ele>1319.2</ele>
        <time>2022-07-21T06:23:32Z</time>
      </trkpt>
      <trkpt lat="44.1765" lon="5.23765">
        <ele>1319.3</ele>
        <time>2022-07-21T06:23:33Z</time>
      </trkpt>
      <trkpt lat="44.17651" lon="5.23768">
        <ele>1319.5</ele>
        <time>2022-07-21T06:23:34Z</time>
      </trkpt>
      <trkpt lat="44.17652" lon="5.23769">
        <ele>1319.6</ele>
        <time>2022-07-21T06:23:35Z</time>
      </trkpt>
      <trkpt lat="44.17652" lon="5.2377">
        <ele>1319.7</ele>
        <time>2022-07-21T06:23:36Z</time>
      </trkpt>
      <trkpt lat="44.17653" lon="5.23773">
        <ele>1320</ele>
        <time>2022-07-21T06:23:37Z</time>
      </trkpt>
      <trkpt lat="44.17654" lon="5.23774">
        <ele>1320.1</ele>
        <time>2022-07-21T06:23:38Z</time>
      </trkpt>
      <trkpt lat="44.17654" lon="5.23775">
        <ele>1320.2</ele>
        <time>2022-07-21T06:23:39Z</time>
      </trkpt>
      <trkpt lat="44.17655" lon="5.23777">
        <ele>1320.4</ele>
        <time>2022-07-21T06:23:40Z</time>
      </trkpt>
      <trkpt lat="44.17655" lon="5.23778">
        <ele>1320.5</ele>
        <time>2022-07-21T06:23:41Z</time>
      </trkpt>
      <trkpt lat="44.17656" lon="5.23779">
        <ele>1320.6</ele>
        <time>2022-07-21T06:23:42Z</time>
      </trkpt>
      <trkpt lat="44.17657" lon="5.23782">
        <ele>1320.8</ele>
        <time>2022-07-21T06:23:43Z</time>
      </trkpt>
      <trkpt lat="44.17657" lon="5.23783">
        <ele>1320.9</ele>
        <time>2022-07-21T06:23:44Z</time>
      </trkpt>
      <trkpt lat="44.17657" lon="5.23785">
        <ele>1321</ele>
        <time>2022-07-21T06:23:45Z</time>
      </trkpt>
      <trkpt lat="44.17659" lon="5.23787">
        <ele>1321.3</ele>
        <time>2022-07-21T06:23:46Z</time>
      </trkpt>
      <trkpt lat="44.17659" lon="5.23788">
        <ele>1321.3</ele>
        <time>2022-07-21T06:23:47Z</time>
      </trkpt>
      <trkpt lat="44.1766" lon="5.23789">
        <ele>1321.4</ele>
        <time>2022-07-21T06:23:48Z</time>
      </trkpt>
      <trkpt lat="44.17661" lon="5.23791">
        <ele>1321.7</ele>
        <time>2022-07-21T06:23:49Z</time>
      </trkpt>
      <trkpt lat="44.17661" lon="5.23792">
        <ele>1321.8</ele>
        <time>2022-07-21T06:23:50Z</time>
      </trkpt>
      <trkpt lat="44.17662" lon="5.23794">
        <ele>1321.9</ele>
        <time>2022-07-21T06:23:51Z</time>
      </trkpt>
      <trkpt lat="44.17662" lon="5.23795">
        <ele>1322</ele>
        <time>2022-07-21T06:23:52Z</time>
      </trkpt>
      <trkpt lat="44.17663" lon="5.23797">
        <ele>1322.2</ele>
        <time>2022-07-21T06:23:53Z</time>
      </trkpt>
      <trkpt lat="44.17664" lon="5.23798">
        <ele>1322.3</ele>
        <time>2022-07-21T06:23:54Z</time>
      </trkpt>
      <trkpt lat="44.17664" lon="5.238">
        <ele>1322.4</ele>
        <time>2022-07-21T06:23:55Z</time>
      </trkpt>
      <trkpt lat="44.17665" lon="5.23801">
        <ele>1322.6</ele>
        <time>2022-07-21T06:23:56Z</time>
      </trkpt>
      <trkpt lat="44.17666" lon="5.23803">
        <ele>1322.8</ele>
        <time>2022-07-21T06:23:57Z</time>
      </trkpt>
      <trkpt lat="44.17667" lon="5.23804">
        <ele>1322.9</ele>
        <time>2022-07-21T06:23:58Z</time>
      </trkpt>
      <trkpt lat="44.17667" lon="5.23806">
        <ele>1323</ele>
        <time>2022-07-21T06:23:59Z</time>
      </trkpt>
      <trkpt lat="44.17667" lon="5.23807">
        <ele>1323.2</ele>
        <time>2022-07-21T06:24:00Z</time>
      </trkpt>
      <trkpt lat="44.17668" lon="5.23808">
        <ele>1323.3</ele>
        <time>2022-07-21T06:24:01Z</time>
      </trkpt>
      <trkpt lat="44.17669" lon="5.23811">
        <ele>1323.5</ele>
        <time>2022-07-21T06:24:02Z</time>
      </trkpt>
      <trkpt lat="44.17669" lon="5.23812">
        <ele>1323.6</ele>
        <time>2022-07-21T06:24:03Z</time>
      </trkpt>
      <trkpt lat="44.17669" lon="5.23813">
        <ele>1323.8</ele>
        <time>2022-07-21T06:24:04Z</time>
      </trkpt>
      <trkpt lat="44.1767" lon="5.23815">
        <ele>1323.9</ele>
        <time>2022-07-21T06:24:05Z</time>
      </trkpt>
      <trkpt lat="44.17671" lon="5.23817">
        <ele>1324.1</ele>
        <time>2022-07-21T06:24:06Z</time>
      </trkpt>
      <trkpt lat="44.17672" lon="5.2382">
        <ele>1324.4</ele>
        <time>2022-07-21T06:24:07Z</time>
      </trkpt>
      <trkpt lat="44.17672" lon="5.23821">
        <ele>1324.5</ele>
        <time>2022-07-21T06:24:08Z</time>
      </trkpt>
      <trkpt lat="44.17673" lon="5.23822">
        <ele>1324.6</ele>
        <time>2022-07-21T06:24:09Z</time>
      </trkpt>
      <trkpt lat="44.17674" lon="5.23825">
        <ele>1324.9</ele>
        <time>2022-07-21T06:24:10Z</time>
      </trkpt>
      <trkpt lat="44.17674" lon="5.23826">
        <ele>1325</ele>
        <time>2022-07-21T06:24:11Z</time>
      </trkpt>
      <trkpt lat="44.17675" lon="5.23827">
        <ele>1325.1</ele>
        <time>2022-07-21T06:24:12Z</time>
      </trkpt>
      <trkpt lat="44.17675" lon="5.23829">
        <ele>1325.3</ele>
        <time>2022-07-21T06:24:13Z</time>
      </trkpt>
      <trkpt lat="44.17676" lon="5.23831">
        <ele>1325.4</ele>
        <time>2022-07-21T06:24:14Z</time>
      </trkpt>
      <trkpt lat="44.17677" lon="5.23833">
        <ele>1325.6</ele>
        <time>2022-07-21T06:24:15Z</time>
      </trkpt>
      <trkpt lat="44.17677" lon="5.23834">
        <ele>1325.8</ele>
        <time>2022-07-21T06:24:16Z</time>
      </trkpt>
      <trkpt lat="44.17678" lon="5.23836">
        <ele>1325.9</ele>
        <time>2022-07-21T06:24:17Z</time>
      </trkpt>
      <trkpt lat="44.17678" lon="5.23838">
        <ele>1326.1</ele>
        <time>2022-07-21T06:24:18Z</time>
      </trkpt>
      <trkpt lat="44.17679" lon="5.23841">
        <ele>1326.4</ele>
        <time>2022-07-21T06:24:19Z</time>
      </trkpt>
      <trkpt lat="44.17679" lon="5.23842">
        <ele>1326.5</ele>
        <time>2022-07-21T06:24:20Z</time>
      </trkpt>
      <trkpt lat="44.1768" lon="5.23843">
        <ele>1326.6</ele>
        <time>2022-07-21T06:24:21Z</time>
      </trkpt>
      <trkpt lat="44.1768" lon="5.23844">
        <ele>1326.7</ele>
        <time>2022-07-21T06:24:22Z</time>
      </trkpt>
      <trkpt lat="44.17681" lon="5.23846">
        <ele>1326.9</ele>
        <time>2022-07-21T06:24:23Z</time>
      </trkpt>
      <trkpt lat="44.17681" lon="5.23847">
        <ele>1327</ele>
        <time>2022-07-21T06:24:24Z</time>
      </trkpt>
      <trkpt lat="44.17681" lon="5.23849">
        <ele>1327.1</ele>
        <time>2022-07-21T06:24:25Z</time>
      </trkpt>
      <trkpt lat="44.17682" lon="5.2385">
        <ele>1327.3</ele>
        <time>2022-07-21T06:24:26Z</time>
      </trkpt>
      <trkpt lat="44.17682" lon="5.23852">
        <ele>1327.4</ele>
        <time>2022-07-21T06:24:27Z</time>
      </trkpt>
      <trkpt lat="44.17683" lon="5.23854">
        <ele>1327.6</ele>
        <time>2022-07-21T06:24:28Z</time>
      </trkpt>
      <trkpt lat="44.17683" lon="5.23856">
        <ele>1328</ele>
        <time>2022-07-21T06:24:29Z</time>
      </trkpt>
      <trkpt lat="44.17684" lon="5.23858">
        <ele>1328.2</ele>
        <time>2022-07-21T06:24:30Z</time>
      </trkpt>
      <trkpt lat="44.17684" lon="5.2386">
        <ele>1328.4</ele>
        <time>2022-07-21T06:24:31Z</time>
      </trkpt>
      <trkpt lat="44.17684" lon="5.23862">
        <ele>1328.5</ele>
        <time>2022-07-21T06:24:32Z</time>
      </trkpt>
      <trkpt lat="44.17685" lon="5.23864">
        <ele>1328.7</ele>
        <time>2022-07-21T06:24:33Z</time>
      </trkpt>
      <trkpt lat="44.17685" lon="5.23866">
        <ele>1328.8</ele>
        <time>2022-07-21T06:24:34Z</time>
      </trkpt>
      <trkpt lat="44.17685" lon="5.23868">
        <ele>1329</ele>
        <time>2022-07-21T06:24:35Z</time>
      </trkpt>
      <trkpt lat="44.17685" lon="5.2387">
        <ele>1329.2</ele>
        <time>2022-07-21T06:24:36Z</time>
      </trkpt>
      <trkpt lat="44.17685" lon="5.23872">
        <ele>1329.4</ele>
        <time>2022-07-21T06:24:37Z</time>
      </trkpt>
      <trkpt lat="44.17686" lon="5.23874">
        <ele>1329.5</ele>
        <time>2022-07-21T06:24:38Z</time>
      </trkpt>
      <trkpt lat="44.17686" lon="5.23876">
        <ele>1329.7</ele>
        <time>2022-07-21T06:24:39Z</time>
      </trkpt>
      <trkpt lat="44.17685" lon="5.23878">
        <ele>1329.9</ele>
        <time>2022-07-21T06:24:40Z</time>
      </trkpt>
      <trkpt lat="44.17685" lon="5.23881">
        <ele>1330</ele>
        <time>2022-07-21T06:24:41Z</time>
      </trkpt>
      <trkpt lat="44.17685" lon="5.23884">
        <ele>1330.3</ele>
        <time>2022-07-21T06:24:42Z</time>
      </trkpt>
      <trkpt lat="44.17685" lon="5.23885">
        <ele>1330.4</ele>
        <time>2022-07-21T06:24:43Z</time>
      </trkpt>
      <trkpt lat="44.17685" lon="5.23886">
        <ele>1330.5</ele>
        <time>2022-07-21T06:24:44Z</time>
      </trkpt>
      <trkpt lat="44.17685" lon="5.23889">
        <ele>1330.7</ele>
        <time>2022-07-21T06:24:45Z</time>
      </trkpt>
      <trkpt lat="44.17685" lon="5.2389">
        <ele>1330.8</ele>
        <time>2022-07-21T06:24:46Z</time>
      </trkpt>
      <trkpt lat="44.17685" lon="5.23891">
        <ele>1330.9</ele>
        <time>2022-07-21T06:24:47Z</time>
      </trkpt>
      <trkpt lat="44.17684" lon="5.23893">
        <ele>1331</ele>
        <time>2022-07-21T06:24:48Z</time>
      </trkpt>
      <trkpt lat="44.17684" lon="5.23894">
        <ele>1331.1</ele>
        <time>2022-07-21T06:24:49Z</time>
      </trkpt>
      <trkpt lat="44.17684" lon="5.23896">
        <ele>1331.2</ele>
        <time>2022-07-21T06:24:50Z</time>
      </trkpt>
      <trkpt lat="44.17683" lon="5.23897">
        <ele>1331.3</ele>
        <time>2022-07-21T06:24:51Z</time>
      </trkpt>
      <trkpt lat="44.17683" lon="5.23898">
        <ele>1331.4</ele>
        <time>2022-07-21T06:24:52Z</time>
      </trkpt>
      <trkpt lat="44.17682" lon="5.23899">
        <ele>1331.5</ele>
        <time>2022-07-21T06:24:53Z</time>
      </trkpt>
      <trkpt lat="44.17681" lon="5.239">
        <ele>1331.6</ele>
        <time>2022-07-21T06:24:54Z</time>
      </trkpt>
      <trkpt lat="44.17681" lon="5.23902">
        <ele>1331.7</ele>
        <time>2022-07-21T06:24:55Z</time>
      </trkpt>
      <trkpt lat="44.17681" lon="5.23903">
        <ele>1331.8</ele>
        <time>2022-07-21T06:24:56Z</time>
      </trkpt>
      <trkpt lat="44.1768" lon="5.23906">
        <ele>1332</ele>
        <time>2022-07-21T06:24:57Z</time>
      </trkpt>
      <trkpt lat="44.17679" lon="5.23907">
        <ele>1332.1</ele>
        <time>2022-07-21T06:24:58Z</time>
      </trkpt>
      <trkpt lat="44.17679" lon="5.23908">
        <ele>1332.2</ele>
        <time>2022-07-21T06:24:59Z</time>
      </trkpt>
      <trkpt lat="44.17678" lon="5.2391">
        <ele>1332.4</ele>
        <time>2022-07-21T06:25:00Z</time>
      </trkpt>
      <trkpt lat="44.17677" lon="5.23912">
        <ele>1332.5</ele>
        <time>2022-07-21T06:25:01Z</time>
      </trkpt>
      <trkpt lat="44.17676" lon="5.23914">
        <ele>1332.7</ele>
        <time>2022-07-21T06:25:02Z</time>
      </trkpt>
      <trkpt lat="44.17676" lon="5.23915">
        <ele>1332.8</ele>
        <time>2022-07-21T06:25:03Z</time>
      </trkpt>
      <trkpt lat="44.17675" lon="5.23916">
        <ele>1332.9</ele>
        <time>2022-07-21T06:25:04Z</time>
      </trkpt>
      <trkpt lat="44.17674" lon="5.23917">
        <ele>1333</ele>
        <time>2022-07-21T06:25:05Z</time>
      </trkpt>
      <trkpt lat="44.17674" lon="5.23919">
        <ele>1333.1</ele>
        <time>2022-07-21T06:25:06Z</time>
      </trkpt>
      <trkpt lat="44.17672" lon="5.23922">
        <ele>1333.3</ele>
        <time>2022-07-21T06:25:07Z</time>
      </trkpt>
      <trkpt lat="44.17672" lon="5.23923">
        <ele>1333.4</ele>
        <time>2022-07-21T06:25:08Z</time>
      </trkpt>
      <trkpt lat="44.17671" lon="5.23924">
        <ele>1333.5</ele>
        <time>2022-07-21T06:25:09Z</time>
      </trkpt>
      <trkpt lat="44.17671" lon="5.23926">
        <ele>1333.6</ele>
        <time>2022-07-21T06:25:10Z</time>
      </trkpt>
      <trkpt lat="44.1767" lon="5.23927">
        <ele>1333.8</ele>
        <time>2022-07-21T06:25:11Z</time>
      </trkpt>
      <trkpt lat="44.17669" lon="5.2393">
        <ele>1333.9</ele>
        <time>2022-07-21T06:25:12Z</time>
      </trkpt>
      <trkpt lat="44.17668" lon="5.23931">
        <ele>1334</ele>
        <time>2022-07-21T06:25:13Z</time>
      </trkpt>
      <trkpt lat="44.17668" lon="5.23932">
        <ele>1334.1</ele>
        <time>2022-07-21T06:25:14Z</time>
      </trkpt>
      <trkpt lat="44.17667" lon="5.23934">
        <ele>1334.3</ele>
        <time>2022-07-21T06:25:15Z</time>
      </trkpt>
      <trkpt lat="44.17666" lon="5.23935">
        <ele>1334.4</ele>
        <time>2022-07-21T06:25:16Z</time>
      </trkpt>
      <trkpt lat="44.17666" lon="5.23936">
        <ele>1334.4</ele>
        <time>2022-07-21T06:25:17Z</time>
      </trkpt>
      <trkpt lat="44.17665" lon="5.23938">
        <ele>1334.6</ele>
        <time>2022-07-21T06:25:18Z</time>
      </trkpt>
      <trkpt lat="44.17664" lon="5.2394">
        <ele>1334.7</ele>
        <time>2022-07-21T06:25:19Z</time>
      </trkpt>
      <trkpt lat="44.17663" lon="5.23942">
        <ele>1334.8</ele>
        <time>2022-07-21T06:25:20Z</time>
      </trkpt>
      <trkpt lat="44.17663" lon="5.23943">
        <ele>1334.9</ele>
        <time>2022-07-21T06:25:21Z</time>
      </trkpt>
      <trkpt lat="44.17662" lon="5.23946">
        <ele>1335.1</ele>
        <time>2022-07-21T06:25:22Z</time>
      </trkpt>
      <trkpt lat="44.17661" lon="5.23948">
        <ele>1335.2</ele>
        <time>2022-07-21T06:25:23Z</time>
      </trkpt>
      <trkpt lat="44.17661" lon="5.2395">
        <ele>1335.4</ele>
        <time>2022-07-21T06:25:24Z</time>
      </trkpt>
      <trkpt lat="44.1766" lon="5.23952">
        <ele>1335.5</ele>
        <time>2022-07-21T06:25:25Z</time>
      </trkpt>
      <trkpt lat="44.17659" lon="5.23954">
        <ele>1335.7</ele>
        <time>2022-07-21T06:25:26Z</time>
      </trkpt>
      <trkpt lat="44.17657" lon="5.23955">
        <ele>1335.8</ele>
        <time>2022-07-21T06:25:27Z</time>
      </trkpt>
      <trkpt lat="44.17656" lon="5.23957">
        <ele>1335.9</ele>
        <time>2022-07-21T06:25:28Z</time>
      </trkpt>
      <trkpt lat="44.17656" lon="5.23958">
        <ele>1336.1</ele>
        <time>2022-07-21T06:25:29Z</time>
      </trkpt>
      <trkpt lat="44.17654" lon="5.2396">
        <ele>1336.2</ele>
        <time>2022-07-21T06:25:30Z</time>
      </trkpt>
      <trkpt lat="44.17653" lon="5.23961">
        <ele>1336.4</ele>
        <time>2022-07-21T06:25:31Z</time>
      </trkpt>
      <trkpt lat="44.17652" lon="5.23962">
        <ele>1336.5</ele>
        <time>2022-07-21T06:25:32Z</time>
      </trkpt>
      <trkpt lat="44.17651" lon="5.23964">
        <ele>1336.6</ele>
        <time>2022-07-21T06:25:33Z</time>
      </trkpt>
      <trkpt lat="44.1765" lon="5.23966">
        <ele>1336.8</ele>
        <time>2022-07-21T06:25:34Z</time>
      </trkpt>
      <trkpt lat="44.17649" lon="5.23967">
        <ele>1336.9</ele>
        <time>2022-07-21T06:25:35Z</time>
      </trkpt>
      <trkpt lat="44.17648" lon="5.23969">
        <ele>1337</ele>
        <time>2022-07-21T06:25:36Z</time>
      </trkpt>
      <trkpt lat="44.17647" lon="5.23971">
        <ele>1337.2</ele>
        <time>2022-07-21T06:25:37Z</time>
      </trkpt>
      <trkpt lat="44.17646" lon="5.23973">
        <ele>1337.4</ele>
        <time>2022-07-21T06:25:38Z</time>
      </trkpt>
      <trkpt lat="44.17646" lon="5.23975">
        <ele>1337.5</ele>
        <time>2022-07-21T06:25:39Z</time>
      </trkpt>
      <trkpt lat="44.17645" lon="5.23977">
        <ele>1337.6</ele>
        <time>2022-07-21T06:25:40Z</time>
      </trkpt>
      <trkpt lat="44.17645" lon="5.23979">
        <ele>1337.8</ele>
        <time>2022-07-21T06:25:41Z</time>
      </trkpt>
      <trkpt lat="44.17644" lon="5.23982">
        <ele>1337.9</ele>
        <time>2022-07-21T06:25:42Z</time>
      </trkpt>
      <trkpt lat="44.17644" lon="5.23984">
        <ele>1338.1</ele>
        <time>2022-07-21T06:25:43Z</time>
      </trkpt>
      <trkpt lat="44.17644" lon="5.23986">
        <ele>1338.2</ele>
        <time>2022-07-21T06:25:44Z</time>
      </trkpt>
      <trkpt lat="44.17643" lon="5.23988">
        <ele>1338.4</ele>
        <time>2022-07-21T06:25:45Z</time>
      </trkpt>
      <trkpt lat="44.17643" lon="5.23991">
        <ele>1338.6</ele>
        <time>2022-07-21T06:25:46Z</time>
      </trkpt>
      <trkpt lat="44.17642" lon="5.23992">
        <ele>1338.6</ele>
        <time>2022-07-21T06:25:47Z</time>
      </trkpt>
      <trkpt lat="44.17642" lon="5.23993">
        <ele>1338.7</ele>
        <time>2022-07-21T06:25:48Z</time>
      </trkpt>
      <trkpt lat="44.17641" lon="5.23995">
        <ele>1338.9</ele>
        <time>2022-07-21T06:25:49Z</time>
      </trkpt>
      <trkpt lat="44.17641" lon="5.23998">
        <ele>1339.1</ele>
        <time>2022-07-21T06:25:50Z</time>
      </trkpt>
      <trkpt lat="44.17641" lon="5.24">
        <ele>1339.2</ele>
        <time>2022-07-21T06:25:51Z</time>
      </trkpt>
      <trkpt lat="44.17641" lon="5.24002">
        <ele>1339.4</ele>
        <time>2022-07-21T06:25:52Z</time>
      </trkpt>
      <trkpt lat="44.1764" lon="5.24004">
        <ele>1339.5</ele>
        <time>2022-07-21T06:25:53Z</time>
      </trkpt>
      <trkpt lat="44.1764" lon="5.24006">
        <ele>1339.6</ele>
        <time>2022-07-21T06:25:54Z</time>
      </trkpt>
      <trkpt lat="44.1764" lon="5.24009">
        <ele>1339.8</ele>
        <time>2022-07-21T06:25:55Z</time>
      </trkpt>
      <trkpt lat="44.1764" lon="5.24011">
        <ele>1340</ele>
        <time>2022-07-21T06:25:56Z</time>
      </trkpt>
      <trkpt lat="44.17639" lon="5.24013">
        <ele>1340.1</ele>
        <time>2022-07-21T06:25:57Z</time>
      </trkpt>
      <trkpt lat="44.17639" lon="5.24016">
        <ele>1340.3</ele>
        <time>2022-07-21T06:25:58Z</time>
      </trkpt>
      <trkpt lat="44.17639" lon="5.24018">
        <ele>1340.4</ele>
        <time>2022-07-21T06:25:59Z</time>
      </trkpt>
      <trkpt lat="44.17638" lon="5.2402">
        <ele>1340.6</ele>
        <time>2022-07-21T06:26:00Z</time>
      </trkpt>
      <trkpt lat="44.17637" lon="5.24022">
        <ele>1340.8</ele>
        <time>2022-07-21T06:26:01Z</time>
      </trkpt>
      <trkpt lat="44.17637" lon="5.24024">
        <ele>1340.9</ele>
        <time>2022-07-21T06:26:02Z</time>
      </trkpt>
      <trkpt lat="44.17636" lon="5.24028">
        <ele>1341.2</ele>
        <time>2022-07-21T06:26:03Z</time>
      </trkpt>
      <trkpt lat="44.17636" lon="5.24029">
        <ele>1341.2</ele>
        <time>2022-07-21T06:26:04Z</time>
      </trkpt>
      <trkpt lat="44.17636" lon="5.24031">
        <ele>1341.4</ele>
        <time>2022-07-21T06:26:05Z</time>
      </trkpt>
      <trkpt lat="44.17636" lon="5.24033">
        <ele>1341.6</ele>
        <time>2022-07-21T06:26:06Z</time>
      </trkpt>
      <trkpt lat="44.17635" lon="5.24036">
        <ele>1341.7</ele>
        <time>2022-07-21T06:26:07Z</time>
      </trkpt>
      <trkpt lat="44.17634" lon="5.24038">
        <ele>1341.9</ele>
        <time>2022-07-21T06:26:08Z</time>
      </trkpt>
      <trkpt lat="44.17634" lon="5.2404">
        <ele>1342.1</ele>
        <time>2022-07-21T06:26:09Z</time>
      </trkpt>
      <trkpt lat="44.17633" lon="5.24042">
        <ele>1342.2</ele>
        <time>2022-07-21T06:26:10Z</time>
      </trkpt>
      <trkpt lat="44.17633" lon="5.24044">
        <ele>1342.3</ele>
        <time>2022-07-21T06:26:11Z</time>
      </trkpt>
      <trkpt lat="44.17633" lon="5.24046">
        <ele>1342.5</ele>
        <time>2022-07-21T06:26:12Z</time>
      </trkpt>
      <trkpt lat="44.17632" lon="5.24048">
        <ele>1342.7</ele>
        <time>2022-07-21T06:26:13Z</time>
      </trkpt>
      <trkpt lat="44.17632" lon="5.24049">
        <ele>1342.7</ele>
        <time>2022-07-21T06:26:14Z</time>
      </trkpt>
      <trkpt lat="44.17631" lon="5.24051">
        <ele>1342.8</ele>
        <time>2022-07-21T06:26:15Z</time>
      </trkpt>
      <trkpt lat="44.17631" lon="5.24053">
        <ele>1343</ele>
        <time>2022-07-21T06:26:16Z</time>
      </trkpt>
      <trkpt lat="44.17631" lon="5.24055">
        <ele>1343.1</ele>
        <time>2022-07-21T06:26:17Z</time>
      </trkpt>
      <trkpt lat="44.17631" lon="5.24059">
        <ele>1343.4</ele>
        <time>2022-07-21T06:26:18Z</time>
      </trkpt>
      <trkpt lat="44.17631" lon="5.2406">
        <ele>1343.5</ele>
        <time>2022-07-21T06:26:19Z</time>
      </trkpt>
      <trkpt lat="44.17632" lon="5.24063">
        <ele>1343.6</ele>
        <time>2022-07-21T06:26:20Z</time>
      </trkpt>
      <trkpt lat="44.17633" lon="5.24065">
        <ele>1343.8</ele>
        <time>2022-07-21T06:26:21Z</time>
      </trkpt>
      <trkpt lat="44.17634" lon="5.24069">
        <ele>1344</ele>
        <time>2022-07-21T06:26:22Z</time>
      </trkpt>
      <trkpt lat="44.17634" lon="5.2407">
        <ele>1344.1</ele>
        <time>2022-07-21T06:26:23Z</time>
      </trkpt>
      <trkpt lat="44.17634" lon="5.24071">
        <ele>1344.2</ele>
        <time>2022-07-21T06:26:24Z</time>
      </trkpt>
      <trkpt lat="44.17635" lon="5.24073">
        <ele>1344.3</ele>
        <time>2022-07-21T06:26:25Z</time>
      </trkpt>
      <trkpt lat="44.17636" lon="5.24074">
        <ele>1344.4</ele>
        <time>2022-07-21T06:26:26Z</time>
      </trkpt>
      <trkpt lat="44.17637" lon="5.24077">
        <ele>1344.6</ele>
        <time>2022-07-21T06:26:27Z</time>
      </trkpt>
      <trkpt lat="44.17638" lon="5.24078">
        <ele>1344.7</ele>
        <time>2022-07-21T06:26:28Z</time>
      </trkpt>
      <trkpt lat="44.1764" lon="5.24082">
        <ele>1345</ele>
        <time>2022-07-21T06:26:29Z</time>
      </trkpt>
      <trkpt lat="44.17641" lon="5.24083">
        <ele>1345.1</ele>
        <time>2022-07-21T06:26:30Z</time>
      </trkpt>
      <trkpt lat="44.17644" lon="5.24086">
        <ele>1345.3</ele>
        <time>2022-07-21T06:26:31Z</time>
      </trkpt>
      <trkpt lat="44.17645" lon="5.24087">
        <ele>1345.3</ele>
        <time>2022-07-21T06:26:32Z</time>
      </trkpt>
      <trkpt lat="44.17648" lon="5.2409">
        <ele>1345.4</ele>
        <time>2022-07-21T06:26:33Z</time>
      </trkpt>
      <trkpt lat="44.17648" lon="5.24091">
        <ele>1345.4</ele>
        <time>2022-07-21T06:26:34Z</time>
      </trkpt>
      <trkpt lat="44.17651" lon="5.24094">
        <ele>1345.5</ele>
        <time>2022-07-21T06:26:35Z</time>
      </trkpt>
      <trkpt lat="44.17652" lon="5.24095">
        <ele>1345.5</ele>
        <time>2022-07-21T06:26:36Z</time>
      </trkpt>
      <trkpt lat="44.17655" lon="5.24097">
        <ele>1345.5</ele>
        <time>2022-07-21T06:26:37Z</time>
      </trkpt>
      <trkpt lat="44.17656" lon="5.24098">
        <ele>1345.5</ele>
        <time>2022-07-21T06:26:38Z</time>
      </trkpt>
      <trkpt lat="44.17658" lon="5.24101">
        <ele>1345.5</ele>
        <time>2022-07-21T06:26:39Z</time>
      </trkpt>
      <trkpt lat="44.17659" lon="5.24102">
        <ele>1345.5</ele>
        <time>2022-07-21T06:26:40Z</time>
      </trkpt>
      <trkpt lat="44.17662" lon="5.24104">
        <ele>1345.5</ele>
        <time>2022-07-21T06:26:41Z</time>
      </trkpt>
      <trkpt lat="44.17663" lon="5.24105">
        <ele>1345.5</ele>
        <time>2022-07-21T06:26:42Z</time>
      </trkpt>
      <trkpt lat="44.17665" lon="5.24108">
        <ele>1345.5</ele>
        <time>2022-07-21T06:26:43Z</time>
      </trkpt>
      <trkpt lat="44.17666" lon="5.24109">
        <ele>1345.5</ele>
        <time>2022-07-21T06:26:44Z</time>
      </trkpt>
      <trkpt lat="44.17669" lon="5.24112">
        <ele>1345.5</ele>
        <time>2022-07-21T06:26:45Z</time>
      </trkpt>
      <trkpt lat="44.1767" lon="5.24113">
        <ele>1345.5</ele>
        <time>2022-07-21T06:26:46Z</time>
      </trkpt>
      <trkpt lat="44.17673" lon="5.24117">
        <ele>1345.5</ele>
        <time>2022-07-21T06:26:47Z</time>
      </trkpt>
      <trkpt lat="44.17674" lon="5.24118">
        <ele>1345.5</ele>
        <time>2022-07-21T06:26:48Z</time>
      </trkpt>
      <trkpt lat="44.17677" lon="5.24121">
        <ele>1345.5</ele>
        <time>2022-07-21T06:26:49Z</time>
      </trkpt>
      <trkpt lat="44.17678" lon="5.24123">
        <ele>1345.5</ele>
        <time>2022-07-21T06:26:50Z</time>
      </trkpt>
      <trkpt lat="44.1768" lon="5.24126">
        <ele>1345.5</ele>
        <time>2022-07-21T06:26:51Z</time>
      </trkpt>
      <trkpt lat="44.17681" lon="5.24127">
        <ele>1345.5</ele>
        <time>2022-07-21T06:26:52Z</time>
      </trkpt>
      <trkpt lat="44.17684" lon="5.2413">
        <ele>1345.5</ele>
        <time>2022-07-21T06:26:53Z</time>
      </trkpt>
      <trkpt lat="44.17686" lon="5.24131">
        <ele>1345.5</ele>
        <time>2022-07-21T06:26:54Z</time>
      </trkpt>
      <trkpt lat="44.17689" lon="5.24133">
        <ele>1345.6</ele>
        <time>2022-07-21T06:26:55Z</time>
      </trkpt>
      <trkpt lat="44.1769" lon="5.24134">
        <ele>1345.6</ele>
        <time>2022-07-21T06:26:56Z</time>
      </trkpt>
      <trkpt lat="44.17693" lon="5.24137">
        <ele>1345.6</ele>
        <time>2022-07-21T06:26:57Z</time>
      </trkpt>
      <trkpt lat="44.17693" lon="5.24138">
        <ele>1345.6</ele>
        <time>2022-07-21T06:26:58Z</time>
      </trkpt>
      <trkpt lat="44.17697" lon="5.24141">
        <ele>1345.7</ele>
        <time>2022-07-21T06:26:59Z</time>
      </trkpt>
      <trkpt lat="44.17698" lon="5.24142">
        <ele>1345.7</ele>
        <time>2022-07-21T06:27:00Z</time>
      </trkpt>
      <trkpt lat="44.17701" lon="5.24145">
        <ele>1345.8</ele>
        <time>2022-07-21T06:27:01Z</time>
      </trkpt>
      <trkpt lat="44.17702" lon="5.24146">
        <ele>1345.8</ele>
        <time>2022-07-21T06:27:02Z</time>
      </trkpt>
      <trkpt lat="44.17705" lon="5.24149">
        <ele>1345.9</ele>
        <time>2022-07-21T06:27:03Z</time>
      </trkpt>
      <trkpt lat="44.17706" lon="5.2415">
        <ele>1345.9</ele>
        <time>2022-07-21T06:27:04Z</time>
      </trkpt>
      <trkpt lat="44.17709" lon="5.24153">
        <ele>1346</ele>
        <time>2022-07-21T06:27:05Z</time>
      </trkpt>
      <trkpt lat="44.1771" lon="5.24154">
        <ele>1346</ele>
        <time>2022-07-21T06:27:06Z</time>
      </trkpt>
      <trkpt lat="44.17713" lon="5.24156">
        <ele>1346.1</ele>
        <time>2022-07-21T06:27:07Z</time>
      </trkpt>
      <trkpt lat="44.17714" lon="5.24157">
        <ele>1346.2</ele>
        <time>2022-07-21T06:27:08Z</time>
      </trkpt>
      <trkpt lat="44.17717" lon="5.2416">
        <ele>1346.3</ele>
        <time>2022-07-21T06:27:09Z</time>
      </trkpt>
      <trkpt lat="44.17718" lon="5.24161">
        <ele>1346.3</ele>
        <time>2022-07-21T06:27:10Z</time>
      </trkpt>
      <trkpt lat="44.17721" lon="5.24164">
        <ele>1346.5</ele>
        <time>2022-07-21T06:27:11Z</time>
      </trkpt>
      <trkpt lat="44.17722" lon="5.24165">
        <ele>1346.5</ele>
        <time>2022-07-21T06:27:12Z</time>
      </trkpt>
      <trkpt lat="44.17725" lon="5.24167">
        <ele>1346.6</ele>
        <time>2022-07-21T06:27:13Z</time>
      </trkpt>
      <trkpt lat="44.17726" lon="5.24168">
        <ele>1346.7</ele>
        <time>2022-07-21T06:27:14Z</time>
      </trkpt>
      <trkpt lat="44.17729" lon="5.24171">
        <ele>1346.8</ele>
        <time>2022-07-21T06:27:15Z</time>
      </trkpt>
      <trkpt lat="44.1773" lon="5.24172">
        <ele>1346.9</ele>
        <time>2022-07-21T06:27:16Z</time>
      </trkpt>
      <trkpt lat="44.17733" lon="5.24175">
        <ele>1347</ele>
        <time>2022-07-21T06:27:17Z</time>
      </trkpt>
      <trkpt lat="44.17734" lon="5.24176">
        <ele>1347.1</ele>
        <time>2022-07-21T06:27:18Z</time>
      </trkpt>
      <trkpt lat="44.17737" lon="5.24179">
        <ele>1347.2</ele>
        <time>2022-07-21T06:27:19Z</time>
      </trkpt>
      <trkpt lat="44.17738" lon="5.2418">
        <ele>1347.3</ele>
        <time>2022-07-21T06:27:20Z</time>
      </trkpt>
      <trkpt lat="44.17741" lon="5.24184">
        <ele>1347.5</ele>
        <time>2022-07-21T06:27:21Z</time>
      </trkpt>
      <trkpt lat="44.17742" lon="5.24185">
        <ele>1347.5</ele>
        <time>2022-07-21T06:27:22Z</time>
      </trkpt>
      <trkpt lat="44.17745" lon="5.24189">
        <ele>1347.7</ele>
        <time>2022-07-21T06:27:23Z</time>
      </trkpt>
      <trkpt lat="44.17746" lon="5.2419">
        <ele>1347.8</ele>
        <time>2022-07-21T06:27:24Z</time>
      </trkpt>
      <trkpt lat="44.17749" lon="5.24193">
        <ele>1348</ele>
        <time>2022-07-21T06:27:25Z</time>
      </trkpt>
      <trkpt lat="44.17749" lon="5.24195">
        <ele>1348.1</ele>
        <time>2022-07-21T06:27:26Z</time>
      </trkpt>
      <trkpt lat="44.17752" lon="5.24198">
        <ele>1348.3</ele>
        <time>2022-07-21T06:27:27Z</time>
      </trkpt>
      <trkpt lat="44.17753" lon="5.242">
        <ele>1348.3</ele>
        <time>2022-07-21T06:27:28Z</time>
      </trkpt>
      <trkpt lat="44.17755" lon="5.24203">
        <ele>1348.5</ele>
        <time>2022-07-21T06:27:29Z</time>
      </trkpt>
      <trkpt lat="44.17756" lon="5.24204">
        <ele>1348.6</ele>
        <time>2022-07-21T06:27:30Z</time>
      </trkpt>
      <trkpt lat="44.17758" lon="5.24208">
        <ele>1348.8</ele>
        <time>2022-07-21T06:27:31Z</time>
      </trkpt>
      <trkpt lat="44.17759" lon="5.2421">
        <ele>1348.9</ele>
        <time>2022-07-21T06:27:32Z</time>
      </trkpt>
      <trkpt lat="44.17761" lon="5.24214">
        <ele>1349.1</ele>
        <time>2022-07-21T06:27:33Z</time>
      </trkpt>
      <trkpt lat="44.17762" lon="5.24215">
        <ele>1349.2</ele>
        <time>2022-07-21T06:27:34Z</time>
      </trkpt>
      <trkpt lat="44.17764" lon="5.24219">
        <ele>1349.4</ele>
        <time>2022-07-21T06:27:35Z</time>
      </trkpt>
      <trkpt lat="44.17765" lon="5.2422">
        <ele>1349.5</ele>
        <time>2022-07-21T06:27:36Z</time>
      </trkpt>
      <trkpt lat="44.17767" lon="5.24224">
        <ele>1349.8</ele>
        <time>2022-07-21T06:27:37Z</time>
      </trkpt>
      <trkpt lat="44.17768" lon="5.24225">
        <ele>1349.8</ele>
        <time>2022-07-21T06:27:38Z</time>
      </trkpt>
      <trkpt lat="44.17769" lon="5.24229">
        <ele>1350.1</ele>
        <time>2022-07-21T06:27:39Z</time>
      </trkpt>
      <trkpt lat="44.1777" lon="5.2423">
        <ele>1350.1</ele>
        <time>2022-07-21T06:27:40Z</time>
      </trkpt>
      <trkpt lat="44.17772" lon="5.24233">
        <ele>1350.3</ele>
        <time>2022-07-21T06:27:41Z</time>
      </trkpt>
      <trkpt lat="44.17772" lon="5.24235">
        <ele>1350.4</ele>
        <time>2022-07-21T06:27:42Z</time>
      </trkpt>
      <trkpt lat="44.17774" lon="5.24239">
        <ele>1350.7</ele>
        <time>2022-07-21T06:27:43Z</time>
      </trkpt>
      <trkpt lat="44.17775" lon="5.2424">
        <ele>1350.8</ele>
        <time>2022-07-21T06:27:44Z</time>
      </trkpt>
      <trkpt lat="44.17776" lon="5.24244">
        <ele>1351.1</ele>
        <time>2022-07-21T06:27:45Z</time>
      </trkpt>
      <trkpt lat="44.17777" lon="5.24246">
        <ele>1351.1</ele>
        <time>2022-07-21T06:27:46Z</time>
      </trkpt>
      <trkpt lat="44.17779" lon="5.2425">
        <ele>1351.4</ele>
        <time>2022-07-21T06:27:47Z</time>
      </trkpt>
      <trkpt lat="44.17779" lon="5.24251">
        <ele>1351.5</ele>
        <time>2022-07-21T06:27:48Z</time>
      </trkpt>
      <trkpt lat="44.17781" lon="5.24254">
        <ele>1351.7</ele>
        <time>2022-07-21T06:27:49Z</time>
      </trkpt>
      <trkpt lat="44.17782" lon="5.24256">
        <ele>1351.8</ele>
        <time>2022-07-21T06:27:50Z</time>
      </trkpt>
      <trkpt lat="44.17784" lon="5.2426">
        <ele>1352.1</ele>
        <time>2022-07-21T06:27:51Z</time>
      </trkpt>
      <trkpt lat="44.17784" lon="5.24261">
        <ele>1352.2</ele>
        <time>2022-07-21T06:27:52Z</time>
      </trkpt>
      <trkpt lat="44.17786" lon="5.24265">
        <ele>1352.5</ele>
        <time>2022-07-21T06:27:53Z</time>
      </trkpt>
      <trkpt lat="44.17787" lon="5.24267">
        <ele>1352.6</ele>
        <time>2022-07-21T06:27:54Z</time>
      </trkpt>
      <trkpt lat="44.17789" lon="5.24271">
        <ele>1352.9</ele>
        <time>2022-07-21T06:27:55Z</time>
      </trkpt>
      <trkpt lat="44.17789" lon="5.24272">
        <ele>1353</ele>
        <time>2022-07-21T06:27:56Z</time>
      </trkpt>
      <trkpt lat="44.17791" lon="5.24276">
        <ele>1353.3</ele>
        <time>2022-07-21T06:27:57Z</time>
      </trkpt>
      <trkpt lat="44.17791" lon="5.24277">
        <ele>1353.4</ele>
        <time>2022-07-21T06:27:58Z</time>
      </trkpt>
      <trkpt lat="44.17793" lon="5.24281">
        <ele>1353.6</ele>
        <time>2022-07-21T06:27:59Z</time>
      </trkpt>
      <trkpt lat="44.17794" lon="5.24282">
        <ele>1353.7</ele>
        <time>2022-07-21T06:28:00Z</time>
      </trkpt>
      <trkpt lat="44.17795" lon="5.24286">
        <ele>1354</ele>
        <time>2022-07-21T06:28:01Z</time>
      </trkpt>
      <trkpt lat="44.17796" lon="5.24288">
        <ele>1354.1</ele>
        <time>2022-07-21T06:28:02Z</time>
      </trkpt>
      <trkpt lat="44.17797" lon="5.24291">
        <ele>1354.3</ele>
        <time>2022-07-21T06:28:03Z</time>
      </trkpt>
      <trkpt lat="44.17798" lon="5.24292">
        <ele>1354.4</ele>
        <time>2022-07-21T06:28:04Z</time>
      </trkpt>
      <trkpt lat="44.178" lon="5.24296">
        <ele>1354.6</ele>
        <time>2022-07-21T06:28:05Z</time>
      </trkpt>
      <trkpt lat="44.178" lon="5.24298">
        <ele>1354.7</ele>
        <time>2022-07-21T06:28:06Z</time>
      </trkpt>
      <trkpt lat="44.17801" lon="5.24301">
        <ele>1354.9</ele>
        <time>2022-07-21T06:28:07Z</time>
      </trkpt>
      <trkpt lat="44.17802" lon="5.24303">
        <ele>1355</ele>
        <time>2022-07-21T06:28:08Z</time>
      </trkpt>
      <trkpt lat="44.17803" lon="5.24306">
        <ele>1355.1</ele>
        <time>2022-07-21T06:28:09Z</time>
      </trkpt>
      <trkpt lat="44.17804" lon="5.24308">
        <ele>1355.2</ele>
        <time>2022-07-21T06:28:10Z</time>
      </trkpt>
      <trkpt lat="44.17805" lon="5.24312">
        <ele>1355.4</ele>
        <time>2022-07-21T06:28:11Z</time>
      </trkpt>
      <trkpt lat="44.17806" lon="5.24313">
        <ele>1355.5</ele>
        <time>2022-07-21T06:28:12Z</time>
      </trkpt>
      <trkpt lat="44.17807" lon="5.24317">
        <ele>1355.7</ele>
        <time>2022-07-21T06:28:13Z</time>
      </trkpt>
      <trkpt lat="44.17808" lon="5.24318">
        <ele>1355.7</ele>
        <time>2022-07-21T06:28:14Z</time>
      </trkpt>
      <trkpt lat="44.17809" lon="5.24322">
        <ele>1355.9</ele>
        <time>2022-07-21T06:28:15Z</time>
      </trkpt>
      <trkpt lat="44.17809" lon="5.24324">
        <ele>1356</ele>
        <time>2022-07-21T06:28:16Z</time>
      </trkpt>
      <trkpt lat="44.1781" lon="5.24326">
        <ele>1356.1</ele>
        <time>2022-07-21T06:28:17Z</time>
      </trkpt>
      <trkpt lat="44.17811" lon="5.24328">
        <ele>1356.2</ele>
        <time>2022-07-21T06:28:18Z</time>
      </trkpt>
      <trkpt lat="44.17812" lon="5.24331">
        <ele>1356.4</ele>
        <time>2022-07-21T06:28:19Z</time>
      </trkpt>
      <trkpt lat="44.17813" lon="5.24333">
        <ele>1356.4</ele>
        <time>2022-07-21T06:28:20Z</time>
      </trkpt>
      <trkpt lat="44.17814" lon="5.24337">
        <ele>1356.6</ele>
        <time>2022-07-21T06:28:21Z</time>
      </trkpt>
      <trkpt lat="44.17815" lon="5.24338">
        <ele>1356.7</ele>
        <time>2022-07-21T06:28:22Z</time>
      </trkpt>
      <trkpt lat="44.17816" lon="5.24343">
        <ele>1356.9</ele>
        <time>2022-07-21T06:28:23Z</time>
      </trkpt>
      <trkpt lat="44.17817" lon="5.24344">
        <ele>1357</ele>
        <time>2022-07-21T06:28:24Z</time>
      </trkpt>
      <trkpt lat="44.17818" lon="5.24348">
        <ele>1357.2</ele>
        <time>2022-07-21T06:28:25Z</time>
      </trkpt>
      <trkpt lat="44.17819" lon="5.24349">
        <ele>1357.2</ele>
        <time>2022-07-21T06:28:26Z</time>
      </trkpt>
      <trkpt lat="44.17819" lon="5.24352">
        <ele>1357.3</ele>
        <time>2022-07-21T06:28:27Z</time>
      </trkpt>
      <trkpt lat="44.1782" lon="5.24354">
        <ele>1357.4</ele>
        <time>2022-07-21T06:28:28Z</time>
      </trkpt>
      <trkpt lat="44.17821" lon="5.24358">
        <ele>1357.6</ele>
        <time>2022-07-21T06:28:29Z</time>
      </trkpt>
      <trkpt lat="44.17822" lon="5.24359">
        <ele>1357.6</ele>
        <time>2022-07-21T06:28:30Z</time>
      </trkpt>
      <trkpt lat="44.17823" lon="5.24363">
        <ele>1357.8</ele>
        <time>2022-07-21T06:28:31Z</time>
      </trkpt>
      <trkpt lat="44.17824" lon="5.24365">
        <ele>1357.8</ele>
        <time>2022-07-21T06:28:32Z</time>
      </trkpt>
      <trkpt lat="44.17825" lon="5.24368">
        <ele>1358</ele>
        <time>2022-07-21T06:28:33Z</time>
      </trkpt>
      <trkpt lat="44.17825" lon="5.24369">
        <ele>1358</ele>
        <time>2022-07-21T06:28:34Z</time>
      </trkpt>
      <trkpt lat="44.17827" lon="5.24372">
        <ele>1358.2</ele>
        <time>2022-07-21T06:28:35Z</time>
      </trkpt>
      <trkpt lat="44.17827" lon="5.24374">
        <ele>1358.2</ele>
        <time>2022-07-21T06:28:36Z</time>
      </trkpt>
      <trkpt lat="44.17828" lon="5.24378">
        <ele>1358.4</ele>
        <time>2022-07-21T06:28:37Z</time>
      </trkpt>
      <trkpt lat="44.17829" lon="5.24379">
        <ele>1358.5</ele>
        <time>2022-07-21T06:28:38Z</time>
      </trkpt>
      <trkpt lat="44.1783" lon="5.24384">
        <ele>1358.6</ele>
        <time>2022-07-21T06:28:39Z</time>
      </trkpt>
      <trkpt lat="44.1783" lon="5.24385">
        <ele>1358.7</ele>
        <time>2022-07-21T06:28:40Z</time>
      </trkpt>
      <trkpt lat="44.17831" lon="5.24389">
        <ele>1358.8</ele>
        <time>2022-07-21T06:28:41Z</time>
      </trkpt>
      <trkpt lat="44.17831" lon="5.24391">
        <ele>1358.9</ele>
        <time>2022-07-21T06:28:42Z</time>
      </trkpt>
      <trkpt lat="44.17832" lon="5.24395">
        <ele>1359</ele>
        <time>2022-07-21T06:28:43Z</time>
      </trkpt>
      <trkpt lat="44.17833" lon="5.24396">
        <ele>1359.1</ele>
        <time>2022-07-21T06:28:44Z</time>
      </trkpt>
      <trkpt lat="44.17834" lon="5.244">
        <ele>1359.3</ele>
        <time>2022-07-21T06:28:45Z</time>
      </trkpt>
      <trkpt lat="44.17834" lon="5.24402">
        <ele>1359.3</ele>
        <time>2022-07-21T06:28:46Z</time>
      </trkpt>
      <trkpt lat="44.17835" lon="5.24405">
        <ele>1359.5</ele>
        <time>2022-07-21T06:28:47Z</time>
      </trkpt>
      <trkpt lat="44.17836" lon="5.24407">
        <ele>1359.5</ele>
        <time>2022-07-21T06:28:48Z</time>
      </trkpt>
      <trkpt lat="44.17837" lon="5.2441">
        <ele>1359.7</ele>
        <time>2022-07-21T06:28:49Z</time>
      </trkpt>
      <trkpt lat="44.17837" lon="5.24412">
        <ele>1359.7</ele>
        <time>2022-07-21T06:28:50Z</time>
      </trkpt>
      <trkpt lat="44.17837" lon="5.24414">
        <ele>1359.8</ele>
        <time>2022-07-21T06:28:51Z</time>
      </trkpt>
      <trkpt lat="44.17838" lon="5.24416">
        <ele>1359.9</ele>
        <time>2022-07-21T06:28:52Z</time>
      </trkpt>
      <trkpt lat="44.17839" lon="5.2442">
        <ele>1360.1</ele>
        <time>2022-07-21T06:28:53Z</time>
      </trkpt>
      <trkpt lat="44.17839" lon="5.24422">
        <ele>1360.1</ele>
        <time>2022-07-21T06:28:54Z</time>
      </trkpt>
      <trkpt lat="44.1784" lon="5.24426">
        <ele>1360.3</ele>
        <time>2022-07-21T06:28:55Z</time>
      </trkpt>
      <trkpt lat="44.1784" lon="5.24427">
        <ele>1360.3</ele>
        <time>2022-07-21T06:28:56Z</time>
      </trkpt>
      <trkpt lat="44.1784" lon="5.24429">
        <ele>1360.4</ele>
        <time>2022-07-21T06:28:57Z</time>
      </trkpt>
      <trkpt lat="44.1784" lon="5.24431">
        <ele>1360.5</ele>
        <time>2022-07-21T06:28:58Z</time>
      </trkpt>
      <trkpt lat="44.1784" lon="5.24434">
        <ele>1360.6</ele>
        <time>2022-07-21T06:28:59Z</time>
      </trkpt>
      <trkpt lat="44.1784" lon="5.24435">
        <ele>1360.6</ele>
        <time>2022-07-21T06:29:00Z</time>
      </trkpt>
      <trkpt lat="44.1784" lon="5.24436">
        <ele>1360.7</ele>
        <time>2022-07-21T06:29:01Z</time>
      </trkpt>
      <trkpt lat="44.17841" lon="5.2444">
        <ele>1360.9</ele>
        <time>2022-07-21T06:29:02Z</time>
      </trkpt>
      <trkpt lat="44.17841" lon="5.24442">
        <ele>1360.9</ele>
        <time>2022-07-21T06:29:03Z</time>
      </trkpt>
      <trkpt lat="44.17842" lon="5.24447">
        <ele>1361.1</ele>
        <time>2022-07-21T06:29:04Z</time>
      </trkpt>
      <trkpt lat="44.17842" lon="5.24448">
        <ele>1361.2</ele>
        <time>2022-07-21T06:29:05Z</time>
      </trkpt>
      <trkpt lat="44.17843" lon="5.24453">
        <ele>1361.4</ele>
        <time>2022-07-21T06:29:06Z</time>
      </trkpt>
      <trkpt lat="44.17844" lon="5.24455">
        <ele>1361.5</ele>
        <time>2022-07-21T06:29:07Z</time>
      </trkpt>
      <trkpt lat="44.17844" lon="5.24459">
        <ele>1361.6</ele>
        <time>2022-07-21T06:29:08Z</time>
      </trkpt>
      <trkpt lat="44.17844" lon="5.2446">
        <ele>1361.7</ele>
        <time>2022-07-21T06:29:09Z</time>
      </trkpt>
      <trkpt lat="44.17844" lon="5.24464">
        <ele>1361.9</ele>
        <time>2022-07-21T06:29:10Z</time>
      </trkpt>
      <trkpt lat="44.17844" lon="5.24465">
        <ele>1361.9</ele>
        <time>2022-07-21T06:29:11Z</time>
      </trkpt>
      <trkpt lat="44.17844" lon="5.2447">
        <ele>1362.1</ele>
        <time>2022-07-21T06:29:12Z</time>
      </trkpt>
      <trkpt lat="44.17844" lon="5.24471">
        <ele>1362.2</ele>
        <time>2022-07-21T06:29:13Z</time>
      </trkpt>
      <trkpt lat="44.17843" lon="5.24475">
        <ele>1362.4</ele>
        <time>2022-07-21T06:29:14Z</time>
      </trkpt>
      <trkpt lat="44.17843" lon="5.24477">
        <ele>1362.4</ele>
        <time>2022-07-21T06:29:15Z</time>
      </trkpt>
      <trkpt lat="44.17842" lon="5.24481">
        <ele>1362.6</ele>
        <time>2022-07-21T06:29:16Z</time>
      </trkpt>
      <trkpt lat="44.17842" lon="5.24482">
        <ele>1362.7</ele>
        <time>2022-07-21T06:29:17Z</time>
      </trkpt>
      <trkpt lat="44.17841" lon="5.24486">
        <ele>1362.9</ele>
        <time>2022-07-21T06:29:18Z</time>
      </trkpt>
      <trkpt lat="44.17841" lon="5.24488">
        <ele>1363</ele>
        <time>2022-07-21T06:29:19Z</time>
      </trkpt>
      <trkpt lat="44.17841" lon="5.24492">
        <ele>1363.2</ele>
        <time>2022-07-21T06:29:20Z</time>
      </trkpt>
      <trkpt lat="44.17841" lon="5.24493">
        <ele>1363.3</ele>
        <time>2022-07-21T06:29:21Z</time>
      </trkpt>
      <trkpt lat="44.1784" lon="5.24499">
        <ele>1363.5</ele>
        <time>2022-07-21T06:29:22Z</time>
      </trkpt>
      <trkpt lat="44.1784" lon="5.245">
        <ele>1363.6</ele>
        <time>2022-07-21T06:29:23Z</time>
      </trkpt>
      <trkpt lat="44.1784" lon="5.24504">
        <ele>1363.8</ele>
        <time>2022-07-21T06:29:24Z</time>
      </trkpt>
      <trkpt lat="44.17841" lon="5.24509">
        <ele>1364.1</ele>
        <time>2022-07-21T06:29:25Z</time>
      </trkpt>
      <trkpt lat="44.17841" lon="5.2451">
        <ele>1364.1</ele>
        <time>2022-07-21T06:29:26Z</time>
      </trkpt>
      <trkpt lat="44.17841" lon="5.24514">
        <ele>1364.4</ele>
        <time>2022-07-21T06:29:27Z</time>
      </trkpt>
      <trkpt lat="44.17841" lon="5.24516">
        <ele>1364.5</ele>
        <time>2022-07-21T06:29:28Z</time>
      </trkpt>
      <trkpt lat="44.17843" lon="5.24521">
        <ele>1364.8</ele>
        <time>2022-07-21T06:29:29Z</time>
      </trkpt>
      <trkpt lat="44.17844" lon="5.24522">
        <ele>1364.9</ele>
        <time>2022-07-21T06:29:30Z</time>
      </trkpt>
      <trkpt lat="44.17845" lon="5.24526">
        <ele>1365.1</ele>
        <time>2022-07-21T06:29:31Z</time>
      </trkpt>
      <trkpt lat="44.17847" lon="5.2453">
        <ele>1365.4</ele>
        <time>2022-07-21T06:29:32Z</time>
      </trkpt>
      <trkpt lat="44.17848" lon="5.24532">
        <ele>1365.5</ele>
        <time>2022-07-21T06:29:33Z</time>
      </trkpt>
      <trkpt lat="44.17849" lon="5.24537">
        <ele>1365.8</ele>
        <time>2022-07-21T06:29:34Z</time>
      </trkpt>
      <trkpt lat="44.1785" lon="5.24539">
        <ele>1365.9</ele>
        <time>2022-07-21T06:29:35Z</time>
      </trkpt>
      <trkpt lat="44.17851" lon="5.24542">
        <ele>1366.1</ele>
        <time>2022-07-21T06:29:36Z</time>
      </trkpt>
      <trkpt lat="44.17853" lon="5.24546">
        <ele>1366.3</ele>
        <time>2022-07-21T06:29:37Z</time>
      </trkpt>
      <trkpt lat="44.17854" lon="5.2455">
        <ele>1366.5</ele>
        <time>2022-07-21T06:29:38Z</time>
      </trkpt>
      <trkpt lat="44.17855" lon="5.24551">
        <ele>1366.6</ele>
        <time>2022-07-21T06:29:39Z</time>
      </trkpt>
      <trkpt lat="44.17857" lon="5.24554">
        <ele>1366.8</ele>
        <time>2022-07-21T06:29:40Z</time>
      </trkpt>
      <trkpt lat="44.17858" lon="5.24555">
        <ele>1366.9</ele>
        <time>2022-07-21T06:29:41Z</time>
      </trkpt>
      <trkpt lat="44.1786" lon="5.24558">
        <ele>1367</ele>
        <time>2022-07-21T06:29:42Z</time>
      </trkpt>
      <trkpt lat="44.1786" lon="5.24559">
        <ele>1367.1</ele>
        <time>2022-07-21T06:29:43Z</time>
      </trkpt>
      <trkpt lat="44.17863" lon="5.24563">
        <ele>1367.3</ele>
        <time>2022-07-21T06:29:44Z</time>
      </trkpt>
      <trkpt lat="44.17863" lon="5.24564">
        <ele>1367.4</ele>
        <time>2022-07-21T06:29:45Z</time>
      </trkpt>
      <trkpt lat="44.17866" lon="5.24568">
        <ele>1367.6</ele>
        <time>2022-07-21T06:29:46Z</time>
      </trkpt>
      <trkpt lat="44.17867" lon="5.24569">
        <ele>1367.7</ele>
        <time>2022-07-21T06:29:47Z</time>
      </trkpt>
      <trkpt lat="44.17869" lon="5.24572">
        <ele>1367.9</ele>
        <time>2022-07-21T06:29:48Z</time>
      </trkpt>
      <trkpt lat="44.1787" lon="5.24573">
        <ele>1367.9</ele>
        <time>2022-07-21T06:29:49Z</time>
      </trkpt>
      <trkpt lat="44.17872" lon="5.24575">
        <ele>1368.1</ele>
        <time>2022-07-21T06:29:50Z</time>
      </trkpt>
      <trkpt lat="44.17873" lon="5.24576">
        <ele>1368.2</ele>
        <time>2022-07-21T06:29:51Z</time>
      </trkpt>
      <trkpt lat="44.17874" lon="5.24577">
        <ele>1368.3</ele>
        <time>2022-07-21T06:29:52Z</time>
      </trkpt>
      <trkpt lat="44.17876" lon="5.24578">
        <ele>1368.4</ele>
        <time>2022-07-21T06:29:53Z</time>
      </trkpt>
      <trkpt lat="44.17877" lon="5.2458">
        <ele>1368.5</ele>
        <time>2022-07-21T06:29:54Z</time>
      </trkpt>
      <trkpt lat="44.17879" lon="5.24581">
        <ele>1368.6</ele>
        <time>2022-07-21T06:29:55Z</time>
      </trkpt>
      <trkpt lat="44.1788" lon="5.24582">
        <ele>1368.7</ele>
        <time>2022-07-21T06:29:56Z</time>
      </trkpt>
      <trkpt lat="44.17881" lon="5.24584">
        <ele>1368.8</ele>
        <time>2022-07-21T06:29:57Z</time>
      </trkpt>
      <trkpt lat="44.17883" lon="5.24585">
        <ele>1369</ele>
        <time>2022-07-21T06:29:58Z</time>
      </trkpt>
      <trkpt lat="44.17884" lon="5.24586">
        <ele>1369.1</ele>
        <time>2022-07-21T06:29:59Z</time>
      </trkpt>
      <trkpt lat="44.17885" lon="5.24588">
        <ele>1369.2</ele>
        <time>2022-07-21T06:30:00Z</time>
      </trkpt>
      <trkpt lat="44.17886" lon="5.24589">
        <ele>1369.3</ele>
        <time>2022-07-21T06:30:01Z</time>
      </trkpt>
      <trkpt lat="44.17888" lon="5.24591">
        <ele>1369.4</ele>
        <time>2022-07-21T06:30:02Z</time>
      </trkpt>
      <trkpt lat="44.17889" lon="5.24592">
        <ele>1369.5</ele>
        <time>2022-07-21T06:30:03Z</time>
      </trkpt>
      <trkpt lat="44.1789" lon="5.24593">
        <ele>1369.7</ele>
        <time>2022-07-21T06:30:04Z</time>
      </trkpt>
      <trkpt lat="44.17891" lon="5.24594">
        <ele>1369.8</ele>
        <time>2022-07-21T06:30:05Z</time>
      </trkpt>
      <trkpt lat="44.17893" lon="5.24596">
        <ele>1369.9</ele>
        <time>2022-07-21T06:30:06Z</time>
      </trkpt>
      <trkpt lat="44.17894" lon="5.24597">
        <ele>1370.1</ele>
        <time>2022-07-21T06:30:07Z</time>
      </trkpt>
      <trkpt lat="44.17895" lon="5.24598">
        <ele>1370.2</ele>
        <time>2022-07-21T06:30:08Z</time>
      </trkpt>
      <trkpt lat="44.17896" lon="5.24599">
        <ele>1370.3</ele>
        <time>2022-07-21T06:30:09Z</time>
      </trkpt>
      <trkpt lat="44.17897" lon="5.24601">
        <ele>1370.5</ele>
        <time>2022-07-21T06:30:10Z</time>
      </trkpt>
      <trkpt lat="44.17898" lon="5.24602">
        <ele>1370.6</ele>
        <time>2022-07-21T06:30:11Z</time>
      </trkpt>
      <trkpt lat="44.17899" lon="5.24604">
        <ele>1370.8</ele>
        <time>2022-07-21T06:30:12Z</time>
      </trkpt>
      <trkpt lat="44.17901" lon="5.24605">
        <ele>1370.9</ele>
        <time>2022-07-21T06:30:13Z</time>
      </trkpt>
      <trkpt lat="44.17902" lon="5.24606">
        <ele>1371.1</ele>
        <time>2022-07-21T06:30:14Z</time>
      </trkpt>
      <trkpt lat="44.17903" lon="5.24607">
        <ele>1371.3</ele>
        <time>2022-07-21T06:30:15Z</time>
      </trkpt>
      <trkpt lat="44.17904" lon="5.24609">
        <ele>1371.4</ele>
        <time>2022-07-21T06:30:16Z</time>
      </trkpt>
      <trkpt lat="44.17906" lon="5.2461">
        <ele>1371.6</ele>
        <time>2022-07-21T06:30:17Z</time>
      </trkpt>
      <trkpt lat="44.17907" lon="5.24611">
        <ele>1371.7</ele>
        <time>2022-07-21T06:30:18Z</time>
      </trkpt>
      <trkpt lat="44.17908" lon="5.24613">
        <ele>1371.9</ele>
        <time>2022-07-21T06:30:19Z</time>
      </trkpt>
      <trkpt lat="44.17909" lon="5.24614">
        <ele>1372</ele>
        <time>2022-07-21T06:30:20Z</time>
      </trkpt>
      <trkpt lat="44.1791" lon="5.24615">
        <ele>1372.2</ele>
        <time>2022-07-21T06:30:21Z</time>
      </trkpt>
      <trkpt lat="44.17911" lon="5.24616">
        <ele>1372.4</ele>
        <time>2022-07-21T06:30:22Z</time>
      </trkpt>
      <trkpt lat="44.17912" lon="5.24617">
        <ele>1372.5</ele>
        <time>2022-07-21T06:30:23Z</time>
      </trkpt>
      <trkpt lat="44.17913" lon="5.24619">
        <ele>1372.7</ele>
        <time>2022-07-21T06:30:24Z</time>
      </trkpt>
      <trkpt lat="44.17914" lon="5.2462">
        <ele>1372.8</ele>
        <time>2022-07-21T06:30:25Z</time>
      </trkpt>
      <trkpt lat="44.17915" lon="5.24621">
        <ele>1373</ele>
        <time>2022-07-21T06:30:26Z</time>
      </trkpt>
      <trkpt lat="44.17917" lon="5.24623">
        <ele>1373.2</ele>
        <time>2022-07-21T06:30:27Z</time>
      </trkpt>
      <trkpt lat="44.17918" lon="5.24624">
        <ele>1373.4</ele>
        <time>2022-07-21T06:30:28Z</time>
      </trkpt>
      <trkpt lat="44.17919" lon="5.24625">
        <ele>1373.5</ele>
        <time>2022-07-21T06:30:29Z</time>
      </trkpt>
      <trkpt lat="44.1792" lon="5.24626">
        <ele>1373.7</ele>
        <time>2022-07-21T06:30:30Z</time>
      </trkpt>
      <trkpt lat="44.17921" lon="5.24628">
        <ele>1373.8</ele>
        <time>2022-07-21T06:30:31Z</time>
      </trkpt>
      <trkpt lat="44.17922" lon="5.2463">
        <ele>1374.1</ele>
        <time>2022-07-21T06:30:32Z</time>
      </trkpt>
      <trkpt lat="44.17923" lon="5.24631">
        <ele>1374.2</ele>
        <time>2022-07-21T06:30:33Z</time>
      </trkpt>
      <trkpt lat="44.17924" lon="5.24632">
        <ele>1374.3</ele>
        <time>2022-07-21T06:30:34Z</time>
      </trkpt>
      <trkpt lat="44.17925" lon="5.24633">
        <ele>1374.5</ele>
        <time>2022-07-21T06:30:35Z</time>
      </trkpt>
      <trkpt lat="44.17926" lon="5.24634">
        <ele>1374.7</ele>
        <time>2022-07-21T06:30:36Z</time>
      </trkpt>
      <trkpt lat="44.17927" lon="5.24635">
        <ele>1374.8</ele>
        <time>2022-07-21T06:30:37Z</time>
      </trkpt>
      <trkpt lat="44.17928" lon="5.24636">
        <ele>1374.9</ele>
        <time>2022-07-21T06:30:38Z</time>
      </trkpt>
      <trkpt lat="44.17929" lon="5.24637">
        <ele>1375.1</ele>
        <time>2022-07-21T06:30:39Z</time>
      </trkpt>
      <trkpt lat="44.1793" lon="5.24639">
        <ele>1375.4</ele>
        <time>2022-07-21T06:30:40Z</time>
      </trkpt>
      <trkpt lat="44.17931" lon="5.2464">
        <ele>1375.5</ele>
        <time>2022-07-21T06:30:41Z</time>
      </trkpt>
      <trkpt lat="44.17932" lon="5.24641">
        <ele>1375.6</ele>
        <time>2022-07-21T06:30:42Z</time>
      </trkpt>
      <trkpt lat="44.17933" lon="5.24643">
        <ele>1375.9</ele>
        <time>2022-07-21T06:30:43Z</time>
      </trkpt>
      <trkpt lat="44.17934" lon="5.24643">
        <ele>1376</ele>
        <time>2022-07-21T06:30:44Z</time>
      </trkpt>
      <trkpt lat="44.17935" lon="5.24644">
        <ele>1376.1</ele>
        <time>2022-07-21T06:30:45Z</time>
      </trkpt>
      <trkpt lat="44.17936" lon="5.24646">
        <ele>1376.4</ele>
        <time>2022-07-21T06:30:46Z</time>
      </trkpt>
      <trkpt lat="44.17937" lon="5.24647">
        <ele>1376.5</ele>
        <time>2022-07-21T06:30:47Z</time>
      </trkpt>
      <trkpt lat="44.17937" lon="5.24648">
        <ele>1376.6</ele>
        <time>2022-07-21T06:30:48Z</time>
      </trkpt>
      <trkpt lat="44.17939" lon="5.2465">
        <ele>1376.9</ele>
        <time>2022-07-21T06:30:49Z</time>
      </trkpt>
      <trkpt lat="44.1794" lon="5.24651">
        <ele>1377</ele>
        <time>2022-07-21T06:30:50Z</time>
      </trkpt>
      <trkpt lat="44.1794" lon="5.24652">
        <ele>1377.1</ele>
        <time>2022-07-21T06:30:51Z</time>
      </trkpt>
      <trkpt lat="44.17942" lon="5.24654">
        <ele>1377.4</ele>
        <time>2022-07-21T06:30:52Z</time>
      </trkpt>
      <trkpt lat="44.17943" lon="5.24655">
        <ele>1377.5</ele>
        <time>2022-07-21T06:30:53Z</time>
      </trkpt>
      <trkpt lat="44.17943" lon="5.24656">
        <ele>1377.6</ele>
        <time>2022-07-21T06:30:54Z</time>
      </trkpt>
      <trkpt lat="44.17945" lon="5.24658">
        <ele>1377.9</ele>
        <time>2022-07-21T06:30:55Z</time>
      </trkpt>
      <trkpt lat="44.17945" lon="5.24659">
        <ele>1378.1</ele>
        <time>2022-07-21T06:30:56Z</time>
      </trkpt>
      <trkpt lat="44.17946" lon="5.2466">
        <ele>1378.2</ele>
        <time>2022-07-21T06:30:57Z</time>
      </trkpt>
      <trkpt lat="44.17947" lon="5.24663">
        <ele>1378.4</ele>
        <time>2022-07-21T06:30:58Z</time>
      </trkpt>
      <trkpt lat="44.17948" lon="5.24663">
        <ele>1378.5</ele>
        <time>2022-07-21T06:30:59Z</time>
      </trkpt>
      <trkpt lat="44.17948" lon="5.24664">
        <ele>1378.6</ele>
        <time>2022-07-21T06:31:00Z</time>
      </trkpt>
      <trkpt lat="44.17949" lon="5.24666">
        <ele>1378.8</ele>
        <time>2022-07-21T06:31:01Z</time>
      </trkpt>
      <trkpt lat="44.1795" lon="5.24667">
        <ele>1379</ele>
        <time>2022-07-21T06:31:02Z</time>
      </trkpt>
      <trkpt lat="44.17951" lon="5.24669">
        <ele>1379.2</ele>
        <time>2022-07-21T06:31:03Z</time>
      </trkpt>
      <trkpt lat="44.17952" lon="5.24671">
        <ele>1379.4</ele>
        <time>2022-07-21T06:31:04Z</time>
      </trkpt>
      <trkpt lat="44.17953" lon="5.24672">
        <ele>1379.6</ele>
        <time>2022-07-21T06:31:05Z</time>
      </trkpt>
      <trkpt lat="44.17954" lon="5.24674">
        <ele>1379.7</ele>
        <time>2022-07-21T06:31:06Z</time>
      </trkpt>
      <trkpt lat="44.17955" lon="5.24676">
        <ele>1380</ele>
        <time>2022-07-21T06:31:07Z</time>
      </trkpt>
      <trkpt lat="44.17956" lon="5.24677">
        <ele>1380.1</ele>
        <time>2022-07-21T06:31:08Z</time>
      </trkpt>
      <trkpt lat="44.17957" lon="5.24678">
        <ele>1380.2</ele>
        <time>2022-07-21T06:31:09Z</time>
      </trkpt>
      <trkpt lat="44.17958" lon="5.24679">
        <ele>1380.3</ele>
        <time>2022-07-21T06:31:10Z</time>
      </trkpt>
      <trkpt lat="44.17959" lon="5.24681">
        <ele>1380.5</ele>
        <time>2022-07-21T06:31:11Z</time>
      </trkpt>
      <trkpt lat="44.1796" lon="5.24682">
        <ele>1380.7</ele>
        <time>2022-07-21T06:31:12Z</time>
      </trkpt>
      <trkpt lat="44.17961" lon="5.24684">
        <ele>1380.8</ele>
        <time>2022-07-21T06:31:13Z</time>
      </trkpt>
      <trkpt lat="44.17962" lon="5.24685">
        <ele>1381</ele>
        <time>2022-07-21T06:31:14Z</time>
      </trkpt>
      <trkpt lat="44.17963" lon="5.24686">
        <ele>1381.1</ele>
        <time>2022-07-21T06:31:15Z</time>
      </trkpt>
      <trkpt lat="44.17964" lon="5.24688">
        <ele>1381.3</ele>
        <time>2022-07-21T06:31:16Z</time>
      </trkpt>
      <trkpt lat="44.17965" lon="5.24689">
        <ele>1381.4</ele>
        <time>2022-07-21T06:31:17Z</time>
      </trkpt>
      <trkpt lat="44.17966" lon="5.24691">
        <ele>1381.6</ele>
        <time>2022-07-21T06:31:18Z</time>
      </trkpt>
      <trkpt lat="44.17967" lon="5.24692">
        <ele>1381.7</ele>
        <time>2022-07-21T06:31:19Z</time>
      </trkpt>
      <trkpt lat="44.17968" lon="5.24693">
        <ele>1381.9</ele>
        <time>2022-07-21T06:31:20Z</time>
      </trkpt>
      <trkpt lat="44.17969" lon="5.24695">
        <ele>1382</ele>
        <time>2022-07-21T06:31:21Z</time>
      </trkpt>
      <trkpt lat="44.17969" lon="5.24697">
        <ele>1382.2</ele>
        <time>2022-07-21T06:31:22Z</time>
      </trkpt>
      <trkpt lat="44.1797" lon="5.24699">
        <ele>1382.3</ele>
        <time>2022-07-21T06:31:23Z</time>
      </trkpt>
      <trkpt lat="44.17971" lon="5.247">
        <ele>1382.5</ele>
        <time>2022-07-21T06:31:24Z</time>
      </trkpt>
      <trkpt lat="44.17972" lon="5.24702">
        <ele>1382.6</ele>
        <time>2022-07-21T06:31:25Z</time>
      </trkpt>
      <trkpt lat="44.17973" lon="5.24704">
        <ele>1382.8</ele>
        <time>2022-07-21T06:31:26Z</time>
      </trkpt>
      <trkpt lat="44.17974" lon="5.24705">
        <ele>1382.9</ele>
        <time>2022-07-21T06:31:27Z</time>
      </trkpt>
      <trkpt lat="44.17974" lon="5.24706">
        <ele>1383</ele>
        <time>2022-07-21T06:31:28Z</time>
      </trkpt>
      <trkpt lat="44.17975" lon="5.24708">
        <ele>1383.1</ele>
        <time>2022-07-21T06:31:29Z</time>
      </trkpt>
      <trkpt lat="44.17976" lon="5.24709">
        <ele>1383.3</ele>
        <time>2022-07-21T06:31:30Z</time>
      </trkpt>
      <trkpt lat="44.17977" lon="5.24711">
        <ele>1383.4</ele>
        <time>2022-07-21T06:31:31Z</time>
      </trkpt>
      <trkpt lat="44.17978" lon="5.24712">
        <ele>1383.6</ele>
        <time>2022-07-21T06:31:32Z</time>
      </trkpt>
      <trkpt lat="44.17979" lon="5.24714">
        <ele>1383.7</ele>
        <time>2022-07-21T06:31:33Z</time>
      </trkpt>
      <trkpt lat="44.1798" lon="5.24716">
        <ele>1383.8</ele>
        <time>2022-07-21T06:31:34Z</time>
      </trkpt>
      <trkpt lat="44.1798" lon="5.24717">
        <ele>1383.9</ele>
        <time>2022-07-21T06:31:35Z</time>
      </trkpt>
      <trkpt lat="44.17981" lon="5.24719">
        <ele>1384.1</ele>
        <time>2022-07-21T06:31:36Z</time>
      </trkpt>
      <trkpt lat="44.17982" lon="5.24722">
        <ele>1384.3</ele>
        <time>2022-07-21T06:31:37Z</time>
      </trkpt>
      <trkpt lat="44.17983" lon="5.24723">
        <ele>1384.3</ele>
        <time>2022-07-21T06:31:38Z</time>
      </trkpt>
      <trkpt lat="44.17983" lon="5.24724">
        <ele>1384.4</ele>
        <time>2022-07-21T06:31:39Z</time>
      </trkpt>
      <trkpt lat="44.17984" lon="5.24726">
        <ele>1384.6</ele>
        <time>2022-07-21T06:31:40Z</time>
      </trkpt>
      <trkpt lat="44.17985" lon="5.24728">
        <ele>1384.7</ele>
        <time>2022-07-21T06:31:41Z</time>
      </trkpt>
      <trkpt lat="44.17987" lon="5.24731">
        <ele>1384.9</ele>
        <time>2022-07-21T06:31:42Z</time>
      </trkpt>
      <trkpt lat="44.17987" lon="5.24732">
        <ele>1385</ele>
        <time>2022-07-21T06:31:43Z</time>
      </trkpt>
      <trkpt lat="44.17988" lon="5.24734">
        <ele>1385.1</ele>
        <time>2022-07-21T06:31:44Z</time>
      </trkpt>
      <trkpt lat="44.17989" lon="5.24736">
        <ele>1385.3</ele>
        <time>2022-07-21T06:31:45Z</time>
      </trkpt>
      <trkpt lat="44.1799" lon="5.24737">
        <ele>1385.4</ele>
        <time>2022-07-21T06:31:46Z</time>
      </trkpt>
      <trkpt lat="44.17991" lon="5.24739">
        <ele>1385.5</ele>
        <time>2022-07-21T06:31:47Z</time>
      </trkpt>
      <trkpt lat="44.17992" lon="5.2474">
        <ele>1385.6</ele>
        <time>2022-07-21T06:31:48Z</time>
      </trkpt>
      <trkpt lat="44.17993" lon="5.24742">
        <ele>1385.7</ele>
        <time>2022-07-21T06:31:49Z</time>
      </trkpt>
      <trkpt lat="44.17994" lon="5.24744">
        <ele>1385.8</ele>
        <time>2022-07-21T06:31:50Z</time>
      </trkpt>
      <trkpt lat="44.17995" lon="5.24746">
        <ele>1386</ele>
        <time>2022-07-21T06:31:51Z</time>
      </trkpt>
      <trkpt lat="44.17996" lon="5.24749">
        <ele>1386.2</ele>
        <time>2022-07-21T06:31:52Z</time>
      </trkpt>
      <trkpt lat="44.17997" lon="5.2475">
        <ele>1386.3</ele>
        <time>2022-07-21T06:31:53Z</time>
      </trkpt>
      <trkpt lat="44.17999" lon="5.24753">
        <ele>1386.5</ele>
        <time>2022-07-21T06:31:54Z</time>
      </trkpt>
      <trkpt lat="44.17999" lon="5.24754">
        <ele>1386.5</ele>
        <time>2022-07-21T06:31:55Z</time>
      </trkpt>
      <trkpt lat="44.18001" lon="5.24757">
        <ele>1386.7</ele>
        <time>2022-07-21T06:31:56Z</time>
      </trkpt>
      <trkpt lat="44.18001" lon="5.24758">
        <ele>1386.8</ele>
        <time>2022-07-21T06:31:57Z</time>
      </trkpt>
      <trkpt lat="44.18002" lon="5.2476">
        <ele>1386.9</ele>
        <time>2022-07-21T06:31:58Z</time>
      </trkpt>
      <trkpt lat="44.18003" lon="5.24762">
        <ele>1387</ele>
        <time>2022-07-21T06:31:59Z</time>
      </trkpt>
      <trkpt lat="44.18005" lon="5.24763">
        <ele>1387.1</ele>
        <time>2022-07-21T06:32:00Z</time>
      </trkpt>
      <trkpt lat="44.18006" lon="5.24765">
        <ele>1387.2</ele>
        <time>2022-07-21T06:32:01Z</time>
      </trkpt>
      <trkpt lat="44.18007" lon="5.24769">
        <ele>1387.4</ele>
        <time>2022-07-21T06:32:02Z</time>
      </trkpt>
      <trkpt lat="44.18008" lon="5.2477">
        <ele>1387.5</ele>
        <time>2022-07-21T06:32:03Z</time>
      </trkpt>
      <trkpt lat="44.18009" lon="5.24773">
        <ele>1387.7</ele>
        <time>2022-07-21T06:32:04Z</time>
      </trkpt>
      <trkpt lat="44.18009" lon="5.24774">
        <ele>1387.7</ele>
        <time>2022-07-21T06:32:05Z</time>
      </trkpt>
      <trkpt lat="44.1801" lon="5.24776">
        <ele>1387.8</ele>
        <time>2022-07-21T06:32:06Z</time>
      </trkpt>
      <trkpt lat="44.18011" lon="5.24778">
        <ele>1387.9</ele>
        <time>2022-07-21T06:32:07Z</time>
      </trkpt>
      <trkpt lat="44.18012" lon="5.24779">
        <ele>1388</ele>
        <time>2022-07-21T06:32:08Z</time>
      </trkpt>
      <trkpt lat="44.18013" lon="5.24781">
        <ele>1388.1</ele>
        <time>2022-07-21T06:32:09Z</time>
      </trkpt>
      <trkpt lat="44.18015" lon="5.24785">
        <ele>1388.3</ele>
        <time>2022-07-21T06:32:10Z</time>
      </trkpt>
      <trkpt lat="44.18015" lon="5.24786">
        <ele>1388.4</ele>
        <time>2022-07-21T06:32:11Z</time>
      </trkpt>
      <trkpt lat="44.18016" lon="5.24789">
        <ele>1388.5</ele>
        <time>2022-07-21T06:32:12Z</time>
      </trkpt>
      <trkpt lat="44.18017" lon="5.24791">
        <ele>1388.6</ele>
        <time>2022-07-21T06:32:13Z</time>
      </trkpt>
      <trkpt lat="44.18018" lon="5.24794">
        <ele>1388.7</ele>
        <time>2022-07-21T06:32:14Z</time>
      </trkpt>
      <trkpt lat="44.18019" lon="5.24795">
        <ele>1388.8</ele>
        <time>2022-07-21T06:32:15Z</time>
      </trkpt>
      <trkpt lat="44.18021" lon="5.248">
        <ele>1389</ele>
        <time>2022-07-21T06:32:16Z</time>
      </trkpt>
      <trkpt lat="44.18021" lon="5.24801">
        <ele>1389</ele>
        <time>2022-07-21T06:32:17Z</time>
      </trkpt>
      <trkpt lat="44.18023" lon="5.24806">
        <ele>1389.2</ele>
        <time>2022-07-21T06:32:18Z</time>
      </trkpt>
      <trkpt lat="44.18023" lon="5.24807">
        <ele>1389.3</ele>
        <time>2022-07-21T06:32:19Z</time>
      </trkpt>
      <trkpt lat="44.18024" lon="5.24812">
        <ele>1389.4</ele>
        <time>2022-07-21T06:32:20Z</time>
      </trkpt>
      <trkpt lat="44.18025" lon="5.24813">
        <ele>1389.5</ele>
        <time>2022-07-21T06:32:21Z</time>
      </trkpt>
      <trkpt lat="44.18026" lon="5.24817">
        <ele>1389.6</ele>
        <time>2022-07-21T06:32:22Z</time>
      </trkpt>
      <trkpt lat="44.18026" lon="5.24818">
        <ele>1389.7</ele>
        <time>2022-07-21T06:32:23Z</time>
      </trkpt>
      <trkpt lat="44.18028" lon="5.24822">
        <ele>1389.8</ele>
        <time>2022-07-21T06:32:24Z</time>
      </trkpt>
      <trkpt lat="44.18028" lon="5.24823">
        <ele>1389.8</ele>
        <time>2022-07-21T06:32:25Z</time>
      </trkpt>
      <trkpt lat="44.18029" lon="5.24827">
        <ele>1389.9</ele>
        <time>2022-07-21T06:32:26Z</time>
      </trkpt>
      <trkpt lat="44.1803" lon="5.24829">
        <ele>1390</ele>
        <time>2022-07-21T06:32:27Z</time>
      </trkpt>
      <trkpt lat="44.18031" lon="5.24832">
        <ele>1390.1</ele>
        <time>2022-07-21T06:32:28Z</time>
      </trkpt>
      <trkpt lat="44.18031" lon="5.24834">
        <ele>1390.1</ele>
        <time>2022-07-21T06:32:29Z</time>
      </trkpt>
      <trkpt lat="44.18032" lon="5.24838">
        <ele>1390.3</ele>
        <time>2022-07-21T06:32:30Z</time>
      </trkpt>
      <trkpt lat="44.18033" lon="5.24839">
        <ele>1390.3</ele>
        <time>2022-07-21T06:32:31Z</time>
      </trkpt>
      <trkpt lat="44.18034" lon="5.24843">
        <ele>1390.4</ele>
        <time>2022-07-21T06:32:32Z</time>
      </trkpt>
      <trkpt lat="44.18034" lon="5.24844">
        <ele>1390.5</ele>
        <time>2022-07-21T06:32:33Z</time>
      </trkpt>
      <trkpt lat="44.18035" lon="5.24848">
        <ele>1390.6</ele>
        <time>2022-07-21T06:32:34Z</time>
      </trkpt>
      <trkpt lat="44.18035" lon="5.2485">
        <ele>1390.6</ele>
        <time>2022-07-21T06:32:35Z</time>
      </trkpt>
      <trkpt lat="44.18036" lon="5.24852">
        <ele>1390.7</ele>
        <time>2022-07-21T06:32:36Z</time>
      </trkpt>
      <trkpt lat="44.18036" lon="5.24854">
        <ele>1390.8</ele>
        <time>2022-07-21T06:32:37Z</time>
      </trkpt>
      <trkpt lat="44.18037" lon="5.24856">
        <ele>1390.8</ele>
        <time>2022-07-21T06:32:38Z</time>
      </trkpt>
      <trkpt lat="44.18038" lon="5.24859">
        <ele>1390.9</ele>
        <time>2022-07-21T06:32:39Z</time>
      </trkpt>
      <trkpt lat="44.18038" lon="5.24861">
        <ele>1391</ele>
        <time>2022-07-21T06:32:40Z</time>
      </trkpt>
      <trkpt lat="44.18039" lon="5.24863">
        <ele>1391.1</ele>
        <time>2022-07-21T06:32:41Z</time>
      </trkpt>
      <trkpt lat="44.18039" lon="5.24867">
        <ele>1391.2</ele>
        <time>2022-07-21T06:32:42Z</time>
      </trkpt>
      <trkpt lat="44.1804" lon="5.24868">
        <ele>1391.2</ele>
        <time>2022-07-21T06:32:43Z</time>
      </trkpt>
      <trkpt lat="44.1804" lon="5.24872">
        <ele>1391.4</ele>
        <time>2022-07-21T06:32:44Z</time>
      </trkpt>
      <trkpt lat="44.18041" lon="5.24874">
        <ele>1391.4</ele>
        <time>2022-07-21T06:32:45Z</time>
      </trkpt>
      <trkpt lat="44.18042" lon="5.24878">
        <ele>1391.6</ele>
        <time>2022-07-21T06:32:46Z</time>
      </trkpt>
      <trkpt lat="44.18042" lon="5.24879">
        <ele>1391.6</ele>
        <time>2022-07-21T06:32:47Z</time>
      </trkpt>
      <trkpt lat="44.18043" lon="5.24883">
        <ele>1391.7</ele>
        <time>2022-07-21T06:32:48Z</time>
      </trkpt>
      <trkpt lat="44.18044" lon="5.24885">
        <ele>1391.8</ele>
        <time>2022-07-21T06:32:49Z</time>
      </trkpt>
      <trkpt lat="44.18045" lon="5.24889">
        <ele>1391.9</ele>
        <time>2022-07-21T06:32:50Z</time>
      </trkpt>
      <trkpt lat="44.18045" lon="5.24891">
        <ele>1392</ele>
        <time>2022-07-21T06:32:51Z</time>
      </trkpt>
      <trkpt lat="44.18046" lon="5.24895">
        <ele>1392.1</ele>
        <time>2022-07-21T06:32:52Z</time>
      </trkpt>
      <trkpt lat="44.18046" lon="5.24896">
        <ele>1392.2</ele>
        <time>2022-07-21T06:32:53Z</time>
      </trkpt>
      <trkpt lat="44.18047" lon="5.24901">
        <ele>1392.3</ele>
        <time>2022-07-21T06:32:54Z</time>
      </trkpt>
      <trkpt lat="44.18047" lon="5.24902">
        <ele>1392.4</ele>
        <time>2022-07-21T06:32:55Z</time>
      </trkpt>
      <trkpt lat="44.18048" lon="5.24908">
        <ele>1392.6</ele>
        <time>2022-07-21T06:32:56Z</time>
      </trkpt>
      <trkpt lat="44.18048" lon="5.24909">
        <ele>1392.6</ele>
        <time>2022-07-21T06:32:57Z</time>
      </trkpt>
      <trkpt lat="44.18048" lon="5.24913">
        <ele>1392.7</ele>
        <time>2022-07-21T06:32:58Z</time>
      </trkpt>
      <trkpt lat="44.18048" lon="5.24914">
        <ele>1392.8</ele>
        <time>2022-07-21T06:32:59Z</time>
      </trkpt>
      <trkpt lat="44.18049" lon="5.24919">
        <ele>1392.9</ele>
        <time>2022-07-21T06:33:00Z</time>
      </trkpt>
      <trkpt lat="44.18049" lon="5.2492">
        <ele>1393</ele>
        <time>2022-07-21T06:33:01Z</time>
      </trkpt>
      <trkpt lat="44.18049" lon="5.24925">
        <ele>1393.1</ele>
        <time>2022-07-21T06:33:02Z</time>
      </trkpt>
      <trkpt lat="44.18049" lon="5.24926">
        <ele>1393.2</ele>
        <time>2022-07-21T06:33:03Z</time>
      </trkpt>
      <trkpt lat="44.1805" lon="5.24931">
        <ele>1393.3</ele>
        <time>2022-07-21T06:33:04Z</time>
      </trkpt>
      <trkpt lat="44.1805" lon="5.24932">
        <ele>1393.4</ele>
        <time>2022-07-21T06:33:05Z</time>
      </trkpt>
      <trkpt lat="44.1805" lon="5.24937">
        <ele>1393.5</ele>
        <time>2022-07-21T06:33:06Z</time>
      </trkpt>
      <trkpt lat="44.1805" lon="5.24938">
        <ele>1393.6</ele>
        <time>2022-07-21T06:33:07Z</time>
      </trkpt>
      <trkpt lat="44.18051" lon="5.24943">
        <ele>1393.7</ele>
        <time>2022-07-21T06:33:08Z</time>
      </trkpt>
      <trkpt lat="44.18051" lon="5.24945">
        <ele>1393.8</ele>
        <time>2022-07-21T06:33:09Z</time>
      </trkpt>
      <trkpt lat="44.18051" lon="5.2495">
        <ele>1394</ele>
        <time>2022-07-21T06:33:10Z</time>
      </trkpt>
      <trkpt lat="44.18051" lon="5.24952">
        <ele>1394</ele>
        <time>2022-07-21T06:33:11Z</time>
      </trkpt>
      <trkpt lat="44.1805" lon="5.24956">
        <ele>1394.2</ele>
        <time>2022-07-21T06:33:12Z</time>
      </trkpt>
      <trkpt lat="44.1805" lon="5.24957">
        <ele>1394.2</ele>
        <time>2022-07-21T06:33:13Z</time>
      </trkpt>
      <trkpt lat="44.1805" lon="5.24959">
        <ele>1394.3</ele>
        <time>2022-07-21T06:33:14Z</time>
      </trkpt>
      <trkpt lat="44.1805" lon="5.24962">
        <ele>1394.4</ele>
        <time>2022-07-21T06:33:15Z</time>
      </trkpt>
      <trkpt lat="44.18049" lon="5.24966">
        <ele>1394.5</ele>
        <time>2022-07-21T06:33:16Z</time>
      </trkpt>
      <trkpt lat="44.18049" lon="5.24967">
        <ele>1394.6</ele>
        <time>2022-07-21T06:33:17Z</time>
      </trkpt>
      <trkpt lat="44.18048" lon="5.24972">
        <ele>1394.7</ele>
        <time>2022-07-21T06:33:18Z</time>
      </trkpt>
      <trkpt lat="44.18048" lon="5.24973">
        <ele>1394.8</ele>
        <time>2022-07-21T06:33:19Z</time>
      </trkpt>
      <trkpt lat="44.18048" lon="5.24978">
        <ele>1394.9</ele>
        <time>2022-07-21T06:33:20Z</time>
      </trkpt>
      <trkpt lat="44.18048" lon="5.24979">
        <ele>1394.9</ele>
        <time>2022-07-21T06:33:21Z</time>
      </trkpt>
      <trkpt lat="44.18047" lon="5.24983">
        <ele>1395.1</ele>
        <time>2022-07-21T06:33:22Z</time>
      </trkpt>
      <trkpt lat="44.18047" lon="5.24984">
        <ele>1395.1</ele>
        <time>2022-07-21T06:33:23Z</time>
      </trkpt>
      <trkpt lat="44.18046" lon="5.24989">
        <ele>1395.2</ele>
        <time>2022-07-21T06:33:24Z</time>
      </trkpt>
      <trkpt lat="44.18046" lon="5.24991">
        <ele>1395.3</ele>
        <time>2022-07-21T06:33:25Z</time>
      </trkpt>
      <trkpt lat="44.18045" lon="5.24995">
        <ele>1395.4</ele>
        <time>2022-07-21T06:33:26Z</time>
      </trkpt>
      <trkpt lat="44.18045" lon="5.24997">
        <ele>1395.4</ele>
        <time>2022-07-21T06:33:27Z</time>
      </trkpt>
      <trkpt lat="44.18044" lon="5.25001">
        <ele>1395.6</ele>
        <time>2022-07-21T06:33:28Z</time>
      </trkpt>
      <trkpt lat="44.18043" lon="5.25003">
        <ele>1395.6</ele>
        <time>2022-07-21T06:33:29Z</time>
      </trkpt>
      <trkpt lat="44.18041" lon="5.25007">
        <ele>1395.7</ele>
        <time>2022-07-21T06:33:30Z</time>
      </trkpt>
      <trkpt lat="44.1804" lon="5.25008">
        <ele>1395.8</ele>
        <time>2022-07-21T06:33:31Z</time>
      </trkpt>
      <trkpt lat="44.18038" lon="5.25012">
        <ele>1395.9</ele>
        <time>2022-07-21T06:33:32Z</time>
      </trkpt>
      <trkpt lat="44.18038" lon="5.25013">
        <ele>1395.9</ele>
        <time>2022-07-21T06:33:33Z</time>
      </trkpt>
      <trkpt lat="44.18036" lon="5.25017">
        <ele>1396.1</ele>
        <time>2022-07-21T06:33:34Z</time>
      </trkpt>
      <trkpt lat="44.18036" lon="5.25018">
        <ele>1396.1</ele>
        <time>2022-07-21T06:33:35Z</time>
      </trkpt>
      <trkpt lat="44.18035" lon="5.25023">
        <ele>1396.2</ele>
        <time>2022-07-21T06:33:36Z</time>
      </trkpt>
      <trkpt lat="44.18035" lon="5.25024">
        <ele>1396.3</ele>
        <time>2022-07-21T06:33:37Z</time>
      </trkpt>
      <trkpt lat="44.18034" lon="5.2503">
        <ele>1396.4</ele>
        <time>2022-07-21T06:33:38Z</time>
      </trkpt>
      <trkpt lat="44.18033" lon="5.25031">
        <ele>1396.4</ele>
        <time>2022-07-21T06:33:39Z</time>
      </trkpt>
      <trkpt lat="44.18033" lon="5.25035">
        <ele>1396.5</ele>
        <time>2022-07-21T06:33:40Z</time>
      </trkpt>
      <trkpt lat="44.18032" lon="5.25039">
        <ele>1396.6</ele>
        <time>2022-07-21T06:33:41Z</time>
      </trkpt>
      <trkpt lat="44.18031" lon="5.25044">
        <ele>1396.8</ele>
        <time>2022-07-21T06:33:42Z</time>
      </trkpt>
      <trkpt lat="44.18031" lon="5.25048">
        <ele>1396.9</ele>
        <time>2022-07-21T06:33:43Z</time>
      </trkpt>
      <trkpt lat="44.18032" lon="5.25053">
        <ele>1397</ele>
        <time>2022-07-21T06:33:44Z</time>
      </trkpt>
      <trkpt lat="44.18032" lon="5.25057">
        <ele>1397.1</ele>
        <time>2022-07-21T06:33:45Z</time>
      </trkpt>
      <trkpt lat="44.18032" lon="5.25063">
        <ele>1397.2</ele>
        <time>2022-07-21T06:33:46Z</time>
      </trkpt>
      <trkpt lat="44.18032" lon="5.25064">
        <ele>1397.2</ele>
        <time>2022-07-21T06:33:47Z</time>
      </trkpt>
      <trkpt lat="44.18032" lon="5.25068">
        <ele>1397.3</ele>
        <time>2022-07-21T06:33:48Z</time>
      </trkpt>
      <trkpt lat="44.18032" lon="5.25072">
        <ele>1397.4</ele>
        <time>2022-07-21T06:33:49Z</time>
      </trkpt>
      <trkpt lat="44.18032" lon="5.25076">
        <ele>1397.5</ele>
        <time>2022-07-21T06:33:50Z</time>
      </trkpt>
      <trkpt lat="44.18032" lon="5.25081">
        <ele>1397.7</ele>
        <time>2022-07-21T06:33:51Z</time>
      </trkpt>
      <trkpt lat="44.18032" lon="5.25084">
        <ele>1397.8</ele>
        <time>2022-07-21T06:33:52Z</time>
      </trkpt>
      <trkpt lat="44.18032" lon="5.25089">
        <ele>1397.9</ele>
        <time>2022-07-21T06:33:53Z</time>
      </trkpt>
      <trkpt lat="44.18032" lon="5.25093">
        <ele>1398</ele>
        <time>2022-07-21T06:33:54Z</time>
      </trkpt>
      <trkpt lat="44.18032" lon="5.25097">
        <ele>1398.1</ele>
        <time>2022-07-21T06:33:55Z</time>
      </trkpt>
      <trkpt lat="44.18032" lon="5.25101">
        <ele>1398.2</ele>
        <time>2022-07-21T06:33:56Z</time>
      </trkpt>
      <trkpt lat="44.18032" lon="5.25105">
        <ele>1398.4</ele>
        <time>2022-07-21T06:33:57Z</time>
      </trkpt>
      <trkpt lat="44.18032" lon="5.2511">
        <ele>1398.5</ele>
        <time>2022-07-21T06:33:58Z</time>
      </trkpt>
      <trkpt lat="44.18032" lon="5.25112">
        <ele>1398.6</ele>
        <time>2022-07-21T06:33:59Z</time>
      </trkpt>
      <trkpt lat="44.18032" lon="5.25116">
        <ele>1398.7</ele>
        <time>2022-07-21T06:34:00Z</time>
      </trkpt>
      <trkpt lat="44.18032" lon="5.2512">
        <ele>1398.8</ele>
        <time>2022-07-21T06:34:01Z</time>
      </trkpt>
      <trkpt lat="44.18032" lon="5.25124">
        <ele>1398.9</ele>
        <time>2022-07-21T06:34:02Z</time>
      </trkpt>
      <trkpt lat="44.18031" lon="5.25129">
        <ele>1399</ele>
        <time>2022-07-21T06:34:03Z</time>
      </trkpt>
      <trkpt lat="44.18031" lon="5.25131">
        <ele>1399</ele>
        <time>2022-07-21T06:34:04Z</time>
      </trkpt>
      <trkpt lat="44.18029" lon="5.25136">
        <ele>1399.1</ele>
        <time>2022-07-21T06:34:05Z</time>
      </trkpt>
      <trkpt lat="44.18029" lon="5.25137">
        <ele>1399.1</ele>
        <time>2022-07-21T06:34:06Z</time>
      </trkpt>
      <trkpt lat="44.18027" lon="5.25142">
        <ele>1399.2</ele>
        <time>2022-07-21T06:34:07Z</time>
      </trkpt>
      <trkpt lat="44.18027" lon="5.25143">
        <ele>1399.3</ele>
        <time>2022-07-21T06:34:08Z</time>
      </trkpt>
      <trkpt lat="44.18025" lon="5.25149">
        <ele>1399.4</ele>
        <time>2022-07-21T06:34:09Z</time>
      </trkpt>
      <trkpt lat="44.18025" lon="5.2515">
        <ele>1399.4</ele>
        <time>2022-07-21T06:34:10Z</time>
      </trkpt>
      <trkpt lat="44.18023" lon="5.25154">
        <ele>1399.5</ele>
        <time>2022-07-21T06:34:11Z</time>
      </trkpt>
      <trkpt lat="44.18022" lon="5.25157">
        <ele>1399.6</ele>
        <time>2022-07-21T06:34:12Z</time>
      </trkpt>
      <trkpt lat="44.18019" lon="5.25162">
        <ele>1399.7</ele>
        <time>2022-07-21T06:34:13Z</time>
      </trkpt>
      <trkpt lat="44.18018" lon="5.25163">
        <ele>1399.7</ele>
        <time>2022-07-21T06:34:14Z</time>
      </trkpt>
      <trkpt lat="44.18016" lon="5.25166">
        <ele>1399.8</ele>
        <time>2022-07-21T06:34:15Z</time>
      </trkpt>
      <trkpt lat="44.18013" lon="5.25169">
        <ele>1399.9</ele>
        <time>2022-07-21T06:34:16Z</time>
      </trkpt>
      <trkpt lat="44.18012" lon="5.2517">
        <ele>1400</ele>
        <time>2022-07-21T06:34:17Z</time>
      </trkpt>
      <trkpt lat="44.1801" lon="5.25174">
        <ele>1400.1</ele>
        <time>2022-07-21T06:34:18Z</time>
      </trkpt>
      <trkpt lat="44.1801" lon="5.25175">
        <ele>1400.1</ele>
        <time>2022-07-21T06:34:19Z</time>
      </trkpt>
      <trkpt lat="44.18007" lon="5.25178">
        <ele>1400.2</ele>
        <time>2022-07-21T06:34:20Z</time>
      </trkpt>
      <trkpt lat="44.18006" lon="5.25179">
        <ele>1400.2</ele>
        <time>2022-07-21T06:34:21Z</time>
      </trkpt>
      <trkpt lat="44.18002" lon="5.25181">
        <ele>1400.3</ele>
        <time>2022-07-21T06:34:22Z</time>
      </trkpt>
      <trkpt lat="44.18001" lon="5.25182">
        <ele>1400.4</ele>
        <time>2022-07-21T06:34:23Z</time>
      </trkpt>
      <trkpt lat="44.17998" lon="5.25185">
        <ele>1400.5</ele>
        <time>2022-07-21T06:34:24Z</time>
      </trkpt>
      <trkpt lat="44.17997" lon="5.25186">
        <ele>1400.5</ele>
        <time>2022-07-21T06:34:25Z</time>
      </trkpt>
      <trkpt lat="44.17994" lon="5.25188">
        <ele>1400.6</ele>
        <time>2022-07-21T06:34:26Z</time>
      </trkpt>
      <trkpt lat="44.17993" lon="5.25189">
        <ele>1400.7</ele>
        <time>2022-07-21T06:34:27Z</time>
      </trkpt>
      <trkpt lat="44.1799" lon="5.25192">
        <ele>1400.8</ele>
        <time>2022-07-21T06:34:28Z</time>
      </trkpt>
      <trkpt lat="44.17989" lon="5.25193">
        <ele>1400.8</ele>
        <time>2022-07-21T06:34:29Z</time>
      </trkpt>
      <trkpt lat="44.17986" lon="5.25196">
        <ele>1400.9</ele>
        <time>2022-07-21T06:34:30Z</time>
      </trkpt>
      <trkpt lat="44.17985" lon="5.25197">
        <ele>1401</ele>
        <time>2022-07-21T06:34:31Z</time>
      </trkpt>
      <trkpt lat="44.17983" lon="5.25201">
        <ele>1401.1</ele>
        <time>2022-07-21T06:34:32Z</time>
      </trkpt>
      <trkpt lat="44.17983" lon="5.25202">
        <ele>1401.1</ele>
        <time>2022-07-21T06:34:33Z</time>
      </trkpt>
      <trkpt lat="44.17981" lon="5.25205">
        <ele>1401.2</ele>
        <time>2022-07-21T06:34:34Z</time>
      </trkpt>
      <trkpt lat="44.17981" lon="5.25206">
        <ele>1401.2</ele>
        <time>2022-07-21T06:34:35Z</time>
      </trkpt>
      <trkpt lat="44.17979" lon="5.2521">
        <ele>1401.3</ele>
        <time>2022-07-21T06:34:36Z</time>
      </trkpt>
      <trkpt lat="44.17979" lon="5.25211">
        <ele>1401.3</ele>
        <time>2022-07-21T06:34:37Z</time>
      </trkpt>
      <trkpt lat="44.17978" lon="5.25215">
        <ele>1401.4</ele>
        <time>2022-07-21T06:34:38Z</time>
      </trkpt>
      <trkpt lat="44.17977" lon="5.25217">
        <ele>1401.5</ele>
        <time>2022-07-21T06:34:39Z</time>
      </trkpt>
      <trkpt lat="44.17976" lon="5.25221">
        <ele>1401.6</ele>
        <time>2022-07-21T06:34:40Z</time>
      </trkpt>
      <trkpt lat="44.17976" lon="5.25222">
        <ele>1401.6</ele>
        <time>2022-07-21T06:34:41Z</time>
      </trkpt>
      <trkpt lat="44.17974" lon="5.25225">
        <ele>1401.7</ele>
        <time>2022-07-21T06:34:42Z</time>
      </trkpt>
      <trkpt lat="44.17973" lon="5.25227">
        <ele>1401.7</ele>
        <time>2022-07-21T06:34:43Z</time>
      </trkpt>
      <trkpt lat="44.17971" lon="5.2523">
        <ele>1401.9</ele>
        <time>2022-07-21T06:34:44Z</time>
      </trkpt>
      <trkpt lat="44.1797" lon="5.25231">
        <ele>1401.9</ele>
        <time>2022-07-21T06:34:45Z</time>
      </trkpt>
      <trkpt lat="44.17969" lon="5.25234">
        <ele>1402</ele>
        <time>2022-07-21T06:34:46Z</time>
      </trkpt>
      <trkpt lat="44.17969" lon="5.25236">
        <ele>1402</ele>
        <time>2022-07-21T06:34:47Z</time>
      </trkpt>
      <trkpt lat="44.17969" lon="5.2524">
        <ele>1402.1</ele>
        <time>2022-07-21T06:34:48Z</time>
      </trkpt>
      <trkpt lat="44.17968" lon="5.25241">
        <ele>1402.2</ele>
        <time>2022-07-21T06:34:49Z</time>
      </trkpt>
      <trkpt lat="44.17968" lon="5.25246">
        <ele>1402.3</ele>
        <time>2022-07-21T06:34:50Z</time>
      </trkpt>
      <trkpt lat="44.17968" lon="5.25247">
        <ele>1402.3</ele>
        <time>2022-07-21T06:34:51Z</time>
      </trkpt>
      <trkpt lat="44.17967" lon="5.25252">
        <ele>1402.4</ele>
        <time>2022-07-21T06:34:52Z</time>
      </trkpt>
      <trkpt lat="44.17967" lon="5.25253">
        <ele>1402.5</ele>
        <time>2022-07-21T06:34:53Z</time>
      </trkpt>
      <trkpt lat="44.17966" lon="5.25257">
        <ele>1402.6</ele>
        <time>2022-07-21T06:34:54Z</time>
      </trkpt>
      <trkpt lat="44.17966" lon="5.25259">
        <ele>1402.6</ele>
        <time>2022-07-21T06:34:55Z</time>
      </trkpt>
      <trkpt lat="44.17965" lon="5.25263">
        <ele>1402.7</ele>
        <time>2022-07-21T06:34:56Z</time>
      </trkpt>
      <trkpt lat="44.17965" lon="5.25265">
        <ele>1402.8</ele>
        <time>2022-07-21T06:34:57Z</time>
      </trkpt>
      <trkpt lat="44.17965" lon="5.2527">
        <ele>1402.9</ele>
        <time>2022-07-21T06:34:58Z</time>
      </trkpt>
      <trkpt lat="44.17965" lon="5.25272">
        <ele>1402.9</ele>
        <time>2022-07-21T06:34:59Z</time>
      </trkpt>
      <trkpt lat="44.17965" lon="5.25277">
        <ele>1403.1</ele>
        <time>2022-07-21T06:35:00Z</time>
      </trkpt>
      <trkpt lat="44.17965" lon="5.25279">
        <ele>1403.1</ele>
        <time>2022-07-21T06:35:01Z</time>
      </trkpt>
      <trkpt lat="44.17966" lon="5.25283">
        <ele>1403.2</ele>
        <time>2022-07-21T06:35:02Z</time>
      </trkpt>
      <trkpt lat="44.17966" lon="5.25285">
        <ele>1403.3</ele>
        <time>2022-07-21T06:35:03Z</time>
      </trkpt>
      <trkpt lat="44.17967" lon="5.25289">
        <ele>1403.4</ele>
        <time>2022-07-21T06:35:04Z</time>
      </trkpt>
      <trkpt lat="44.17967" lon="5.2529">
        <ele>1403.4</ele>
        <time>2022-07-21T06:35:05Z</time>
      </trkpt>
      <trkpt lat="44.17968" lon="5.25295">
        <ele>1403.5</ele>
        <time>2022-07-21T06:35:06Z</time>
      </trkpt>
      <trkpt lat="44.17969" lon="5.25296">
        <ele>1403.6</ele>
        <time>2022-07-21T06:35:07Z</time>
      </trkpt>
      <trkpt lat="44.1797" lon="5.25301">
        <ele>1403.7</ele>
        <time>2022-07-21T06:35:08Z</time>
      </trkpt>
      <trkpt lat="44.17971" lon="5.25302">
        <ele>1403.8</ele>
        <time>2022-07-21T06:35:09Z</time>
      </trkpt>
      <trkpt lat="44.17972" lon="5.25307">
        <ele>1403.9</ele>
        <time>2022-07-21T06:35:10Z</time>
      </trkpt>
      <trkpt lat="44.17972" lon="5.25309">
        <ele>1404</ele>
        <time>2022-07-21T06:35:11Z</time>
      </trkpt>
      <trkpt lat="44.17973" lon="5.25313">
        <ele>1404.1</ele>
        <time>2022-07-21T06:35:12Z</time>
      </trkpt>
      <trkpt lat="44.17975" lon="5.25318">
        <ele>1404.2</ele>
        <time>2022-07-21T06:35:13Z</time>
      </trkpt>
      <trkpt lat="44.17975" lon="5.2532">
        <ele>1404.3</ele>
        <time>2022-07-21T06:35:14Z</time>
      </trkpt>
      <trkpt lat="44.17976" lon="5.25323">
        <ele>1404.4</ele>
        <time>2022-07-21T06:35:15Z</time>
      </trkpt>
      <trkpt lat="44.17977" lon="5.25327">
        <ele>1404.5</ele>
        <time>2022-07-21T06:35:16Z</time>
      </trkpt>
      <trkpt lat="44.17979" lon="5.25331">
        <ele>1404.6</ele>
        <time>2022-07-21T06:35:17Z</time>
      </trkpt>
      <trkpt lat="44.1798" lon="5.25335">
        <ele>1404.7</ele>
        <time>2022-07-21T06:35:18Z</time>
      </trkpt>
      <trkpt lat="44.17981" lon="5.2534">
        <ele>1404.9</ele>
        <time>2022-07-21T06:35:19Z</time>
      </trkpt>
      <trkpt lat="44.17983" lon="5.25344">
        <ele>1405</ele>
        <time>2022-07-21T06:35:20Z</time>
      </trkpt>
      <trkpt lat="44.17984" lon="5.25349">
        <ele>1405.1</ele>
        <time>2022-07-21T06:35:21Z</time>
      </trkpt>
      <trkpt lat="44.17985" lon="5.25353">
        <ele>1405.2</ele>
        <time>2022-07-21T06:35:22Z</time>
      </trkpt>
      <trkpt lat="44.17987" lon="5.25358">
        <ele>1405.4</ele>
        <time>2022-07-21T06:35:23Z</time>
      </trkpt>
      <trkpt lat="44.17987" lon="5.2536">
        <ele>1405.4</ele>
        <time>2022-07-21T06:35:24Z</time>
      </trkpt>
      <trkpt lat="44.17988" lon="5.25364">
        <ele>1405.5</ele>
        <time>2022-07-21T06:35:25Z</time>
      </trkpt>
      <trkpt lat="44.17989" lon="5.25368">
        <ele>1405.6</ele>
        <time>2022-07-21T06:35:26Z</time>
      </trkpt>
      <trkpt lat="44.1799" lon="5.25371">
        <ele>1405.7</ele>
        <time>2022-07-21T06:35:27Z</time>
      </trkpt>
      <trkpt lat="44.17991" lon="5.25376">
        <ele>1405.8</ele>
        <time>2022-07-21T06:35:28Z</time>
      </trkpt>
      <trkpt lat="44.17991" lon="5.25377">
        <ele>1405.8</ele>
        <time>2022-07-21T06:35:29Z</time>
      </trkpt>
      <trkpt lat="44.17992" lon="5.25381">
        <ele>1405.9</ele>
        <time>2022-07-21T06:35:30Z</time>
      </trkpt>
      <trkpt lat="44.17993" lon="5.25383">
        <ele>1406</ele>
        <time>2022-07-21T06:35:31Z</time>
      </trkpt>
      <trkpt lat="44.17994" lon="5.25387">
        <ele>1406.1</ele>
        <time>2022-07-21T06:35:32Z</time>
      </trkpt>
      <trkpt lat="44.17995" lon="5.25391">
        <ele>1406.1</ele>
        <time>2022-07-21T06:35:33Z</time>
      </trkpt>
      <trkpt lat="44.17996" lon="5.25395">
        <ele>1406.2</ele>
        <time>2022-07-21T06:35:34Z</time>
      </trkpt>
      <trkpt lat="44.17997" lon="5.254">
        <ele>1406.3</ele>
        <time>2022-07-21T06:35:35Z</time>
      </trkpt>
      <trkpt lat="44.17998" lon="5.25404">
        <ele>1406.4</ele>
        <time>2022-07-21T06:35:36Z</time>
      </trkpt>
      <trkpt lat="44.17999" lon="5.25409">
        <ele>1406.5</ele>
        <time>2022-07-21T06:35:37Z</time>
      </trkpt>
      <trkpt lat="44.18" lon="5.25412">
        <ele>1406.5</ele>
        <time>2022-07-21T06:35:38Z</time>
      </trkpt>
      <trkpt lat="44.18001" lon="5.25416">
        <ele>1406.6</ele>
        <time>2022-07-21T06:35:39Z</time>
      </trkpt>
      <trkpt lat="44.18002" lon="5.25421">
        <ele>1406.7</ele>
        <time>2022-07-21T06:35:40Z</time>
      </trkpt>
      <trkpt lat="44.18003" lon="5.25425">
        <ele>1406.8</ele>
        <time>2022-07-21T06:35:41Z</time>
      </trkpt>
      <trkpt lat="44.18004" lon="5.2543">
        <ele>1406.8</ele>
        <time>2022-07-21T06:35:42Z</time>
      </trkpt>
      <trkpt lat="44.18006" lon="5.25434">
        <ele>1406.9</ele>
        <time>2022-07-21T06:35:43Z</time>
      </trkpt>
      <trkpt lat="44.18007" lon="5.25438">
        <ele>1406.9</ele>
        <time>2022-07-21T06:35:44Z</time>
      </trkpt>
      <trkpt lat="44.18009" lon="5.25442">
        <ele>1407</ele>
        <time>2022-07-21T06:35:45Z</time>
      </trkpt>
      <trkpt lat="44.18011" lon="5.25445">
        <ele>1407</ele>
        <time>2022-07-21T06:35:46Z</time>
      </trkpt>
      <trkpt lat="44.18012" lon="5.25448">
        <ele>1407.1</ele>
        <time>2022-07-21T06:35:47Z</time>
      </trkpt>
      <trkpt lat="44.18014" lon="5.25452">
        <ele>1407.1</ele>
        <time>2022-07-21T06:35:48Z</time>
      </trkpt>
      <trkpt lat="44.18016" lon="5.25455">
        <ele>1407.1</ele>
        <time>2022-07-21T06:35:49Z</time>
      </trkpt>
      <trkpt lat="44.18019" lon="5.25459">
        <ele>1407.2</ele>
        <time>2022-07-21T06:35:50Z</time>
      </trkpt>
      <trkpt lat="44.18021" lon="5.25462">
        <ele>1407.2</ele>
        <time>2022-07-21T06:35:51Z</time>
      </trkpt>
      <trkpt lat="44.18024" lon="5.25465">
        <ele>1407.2</ele>
        <time>2022-07-21T06:35:52Z</time>
      </trkpt>
      <trkpt lat="44.18027" lon="5.25468">
        <ele>1407.3</ele>
        <time>2022-07-21T06:35:53Z</time>
      </trkpt>
      <trkpt lat="44.18029" lon="5.2547">
        <ele>1407.3</ele>
        <time>2022-07-21T06:35:54Z</time>
      </trkpt>
      <trkpt lat="44.18032" lon="5.25473">
        <ele>1407.3</ele>
        <time>2022-07-21T06:35:55Z</time>
      </trkpt>
      <trkpt lat="44.18036" lon="5.25475">
        <ele>1407.4</ele>
        <time>2022-07-21T06:35:56Z</time>
      </trkpt>
      <trkpt lat="44.18039" lon="5.25477">
        <ele>1407.4</ele>
        <time>2022-07-21T06:35:57Z</time>
      </trkpt>
      <trkpt lat="44.18042" lon="5.25479">
        <ele>1407.4</ele>
        <time>2022-07-21T06:35:58Z</time>
      </trkpt>
      <trkpt lat="44.18045" lon="5.25481">
        <ele>1407.5</ele>
        <time>2022-07-21T06:35:59Z</time>
      </trkpt>
      <trkpt lat="44.18048" lon="5.25483">
        <ele>1407.5</ele>
        <time>2022-07-21T06:36:00Z</time>
      </trkpt>
      <trkpt lat="44.1805" lon="5.25484">
        <ele>1407.5</ele>
        <time>2022-07-21T06:36:01Z</time>
      </trkpt>
      <trkpt lat="44.18053" lon="5.25486">
        <ele>1407.5</ele>
        <time>2022-07-21T06:36:02Z</time>
      </trkpt>
      <trkpt lat="44.18056" lon="5.25487">
        <ele>1407.6</ele>
        <time>2022-07-21T06:36:03Z</time>
      </trkpt>
      <trkpt lat="44.18059" lon="5.25489">
        <ele>1407.6</ele>
        <time>2022-07-21T06:36:04Z</time>
      </trkpt>
      <trkpt lat="44.18061" lon="5.25491">
        <ele>1407.6</ele>
        <time>2022-07-21T06:36:05Z</time>
      </trkpt>
      <trkpt lat="44.18064" lon="5.25492">
        <ele>1407.7</ele>
        <time>2022-07-21T06:36:06Z</time>
      </trkpt>
      <trkpt lat="44.18067" lon="5.25494">
        <ele>1407.7</ele>
        <time>2022-07-21T06:36:07Z</time>
      </trkpt>
      <trkpt lat="44.1807" lon="5.25495">
        <ele>1407.7</ele>
        <time>2022-07-21T06:36:08Z</time>
      </trkpt>
      <trkpt lat="44.18072" lon="5.25496">
        <ele>1407.8</ele>
        <time>2022-07-21T06:36:09Z</time>
      </trkpt>
      <trkpt lat="44.18075" lon="5.25497">
        <ele>1407.8</ele>
        <time>2022-07-21T06:36:10Z</time>
      </trkpt>
      <trkpt lat="44.18076" lon="5.25498">
        <ele>1407.8</ele>
        <time>2022-07-21T06:36:11Z</time>
      </trkpt>
      <trkpt lat="44.1808" lon="5.25499">
        <ele>1407.9</ele>
        <time>2022-07-21T06:36:12Z</time>
      </trkpt>
      <trkpt lat="44.18081" lon="5.25499">
        <ele>1407.9</ele>
        <time>2022-07-21T06:36:13Z</time>
      </trkpt>
      <trkpt lat="44.18082" lon="5.255">
        <ele>1407.9</ele>
        <time>2022-07-21T06:36:14Z</time>
      </trkpt>
      <trkpt lat="44.18084" lon="5.25501">
        <ele>1407.9</ele>
        <time>2022-07-21T06:36:15Z</time>
      </trkpt>
      <trkpt lat="44.18085" lon="5.25501">
        <ele>1408</ele>
        <time>2022-07-21T06:36:16Z</time>
      </trkpt>
      <trkpt lat="44.18086" lon="5.25502">
        <ele>1408</ele>
        <time>2022-07-21T06:36:17Z</time>
      </trkpt>
      <trkpt lat="44.18086" lon="5.25502">
        <ele>1408</ele>
        <time>2022-07-21T06:36:18Z</time>
      </trkpt>
      <trkpt lat="44.18087" lon="5.25503">
        <ele>1408</ele>
        <time>2022-07-21T06:36:19Z</time>
      </trkpt>
      <trkpt lat="44.18087" lon="5.25503">
        <ele>1408</ele>
        <time>2022-07-21T06:36:20Z</time>
      </trkpt>
      <trkpt lat="44.18087" lon="5.25503">
        <ele>1408</ele>
        <time>2022-07-21T06:36:21Z</time>
      </trkpt>
      <trkpt lat="44.18087" lon="5.25503">
        <ele>1408</ele>
        <time>2022-07-21T06:36:22Z</time>
      </trkpt>
      <trkpt lat="44.18087" lon="5.25503">
        <ele>1408</ele>
        <time>2022-07-21T06:36:23Z</time>
      </trkpt>
      <trkpt lat="44.18087" lon="5.25503">
        <ele>1408</ele>
        <time>2022-07-21T06:36:24Z</time>
      </trkpt>
      <trkpt lat="44.18087" lon="5.25503">
        <ele>1408</ele>
        <time>2022-07-21T06:36:25Z</time>
      </trkpt>
      <trkpt lat="44.18087" lon="5.25503">
        <ele>1408</ele>
        <time>2022-07-21T06:36:26Z</time>
      </trkpt>
      <trkpt lat="44.18087" lon="5.25503">
        <ele>1408</ele>
        <time>2022-07-21T06:36:27Z</time>
      </trkpt>
      <trkpt lat="44.18087" lon="5.25503">
        <ele>1408</ele>
        <time>2022-07-21T06:36:28Z</time>
      </trkpt>
      <trkpt lat="44.18087" lon="5.25503">
        <ele>1408</ele>
        <time>2022-07-21T06:36:29Z</time>
      </trkpt>
      <trkpt lat="44.18088" lon="5.25494">
        <ele>1408.1</ele>
        <time>2022-07-21T06:40:39Z</time>
      </trkpt>
      <trkpt lat="44.18088" lon="5.25494">
        <ele>1408.1</ele>
        <time>2022-07-21T06:40:40Z</time>
      </trkpt>
      <trkpt lat="44.18088" lon="5.25493">
        <ele>1408.1</ele>
        <time>2022-07-21T06:40:41Z</time>
      </trkpt>
      <trkpt lat="44.18087" lon="5.25492">
        <ele>1408.1</ele>
        <time>2022-07-21T06:40:42Z</time>
      </trkpt>
      <trkpt lat="44.18087" lon="5.25492">
        <ele>1408.1</ele>
        <time>2022-07-21T06:40:43Z</time>
      </trkpt>
      <trkpt lat="44.18087" lon="5.25492">
        <ele>1408.1</ele>
        <time>2022-07-21T06:40:44Z</time>
      </trkpt>
      <trkpt lat="44.18087" lon="5.25492">
        <ele>1408.1</ele>
        <time>2022-07-21T06:40:45Z</time>
      </trkpt>
      <trkpt lat="44.18086" lon="5.25496">
        <ele>1408.2</ele>
        <time>2022-07-21T06:40:46Z</time>
      </trkpt>
      <trkpt lat="44.18086" lon="5.25496">
        <ele>1408.2</ele>
        <time>2022-07-21T06:40:47Z</time>
      </trkpt>
      <trkpt lat="44.18086" lon="5.25496">
        <ele>1408.2</ele>
        <time>2022-07-21T06:40:48Z</time>
      </trkpt>
      <trkpt lat="44.18086" lon="5.25496">
        <ele>1408.2</ele>
        <time>2022-07-21T06:40:49Z</time>
      </trkpt>
      <trkpt lat="44.18086" lon="5.25496">
        <ele>1408.2</ele>
        <time>2022-07-21T06:40:50Z</time>
      </trkpt>
      <trkpt lat="44.18086" lon="5.25496">
        <ele>1408.2</ele>
        <time>2022-07-21T06:40:51Z</time>
      </trkpt>
      <trkpt lat="44.18086" lon="5.25496">
        <ele>1408.2</ele>
        <time>2022-07-21T06:40:52Z</time>
      </trkpt>
      <trkpt lat="44.18085" lon="5.25503">
        <ele>1408.2</ele>
        <time>2022-07-21T06:44:48Z</time>
      </trkpt>
      <trkpt lat="44.18085" lon="5.25503">
        <ele>1408.2</ele>
        <time>2022-07-21T06:44:49Z</time>
      </trkpt>
      <trkpt lat="44.18085" lon="5.25503">
        <ele>1408.2</ele>
        <time>2022-07-21T06:44:50Z</time>
      </trkpt>
      <trkpt lat="44.18085" lon="5.25503">
        <ele>1408.2</ele>
        <time>2022-07-21T06:44:51Z</time>
      </trkpt>
      <trkpt lat="44.18085" lon="5.25503">
        <ele>1408.2</ele>
        <time>2022-07-21T06:44:52Z</time>
      </trkpt>
      <trkpt lat="44.18085" lon="5.25503">
        <ele>1408.2</ele>
        <time>2022-07-21T06:44:53Z</time>
      </trkpt>
      <trkpt lat="44.18085" lon="5.25503">
        <ele>1408.2</ele>
        <time>2022-07-21T06:44:54Z</time>
      </trkpt>
      <trkpt lat="44.18085" lon="5.25503">
        <ele>1408.2</ele>
        <time>2022-07-21T06:44:55Z</time>
      </trkpt>
      <trkpt lat="44.18085" lon="5.25503">
        <ele>1408.2</ele>
        <time>2022-07-21T06:44:56Z</time>
      </trkpt>
      <trkpt lat="44.18085" lon="5.25503">
        <ele>1408.2</ele>
        <time>2022-07-21T06:44:57Z</time>
      </trkpt>
      <trkpt lat="44.18085" lon="5.25503">
        <ele>1408.2</ele>
        <time>2022-07-21T06:44:58Z</time>
      </trkpt>
      <trkpt lat="44.18087" lon="5.25503">
        <ele>1408.3</ele>
        <time>2022-07-21T06:46:55Z</time>
      </trkpt>
      <trkpt lat="44.18089" lon="5.25502">
        <ele>1408.3</ele>
        <time>2022-07-21T06:46:56Z</time>
      </trkpt>
      <trkpt lat="44.18089" lon="5.25502">
        <ele>1408.3</ele>
        <time>2022-07-21T06:46:57Z</time>
      </trkpt>
      <trkpt lat="44.18089" lon="5.25502">
        <ele>1408.3</ele>
        <time>2022-07-21T06:46:58Z</time>
      </trkpt>
      <trkpt lat="44.18089" lon="5.25502">
        <ele>1408.3</ele>
        <time>2022-07-21T06:46:59Z</time>
      </trkpt>
      <trkpt lat="44.18089" lon="5.25502">
        <ele>1408.3</ele>
        <time>2022-07-21T06:47:00Z</time>
      </trkpt>
      <trkpt lat="44.18089" lon="5.25502">
        <ele>1408.3</ele>
        <time>2022-07-21T06:47:01Z</time>
      </trkpt>
      <trkpt lat="44.18089" lon="5.25502">
        <ele>1408.3</ele>
        <time>2022-07-21T06:47:02Z</time>
      </trkpt>
      <trkpt lat="44.18089" lon="5.25502">
        <ele>1408.3</ele>
        <time>2022-07-21T06:47:03Z</time>
      </trkpt>
      <trkpt lat="44.18089" lon="5.25502">
        <ele>1408.3</ele>
        <time>2022-07-21T06:47:04Z</time>
      </trkpt>
      <trkpt lat="44.18089" lon="5.25502">
        <ele>1408.3</ele>
        <time>2022-07-21T06:47:05Z</time>
      </trkpt>
      <trkpt lat="44.18089" lon="5.25502">
        <ele>1408.3</ele>
        <time>2022-07-21T06:47:06Z</time>
      </trkpt>
      <trkpt lat="44.18093" lon="5.25497">
        <ele>1408.4</ele>
        <time>2022-07-21T06:47:16Z</time>
      </trkpt>
      <trkpt lat="44.18093" lon="5.25497">
        <ele>1408.4</ele>
        <time>2022-07-21T06:47:17Z</time>
      </trkpt>
      <trkpt lat="44.18094" lon="5.25497">
        <ele>1408.4</ele>
        <time>2022-07-21T06:47:18Z</time>
      </trkpt>
      <trkpt lat="44.18094" lon="5.25496">
        <ele>1408.4</ele>
        <time>2022-07-21T06:47:19Z</time>
      </trkpt>
      <trkpt lat="44.18095" lon="5.25494">
        <ele>1408.4</ele>
        <time>2022-07-21T06:47:20Z</time>
      </trkpt>
      <trkpt lat="44.18096" lon="5.25493">
        <ele>1408.5</ele>
        <time>2022-07-21T06:47:21Z</time>
      </trkpt>
      <trkpt lat="44.18097" lon="5.25493">
        <ele>1408.5</ele>
        <time>2022-07-21T06:47:22Z</time>
      </trkpt>
      <trkpt lat="44.18098" lon="5.25493">
        <ele>1408.5</ele>
        <time>2022-07-21T06:47:23Z</time>
      </trkpt>
      <trkpt lat="44.18098" lon="5.25492">
        <ele>1408.5</ele>
        <time>2022-07-21T06:47:24Z</time>
      </trkpt>
      <trkpt lat="44.18098" lon="5.2549">
        <ele>1408.5</ele>
        <time>2022-07-21T06:47:25Z</time>
      </trkpt>
      <trkpt lat="44.18098" lon="5.2549">
        <ele>1408.5</ele>
        <time>2022-07-21T06:47:26Z</time>
      </trkpt>
      <trkpt lat="44.18098" lon="5.2549">
        <ele>1408.5</ele>
        <time>2022-07-21T06:47:27Z</time>
      </trkpt>
      <trkpt lat="44.18098" lon="5.2549">
        <ele>1408.5</ele>
        <time>2022-07-21T06:47:28Z</time>
      </trkpt>
      <trkpt lat="44.18098" lon="5.2549">
        <ele>1408.5</ele>
        <time>2022-07-21T06:47:29Z</time>
      </trkpt>
      <trkpt lat="44.18098" lon="5.2549">
        <ele>1408.5</ele>
        <time>2022-07-21T06:47:30Z</time>
      </trkpt>
      <trkpt lat="44.18098" lon="5.2549">
        <ele>1408.5</ele>
        <time>2022-07-21T06:47:31Z</time>
      </trkpt>
      <trkpt lat="44.18098" lon="5.2549">
        <ele>1408.5</ele>
        <time>2022-07-21T06:47:32Z</time>
      </trkpt>
      <trkpt lat="44.18098" lon="5.2549">
        <ele>1408.5</ele>
        <time>2022-07-21T06:47:33Z</time>
      </trkpt>
      <trkpt lat="44.18098" lon="5.2549">
        <ele>1408.5</ele>
        <time>2022-07-21T06:47:34Z</time>
      </trkpt>
      <trkpt lat="44.18098" lon="5.2549">
        <ele>1408.5</ele>
        <time>2022-07-21T06:47:35Z</time>
      </trkpt>
      <trkpt lat="44.18095" lon="5.25493">
        <ele>1408.6</ele>
        <time>2022-07-21T06:51:17Z</time>
      </trkpt>
      <trkpt lat="44.18095" lon="5.25494">
        <ele>1408.6</ele>
        <time>2022-07-21T06:51:18Z</time>
      </trkpt>
      <trkpt lat="44.18094" lon="5.25495">
        <ele>1408.6</ele>
        <time>2022-07-21T06:51:19Z</time>
      </trkpt>
      <trkpt lat="44.18093" lon="5.25496">
        <ele>1408.6</ele>
        <time>2022-07-21T06:51:20Z</time>
      </trkpt>
      <trkpt lat="44.18092" lon="5.25497">
        <ele>1408.7</ele>
        <time>2022-07-21T06:51:21Z</time>
      </trkpt>
      <trkpt lat="44.18092" lon="5.25497">
        <ele>1408.7</ele>
        <time>2022-07-21T06:51:22Z</time>
      </trkpt>
      <trkpt lat="44.18092" lon="5.25498">
        <ele>1408.7</ele>
        <time>2022-07-21T06:51:23Z</time>
      </trkpt>
      <trkpt lat="44.18091" lon="5.25499">
        <ele>1408.7</ele>
        <time>2022-07-21T06:51:24Z</time>
      </trkpt>
      <trkpt lat="44.1809" lon="5.25499">
        <ele>1408.7</ele>
        <time>2022-07-21T06:51:25Z</time>
      </trkpt>
      <trkpt lat="44.18089" lon="5.25499">
        <ele>1408.7</ele>
        <time>2022-07-21T06:51:26Z</time>
      </trkpt>
      <trkpt lat="44.18088" lon="5.25499">
        <ele>1408.7</ele>
        <time>2022-07-21T06:51:27Z</time>
      </trkpt>
      <trkpt lat="44.18087" lon="5.25499">
        <ele>1408.8</ele>
        <time>2022-07-21T06:51:28Z</time>
      </trkpt>
      <trkpt lat="44.18087" lon="5.25499">
        <ele>1408.8</ele>
        <time>2022-07-21T06:51:29Z</time>
      </trkpt>
      <trkpt lat="44.18086" lon="5.25499">
        <ele>1408.8</ele>
        <time>2022-07-21T06:51:30Z</time>
      </trkpt>
      <trkpt lat="44.18085" lon="5.25499">
        <ele>1408.8</ele>
        <time>2022-07-21T06:51:31Z</time>
      </trkpt>
      <trkpt lat="44.18085" lon="5.25499">
        <ele>1408.8</ele>
        <time>2022-07-21T06:51:32Z</time>
      </trkpt>
      <trkpt lat="44.18084" lon="5.25498">
        <ele>1408.8</ele>
        <time>2022-07-21T06:51:33Z</time>
      </trkpt>
      <trkpt lat="44.18084" lon="5.25498">
        <ele>1408.8</ele>
        <time>2022-07-21T06:51:34Z</time>
      </trkpt>
      <trkpt lat="44.18083" lon="5.25498">
        <ele>1408.8</ele>
        <time>2022-07-21T06:51:35Z</time>
      </trkpt>
      <trkpt lat="44.18082" lon="5.25498">
        <ele>1408.9</ele>
        <time>2022-07-21T06:51:36Z</time>
      </trkpt>
      <trkpt lat="44.18081" lon="5.25499">
        <ele>1408.9</ele>
        <time>2022-07-21T06:51:37Z</time>
      </trkpt>
      <trkpt lat="44.1808" lon="5.25499">
        <ele>1408.9</ele>
        <time>2022-07-21T06:51:38Z</time>
      </trkpt>
      <trkpt lat="44.18079" lon="5.255">
        <ele>1408.9</ele>
        <time>2022-07-21T06:51:39Z</time>
      </trkpt>
      <trkpt lat="44.18079" lon="5.255">
        <ele>1408.9</ele>
        <time>2022-07-21T06:51:40Z</time>
      </trkpt>
      <trkpt lat="44.18079" lon="5.255">
        <ele>1408.9</ele>
        <time>2022-07-21T06:51:41Z</time>
      </trkpt>
      <trkpt lat="44.18078" lon="5.25501">
        <ele>1408.9</ele>
        <time>2022-07-21T06:51:42Z</time>
      </trkpt>
      <trkpt lat="44.18078" lon="5.25501">
        <ele>1408.9</ele>
        <time>2022-07-21T06:51:43Z</time>
      </trkpt>
      <trkpt lat="44.18078" lon="5.25501">
        <ele>1408.9</ele>
        <time>2022-07-21T06:51:44Z</time>
      </trkpt>
      <trkpt lat="44.18078" lon="5.25501">
        <ele>1408.9</ele>
        <time>2022-07-21T06:51:45Z</time>
      </trkpt>
      <trkpt lat="44.18078" lon="5.25501">
        <ele>1408.9</ele>
        <time>2022-07-21T06:51:46Z</time>
      </trkpt>
      <trkpt lat="44.18078" lon="5.25501">
        <ele>1408.9</ele>
        <time>2022-07-21T06:51:47Z</time>
      </trkpt>
      <trkpt lat="44.18078" lon="5.25501">
        <ele>1408.9</ele>
        <time>2022-07-21T06:51:48Z</time>
      </trkpt>
      <trkpt lat="44.18078" lon="5.25501">
        <ele>1408.9</ele>
        <time>2022-07-21T06:51:49Z</time>
      </trkpt>
      <trkpt lat="44.18078" lon="5.25501">
        <ele>1408.9</ele>
        <time>2022-07-21T06:51:50Z</time>
      </trkpt>
      <trkpt lat="44.18082" lon="5.255">
        <ele>1409</ele>
        <time>2022-07-21T06:53:37Z</time>
      </trkpt>
      <trkpt lat="44.18082" lon="5.255">
        <ele>1409</ele>
        <time>2022-07-21T06:53:38Z</time>
      </trkpt>
      <trkpt lat="44.18082" lon="5.255">
        <ele>1409</ele>
        <time>2022-07-21T06:53:39Z</time>
      </trkpt>
      <trkpt lat="44.18082" lon="5.255">
        <ele>1409</ele>
        <time>2022-07-21T06:53:40Z</time>
      </trkpt>
      <trkpt lat="44.18082" lon="5.255">
        <ele>1409</ele>
        <time>2022-07-21T06:53:41Z</time>
      </trkpt>
      <trkpt lat="44.18082" lon="5.255">
        <ele>1409</ele>
        <time>2022-07-21T06:53:42Z</time>
      </trkpt>
      <trkpt lat="44.18082" lon="5.255">
        <ele>1409</ele>
        <time>2022-07-21T06:53:43Z</time>
      </trkpt>
      <trkpt lat="44.18082" lon="5.255">
        <ele>1409</ele>
        <time>2022-07-21T06:53:44Z</time>
      </trkpt>
      <trkpt lat="44.18082" lon="5.255">
        <ele>1409</ele>
        <time>2022-07-21T06:53:45Z</time>
      </trkpt>
      <trkpt lat="44.18082" lon="5.255">
        <ele>1409</ele>
        <time>2022-07-21T06:53:46Z</time>
      </trkpt>
      <trkpt lat="44.18084" lon="5.25503">
        <ele>1409.1</ele>
        <time>2022-07-21T06:54:06Z</time>
      </trkpt>
      <trkpt lat="44.18084" lon="5.25503">
        <ele>1409.1</ele>
        <time>2022-07-21T06:54:07Z</time>
      </trkpt>
      <trkpt lat="44.18084" lon="5.25503">
        <ele>1409.1</ele>
        <time>2022-07-21T06:54:08Z</time>
      </trkpt>
      <trkpt lat="44.18084" lon="5.25503">
        <ele>1409.1</ele>
        <time>2022-07-21T06:54:09Z</time>
      </trkpt>
      <trkpt lat="44.18084" lon="5.25503">
        <ele>1409.1</ele>
        <time>2022-07-21T06:54:10Z</time>
      </trkpt>
      <trkpt lat="44.18084" lon="5.25503">
        <ele>1409.1</ele>
        <time>2022-07-21T06:54:11Z</time>
      </trkpt>
      <trkpt lat="44.18084" lon="5.25503">
        <ele>1409.1</ele>
        <time>2022-07-21T06:54:12Z</time>
      </trkpt>
      <trkpt lat="44.18084" lon="5.25503">
        <ele>1409.1</ele>
        <time>2022-07-21T06:54:13Z</time>
      </trkpt>
      <trkpt lat="44.18084" lon="5.25503">
        <ele>1409.1</ele>
        <time>2022-07-21T06:54:14Z</time>
      </trkpt>
      <trkpt lat="44.18084" lon="5.25503">
        <ele>1409.1</ele>
        <time>2022-07-21T06:54:15Z</time>
      </trkpt>
      <trkpt lat="44.1809" lon="5.25506">
        <ele>1409.6</ele>
        <time>2022-07-21T06:58:05Z</time>
      </trkpt>
      <trkpt lat="44.18092" lon="5.25507">
        <ele>1409.7</ele>
        <time>2022-07-21T06:58:06Z</time>
      </trkpt>
      <trkpt lat="44.18094" lon="5.2551">
        <ele>1410</ele>
        <time>2022-07-21T06:58:07Z</time>
      </trkpt>
      <trkpt lat="44.18095" lon="5.25511">
        <ele>1410.1</ele>
        <time>2022-07-21T06:58:08Z</time>
      </trkpt>
      <trkpt lat="44.18097" lon="5.25514">
        <ele>1410.3</ele>
        <time>2022-07-21T06:58:09Z</time>
      </trkpt>
      <trkpt lat="44.18097" lon="5.25515">
        <ele>1410.4</ele>
        <time>2022-07-21T06:58:10Z</time>
      </trkpt>
      <trkpt lat="44.18098" lon="5.25517">
        <ele>1410.6</ele>
        <time>2022-07-21T06:58:11Z</time>
      </trkpt>
      <trkpt lat="44.18098" lon="5.25519">
        <ele>1410.7</ele>
        <time>2022-07-21T06:58:12Z</time>
      </trkpt>
      <trkpt lat="44.18099" lon="5.25523">
        <ele>1410.9</ele>
        <time>2022-07-21T06:58:13Z</time>
      </trkpt>
      <trkpt lat="44.18099" lon="5.25524">
        <ele>1411</ele>
        <time>2022-07-21T06:58:14Z</time>
      </trkpt>
      <trkpt lat="44.181" lon="5.25528">
        <ele>1411.2</ele>
        <time>2022-07-21T06:58:15Z</time>
      </trkpt>
      <trkpt lat="44.181" lon="5.2553">
        <ele>1411.2</ele>
        <time>2022-07-21T06:58:16Z</time>
      </trkpt>
      <trkpt lat="44.181" lon="5.25531">
        <ele>1411.2</ele>
        <time>2022-07-21T06:58:17Z</time>
      </trkpt>
      <trkpt lat="44.18101" lon="5.25533">
        <ele>1411.3</ele>
        <time>2022-07-21T06:58:18Z</time>
      </trkpt>
      <trkpt lat="44.18101" lon="5.25536">
        <ele>1411.3</ele>
        <time>2022-07-21T06:58:19Z</time>
      </trkpt>
      <trkpt lat="44.18102" lon="5.25537">
        <ele>1411.3</ele>
        <time>2022-07-21T06:58:20Z</time>
      </trkpt>
      <trkpt lat="44.18102" lon="5.25538">
        <ele>1411.3</ele>
        <time>2022-07-21T06:58:21Z</time>
      </trkpt>
      <trkpt lat="44.18102" lon="5.25543">
        <ele>1411.3</ele>
        <time>2022-07-21T06:58:22Z</time>
      </trkpt>
      <trkpt lat="44.18102" lon="5.25544">
        <ele>1411.3</ele>
        <time>2022-07-21T06:58:23Z</time>
      </trkpt>
      <trkpt lat="44.18102" lon="5.2555">
        <ele>1411.3</ele>
        <time>2022-07-21T06:58:24Z</time>
      </trkpt>
      <trkpt lat="44.18102" lon="5.25551">
        <ele>1411.3</ele>
        <time>2022-07-21T06:58:25Z</time>
      </trkpt>
      <trkpt lat="44.18102" lon="5.25555">
        <ele>1411.3</ele>
        <time>2022-07-21T06:58:26Z</time>
      </trkpt>
      <trkpt lat="44.18102" lon="5.25557">
        <ele>1411.3</ele>
        <time>2022-07-21T06:58:27Z</time>
      </trkpt>
      <trkpt lat="44.18102" lon="5.25562">
        <ele>1411.1</ele>
        <time>2022-07-21T06:58:28Z</time>
      </trkpt>
      <trkpt lat="44.18103" lon="5.25563">
        <ele>1411</ele>
        <time>2022-07-21T06:58:29Z</time>
      </trkpt>
      <trkpt lat="44.18103" lon="5.25567">
        <ele>1410.8</ele>
        <time>2022-07-21T06:58:30Z</time>
      </trkpt>
      <trkpt lat="44.18103" lon="5.25569">
        <ele>1410.7</ele>
        <time>2022-07-21T06:58:31Z</time>
      </trkpt>
      <trkpt lat="44.18104" lon="5.25573">
        <ele>1410.7</ele>
        <time>2022-07-21T06:58:32Z</time>
      </trkpt>
      <trkpt lat="44.18104" lon="5.25575">
        <ele>1410.7</ele>
        <time>2022-07-21T06:58:33Z</time>
      </trkpt>
      <trkpt lat="44.18104" lon="5.25579">
        <ele>1410.8</ele>
        <time>2022-07-21T06:58:34Z</time>
      </trkpt>
      <trkpt lat="44.18104" lon="5.25581">
        <ele>1410.8</ele>
        <time>2022-07-21T06:58:35Z</time>
      </trkpt>
      <trkpt lat="44.18104" lon="5.25587">
        <ele>1410.8</ele>
        <time>2022-07-21T06:58:36Z</time>
      </trkpt>
      <trkpt lat="44.18103" lon="5.25588">
        <ele>1410.9</ele>
        <time>2022-07-21T06:58:37Z</time>
      </trkpt>
      <trkpt lat="44.18103" lon="5.25593">
        <ele>1410.9</ele>
        <time>2022-07-21T06:58:38Z</time>
      </trkpt>
      <trkpt lat="44.18103" lon="5.25595">
        <ele>1410.9</ele>
        <time>2022-07-21T06:58:39Z</time>
      </trkpt>
      <trkpt lat="44.18103" lon="5.256">
        <ele>1411</ele>
        <time>2022-07-21T06:58:40Z</time>
      </trkpt>
      <trkpt lat="44.18103" lon="5.25601">
        <ele>1411</ele>
        <time>2022-07-21T06:58:41Z</time>
      </trkpt>
      <trkpt lat="44.18103" lon="5.25607">
        <ele>1411.1</ele>
        <time>2022-07-21T06:58:42Z</time>
      </trkpt>
      <trkpt lat="44.18103" lon="5.25608">
        <ele>1411.1</ele>
        <time>2022-07-21T06:58:43Z</time>
      </trkpt>
      <trkpt lat="44.18103" lon="5.25613">
        <ele>1411.2</ele>
        <time>2022-07-21T06:58:44Z</time>
      </trkpt>
      <trkpt lat="44.18103" lon="5.25615">
        <ele>1411.3</ele>
        <time>2022-07-21T06:58:45Z</time>
      </trkpt>
      <trkpt lat="44.18103" lon="5.25621">
        <ele>1411.4</ele>
        <time>2022-07-21T06:58:46Z</time>
      </trkpt>
      <trkpt lat="44.18103" lon="5.25622">
        <ele>1411.4</ele>
        <time>2022-07-21T06:58:47Z</time>
      </trkpt>
      <trkpt lat="44.18103" lon="5.25628">
        <ele>1411.5</ele>
        <time>2022-07-21T06:58:48Z</time>
      </trkpt>
      <trkpt lat="44.18103" lon="5.2563">
        <ele>1411.6</ele>
        <time>2022-07-21T06:58:49Z</time>
      </trkpt>
      <trkpt lat="44.18103" lon="5.25633">
        <ele>1411.7</ele>
        <time>2022-07-21T06:58:50Z</time>
      </trkpt>
      <trkpt lat="44.18103" lon="5.25638">
        <ele>1411.8</ele>
        <time>2022-07-21T06:58:51Z</time>
      </trkpt>
      <trkpt lat="44.18103" lon="5.2564">
        <ele>1411.8</ele>
        <time>2022-07-21T06:58:52Z</time>
      </trkpt>
      <trkpt lat="44.18104" lon="5.25644">
        <ele>1411.9</ele>
        <time>2022-07-21T06:58:53Z</time>
      </trkpt>
      <trkpt lat="44.18104" lon="5.25648">
        <ele>1412.1</ele>
        <time>2022-07-21T06:58:54Z</time>
      </trkpt>
      <trkpt lat="44.18104" lon="5.2565">
        <ele>1412.1</ele>
        <time>2022-07-21T06:58:55Z</time>
      </trkpt>
      <trkpt lat="44.18104" lon="5.25655">
        <ele>1412.2</ele>
        <time>2022-07-21T06:58:56Z</time>
      </trkpt>
      <trkpt lat="44.18105" lon="5.25656">
        <ele>1412.3</ele>
        <time>2022-07-21T06:58:57Z</time>
      </trkpt>
      <trkpt lat="44.18105" lon="5.25661">
        <ele>1412.4</ele>
        <time>2022-07-21T06:58:58Z</time>
      </trkpt>
      <trkpt lat="44.18105" lon="5.25663">
        <ele>1412.4</ele>
        <time>2022-07-21T06:58:59Z</time>
      </trkpt>
      <trkpt lat="44.18105" lon="5.25667">
        <ele>1412.6</ele>
        <time>2022-07-21T06:59:00Z</time>
      </trkpt>
      <trkpt lat="44.18105" lon="5.25669">
        <ele>1412.6</ele>
        <time>2022-07-21T06:59:01Z</time>
      </trkpt>
      <trkpt lat="44.18106" lon="5.25673">
        <ele>1412.8</ele>
        <time>2022-07-21T06:59:02Z</time>
      </trkpt>
      <trkpt lat="44.18106" lon="5.25674">
        <ele>1412.8</ele>
        <time>2022-07-21T06:59:03Z</time>
      </trkpt>
      <trkpt lat="44.18107" lon="5.25676">
        <ele>1412.9</ele>
        <time>2022-07-21T06:59:04Z</time>
      </trkpt>
      <trkpt lat="44.18107" lon="5.25678">
        <ele>1413</ele>
        <time>2022-07-21T06:59:05Z</time>
      </trkpt>
      <trkpt lat="44.18107" lon="5.25682">
        <ele>1413.1</ele>
        <time>2022-07-21T06:59:06Z</time>
      </trkpt>
      <trkpt lat="44.18107" lon="5.25684">
        <ele>1413.1</ele>
        <time>2022-07-21T06:59:07Z</time>
      </trkpt>
      <trkpt lat="44.18107" lon="5.25688">
        <ele>1413.3</ele>
        <time>2022-07-21T06:59:08Z</time>
      </trkpt>
      <trkpt lat="44.18107" lon="5.2569">
        <ele>1413.4</ele>
        <time>2022-07-21T06:59:09Z</time>
      </trkpt>
      <trkpt lat="44.18107" lon="5.25695">
        <ele>1413.5</ele>
        <time>2022-07-21T06:59:10Z</time>
      </trkpt>
      <trkpt lat="44.18107" lon="5.25696">
        <ele>1413.6</ele>
        <time>2022-07-21T06:59:11Z</time>
      </trkpt>
      <trkpt lat="44.18106" lon="5.25702">
        <ele>1413.8</ele>
        <time>2022-07-21T06:59:12Z</time>
      </trkpt>
      <trkpt lat="44.18106" lon="5.25704">
        <ele>1413.9</ele>
        <time>2022-07-21T06:59:13Z</time>
      </trkpt>
      <trkpt lat="44.18107" lon="5.25709">
        <ele>1414.1</ele>
        <time>2022-07-21T06:59:14Z</time>
      </trkpt>
      <trkpt lat="44.18107" lon="5.25711">
        <ele>1414.1</ele>
        <time>2022-07-21T06:59:15Z</time>
      </trkpt>
      <trkpt lat="44.18107" lon="5.25716">
        <ele>1414.3</ele>
        <time>2022-07-21T06:59:16Z</time>
      </trkpt>
      <trkpt lat="44.18107" lon="5.2572">
        <ele>1414.4</ele>
        <time>2022-07-21T06:59:17Z</time>
      </trkpt>
      <trkpt lat="44.18107" lon="5.25725">
        <ele>1414.6</ele>
        <time>2022-07-21T06:59:18Z</time>
      </trkpt>
      <trkpt lat="44.18107" lon="5.25727">
        <ele>1414.7</ele>
        <time>2022-07-21T06:59:19Z</time>
      </trkpt>
      <trkpt lat="44.18106" lon="5.25732">
        <ele>1414.9</ele>
        <time>2022-07-21T06:59:20Z</time>
      </trkpt>
      <trkpt lat="44.18106" lon="5.25734">
        <ele>1414.9</ele>
        <time>2022-07-21T06:59:21Z</time>
      </trkpt>
      <trkpt lat="44.18107" lon="5.25739">
        <ele>1415.1</ele>
        <time>2022-07-21T06:59:22Z</time>
      </trkpt>
      <trkpt lat="44.18107" lon="5.25741">
        <ele>1415.2</ele>
        <time>2022-07-21T06:59:23Z</time>
      </trkpt>
      <trkpt lat="44.18107" lon="5.25746">
        <ele>1415.4</ele>
        <time>2022-07-21T06:59:24Z</time>
      </trkpt>
      <trkpt lat="44.18107" lon="5.25748">
        <ele>1415.4</ele>
        <time>2022-07-21T06:59:25Z</time>
      </trkpt>
      <trkpt lat="44.18106" lon="5.25752">
        <ele>1415.6</ele>
        <time>2022-07-21T06:59:26Z</time>
      </trkpt>
      <trkpt lat="44.18106" lon="5.25754">
        <ele>1415.7</ele>
        <time>2022-07-21T06:59:27Z</time>
      </trkpt>
      <trkpt lat="44.18106" lon="5.25756">
        <ele>1415.7</ele>
        <time>2022-07-21T06:59:28Z</time>
      </trkpt>
      <trkpt lat="44.18105" lon="5.25758">
        <ele>1415.8</ele>
        <time>2022-07-21T06:59:29Z</time>
      </trkpt>
      <trkpt lat="44.18105" lon="5.2576">
        <ele>1415.9</ele>
        <time>2022-07-21T06:59:30Z</time>
      </trkpt>
      <trkpt lat="44.18104" lon="5.25762">
        <ele>1416</ele>
        <time>2022-07-21T06:59:31Z</time>
      </trkpt>
      <trkpt lat="44.18104" lon="5.25766">
        <ele>1416.1</ele>
        <time>2022-07-21T06:59:32Z</time>
      </trkpt>
      <trkpt lat="44.18104" lon="5.25768">
        <ele>1416.2</ele>
        <time>2022-07-21T06:59:33Z</time>
      </trkpt>
      <trkpt lat="44.18104" lon="5.25772">
        <ele>1416.3</ele>
        <time>2022-07-21T06:59:34Z</time>
      </trkpt>
      <trkpt lat="44.18104" lon="5.25774">
        <ele>1416.4</ele>
        <time>2022-07-21T06:59:35Z</time>
      </trkpt>
      <trkpt lat="44.18104" lon="5.25778">
        <ele>1416.6</ele>
        <time>2022-07-21T06:59:36Z</time>
      </trkpt>
      <trkpt lat="44.18104" lon="5.2578">
        <ele>1416.6</ele>
        <time>2022-07-21T06:59:37Z</time>
      </trkpt>
      <trkpt lat="44.18104" lon="5.25785">
        <ele>1416.8</ele>
        <time>2022-07-21T06:59:38Z</time>
      </trkpt>
      <trkpt lat="44.18104" lon="5.25786">
        <ele>1416.8</ele>
        <time>2022-07-21T06:59:39Z</time>
      </trkpt>
      <trkpt lat="44.18103" lon="5.25791">
        <ele>1417</ele>
        <time>2022-07-21T06:59:40Z</time>
      </trkpt>
      <trkpt lat="44.18103" lon="5.25793">
        <ele>1417.1</ele>
        <time>2022-07-21T06:59:41Z</time>
      </trkpt>
      <trkpt lat="44.18103" lon="5.25797">
        <ele>1417.2</ele>
        <time>2022-07-21T06:59:42Z</time>
      </trkpt>
      <trkpt lat="44.18102" lon="5.25798">
        <ele>1417.3</ele>
        <time>2022-07-21T06:59:43Z</time>
      </trkpt>
      <trkpt lat="44.18101" lon="5.25802">
        <ele>1417.4</ele>
        <time>2022-07-21T06:59:44Z</time>
      </trkpt>
      <trkpt lat="44.18101" lon="5.25804">
        <ele>1417.5</ele>
        <time>2022-07-21T06:59:45Z</time>
      </trkpt>
      <trkpt lat="44.18099" lon="5.25808">
        <ele>1419.3</ele>
        <time>2022-07-21T06:59:46Z</time>
      </trkpt>
      <trkpt lat="44.18098" lon="5.2581">
        <ele>1419.3</ele>
        <time>2022-07-21T06:59:47Z</time>
      </trkpt>
      <trkpt lat="44.18097" lon="5.25814">
        <ele>1419.3</ele>
        <time>2022-07-21T06:59:48Z</time>
      </trkpt>
      <trkpt lat="44.18096" lon="5.25815">
        <ele>1419.3</ele>
        <time>2022-07-21T06:59:49Z</time>
      </trkpt>
      <trkpt lat="44.18093" lon="5.25818">
        <ele>1419.3</ele>
        <time>2022-07-21T06:59:50Z</time>
      </trkpt>
      <trkpt lat="44.18093" lon="5.25819">
        <ele>1419.3</ele>
        <time>2022-07-21T06:59:51Z</time>
      </trkpt>
      <trkpt lat="44.1809" lon="5.25819">
        <ele>1419.1</ele>
        <time>2022-07-21T06:59:52Z</time>
      </trkpt>
      <trkpt lat="44.18089" lon="5.25819">
        <ele>1419.1</ele>
        <time>2022-07-21T06:59:53Z</time>
      </trkpt>
      <trkpt lat="44.18088" lon="5.25818">
        <ele>1419.1</ele>
        <time>2022-07-21T06:59:54Z</time>
      </trkpt>
      <trkpt lat="44.18087" lon="5.25814">
        <ele>1419.1</ele>
        <time>2022-07-21T06:59:55Z</time>
      </trkpt>
      <trkpt lat="44.18086" lon="5.2581">
        <ele>1419</ele>
        <time>2022-07-21T06:59:56Z</time>
      </trkpt>
      <trkpt lat="44.18086" lon="5.25805">
        <ele>1419</ele>
        <time>2022-07-21T06:59:57Z</time>
      </trkpt>
      <trkpt lat="44.18086" lon="5.25801">
        <ele>1419</ele>
        <time>2022-07-21T06:59:58Z</time>
      </trkpt>
      <trkpt lat="44.18086" lon="5.25796">
        <ele>1419.1</ele>
        <time>2022-07-21T06:59:59Z</time>
      </trkpt>
      <trkpt lat="44.18086" lon="5.25791">
        <ele>1419.1</ele>
        <time>2022-07-21T07:00:00Z</time>
      </trkpt>
      <trkpt lat="44.18087" lon="5.25788">
        <ele>1419.1</ele>
        <time>2022-07-21T07:00:01Z</time>
      </trkpt>
      <trkpt lat="44.18088" lon="5.25784">
        <ele>1419.1</ele>
        <time>2022-07-21T07:00:02Z</time>
      </trkpt>
      <trkpt lat="44.1809" lon="5.25779">
        <ele>1419.1</ele>
        <time>2022-07-21T07:00:03Z</time>
      </trkpt>
      <trkpt lat="44.18091" lon="5.25778">
        <ele>1419.1</ele>
        <time>2022-07-21T07:00:04Z</time>
      </trkpt>
      <trkpt lat="44.18092" lon="5.25774">
        <ele>1419.1</ele>
        <time>2022-07-21T07:00:05Z</time>
      </trkpt>
      <trkpt lat="44.18092" lon="5.25771">
        <ele>1419.1</ele>
        <time>2022-07-21T07:00:06Z</time>
      </trkpt>
      <trkpt lat="44.18093" lon="5.2577">
        <ele>1419.1</ele>
        <time>2022-07-21T07:00:07Z</time>
      </trkpt>
      <trkpt lat="44.18095" lon="5.25766">
        <ele>1419.1</ele>
        <time>2022-07-21T07:00:08Z</time>
      </trkpt>
      <trkpt lat="44.18095" lon="5.25764">
        <ele>1419.1</ele>
        <time>2022-07-21T07:00:09Z</time>
      </trkpt>
      <trkpt lat="44.18096" lon="5.25762">
        <ele>1419.1</ele>
        <time>2022-07-21T07:00:10Z</time>
      </trkpt>
      <trkpt lat="44.18096" lon="5.2576">
        <ele>1419.1</ele>
        <time>2022-07-21T07:00:11Z</time>
      </trkpt>
      <trkpt lat="44.18097" lon="5.25756">
        <ele>1419.2</ele>
        <time>2022-07-21T07:00:12Z</time>
      </trkpt>
      <trkpt lat="44.18097" lon="5.25752">
        <ele>1419.2</ele>
        <time>2022-07-21T07:00:13Z</time>
      </trkpt>
      <trkpt lat="44.18098" lon="5.25747">
        <ele>1419.1</ele>
        <time>2022-07-21T07:00:14Z</time>
      </trkpt>
      <trkpt lat="44.18098" lon="5.25745">
        <ele>1419.1</ele>
        <time>2022-07-21T07:00:15Z</time>
      </trkpt>
      <trkpt lat="44.18098" lon="5.2574">
        <ele>1419.1</ele>
        <time>2022-07-21T07:00:16Z</time>
      </trkpt>
      <trkpt lat="44.18099" lon="5.25735">
        <ele>1419.1</ele>
        <time>2022-07-21T07:00:17Z</time>
      </trkpt>
      <trkpt lat="44.18101" lon="5.2573">
        <ele>1419.1</ele>
        <time>2022-07-21T07:00:18Z</time>
      </trkpt>
      <trkpt lat="44.18102" lon="5.25725">
        <ele>1419</ele>
        <time>2022-07-21T07:00:19Z</time>
      </trkpt>
      <trkpt lat="44.18103" lon="5.25721">
        <ele>1418.9</ele>
        <time>2022-07-21T07:00:20Z</time>
      </trkpt>
      <trkpt lat="44.18103" lon="5.25716">
        <ele>1418.8</ele>
        <time>2022-07-21T07:00:21Z</time>
      </trkpt>
      <trkpt lat="44.18103" lon="5.2571">
        <ele>1418.7</ele>
        <time>2022-07-21T07:00:22Z</time>
      </trkpt>
      <trkpt lat="44.18102" lon="5.25704">
        <ele>1418.5</ele>
        <time>2022-07-21T07:00:23Z</time>
      </trkpt>
      <trkpt lat="44.181" lon="5.25697">
        <ele>1418.3</ele>
        <time>2022-07-21T07:00:24Z</time>
      </trkpt>
      <trkpt lat="44.18099" lon="5.2569">
        <ele>1418.1</ele>
        <time>2022-07-21T07:00:25Z</time>
      </trkpt>
      <trkpt lat="44.18094" lon="5.25675">
        <ele>1417.6</ele>
        <time>2022-07-21T07:00:26Z</time>
      </trkpt>
      <trkpt lat="44.18094" lon="5.25668">
        <ele>1417.4</ele>
        <time>2022-07-21T07:00:27Z</time>
      </trkpt>
      <trkpt lat="44.18095" lon="5.25661">
        <ele>1417.2</ele>
        <time>2022-07-21T07:00:28Z</time>
      </trkpt>
      <trkpt lat="44.18095" lon="5.25652">
        <ele>1417</ele>
        <time>2022-07-21T07:00:29Z</time>
      </trkpt>
      <trkpt lat="44.18093" lon="5.25643">
        <ele>1416.8</ele>
        <time>2022-07-21T07:00:30Z</time>
      </trkpt>
      <trkpt lat="44.18093" lon="5.25635">
        <ele>1416.7</ele>
        <time>2022-07-21T07:00:31Z</time>
      </trkpt>
      <trkpt lat="44.18092" lon="5.25627">
        <ele>1416.7</ele>
        <time>2022-07-21T07:00:32Z</time>
      </trkpt>
      <trkpt lat="44.18092" lon="5.25618">
        <ele>1416.7</ele>
        <time>2022-07-21T07:00:33Z</time>
      </trkpt>
      <trkpt lat="44.18092" lon="5.25609">
        <ele>1416.8</ele>
        <time>2022-07-21T07:00:34Z</time>
      </trkpt>
      <trkpt lat="44.1809" lon="5.256">
        <ele>1416.9</ele>
        <time>2022-07-21T07:00:35Z</time>
      </trkpt>
      <trkpt lat="44.18088" lon="5.25593">
        <ele>1417</ele>
        <time>2022-07-21T07:00:36Z</time>
      </trkpt>
      <trkpt lat="44.18085" lon="5.25585">
        <ele>1417.3</ele>
        <time>2022-07-21T07:00:37Z</time>
      </trkpt>
      <trkpt lat="44.18082" lon="5.25579">
        <ele>1417.7</ele>
        <time>2022-07-21T07:00:38Z</time>
      </trkpt>
      <trkpt lat="44.18079" lon="5.25574">
        <ele>1418.1</ele>
        <time>2022-07-21T07:00:39Z</time>
      </trkpt>
      <trkpt lat="44.18075" lon="5.25571">
        <ele>1418.4</ele>
        <time>2022-07-21T07:00:40Z</time>
      </trkpt>
      <trkpt lat="44.18072" lon="5.25568">
        <ele>1418.7</ele>
        <time>2022-07-21T07:00:41Z</time>
      </trkpt>
      <trkpt lat="44.18069" lon="5.25565">
        <ele>1419</ele>
        <time>2022-07-21T07:00:42Z</time>
      </trkpt>
      <trkpt lat="44.18068" lon="5.25561">
        <ele>1419.2</ele>
        <time>2022-07-21T07:00:43Z</time>
      </trkpt>
      <trkpt lat="44.18067" lon="5.25559">
        <ele>1419.4</ele>
        <time>2022-07-21T07:00:44Z</time>
      </trkpt>
      <trkpt lat="44.18064" lon="5.25555">
        <ele>1419.5</ele>
        <time>2022-07-21T07:00:45Z</time>
      </trkpt>
      <trkpt lat="44.18063" lon="5.25554">
        <ele>1419.4</ele>
        <time>2022-07-21T07:00:46Z</time>
      </trkpt>
      <trkpt lat="44.1806" lon="5.25552">
        <ele>1419.4</ele>
        <time>2022-07-21T07:00:47Z</time>
      </trkpt>
      <trkpt lat="44.18059" lon="5.25551">
        <ele>1419.4</ele>
        <time>2022-07-21T07:00:48Z</time>
      </trkpt>
      <trkpt lat="44.18056" lon="5.25549">
        <ele>1419.4</ele>
        <time>2022-07-21T07:00:49Z</time>
      </trkpt>
      <trkpt lat="44.18055" lon="5.25549">
        <ele>1419.4</ele>
        <time>2022-07-21T07:00:50Z</time>
      </trkpt>
      <trkpt lat="44.18053" lon="5.25547">
        <ele>1419.4</ele>
        <time>2022-07-21T07:00:51Z</time>
      </trkpt>
      <trkpt lat="44.18052" lon="5.25547">
        <ele>1419.4</ele>
        <time>2022-07-21T07:00:52Z</time>
      </trkpt>
      <trkpt lat="44.18049" lon="5.25545">
        <ele>1419.4</ele>
        <time>2022-07-21T07:00:53Z</time>
      </trkpt>
      <trkpt lat="44.18048" lon="5.25545">
        <ele>1419.4</ele>
        <time>2022-07-21T07:00:54Z</time>
      </trkpt>
      <trkpt lat="44.18046" lon="5.25544">
        <ele>1419.4</ele>
        <time>2022-07-21T07:00:55Z</time>
      </trkpt>
      <trkpt lat="44.18045" lon="5.25543">
        <ele>1419.5</ele>
        <time>2022-07-21T07:00:56Z</time>
      </trkpt>
      <trkpt lat="44.18043" lon="5.25541">
        <ele>1419.8</ele>
        <time>2022-07-21T07:00:57Z</time>
      </trkpt>
      <trkpt lat="44.18042" lon="5.25541">
        <ele>1419.9</ele>
        <time>2022-07-21T07:00:58Z</time>
      </trkpt>
      <trkpt lat="44.1804" lon="5.25538">
        <ele>1420.2</ele>
        <time>2022-07-21T07:00:59Z</time>
      </trkpt>
      <trkpt lat="44.18039" lon="5.25538">
        <ele>1420.3</ele>
        <time>2022-07-21T07:01:00Z</time>
      </trkpt>
      <trkpt lat="44.18038" lon="5.25536">
        <ele>1420.5</ele>
        <time>2022-07-21T07:01:01Z</time>
      </trkpt>
      <trkpt lat="44.18036" lon="5.25535">
        <ele>1420.7</ele>
        <time>2022-07-21T07:01:02Z</time>
      </trkpt>
      <trkpt lat="44.18035" lon="5.25534">
        <ele>1420.9</ele>
        <time>2022-07-21T07:01:03Z</time>
      </trkpt>
      <trkpt lat="44.18034" lon="5.25533">
        <ele>1421</ele>
        <time>2022-07-21T07:01:04Z</time>
      </trkpt>
      <trkpt lat="44.18032" lon="5.25532">
        <ele>1421.2</ele>
        <time>2022-07-21T07:01:05Z</time>
      </trkpt>
      <trkpt lat="44.18031" lon="5.25531">
        <ele>1421.4</ele>
        <time>2022-07-21T07:01:06Z</time>
      </trkpt>
      <trkpt lat="44.1803" lon="5.25529">
        <ele>1421.5</ele>
        <time>2022-07-21T07:01:07Z</time>
      </trkpt>
      <trkpt lat="44.18029" lon="5.25528">
        <ele>1421.7</ele>
        <time>2022-07-21T07:01:08Z</time>
      </trkpt>
      <trkpt lat="44.18028" lon="5.25527">
        <ele>1421.9</ele>
        <time>2022-07-21T07:01:09Z</time>
      </trkpt>
      <trkpt lat="44.18026" lon="5.25525">
        <ele>1422.1</ele>
        <time>2022-07-21T07:01:10Z</time>
      </trkpt>
      <trkpt lat="44.18024" lon="5.25525">
        <ele>1422.3</ele>
        <time>2022-07-21T07:01:11Z</time>
      </trkpt>
      <trkpt lat="44.18023" lon="5.25524">
        <ele>1422.5</ele>
        <time>2022-07-21T07:01:12Z</time>
      </trkpt>
      <trkpt lat="44.18022" lon="5.25523">
        <ele>1422.6</ele>
        <time>2022-07-21T07:01:13Z</time>
      </trkpt>
      <trkpt lat="44.18021" lon="5.25523">
        <ele>1422.7</ele>
        <time>2022-07-21T07:01:14Z</time>
      </trkpt>
      <trkpt lat="44.1802" lon="5.25522">
        <ele>1422.9</ele>
        <time>2022-07-21T07:01:15Z</time>
      </trkpt>
      <trkpt lat="44.18019" lon="5.25522">
        <ele>1423</ele>
        <time>2022-07-21T07:01:16Z</time>
      </trkpt>
      <trkpt lat="44.18017" lon="5.25522">
        <ele>1423.2</ele>
        <time>2022-07-21T07:01:17Z</time>
      </trkpt>
      <trkpt lat="44.18015" lon="5.25521">
        <ele>1423.4</ele>
        <time>2022-07-21T07:01:18Z</time>
      </trkpt>
      <trkpt lat="44.18014" lon="5.25521">
        <ele>1423.6</ele>
        <time>2022-07-21T07:01:19Z</time>
      </trkpt>
      <trkpt lat="44.18013" lon="5.25521">
        <ele>1423.7</ele>
        <time>2022-07-21T07:01:20Z</time>
      </trkpt>
      <trkpt lat="44.18012" lon="5.2552">
        <ele>1423.8</ele>
        <time>2022-07-21T07:01:21Z</time>
      </trkpt>
      <trkpt lat="44.18011" lon="5.2552">
        <ele>1423.9</ele>
        <time>2022-07-21T07:01:22Z</time>
      </trkpt>
      <trkpt lat="44.1801" lon="5.2552">
        <ele>1424</ele>
        <time>2022-07-21T07:01:23Z</time>
      </trkpt>
      <trkpt lat="44.18008" lon="5.2552">
        <ele>1424.3</ele>
        <time>2022-07-21T07:01:24Z</time>
      </trkpt>
      <trkpt lat="44.18005" lon="5.2552">
        <ele>1424.6</ele>
        <time>2022-07-21T07:01:25Z</time>
      </trkpt>
      <trkpt lat="44.18004" lon="5.2552">
        <ele>1424.7</ele>
        <time>2022-07-21T07:01:26Z</time>
      </trkpt>
      <trkpt lat="44.18002" lon="5.25519">
        <ele>1424.9</ele>
        <time>2022-07-21T07:01:27Z</time>
      </trkpt>
      <trkpt lat="44.18002" lon="5.25518">
        <ele>1425</ele>
        <time>2022-07-21T07:01:28Z</time>
      </trkpt>
      <trkpt lat="44.18001" lon="5.25518">
        <ele>1425.1</ele>
        <time>2022-07-21T07:01:29Z</time>
      </trkpt>
      <trkpt lat="44.18001" lon="5.25517">
        <ele>1425.2</ele>
        <time>2022-07-21T07:01:30Z</time>
      </trkpt>
      <trkpt lat="44.18001" lon="5.25516">
        <ele>1425.2</ele>
        <time>2022-07-21T07:01:31Z</time>
      </trkpt>
      <trkpt lat="44.18" lon="5.25516">
        <ele>1425.3</ele>
        <time>2022-07-21T07:01:32Z</time>
      </trkpt>
      <trkpt lat="44.18" lon="5.25516">
        <ele>1425.4</ele>
        <time>2022-07-21T07:01:33Z</time>
      </trkpt>
      <trkpt lat="44.17999" lon="5.25515">
        <ele>1425.4</ele>
        <time>2022-07-21T07:01:34Z</time>
      </trkpt>
      <trkpt lat="44.17999" lon="5.25514">
        <ele>1425.5</ele>
        <time>2022-07-21T07:01:35Z</time>
      </trkpt>
      <trkpt lat="44.17998" lon="5.25512">
        <ele>1425.7</ele>
        <time>2022-07-21T07:01:36Z</time>
      </trkpt>
      <trkpt lat="44.17997" lon="5.25511">
        <ele>1425.9</ele>
        <time>2022-07-21T07:01:37Z</time>
      </trkpt>
      <trkpt lat="44.17996" lon="5.25509">
        <ele>1426.1</ele>
        <time>2022-07-21T07:01:38Z</time>
      </trkpt>
      <trkpt lat="44.17995" lon="5.25508">
        <ele>1426.2</ele>
        <time>2022-07-21T07:01:39Z</time>
      </trkpt>
      <trkpt lat="44.17994" lon="5.25507">
        <ele>1426.3</ele>
        <time>2022-07-21T07:01:40Z</time>
      </trkpt>
      <trkpt lat="44.17992" lon="5.25504">
        <ele>1426.7</ele>
        <time>2022-07-21T07:01:41Z</time>
      </trkpt>
      <trkpt lat="44.17992" lon="5.25503">
        <ele>1426.8</ele>
        <time>2022-07-21T07:01:42Z</time>
      </trkpt>
      <trkpt lat="44.1799" lon="5.25501">
        <ele>1427</ele>
        <time>2022-07-21T07:01:43Z</time>
      </trkpt>
      <trkpt lat="44.17989" lon="5.25499">
        <ele>1427.2</ele>
        <time>2022-07-21T07:01:44Z</time>
      </trkpt>
      <trkpt lat="44.17988" lon="5.25498">
        <ele>1427.4</ele>
        <time>2022-07-21T07:01:45Z</time>
      </trkpt>
      <trkpt lat="44.17988" lon="5.25495">
        <ele>1427.5</ele>
        <time>2022-07-21T07:01:46Z</time>
      </trkpt>
      <trkpt lat="44.17987" lon="5.25494">
        <ele>1427.7</ele>
        <time>2022-07-21T07:01:47Z</time>
      </trkpt>
      <trkpt lat="44.17987" lon="5.25491">
        <ele>1428.1</ele>
        <time>2022-07-21T07:01:48Z</time>
      </trkpt>
      <trkpt lat="44.17985" lon="5.25488">
        <ele>1428.4</ele>
        <time>2022-07-21T07:01:49Z</time>
      </trkpt>
      <trkpt lat="44.17984" lon="5.25486">
        <ele>1428.5</ele>
        <time>2022-07-21T07:01:50Z</time>
      </trkpt>
      <trkpt lat="44.17983" lon="5.25484">
        <ele>1428.7</ele>
        <time>2022-07-21T07:01:51Z</time>
      </trkpt>
      <trkpt lat="44.17982" lon="5.25483">
        <ele>1428.8</ele>
        <time>2022-07-21T07:01:52Z</time>
      </trkpt>
      <trkpt lat="44.17981" lon="5.25481">
        <ele>1429</ele>
        <time>2022-07-21T07:01:53Z</time>
      </trkpt>
      <trkpt lat="44.1798" lon="5.25479">
        <ele>1429.1</ele>
        <time>2022-07-21T07:01:54Z</time>
      </trkpt>
      <trkpt lat="44.17979" lon="5.25478">
        <ele>1429.3</ele>
        <time>2022-07-21T07:01:55Z</time>
      </trkpt>
      <trkpt lat="44.17978" lon="5.25476">
        <ele>1429.4</ele>
        <time>2022-07-21T07:01:56Z</time>
      </trkpt>
      <trkpt lat="44.17978" lon="5.25474">
        <ele>1429.5</ele>
        <time>2022-07-21T07:01:57Z</time>
      </trkpt>
      <trkpt lat="44.17977" lon="5.25473">
        <ele>1429.6</ele>
        <time>2022-07-21T07:01:58Z</time>
      </trkpt>
      <trkpt lat="44.17977" lon="5.25471">
        <ele>1429.8</ele>
        <time>2022-07-21T07:01:59Z</time>
      </trkpt>
      <trkpt lat="44.17976" lon="5.25469">
        <ele>1429.9</ele>
        <time>2022-07-21T07:02:00Z</time>
      </trkpt>
      <trkpt lat="44.17975" lon="5.25468">
        <ele>1430</ele>
        <time>2022-07-21T07:02:01Z</time>
      </trkpt>
      <trkpt lat="44.17975" lon="5.25466">
        <ele>1430.1</ele>
        <time>2022-07-21T07:02:02Z</time>
      </trkpt>
      <trkpt lat="44.17974" lon="5.25465">
        <ele>1430.2</ele>
        <time>2022-07-21T07:02:03Z</time>
      </trkpt>
      <trkpt lat="44.17974" lon="5.25463">
        <ele>1430.3</ele>
        <time>2022-07-21T07:02:04Z</time>
      </trkpt>
      <trkpt lat="44.17974" lon="5.25461">
        <ele>1430.4</ele>
        <time>2022-07-21T07:02:05Z</time>
      </trkpt>
      <trkpt lat="44.17975" lon="5.25459">
        <ele>1430.5</ele>
        <time>2022-07-21T07:02:06Z</time>
      </trkpt>
      <trkpt lat="44.17974" lon="5.25458">
        <ele>1430.6</ele>
        <time>2022-07-21T07:02:07Z</time>
      </trkpt>
      <trkpt lat="44.17974" lon="5.25458">
        <ele>1430.7</ele>
        <time>2022-07-21T07:02:08Z</time>
      </trkpt>
      <trkpt lat="44.17973" lon="5.25457">
        <ele>1430.7</ele>
        <time>2022-07-21T07:02:09Z</time>
      </trkpt>
      <trkpt lat="44.17972" lon="5.25456">
        <ele>1430.8</ele>
        <time>2022-07-21T07:02:10Z</time>
      </trkpt>
      <trkpt lat="44.17972" lon="5.25455">
        <ele>1430.9</ele>
        <time>2022-07-21T07:02:11Z</time>
      </trkpt>
      <trkpt lat="44.17972" lon="5.25454">
        <ele>1431</ele>
        <time>2022-07-21T07:02:12Z</time>
      </trkpt>
      <trkpt lat="44.17972" lon="5.25453">
        <ele>1431</ele>
        <time>2022-07-21T07:02:13Z</time>
      </trkpt>
      <trkpt lat="44.17971" lon="5.2545">
        <ele>1431.2</ele>
        <time>2022-07-21T07:02:14Z</time>
      </trkpt>
      <trkpt lat="44.17971" lon="5.25449">
        <ele>1431.2</ele>
        <time>2022-07-21T07:02:15Z</time>
      </trkpt>
      <trkpt lat="44.17971" lon="5.25448">
        <ele>1431.3</ele>
        <time>2022-07-21T07:02:16Z</time>
      </trkpt>
      <trkpt lat="44.1797" lon="5.25446">
        <ele>1431.4</ele>
        <time>2022-07-21T07:02:17Z</time>
      </trkpt>
      <trkpt lat="44.17969" lon="5.25444">
        <ele>1431.5</ele>
        <time>2022-07-21T07:02:18Z</time>
      </trkpt>
      <trkpt lat="44.17968" lon="5.25441">
        <ele>1431.7</ele>
        <time>2022-07-21T07:02:19Z</time>
      </trkpt>
      <trkpt lat="44.17968" lon="5.25439">
        <ele>1431.8</ele>
        <time>2022-07-21T07:02:20Z</time>
      </trkpt>
      <trkpt lat="44.17967" lon="5.25438">
        <ele>1431.8</ele>
        <time>2022-07-21T07:02:21Z</time>
      </trkpt>
      <trkpt lat="44.17965" lon="5.25434">
        <ele>1432.1</ele>
        <time>2022-07-21T07:02:22Z</time>
      </trkpt>
      <trkpt lat="44.17965" lon="5.25433">
        <ele>1432.1</ele>
        <time>2022-07-21T07:02:23Z</time>
      </trkpt>
      <trkpt lat="44.17964" lon="5.25431">
        <ele>1432.2</ele>
        <time>2022-07-21T07:02:24Z</time>
      </trkpt>
      <trkpt lat="44.17964" lon="5.25429">
        <ele>1432.3</ele>
        <time>2022-07-21T07:02:25Z</time>
      </trkpt>
      <trkpt lat="44.17963" lon="5.25425">
        <ele>1432.5</ele>
        <time>2022-07-21T07:02:26Z</time>
      </trkpt>
      <trkpt lat="44.17962" lon="5.25424">
        <ele>1432.6</ele>
        <time>2022-07-21T07:02:27Z</time>
      </trkpt>
      <trkpt lat="44.17959" lon="5.2542">
        <ele>1432.8</ele>
        <time>2022-07-21T07:02:28Z</time>
      </trkpt>
      <trkpt lat="44.17959" lon="5.25419">
        <ele>1432.9</ele>
        <time>2022-07-21T07:02:29Z</time>
      </trkpt>
      <trkpt lat="44.17956" lon="5.25416">
        <ele>1433.1</ele>
        <time>2022-07-21T07:02:30Z</time>
      </trkpt>
      <trkpt lat="44.17956" lon="5.25415">
        <ele>1433.1</ele>
        <time>2022-07-21T07:02:31Z</time>
      </trkpt>
      <trkpt lat="44.17955" lon="5.25412">
        <ele>1433.3</ele>
        <time>2022-07-21T07:02:32Z</time>
      </trkpt>
      <trkpt lat="44.17955" lon="5.25411">
        <ele>1433.3</ele>
        <time>2022-07-21T07:02:33Z</time>
      </trkpt>
      <trkpt lat="44.17955" lon="5.2541">
        <ele>1433.4</ele>
        <time>2022-07-21T07:02:34Z</time>
      </trkpt>
      <trkpt lat="44.17954" lon="5.25408">
        <ele>1433.5</ele>
        <time>2022-07-21T07:02:35Z</time>
      </trkpt>
      <trkpt lat="44.17953" lon="5.25407">
        <ele>1433.5</ele>
        <time>2022-07-21T07:02:36Z</time>
      </trkpt>
      <trkpt lat="44.17952" lon="5.25404">
        <ele>1433.7</ele>
        <time>2022-07-21T07:02:37Z</time>
      </trkpt>
      <trkpt lat="44.17952" lon="5.25403">
        <ele>1433.7</ele>
        <time>2022-07-21T07:02:38Z</time>
      </trkpt>
      <trkpt lat="44.17952" lon="5.25402">
        <ele>1433.8</ele>
        <time>2022-07-21T07:02:39Z</time>
      </trkpt>
      <trkpt lat="44.17952" lon="5.254">
        <ele>1433.9</ele>
        <time>2022-07-21T07:02:40Z</time>
      </trkpt>
      <trkpt lat="44.17952" lon="5.25399">
        <ele>1433.9</ele>
        <time>2022-07-21T07:02:41Z</time>
      </trkpt>
      <trkpt lat="44.17952" lon="5.25398">
        <ele>1434</ele>
        <time>2022-07-21T07:02:42Z</time>
      </trkpt>
      <trkpt lat="44.17952" lon="5.25396">
        <ele>1434.1</ele>
        <time>2022-07-21T07:02:43Z</time>
      </trkpt>
      <trkpt lat="44.17952" lon="5.25394">
        <ele>1434.2</ele>
        <time>2022-07-21T07:02:44Z</time>
      </trkpt>
      <trkpt lat="44.17952" lon="5.25393">
        <ele>1434.3</ele>
        <time>2022-07-21T07:02:45Z</time>
      </trkpt>
      <trkpt lat="44.17951" lon="5.25391">
        <ele>1434.4</ele>
        <time>2022-07-21T07:02:46Z</time>
      </trkpt>
      <trkpt lat="44.17951" lon="5.25388">
        <ele>1434.5</ele>
        <time>2022-07-21T07:02:47Z</time>
      </trkpt>
      <trkpt lat="44.17951" lon="5.25387">
        <ele>1434.6</ele>
        <time>2022-07-21T07:02:48Z</time>
      </trkpt>
      <trkpt lat="44.17951" lon="5.25386">
        <ele>1434.7</ele>
        <time>2022-07-21T07:02:49Z</time>
      </trkpt>
      <trkpt lat="44.17951" lon="5.25384">
        <ele>1434.8</ele>
        <time>2022-07-21T07:02:50Z</time>
      </trkpt>
      <trkpt lat="44.1795" lon="5.25381">
        <ele>1435</ele>
        <time>2022-07-21T07:02:51Z</time>
      </trkpt>
      <trkpt lat="44.17949" lon="5.25379">
        <ele>1435.1</ele>
        <time>2022-07-21T07:02:52Z</time>
      </trkpt>
      <trkpt lat="44.17949" lon="5.25377">
        <ele>1435.3</ele>
        <time>2022-07-21T07:02:53Z</time>
      </trkpt>
      <trkpt lat="44.17947" lon="5.25374">
        <ele>1435.5</ele>
        <time>2022-07-21T07:02:54Z</time>
      </trkpt>
      <trkpt lat="44.17947" lon="5.25373">
        <ele>1435.6</ele>
        <time>2022-07-21T07:02:55Z</time>
      </trkpt>
      <trkpt lat="44.17945" lon="5.25369">
        <ele>1435.9</ele>
        <time>2022-07-21T07:02:56Z</time>
      </trkpt>
      <trkpt lat="44.17944" lon="5.25368">
        <ele>1436</ele>
        <time>2022-07-21T07:02:57Z</time>
      </trkpt>
      <trkpt lat="44.17942" lon="5.25365">
        <ele>1436.4</ele>
        <time>2022-07-21T07:02:58Z</time>
      </trkpt>
      <trkpt lat="44.17941" lon="5.25364">
        <ele>1436.4</ele>
        <time>2022-07-21T07:02:59Z</time>
      </trkpt>
      <trkpt lat="44.1794" lon="5.25361">
        <ele>1436.6</ele>
        <time>2022-07-21T07:03:00Z</time>
      </trkpt>
      <trkpt lat="44.1794" lon="5.25359">
        <ele>1436.8</ele>
        <time>2022-07-21T07:03:01Z</time>
      </trkpt>
      <trkpt lat="44.17939" lon="5.25358">
        <ele>1436.9</ele>
        <time>2022-07-21T07:03:02Z</time>
      </trkpt>
      <trkpt lat="44.17939" lon="5.25356">
        <ele>1437</ele>
        <time>2022-07-21T07:03:03Z</time>
      </trkpt>
      <trkpt lat="44.17939" lon="5.25355">
        <ele>1437.1</ele>
        <time>2022-07-21T07:03:04Z</time>
      </trkpt>
      <trkpt lat="44.17939" lon="5.25353">
        <ele>1437.2</ele>
        <time>2022-07-21T07:03:05Z</time>
      </trkpt>
      <trkpt lat="44.17938" lon="5.25352">
        <ele>1437.4</ele>
        <time>2022-07-21T07:03:06Z</time>
      </trkpt>
      <trkpt lat="44.17938" lon="5.2535">
        <ele>1437.5</ele>
        <time>2022-07-21T07:03:07Z</time>
      </trkpt>
      <trkpt lat="44.17938" lon="5.25348">
        <ele>1437.6</ele>
        <time>2022-07-21T07:03:08Z</time>
      </trkpt>
      <trkpt lat="44.17938" lon="5.25346">
        <ele>1437.8</ele>
        <time>2022-07-21T07:03:09Z</time>
      </trkpt>
      <trkpt lat="44.17937" lon="5.25344">
        <ele>1438</ele>
        <time>2022-07-21T07:03:10Z</time>
      </trkpt>
      <trkpt lat="44.17937" lon="5.25342">
        <ele>1438.1</ele>
        <time>2022-07-21T07:03:11Z</time>
      </trkpt>
      <trkpt lat="44.17938" lon="5.25339">
        <ele>1438.3</ele>
        <time>2022-07-21T07:03:12Z</time>
      </trkpt>
      <trkpt lat="44.17938" lon="5.25338">
        <ele>1438.4</ele>
        <time>2022-07-21T07:03:13Z</time>
      </trkpt>
      <trkpt lat="44.17938" lon="5.25336">
        <ele>1438.6</ele>
        <time>2022-07-21T07:03:14Z</time>
      </trkpt>
      <trkpt lat="44.17937" lon="5.25333">
        <ele>1438.8</ele>
        <time>2022-07-21T07:03:15Z</time>
      </trkpt>
      <trkpt lat="44.17937" lon="5.25332">
        <ele>1438.9</ele>
        <time>2022-07-21T07:03:16Z</time>
      </trkpt>
      <trkpt lat="44.17936" lon="5.25331">
        <ele>1439</ele>
        <time>2022-07-21T07:03:17Z</time>
      </trkpt>
      <trkpt lat="44.17936" lon="5.2533">
        <ele>1439.1</ele>
        <time>2022-07-21T07:03:18Z</time>
      </trkpt>
      <trkpt lat="44.17935" lon="5.25329">
        <ele>1439.2</ele>
        <time>2022-07-21T07:03:19Z</time>
      </trkpt>
      <trkpt lat="44.17935" lon="5.25328">
        <ele>1439.3</ele>
        <time>2022-07-21T07:03:20Z</time>
      </trkpt>
      <trkpt lat="44.17934" lon="5.25327">
        <ele>1439.3</ele>
        <time>2022-07-21T07:03:21Z</time>
      </trkpt>
      <trkpt lat="44.17935" lon="5.25326">
        <ele>1439.4</ele>
        <time>2022-07-21T07:03:22Z</time>
      </trkpt>
      <trkpt lat="44.17934" lon="5.25325">
        <ele>1439.5</ele>
        <time>2022-07-21T07:03:23Z</time>
      </trkpt>
      <trkpt lat="44.17934" lon="5.25324">
        <ele>1439.6</ele>
        <time>2022-07-21T07:03:24Z</time>
      </trkpt>
      <trkpt lat="44.17934" lon="5.25322">
        <ele>1439.7</ele>
        <time>2022-07-21T07:03:25Z</time>
      </trkpt>
      <trkpt lat="44.17935" lon="5.25321">
        <ele>1439.8</ele>
        <time>2022-07-21T07:03:26Z</time>
      </trkpt>
      <trkpt lat="44.17935" lon="5.25319">
        <ele>1439.9</ele>
        <time>2022-07-21T07:03:27Z</time>
      </trkpt>
      <trkpt lat="44.17935" lon="5.25318">
        <ele>1440.1</ele>
        <time>2022-07-21T07:03:28Z</time>
      </trkpt>
      <trkpt lat="44.17935" lon="5.25316">
        <ele>1440.2</ele>
        <time>2022-07-21T07:03:29Z</time>
      </trkpt>
      <trkpt lat="44.17935" lon="5.25315">
        <ele>1440.3</ele>
        <time>2022-07-21T07:03:30Z</time>
      </trkpt>
      <trkpt lat="44.17934" lon="5.25311">
        <ele>1440.7</ele>
        <time>2022-07-21T07:03:31Z</time>
      </trkpt>
      <trkpt lat="44.17934" lon="5.25309">
        <ele>1440.8</ele>
        <time>2022-07-21T07:03:32Z</time>
      </trkpt>
      <trkpt lat="44.17933" lon="5.25305">
        <ele>1441.1</ele>
        <time>2022-07-21T07:03:33Z</time>
      </trkpt>
      <trkpt lat="44.17933" lon="5.25304">
        <ele>1441.2</ele>
        <time>2022-07-21T07:03:34Z</time>
      </trkpt>
      <trkpt lat="44.17932" lon="5.25302">
        <ele>1441.4</ele>
        <time>2022-07-21T07:03:35Z</time>
      </trkpt>
      <trkpt lat="44.17932" lon="5.253">
        <ele>1441.6</ele>
        <time>2022-07-21T07:03:36Z</time>
      </trkpt>
      <trkpt lat="44.17932" lon="5.25298">
        <ele>1441.7</ele>
        <time>2022-07-21T07:03:37Z</time>
      </trkpt>
      <trkpt lat="44.17932" lon="5.25297">
        <ele>1441.9</ele>
        <time>2022-07-21T07:03:38Z</time>
      </trkpt>
      <trkpt lat="44.17932" lon="5.25295">
        <ele>1442</ele>
        <time>2022-07-21T07:03:39Z</time>
      </trkpt>
      <trkpt lat="44.17931" lon="5.25293">
        <ele>1442.2</ele>
        <time>2022-07-21T07:03:40Z</time>
      </trkpt>
      <trkpt lat="44.1793" lon="5.25291">
        <ele>1442.4</ele>
        <time>2022-07-21T07:03:41Z</time>
      </trkpt>
      <trkpt lat="44.17929" lon="5.25288">
        <ele>1442.7</ele>
        <time>2022-07-21T07:03:42Z</time>
      </trkpt>
      <trkpt lat="44.17928" lon="5.25287">
        <ele>1442.9</ele>
        <time>2022-07-21T07:03:43Z</time>
      </trkpt>
      <trkpt lat="44.17926" lon="5.25284">
        <ele>1443.2</ele>
        <time>2022-07-21T07:03:44Z</time>
      </trkpt>
      <trkpt lat="44.17924" lon="5.25281">
        <ele>1443.6</ele>
        <time>2022-07-21T07:03:45Z</time>
      </trkpt>
      <trkpt lat="44.17921" lon="5.25279">
        <ele>1444</ele>
        <time>2022-07-21T07:03:46Z</time>
      </trkpt>
      <trkpt lat="44.17919" lon="5.25276">
        <ele>1444.5</ele>
        <time>2022-07-21T07:03:47Z</time>
      </trkpt>
      <trkpt lat="44.17918" lon="5.25275">
        <ele>1444.7</ele>
        <time>2022-07-21T07:03:48Z</time>
      </trkpt>
      <trkpt lat="44.17916" lon="5.25272">
        <ele>1445.1</ele>
        <time>2022-07-21T07:03:49Z</time>
      </trkpt>
      <trkpt lat="44.17915" lon="5.25271">
        <ele>1445.3</ele>
        <time>2022-07-21T07:03:50Z</time>
      </trkpt>
      <trkpt lat="44.17915" lon="5.25269">
        <ele>1445.5</ele>
        <time>2022-07-21T07:03:51Z</time>
      </trkpt>
      <trkpt lat="44.17914" lon="5.25267">
        <ele>1445.7</ele>
        <time>2022-07-21T07:03:52Z</time>
      </trkpt>
      <trkpt lat="44.17913" lon="5.25265">
        <ele>1445.9</ele>
        <time>2022-07-21T07:03:53Z</time>
      </trkpt>
      <trkpt lat="44.17913" lon="5.25263">
        <ele>1446.1</ele>
        <time>2022-07-21T07:03:54Z</time>
      </trkpt>
      <trkpt lat="44.17912" lon="5.25261">
        <ele>1446.4</ele>
        <time>2022-07-21T07:03:55Z</time>
      </trkpt>
      <trkpt lat="44.17912" lon="5.2526">
        <ele>1446.5</ele>
        <time>2022-07-21T07:03:56Z</time>
      </trkpt>
      <trkpt lat="44.17912" lon="5.25258">
        <ele>1446.7</ele>
        <time>2022-07-21T07:03:57Z</time>
      </trkpt>
      <trkpt lat="44.17911" lon="5.25256">
        <ele>1446.9</ele>
        <time>2022-07-21T07:03:58Z</time>
      </trkpt>
      <trkpt lat="44.17911" lon="5.25255">
        <ele>1447.1</ele>
        <time>2022-07-21T07:03:59Z</time>
      </trkpt>
      <trkpt lat="44.17911" lon="5.25253">
        <ele>1447.3</ele>
        <time>2022-07-21T07:04:00Z</time>
      </trkpt>
      <trkpt lat="44.17911" lon="5.2525">
        <ele>1447.5</ele>
        <time>2022-07-21T07:04:01Z</time>
      </trkpt>
      <trkpt lat="44.17911" lon="5.25249">
        <ele>1447.7</ele>
        <time>2022-07-21T07:04:02Z</time>
      </trkpt>
      <trkpt lat="44.17912" lon="5.25248">
        <ele>1447.8</ele>
        <time>2022-07-21T07:04:03Z</time>
      </trkpt>
      <trkpt lat="44.17912" lon="5.25246">
        <ele>1448</ele>
        <time>2022-07-21T07:04:04Z</time>
      </trkpt>
      <trkpt lat="44.17912" lon="5.25245">
        <ele>1448.2</ele>
        <time>2022-07-21T07:04:05Z</time>
      </trkpt>
      <trkpt lat="44.17912" lon="5.25243">
        <ele>1448.4</ele>
        <time>2022-07-21T07:04:06Z</time>
      </trkpt>
      <trkpt lat="44.17913" lon="5.25241">
        <ele>1448.6</ele>
        <time>2022-07-21T07:04:07Z</time>
      </trkpt>
      <trkpt lat="44.17913" lon="5.25239">
        <ele>1448.8</ele>
        <time>2022-07-21T07:04:08Z</time>
      </trkpt>
      <trkpt lat="44.17914" lon="5.25238">
        <ele>1448.9</ele>
        <time>2022-07-21T07:04:09Z</time>
      </trkpt>
      <trkpt lat="44.17913" lon="5.25235">
        <ele>1449.2</ele>
        <time>2022-07-21T07:04:10Z</time>
      </trkpt>
      <trkpt lat="44.17913" lon="5.25234">
        <ele>1449.4</ele>
        <time>2022-07-21T07:04:11Z</time>
      </trkpt>
      <trkpt lat="44.17912" lon="5.25233">
        <ele>1449.5</ele>
        <time>2022-07-21T07:04:12Z</time>
      </trkpt>
      <trkpt lat="44.17911" lon="5.25232">
        <ele>1449.8</ele>
        <time>2022-07-21T07:04:13Z</time>
      </trkpt>
      <trkpt lat="44.17911" lon="5.2523">
        <ele>1450</ele>
        <time>2022-07-21T07:04:14Z</time>
      </trkpt>
      <trkpt lat="44.1791" lon="5.25228">
        <ele>1450.2</ele>
        <time>2022-07-21T07:04:15Z</time>
      </trkpt>
      <trkpt lat="44.17909" lon="5.25226">
        <ele>1450.5</ele>
        <time>2022-07-21T07:04:16Z</time>
      </trkpt>
      <trkpt lat="44.17908" lon="5.25225">
        <ele>1450.7</ele>
        <time>2022-07-21T07:04:17Z</time>
      </trkpt>
      <trkpt lat="44.17908" lon="5.25223">
        <ele>1450.9</ele>
        <time>2022-07-21T07:04:18Z</time>
      </trkpt>
      <trkpt lat="44.17907" lon="5.2522">
        <ele>1451.3</ele>
        <time>2022-07-21T07:04:20Z</time>
      </trkpt>
      <trkpt lat="44.17906" lon="5.25219">
        <ele>1451.4</ele>
        <time>2022-07-21T07:04:21Z</time>
      </trkpt>
      <trkpt lat="44.17906" lon="5.25218">
        <ele>1451.5</ele>
        <time>2022-07-21T07:04:22Z</time>
      </trkpt>
      <trkpt lat="44.17905" lon="5.25217">
        <ele>1451.7</ele>
        <time>2022-07-21T07:04:23Z</time>
      </trkpt>
      <trkpt lat="44.17905" lon="5.25215">
        <ele>1451.9</ele>
        <time>2022-07-21T07:04:24Z</time>
      </trkpt>
      <trkpt lat="44.17905" lon="5.25213">
        <ele>1452.1</ele>
        <time>2022-07-21T07:04:25Z</time>
      </trkpt>
      <trkpt lat="44.17905" lon="5.25211">
        <ele>1452.3</ele>
        <time>2022-07-21T07:04:26Z</time>
      </trkpt>
      <trkpt lat="44.17905" lon="5.25209">
        <ele>1452.5</ele>
        <time>2022-07-21T07:04:27Z</time>
      </trkpt>
      <trkpt lat="44.17903" lon="5.25208">
        <ele>1452.8</ele>
        <time>2022-07-21T07:04:28Z</time>
      </trkpt>
      <trkpt lat="44.17902" lon="5.25206">
        <ele>1453</ele>
        <time>2022-07-21T07:04:29Z</time>
      </trkpt>
      <trkpt lat="44.17902" lon="5.25204">
        <ele>1453.3</ele>
        <time>2022-07-21T07:04:30Z</time>
      </trkpt>
      <trkpt lat="44.17902" lon="5.25202">
        <ele>1453.5</ele>
        <time>2022-07-21T07:04:31Z</time>
      </trkpt>
      <trkpt lat="44.17901" lon="5.252">
        <ele>1453.7</ele>
        <time>2022-07-21T07:04:32Z</time>
      </trkpt>
      <trkpt lat="44.17901" lon="5.25198">
        <ele>1454</ele>
        <time>2022-07-21T07:04:33Z</time>
      </trkpt>
      <trkpt lat="44.179" lon="5.25195">
        <ele>1454.3</ele>
        <time>2022-07-21T07:04:34Z</time>
      </trkpt>
      <trkpt lat="44.179" lon="5.25194">
        <ele>1454.4</ele>
        <time>2022-07-21T07:04:35Z</time>
      </trkpt>
      <trkpt lat="44.17899" lon="5.25193">
        <ele>1454.5</ele>
        <time>2022-07-21T07:04:36Z</time>
      </trkpt>
      <trkpt lat="44.17899" lon="5.25193">
        <ele>1454.5</ele>
        <time>2022-07-21T07:04:37Z</time>
      </trkpt>
      <trkpt lat="44.17899" lon="5.25193">
        <ele>1454.5</ele>
        <time>2022-07-21T07:04:38Z</time>
      </trkpt>
      <trkpt lat="44.17899" lon="5.25193">
        <ele>1454.5</ele>
        <time>2022-07-21T07:04:39Z</time>
      </trkpt>
      <trkpt lat="44.17899" lon="5.25193">
        <ele>1454.5</ele>
        <time>2022-07-21T07:04:40Z</time>
      </trkpt>
      <trkpt lat="44.179" lon="5.25189">
        <ele>1455</ele>
        <time>2022-07-21T07:04:41Z</time>
      </trkpt>
      <trkpt lat="44.179" lon="5.25187">
        <ele>1455.2</ele>
        <time>2022-07-21T07:04:42Z</time>
      </trkpt>
      <trkpt lat="44.17901" lon="5.25185">
        <ele>1455.4</ele>
        <time>2022-07-21T07:04:43Z</time>
      </trkpt>
      <trkpt lat="44.17902" lon="5.25184">
        <ele>1455.6</ele>
        <time>2022-07-21T07:04:44Z</time>
      </trkpt>
      <trkpt lat="44.17903" lon="5.25184">
        <ele>1455.8</ele>
        <time>2022-07-21T07:04:45Z</time>
      </trkpt>
      <trkpt lat="44.17904" lon="5.25183">
        <ele>1455.9</ele>
        <time>2022-07-21T07:04:46Z</time>
      </trkpt>
      <trkpt lat="44.17904" lon="5.25182">
        <ele>1456</ele>
        <time>2022-07-21T07:04:47Z</time>
      </trkpt>
      <trkpt lat="44.17903" lon="5.25181">
        <ele>1456.1</ele>
        <time>2022-07-21T07:04:48Z</time>
      </trkpt>
      <trkpt lat="44.17902" lon="5.25179">
        <ele>1456.3</ele>
        <time>2022-07-21T07:04:49Z</time>
      </trkpt>
      <trkpt lat="44.17902" lon="5.25176">
        <ele>1456.6</ele>
        <time>2022-07-21T07:04:50Z</time>
      </trkpt>
      <trkpt lat="44.17901" lon="5.25175">
        <ele>1456.7</ele>
        <time>2022-07-21T07:04:51Z</time>
      </trkpt>
      <trkpt lat="44.17901" lon="5.25173">
        <ele>1456.8</ele>
        <time>2022-07-21T07:04:52Z</time>
      </trkpt>
      <trkpt lat="44.17901" lon="5.25172">
        <ele>1457</ele>
        <time>2022-07-21T07:04:53Z</time>
      </trkpt>
      <trkpt lat="44.17901" lon="5.2517">
        <ele>1457.1</ele>
        <time>2022-07-21T07:04:54Z</time>
      </trkpt>
      <trkpt lat="44.17902" lon="5.25169">
        <ele>1457.2</ele>
        <time>2022-07-21T07:04:55Z</time>
      </trkpt>
      <trkpt lat="44.17902" lon="5.25168">
        <ele>1457.3</ele>
        <time>2022-07-21T07:04:56Z</time>
      </trkpt>
      <trkpt lat="44.17903" lon="5.25167">
        <ele>1457.4</ele>
        <time>2022-07-21T07:04:57Z</time>
      </trkpt>
      <trkpt lat="44.17903" lon="5.25166">
        <ele>1457.5</ele>
        <time>2022-07-21T07:04:58Z</time>
      </trkpt>
      <trkpt lat="44.17903" lon="5.25166">
        <ele>1457.5</ele>
        <time>2022-07-21T07:04:59Z</time>
      </trkpt>
      <trkpt lat="44.17903" lon="5.25165">
        <ele>1457.5</ele>
        <time>2022-07-21T07:05:00Z</time>
      </trkpt>
      <trkpt lat="44.17903" lon="5.25165">
        <ele>1457.6</ele>
        <time>2022-07-21T07:05:01Z</time>
      </trkpt>
      <trkpt lat="44.17902" lon="5.25164">
        <ele>1457.7</ele>
        <time>2022-07-21T07:05:02Z</time>
      </trkpt>
      <trkpt lat="44.17902" lon="5.25161">
        <ele>1457.8</ele>
        <time>2022-07-21T07:05:03Z</time>
      </trkpt>
      <trkpt lat="44.17903" lon="5.25159">
        <ele>1458</ele>
        <time>2022-07-21T07:05:04Z</time>
      </trkpt>
      <trkpt lat="44.17904" lon="5.25157">
        <ele>1458.2</ele>
        <time>2022-07-21T07:05:05Z</time>
      </trkpt>
      <trkpt lat="44.17905" lon="5.25154">
        <ele>1458.4</ele>
        <time>2022-07-21T07:05:06Z</time>
      </trkpt>
      <trkpt lat="44.17905" lon="5.25152">
        <ele>1458.5</ele>
        <time>2022-07-21T07:05:07Z</time>
      </trkpt>
      <trkpt lat="44.17905" lon="5.25151">
        <ele>1458.6</ele>
        <time>2022-07-21T07:05:08Z</time>
      </trkpt>
      <trkpt lat="44.17905" lon="5.2515">
        <ele>1458.7</ele>
        <time>2022-07-21T07:05:09Z</time>
      </trkpt>
      <trkpt lat="44.17906" lon="5.25149">
        <ele>1458.8</ele>
        <time>2022-07-21T07:05:10Z</time>
      </trkpt>
      <trkpt lat="44.17906" lon="5.25148">
        <ele>1458.9</ele>
        <time>2022-07-21T07:05:11Z</time>
      </trkpt>
      <trkpt lat="44.17906" lon="5.25146">
        <ele>1459</ele>
        <time>2022-07-21T07:05:12Z</time>
      </trkpt>
      <trkpt lat="44.17906" lon="5.25143">
        <ele>1459.2</ele>
        <time>2022-07-21T07:05:13Z</time>
      </trkpt>
      <trkpt lat="44.17906" lon="5.2514">
        <ele>1459.4</ele>
        <time>2022-07-21T07:05:14Z</time>
      </trkpt>
      <trkpt lat="44.17906" lon="5.25138">
        <ele>1459.5</ele>
        <time>2022-07-21T07:05:15Z</time>
      </trkpt>
      <trkpt lat="44.17905" lon="5.25136">
        <ele>1459.7</ele>
        <time>2022-07-21T07:05:16Z</time>
      </trkpt>
      <trkpt lat="44.17904" lon="5.25132">
        <ele>1460</ele>
        <time>2022-07-21T07:05:17Z</time>
      </trkpt>
      <trkpt lat="44.17904" lon="5.25131">
        <ele>1460.1</ele>
        <time>2022-07-21T07:05:18Z</time>
      </trkpt>
      <trkpt lat="44.17904" lon="5.25127">
        <ele>1460.3</ele>
        <time>2022-07-21T07:05:19Z</time>
      </trkpt>
      <trkpt lat="44.17904" lon="5.25126">
        <ele>1460.4</ele>
        <time>2022-07-21T07:05:20Z</time>
      </trkpt>
      <trkpt lat="44.17904" lon="5.25124">
        <ele>1460.6</ele>
        <time>2022-07-21T07:05:21Z</time>
      </trkpt>
      <trkpt lat="44.17904" lon="5.25122">
        <ele>1460.7</ele>
        <time>2022-07-21T07:05:22Z</time>
      </trkpt>
      <trkpt lat="44.17904" lon="5.2512">
        <ele>1460.8</ele>
        <time>2022-07-21T07:05:23Z</time>
      </trkpt>
      <trkpt lat="44.17903" lon="5.25118">
        <ele>1461</ele>
        <time>2022-07-21T07:05:24Z</time>
      </trkpt>
      <trkpt lat="44.17902" lon="5.25114">
        <ele>1461.3</ele>
        <time>2022-07-21T07:05:25Z</time>
      </trkpt>
      <trkpt lat="44.17902" lon="5.25113">
        <ele>1461.4</ele>
        <time>2022-07-21T07:05:26Z</time>
      </trkpt>
      <trkpt lat="44.17902" lon="5.25108">
        <ele>1461.7</ele>
        <time>2022-07-21T07:05:27Z</time>
      </trkpt>
      <trkpt lat="44.17902" lon="5.25107">
        <ele>1461.8</ele>
        <time>2022-07-21T07:05:28Z</time>
      </trkpt>
      <trkpt lat="44.17903" lon="5.25105">
        <ele>1462</ele>
        <time>2022-07-21T07:05:29Z</time>
      </trkpt>
      <trkpt lat="44.17904" lon="5.25103">
        <ele>1462.1</ele>
        <time>2022-07-21T07:05:30Z</time>
      </trkpt>
      <trkpt lat="44.17904" lon="5.25102">
        <ele>1462.3</ele>
        <time>2022-07-21T07:05:31Z</time>
      </trkpt>
      <trkpt lat="44.17904" lon="5.251">
        <ele>1462.4</ele>
        <time>2022-07-21T07:05:32Z</time>
      </trkpt>
      <trkpt lat="44.17904" lon="5.25098">
        <ele>1462.5</ele>
        <time>2022-07-21T07:05:33Z</time>
      </trkpt>
      <trkpt lat="44.17904" lon="5.25095">
        <ele>1462.7</ele>
        <time>2022-07-21T07:05:34Z</time>
      </trkpt>
      <trkpt lat="44.17904" lon="5.25094">
        <ele>1462.8</ele>
        <time>2022-07-21T07:05:35Z</time>
      </trkpt>
      <trkpt lat="44.17904" lon="5.25093">
        <ele>1462.9</ele>
        <time>2022-07-21T07:05:36Z</time>
      </trkpt>
      <trkpt lat="44.17904" lon="5.25091">
        <ele>1463</ele>
        <time>2022-07-21T07:05:37Z</time>
      </trkpt>
      <trkpt lat="44.17904" lon="5.25089">
        <ele>1463.2</ele>
        <time>2022-07-21T07:05:38Z</time>
      </trkpt>
      <trkpt lat="44.17904" lon="5.25087">
        <ele>1463.3</ele>
        <time>2022-07-21T07:05:39Z</time>
      </trkpt>
      <trkpt lat="44.17903" lon="5.25084">
        <ele>1463.5</ele>
        <time>2022-07-21T07:05:40Z</time>
      </trkpt>
      <trkpt lat="44.17901" lon="5.25081">
        <ele>1463.8</ele>
        <time>2022-07-21T07:05:41Z</time>
      </trkpt>
      <trkpt lat="44.17901" lon="5.25079">
        <ele>1464</ele>
        <time>2022-07-21T07:05:42Z</time>
      </trkpt>
      <trkpt lat="44.179" lon="5.25078">
        <ele>1464.1</ele>
        <time>2022-07-21T07:05:43Z</time>
      </trkpt>
      <trkpt lat="44.17899" lon="5.25077">
        <ele>1464.2</ele>
        <time>2022-07-21T07:05:44Z</time>
      </trkpt>
      <trkpt lat="44.17898" lon="5.25076">
        <ele>1464.3</ele>
        <time>2022-07-21T07:05:45Z</time>
      </trkpt>
      <trkpt lat="44.17897" lon="5.25074">
        <ele>1464.5</ele>
        <time>2022-07-21T07:05:46Z</time>
      </trkpt>
      <trkpt lat="44.17895" lon="5.25073">
        <ele>1464.7</ele>
        <time>2022-07-21T07:05:47Z</time>
      </trkpt>
      <trkpt lat="44.17892" lon="5.25071">
        <ele>1465</ele>
        <time>2022-07-21T07:05:48Z</time>
      </trkpt>
      <trkpt lat="44.17891" lon="5.2507">
        <ele>1465.1</ele>
        <time>2022-07-21T07:05:49Z</time>
      </trkpt>
      <trkpt lat="44.17889" lon="5.25066">
        <ele>1465.4</ele>
        <time>2022-07-21T07:05:50Z</time>
      </trkpt>
      <trkpt lat="44.17888" lon="5.25065">
        <ele>1465.6</ele>
        <time>2022-07-21T07:05:51Z</time>
      </trkpt>
      <trkpt lat="44.17887" lon="5.25062">
        <ele>1465.7</ele>
        <time>2022-07-21T07:05:52Z</time>
      </trkpt>
      <trkpt lat="44.17886" lon="5.25061">
        <ele>1465.8</ele>
        <time>2022-07-21T07:05:53Z</time>
      </trkpt>
      <trkpt lat="44.17885" lon="5.25057">
        <ele>1466.1</ele>
        <time>2022-07-21T07:05:54Z</time>
      </trkpt>
      <trkpt lat="44.17885" lon="5.25056">
        <ele>1466.1</ele>
        <time>2022-07-21T07:05:55Z</time>
      </trkpt>
      <trkpt lat="44.17885" lon="5.25053">
        <ele>1466.3</ele>
        <time>2022-07-21T07:05:56Z</time>
      </trkpt>
      <trkpt lat="44.17885" lon="5.25051">
        <ele>1466.4</ele>
        <time>2022-07-21T07:05:57Z</time>
      </trkpt>
      <trkpt lat="44.17885" lon="5.25047">
        <ele>1466.7</ele>
        <time>2022-07-21T07:05:58Z</time>
      </trkpt>
      <trkpt lat="44.17884" lon="5.25046">
        <ele>1466.7</ele>
        <time>2022-07-21T07:05:59Z</time>
      </trkpt>
      <trkpt lat="44.17885" lon="5.25043">
        <ele>1466.8</ele>
        <time>2022-07-21T07:06:00Z</time>
      </trkpt>
      <trkpt lat="44.17885" lon="5.25041">
        <ele>1466.9</ele>
        <time>2022-07-21T07:06:01Z</time>
      </trkpt>
      <trkpt lat="44.17885" lon="5.2504">
        <ele>1467</ele>
        <time>2022-07-21T07:06:02Z</time>
      </trkpt>
      <trkpt lat="44.17885" lon="5.25038">
        <ele>1467.1</ele>
        <time>2022-07-21T07:06:03Z</time>
      </trkpt>
      <trkpt lat="44.17885" lon="5.25037">
        <ele>1467.2</ele>
        <time>2022-07-21T07:06:04Z</time>
      </trkpt>
      <trkpt lat="44.17885" lon="5.25034">
        <ele>1467.3</ele>
        <time>2022-07-21T07:06:05Z</time>
      </trkpt>
      <trkpt lat="44.17884" lon="5.25032">
        <ele>1467.4</ele>
        <time>2022-07-21T07:06:06Z</time>
      </trkpt>
      <trkpt lat="44.17883" lon="5.25031">
        <ele>1467.5</ele>
        <time>2022-07-21T07:06:07Z</time>
      </trkpt>
      <trkpt lat="44.17881" lon="5.25027">
        <ele>1467.7</ele>
        <time>2022-07-21T07:06:08Z</time>
      </trkpt>
      <trkpt lat="44.17881" lon="5.25026">
        <ele>1467.7</ele>
        <time>2022-07-21T07:06:09Z</time>
      </trkpt>
      <trkpt lat="44.1788" lon="5.25024">
        <ele>1467.8</ele>
        <time>2022-07-21T07:06:10Z</time>
      </trkpt>
      <trkpt lat="44.17879" lon="5.25023">
        <ele>1467.9</ele>
        <time>2022-07-21T07:06:11Z</time>
      </trkpt>
      <trkpt lat="44.17879" lon="5.2502">
        <ele>1468</ele>
        <time>2022-07-21T07:06:12Z</time>
      </trkpt>
      <trkpt lat="44.17879" lon="5.25019">
        <ele>1468.1</ele>
        <time>2022-07-21T07:06:13Z</time>
      </trkpt>
      <trkpt lat="44.17879" lon="5.25017">
        <ele>1468.1</ele>
        <time>2022-07-21T07:06:14Z</time>
      </trkpt>
      <trkpt lat="44.17878" lon="5.25014">
        <ele>1468.3</ele>
        <time>2022-07-21T07:06:15Z</time>
      </trkpt>
      <trkpt lat="44.17877" lon="5.25013">
        <ele>1468.3</ele>
        <time>2022-07-21T07:06:16Z</time>
      </trkpt>
      <trkpt lat="44.17877" lon="5.25012">
        <ele>1468.4</ele>
        <time>2022-07-21T07:06:17Z</time>
      </trkpt>
      <trkpt lat="44.17876" lon="5.25011">
        <ele>1468.5</ele>
        <time>2022-07-21T07:06:18Z</time>
      </trkpt>
      <trkpt lat="44.17876" lon="5.2501">
        <ele>1468.5</ele>
        <time>2022-07-21T07:06:19Z</time>
      </trkpt>
      <trkpt lat="44.17876" lon="5.25008">
        <ele>1468.6</ele>
        <time>2022-07-21T07:06:20Z</time>
      </trkpt>
      <trkpt lat="44.17877" lon="5.25006">
        <ele>1468.7</ele>
        <time>2022-07-21T07:06:21Z</time>
      </trkpt>
      <trkpt lat="44.17878" lon="5.25004">
        <ele>1468.8</ele>
        <time>2022-07-21T07:06:22Z</time>
      </trkpt>
      <trkpt lat="44.17878" lon="5.25003">
        <ele>1468.9</ele>
        <time>2022-07-21T07:06:23Z</time>
      </trkpt>
      <trkpt lat="44.17877" lon="5.25002">
        <ele>1468.9</ele>
        <time>2022-07-21T07:06:24Z</time>
      </trkpt>
      <trkpt lat="44.17877" lon="5.25">
        <ele>1469</ele>
        <time>2022-07-21T07:06:25Z</time>
      </trkpt>
      <trkpt lat="44.17876" lon="5.24998">
        <ele>1469.1</ele>
        <time>2022-07-21T07:06:26Z</time>
      </trkpt>
      <trkpt lat="44.17875" lon="5.24997">
        <ele>1469.2</ele>
        <time>2022-07-21T07:06:27Z</time>
      </trkpt>
      <trkpt lat="44.17874" lon="5.24995">
        <ele>1469.3</ele>
        <time>2022-07-21T07:06:28Z</time>
      </trkpt>
      <trkpt lat="44.17874" lon="5.24994">
        <ele>1469.4</ele>
        <time>2022-07-21T07:06:29Z</time>
      </trkpt>
      <trkpt lat="44.17874" lon="5.24993">
        <ele>1469.5</ele>
        <time>2022-07-21T07:06:30Z</time>
      </trkpt>
      <trkpt lat="44.17873" lon="5.24992">
        <ele>1469.5</ele>
        <time>2022-07-21T07:06:31Z</time>
      </trkpt>
      <trkpt lat="44.17872" lon="5.2499">
        <ele>1469.7</ele>
        <time>2022-07-21T07:06:32Z</time>
      </trkpt>
      <trkpt lat="44.17872" lon="5.24988">
        <ele>1469.8</ele>
        <time>2022-07-21T07:06:33Z</time>
      </trkpt>
      <trkpt lat="44.17872" lon="5.24987">
        <ele>1469.8</ele>
        <time>2022-07-21T07:06:34Z</time>
      </trkpt>
      <trkpt lat="44.17872" lon="5.24986">
        <ele>1469.9</ele>
        <time>2022-07-21T07:06:35Z</time>
      </trkpt>
      <trkpt lat="44.17873" lon="5.24983">
        <ele>1470</ele>
        <time>2022-07-21T07:06:36Z</time>
      </trkpt>
      <trkpt lat="44.17873" lon="5.24982">
        <ele>1470.1</ele>
        <time>2022-07-21T07:06:37Z</time>
      </trkpt>
      <trkpt lat="44.17873" lon="5.24979">
        <ele>1470.3</ele>
        <time>2022-07-21T07:06:38Z</time>
      </trkpt>
      <trkpt lat="44.17873" lon="5.24978">
        <ele>1470.4</ele>
        <time>2022-07-21T07:06:39Z</time>
      </trkpt>
      <trkpt lat="44.17872" lon="5.24977">
        <ele>1470.5</ele>
        <time>2022-07-21T07:06:40Z</time>
      </trkpt>
      <trkpt lat="44.17871" lon="5.24975">
        <ele>1470.6</ele>
        <time>2022-07-21T07:06:41Z</time>
      </trkpt>
      <trkpt lat="44.1787" lon="5.24974">
        <ele>1470.7</ele>
        <time>2022-07-21T07:06:42Z</time>
      </trkpt>
      <trkpt lat="44.17868" lon="5.24971">
        <ele>1470.9</ele>
        <time>2022-07-21T07:06:43Z</time>
      </trkpt>
      <trkpt lat="44.17867" lon="5.2497">
        <ele>1471</ele>
        <time>2022-07-21T07:06:44Z</time>
      </trkpt>
      <trkpt lat="44.17866" lon="5.24968">
        <ele>1471.1</ele>
        <time>2022-07-21T07:06:45Z</time>
      </trkpt>
      <trkpt lat="44.17865" lon="5.24967">
        <ele>1471.2</ele>
        <time>2022-07-21T07:06:46Z</time>
      </trkpt>
      <trkpt lat="44.17865" lon="5.24966">
        <ele>1471.3</ele>
        <time>2022-07-21T07:06:47Z</time>
      </trkpt>
      <trkpt lat="44.17864" lon="5.24964">
        <ele>1471.4</ele>
        <time>2022-07-21T07:06:48Z</time>
      </trkpt>
      <trkpt lat="44.17864" lon="5.24963">
        <ele>1471.5</ele>
        <time>2022-07-21T07:06:49Z</time>
      </trkpt>
      <trkpt lat="44.17863" lon="5.24961">
        <ele>1471.6</ele>
        <time>2022-07-21T07:06:50Z</time>
      </trkpt>
      <trkpt lat="44.17862" lon="5.24959">
        <ele>1471.8</ele>
        <time>2022-07-21T07:06:51Z</time>
      </trkpt>
      <trkpt lat="44.17861" lon="5.24957">
        <ele>1471.9</ele>
        <time>2022-07-21T07:06:52Z</time>
      </trkpt>
      <trkpt lat="44.1786" lon="5.24955">
        <ele>1472.1</ele>
        <time>2022-07-21T07:06:53Z</time>
      </trkpt>
      <trkpt lat="44.17858" lon="5.24953">
        <ele>1472.3</ele>
        <time>2022-07-21T07:06:54Z</time>
      </trkpt>
      <trkpt lat="44.17857" lon="5.24952">
        <ele>1472.4</ele>
        <time>2022-07-21T07:06:55Z</time>
      </trkpt>
      <trkpt lat="44.17855" lon="5.24951">
        <ele>1472.5</ele>
        <time>2022-07-21T07:06:56Z</time>
      </trkpt>
      <trkpt lat="44.17854" lon="5.2495">
        <ele>1472.7</ele>
        <time>2022-07-21T07:06:57Z</time>
      </trkpt>
      <trkpt lat="44.17851" lon="5.24948">
        <ele>1472.9</ele>
        <time>2022-07-21T07:06:58Z</time>
      </trkpt>
      <trkpt lat="44.1785" lon="5.24947">
        <ele>1473</ele>
        <time>2022-07-21T07:06:59Z</time>
      </trkpt>
      <trkpt lat="44.17849" lon="5.24946">
        <ele>1473.1</ele>
        <time>2022-07-21T07:07:00Z</time>
      </trkpt>
      <trkpt lat="44.17848" lon="5.24945">
        <ele>1473.3</ele>
        <time>2022-07-21T07:07:01Z</time>
      </trkpt>
      <trkpt lat="44.17847" lon="5.24944">
        <ele>1473.4</ele>
        <time>2022-07-21T07:07:02Z</time>
      </trkpt>
      <trkpt lat="44.17847" lon="5.24942">
        <ele>1473.5</ele>
        <time>2022-07-21T07:07:03Z</time>
      </trkpt>
      <trkpt lat="44.17847" lon="5.2494">
        <ele>1473.6</ele>
        <time>2022-07-21T07:07:04Z</time>
      </trkpt>
      <trkpt lat="44.17847" lon="5.24939">
        <ele>1473.7</ele>
        <time>2022-07-21T07:07:05Z</time>
      </trkpt>
      <trkpt lat="44.17847" lon="5.24937">
        <ele>1473.9</ele>
        <time>2022-07-21T07:07:06Z</time>
      </trkpt>
      <trkpt lat="44.17847" lon="5.24936">
        <ele>1474</ele>
        <time>2022-07-21T07:07:07Z</time>
      </trkpt>
      <trkpt lat="44.17846" lon="5.24933">
        <ele>1474.1</ele>
        <time>2022-07-21T07:07:08Z</time>
      </trkpt>
      <trkpt lat="44.17845" lon="5.24932">
        <ele>1474.3</ele>
        <time>2022-07-21T07:07:09Z</time>
      </trkpt>
      <trkpt lat="44.17844" lon="5.24929">
        <ele>1474.5</ele>
        <time>2022-07-21T07:07:10Z</time>
      </trkpt>
      <trkpt lat="44.17844" lon="5.24928">
        <ele>1474.6</ele>
        <time>2022-07-21T07:07:11Z</time>
      </trkpt>
      <trkpt lat="44.17843" lon="5.24927">
        <ele>1474.6</ele>
        <time>2022-07-21T07:07:12Z</time>
      </trkpt>
      <trkpt lat="44.17842" lon="5.24925">
        <ele>1474.9</ele>
        <time>2022-07-21T07:07:13Z</time>
      </trkpt>
      <trkpt lat="44.17841" lon="5.24925">
        <ele>1474.9</ele>
        <time>2022-07-21T07:07:14Z</time>
      </trkpt>
      <trkpt lat="44.1784" lon="5.24924">
        <ele>1475</ele>
        <time>2022-07-21T07:07:15Z</time>
      </trkpt>
      <trkpt lat="44.17839" lon="5.24922">
        <ele>1475.2</ele>
        <time>2022-07-21T07:07:16Z</time>
      </trkpt>
      <trkpt lat="44.17838" lon="5.2492">
        <ele>1475.4</ele>
        <time>2022-07-21T07:07:17Z</time>
      </trkpt>
      <trkpt lat="44.17838" lon="5.24919">
        <ele>1475.5</ele>
        <time>2022-07-21T07:07:18Z</time>
      </trkpt>
      <trkpt lat="44.17838" lon="5.24917">
        <ele>1475.6</ele>
        <time>2022-07-21T07:07:19Z</time>
      </trkpt>
      <trkpt lat="44.17838" lon="5.24916">
        <ele>1475.7</ele>
        <time>2022-07-21T07:07:20Z</time>
      </trkpt>
      <trkpt lat="44.17838" lon="5.24914">
        <ele>1475.8</ele>
        <time>2022-07-21T07:07:21Z</time>
      </trkpt>
      <trkpt lat="44.17837" lon="5.24913">
        <ele>1476</ele>
        <time>2022-07-21T07:07:22Z</time>
      </trkpt>
      <trkpt lat="44.17837" lon="5.24911">
        <ele>1476.1</ele>
        <time>2022-07-21T07:07:23Z</time>
      </trkpt>
      <trkpt lat="44.17836" lon="5.2491">
        <ele>1476.2</ele>
        <time>2022-07-21T07:07:24Z</time>
      </trkpt>
      <trkpt lat="44.17836" lon="5.24909">
        <ele>1476.3</ele>
        <time>2022-07-21T07:07:25Z</time>
      </trkpt>
      <trkpt lat="44.17836" lon="5.24908">
        <ele>1476.4</ele>
        <time>2022-07-21T07:07:26Z</time>
      </trkpt>
      <trkpt lat="44.17836" lon="5.24906">
        <ele>1476.5</ele>
        <time>2022-07-21T07:07:27Z</time>
      </trkpt>
      <trkpt lat="44.17836" lon="5.24905">
        <ele>1476.6</ele>
        <time>2022-07-21T07:07:28Z</time>
      </trkpt>
      <trkpt lat="44.17835" lon="5.24903">
        <ele>1476.8</ele>
        <time>2022-07-21T07:07:29Z</time>
      </trkpt>
      <trkpt lat="44.17834" lon="5.24902">
        <ele>1476.9</ele>
        <time>2022-07-21T07:07:30Z</time>
      </trkpt>
      <trkpt lat="44.17833" lon="5.24901">
        <ele>1477</ele>
        <time>2022-07-21T07:07:31Z</time>
      </trkpt>
      <trkpt lat="44.17832" lon="5.24899">
        <ele>1477.2</ele>
        <time>2022-07-21T07:07:32Z</time>
      </trkpt>
      <trkpt lat="44.17831" lon="5.24897">
        <ele>1477.4</ele>
        <time>2022-07-21T07:07:33Z</time>
      </trkpt>
      <trkpt lat="44.1783" lon="5.24895">
        <ele>1477.6</ele>
        <time>2022-07-21T07:07:34Z</time>
      </trkpt>
      <trkpt lat="44.17829" lon="5.24894">
        <ele>1477.7</ele>
        <time>2022-07-21T07:07:35Z</time>
      </trkpt>
      <trkpt lat="44.17829" lon="5.24893">
        <ele>1477.8</ele>
        <time>2022-07-21T07:07:36Z</time>
      </trkpt>
      <trkpt lat="44.17828" lon="5.24893">
        <ele>1477.9</ele>
        <time>2022-07-21T07:07:37Z</time>
      </trkpt>
      <trkpt lat="44.17828" lon="5.24892">
        <ele>1478</ele>
        <time>2022-07-21T07:07:38Z</time>
      </trkpt>
      <trkpt lat="44.17827" lon="5.24891">
        <ele>1478.1</ele>
        <time>2022-07-21T07:07:39Z</time>
      </trkpt>
      <trkpt lat="44.17826" lon="5.2489">
        <ele>1478.2</ele>
        <time>2022-07-21T07:07:40Z</time>
      </trkpt>
      <trkpt lat="44.17826" lon="5.2489">
        <ele>1478.2</ele>
        <time>2022-07-21T07:07:41Z</time>
      </trkpt>
      <trkpt lat="44.17825" lon="5.24889">
        <ele>1478.3</ele>
        <time>2022-07-21T07:07:42Z</time>
      </trkpt>
      <trkpt lat="44.17825" lon="5.24888">
        <ele>1478.4</ele>
        <time>2022-07-21T07:07:43Z</time>
      </trkpt>
      <trkpt lat="44.17825" lon="5.24887">
        <ele>1478.5</ele>
        <time>2022-07-21T07:07:44Z</time>
      </trkpt>
      <trkpt lat="44.17824" lon="5.24886">
        <ele>1478.7</ele>
        <time>2022-07-21T07:07:45Z</time>
      </trkpt>
      <trkpt lat="44.17823" lon="5.24884">
        <ele>1478.8</ele>
        <time>2022-07-21T07:07:46Z</time>
      </trkpt>
      <trkpt lat="44.17821" lon="5.24883">
        <ele>1479</ele>
        <time>2022-07-21T07:07:47Z</time>
      </trkpt>
      <trkpt lat="44.1782" lon="5.24881">
        <ele>1479.2</ele>
        <time>2022-07-21T07:07:48Z</time>
      </trkpt>
      <trkpt lat="44.17819" lon="5.2488">
        <ele>1479.4</ele>
        <time>2022-07-21T07:07:49Z</time>
      </trkpt>
      <trkpt lat="44.17818" lon="5.24878">
        <ele>1479.6</ele>
        <time>2022-07-21T07:07:50Z</time>
      </trkpt>
      <trkpt lat="44.17818" lon="5.24876">
        <ele>1479.7</ele>
        <time>2022-07-21T07:07:51Z</time>
      </trkpt>
      <trkpt lat="44.17818" lon="5.24876">
        <ele>1479.7</ele>
        <time>2022-07-21T07:07:52Z</time>
      </trkpt>
      <trkpt lat="44.17817" lon="5.24875">
        <ele>1479.8</ele>
        <time>2022-07-21T07:07:53Z</time>
      </trkpt>
      <trkpt lat="44.17817" lon="5.24875">
        <ele>1479.9</ele>
        <time>2022-07-21T07:07:54Z</time>
      </trkpt>
      <trkpt lat="44.17817" lon="5.24874">
        <ele>1479.9</ele>
        <time>2022-07-21T07:07:55Z</time>
      </trkpt>
      <trkpt lat="44.17816" lon="5.24874">
        <ele>1480</ele>
        <time>2022-07-21T07:07:56Z</time>
      </trkpt>
      <trkpt lat="44.17816" lon="5.24873">
        <ele>1480</ele>
        <time>2022-07-21T07:07:57Z</time>
      </trkpt>
      <trkpt lat="44.17815" lon="5.24872">
        <ele>1480.2</ele>
        <time>2022-07-21T07:07:58Z</time>
      </trkpt>
      <trkpt lat="44.17814" lon="5.24871">
        <ele>1480.3</ele>
        <time>2022-07-21T07:08:00Z</time>
      </trkpt>
      <trkpt lat="44.17811" lon="5.2487">
        <ele>1480.6</ele>
        <time>2022-07-21T07:08:01Z</time>
      </trkpt>
      <trkpt lat="44.1781" lon="5.24869">
        <ele>1480.7</ele>
        <time>2022-07-21T07:08:02Z</time>
      </trkpt>
      <trkpt lat="44.17809" lon="5.24868">
        <ele>1480.9</ele>
        <time>2022-07-21T07:08:03Z</time>
      </trkpt>
      <trkpt lat="44.17808" lon="5.24867">
        <ele>1481</ele>
        <time>2022-07-21T07:08:04Z</time>
      </trkpt>
      <trkpt lat="44.17807" lon="5.24866">
        <ele>1481.2</ele>
        <time>2022-07-21T07:08:05Z</time>
      </trkpt>
      <trkpt lat="44.17806" lon="5.24864">
        <ele>1481.4</ele>
        <time>2022-07-21T07:08:06Z</time>
      </trkpt>
      <trkpt lat="44.17803" lon="5.24861">
        <ele>1481.8</ele>
        <time>2022-07-21T07:08:07Z</time>
      </trkpt>
      <trkpt lat="44.17802" lon="5.2486">
        <ele>1481.9</ele>
        <time>2022-07-21T07:08:08Z</time>
      </trkpt>
      <trkpt lat="44.17799" lon="5.24857">
        <ele>1482.3</ele>
        <time>2022-07-21T07:08:09Z</time>
      </trkpt>
      <trkpt lat="44.17798" lon="5.24856">
        <ele>1482.4</ele>
        <time>2022-07-21T07:08:10Z</time>
      </trkpt>
      <trkpt lat="44.17796" lon="5.24853">
        <ele>1482.7</ele>
        <time>2022-07-21T07:08:11Z</time>
      </trkpt>
      <trkpt lat="44.17796" lon="5.24852">
        <ele>1482.8</ele>
        <time>2022-07-21T07:08:12Z</time>
      </trkpt>
      <trkpt lat="44.17795" lon="5.24848">
        <ele>1483.2</ele>
        <time>2022-07-21T07:08:13Z</time>
      </trkpt>
      <trkpt lat="44.17794" lon="5.24847">
        <ele>1483.2</ele>
        <time>2022-07-21T07:08:14Z</time>
      </trkpt>
      <trkpt lat="44.17793" lon="5.24845">
        <ele>1483.4</ele>
        <time>2022-07-21T07:08:15Z</time>
      </trkpt>
      <trkpt lat="44.17793" lon="5.24844">
        <ele>1483.5</ele>
        <time>2022-07-21T07:08:16Z</time>
      </trkpt>
      <trkpt lat="44.17792" lon="5.24844">
        <ele>1483.6</ele>
        <time>2022-07-21T07:08:17Z</time>
      </trkpt>
      <trkpt lat="44.17791" lon="5.24842">
        <ele>1483.7</ele>
        <time>2022-07-21T07:08:18Z</time>
      </trkpt>
      <trkpt lat="44.1779" lon="5.24841">
        <ele>1483.9</ele>
        <time>2022-07-21T07:08:19Z</time>
      </trkpt>
      <trkpt lat="44.17789" lon="5.24839">
        <ele>1484.1</ele>
        <time>2022-07-21T07:08:20Z</time>
      </trkpt>
      <trkpt lat="44.17788" lon="5.24837">
        <ele>1484.3</ele>
        <time>2022-07-21T07:08:21Z</time>
      </trkpt>
      <trkpt lat="44.17787" lon="5.24836">
        <ele>1484.5</ele>
        <time>2022-07-21T07:08:22Z</time>
      </trkpt>
      <trkpt lat="44.17786" lon="5.24834">
        <ele>1484.6</ele>
        <time>2022-07-21T07:08:23Z</time>
      </trkpt>
      <trkpt lat="44.17786" lon="5.24832">
        <ele>1484.7</ele>
        <time>2022-07-21T07:08:24Z</time>
      </trkpt>
      <trkpt lat="44.17785" lon="5.2483">
        <ele>1484.9</ele>
        <time>2022-07-21T07:08:25Z</time>
      </trkpt>
      <trkpt lat="44.17784" lon="5.24828">
        <ele>1485.1</ele>
        <time>2022-07-21T07:08:26Z</time>
      </trkpt>
      <trkpt lat="44.17783" lon="5.24826">
        <ele>1485.3</ele>
        <time>2022-07-21T07:08:27Z</time>
      </trkpt>
      <trkpt lat="44.17782" lon="5.24824">
        <ele>1485.5</ele>
        <time>2022-07-21T07:08:28Z</time>
      </trkpt>
      <trkpt lat="44.17782" lon="5.24822">
        <ele>1485.6</ele>
        <time>2022-07-21T07:08:29Z</time>
      </trkpt>
      <trkpt lat="44.17781" lon="5.24821">
        <ele>1485.7</ele>
        <time>2022-07-21T07:08:30Z</time>
      </trkpt>
      <trkpt lat="44.1778" lon="5.2482">
        <ele>1485.9</ele>
        <time>2022-07-21T07:08:31Z</time>
      </trkpt>
      <trkpt lat="44.1778" lon="5.24818">
        <ele>1486</ele>
        <time>2022-07-21T07:08:32Z</time>
      </trkpt>
      <trkpt lat="44.17779" lon="5.24816">
        <ele>1486.2</ele>
        <time>2022-07-21T07:08:33Z</time>
      </trkpt>
      <trkpt lat="44.17778" lon="5.24814">
        <ele>1486.4</ele>
        <time>2022-07-21T07:08:34Z</time>
      </trkpt>
      <trkpt lat="44.17777" lon="5.24812">
        <ele>1486.6</ele>
        <time>2022-07-21T07:08:35Z</time>
      </trkpt>
      <trkpt lat="44.17775" lon="5.24811">
        <ele>1486.8</ele>
        <time>2022-07-21T07:08:36Z</time>
      </trkpt>
      <trkpt lat="44.17774" lon="5.2481">
        <ele>1487</ele>
        <time>2022-07-21T07:08:37Z</time>
      </trkpt>
      <trkpt lat="44.17773" lon="5.24809">
        <ele>1487.1</ele>
        <time>2022-07-21T07:08:38Z</time>
      </trkpt>
      <trkpt lat="44.17772" lon="5.24808">
        <ele>1487.3</ele>
        <time>2022-07-21T07:08:39Z</time>
      </trkpt>
      <trkpt lat="44.17771" lon="5.24807">
        <ele>1487.4</ele>
        <time>2022-07-21T07:08:40Z</time>
      </trkpt>
      <trkpt lat="44.17771" lon="5.24807">
        <ele>1487.5</ele>
        <time>2022-07-21T07:08:41Z</time>
      </trkpt>
      <trkpt lat="44.1777" lon="5.24806">
        <ele>1487.6</ele>
        <time>2022-07-21T07:08:42Z</time>
      </trkpt>
      <trkpt lat="44.17769" lon="5.24805">
        <ele>1487.7</ele>
        <time>2022-07-21T07:08:43Z</time>
      </trkpt>
      <trkpt lat="44.17768" lon="5.24804">
        <ele>1487.8</ele>
        <time>2022-07-21T07:08:44Z</time>
      </trkpt>
      <trkpt lat="44.17767" lon="5.24802">
        <ele>1488</ele>
        <time>2022-07-21T07:08:45Z</time>
      </trkpt>
      <trkpt lat="44.17766" lon="5.24801">
        <ele>1488.2</ele>
        <time>2022-07-21T07:08:46Z</time>
      </trkpt>
      <trkpt lat="44.17765" lon="5.24799">
        <ele>1488.4</ele>
        <time>2022-07-21T07:08:47Z</time>
      </trkpt>
      <trkpt lat="44.17764" lon="5.24798">
        <ele>1488.5</ele>
        <time>2022-07-21T07:08:48Z</time>
      </trkpt>
      <trkpt lat="44.17763" lon="5.24796">
        <ele>1488.6</ele>
        <time>2022-07-21T07:08:49Z</time>
      </trkpt>
      <trkpt lat="44.17763" lon="5.24795">
        <ele>1488.8</ele>
        <time>2022-07-21T07:08:50Z</time>
      </trkpt>
      <trkpt lat="44.17762" lon="5.24794">
        <ele>1488.9</ele>
        <time>2022-07-21T07:08:51Z</time>
      </trkpt>
      <trkpt lat="44.17762" lon="5.24793">
        <ele>1489</ele>
        <time>2022-07-21T07:08:52Z</time>
      </trkpt>
      <trkpt lat="44.17762" lon="5.24792">
        <ele>1489.1</ele>
        <time>2022-07-21T07:08:53Z</time>
      </trkpt>
      <trkpt lat="44.1776" lon="5.24788">
        <ele>1489.4</ele>
        <time>2022-07-21T07:08:54Z</time>
      </trkpt>
      <trkpt lat="44.1776" lon="5.24787">
        <ele>1489.5</ele>
        <time>2022-07-21T07:08:55Z</time>
      </trkpt>
      <trkpt lat="44.17758" lon="5.24785">
        <ele>1489.7</ele>
        <time>2022-07-21T07:08:56Z</time>
      </trkpt>
      <trkpt lat="44.17758" lon="5.24784">
        <ele>1489.9</ele>
        <time>2022-07-21T07:08:57Z</time>
      </trkpt>
      <trkpt lat="44.17756" lon="5.24782">
        <ele>1490.1</ele>
        <time>2022-07-21T07:08:58Z</time>
      </trkpt>
      <trkpt lat="44.17755" lon="5.24781">
        <ele>1490.2</ele>
        <time>2022-07-21T07:08:59Z</time>
      </trkpt>
      <trkpt lat="44.17754" lon="5.24779">
        <ele>1490.4</ele>
        <time>2022-07-21T07:09:00Z</time>
      </trkpt>
      <trkpt lat="44.17753" lon="5.24778">
        <ele>1490.6</ele>
        <time>2022-07-21T07:09:01Z</time>
      </trkpt>
      <trkpt lat="44.17752" lon="5.24777">
        <ele>1490.7</ele>
        <time>2022-07-21T07:09:02Z</time>
      </trkpt>
      <trkpt lat="44.17752" lon="5.24776">
        <ele>1490.8</ele>
        <time>2022-07-21T07:09:03Z</time>
      </trkpt>
      <trkpt lat="44.17751" lon="5.24775">
        <ele>1490.9</ele>
        <time>2022-07-21T07:09:04Z</time>
      </trkpt>
      <trkpt lat="44.1775" lon="5.24774">
        <ele>1491</ele>
        <time>2022-07-21T07:09:05Z</time>
      </trkpt>
      <trkpt lat="44.1775" lon="5.24774">
        <ele>1491.1</ele>
        <time>2022-07-21T07:09:06Z</time>
      </trkpt>
      <trkpt lat="44.17749" lon="5.24773">
        <ele>1491.2</ele>
        <time>2022-07-21T07:09:07Z</time>
      </trkpt>
      <trkpt lat="44.17748" lon="5.24772">
        <ele>1491.4</ele>
        <time>2022-07-21T07:09:08Z</time>
      </trkpt>
      <trkpt lat="44.17747" lon="5.2477">
        <ele>1491.5</ele>
        <time>2022-07-21T07:09:09Z</time>
      </trkpt>
      <trkpt lat="44.17747" lon="5.2477">
        <ele>1491.6</ele>
        <time>2022-07-21T07:09:10Z</time>
      </trkpt>
      <trkpt lat="44.17746" lon="5.24769">
        <ele>1491.7</ele>
        <time>2022-07-21T07:09:11Z</time>
      </trkpt>
      <trkpt lat="44.17746" lon="5.24768">
        <ele>1491.8</ele>
        <time>2022-07-21T07:09:12Z</time>
      </trkpt>
      <trkpt lat="44.17745" lon="5.24767">
        <ele>1491.9</ele>
        <time>2022-07-21T07:09:13Z</time>
      </trkpt>
      <trkpt lat="44.17744" lon="5.24766">
        <ele>1492</ele>
        <time>2022-07-21T07:09:14Z</time>
      </trkpt>
      <trkpt lat="44.17742" lon="5.24764">
        <ele>1492.2</ele>
        <time>2022-07-21T07:09:15Z</time>
      </trkpt>
      <trkpt lat="44.17741" lon="5.24763">
        <ele>1492.4</ele>
        <time>2022-07-21T07:09:16Z</time>
      </trkpt>
      <trkpt lat="44.1774" lon="5.24762">
        <ele>1492.5</ele>
        <time>2022-07-21T07:09:17Z</time>
      </trkpt>
      <trkpt lat="44.17739" lon="5.2476">
        <ele>1492.7</ele>
        <time>2022-07-21T07:09:18Z</time>
      </trkpt>
      <trkpt lat="44.17738" lon="5.24759">
        <ele>1492.9</ele>
        <time>2022-07-21T07:09:19Z</time>
      </trkpt>
      <trkpt lat="44.17736" lon="5.24757">
        <ele>1493.2</ele>
        <time>2022-07-21T07:09:20Z</time>
      </trkpt>
      <trkpt lat="44.17735" lon="5.24756">
        <ele>1493.2</ele>
        <time>2022-07-21T07:09:21Z</time>
      </trkpt>
      <trkpt lat="44.17734" lon="5.24755">
        <ele>1493.3</ele>
        <time>2022-07-21T07:09:22Z</time>
      </trkpt>
      <trkpt lat="44.17733" lon="5.24754">
        <ele>1493.5</ele>
        <time>2022-07-21T07:09:23Z</time>
      </trkpt>
      <trkpt lat="44.17732" lon="5.24753">
        <ele>1493.7</ele>
        <time>2022-07-21T07:09:24Z</time>
      </trkpt>
      <trkpt lat="44.1773" lon="5.24752">
        <ele>1493.9</ele>
        <time>2022-07-21T07:09:25Z</time>
      </trkpt>
      <trkpt lat="44.1773" lon="5.24751">
        <ele>1494</ele>
        <time>2022-07-21T07:09:26Z</time>
      </trkpt>
      <trkpt lat="44.17729" lon="5.2475">
        <ele>1494</ele>
        <time>2022-07-21T07:09:27Z</time>
      </trkpt>
      <trkpt lat="44.17729" lon="5.24749">
        <ele>1494.2</ele>
        <time>2022-07-21T07:09:28Z</time>
      </trkpt>
      <trkpt lat="44.17728" lon="5.24747">
        <ele>1494.3</ele>
        <time>2022-07-21T07:09:29Z</time>
      </trkpt>
      <trkpt lat="44.17728" lon="5.24746">
        <ele>1494.4</ele>
        <time>2022-07-21T07:09:30Z</time>
      </trkpt>
      <trkpt lat="44.17725" lon="5.24743">
        <ele>1494.7</ele>
        <time>2022-07-21T07:09:31Z</time>
      </trkpt>
      <trkpt lat="44.17725" lon="5.24743">
        <ele>1494.9</ele>
        <time>2022-07-21T07:09:32Z</time>
      </trkpt>
      <trkpt lat="44.17723" lon="5.24741">
        <ele>1495.1</ele>
        <time>2022-07-21T07:09:33Z</time>
      </trkpt>
      <trkpt lat="44.17722" lon="5.24739">
        <ele>1495.2</ele>
        <time>2022-07-21T07:09:34Z</time>
      </trkpt>
      <trkpt lat="44.17721" lon="5.24738">
        <ele>1495.4</ele>
        <time>2022-07-21T07:09:35Z</time>
      </trkpt>
      <trkpt lat="44.17721" lon="5.24738">
        <ele>1495.5</ele>
        <time>2022-07-21T07:09:36Z</time>
      </trkpt>
      <trkpt lat="44.1772" lon="5.24737">
        <ele>1495.6</ele>
        <time>2022-07-21T07:09:37Z</time>
      </trkpt>
      <trkpt lat="44.17718" lon="5.24735">
        <ele>1495.9</ele>
        <time>2022-07-21T07:09:38Z</time>
      </trkpt>
      <trkpt lat="44.17717" lon="5.24734">
        <ele>1496</ele>
        <time>2022-07-21T07:09:39Z</time>
      </trkpt>
      <trkpt lat="44.17717" lon="5.24733">
        <ele>1496.1</ele>
        <time>2022-07-21T07:09:40Z</time>
      </trkpt>
      <trkpt lat="44.17716" lon="5.24731">
        <ele>1496.3</ele>
        <time>2022-07-21T07:09:41Z</time>
      </trkpt>
      <trkpt lat="44.17715" lon="5.24729">
        <ele>1496.5</ele>
        <time>2022-07-21T07:09:42Z</time>
      </trkpt>
      <trkpt lat="44.17713" lon="5.24728">
        <ele>1496.6</ele>
        <time>2022-07-21T07:09:43Z</time>
      </trkpt>
      <trkpt lat="44.17712" lon="5.24726">
        <ele>1496.8</ele>
        <time>2022-07-21T07:09:44Z</time>
      </trkpt>
      <trkpt lat="44.17711" lon="5.24725">
        <ele>1497</ele>
        <time>2022-07-21T07:09:45Z</time>
      </trkpt>
      <trkpt lat="44.1771" lon="5.24724">
        <ele>1497.2</ele>
        <time>2022-07-21T07:09:46Z</time>
      </trkpt>
      <trkpt lat="44.17707" lon="5.24722">
        <ele>1497.6</ele>
        <time>2022-07-21T07:09:47Z</time>
      </trkpt>
      <trkpt lat="44.17707" lon="5.24721">
        <ele>1497.7</ele>
        <time>2022-07-21T07:09:48Z</time>
      </trkpt>
      <trkpt lat="44.17705" lon="5.2472">
        <ele>1497.9</ele>
        <time>2022-07-21T07:09:49Z</time>
      </trkpt>
      <trkpt lat="44.17704" lon="5.24718">
        <ele>1498.1</ele>
        <time>2022-07-21T07:09:50Z</time>
      </trkpt>
      <trkpt lat="44.17701" lon="5.24716">
        <ele>1498.5</ele>
        <time>2022-07-21T07:09:51Z</time>
      </trkpt>
      <trkpt lat="44.17701" lon="5.24715">
        <ele>1498.6</ele>
        <time>2022-07-21T07:09:52Z</time>
      </trkpt>
      <trkpt lat="44.177" lon="5.24713">
        <ele>1498.8</ele>
        <time>2022-07-21T07:09:53Z</time>
      </trkpt>
      <trkpt lat="44.17699" lon="5.24711">
        <ele>1499</ele>
        <time>2022-07-21T07:09:54Z</time>
      </trkpt>
      <trkpt lat="44.17697" lon="5.24709">
        <ele>1499.2</ele>
        <time>2022-07-21T07:09:55Z</time>
      </trkpt>
      <trkpt lat="44.17697" lon="5.24708">
        <ele>1499.3</ele>
        <time>2022-07-21T07:09:56Z</time>
      </trkpt>
      <trkpt lat="44.17697" lon="5.24707">
        <ele>1499.4</ele>
        <time>2022-07-21T07:09:57Z</time>
      </trkpt>
      <trkpt lat="44.17696" lon="5.24706">
        <ele>1499.5</ele>
        <time>2022-07-21T07:09:58Z</time>
      </trkpt>
      <trkpt lat="44.17696" lon="5.24705">
        <ele>1499.7</ele>
        <time>2022-07-21T07:09:59Z</time>
      </trkpt>
      <trkpt lat="44.17693" lon="5.247">
        <ele>1500.2</ele>
        <time>2022-07-21T07:10:01Z</time>
      </trkpt>
      <trkpt lat="44.17693" lon="5.24699">
        <ele>1500.3</ele>
        <time>2022-07-21T07:10:02Z</time>
      </trkpt>
      <trkpt lat="44.17692" lon="5.24698">
        <ele>1500.5</ele>
        <time>2022-07-21T07:10:03Z</time>
      </trkpt>
      <trkpt lat="44.17691" lon="5.24696">
        <ele>1500.7</ele>
        <time>2022-07-21T07:10:04Z</time>
      </trkpt>
      <trkpt lat="44.1769" lon="5.24694">
        <ele>1500.9</ele>
        <time>2022-07-21T07:10:05Z</time>
      </trkpt>
      <trkpt lat="44.17689" lon="5.24692">
        <ele>1501.1</ele>
        <time>2022-07-21T07:10:06Z</time>
      </trkpt>
      <trkpt lat="44.17689" lon="5.24689">
        <ele>1501.4</ele>
        <time>2022-07-21T07:10:07Z</time>
      </trkpt>
      <trkpt lat="44.17689" lon="5.24688">
        <ele>1501.5</ele>
        <time>2022-07-21T07:10:08Z</time>
      </trkpt>
      <trkpt lat="44.17689" lon="5.24687">
        <ele>1501.6</ele>
        <time>2022-07-21T07:10:09Z</time>
      </trkpt>
      <trkpt lat="44.17689" lon="5.24685">
        <ele>1501.9</ele>
        <time>2022-07-21T07:10:10Z</time>
      </trkpt>
      <trkpt lat="44.17689" lon="5.24683">
        <ele>1502</ele>
        <time>2022-07-21T07:10:11Z</time>
      </trkpt>
      <trkpt lat="44.17689" lon="5.24682">
        <ele>1502.2</ele>
        <time>2022-07-21T07:10:12Z</time>
      </trkpt>
      <trkpt lat="44.17689" lon="5.2468">
        <ele>1502.4</ele>
        <time>2022-07-21T07:10:13Z</time>
      </trkpt>
      <trkpt lat="44.17689" lon="5.24677">
        <ele>1502.7</ele>
        <time>2022-07-21T07:10:14Z</time>
      </trkpt>
      <trkpt lat="44.17688" lon="5.24675">
        <ele>1502.9</ele>
        <time>2022-07-21T07:10:15Z</time>
      </trkpt>
      <trkpt lat="44.17688" lon="5.24673">
        <ele>1503.1</ele>
        <time>2022-07-21T07:10:16Z</time>
      </trkpt>
      <trkpt lat="44.17687" lon="5.24671">
        <ele>1503.4</ele>
        <time>2022-07-21T07:10:17Z</time>
      </trkpt>
      <trkpt lat="44.17686" lon="5.24669">
        <ele>1503.7</ele>
        <time>2022-07-21T07:10:18Z</time>
      </trkpt>
      <trkpt lat="44.17685" lon="5.24667">
        <ele>1504</ele>
        <time>2022-07-21T07:10:19Z</time>
      </trkpt>
      <trkpt lat="44.17684" lon="5.24666">
        <ele>1504.2</ele>
        <time>2022-07-21T07:10:20Z</time>
      </trkpt>
      <trkpt lat="44.17682" lon="5.24665">
        <ele>1504.5</ele>
        <time>2022-07-21T07:10:21Z</time>
      </trkpt>
      <trkpt lat="44.17681" lon="5.24663">
        <ele>1504.8</ele>
        <time>2022-07-21T07:10:22Z</time>
      </trkpt>
      <trkpt lat="44.17679" lon="5.24662">
        <ele>1505.1</ele>
        <time>2022-07-21T07:10:24Z</time>
      </trkpt>
      <trkpt lat="44.17676" lon="5.2466">
        <ele>1505.7</ele>
        <time>2022-07-21T07:10:25Z</time>
      </trkpt>
      <trkpt lat="44.17675" lon="5.2466">
        <ele>1506</ele>
        <time>2022-07-21T07:10:26Z</time>
      </trkpt>
      <trkpt lat="44.17673" lon="5.24659">
        <ele>1506.3</ele>
        <time>2022-07-21T07:10:27Z</time>
      </trkpt>
      <trkpt lat="44.17672" lon="5.24659">
        <ele>1506.5</ele>
        <time>2022-07-21T07:10:28Z</time>
      </trkpt>
      <trkpt lat="44.17671" lon="5.24659">
        <ele>1506.8</ele>
        <time>2022-07-21T07:10:29Z</time>
      </trkpt>
      <trkpt lat="44.1767" lon="5.24659">
        <ele>1507</ele>
        <time>2022-07-21T07:10:30Z</time>
      </trkpt>
      <trkpt lat="44.17669" lon="5.24659">
        <ele>1507.2</ele>
        <time>2022-07-21T07:10:31Z</time>
      </trkpt>
      <trkpt lat="44.17668" lon="5.2466">
        <ele>1507.5</ele>
        <time>2022-07-21T07:10:32Z</time>
      </trkpt>
      <trkpt lat="44.17667" lon="5.24662">
        <ele>1507.8</ele>
        <time>2022-07-21T07:10:33Z</time>
      </trkpt>
      <trkpt lat="44.17666" lon="5.24664">
        <ele>1508.1</ele>
        <time>2022-07-21T07:10:34Z</time>
      </trkpt>
      <trkpt lat="44.17665" lon="5.24665">
        <ele>1508.6</ele>
        <time>2022-07-21T07:10:35Z</time>
      </trkpt>
      <trkpt lat="44.17664" lon="5.24669">
        <ele>1508.7</ele>
        <time>2022-07-21T07:10:36Z</time>
      </trkpt>
      <trkpt lat="44.17664" lon="5.24671">
        <ele>1508.8</ele>
        <time>2022-07-21T07:10:38Z</time>
      </trkpt>
      <trkpt lat="44.17664" lon="5.24673">
        <ele>1508.9</ele>
        <time>2022-07-21T07:10:39Z</time>
      </trkpt>
      <trkpt lat="44.17663" lon="5.24675">
        <ele>1508.9</ele>
        <time>2022-07-21T07:10:40Z</time>
      </trkpt>
      <trkpt lat="44.17663" lon="5.24677">
        <ele>1509</ele>
        <time>2022-07-21T07:10:41Z</time>
      </trkpt>
      <trkpt lat="44.17664" lon="5.24679">
        <ele>1509.1</ele>
        <time>2022-07-21T07:10:42Z</time>
      </trkpt>
      <trkpt lat="44.17663" lon="5.2468">
        <ele>1509.1</ele>
        <time>2022-07-21T07:10:43Z</time>
      </trkpt>
      <trkpt lat="44.17663" lon="5.24682">
        <ele>1509.2</ele>
        <time>2022-07-21T07:10:44Z</time>
      </trkpt>
      <trkpt lat="44.17664" lon="5.24683">
        <ele>1509.2</ele>
        <time>2022-07-21T07:10:45Z</time>
      </trkpt>
      <trkpt lat="44.17664" lon="5.24685">
        <ele>1509.3</ele>
        <time>2022-07-21T07:10:46Z</time>
      </trkpt>
      <trkpt lat="44.17664" lon="5.24686">
        <ele>1509.3</ele>
        <time>2022-07-21T07:10:47Z</time>
      </trkpt>
      <trkpt lat="44.17664" lon="5.24687">
        <ele>1509.4</ele>
        <time>2022-07-21T07:10:48Z</time>
      </trkpt>
      <trkpt lat="44.17665" lon="5.24688">
        <ele>1509.4</ele>
        <time>2022-07-21T07:10:49Z</time>
      </trkpt>
      <trkpt lat="44.17664" lon="5.24689">
        <ele>1509.4</ele>
        <time>2022-07-21T07:10:50Z</time>
      </trkpt>
      <trkpt lat="44.17664" lon="5.24691">
        <ele>1509.5</ele>
        <time>2022-07-21T07:10:51Z</time>
      </trkpt>
      <trkpt lat="44.17663" lon="5.24693">
        <ele>1509.5</ele>
        <time>2022-07-21T07:10:52Z</time>
      </trkpt>
      <trkpt lat="44.17662" lon="5.24695">
        <ele>1509.6</ele>
        <time>2022-07-21T07:10:53Z</time>
      </trkpt>
      <trkpt lat="44.17661" lon="5.24698">
        <ele>1509.8</ele>
        <time>2022-07-21T07:10:54Z</time>
      </trkpt>
      <trkpt lat="44.1766" lon="5.24699">
        <ele>1509.8</ele>
        <time>2022-07-21T07:10:55Z</time>
      </trkpt>
      <trkpt lat="44.1766" lon="5.247">
        <ele>1509.8</ele>
        <time>2022-07-21T07:10:56Z</time>
      </trkpt>
      <trkpt lat="44.17659" lon="5.24701">
        <ele>1509.9</ele>
        <time>2022-07-21T07:10:57Z</time>
      </trkpt>
      <trkpt lat="44.17658" lon="5.24702">
        <ele>1509.9</ele>
        <time>2022-07-21T07:10:58Z</time>
      </trkpt>
      <trkpt lat="44.17656" lon="5.24702">
        <ele>1510</ele>
        <time>2022-07-21T07:10:59Z</time>
      </trkpt>
      <trkpt lat="44.17655" lon="5.24703">
        <ele>1510.1</ele>
        <time>2022-07-21T07:11:00Z</time>
      </trkpt>
      <trkpt lat="44.17657" lon="5.24708">
        <ele>1510.2</ele>
        <time>2022-07-21T07:11:02Z</time>
      </trkpt>
      <trkpt lat="44.17657" lon="5.24709">
        <ele>1510.3</ele>
        <time>2022-07-21T07:11:03Z</time>
      </trkpt>
      <trkpt lat="44.17658" lon="5.2471">
        <ele>1510.3</ele>
        <time>2022-07-21T07:11:04Z</time>
      </trkpt>
      <trkpt lat="44.17659" lon="5.24713">
        <ele>1510.4</ele>
        <time>2022-07-21T07:11:05Z</time>
      </trkpt>
      <trkpt lat="44.17661" lon="5.24716">
        <ele>1510.6</ele>
        <time>2022-07-21T07:11:06Z</time>
      </trkpt>
      <trkpt lat="44.17662" lon="5.24717">
        <ele>1510.7</ele>
        <time>2022-07-21T07:11:07Z</time>
      </trkpt>
      <trkpt lat="44.17663" lon="5.2472">
        <ele>1510.8</ele>
        <time>2022-07-21T07:11:08Z</time>
      </trkpt>
      <trkpt lat="44.17664" lon="5.24721">
        <ele>1510.9</ele>
        <time>2022-07-21T07:11:09Z</time>
      </trkpt>
      <trkpt lat="44.17665" lon="5.24725">
        <ele>1511</ele>
        <time>2022-07-21T07:11:10Z</time>
      </trkpt>
      <trkpt lat="44.17665" lon="5.24726">
        <ele>1511.1</ele>
        <time>2022-07-21T07:11:11Z</time>
      </trkpt>
      <trkpt lat="44.17666" lon="5.24728">
        <ele>1511.2</ele>
        <time>2022-07-21T07:11:12Z</time>
      </trkpt>
      <trkpt lat="44.17667" lon="5.2473">
        <ele>1511.3</ele>
        <time>2022-07-21T07:11:13Z</time>
      </trkpt>
      <trkpt lat="44.17668" lon="5.24733">
        <ele>1511.4</ele>
        <time>2022-07-21T07:11:14Z</time>
      </trkpt>
      <trkpt lat="44.17668" lon="5.24734">
        <ele>1511.5</ele>
        <time>2022-07-21T07:11:15Z</time>
      </trkpt>
      <trkpt lat="44.17669" lon="5.24735">
        <ele>1511.6</ele>
        <time>2022-07-21T07:11:16Z</time>
      </trkpt>
      <trkpt lat="44.1767" lon="5.24736">
        <ele>1511.7</ele>
        <time>2022-07-21T07:11:17Z</time>
      </trkpt>
      <trkpt lat="44.1767" lon="5.24738">
        <ele>1511.7</ele>
        <time>2022-07-21T07:11:18Z</time>
      </trkpt>
      <trkpt lat="44.17671" lon="5.24739">
        <ele>1511.8</ele>
        <time>2022-07-21T07:11:19Z</time>
      </trkpt>
      <trkpt lat="44.17672" lon="5.24741">
        <ele>1511.9</ele>
        <time>2022-07-21T07:11:20Z</time>
      </trkpt>
      <trkpt lat="44.17673" lon="5.24743">
        <ele>1512.1</ele>
        <time>2022-07-21T07:11:21Z</time>
      </trkpt>
      <trkpt lat="44.17674" lon="5.24745">
        <ele>1512.2</ele>
        <time>2022-07-21T07:11:22Z</time>
      </trkpt>
      <trkpt lat="44.17675" lon="5.24746">
        <ele>1512.3</ele>
        <time>2022-07-21T07:11:23Z</time>
      </trkpt>
      <trkpt lat="44.17676" lon="5.24748">
        <ele>1512.5</ele>
        <time>2022-07-21T07:11:24Z</time>
      </trkpt>
      <trkpt lat="44.17678" lon="5.24752">
        <ele>1512.7</ele>
        <time>2022-07-21T07:11:25Z</time>
      </trkpt>
      <trkpt lat="44.17678" lon="5.24753">
        <ele>1512.7</ele>
        <time>2022-07-21T07:11:26Z</time>
      </trkpt>
      <trkpt lat="44.17679" lon="5.24755">
        <ele>1512.9</ele>
        <time>2022-07-21T07:11:27Z</time>
      </trkpt>
      <trkpt lat="44.1768" lon="5.24757">
        <ele>1513</ele>
        <time>2022-07-21T07:11:28Z</time>
      </trkpt>
      <trkpt lat="44.1768" lon="5.24759">
        <ele>1513.1</ele>
        <time>2022-07-21T07:11:29Z</time>
      </trkpt>
      <trkpt lat="44.17681" lon="5.24761">
        <ele>1513.2</ele>
        <time>2022-07-21T07:11:30Z</time>
      </trkpt>
      <trkpt lat="44.17682" lon="5.24762">
        <ele>1513.3</ele>
        <time>2022-07-21T07:11:31Z</time>
      </trkpt>
      <trkpt lat="44.17682" lon="5.24764">
        <ele>1513.4</ele>
        <time>2022-07-21T07:11:32Z</time>
      </trkpt>
      <trkpt lat="44.17683" lon="5.24766">
        <ele>1513.5</ele>
        <time>2022-07-21T07:11:33Z</time>
      </trkpt>
      <trkpt lat="44.17684" lon="5.24767">
        <ele>1513.6</ele>
        <time>2022-07-21T07:11:34Z</time>
      </trkpt>
      <trkpt lat="44.17684" lon="5.24768">
        <ele>1513.7</ele>
        <time>2022-07-21T07:11:35Z</time>
      </trkpt>
      <trkpt lat="44.17684" lon="5.24769">
        <ele>1513.7</ele>
        <time>2022-07-21T07:11:36Z</time>
      </trkpt>
      <trkpt lat="44.17685" lon="5.2477">
        <ele>1513.8</ele>
        <time>2022-07-21T07:11:37Z</time>
      </trkpt>
      <trkpt lat="44.17685" lon="5.24771">
        <ele>1513.9</ele>
        <time>2022-07-21T07:11:38Z</time>
      </trkpt>
      <trkpt lat="44.17686" lon="5.24774">
        <ele>1514</ele>
        <time>2022-07-21T07:11:39Z</time>
      </trkpt>
      <trkpt lat="44.17686" lon="5.24775">
        <ele>1514.1</ele>
        <time>2022-07-21T07:11:40Z</time>
      </trkpt>
      <trkpt lat="44.17687" lon="5.24776">
        <ele>1514.2</ele>
        <time>2022-07-21T07:11:41Z</time>
      </trkpt>
      <trkpt lat="44.17687" lon="5.24778">
        <ele>1514.2</ele>
        <time>2022-07-21T07:11:42Z</time>
      </trkpt>
      <trkpt lat="44.17686" lon="5.24778">
        <ele>1514.3</ele>
        <time>2022-07-21T07:11:43Z</time>
      </trkpt>
      <trkpt lat="44.17687" lon="5.24779">
        <ele>1514.3</ele>
        <time>2022-07-21T07:11:44Z</time>
      </trkpt>
      <trkpt lat="44.17687" lon="5.24779">
        <ele>1514.3</ele>
        <time>2022-07-21T07:11:45Z</time>
      </trkpt>
      <trkpt lat="44.17687" lon="5.24778">
        <ele>1514.4</ele>
        <time>2022-07-21T07:11:46Z</time>
      </trkpt>
      <trkpt lat="44.17688" lon="5.24778">
        <ele>1514.4</ele>
        <time>2022-07-21T07:11:47Z</time>
      </trkpt>
      <trkpt lat="44.17688" lon="5.24779">
        <ele>1514.5</ele>
        <time>2022-07-21T07:11:48Z</time>
      </trkpt>
      <trkpt lat="44.17688" lon="5.2478">
        <ele>1514.5</ele>
        <time>2022-07-21T07:11:49Z</time>
      </trkpt>
      <trkpt lat="44.17689" lon="5.2478">
        <ele>1514.6</ele>
        <time>2022-07-21T07:11:50Z</time>
      </trkpt>
      <trkpt lat="44.1769" lon="5.24781">
        <ele>1514.6</ele>
        <time>2022-07-21T07:11:51Z</time>
      </trkpt>
      <trkpt lat="44.1769" lon="5.24782">
        <ele>1514.7</ele>
        <time>2022-07-21T07:11:52Z</time>
      </trkpt>
      <trkpt lat="44.1769" lon="5.24783">
        <ele>1514.7</ele>
        <time>2022-07-21T07:11:53Z</time>
      </trkpt>
      <trkpt lat="44.17691" lon="5.24784">
        <ele>1514.8</ele>
        <time>2022-07-21T07:11:54Z</time>
      </trkpt>
      <trkpt lat="44.17693" lon="5.24786">
        <ele>1514.9</ele>
        <time>2022-07-21T07:11:55Z</time>
      </trkpt>
      <trkpt lat="44.17694" lon="5.24788">
        <ele>1515</ele>
        <time>2022-07-21T07:11:56Z</time>
      </trkpt>
      <trkpt lat="44.17694" lon="5.2479">
        <ele>1515.2</ele>
        <time>2022-07-21T07:11:57Z</time>
      </trkpt>
      <trkpt lat="44.17695" lon="5.24793">
        <ele>1515.3</ele>
        <time>2022-07-21T07:11:58Z</time>
      </trkpt>
      <trkpt lat="44.17696" lon="5.24794">
        <ele>1515.4</ele>
        <time>2022-07-21T07:11:59Z</time>
      </trkpt>
      <trkpt lat="44.17696" lon="5.24795">
        <ele>1515.4</ele>
        <time>2022-07-21T07:12:00Z</time>
      </trkpt>
      <trkpt lat="44.17697" lon="5.24798">
        <ele>1515.6</ele>
        <time>2022-07-21T07:12:01Z</time>
      </trkpt>
      <trkpt lat="44.17697" lon="5.248">
        <ele>1515.6</ele>
        <time>2022-07-21T07:12:02Z</time>
      </trkpt>
      <trkpt lat="44.17696" lon="5.24804">
        <ele>1515.8</ele>
        <time>2022-07-21T07:12:03Z</time>
      </trkpt>
      <trkpt lat="44.17695" lon="5.24808">
        <ele>1516</ele>
        <time>2022-07-21T07:12:04Z</time>
      </trkpt>
      <trkpt lat="44.17695" lon="5.24812">
        <ele>1516.2</ele>
        <time>2022-07-21T07:12:05Z</time>
      </trkpt>
      <trkpt lat="44.17694" lon="5.24816">
        <ele>1516.4</ele>
        <time>2022-07-21T07:12:06Z</time>
      </trkpt>
      <trkpt lat="44.17693" lon="5.2482">
        <ele>1516.5</ele>
        <time>2022-07-21T07:12:07Z</time>
      </trkpt>
      <trkpt lat="44.17692" lon="5.24824">
        <ele>1516.7</ele>
        <time>2022-07-21T07:12:08Z</time>
      </trkpt>
      <trkpt lat="44.17691" lon="5.24825">
        <ele>1516.8</ele>
        <time>2022-07-21T07:12:09Z</time>
      </trkpt>
      <trkpt lat="44.17691" lon="5.24827">
        <ele>1516.9</ele>
        <time>2022-07-21T07:12:10Z</time>
      </trkpt>
      <trkpt lat="44.17691" lon="5.2483">
        <ele>1517</ele>
        <time>2022-07-21T07:12:11Z</time>
      </trkpt>
      <trkpt lat="44.17692" lon="5.24832">
        <ele>1517.1</ele>
        <time>2022-07-21T07:12:12Z</time>
      </trkpt>
      <trkpt lat="44.17693" lon="5.24833">
        <ele>1517.1</ele>
        <time>2022-07-21T07:12:13Z</time>
      </trkpt>
      <trkpt lat="44.17694" lon="5.24837">
        <ele>1517.3</ele>
        <time>2022-07-21T07:12:14Z</time>
      </trkpt>
      <trkpt lat="44.17694" lon="5.24838">
        <ele>1517.4</ele>
        <time>2022-07-21T07:12:15Z</time>
      </trkpt>
      <trkpt lat="44.17695" lon="5.24842">
        <ele>1517.5</ele>
        <time>2022-07-21T07:12:16Z</time>
      </trkpt>
      <trkpt lat="44.17696" lon="5.24843">
        <ele>1517.6</ele>
        <time>2022-07-21T07:12:17Z</time>
      </trkpt>
      <trkpt lat="44.17697" lon="5.24847">
        <ele>1517.8</ele>
        <time>2022-07-21T07:12:18Z</time>
      </trkpt>
      <trkpt lat="44.17698" lon="5.24848">
        <ele>1517.8</ele>
        <time>2022-07-21T07:12:19Z</time>
      </trkpt>
      <trkpt lat="44.177" lon="5.24851">
        <ele>1518</ele>
        <time>2022-07-21T07:12:20Z</time>
      </trkpt>
      <trkpt lat="44.177" lon="5.24852">
        <ele>1518.1</ele>
        <time>2022-07-21T07:12:21Z</time>
      </trkpt>
      <trkpt lat="44.177" lon="5.24854">
        <ele>1518.2</ele>
        <time>2022-07-21T07:12:22Z</time>
      </trkpt>
      <trkpt lat="44.17701" lon="5.24857">
        <ele>1518.3</ele>
        <time>2022-07-21T07:12:23Z</time>
      </trkpt>
      <trkpt lat="44.177" lon="5.24861">
        <ele>1518.4</ele>
        <time>2022-07-21T07:12:24Z</time>
      </trkpt>
      <trkpt lat="44.177" lon="5.24862">
        <ele>1518.5</ele>
        <time>2022-07-21T07:12:25Z</time>
      </trkpt>
      <trkpt lat="44.17699" lon="5.24864">
        <ele>1518.6</ele>
        <time>2022-07-21T07:12:26Z</time>
      </trkpt>
      <trkpt lat="44.17699" lon="5.24866">
        <ele>1518.7</ele>
        <time>2022-07-21T07:12:27Z</time>
      </trkpt>
      <trkpt lat="44.17699" lon="5.24869">
        <ele>1518.8</ele>
        <time>2022-07-21T07:12:28Z</time>
      </trkpt>
      <trkpt lat="44.177" lon="5.2487">
        <ele>1518.9</ele>
        <time>2022-07-21T07:12:29Z</time>
      </trkpt>
      <trkpt lat="44.177" lon="5.24871">
        <ele>1518.9</ele>
        <time>2022-07-21T07:12:30Z</time>
      </trkpt>
      <trkpt lat="44.17701" lon="5.24872">
        <ele>1519</ele>
        <time>2022-07-21T07:12:31Z</time>
      </trkpt>
      <trkpt lat="44.17702" lon="5.24873">
        <ele>1519</ele>
        <time>2022-07-21T07:12:32Z</time>
      </trkpt>
      <trkpt lat="44.17703" lon="5.24874">
        <ele>1519.1</ele>
        <time>2022-07-21T07:12:33Z</time>
      </trkpt>
      <trkpt lat="44.17703" lon="5.24875">
        <ele>1519.1</ele>
        <time>2022-07-21T07:12:34Z</time>
      </trkpt>
      <trkpt lat="44.17704" lon="5.24878">
        <ele>1519.3</ele>
        <time>2022-07-21T07:12:35Z</time>
      </trkpt>
      <trkpt lat="44.17704" lon="5.2488">
        <ele>1519.3</ele>
        <time>2022-07-21T07:12:36Z</time>
      </trkpt>
      <trkpt lat="44.17703" lon="5.24881">
        <ele>1519.4</ele>
        <time>2022-07-21T07:12:37Z</time>
      </trkpt>
      <trkpt lat="44.17702" lon="5.24885">
        <ele>1519.6</ele>
        <time>2022-07-21T07:12:38Z</time>
      </trkpt>
      <trkpt lat="44.17702" lon="5.24886">
        <ele>1519.6</ele>
        <time>2022-07-21T07:12:39Z</time>
      </trkpt>
      <trkpt lat="44.17702" lon="5.24888">
        <ele>1519.7</ele>
        <time>2022-07-21T07:12:40Z</time>
      </trkpt>
      <trkpt lat="44.17704" lon="5.2489">
        <ele>1519.8</ele>
        <time>2022-07-21T07:12:41Z</time>
      </trkpt>
      <trkpt lat="44.17706" lon="5.24893">
        <ele>1520</ele>
        <time>2022-07-21T07:12:42Z</time>
      </trkpt>
      <trkpt lat="44.17708" lon="5.24895">
        <ele>1520.1</ele>
        <time>2022-07-21T07:12:43Z</time>
      </trkpt>
      <trkpt lat="44.1771" lon="5.24897">
        <ele>1520.3</ele>
        <time>2022-07-21T07:12:44Z</time>
      </trkpt>
      <trkpt lat="44.17713" lon="5.249">
        <ele>1520.5</ele>
        <time>2022-07-21T07:12:45Z</time>
      </trkpt>
      <trkpt lat="44.17714" lon="5.24902">
        <ele>1520.6</ele>
        <time>2022-07-21T07:12:46Z</time>
      </trkpt>
      <trkpt lat="44.17716" lon="5.24906">
        <ele>1520.8</ele>
        <time>2022-07-21T07:12:47Z</time>
      </trkpt>
      <trkpt lat="44.17716" lon="5.24907">
        <ele>1520.8</ele>
        <time>2022-07-21T07:12:48Z</time>
      </trkpt>
      <trkpt lat="44.17718" lon="5.24911">
        <ele>1521</ele>
        <time>2022-07-21T07:12:49Z</time>
      </trkpt>
      <trkpt lat="44.17719" lon="5.24912">
        <ele>1521.1</ele>
        <time>2022-07-21T07:12:50Z</time>
      </trkpt>
      <trkpt lat="44.17719" lon="5.24914">
        <ele>1521.2</ele>
        <time>2022-07-21T07:12:51Z</time>
      </trkpt>
      <trkpt lat="44.1772" lon="5.24916">
        <ele>1521.3</ele>
        <time>2022-07-21T07:12:52Z</time>
      </trkpt>
      <trkpt lat="44.17719" lon="5.2492">
        <ele>1521.4</ele>
        <time>2022-07-21T07:12:53Z</time>
      </trkpt>
      <trkpt lat="44.17719" lon="5.24921">
        <ele>1521.5</ele>
        <time>2022-07-21T07:12:54Z</time>
      </trkpt>
      <trkpt lat="44.17721" lon="5.24925">
        <ele>1521.6</ele>
        <time>2022-07-21T07:12:55Z</time>
      </trkpt>
      <trkpt lat="44.17721" lon="5.24926">
        <ele>1521.7</ele>
        <time>2022-07-21T07:12:56Z</time>
      </trkpt>
      <trkpt lat="44.17724" lon="5.24928">
        <ele>1521.9</ele>
        <time>2022-07-21T07:12:57Z</time>
      </trkpt>
      <trkpt lat="44.17724" lon="5.24929">
        <ele>1521.9</ele>
        <time>2022-07-21T07:12:58Z</time>
      </trkpt>
      <trkpt lat="44.17726" lon="5.24932">
        <ele>1522.1</ele>
        <time>2022-07-21T07:12:59Z</time>
      </trkpt>
      <trkpt lat="44.17727" lon="5.24933">
        <ele>1522.2</ele>
        <time>2022-07-21T07:13:00Z</time>
      </trkpt>
      <trkpt lat="44.17728" lon="5.24935">
        <ele>1522.3</ele>
        <time>2022-07-21T07:13:01Z</time>
      </trkpt>
      <trkpt lat="44.17729" lon="5.24937">
        <ele>1522.3</ele>
        <time>2022-07-21T07:13:02Z</time>
      </trkpt>
      <trkpt lat="44.17729" lon="5.2494">
        <ele>1522.5</ele>
        <time>2022-07-21T07:13:03Z</time>
      </trkpt>
      <trkpt lat="44.17729" lon="5.24941">
        <ele>1522.5</ele>
        <time>2022-07-21T07:13:04Z</time>
      </trkpt>
      <trkpt lat="44.17729" lon="5.24942">
        <ele>1522.6</ele>
        <time>2022-07-21T07:13:05Z</time>
      </trkpt>
      <trkpt lat="44.17729" lon="5.24943">
        <ele>1522.6</ele>
        <time>2022-07-21T07:13:06Z</time>
      </trkpt>
      <trkpt lat="44.1773" lon="5.24945">
        <ele>1522.7</ele>
        <time>2022-07-21T07:13:07Z</time>
      </trkpt>
      <trkpt lat="44.1773" lon="5.24947">
        <ele>1522.8</ele>
        <time>2022-07-21T07:13:08Z</time>
      </trkpt>
      <trkpt lat="44.17731" lon="5.24949">
        <ele>1522.9</ele>
        <time>2022-07-21T07:13:09Z</time>
      </trkpt>
      <trkpt lat="44.1773" lon="5.24951">
        <ele>1523</ele>
        <time>2022-07-21T07:13:10Z</time>
      </trkpt>
      <trkpt lat="44.1773" lon="5.24953">
        <ele>1523.1</ele>
        <time>2022-07-21T07:13:11Z</time>
      </trkpt>
      <trkpt lat="44.17729" lon="5.24957">
        <ele>1523.3</ele>
        <time>2022-07-21T07:13:12Z</time>
      </trkpt>
      <trkpt lat="44.17729" lon="5.24958">
        <ele>1523.3</ele>
        <time>2022-07-21T07:13:13Z</time>
      </trkpt>
      <trkpt lat="44.17729" lon="5.2496">
        <ele>1523.4</ele>
        <time>2022-07-21T07:13:14Z</time>
      </trkpt>
      <trkpt lat="44.17729" lon="5.24962">
        <ele>1523.5</ele>
        <time>2022-07-21T07:13:15Z</time>
      </trkpt>
      <trkpt lat="44.17729" lon="5.24964">
        <ele>1523.6</ele>
        <time>2022-07-21T07:13:16Z</time>
      </trkpt>
      <trkpt lat="44.17729" lon="5.24966">
        <ele>1523.7</ele>
        <time>2022-07-21T07:13:17Z</time>
      </trkpt>
      <trkpt lat="44.17729" lon="5.24968">
        <ele>1523.8</ele>
        <time>2022-07-21T07:13:18Z</time>
      </trkpt>
      <trkpt lat="44.17728" lon="5.2497">
        <ele>1523.9</ele>
        <time>2022-07-21T07:13:19Z</time>
      </trkpt>
      <trkpt lat="44.17728" lon="5.24972">
        <ele>1524</ele>
        <time>2022-07-21T07:13:20Z</time>
      </trkpt>
      <trkpt lat="44.17728" lon="5.24974">
        <ele>1524</ele>
        <time>2022-07-21T07:13:21Z</time>
      </trkpt>
      <trkpt lat="44.17728" lon="5.24975">
        <ele>1524.1</ele>
        <time>2022-07-21T07:13:22Z</time>
      </trkpt>
      <trkpt lat="44.17727" lon="5.24977">
        <ele>1524.2</ele>
        <time>2022-07-21T07:13:23Z</time>
      </trkpt>
      <trkpt lat="44.17727" lon="5.24979">
        <ele>1524.3</ele>
        <time>2022-07-21T07:13:24Z</time>
      </trkpt>
      <trkpt lat="44.17726" lon="5.24983">
        <ele>1524.5</ele>
        <time>2022-07-21T07:13:25Z</time>
      </trkpt>
      <trkpt lat="44.17726" lon="5.24984">
        <ele>1524.5</ele>
        <time>2022-07-21T07:13:26Z</time>
      </trkpt>
      <trkpt lat="44.17727" lon="5.24989">
        <ele>1524.7</ele>
        <time>2022-07-21T07:13:27Z</time>
      </trkpt>
      <trkpt lat="44.17727" lon="5.2499">
        <ele>1524.8</ele>
        <time>2022-07-21T07:13:28Z</time>
      </trkpt>
      <trkpt lat="44.17728" lon="5.24994">
        <ele>1525</ele>
        <time>2022-07-21T07:13:29Z</time>
      </trkpt>
      <trkpt lat="44.17729" lon="5.24995">
        <ele>1525</ele>
        <time>2022-07-21T07:13:30Z</time>
      </trkpt>
      <trkpt lat="44.1773" lon="5.24998">
        <ele>1525.2</ele>
        <time>2022-07-21T07:13:31Z</time>
      </trkpt>
      <trkpt lat="44.1773" lon="5.24999">
        <ele>1525.2</ele>
        <time>2022-07-21T07:13:32Z</time>
      </trkpt>
      <trkpt lat="44.1773" lon="5.25">
        <ele>1525.3</ele>
        <time>2022-07-21T07:13:33Z</time>
      </trkpt>
      <trkpt lat="44.17731" lon="5.25002">
        <ele>1525.3</ele>
        <time>2022-07-21T07:13:34Z</time>
      </trkpt>
      <trkpt lat="44.17733" lon="5.25004">
        <ele>1525.5</ele>
        <time>2022-07-21T07:13:35Z</time>
      </trkpt>
      <trkpt lat="44.17734" lon="5.25006">
        <ele>1525.6</ele>
        <time>2022-07-21T07:13:36Z</time>
      </trkpt>
      <trkpt lat="44.17735" lon="5.25007">
        <ele>1525.7</ele>
        <time>2022-07-21T07:13:37Z</time>
      </trkpt>
      <trkpt lat="44.17736" lon="5.25009">
        <ele>1525.8</ele>
        <time>2022-07-21T07:13:38Z</time>
      </trkpt>
      <trkpt lat="44.17736" lon="5.25011">
        <ele>1525.9</ele>
        <time>2022-07-21T07:13:39Z</time>
      </trkpt>
      <trkpt lat="44.17737" lon="5.25014">
        <ele>1526</ele>
        <time>2022-07-21T07:13:40Z</time>
      </trkpt>
      <trkpt lat="44.17737" lon="5.25016">
        <ele>1526.1</ele>
        <time>2022-07-21T07:13:41Z</time>
      </trkpt>
      <trkpt lat="44.17738" lon="5.2502">
        <ele>1526.3</ele>
        <time>2022-07-21T07:13:42Z</time>
      </trkpt>
      <trkpt lat="44.17738" lon="5.25021">
        <ele>1526.3</ele>
        <time>2022-07-21T07:13:43Z</time>
      </trkpt>
      <trkpt lat="44.1774" lon="5.25024">
        <ele>1526.5</ele>
        <time>2022-07-21T07:13:44Z</time>
      </trkpt>
      <trkpt lat="44.1774" lon="5.25024">
        <ele>1526.5</ele>
        <time>2022-07-21T07:13:45Z</time>
      </trkpt>
      <trkpt lat="44.17741" lon="5.25025">
        <ele>1526.6</ele>
        <time>2022-07-21T07:13:46Z</time>
      </trkpt>
      <trkpt lat="44.17741" lon="5.25028">
        <ele>1526.7</ele>
        <time>2022-07-21T07:13:47Z</time>
      </trkpt>
      <trkpt lat="44.17742" lon="5.25029">
        <ele>1526.8</ele>
        <time>2022-07-21T07:13:48Z</time>
      </trkpt>
      <trkpt lat="44.17742" lon="5.25033">
        <ele>1526.9</ele>
        <time>2022-07-21T07:13:49Z</time>
      </trkpt>
      <trkpt lat="44.17742" lon="5.25034">
        <ele>1527</ele>
        <time>2022-07-21T07:13:50Z</time>
      </trkpt>
      <trkpt lat="44.17743" lon="5.25039">
        <ele>1527.1</ele>
        <time>2022-07-21T07:13:51Z</time>
      </trkpt>
      <trkpt lat="44.17743" lon="5.2504">
        <ele>1527.2</ele>
        <time>2022-07-21T07:13:52Z</time>
      </trkpt>
      <trkpt lat="44.17744" lon="5.25044">
        <ele>1527.4</ele>
        <time>2022-07-21T07:13:53Z</time>
      </trkpt>
      <trkpt lat="44.17744" lon="5.25045">
        <ele>1527.4</ele>
        <time>2022-07-21T07:13:54Z</time>
      </trkpt>
      <trkpt lat="44.17745" lon="5.25048">
        <ele>1527.5</ele>
        <time>2022-07-21T07:13:55Z</time>
      </trkpt>
      <trkpt lat="44.17746" lon="5.2505">
        <ele>1527.6</ele>
        <time>2022-07-21T07:13:56Z</time>
      </trkpt>
      <trkpt lat="44.17747" lon="5.25053">
        <ele>1527.8</ele>
        <time>2022-07-21T07:13:57Z</time>
      </trkpt>
      <trkpt lat="44.17748" lon="5.25054">
        <ele>1527.9</ele>
        <time>2022-07-21T07:13:58Z</time>
      </trkpt>
      <trkpt lat="44.17749" lon="5.25056">
        <ele>1528</ele>
        <time>2022-07-21T07:13:59Z</time>
      </trkpt>
      <trkpt lat="44.17749" lon="5.25058">
        <ele>1528</ele>
        <time>2022-07-21T07:14:00Z</time>
      </trkpt>
      <trkpt lat="44.1775" lon="5.25062">
        <ele>1528.2</ele>
        <time>2022-07-21T07:14:01Z</time>
      </trkpt>
      <trkpt lat="44.1775" lon="5.25063">
        <ele>1528.2</ele>
        <time>2022-07-21T07:14:02Z</time>
      </trkpt>
      <trkpt lat="44.1775" lon="5.25067">
        <ele>1528.4</ele>
        <time>2022-07-21T07:14:03Z</time>
      </trkpt>
      <trkpt lat="44.1775" lon="5.25068">
        <ele>1528.5</ele>
        <time>2022-07-21T07:14:04Z</time>
      </trkpt>
      <trkpt lat="44.1775" lon="5.25071">
        <ele>1528.6</ele>
        <time>2022-07-21T07:14:05Z</time>
      </trkpt>
      <trkpt lat="44.17749" lon="5.25073">
        <ele>1528.7</ele>
        <time>2022-07-21T07:14:06Z</time>
      </trkpt>
      <trkpt lat="44.17749" lon="5.25075">
        <ele>1528.7</ele>
        <time>2022-07-21T07:14:07Z</time>
      </trkpt>
      <trkpt lat="44.17749" lon="5.25077">
        <ele>1528.8</ele>
        <time>2022-07-21T07:14:08Z</time>
      </trkpt>
      <trkpt lat="44.17748" lon="5.2508">
        <ele>1528.9</ele>
        <time>2022-07-21T07:14:09Z</time>
      </trkpt>
      <trkpt lat="44.17748" lon="5.25082">
        <ele>1529</ele>
        <time>2022-07-21T07:14:10Z</time>
      </trkpt>
      <trkpt lat="44.17748" lon="5.25084">
        <ele>1529.1</ele>
        <time>2022-07-21T07:14:11Z</time>
      </trkpt>
      <trkpt lat="44.17747" lon="5.25087">
        <ele>1529.2</ele>
        <time>2022-07-21T07:14:12Z</time>
      </trkpt>
      <trkpt lat="44.17746" lon="5.2509">
        <ele>1529.3</ele>
        <time>2022-07-21T07:14:13Z</time>
      </trkpt>
      <trkpt lat="44.17746" lon="5.25091">
        <ele>1529.4</ele>
        <time>2022-07-21T07:14:14Z</time>
      </trkpt>
      <trkpt lat="44.17746" lon="5.25096">
        <ele>1529.6</ele>
        <time>2022-07-21T07:14:15Z</time>
      </trkpt>
      <trkpt lat="44.17747" lon="5.25098">
        <ele>1529.7</ele>
        <time>2022-07-21T07:14:16Z</time>
      </trkpt>
      <trkpt lat="44.17749" lon="5.25099">
        <ele>1529.7</ele>
        <time>2022-07-21T07:14:17Z</time>
      </trkpt>
      <trkpt lat="44.17749" lon="5.251">
        <ele>1529.8</ele>
        <time>2022-07-21T07:14:18Z</time>
      </trkpt>
      <trkpt lat="44.1775" lon="5.251">
        <ele>1529.9</ele>
        <time>2022-07-21T07:14:19Z</time>
      </trkpt>
      <trkpt lat="44.17752" lon="5.25101">
        <ele>1529.9</ele>
        <time>2022-07-21T07:14:20Z</time>
      </trkpt>
      <trkpt lat="44.17753" lon="5.25104">
        <ele>1530</ele>
        <time>2022-07-21T07:14:21Z</time>
      </trkpt>
      <trkpt lat="44.17752" lon="5.25105">
        <ele>1530.1</ele>
        <time>2022-07-21T07:14:22Z</time>
      </trkpt>
      <trkpt lat="44.17752" lon="5.25106">
        <ele>1530.1</ele>
        <time>2022-07-21T07:14:23Z</time>
      </trkpt>
      <trkpt lat="44.17751" lon="5.25111">
        <ele>1530.3</ele>
        <time>2022-07-21T07:14:24Z</time>
      </trkpt>
      <trkpt lat="44.1775" lon="5.25114">
        <ele>1530.5</ele>
        <time>2022-07-21T07:14:25Z</time>
      </trkpt>
      <trkpt lat="44.1775" lon="5.25116">
        <ele>1530.6</ele>
        <time>2022-07-21T07:14:26Z</time>
      </trkpt>
      <trkpt lat="44.17751" lon="5.25119">
        <ele>1530.7</ele>
        <time>2022-07-21T07:14:27Z</time>
      </trkpt>
      <trkpt lat="44.17752" lon="5.2512">
        <ele>1530.8</ele>
        <time>2022-07-21T07:14:28Z</time>
      </trkpt>
      <trkpt lat="44.17753" lon="5.25122">
        <ele>1530.9</ele>
        <time>2022-07-21T07:14:29Z</time>
      </trkpt>
      <trkpt lat="44.17754" lon="5.25126">
        <ele>1531</ele>
        <time>2022-07-21T07:14:30Z</time>
      </trkpt>
      <trkpt lat="44.17754" lon="5.25128">
        <ele>1531.1</ele>
        <time>2022-07-21T07:14:31Z</time>
      </trkpt>
      <trkpt lat="44.17754" lon="5.25133">
        <ele>1531.3</ele>
        <time>2022-07-21T07:14:32Z</time>
      </trkpt>
      <trkpt lat="44.17754" lon="5.25134">
        <ele>1531.3</ele>
        <time>2022-07-21T07:14:33Z</time>
      </trkpt>
      <trkpt lat="44.17753" lon="5.25137">
        <ele>1531.5</ele>
        <time>2022-07-21T07:14:34Z</time>
      </trkpt>
      <trkpt lat="44.17753" lon="5.25139">
        <ele>1531.5</ele>
        <time>2022-07-21T07:14:35Z</time>
      </trkpt>
      <trkpt lat="44.17753" lon="5.25144">
        <ele>1531.7</ele>
        <time>2022-07-21T07:14:36Z</time>
      </trkpt>
      <trkpt lat="44.17752" lon="5.25146">
        <ele>1531.8</ele>
        <time>2022-07-21T07:14:37Z</time>
      </trkpt>
      <trkpt lat="44.17752" lon="5.25151">
        <ele>1532</ele>
        <time>2022-07-21T07:14:38Z</time>
      </trkpt>
      <trkpt lat="44.17751" lon="5.25152">
        <ele>1532</ele>
        <time>2022-07-21T07:14:39Z</time>
      </trkpt>
      <trkpt lat="44.17752" lon="5.25155">
        <ele>1532.2</ele>
        <time>2022-07-21T07:14:40Z</time>
      </trkpt>
      <trkpt lat="44.17752" lon="5.25157">
        <ele>1532.2</ele>
        <time>2022-07-21T07:14:41Z</time>
      </trkpt>
      <trkpt lat="44.17752" lon="5.25158">
        <ele>1532.3</ele>
        <time>2022-07-21T07:14:42Z</time>
      </trkpt>
      <trkpt lat="44.17752" lon="5.25162">
        <ele>1532.4</ele>
        <time>2022-07-21T07:14:43Z</time>
      </trkpt>
      <trkpt lat="44.17751" lon="5.25164">
        <ele>1532.5</ele>
        <time>2022-07-21T07:14:44Z</time>
      </trkpt>
      <trkpt lat="44.17752" lon="5.25167">
        <ele>1532.6</ele>
        <time>2022-07-21T07:14:45Z</time>
      </trkpt>
      <trkpt lat="44.17752" lon="5.25168">
        <ele>1532.6</ele>
        <time>2022-07-21T07:14:46Z</time>
      </trkpt>
      <trkpt lat="44.17752" lon="5.25169">
        <ele>1532.7</ele>
        <time>2022-07-21T07:14:47Z</time>
      </trkpt>
      <trkpt lat="44.17753" lon="5.25174">
        <ele>1532.9</ele>
        <time>2022-07-21T07:14:48Z</time>
      </trkpt>
      <trkpt lat="44.17753" lon="5.25176">
        <ele>1532.9</ele>
        <time>2022-07-21T07:14:49Z</time>
      </trkpt>
      <trkpt lat="44.17754" lon="5.2518">
        <ele>1533.1</ele>
        <time>2022-07-21T07:14:50Z</time>
      </trkpt>
      <trkpt lat="44.17753" lon="5.25181">
        <ele>1533.1</ele>
        <time>2022-07-21T07:14:51Z</time>
      </trkpt>
      <trkpt lat="44.17753" lon="5.25186">
        <ele>1533.3</ele>
        <time>2022-07-21T07:14:52Z</time>
      </trkpt>
      <trkpt lat="44.17753" lon="5.25187">
        <ele>1533.3</ele>
        <time>2022-07-21T07:14:53Z</time>
      </trkpt>
      <trkpt lat="44.17752" lon="5.25191">
        <ele>1533.5</ele>
        <time>2022-07-21T07:14:54Z</time>
      </trkpt>
      <trkpt lat="44.17752" lon="5.25196">
        <ele>1533.7</ele>
        <time>2022-07-21T07:14:55Z</time>
      </trkpt>
      <trkpt lat="44.17752" lon="5.25198">
        <ele>1533.7</ele>
        <time>2022-07-21T07:14:56Z</time>
      </trkpt>
      <trkpt lat="44.17753" lon="5.25201">
        <ele>1533.9</ele>
        <time>2022-07-21T07:14:57Z</time>
      </trkpt>
      <trkpt lat="44.17754" lon="5.25202">
        <ele>1533.9</ele>
        <time>2022-07-21T07:14:58Z</time>
      </trkpt>
      <trkpt lat="44.17755" lon="5.25204">
        <ele>1534</ele>
        <time>2022-07-21T07:14:59Z</time>
      </trkpt>
      <trkpt lat="44.17756" lon="5.25206">
        <ele>1534.1</ele>
        <time>2022-07-21T07:15:00Z</time>
      </trkpt>
      <trkpt lat="44.17756" lon="5.25208">
        <ele>1534.2</ele>
        <time>2022-07-21T07:15:01Z</time>
      </trkpt>
      <trkpt lat="44.17757" lon="5.2521">
        <ele>1534.3</ele>
        <time>2022-07-21T07:15:02Z</time>
      </trkpt>
      <trkpt lat="44.17757" lon="5.25212">
        <ele>1534.3</ele>
        <time>2022-07-21T07:15:03Z</time>
      </trkpt>
      <trkpt lat="44.17758" lon="5.25214">
        <ele>1534.4</ele>
        <time>2022-07-21T07:15:04Z</time>
      </trkpt>
      <trkpt lat="44.17758" lon="5.25216">
        <ele>1534.5</ele>
        <time>2022-07-21T07:15:05Z</time>
      </trkpt>
      <trkpt lat="44.17759" lon="5.25219">
        <ele>1534.6</ele>
        <time>2022-07-21T07:15:06Z</time>
      </trkpt>
      <trkpt lat="44.17759" lon="5.25221">
        <ele>1534.7</ele>
        <time>2022-07-21T07:15:07Z</time>
      </trkpt>
      <trkpt lat="44.1776" lon="5.25224">
        <ele>1534.8</ele>
        <time>2022-07-21T07:15:08Z</time>
      </trkpt>
      <trkpt lat="44.17761" lon="5.25228">
        <ele>1535</ele>
        <time>2022-07-21T07:15:09Z</time>
      </trkpt>
      <trkpt lat="44.17762" lon="5.2523">
        <ele>1535</ele>
        <time>2022-07-21T07:15:10Z</time>
      </trkpt>
      <trkpt lat="44.17763" lon="5.25235">
        <ele>1535.2</ele>
        <time>2022-07-21T07:15:11Z</time>
      </trkpt>
      <trkpt lat="44.17764" lon="5.25236">
        <ele>1535.3</ele>
        <time>2022-07-21T07:15:12Z</time>
      </trkpt>
      <trkpt lat="44.17764" lon="5.25242">
        <ele>1535.5</ele>
        <time>2022-07-21T07:15:13Z</time>
      </trkpt>
      <trkpt lat="44.17764" lon="5.25243">
        <ele>1535.5</ele>
        <time>2022-07-21T07:15:14Z</time>
      </trkpt>
      <trkpt lat="44.17763" lon="5.25247">
        <ele>1535.6</ele>
        <time>2022-07-21T07:15:15Z</time>
      </trkpt>
      <trkpt lat="44.17763" lon="5.25251">
        <ele>1535.7</ele>
        <time>2022-07-21T07:15:16Z</time>
      </trkpt>
      <trkpt lat="44.17763" lon="5.25255">
        <ele>1535.8</ele>
        <time>2022-07-21T07:15:17Z</time>
      </trkpt>
      <trkpt lat="44.17763" lon="5.25257">
        <ele>1535.8</ele>
        <time>2022-07-21T07:15:18Z</time>
      </trkpt>
      <trkpt lat="44.17764" lon="5.25259">
        <ele>1535.9</ele>
        <time>2022-07-21T07:15:19Z</time>
      </trkpt>
      <trkpt lat="44.17764" lon="5.25261">
        <ele>1535.9</ele>
        <time>2022-07-21T07:15:20Z</time>
      </trkpt>
      <trkpt lat="44.17764" lon="5.25263">
        <ele>1535.9</ele>
        <time>2022-07-21T07:15:21Z</time>
      </trkpt>
      <trkpt lat="44.17765" lon="5.25265">
        <ele>1536</ele>
        <time>2022-07-21T07:15:22Z</time>
      </trkpt>
      <trkpt lat="44.17765" lon="5.25269">
        <ele>1536.1</ele>
        <time>2022-07-21T07:15:23Z</time>
      </trkpt>
      <trkpt lat="44.17765" lon="5.25271">
        <ele>1536.1</ele>
        <time>2022-07-21T07:15:24Z</time>
      </trkpt>
      <trkpt lat="44.17765" lon="5.25276">
        <ele>1536.2</ele>
        <time>2022-07-21T07:15:25Z</time>
      </trkpt>
      <trkpt lat="44.17766" lon="5.25277">
        <ele>1536.2</ele>
        <time>2022-07-21T07:15:26Z</time>
      </trkpt>
      <trkpt lat="44.17766" lon="5.25282">
        <ele>1536.3</ele>
        <time>2022-07-21T07:15:27Z</time>
      </trkpt>
      <trkpt lat="44.17766" lon="5.25283">
        <ele>1536.3</ele>
        <time>2022-07-21T07:15:28Z</time>
      </trkpt>
      <trkpt lat="44.17766" lon="5.25287">
        <ele>1536.4</ele>
        <time>2022-07-21T07:15:29Z</time>
      </trkpt>
      <trkpt lat="44.17767" lon="5.25288">
        <ele>1536.5</ele>
        <time>2022-07-21T07:15:30Z</time>
      </trkpt>
      <trkpt lat="44.17767" lon="5.25293">
        <ele>1536.6</ele>
        <time>2022-07-21T07:15:31Z</time>
      </trkpt>
      <trkpt lat="44.17768" lon="5.25294">
        <ele>1536.6</ele>
        <time>2022-07-21T07:15:32Z</time>
      </trkpt>
      <trkpt lat="44.17768" lon="5.25298">
        <ele>1536.8</ele>
        <time>2022-07-21T07:15:33Z</time>
      </trkpt>
      <trkpt lat="44.17769" lon="5.25299">
        <ele>1536.8</ele>
        <time>2022-07-21T07:15:34Z</time>
      </trkpt>
      <trkpt lat="44.17769" lon="5.25304">
        <ele>1537</ele>
        <time>2022-07-21T07:15:35Z</time>
      </trkpt>
      <trkpt lat="44.17769" lon="5.25305">
        <ele>1537</ele>
        <time>2022-07-21T07:15:36Z</time>
      </trkpt>
      <trkpt lat="44.17769" lon="5.2531">
        <ele>1537.2</ele>
        <time>2022-07-21T07:15:37Z</time>
      </trkpt>
      <trkpt lat="44.17769" lon="5.25311">
        <ele>1537.2</ele>
        <time>2022-07-21T07:15:38Z</time>
      </trkpt>
      <trkpt lat="44.17768" lon="5.25314">
        <ele>1537.3</ele>
        <time>2022-07-21T07:15:39Z</time>
      </trkpt>
      <trkpt lat="44.17768" lon="5.25316">
        <ele>1537.4</ele>
        <time>2022-07-21T07:15:40Z</time>
      </trkpt>
      <trkpt lat="44.17767" lon="5.25318">
        <ele>1537.5</ele>
        <time>2022-07-21T07:15:41Z</time>
      </trkpt>
      <trkpt lat="44.17766" lon="5.2532">
        <ele>1537.6</ele>
        <time>2022-07-21T07:15:42Z</time>
      </trkpt>
      <trkpt lat="44.17766" lon="5.25322">
        <ele>1537.7</ele>
        <time>2022-07-21T07:15:43Z</time>
      </trkpt>
      <trkpt lat="44.17766" lon="5.25325">
        <ele>1537.8</ele>
        <time>2022-07-21T07:15:44Z</time>
      </trkpt>
      <trkpt lat="44.17766" lon="5.25327">
        <ele>1537.9</ele>
        <time>2022-07-21T07:15:45Z</time>
      </trkpt>
      <trkpt lat="44.17766" lon="5.25329">
        <ele>1538</ele>
        <time>2022-07-21T07:15:46Z</time>
      </trkpt>
      <trkpt lat="44.17767" lon="5.25331">
        <ele>1538.1</ele>
        <time>2022-07-21T07:15:47Z</time>
      </trkpt>
      <trkpt lat="44.17766" lon="5.25332">
        <ele>1538.2</ele>
        <time>2022-07-21T07:15:48Z</time>
      </trkpt>
      <trkpt lat="44.17766" lon="5.25333">
        <ele>1538.3</ele>
        <time>2022-07-21T07:15:49Z</time>
      </trkpt>
      <trkpt lat="44.17766" lon="5.25335">
        <ele>1538.4</ele>
        <time>2022-07-21T07:15:50Z</time>
      </trkpt>
      <trkpt lat="44.17767" lon="5.25337">
        <ele>1538.5</ele>
        <time>2022-07-21T07:15:51Z</time>
      </trkpt>
      <trkpt lat="44.17767" lon="5.25339">
        <ele>1538.6</ele>
        <time>2022-07-21T07:15:52Z</time>
      </trkpt>
      <trkpt lat="44.17768" lon="5.25342">
        <ele>1538.7</ele>
        <time>2022-07-21T07:15:53Z</time>
      </trkpt>
      <trkpt lat="44.17769" lon="5.25347">
        <ele>1539</ele>
        <time>2022-07-21T07:15:54Z</time>
      </trkpt>
      <trkpt lat="44.17769" lon="5.25349">
        <ele>1539.1</ele>
        <time>2022-07-21T07:15:55Z</time>
      </trkpt>
      <trkpt lat="44.17771" lon="5.25353">
        <ele>1539.4</ele>
        <time>2022-07-21T07:15:56Z</time>
      </trkpt>
      <trkpt lat="44.17772" lon="5.25355">
        <ele>1539.5</ele>
        <time>2022-07-21T07:15:57Z</time>
      </trkpt>
      <trkpt lat="44.17773" lon="5.25359">
        <ele>1539.8</ele>
        <time>2022-07-21T07:15:58Z</time>
      </trkpt>
      <trkpt lat="44.17774" lon="5.2536">
        <ele>1539.8</ele>
        <time>2022-07-21T07:15:59Z</time>
      </trkpt>
      <trkpt lat="44.17773" lon="5.25363">
        <ele>1539.9</ele>
        <time>2022-07-21T07:16:00Z</time>
      </trkpt>
      <trkpt lat="44.17773" lon="5.25365">
        <ele>1540.1</ele>
        <time>2022-07-21T07:16:01Z</time>
      </trkpt>
      <trkpt lat="44.17771" lon="5.25368">
        <ele>1540.3</ele>
        <time>2022-07-21T07:16:02Z</time>
      </trkpt>
      <trkpt lat="44.17771" lon="5.25369">
        <ele>1540.3</ele>
        <time>2022-07-21T07:16:03Z</time>
      </trkpt>
      <trkpt lat="44.1777" lon="5.25373">
        <ele>1540.6</ele>
        <time>2022-07-21T07:16:04Z</time>
      </trkpt>
      <trkpt lat="44.1777" lon="5.25374">
        <ele>1540.6</ele>
        <time>2022-07-21T07:16:05Z</time>
      </trkpt>
      <trkpt lat="44.1777" lon="5.25378">
        <ele>1540.8</ele>
        <time>2022-07-21T07:16:06Z</time>
      </trkpt>
      <trkpt lat="44.17769" lon="5.2538">
        <ele>1540.9</ele>
        <time>2022-07-21T07:16:07Z</time>
      </trkpt>
      <trkpt lat="44.17768" lon="5.25383">
        <ele>1541.1</ele>
        <time>2022-07-21T07:16:08Z</time>
      </trkpt>
      <trkpt lat="44.17767" lon="5.25388">
        <ele>1541.3</ele>
        <time>2022-07-21T07:16:09Z</time>
      </trkpt>
      <trkpt lat="44.17766" lon="5.2539">
        <ele>1541.4</ele>
        <time>2022-07-21T07:16:10Z</time>
      </trkpt>
      <trkpt lat="44.17765" lon="5.25395">
        <ele>1541.7</ele>
        <time>2022-07-21T07:16:11Z</time>
      </trkpt>
      <trkpt lat="44.17765" lon="5.25396">
        <ele>1541.7</ele>
        <time>2022-07-21T07:16:12Z</time>
      </trkpt>
      <trkpt lat="44.17765" lon="5.254">
        <ele>1541.9</ele>
        <time>2022-07-21T07:16:13Z</time>
      </trkpt>
      <trkpt lat="44.17765" lon="5.25401">
        <ele>1542</ele>
        <time>2022-07-21T07:16:14Z</time>
      </trkpt>
      <trkpt lat="44.17765" lon="5.25406">
        <ele>1542.2</ele>
        <time>2022-07-21T07:16:15Z</time>
      </trkpt>
      <trkpt lat="44.17765" lon="5.25407">
        <ele>1542.3</ele>
        <time>2022-07-21T07:16:16Z</time>
      </trkpt>
      <trkpt lat="44.17765" lon="5.25412">
        <ele>1542.5</ele>
        <time>2022-07-21T07:16:17Z</time>
      </trkpt>
      <trkpt lat="44.17764" lon="5.25413">
        <ele>1542.6</ele>
        <time>2022-07-21T07:16:18Z</time>
      </trkpt>
      <trkpt lat="44.17762" lon="5.25417">
        <ele>1542.8</ele>
        <time>2022-07-21T07:16:19Z</time>
      </trkpt>
      <trkpt lat="44.17761" lon="5.25419">
        <ele>1542.9</ele>
        <time>2022-07-21T07:16:20Z</time>
      </trkpt>
      <trkpt lat="44.1776" lon="5.25421">
        <ele>1543.1</ele>
        <time>2022-07-21T07:16:21Z</time>
      </trkpt>
      <trkpt lat="44.1776" lon="5.25422">
        <ele>1543.1</ele>
        <time>2022-07-21T07:16:22Z</time>
      </trkpt>
      <trkpt lat="44.1776" lon="5.25423">
        <ele>1543.2</ele>
        <time>2022-07-21T07:16:23Z</time>
      </trkpt>
      <trkpt lat="44.1776" lon="5.25425">
        <ele>1543.3</ele>
        <time>2022-07-21T07:16:24Z</time>
      </trkpt>
      <trkpt lat="44.1776" lon="5.25426">
        <ele>1543.3</ele>
        <time>2022-07-21T07:16:25Z</time>
      </trkpt>
      <trkpt lat="44.1776" lon="5.25427">
        <ele>1543.4</ele>
        <time>2022-07-21T07:16:26Z</time>
      </trkpt>
      <trkpt lat="44.1776" lon="5.25428">
        <ele>1543.5</ele>
        <time>2022-07-21T07:16:27Z</time>
      </trkpt>
      <trkpt lat="44.1776" lon="5.2543">
        <ele>1543.5</ele>
        <time>2022-07-21T07:16:28Z</time>
      </trkpt>
      <trkpt lat="44.1776" lon="5.25431">
        <ele>1543.6</ele>
        <time>2022-07-21T07:16:29Z</time>
      </trkpt>
      <trkpt lat="44.17761" lon="5.25433">
        <ele>1543.7</ele>
        <time>2022-07-21T07:16:30Z</time>
      </trkpt>
      <trkpt lat="44.17762" lon="5.25436">
        <ele>1543.9</ele>
        <time>2022-07-21T07:16:31Z</time>
      </trkpt>
      <trkpt lat="44.17762" lon="5.25437">
        <ele>1544</ele>
        <time>2022-07-21T07:16:32Z</time>
      </trkpt>
      <trkpt lat="44.17764" lon="5.25442">
        <ele>1544.2</ele>
        <time>2022-07-21T07:16:33Z</time>
      </trkpt>
      <trkpt lat="44.17764" lon="5.25443">
        <ele>1544.3</ele>
        <time>2022-07-21T07:16:34Z</time>
      </trkpt>
      <trkpt lat="44.17764" lon="5.25447">
        <ele>1544.5</ele>
        <time>2022-07-21T07:16:35Z</time>
      </trkpt>
      <trkpt lat="44.17765" lon="5.25448">
        <ele>1544.6</ele>
        <time>2022-07-21T07:16:36Z</time>
      </trkpt>
      <trkpt lat="44.17765" lon="5.25453">
        <ele>1544.8</ele>
        <time>2022-07-21T07:16:37Z</time>
      </trkpt>
      <trkpt lat="44.17765" lon="5.25455">
        <ele>1544.9</ele>
        <time>2022-07-21T07:16:38Z</time>
      </trkpt>
      <trkpt lat="44.17764" lon="5.25459">
        <ele>1545.1</ele>
        <time>2022-07-21T07:16:39Z</time>
      </trkpt>
      <trkpt lat="44.17764" lon="5.2546">
        <ele>1545.2</ele>
        <time>2022-07-21T07:16:40Z</time>
      </trkpt>
      <trkpt lat="44.17764" lon="5.25463">
        <ele>1545.3</ele>
        <time>2022-07-21T07:16:41Z</time>
      </trkpt>
      <trkpt lat="44.17765" lon="5.25464">
        <ele>1545.4</ele>
        <time>2022-07-21T07:16:42Z</time>
      </trkpt>
      <trkpt lat="44.17765" lon="5.25467">
        <ele>1545.6</ele>
        <time>2022-07-21T07:16:43Z</time>
      </trkpt>
      <trkpt lat="44.17765" lon="5.25468">
        <ele>1545.6</ele>
        <time>2022-07-21T07:16:44Z</time>
      </trkpt>
      <trkpt lat="44.17766" lon="5.25469">
        <ele>1545.7</ele>
        <time>2022-07-21T07:16:45Z</time>
      </trkpt>
      <trkpt lat="44.17766" lon="5.25471">
        <ele>1545.8</ele>
        <time>2022-07-21T07:16:46Z</time>
      </trkpt>
      <trkpt lat="44.17766" lon="5.25473">
        <ele>1545.9</ele>
        <time>2022-07-21T07:16:47Z</time>
      </trkpt>
      <trkpt lat="44.17766" lon="5.25476">
        <ele>1546.1</ele>
        <time>2022-07-21T07:16:48Z</time>
      </trkpt>
      <trkpt lat="44.17766" lon="5.25478">
        <ele>1546.1</ele>
        <time>2022-07-21T07:16:49Z</time>
      </trkpt>
      <trkpt lat="44.17766" lon="5.25479">
        <ele>1546.2</ele>
        <time>2022-07-21T07:16:50Z</time>
      </trkpt>
      <trkpt lat="44.17766" lon="5.25482">
        <ele>1546.4</ele>
        <time>2022-07-21T07:16:51Z</time>
      </trkpt>
      <trkpt lat="44.17765" lon="5.25484">
        <ele>1546.5</ele>
        <time>2022-07-21T07:16:52Z</time>
      </trkpt>
      <trkpt lat="44.17765" lon="5.25486">
        <ele>1546.6</ele>
        <time>2022-07-21T07:16:53Z</time>
      </trkpt>
      <trkpt lat="44.17765" lon="5.25487">
        <ele>1546.6</ele>
        <time>2022-07-21T07:16:54Z</time>
      </trkpt>
      <trkpt lat="44.17765" lon="5.25488">
        <ele>1546.7</ele>
        <time>2022-07-21T07:16:55Z</time>
      </trkpt>
      <trkpt lat="44.17766" lon="5.2549">
        <ele>1546.8</ele>
        <time>2022-07-21T07:16:56Z</time>
      </trkpt>
      <trkpt lat="44.17767" lon="5.25492">
        <ele>1546.9</ele>
        <time>2022-07-21T07:16:57Z</time>
      </trkpt>
      <trkpt lat="44.17767" lon="5.25495">
        <ele>1547</ele>
        <time>2022-07-21T07:16:58Z</time>
      </trkpt>
      <trkpt lat="44.17767" lon="5.25497">
        <ele>1547.2</ele>
        <time>2022-07-21T07:16:59Z</time>
      </trkpt>
      <trkpt lat="44.17765" lon="5.255">
        <ele>1547.4</ele>
        <time>2022-07-21T07:17:00Z</time>
      </trkpt>
      <trkpt lat="44.17764" lon="5.25502">
        <ele>1547.5</ele>
        <time>2022-07-21T07:17:01Z</time>
      </trkpt>
      <trkpt lat="44.17763" lon="5.25503">
        <ele>1547.6</ele>
        <time>2022-07-21T07:17:02Z</time>
      </trkpt>
      <trkpt lat="44.17762" lon="5.25505">
        <ele>1547.7</ele>
        <time>2022-07-21T07:17:03Z</time>
      </trkpt>
      <trkpt lat="44.17761" lon="5.25506">
        <ele>1547.8</ele>
        <time>2022-07-21T07:17:04Z</time>
      </trkpt>
      <trkpt lat="44.1776" lon="5.25507">
        <ele>1547.8</ele>
        <time>2022-07-21T07:17:05Z</time>
      </trkpt>
      <trkpt lat="44.1776" lon="5.25508">
        <ele>1547.9</ele>
        <time>2022-07-21T07:17:06Z</time>
      </trkpt>
      <trkpt lat="44.17759" lon="5.25511">
        <ele>1548</ele>
        <time>2022-07-21T07:17:07Z</time>
      </trkpt>
      <trkpt lat="44.17759" lon="5.25512">
        <ele>1548.1</ele>
        <time>2022-07-21T07:17:08Z</time>
      </trkpt>
      <trkpt lat="44.17759" lon="5.25513">
        <ele>1548.1</ele>
        <time>2022-07-21T07:17:09Z</time>
      </trkpt>
      <trkpt lat="44.17758" lon="5.25516">
        <ele>1548.3</ele>
        <time>2022-07-21T07:17:10Z</time>
      </trkpt>
      <trkpt lat="44.17757" lon="5.25517">
        <ele>1548.4</ele>
        <time>2022-07-21T07:17:11Z</time>
      </trkpt>
      <trkpt lat="44.17757" lon="5.25518">
        <ele>1548.4</ele>
        <time>2022-07-21T07:17:12Z</time>
      </trkpt>
      <trkpt lat="44.17757" lon="5.25521">
        <ele>1548.5</ele>
        <time>2022-07-21T07:17:13Z</time>
      </trkpt>
      <trkpt lat="44.17757" lon="5.25522">
        <ele>1548.6</ele>
        <time>2022-07-21T07:17:14Z</time>
      </trkpt>
      <trkpt lat="44.17757" lon="5.25523">
        <ele>1548.6</ele>
        <time>2022-07-21T07:17:15Z</time>
      </trkpt>
      <trkpt lat="44.17757" lon="5.25524">
        <ele>1548.7</ele>
        <time>2022-07-21T07:17:16Z</time>
      </trkpt>
      <trkpt lat="44.17757" lon="5.25526">
        <ele>1548.8</ele>
        <time>2022-07-21T07:17:17Z</time>
      </trkpt>
      <trkpt lat="44.17758" lon="5.25527">
        <ele>1548.8</ele>
        <time>2022-07-21T07:17:18Z</time>
      </trkpt>
      <trkpt lat="44.17758" lon="5.25528">
        <ele>1548.9</ele>
        <time>2022-07-21T07:17:19Z</time>
      </trkpt>
      <trkpt lat="44.17758" lon="5.25529">
        <ele>1548.9</ele>
        <time>2022-07-21T07:17:20Z</time>
      </trkpt>
      <trkpt lat="44.17758" lon="5.2553">
        <ele>1549</ele>
        <time>2022-07-21T07:17:21Z</time>
      </trkpt>
      <trkpt lat="44.17758" lon="5.25531">
        <ele>1549</ele>
        <time>2022-07-21T07:17:22Z</time>
      </trkpt>
      <trkpt lat="44.17758" lon="5.25532">
        <ele>1549</ele>
        <time>2022-07-21T07:17:23Z</time>
      </trkpt>
      <trkpt lat="44.17758" lon="5.25534">
        <ele>1549.1</ele>
        <time>2022-07-21T07:17:24Z</time>
      </trkpt>
      <trkpt lat="44.17758" lon="5.25535">
        <ele>1549.2</ele>
        <time>2022-07-21T07:17:25Z</time>
      </trkpt>
      <trkpt lat="44.17756" lon="5.25539">
        <ele>1549.3</ele>
        <time>2022-07-21T07:17:26Z</time>
      </trkpt>
      <trkpt lat="44.17756" lon="5.2554">
        <ele>1549.4</ele>
        <time>2022-07-21T07:17:27Z</time>
      </trkpt>
      <trkpt lat="44.17755" lon="5.25541">
        <ele>1549.4</ele>
        <time>2022-07-21T07:17:28Z</time>
      </trkpt>
      <trkpt lat="44.17755" lon="5.25542">
        <ele>1549.4</ele>
        <time>2022-07-21T07:17:29Z</time>
      </trkpt>
      <trkpt lat="44.17755" lon="5.25543">
        <ele>1549.5</ele>
        <time>2022-07-21T07:17:30Z</time>
      </trkpt>
      <trkpt lat="44.17755" lon="5.25545">
        <ele>1549.6</ele>
        <time>2022-07-21T07:17:31Z</time>
      </trkpt>
      <trkpt lat="44.17756" lon="5.25548">
        <ele>1549.7</ele>
        <time>2022-07-21T07:17:32Z</time>
      </trkpt>
      <trkpt lat="44.17757" lon="5.25549">
        <ele>1549.7</ele>
        <time>2022-07-21T07:17:33Z</time>
      </trkpt>
      <trkpt lat="44.17758" lon="5.25554">
        <ele>1549.9</ele>
        <time>2022-07-21T07:17:34Z</time>
      </trkpt>
      <trkpt lat="44.17759" lon="5.25556">
        <ele>1550</ele>
        <time>2022-07-21T07:17:35Z</time>
      </trkpt>
      <trkpt lat="44.17765" lon="5.25586">
        <ele>1550.9</ele>
        <time>2022-07-21T07:17:36Z</time>
      </trkpt>
      <trkpt lat="44.17766" lon="5.25589">
        <ele>1550.9</ele>
        <time>2022-07-21T07:17:37Z</time>
      </trkpt>
      <trkpt lat="44.17767" lon="5.25592">
        <ele>1551</ele>
        <time>2022-07-21T07:17:38Z</time>
      </trkpt>
      <trkpt lat="44.17769" lon="5.25596">
        <ele>1551.1</ele>
        <time>2022-07-21T07:17:39Z</time>
      </trkpt>
      <trkpt lat="44.17771" lon="5.25599">
        <ele>1551.2</ele>
        <time>2022-07-21T07:17:40Z</time>
      </trkpt>
      <trkpt lat="44.17773" lon="5.25603">
        <ele>1551.3</ele>
        <time>2022-07-21T07:17:41Z</time>
      </trkpt>
      <trkpt lat="44.17775" lon="5.25606">
        <ele>1551.4</ele>
        <time>2022-07-21T07:17:42Z</time>
      </trkpt>
      <trkpt lat="44.17777" lon="5.2561">
        <ele>1551.4</ele>
        <time>2022-07-21T07:17:43Z</time>
      </trkpt>
      <trkpt lat="44.17778" lon="5.25611">
        <ele>1551.5</ele>
        <time>2022-07-21T07:17:44Z</time>
      </trkpt>
      <trkpt lat="44.17781" lon="5.25615">
        <ele>1551.6</ele>
        <time>2022-07-21T07:17:45Z</time>
      </trkpt>
      <trkpt lat="44.17782" lon="5.25616">
        <ele>1551.6</ele>
        <time>2022-07-21T07:17:46Z</time>
      </trkpt>
      <trkpt lat="44.17784" lon="5.25618">
        <ele>1551.6</ele>
        <time>2022-07-21T07:17:47Z</time>
      </trkpt>
      <trkpt lat="44.17785" lon="5.25619">
        <ele>1551.7</ele>
        <time>2022-07-21T07:17:48Z</time>
      </trkpt>
      <trkpt lat="44.17786" lon="5.25624">
        <ele>1551.7</ele>
        <time>2022-07-21T07:17:49Z</time>
      </trkpt>
      <trkpt lat="44.17787" lon="5.25625">
        <ele>1551.8</ele>
        <time>2022-07-21T07:17:50Z</time>
      </trkpt>
      <trkpt lat="44.17786" lon="5.25628">
        <ele>1551.8</ele>
        <time>2022-07-21T07:17:51Z</time>
      </trkpt>
      <trkpt lat="44.17786" lon="5.2563">
        <ele>1551.9</ele>
        <time>2022-07-21T07:17:52Z</time>
      </trkpt>
      <trkpt lat="44.17785" lon="5.25632">
        <ele>1551.9</ele>
        <time>2022-07-21T07:17:53Z</time>
      </trkpt>
      <trkpt lat="44.17784" lon="5.25634">
        <ele>1551.9</ele>
        <time>2022-07-21T07:17:54Z</time>
      </trkpt>
      <trkpt lat="44.17782" lon="5.25636">
        <ele>1552</ele>
        <time>2022-07-21T07:17:55Z</time>
      </trkpt>
      <trkpt lat="44.17779" lon="5.25638">
        <ele>1552.1</ele>
        <time>2022-07-21T07:17:56Z</time>
      </trkpt>
      <trkpt lat="44.17777" lon="5.25641">
        <ele>1552.2</ele>
        <time>2022-07-21T07:17:57Z</time>
      </trkpt>
      <trkpt lat="44.17776" lon="5.25642">
        <ele>1552.3</ele>
        <time>2022-07-21T07:17:58Z</time>
      </trkpt>
      <trkpt lat="44.17776" lon="5.25647">
        <ele>1552.4</ele>
        <time>2022-07-21T07:17:59Z</time>
      </trkpt>
      <trkpt lat="44.17776" lon="5.25648">
        <ele>1552.4</ele>
        <time>2022-07-21T07:18:00Z</time>
      </trkpt>
      <trkpt lat="44.17778" lon="5.25653">
        <ele>1552.6</ele>
        <time>2022-07-21T07:18:01Z</time>
      </trkpt>
      <trkpt lat="44.17778" lon="5.25655">
        <ele>1552.6</ele>
        <time>2022-07-21T07:18:02Z</time>
      </trkpt>
      <trkpt lat="44.1778" lon="5.25659">
        <ele>1552.8</ele>
        <time>2022-07-21T07:18:03Z</time>
      </trkpt>
      <trkpt lat="44.1778" lon="5.25661">
        <ele>1552.8</ele>
        <time>2022-07-21T07:18:04Z</time>
      </trkpt>
      <trkpt lat="44.17782" lon="5.25664">
        <ele>1553</ele>
        <time>2022-07-21T07:18:05Z</time>
      </trkpt>
      <trkpt lat="44.17783" lon="5.25666">
        <ele>1553.1</ele>
        <time>2022-07-21T07:18:06Z</time>
      </trkpt>
      <trkpt lat="44.17784" lon="5.2567">
        <ele>1553.2</ele>
        <time>2022-07-21T07:18:07Z</time>
      </trkpt>
      <trkpt lat="44.17784" lon="5.25671">
        <ele>1553.3</ele>
        <time>2022-07-21T07:18:08Z</time>
      </trkpt>
      <trkpt lat="44.17785" lon="5.25676">
        <ele>1553.4</ele>
        <time>2022-07-21T07:18:09Z</time>
      </trkpt>
      <trkpt lat="44.17785" lon="5.25677">
        <ele>1553.5</ele>
        <time>2022-07-21T07:18:10Z</time>
      </trkpt>
      <trkpt lat="44.17785" lon="5.25679">
        <ele>1553.6</ele>
        <time>2022-07-21T07:18:11Z</time>
      </trkpt>
      <trkpt lat="44.17786" lon="5.25681">
        <ele>1553.6</ele>
        <time>2022-07-21T07:18:12Z</time>
      </trkpt>
      <trkpt lat="44.17786" lon="5.25682">
        <ele>1553.7</ele>
        <time>2022-07-21T07:18:13Z</time>
      </trkpt>
      <trkpt lat="44.17787" lon="5.25684">
        <ele>1553.8</ele>
        <time>2022-07-21T07:18:14Z</time>
      </trkpt>
      <trkpt lat="44.17788" lon="5.25687">
        <ele>1553.9</ele>
        <time>2022-07-21T07:18:15Z</time>
      </trkpt>
      <trkpt lat="44.17787" lon="5.25689">
        <ele>1554</ele>
        <time>2022-07-21T07:18:16Z</time>
      </trkpt>
      <trkpt lat="44.17787" lon="5.25691">
        <ele>1554.1</ele>
        <time>2022-07-21T07:18:17Z</time>
      </trkpt>
      <trkpt lat="44.17786" lon="5.25693">
        <ele>1554.2</ele>
        <time>2022-07-21T07:18:18Z</time>
      </trkpt>
      <trkpt lat="44.17786" lon="5.25695">
        <ele>1554.2</ele>
        <time>2022-07-21T07:18:19Z</time>
      </trkpt>
      <trkpt lat="44.17786" lon="5.25697">
        <ele>1554.3</ele>
        <time>2022-07-21T07:18:20Z</time>
      </trkpt>
      <trkpt lat="44.17787" lon="5.25699">
        <ele>1554.4</ele>
        <time>2022-07-21T07:18:21Z</time>
      </trkpt>
      <trkpt lat="44.17787" lon="5.257">
        <ele>1554.5</ele>
        <time>2022-07-21T07:18:22Z</time>
      </trkpt>
      <trkpt lat="44.17785" lon="5.25704">
        <ele>1554.7</ele>
        <time>2022-07-21T07:18:23Z</time>
      </trkpt>
      <trkpt lat="44.17784" lon="5.25706">
        <ele>1554.8</ele>
        <time>2022-07-21T07:18:24Z</time>
      </trkpt>
      <trkpt lat="44.17783" lon="5.2571">
        <ele>1555</ele>
        <time>2022-07-21T07:18:25Z</time>
      </trkpt>
      <trkpt lat="44.17783" lon="5.25712">
        <ele>1555.1</ele>
        <time>2022-07-21T07:18:26Z</time>
      </trkpt>
      <trkpt lat="44.17783" lon="5.25714">
        <ele>1555.2</ele>
        <time>2022-07-21T07:18:27Z</time>
      </trkpt>
      <trkpt lat="44.17783" lon="5.25716">
        <ele>1555.3</ele>
        <time>2022-07-21T07:18:28Z</time>
      </trkpt>
      <trkpt lat="44.17784" lon="5.25718">
        <ele>1555.4</ele>
        <time>2022-07-21T07:18:29Z</time>
      </trkpt>
      <trkpt lat="44.17785" lon="5.25719">
        <ele>1555.5</ele>
        <time>2022-07-21T07:18:30Z</time>
      </trkpt>
      <trkpt lat="44.17785" lon="5.2572">
        <ele>1555.5</ele>
        <time>2022-07-21T07:18:31Z</time>
      </trkpt>
      <trkpt lat="44.17786" lon="5.25725">
        <ele>1555.7</ele>
        <time>2022-07-21T07:18:32Z</time>
      </trkpt>
      <trkpt lat="44.17786" lon="5.25726">
        <ele>1555.8</ele>
        <time>2022-07-21T07:18:33Z</time>
      </trkpt>
      <trkpt lat="44.17785" lon="5.25728">
        <ele>1555.9</ele>
        <time>2022-07-21T07:18:34Z</time>
      </trkpt>
      <trkpt lat="44.17785" lon="5.2573">
        <ele>1556</ele>
        <time>2022-07-21T07:18:35Z</time>
      </trkpt>
      <trkpt lat="44.17784" lon="5.25732">
        <ele>1556.1</ele>
        <time>2022-07-21T07:18:36Z</time>
      </trkpt>
      <trkpt lat="44.17784" lon="5.25734">
        <ele>1556.2</ele>
        <time>2022-07-21T07:18:37Z</time>
      </trkpt>
      <trkpt lat="44.17783" lon="5.25737">
        <ele>1556.3</ele>
        <time>2022-07-21T07:18:38Z</time>
      </trkpt>
      <trkpt lat="44.17783" lon="5.25738">
        <ele>1556.4</ele>
        <time>2022-07-21T07:18:39Z</time>
      </trkpt>
      <trkpt lat="44.17783" lon="5.25738">
        <ele>1556.4</ele>
        <time>2022-07-21T07:18:40Z</time>
      </trkpt>
      <trkpt lat="44.17784" lon="5.25739">
        <ele>1556.5</ele>
        <time>2022-07-21T07:18:41Z</time>
      </trkpt>
      <trkpt lat="44.17784" lon="5.2574">
        <ele>1556.6</ele>
        <time>2022-07-21T07:18:42Z</time>
      </trkpt>
      <trkpt lat="44.17784" lon="5.25741">
        <ele>1556.6</ele>
        <time>2022-07-21T07:18:43Z</time>
      </trkpt>
      <trkpt lat="44.17784" lon="5.25742">
        <ele>1556.7</ele>
        <time>2022-07-21T07:18:44Z</time>
      </trkpt>
      <trkpt lat="44.17783" lon="5.25744">
        <ele>1556.7</ele>
        <time>2022-07-21T07:18:45Z</time>
      </trkpt>
      <trkpt lat="44.17783" lon="5.25747">
        <ele>1556.9</ele>
        <time>2022-07-21T07:18:46Z</time>
      </trkpt>
      <trkpt lat="44.17783" lon="5.25749">
        <ele>1557</ele>
        <time>2022-07-21T07:18:47Z</time>
      </trkpt>
      <trkpt lat="44.17784" lon="5.25752">
        <ele>1557.2</ele>
        <time>2022-07-21T07:18:48Z</time>
      </trkpt>
      <trkpt lat="44.17785" lon="5.25752">
        <ele>1557.2</ele>
        <time>2022-07-21T07:18:49Z</time>
      </trkpt>
      <trkpt lat="44.17785" lon="5.25753">
        <ele>1557.3</ele>
        <time>2022-07-21T07:18:50Z</time>
      </trkpt>
      <trkpt lat="44.17786" lon="5.25754">
        <ele>1557.4</ele>
        <time>2022-07-21T07:18:51Z</time>
      </trkpt>
      <trkpt lat="44.17787" lon="5.25757">
        <ele>1557.6</ele>
        <time>2022-07-21T07:18:52Z</time>
      </trkpt>
      <trkpt lat="44.17789" lon="5.25761">
        <ele>1557.8</ele>
        <time>2022-07-21T07:18:53Z</time>
      </trkpt>
      <trkpt lat="44.17789" lon="5.25762">
        <ele>1557.9</ele>
        <time>2022-07-21T07:18:54Z</time>
      </trkpt>
      <trkpt lat="44.1779" lon="5.25767">
        <ele>1558.2</ele>
        <time>2022-07-21T07:18:55Z</time>
      </trkpt>
      <trkpt lat="44.1779" lon="5.25769">
        <ele>1558.3</ele>
        <time>2022-07-21T07:18:56Z</time>
      </trkpt>
      <trkpt lat="44.17791" lon="5.25773">
        <ele>1558.6</ele>
        <time>2022-07-21T07:18:57Z</time>
      </trkpt>
      <trkpt lat="44.17791" lon="5.25775">
        <ele>1558.7</ele>
        <time>2022-07-21T07:18:58Z</time>
      </trkpt>
      <trkpt lat="44.17791" lon="5.25779">
        <ele>1559</ele>
        <time>2022-07-21T07:18:59Z</time>
      </trkpt>
      <trkpt lat="44.17791" lon="5.2578">
        <ele>1559.1</ele>
        <time>2022-07-21T07:19:00Z</time>
      </trkpt>
      <trkpt lat="44.1779" lon="5.25784">
        <ele>1559.3</ele>
        <time>2022-07-21T07:19:01Z</time>
      </trkpt>
      <trkpt lat="44.1779" lon="5.25786">
        <ele>1559.4</ele>
        <time>2022-07-21T07:19:02Z</time>
      </trkpt>
      <trkpt lat="44.17789" lon="5.2579">
        <ele>1559.7</ele>
        <time>2022-07-21T07:19:03Z</time>
      </trkpt>
      <trkpt lat="44.17789" lon="5.25792">
        <ele>1559.8</ele>
        <time>2022-07-21T07:19:04Z</time>
      </trkpt>
      <trkpt lat="44.17789" lon="5.25796">
        <ele>1560.1</ele>
        <time>2022-07-21T07:19:05Z</time>
      </trkpt>
      <trkpt lat="44.17789" lon="5.25798">
        <ele>1560.2</ele>
        <time>2022-07-21T07:19:06Z</time>
      </trkpt>
      <trkpt lat="44.17791" lon="5.25802">
        <ele>1560.6</ele>
        <time>2022-07-21T07:19:07Z</time>
      </trkpt>
      <trkpt lat="44.17791" lon="5.25803">
        <ele>1560.7</ele>
        <time>2022-07-21T07:19:08Z</time>
      </trkpt>
      <trkpt lat="44.17792" lon="5.25805">
        <ele>1560.8</ele>
        <time>2022-07-21T07:19:09Z</time>
      </trkpt>
      <trkpt lat="44.17793" lon="5.25806">
        <ele>1560.8</ele>
        <time>2022-07-21T07:19:10Z</time>
      </trkpt>
      <trkpt lat="44.17793" lon="5.25807">
        <ele>1561</ele>
        <time>2022-07-21T07:19:11Z</time>
      </trkpt>
      <trkpt lat="44.17794" lon="5.25809">
        <ele>1561.1</ele>
        <time>2022-07-21T07:19:12Z</time>
      </trkpt>
      <trkpt lat="44.17793" lon="5.2581">
        <ele>1561.2</ele>
        <time>2022-07-21T07:19:13Z</time>
      </trkpt>
      <trkpt lat="44.17793" lon="5.25811">
        <ele>1561.3</ele>
        <time>2022-07-21T07:19:14Z</time>
      </trkpt>
      <trkpt lat="44.17792" lon="5.25812">
        <ele>1561.4</ele>
        <time>2022-07-21T07:19:15Z</time>
      </trkpt>
      <trkpt lat="44.17792" lon="5.25815">
        <ele>1561.6</ele>
        <time>2022-07-21T07:19:16Z</time>
      </trkpt>
      <trkpt lat="44.17791" lon="5.25817">
        <ele>1561.7</ele>
        <time>2022-07-21T07:19:17Z</time>
      </trkpt>
      <trkpt lat="44.1779" lon="5.25819">
        <ele>1561.9</ele>
        <time>2022-07-21T07:19:18Z</time>
      </trkpt>
      <trkpt lat="44.17789" lon="5.25821">
        <ele>1562.1</ele>
        <time>2022-07-21T07:19:19Z</time>
      </trkpt>
      <trkpt lat="44.17787" lon="5.25824">
        <ele>1562.4</ele>
        <time>2022-07-21T07:19:20Z</time>
      </trkpt>
      <trkpt lat="44.17786" lon="5.25825">
        <ele>1562.6</ele>
        <time>2022-07-21T07:19:21Z</time>
      </trkpt>
      <trkpt lat="44.17785" lon="5.25827">
        <ele>1562.8</ele>
        <time>2022-07-21T07:19:22Z</time>
      </trkpt>
      <trkpt lat="44.17784" lon="5.25828">
        <ele>1562.9</ele>
        <time>2022-07-21T07:19:23Z</time>
      </trkpt>
      <trkpt lat="44.17783" lon="5.25829">
        <ele>1563.1</ele>
        <time>2022-07-21T07:19:24Z</time>
      </trkpt>
      <trkpt lat="44.17782" lon="5.25831">
        <ele>1563.2</ele>
        <time>2022-07-21T07:19:25Z</time>
      </trkpt>
      <trkpt lat="44.1778" lon="5.25835">
        <ele>1563.6</ele>
        <time>2022-07-21T07:19:26Z</time>
      </trkpt>
      <trkpt lat="44.1778" lon="5.25837">
        <ele>1563.8</ele>
        <time>2022-07-21T07:19:27Z</time>
      </trkpt>
      <trkpt lat="44.17779" lon="5.25841">
        <ele>1564.1</ele>
        <time>2022-07-21T07:19:28Z</time>
      </trkpt>
      <trkpt lat="44.17777" lon="5.25845">
        <ele>1564.4</ele>
        <time>2022-07-21T07:19:29Z</time>
      </trkpt>
      <trkpt lat="44.17776" lon="5.25849">
        <ele>1564.8</ele>
        <time>2022-07-21T07:19:30Z</time>
      </trkpt>
      <trkpt lat="44.17775" lon="5.25853">
        <ele>1565.2</ele>
        <time>2022-07-21T07:19:31Z</time>
      </trkpt>
      <trkpt lat="44.17774" lon="5.25854">
        <ele>1565.3</ele>
        <time>2022-07-21T07:19:32Z</time>
      </trkpt>
      <trkpt lat="44.17773" lon="5.25858">
        <ele>1565.7</ele>
        <time>2022-07-21T07:19:33Z</time>
      </trkpt>
      <trkpt lat="44.17773" lon="5.2586">
        <ele>1565.8</ele>
        <time>2022-07-21T07:19:34Z</time>
      </trkpt>
      <trkpt lat="44.17773" lon="5.25862">
        <ele>1566</ele>
        <time>2022-07-21T07:19:35Z</time>
      </trkpt>
      <trkpt lat="44.17773" lon="5.25864">
        <ele>1566.1</ele>
        <time>2022-07-21T07:19:36Z</time>
      </trkpt>
      <trkpt lat="44.17773" lon="5.25865">
        <ele>1566.2</ele>
        <time>2022-07-21T07:19:37Z</time>
      </trkpt>
      <trkpt lat="44.17774" lon="5.25867">
        <ele>1566.4</ele>
        <time>2022-07-21T07:19:38Z</time>
      </trkpt>
      <trkpt lat="44.17774" lon="5.25869">
        <ele>1566.5</ele>
        <time>2022-07-21T07:19:39Z</time>
      </trkpt>
      <trkpt lat="44.17775" lon="5.2587">
        <ele>1566.7</ele>
        <time>2022-07-21T07:19:40Z</time>
      </trkpt>
      <trkpt lat="44.17776" lon="5.2587">
        <ele>1566.8</ele>
        <time>2022-07-21T07:19:41Z</time>
      </trkpt>
      <trkpt lat="44.17776" lon="5.25871">
        <ele>1566.9</ele>
        <time>2022-07-21T07:19:42Z</time>
      </trkpt>
      <trkpt lat="44.17777" lon="5.25873">
        <ele>1567.1</ele>
        <time>2022-07-21T07:19:43Z</time>
      </trkpt>
      <trkpt lat="44.17777" lon="5.25874">
        <ele>1567.2</ele>
        <time>2022-07-21T07:19:44Z</time>
      </trkpt>
      <trkpt lat="44.17776" lon="5.25875">
        <ele>1567.2</ele>
        <time>2022-07-21T07:19:45Z</time>
      </trkpt>
      <trkpt lat="44.17776" lon="5.25876">
        <ele>1567.3</ele>
        <time>2022-07-21T07:19:46Z</time>
      </trkpt>
      <trkpt lat="44.17776" lon="5.25876">
        <ele>1567.4</ele>
        <time>2022-07-21T07:19:47Z</time>
      </trkpt>
      <trkpt lat="44.17775" lon="5.25878">
        <ele>1567.6</ele>
        <time>2022-07-21T07:19:48Z</time>
      </trkpt>
      <trkpt lat="44.17774" lon="5.25879">
        <ele>1567.7</ele>
        <time>2022-07-21T07:19:49Z</time>
      </trkpt>
      <trkpt lat="44.17773" lon="5.25881">
        <ele>1567.9</ele>
        <time>2022-07-21T07:19:50Z</time>
      </trkpt>
      <trkpt lat="44.17772" lon="5.25883">
        <ele>1568.2</ele>
        <time>2022-07-21T07:19:51Z</time>
      </trkpt>
      <trkpt lat="44.1777" lon="5.25886">
        <ele>1568.5</ele>
        <time>2022-07-21T07:19:52Z</time>
      </trkpt>
      <trkpt lat="44.17769" lon="5.25887">
        <ele>1568.6</ele>
        <time>2022-07-21T07:19:53Z</time>
      </trkpt>
      <trkpt lat="44.17769" lon="5.25888">
        <ele>1568.7</ele>
        <time>2022-07-21T07:19:54Z</time>
      </trkpt>
      <trkpt lat="44.17768" lon="5.25888">
        <ele>1568.8</ele>
        <time>2022-07-21T07:19:55Z</time>
      </trkpt>
      <trkpt lat="44.17767" lon="5.2589">
        <ele>1568.9</ele>
        <time>2022-07-21T07:19:56Z</time>
      </trkpt>
      <trkpt lat="44.17767" lon="5.25891">
        <ele>1569</ele>
        <time>2022-07-21T07:19:57Z</time>
      </trkpt>
      <trkpt lat="44.17765" lon="5.25895">
        <ele>1569.4</ele>
        <time>2022-07-21T07:19:58Z</time>
      </trkpt>
      <trkpt lat="44.17765" lon="5.25896">
        <ele>1569.5</ele>
        <time>2022-07-21T07:19:59Z</time>
      </trkpt>
      <trkpt lat="44.17764" lon="5.25899">
        <ele>1569.8</ele>
        <time>2022-07-21T07:20:00Z</time>
      </trkpt>
      <trkpt lat="44.17764" lon="5.259">
        <ele>1569.9</ele>
        <time>2022-07-21T07:20:01Z</time>
      </trkpt>
      <trkpt lat="44.17764" lon="5.25901">
        <ele>1569.9</ele>
        <time>2022-07-21T07:20:02Z</time>
      </trkpt>
      <trkpt lat="44.17765" lon="5.25903">
        <ele>1570.1</ele>
        <time>2022-07-21T07:20:03Z</time>
      </trkpt>
      <trkpt lat="44.17765" lon="5.25904">
        <ele>1570.2</ele>
        <time>2022-07-21T07:20:04Z</time>
      </trkpt>
      <trkpt lat="44.17765" lon="5.25905">
        <ele>1570.2</ele>
        <time>2022-07-21T07:20:05Z</time>
      </trkpt>
      <trkpt lat="44.17765" lon="5.25905">
        <ele>1570.3</ele>
        <time>2022-07-21T07:20:06Z</time>
      </trkpt>
      <trkpt lat="44.17766" lon="5.25906">
        <ele>1570.3</ele>
        <time>2022-07-21T07:20:07Z</time>
      </trkpt>
      <trkpt lat="44.17766" lon="5.25907">
        <ele>1570.4</ele>
        <time>2022-07-21T07:20:08Z</time>
      </trkpt>
      <trkpt lat="44.17766" lon="5.25907">
        <ele>1570.4</ele>
        <time>2022-07-21T07:20:09Z</time>
      </trkpt>
      <trkpt lat="44.17766" lon="5.25911">
        <ele>1570.7</ele>
        <time>2022-07-21T07:20:10Z</time>
      </trkpt>
      <trkpt lat="44.17767" lon="5.25915">
        <ele>1571</ele>
        <time>2022-07-21T07:20:11Z</time>
      </trkpt>
      <trkpt lat="44.17768" lon="5.25921">
        <ele>1571.4</ele>
        <time>2022-07-21T07:20:12Z</time>
      </trkpt>
      <trkpt lat="44.17768" lon="5.25923">
        <ele>1571.5</ele>
        <time>2022-07-21T07:20:13Z</time>
      </trkpt>
      <trkpt lat="44.17769" lon="5.25927">
        <ele>1571.8</ele>
        <time>2022-07-21T07:20:14Z</time>
      </trkpt>
      <trkpt lat="44.17771" lon="5.25932">
        <ele>1572.1</ele>
        <time>2022-07-21T07:20:15Z</time>
      </trkpt>
      <trkpt lat="44.17772" lon="5.25936">
        <ele>1572.3</ele>
        <time>2022-07-21T07:20:16Z</time>
      </trkpt>
      <trkpt lat="44.17774" lon="5.2594">
        <ele>1572.4</ele>
        <time>2022-07-21T07:20:17Z</time>
      </trkpt>
      <trkpt lat="44.17776" lon="5.25943">
        <ele>1572.6</ele>
        <time>2022-07-21T07:20:18Z</time>
      </trkpt>
      <trkpt lat="44.17778" lon="5.25947">
        <ele>1572.7</ele>
        <time>2022-07-21T07:20:19Z</time>
      </trkpt>
      <trkpt lat="44.17779" lon="5.25948">
        <ele>1572.7</ele>
        <time>2022-07-21T07:20:20Z</time>
      </trkpt>
      <trkpt lat="44.1778" lon="5.2595">
        <ele>1572.8</ele>
        <time>2022-07-21T07:20:21Z</time>
      </trkpt>
      <trkpt lat="44.17781" lon="5.25951">
        <ele>1572.8</ele>
        <time>2022-07-21T07:20:22Z</time>
      </trkpt>
      <trkpt lat="44.17782" lon="5.25953">
        <ele>1572.9</ele>
        <time>2022-07-21T07:20:23Z</time>
      </trkpt>
      <trkpt lat="44.17783" lon="5.25955">
        <ele>1572.9</ele>
        <time>2022-07-21T07:20:24Z</time>
      </trkpt>
      <trkpt lat="44.17783" lon="5.25958">
        <ele>1572.9</ele>
        <time>2022-07-21T07:20:25Z</time>
      </trkpt>
      <trkpt lat="44.17783" lon="5.2596">
        <ele>1573</ele>
        <time>2022-07-21T07:20:26Z</time>
      </trkpt>
      <trkpt lat="44.17783" lon="5.25962">
        <ele>1573</ele>
        <time>2022-07-21T07:20:27Z</time>
      </trkpt>
      <trkpt lat="44.17783" lon="5.25963">
        <ele>1573</ele>
        <time>2022-07-21T07:20:28Z</time>
      </trkpt>
      <trkpt lat="44.17783" lon="5.25965">
        <ele>1573</ele>
        <time>2022-07-21T07:20:29Z</time>
      </trkpt>
      <trkpt lat="44.17783" lon="5.25967">
        <ele>1573.1</ele>
        <time>2022-07-21T07:20:30Z</time>
      </trkpt>
      <trkpt lat="44.17784" lon="5.25968">
        <ele>1573.1</ele>
        <time>2022-07-21T07:20:31Z</time>
      </trkpt>
      <trkpt lat="44.17783" lon="5.25968">
        <ele>1573.1</ele>
        <time>2022-07-21T07:20:32Z</time>
      </trkpt>
      <trkpt lat="44.17783" lon="5.25969">
        <ele>1573.1</ele>
        <time>2022-07-21T07:20:33Z</time>
      </trkpt>
      <trkpt lat="44.17782" lon="5.2597">
        <ele>1573.1</ele>
        <time>2022-07-21T07:20:34Z</time>
      </trkpt>
      <trkpt lat="44.17781" lon="5.25971">
        <ele>1573.1</ele>
        <time>2022-07-21T07:20:35Z</time>
      </trkpt>
      <trkpt lat="44.17781" lon="5.25972">
        <ele>1573.1</ele>
        <time>2022-07-21T07:20:36Z</time>
      </trkpt>
      <trkpt lat="44.17781" lon="5.25972">
        <ele>1573.2</ele>
        <time>2022-07-21T07:20:37Z</time>
      </trkpt>
      <trkpt lat="44.1778" lon="5.25973">
        <ele>1573.2</ele>
        <time>2022-07-21T07:20:38Z</time>
      </trkpt>
      <trkpt lat="44.1778" lon="5.25973">
        <ele>1573.2</ele>
        <time>2022-07-21T07:20:39Z</time>
      </trkpt>
      <trkpt lat="44.17779" lon="5.25974">
        <ele>1573.2</ele>
        <time>2022-07-21T07:20:40Z</time>
      </trkpt>
      <trkpt lat="44.17779" lon="5.25975">
        <ele>1573.2</ele>
        <time>2022-07-21T07:20:41Z</time>
      </trkpt>
      <trkpt lat="44.17779" lon="5.25981">
        <ele>1573.3</ele>
        <time>2022-07-21T07:20:42Z</time>
      </trkpt>
      <trkpt lat="44.17779" lon="5.25983">
        <ele>1573.3</ele>
        <time>2022-07-21T07:20:43Z</time>
      </trkpt>
      <trkpt lat="44.17778" lon="5.25988">
        <ele>1573.4</ele>
        <time>2022-07-21T07:20:44Z</time>
      </trkpt>
      <trkpt lat="44.17778" lon="5.25989">
        <ele>1573.4</ele>
        <time>2022-07-21T07:20:45Z</time>
      </trkpt>
      <trkpt lat="44.17778" lon="5.25993">
        <ele>1573.5</ele>
        <time>2022-07-21T07:20:46Z</time>
      </trkpt>
      <trkpt lat="44.17779" lon="5.25997">
        <ele>1573.6</ele>
        <time>2022-07-21T07:20:47Z</time>
      </trkpt>
      <trkpt lat="44.17778" lon="5.26001">
        <ele>1573.6</ele>
        <time>2022-07-21T07:20:48Z</time>
      </trkpt>
      <trkpt lat="44.17778" lon="5.26006">
        <ele>1573.7</ele>
        <time>2022-07-21T07:20:49Z</time>
      </trkpt>
      <trkpt lat="44.17778" lon="5.26007">
        <ele>1573.8</ele>
        <time>2022-07-21T07:20:50Z</time>
      </trkpt>
      <trkpt lat="44.17778" lon="5.26011">
        <ele>1573.9</ele>
        <time>2022-07-21T07:20:51Z</time>
      </trkpt>
      <trkpt lat="44.17778" lon="5.26013">
        <ele>1573.9</ele>
        <time>2022-07-21T07:20:52Z</time>
      </trkpt>
      <trkpt lat="44.17778" lon="5.26018">
        <ele>1574</ele>
        <time>2022-07-21T07:20:53Z</time>
      </trkpt>
      <trkpt lat="44.17778" lon="5.26019">
        <ele>1574.1</ele>
        <time>2022-07-21T07:20:54Z</time>
      </trkpt>
      <trkpt lat="44.17777" lon="5.26023">
        <ele>1574.2</ele>
        <time>2022-07-21T07:20:55Z</time>
      </trkpt>
      <trkpt lat="44.17777" lon="5.26024">
        <ele>1574.2</ele>
        <time>2022-07-21T07:20:56Z</time>
      </trkpt>
      <trkpt lat="44.17777" lon="5.26027">
        <ele>1574.3</ele>
        <time>2022-07-21T07:20:57Z</time>
      </trkpt>
      <trkpt lat="44.17777" lon="5.26028">
        <ele>1574.3</ele>
        <time>2022-07-21T07:20:58Z</time>
      </trkpt>
      <trkpt lat="44.17777" lon="5.2603">
        <ele>1574.4</ele>
        <time>2022-07-21T07:20:59Z</time>
      </trkpt>
      <trkpt lat="44.17777" lon="5.26032">
        <ele>1574.4</ele>
        <time>2022-07-21T07:21:00Z</time>
      </trkpt>
      <trkpt lat="44.17776" lon="5.26033">
        <ele>1574.5</ele>
        <time>2022-07-21T07:21:01Z</time>
      </trkpt>
      <trkpt lat="44.17776" lon="5.26035">
        <ele>1574.6</ele>
        <time>2022-07-21T07:21:02Z</time>
      </trkpt>
      <trkpt lat="44.17776" lon="5.26037">
        <ele>1574.6</ele>
        <time>2022-07-21T07:21:03Z</time>
      </trkpt>
      <trkpt lat="44.17775" lon="5.26038">
        <ele>1574.6</ele>
        <time>2022-07-21T07:21:04Z</time>
      </trkpt>
      <trkpt lat="44.17775" lon="5.26038">
        <ele>1574.7</ele>
        <time>2022-07-21T07:21:05Z</time>
      </trkpt>
      <trkpt lat="44.17776" lon="5.26039">
        <ele>1574.7</ele>
        <time>2022-07-21T07:21:06Z</time>
      </trkpt>
      <trkpt lat="44.17776" lon="5.26041">
        <ele>1574.7</ele>
        <time>2022-07-21T07:21:07Z</time>
      </trkpt>
      <trkpt lat="44.17776" lon="5.26042">
        <ele>1574.8</ele>
        <time>2022-07-21T07:21:08Z</time>
      </trkpt>
      <trkpt lat="44.17778" lon="5.26044">
        <ele>1574.9</ele>
        <time>2022-07-21T07:21:09Z</time>
      </trkpt>
      <trkpt lat="44.17778" lon="5.26045">
        <ele>1574.9</ele>
        <time>2022-07-21T07:21:10Z</time>
      </trkpt>
      <trkpt lat="44.17779" lon="5.26046">
        <ele>1575</ele>
        <time>2022-07-21T07:21:11Z</time>
      </trkpt>
      <trkpt lat="44.17779" lon="5.26048">
        <ele>1575.1</ele>
        <time>2022-07-21T07:21:12Z</time>
      </trkpt>
      <trkpt lat="44.1778" lon="5.2605">
        <ele>1575.1</ele>
        <time>2022-07-21T07:21:13Z</time>
      </trkpt>
      <trkpt lat="44.17781" lon="5.26051">
        <ele>1575.2</ele>
        <time>2022-07-21T07:21:14Z</time>
      </trkpt>
      <trkpt lat="44.17782" lon="5.26052">
        <ele>1575.3</ele>
        <time>2022-07-21T07:21:15Z</time>
      </trkpt>
      <trkpt lat="44.17782" lon="5.26054">
        <ele>1575.3</ele>
        <time>2022-07-21T07:21:16Z</time>
      </trkpt>
      <trkpt lat="44.17782" lon="5.26056">
        <ele>1575.4</ele>
        <time>2022-07-21T07:21:17Z</time>
      </trkpt>
      <trkpt lat="44.17782" lon="5.26057">
        <ele>1575.5</ele>
        <time>2022-07-21T07:21:18Z</time>
      </trkpt>
      <trkpt lat="44.17782" lon="5.26058">
        <ele>1575.5</ele>
        <time>2022-07-21T07:21:19Z</time>
      </trkpt>
      <trkpt lat="44.17782" lon="5.26059">
        <ele>1575.5</ele>
        <time>2022-07-21T07:21:20Z</time>
      </trkpt>
      <trkpt lat="44.17781" lon="5.26061">
        <ele>1575.7</ele>
        <time>2022-07-21T07:21:21Z</time>
      </trkpt>
      <trkpt lat="44.17781" lon="5.26064">
        <ele>1575.7</ele>
        <time>2022-07-21T07:21:22Z</time>
      </trkpt>
      <trkpt lat="44.17781" lon="5.26066">
        <ele>1575.8</ele>
        <time>2022-07-21T07:21:23Z</time>
      </trkpt>
      <trkpt lat="44.17781" lon="5.26067">
        <ele>1575.9</ele>
        <time>2022-07-21T07:21:24Z</time>
      </trkpt>
      <trkpt lat="44.17781" lon="5.26069">
        <ele>1576</ele>
        <time>2022-07-21T07:21:25Z</time>
      </trkpt>
      <trkpt lat="44.1778" lon="5.26071">
        <ele>1576.1</ele>
        <time>2022-07-21T07:21:26Z</time>
      </trkpt>
      <trkpt lat="44.1778" lon="5.26072">
        <ele>1576.2</ele>
        <time>2022-07-21T07:21:27Z</time>
      </trkpt>
      <trkpt lat="44.17779" lon="5.26074">
        <ele>1576.3</ele>
        <time>2022-07-21T07:21:28Z</time>
      </trkpt>
      <trkpt lat="44.17778" lon="5.26076">
        <ele>1576.4</ele>
        <time>2022-07-21T07:21:29Z</time>
      </trkpt>
      <trkpt lat="44.17777" lon="5.26077">
        <ele>1576.5</ele>
        <time>2022-07-21T07:21:30Z</time>
      </trkpt>
      <trkpt lat="44.17777" lon="5.26078">
        <ele>1576.6</ele>
        <time>2022-07-21T07:21:31Z</time>
      </trkpt>
      <trkpt lat="44.17776" lon="5.2608">
        <ele>1576.7</ele>
        <time>2022-07-21T07:21:32Z</time>
      </trkpt>
      <trkpt lat="44.17776" lon="5.26081">
        <ele>1576.8</ele>
        <time>2022-07-21T07:21:33Z</time>
      </trkpt>
      <trkpt lat="44.17776" lon="5.26083">
        <ele>1576.9</ele>
        <time>2022-07-21T07:21:34Z</time>
      </trkpt>
      <trkpt lat="44.17776" lon="5.26084">
        <ele>1576.9</ele>
        <time>2022-07-21T07:21:35Z</time>
      </trkpt>
      <trkpt lat="44.17776" lon="5.26086">
        <ele>1577</ele>
        <time>2022-07-21T07:21:36Z</time>
      </trkpt>
      <trkpt lat="44.17776" lon="5.26087">
        <ele>1577.1</ele>
        <time>2022-07-21T07:21:37Z</time>
      </trkpt>
      <trkpt lat="44.17776" lon="5.26089">
        <ele>1577.2</ele>
        <time>2022-07-21T07:21:38Z</time>
      </trkpt>
      <trkpt lat="44.17776" lon="5.26093">
        <ele>1577.5</ele>
        <time>2022-07-21T07:21:39Z</time>
      </trkpt>
      <trkpt lat="44.17776" lon="5.26094">
        <ele>1577.5</ele>
        <time>2022-07-21T07:21:40Z</time>
      </trkpt>
      <trkpt lat="44.17776" lon="5.26096">
        <ele>1577.7</ele>
        <time>2022-07-21T07:21:41Z</time>
      </trkpt>
      <trkpt lat="44.17776" lon="5.26098">
        <ele>1577.8</ele>
        <time>2022-07-21T07:21:42Z</time>
      </trkpt>
      <trkpt lat="44.17776" lon="5.26101">
        <ele>1578</ele>
        <time>2022-07-21T07:21:43Z</time>
      </trkpt>
      <trkpt lat="44.17776" lon="5.26103">
        <ele>1578.1</ele>
        <time>2022-07-21T07:21:44Z</time>
      </trkpt>
      <trkpt lat="44.17775" lon="5.26107">
        <ele>1578.4</ele>
        <time>2022-07-21T07:21:45Z</time>
      </trkpt>
      <trkpt lat="44.17775" lon="5.26109">
        <ele>1578.5</ele>
        <time>2022-07-21T07:21:46Z</time>
      </trkpt>
      <trkpt lat="44.17775" lon="5.26111">
        <ele>1578.6</ele>
        <time>2022-07-21T07:21:47Z</time>
      </trkpt>
      <trkpt lat="44.17775" lon="5.26113">
        <ele>1578.8</ele>
        <time>2022-07-21T07:21:48Z</time>
      </trkpt>
      <trkpt lat="44.17776" lon="5.26114">
        <ele>1578.9</ele>
        <time>2022-07-21T07:21:49Z</time>
      </trkpt>
      <trkpt lat="44.17776" lon="5.26117">
        <ele>1579</ele>
        <time>2022-07-21T07:21:50Z</time>
      </trkpt>
      <trkpt lat="44.17776" lon="5.26119">
        <ele>1579.2</ele>
        <time>2022-07-21T07:21:51Z</time>
      </trkpt>
      <trkpt lat="44.17776" lon="5.2612">
        <ele>1579.3</ele>
        <time>2022-07-21T07:21:52Z</time>
      </trkpt>
      <trkpt lat="44.17776" lon="5.26124">
        <ele>1579.5</ele>
        <time>2022-07-21T07:21:53Z</time>
      </trkpt>
      <trkpt lat="44.17776" lon="5.26125">
        <ele>1579.6</ele>
        <time>2022-07-21T07:21:54Z</time>
      </trkpt>
      <trkpt lat="44.17776" lon="5.26127">
        <ele>1579.7</ele>
        <time>2022-07-21T07:21:55Z</time>
      </trkpt>
      <trkpt lat="44.17777" lon="5.26131">
        <ele>1580</ele>
        <time>2022-07-21T07:21:56Z</time>
      </trkpt>
      <trkpt lat="44.17777" lon="5.26132">
        <ele>1580</ele>
        <time>2022-07-21T07:21:57Z</time>
      </trkpt>
      <trkpt lat="44.17777" lon="5.26134">
        <ele>1580.2</ele>
        <time>2022-07-21T07:21:58Z</time>
      </trkpt>
      <trkpt lat="44.17777" lon="5.26137">
        <ele>1580.3</ele>
        <time>2022-07-21T07:21:59Z</time>
      </trkpt>
      <trkpt lat="44.17777" lon="5.26139">
        <ele>1580.5</ele>
        <time>2022-07-21T07:22:00Z</time>
      </trkpt>
      <trkpt lat="44.17777" lon="5.26141">
        <ele>1580.6</ele>
        <time>2022-07-21T07:22:01Z</time>
      </trkpt>
      <trkpt lat="44.17777" lon="5.26143">
        <ele>1580.7</ele>
        <time>2022-07-21T07:22:02Z</time>
      </trkpt>
      <trkpt lat="44.17777" lon="5.26144">
        <ele>1580.8</ele>
        <time>2022-07-21T07:22:03Z</time>
      </trkpt>
      <trkpt lat="44.17777" lon="5.26146">
        <ele>1580.9</ele>
        <time>2022-07-21T07:22:04Z</time>
      </trkpt>
      <trkpt lat="44.17777" lon="5.26147">
        <ele>1581</ele>
        <time>2022-07-21T07:22:05Z</time>
      </trkpt>
      <trkpt lat="44.17777" lon="5.26148">
        <ele>1581.1</ele>
        <time>2022-07-21T07:22:06Z</time>
      </trkpt>
      <trkpt lat="44.17777" lon="5.2615">
        <ele>1581.2</ele>
        <time>2022-07-21T07:22:07Z</time>
      </trkpt>
      <trkpt lat="44.17778" lon="5.26152">
        <ele>1581.3</ele>
        <time>2022-07-21T07:22:08Z</time>
      </trkpt>
      <trkpt lat="44.17779" lon="5.26153">
        <ele>1581.4</ele>
        <time>2022-07-21T07:22:09Z</time>
      </trkpt>
      <trkpt lat="44.17779" lon="5.26155">
        <ele>1581.5</ele>
        <time>2022-07-21T07:22:10Z</time>
      </trkpt>
      <trkpt lat="44.17779" lon="5.26158">
        <ele>1581.7</ele>
        <time>2022-07-21T07:22:11Z</time>
      </trkpt>
      <trkpt lat="44.17779" lon="5.26162">
        <ele>1582</ele>
        <time>2022-07-21T07:22:12Z</time>
      </trkpt>
      <trkpt lat="44.17778" lon="5.26163">
        <ele>1582.1</ele>
        <time>2022-07-21T07:22:13Z</time>
      </trkpt>
      <trkpt lat="44.17778" lon="5.26165">
        <ele>1582.2</ele>
        <time>2022-07-21T07:22:14Z</time>
      </trkpt>
      <trkpt lat="44.17777" lon="5.26167">
        <ele>1582.3</ele>
        <time>2022-07-21T07:22:15Z</time>
      </trkpt>
      <trkpt lat="44.17777" lon="5.26169">
        <ele>1582.5</ele>
        <time>2022-07-21T07:22:16Z</time>
      </trkpt>
      <trkpt lat="44.17777" lon="5.26171">
        <ele>1582.6</ele>
        <time>2022-07-21T07:22:17Z</time>
      </trkpt>
      <trkpt lat="44.17777" lon="5.26173">
        <ele>1582.7</ele>
        <time>2022-07-21T07:22:18Z</time>
      </trkpt>
      <trkpt lat="44.17777" lon="5.26175">
        <ele>1582.8</ele>
        <time>2022-07-21T07:22:19Z</time>
      </trkpt>
      <trkpt lat="44.17777" lon="5.26176">
        <ele>1582.9</ele>
        <time>2022-07-21T07:22:20Z</time>
      </trkpt>
      <trkpt lat="44.17778" lon="5.26177">
        <ele>1583</ele>
        <time>2022-07-21T07:22:21Z</time>
      </trkpt>
      <trkpt lat="44.17778" lon="5.26178">
        <ele>1583.1</ele>
        <time>2022-07-21T07:22:22Z</time>
      </trkpt>
      <trkpt lat="44.17778" lon="5.2618">
        <ele>1583.2</ele>
        <time>2022-07-21T07:22:23Z</time>
      </trkpt>
      <trkpt lat="44.17778" lon="5.26181">
        <ele>1583.3</ele>
        <time>2022-07-21T07:22:24Z</time>
      </trkpt>
      <trkpt lat="44.17778" lon="5.26183">
        <ele>1583.4</ele>
        <time>2022-07-21T07:22:25Z</time>
      </trkpt>
      <trkpt lat="44.17777" lon="5.26184">
        <ele>1583.5</ele>
        <time>2022-07-21T07:22:26Z</time>
      </trkpt>
      <trkpt lat="44.17777" lon="5.26186">
        <ele>1583.6</ele>
        <time>2022-07-21T07:22:27Z</time>
      </trkpt>
      <trkpt lat="44.17777" lon="5.26189">
        <ele>1583.8</ele>
        <time>2022-07-21T07:22:28Z</time>
      </trkpt>
      <trkpt lat="44.17777" lon="5.26191">
        <ele>1583.9</ele>
        <time>2022-07-21T07:22:29Z</time>
      </trkpt>
      <trkpt lat="44.17776" lon="5.26194">
        <ele>1584.1</ele>
        <time>2022-07-21T07:22:30Z</time>
      </trkpt>
      <trkpt lat="44.17776" lon="5.26196">
        <ele>1584.2</ele>
        <time>2022-07-21T07:22:31Z</time>
      </trkpt>
      <trkpt lat="44.17776" lon="5.26198">
        <ele>1584.4</ele>
        <time>2022-07-21T07:22:32Z</time>
      </trkpt>
      <trkpt lat="44.17777" lon="5.26201">
        <ele>1584.6</ele>
        <time>2022-07-21T07:22:33Z</time>
      </trkpt>
      <trkpt lat="44.17777" lon="5.26202">
        <ele>1584.7</ele>
        <time>2022-07-21T07:22:34Z</time>
      </trkpt>
      <trkpt lat="44.17777" lon="5.26203">
        <ele>1584.8</ele>
        <time>2022-07-21T07:22:35Z</time>
      </trkpt>
      <trkpt lat="44.17776" lon="5.26207">
        <ele>1585</ele>
        <time>2022-07-21T07:22:36Z</time>
      </trkpt>
      <trkpt lat="44.17776" lon="5.26208">
        <ele>1585.1</ele>
        <time>2022-07-21T07:22:37Z</time>
      </trkpt>
      <trkpt lat="44.17776" lon="5.2621">
        <ele>1585.2</ele>
        <time>2022-07-21T07:22:38Z</time>
      </trkpt>
      <trkpt lat="44.17776" lon="5.26211">
        <ele>1585.3</ele>
        <time>2022-07-21T07:22:39Z</time>
      </trkpt>
      <trkpt lat="44.17776" lon="5.26212">
        <ele>1585.4</ele>
        <time>2022-07-21T07:22:40Z</time>
      </trkpt>
      <trkpt lat="44.17777" lon="5.26214">
        <ele>1585.6</ele>
        <time>2022-07-21T07:22:41Z</time>
      </trkpt>
      <trkpt lat="44.17778" lon="5.26215">
        <ele>1585.7</ele>
        <time>2022-07-21T07:22:42Z</time>
      </trkpt>
      <trkpt lat="44.17779" lon="5.26219">
        <ele>1586</ele>
        <time>2022-07-21T07:22:43Z</time>
      </trkpt>
      <trkpt lat="44.17779" lon="5.2622">
        <ele>1586</ele>
        <time>2022-07-21T07:22:44Z</time>
      </trkpt>
      <trkpt lat="44.17779" lon="5.26222">
        <ele>1586.1</ele>
        <time>2022-07-21T07:22:45Z</time>
      </trkpt>
      <trkpt lat="44.17779" lon="5.26223">
        <ele>1586.2</ele>
        <time>2022-07-21T07:22:46Z</time>
      </trkpt>
      <trkpt lat="44.17779" lon="5.26225">
        <ele>1586.3</ele>
        <time>2022-07-21T07:22:47Z</time>
      </trkpt>
      <trkpt lat="44.17777" lon="5.26229">
        <ele>1586.6</ele>
        <time>2022-07-21T07:22:48Z</time>
      </trkpt>
      <trkpt lat="44.17777" lon="5.2623">
        <ele>1586.7</ele>
        <time>2022-07-21T07:22:49Z</time>
      </trkpt>
      <trkpt lat="44.17774" lon="5.26234">
        <ele>1587.1</ele>
        <time>2022-07-21T07:22:50Z</time>
      </trkpt>
      <trkpt lat="44.17774" lon="5.26235">
        <ele>1587.2</ele>
        <time>2022-07-21T07:22:51Z</time>
      </trkpt>
      <trkpt lat="44.17773" lon="5.26237">
        <ele>1587.3</ele>
        <time>2022-07-21T07:22:52Z</time>
      </trkpt>
      <trkpt lat="44.17772" lon="5.26239">
        <ele>1587.5</ele>
        <time>2022-07-21T07:22:53Z</time>
      </trkpt>
      <trkpt lat="44.17772" lon="5.26241">
        <ele>1587.6</ele>
        <time>2022-07-21T07:22:54Z</time>
      </trkpt>
      <trkpt lat="44.17773" lon="5.26244">
        <ele>1587.8</ele>
        <time>2022-07-21T07:22:55Z</time>
      </trkpt>
      <trkpt lat="44.17773" lon="5.26246">
        <ele>1587.9</ele>
        <time>2022-07-21T07:22:56Z</time>
      </trkpt>
      <trkpt lat="44.17774" lon="5.26247">
        <ele>1588</ele>
        <time>2022-07-21T07:22:57Z</time>
      </trkpt>
      <trkpt lat="44.17776" lon="5.26251">
        <ele>1588.3</ele>
        <time>2022-07-21T07:22:58Z</time>
      </trkpt>
      <trkpt lat="44.17776" lon="5.26252">
        <ele>1588.4</ele>
        <time>2022-07-21T07:22:59Z</time>
      </trkpt>
      <trkpt lat="44.17777" lon="5.26254">
        <ele>1588.6</ele>
        <time>2022-07-21T07:23:00Z</time>
      </trkpt>
      <trkpt lat="44.17777" lon="5.26256">
        <ele>1588.7</ele>
        <time>2022-07-21T07:23:01Z</time>
      </trkpt>
      <trkpt lat="44.17778" lon="5.26257">
        <ele>1588.8</ele>
        <time>2022-07-21T07:23:02Z</time>
      </trkpt>
      <trkpt lat="44.17778" lon="5.26258">
        <ele>1588.9</ele>
        <time>2022-07-21T07:23:03Z</time>
      </trkpt>
      <trkpt lat="44.17778" lon="5.26259">
        <ele>1588.9</ele>
        <time>2022-07-21T07:23:04Z</time>
      </trkpt>
      <trkpt lat="44.17779" lon="5.2626">
        <ele>1589</ele>
        <time>2022-07-21T07:23:05Z</time>
      </trkpt>
      <trkpt lat="44.17779" lon="5.26262">
        <ele>1589.1</ele>
        <time>2022-07-21T07:23:06Z</time>
      </trkpt>
      <trkpt lat="44.17779" lon="5.26264">
        <ele>1589.2</ele>
        <time>2022-07-21T07:23:07Z</time>
      </trkpt>
      <trkpt lat="44.17779" lon="5.26265">
        <ele>1589.3</ele>
        <time>2022-07-21T07:23:08Z</time>
      </trkpt>
      <trkpt lat="44.1778" lon="5.26266">
        <ele>1589.4</ele>
        <time>2022-07-21T07:23:09Z</time>
      </trkpt>
      <trkpt lat="44.1778" lon="5.26268">
        <ele>1589.6</ele>
        <time>2022-07-21T07:23:10Z</time>
      </trkpt>
      <trkpt lat="44.17781" lon="5.26271">
        <ele>1589.7</ele>
        <time>2022-07-21T07:23:11Z</time>
      </trkpt>
      <trkpt lat="44.17781" lon="5.26273">
        <ele>1589.9</ele>
        <time>2022-07-21T07:23:12Z</time>
      </trkpt>
      <trkpt lat="44.17781" lon="5.26275">
        <ele>1590</ele>
        <time>2022-07-21T07:23:13Z</time>
      </trkpt>
      <trkpt lat="44.17781" lon="5.26276">
        <ele>1590.1</ele>
        <time>2022-07-21T07:23:14Z</time>
      </trkpt>
      <trkpt lat="44.17782" lon="5.26278">
        <ele>1590.2</ele>
        <time>2022-07-21T07:23:15Z</time>
      </trkpt>
      <trkpt lat="44.17781" lon="5.2628">
        <ele>1590.3</ele>
        <time>2022-07-21T07:23:16Z</time>
      </trkpt>
      <trkpt lat="44.17781" lon="5.26282">
        <ele>1590.5</ele>
        <time>2022-07-21T07:23:17Z</time>
      </trkpt>
      <trkpt lat="44.1778" lon="5.26283">
        <ele>1590.6</ele>
        <time>2022-07-21T07:23:18Z</time>
      </trkpt>
      <trkpt lat="44.17779" lon="5.26285">
        <ele>1590.8</ele>
        <time>2022-07-21T07:23:19Z</time>
      </trkpt>
      <trkpt lat="44.17776" lon="5.26287">
        <ele>1591.1</ele>
        <time>2022-07-21T07:23:20Z</time>
      </trkpt>
      <trkpt lat="44.17776" lon="5.26288">
        <ele>1591.2</ele>
        <time>2022-07-21T07:23:21Z</time>
      </trkpt>
      <trkpt lat="44.17774" lon="5.2629">
        <ele>1591.4</ele>
        <time>2022-07-21T07:23:22Z</time>
      </trkpt>
      <trkpt lat="44.17774" lon="5.26291">
        <ele>1591.4</ele>
        <time>2022-07-21T07:23:23Z</time>
      </trkpt>
      <trkpt lat="44.17773" lon="5.26292">
        <ele>1591.5</ele>
        <time>2022-07-21T07:23:24Z</time>
      </trkpt>
      <trkpt lat="44.17774" lon="5.26294">
        <ele>1591.6</ele>
        <time>2022-07-21T07:23:25Z</time>
      </trkpt>
      <trkpt lat="44.17774" lon="5.26296">
        <ele>1591.8</ele>
        <time>2022-07-21T07:23:26Z</time>
      </trkpt>
      <trkpt lat="44.17774" lon="5.26298">
        <ele>1591.9</ele>
        <time>2022-07-21T07:23:27Z</time>
      </trkpt>
      <trkpt lat="44.17775" lon="5.263">
        <ele>1592.1</ele>
        <time>2022-07-21T07:23:28Z</time>
      </trkpt>
      <trkpt lat="44.17776" lon="5.26304">
        <ele>1592.4</ele>
        <time>2022-07-21T07:23:29Z</time>
      </trkpt>
      <trkpt lat="44.17776" lon="5.26305">
        <ele>1592.5</ele>
        <time>2022-07-21T07:23:30Z</time>
      </trkpt>
      <trkpt lat="44.17775" lon="5.26308">
        <ele>1592.6</ele>
        <time>2022-07-21T07:23:31Z</time>
      </trkpt>
      <trkpt lat="44.17774" lon="5.2631">
        <ele>1592.8</ele>
        <time>2022-07-21T07:23:32Z</time>
      </trkpt>
      <trkpt lat="44.17774" lon="5.26314">
        <ele>1593.1</ele>
        <time>2022-07-21T07:23:33Z</time>
      </trkpt>
      <trkpt lat="44.17773" lon="5.26315">
        <ele>1593.2</ele>
        <time>2022-07-21T07:23:34Z</time>
      </trkpt>
      <trkpt lat="44.17772" lon="5.26319">
        <ele>1593.4</ele>
        <time>2022-07-21T07:23:35Z</time>
      </trkpt>
      <trkpt lat="44.17772" lon="5.2632">
        <ele>1593.5</ele>
        <time>2022-07-21T07:23:36Z</time>
      </trkpt>
      <trkpt lat="44.17771" lon="5.26324">
        <ele>1593.8</ele>
        <time>2022-07-21T07:23:37Z</time>
      </trkpt>
      <trkpt lat="44.17771" lon="5.26325">
        <ele>1593.9</ele>
        <time>2022-07-21T07:23:38Z</time>
      </trkpt>
      <trkpt lat="44.17771" lon="5.26328">
        <ele>1594.1</ele>
        <time>2022-07-21T07:23:39Z</time>
      </trkpt>
      <trkpt lat="44.17771" lon="5.2633">
        <ele>1594.2</ele>
        <time>2022-07-21T07:23:40Z</time>
      </trkpt>
      <trkpt lat="44.17771" lon="5.26332">
        <ele>1594.3</ele>
        <time>2022-07-21T07:23:41Z</time>
      </trkpt>
      <trkpt lat="44.17771" lon="5.26334">
        <ele>1594.5</ele>
        <time>2022-07-21T07:23:42Z</time>
      </trkpt>
      <trkpt lat="44.17771" lon="5.26336">
        <ele>1594.7</ele>
        <time>2022-07-21T07:23:43Z</time>
      </trkpt>
      <trkpt lat="44.17772" lon="5.26339">
        <ele>1594.8</ele>
        <time>2022-07-21T07:23:44Z</time>
      </trkpt>
      <trkpt lat="44.17772" lon="5.2634">
        <ele>1594.9</ele>
        <time>2022-07-21T07:23:45Z</time>
      </trkpt>
      <trkpt lat="44.17772" lon="5.26341">
        <ele>1595</ele>
        <time>2022-07-21T07:23:46Z</time>
      </trkpt>
      <trkpt lat="44.17772" lon="5.26342">
        <ele>1595</ele>
        <time>2022-07-21T07:23:47Z</time>
      </trkpt>
      <trkpt lat="44.17772" lon="5.26343">
        <ele>1595.1</ele>
        <time>2022-07-21T07:23:48Z</time>
      </trkpt>
      <trkpt lat="44.17773" lon="5.26344">
        <ele>1595.2</ele>
        <time>2022-07-21T07:23:49Z</time>
      </trkpt>
      <trkpt lat="44.17773" lon="5.26345">
        <ele>1595.3</ele>
        <time>2022-07-21T07:23:50Z</time>
      </trkpt>
      <trkpt lat="44.17774" lon="5.26346">
        <ele>1595.4</ele>
        <time>2022-07-21T07:23:51Z</time>
      </trkpt>
      <trkpt lat="44.17774" lon="5.26347">
        <ele>1595.5</ele>
        <time>2022-07-21T07:23:52Z</time>
      </trkpt>
      <trkpt lat="44.17774" lon="5.26349">
        <ele>1595.6</ele>
        <time>2022-07-21T07:23:53Z</time>
      </trkpt>
      <trkpt lat="44.17773" lon="5.26351">
        <ele>1595.7</ele>
        <time>2022-07-21T07:23:54Z</time>
      </trkpt>
      <trkpt lat="44.17774" lon="5.26353">
        <ele>1595.9</ele>
        <time>2022-07-21T07:23:55Z</time>
      </trkpt>
      <trkpt lat="44.17774" lon="5.26355">
        <ele>1596</ele>
        <time>2022-07-21T07:23:56Z</time>
      </trkpt>
      <trkpt lat="44.17775" lon="5.26357">
        <ele>1596.2</ele>
        <time>2022-07-21T07:23:57Z</time>
      </trkpt>
      <trkpt lat="44.17775" lon="5.2636">
        <ele>1596.3</ele>
        <time>2022-07-21T07:23:58Z</time>
      </trkpt>
      <trkpt lat="44.17775" lon="5.26362">
        <ele>1596.5</ele>
        <time>2022-07-21T07:23:59Z</time>
      </trkpt>
      <trkpt lat="44.17775" lon="5.26364">
        <ele>1596.7</ele>
        <time>2022-07-21T07:24:00Z</time>
      </trkpt>
      <trkpt lat="44.17775" lon="5.26366">
        <ele>1596.8</ele>
        <time>2022-07-21T07:24:01Z</time>
      </trkpt>
      <trkpt lat="44.17775" lon="5.26368">
        <ele>1597</ele>
        <time>2022-07-21T07:24:02Z</time>
      </trkpt>
      <trkpt lat="44.17775" lon="5.2637">
        <ele>1597.1</ele>
        <time>2022-07-21T07:24:03Z</time>
      </trkpt>
      <trkpt lat="44.17775" lon="5.26371">
        <ele>1597.2</ele>
        <time>2022-07-21T07:24:04Z</time>
      </trkpt>
      <trkpt lat="44.17774" lon="5.26372">
        <ele>1597.3</ele>
        <time>2022-07-21T07:24:05Z</time>
      </trkpt>
      <trkpt lat="44.17774" lon="5.26374">
        <ele>1597.4</ele>
        <time>2022-07-21T07:24:06Z</time>
      </trkpt>
      <trkpt lat="44.17774" lon="5.26375">
        <ele>1597.5</ele>
        <time>2022-07-21T07:24:07Z</time>
      </trkpt>
      <trkpt lat="44.17775" lon="5.26377">
        <ele>1597.6</ele>
        <time>2022-07-21T07:24:08Z</time>
      </trkpt>
      <trkpt lat="44.17775" lon="5.26379">
        <ele>1597.8</ele>
        <time>2022-07-21T07:24:09Z</time>
      </trkpt>
      <trkpt lat="44.17775" lon="5.26382">
        <ele>1598</ele>
        <time>2022-07-21T07:24:10Z</time>
      </trkpt>
      <trkpt lat="44.17775" lon="5.26384">
        <ele>1598.2</ele>
        <time>2022-07-21T07:24:11Z</time>
      </trkpt>
      <trkpt lat="44.17776" lon="5.26386">
        <ele>1598.3</ele>
        <time>2022-07-21T07:24:12Z</time>
      </trkpt>
      <trkpt lat="44.17777" lon="5.2639">
        <ele>1598.7</ele>
        <time>2022-07-21T07:24:13Z</time>
      </trkpt>
      <trkpt lat="44.17777" lon="5.26392">
        <ele>1598.7</ele>
        <time>2022-07-21T07:24:14Z</time>
      </trkpt>
      <trkpt lat="44.17777" lon="5.26394">
        <ele>1598.9</ele>
        <time>2022-07-21T07:24:15Z</time>
      </trkpt>
      <trkpt lat="44.17777" lon="5.26396">
        <ele>1599.1</ele>
        <time>2022-07-21T07:24:16Z</time>
      </trkpt>
      <trkpt lat="44.17778" lon="5.264">
        <ele>1599.4</ele>
        <time>2022-07-21T07:24:17Z</time>
      </trkpt>
      <trkpt lat="44.17778" lon="5.26402">
        <ele>1599.5</ele>
        <time>2022-07-21T07:24:18Z</time>
      </trkpt>
      <trkpt lat="44.17778" lon="5.26406">
        <ele>1599.8</ele>
        <time>2022-07-21T07:24:19Z</time>
      </trkpt>
      <trkpt lat="44.17778" lon="5.26407">
        <ele>1599.9</ele>
        <time>2022-07-21T07:24:20Z</time>
      </trkpt>
      <trkpt lat="44.17778" lon="5.2641">
        <ele>1600.1</ele>
        <time>2022-07-21T07:24:21Z</time>
      </trkpt>
      <trkpt lat="44.17778" lon="5.26412">
        <ele>1600.3</ele>
        <time>2022-07-21T07:24:22Z</time>
      </trkpt>
      <trkpt lat="44.17777" lon="5.26415">
        <ele>1600.5</ele>
        <time>2022-07-21T07:24:23Z</time>
      </trkpt>
      <trkpt lat="44.17777" lon="5.26416">
        <ele>1600.6</ele>
        <time>2022-07-21T07:24:24Z</time>
      </trkpt>
      <trkpt lat="44.17777" lon="5.26418">
        <ele>1600.7</ele>
        <time>2022-07-21T07:24:25Z</time>
      </trkpt>
      <trkpt lat="44.17776" lon="5.26419">
        <ele>1600.8</ele>
        <time>2022-07-21T07:24:26Z</time>
      </trkpt>
      <trkpt lat="44.17776" lon="5.26421">
        <ele>1600.9</ele>
        <time>2022-07-21T07:24:27Z</time>
      </trkpt>
      <trkpt lat="44.17776" lon="5.26423">
        <ele>1601.1</ele>
        <time>2022-07-21T07:24:28Z</time>
      </trkpt>
      <trkpt lat="44.17776" lon="5.26425">
        <ele>1601.2</ele>
        <time>2022-07-21T07:24:29Z</time>
      </trkpt>
      <trkpt lat="44.17775" lon="5.26426">
        <ele>1601.3</ele>
        <time>2022-07-21T07:24:30Z</time>
      </trkpt>
      <trkpt lat="44.17776" lon="5.26428">
        <ele>1601.4</ele>
        <time>2022-07-21T07:24:31Z</time>
      </trkpt>
      <trkpt lat="44.17776" lon="5.26429">
        <ele>1601.5</ele>
        <time>2022-07-21T07:24:32Z</time>
      </trkpt>
      <trkpt lat="44.17776" lon="5.2643">
        <ele>1601.6</ele>
        <time>2022-07-21T07:24:33Z</time>
      </trkpt>
      <trkpt lat="44.17776" lon="5.26431">
        <ele>1601.7</ele>
        <time>2022-07-21T07:24:34Z</time>
      </trkpt>
      <trkpt lat="44.17776" lon="5.26433">
        <ele>1601.8</ele>
        <time>2022-07-21T07:24:35Z</time>
      </trkpt>
      <trkpt lat="44.17776" lon="5.26434">
        <ele>1601.9</ele>
        <time>2022-07-21T07:24:36Z</time>
      </trkpt>
      <trkpt lat="44.17776" lon="5.26435">
        <ele>1601.9</ele>
        <time>2022-07-21T07:24:37Z</time>
      </trkpt>
      <trkpt lat="44.17775" lon="5.26436">
        <ele>1602</ele>
        <time>2022-07-21T07:24:38Z</time>
      </trkpt>
      <trkpt lat="44.17775" lon="5.26437">
        <ele>1602.1</ele>
        <time>2022-07-21T07:24:39Z</time>
      </trkpt>
      <trkpt lat="44.17776" lon="5.26439">
        <ele>1602.2</ele>
        <time>2022-07-21T07:24:40Z</time>
      </trkpt>
      <trkpt lat="44.17776" lon="5.26443">
        <ele>1602.5</ele>
        <time>2022-07-21T07:24:41Z</time>
      </trkpt>
      <trkpt lat="44.17776" lon="5.26444">
        <ele>1602.6</ele>
        <time>2022-07-21T07:24:42Z</time>
      </trkpt>
      <trkpt lat="44.17776" lon="5.26447">
        <ele>1602.7</ele>
        <time>2022-07-21T07:24:43Z</time>
      </trkpt>
      <trkpt lat="44.17776" lon="5.26449">
        <ele>1602.9</ele>
        <time>2022-07-21T07:24:44Z</time>
      </trkpt>
      <trkpt lat="44.17777" lon="5.26451">
        <ele>1603</ele>
        <time>2022-07-21T07:24:45Z</time>
      </trkpt>
      <trkpt lat="44.17777" lon="5.26453">
        <ele>1603.2</ele>
        <time>2022-07-21T07:24:46Z</time>
      </trkpt>
      <trkpt lat="44.17777" lon="5.26455">
        <ele>1603.4</ele>
        <time>2022-07-21T07:24:47Z</time>
      </trkpt>
      <trkpt lat="44.17777" lon="5.26457">
        <ele>1603.4</ele>
        <time>2022-07-21T07:24:48Z</time>
      </trkpt>
      <trkpt lat="44.17777" lon="5.26458">
        <ele>1603.5</ele>
        <time>2022-07-21T07:24:49Z</time>
      </trkpt>
      <trkpt lat="44.17776" lon="5.26459">
        <ele>1603.6</ele>
        <time>2022-07-21T07:24:50Z</time>
      </trkpt>
      <trkpt lat="44.17775" lon="5.26461">
        <ele>1603.7</ele>
        <time>2022-07-21T07:24:51Z</time>
      </trkpt>
      <trkpt lat="44.17774" lon="5.26463">
        <ele>1603.8</ele>
        <time>2022-07-21T07:24:52Z</time>
      </trkpt>
      <trkpt lat="44.17774" lon="5.26465">
        <ele>1603.9</ele>
        <time>2022-07-21T07:24:53Z</time>
      </trkpt>
      <trkpt lat="44.17773" lon="5.26467">
        <ele>1604</ele>
        <time>2022-07-21T07:24:54Z</time>
      </trkpt>
      <trkpt lat="44.17773" lon="5.26469">
        <ele>1604.2</ele>
        <time>2022-07-21T07:24:55Z</time>
      </trkpt>
      <trkpt lat="44.17772" lon="5.26473">
        <ele>1604.4</ele>
        <time>2022-07-21T07:24:56Z</time>
      </trkpt>
      <trkpt lat="44.17772" lon="5.26474">
        <ele>1604.5</ele>
        <time>2022-07-21T07:24:57Z</time>
      </trkpt>
      <trkpt lat="44.17771" lon="5.26478">
        <ele>1604.7</ele>
        <time>2022-07-21T07:24:58Z</time>
      </trkpt>
      <trkpt lat="44.17771" lon="5.26479">
        <ele>1604.8</ele>
        <time>2022-07-21T07:24:59Z</time>
      </trkpt>
      <trkpt lat="44.17771" lon="5.26482">
        <ele>1604.9</ele>
        <time>2022-07-21T07:25:00Z</time>
      </trkpt>
      <trkpt lat="44.1777" lon="5.26484">
        <ele>1605.1</ele>
        <time>2022-07-21T07:25:01Z</time>
      </trkpt>
      <trkpt lat="44.1777" lon="5.26486">
        <ele>1605.2</ele>
        <time>2022-07-21T07:25:02Z</time>
      </trkpt>
      <trkpt lat="44.1777" lon="5.26488">
        <ele>1605.3</ele>
        <time>2022-07-21T07:25:03Z</time>
      </trkpt>
      <trkpt lat="44.1777" lon="5.2649">
        <ele>1605.4</ele>
        <time>2022-07-21T07:25:04Z</time>
      </trkpt>
      <trkpt lat="44.1777" lon="5.26493">
        <ele>1605.6</ele>
        <time>2022-07-21T07:25:05Z</time>
      </trkpt>
      <trkpt lat="44.1777" lon="5.26495">
        <ele>1605.7</ele>
        <time>2022-07-21T07:25:06Z</time>
      </trkpt>
      <trkpt lat="44.1777" lon="5.26497">
        <ele>1605.8</ele>
        <time>2022-07-21T07:25:07Z</time>
      </trkpt>
      <trkpt lat="44.17771" lon="5.26498">
        <ele>1605.9</ele>
        <time>2022-07-21T07:25:08Z</time>
      </trkpt>
      <trkpt lat="44.17772" lon="5.26499">
        <ele>1606</ele>
        <time>2022-07-21T07:25:09Z</time>
      </trkpt>
      <trkpt lat="44.17773" lon="5.26501">
        <ele>1606.1</ele>
        <time>2022-07-21T07:25:10Z</time>
      </trkpt>
      <trkpt lat="44.17773" lon="5.26502">
        <ele>1606.2</ele>
        <time>2022-07-21T07:25:11Z</time>
      </trkpt>
      <trkpt lat="44.17773" lon="5.26504">
        <ele>1606.3</ele>
        <time>2022-07-21T07:25:12Z</time>
      </trkpt>
      <trkpt lat="44.17774" lon="5.26505">
        <ele>1606.4</ele>
        <time>2022-07-21T07:25:13Z</time>
      </trkpt>
      <trkpt lat="44.17774" lon="5.26507">
        <ele>1606.6</ele>
        <time>2022-07-21T07:25:14Z</time>
      </trkpt>
      <trkpt lat="44.17773" lon="5.26509">
        <ele>1606.7</ele>
        <time>2022-07-21T07:25:15Z</time>
      </trkpt>
      <trkpt lat="44.17771" lon="5.26514">
        <ele>1607.1</ele>
        <time>2022-07-21T07:25:16Z</time>
      </trkpt>
      <trkpt lat="44.1777" lon="5.26516">
        <ele>1607.2</ele>
        <time>2022-07-21T07:25:17Z</time>
      </trkpt>
      <trkpt lat="44.17769" lon="5.2652">
        <ele>1607.5</ele>
        <time>2022-07-21T07:25:18Z</time>
      </trkpt>
      <trkpt lat="44.17769" lon="5.26522">
        <ele>1607.6</ele>
        <time>2022-07-21T07:25:19Z</time>
      </trkpt>
      <trkpt lat="44.17769" lon="5.26524">
        <ele>1607.8</ele>
        <time>2022-07-21T07:25:20Z</time>
      </trkpt>
      <trkpt lat="44.17769" lon="5.26526">
        <ele>1607.9</ele>
        <time>2022-07-21T07:25:21Z</time>
      </trkpt>
      <trkpt lat="44.17769" lon="5.26529">
        <ele>1608.1</ele>
        <time>2022-07-21T07:25:22Z</time>
      </trkpt>
      <trkpt lat="44.17769" lon="5.2653">
        <ele>1608.1</ele>
        <time>2022-07-21T07:25:23Z</time>
      </trkpt>
      <trkpt lat="44.17769" lon="5.26531">
        <ele>1608.2</ele>
        <time>2022-07-21T07:25:24Z</time>
      </trkpt>
      <trkpt lat="44.17769" lon="5.26533">
        <ele>1608.4</ele>
        <time>2022-07-21T07:25:25Z</time>
      </trkpt>
      <trkpt lat="44.17768" lon="5.26535">
        <ele>1608.5</ele>
        <time>2022-07-21T07:25:26Z</time>
      </trkpt>
      <trkpt lat="44.17768" lon="5.26536">
        <ele>1608.6</ele>
        <time>2022-07-21T07:25:27Z</time>
      </trkpt>
      <trkpt lat="44.17768" lon="5.26537">
        <ele>1608.6</ele>
        <time>2022-07-21T07:25:28Z</time>
      </trkpt>
      <trkpt lat="44.17767" lon="5.26537">
        <ele>1608.6</ele>
        <time>2022-07-21T07:25:29Z</time>
      </trkpt>
      <trkpt lat="44.17767" lon="5.26539">
        <ele>1608.7</ele>
        <time>2022-07-21T07:25:30Z</time>
      </trkpt>
      <trkpt lat="44.17767" lon="5.2654">
        <ele>1608.9</ele>
        <time>2022-07-21T07:25:31Z</time>
      </trkpt>
      <trkpt lat="44.17766" lon="5.26542">
        <ele>1609</ele>
        <time>2022-07-21T07:25:32Z</time>
      </trkpt>
      <trkpt lat="44.17766" lon="5.26544">
        <ele>1609.1</ele>
        <time>2022-07-21T07:25:33Z</time>
      </trkpt>
      <trkpt lat="44.17766" lon="5.26545">
        <ele>1609.2</ele>
        <time>2022-07-21T07:25:34Z</time>
      </trkpt>
      <trkpt lat="44.17765" lon="5.26547">
        <ele>1609.3</ele>
        <time>2022-07-21T07:25:35Z</time>
      </trkpt>
      <trkpt lat="44.17765" lon="5.2655">
        <ele>1609.5</ele>
        <time>2022-07-21T07:25:36Z</time>
      </trkpt>
      <trkpt lat="44.17764" lon="5.26551">
        <ele>1609.6</ele>
        <time>2022-07-21T07:25:37Z</time>
      </trkpt>
      <trkpt lat="44.17764" lon="5.26552">
        <ele>1609.6</ele>
        <time>2022-07-21T07:25:38Z</time>
      </trkpt>
      <trkpt lat="44.17763" lon="5.26554">
        <ele>1609.8</ele>
        <time>2022-07-21T07:25:39Z</time>
      </trkpt>
      <trkpt lat="44.17762" lon="5.26556">
        <ele>1610</ele>
        <time>2022-07-21T07:25:40Z</time>
      </trkpt>
      <trkpt lat="44.17761" lon="5.26559">
        <ele>1610.2</ele>
        <time>2022-07-21T07:25:41Z</time>
      </trkpt>
      <trkpt lat="44.1776" lon="5.2656">
        <ele>1610.3</ele>
        <time>2022-07-21T07:25:42Z</time>
      </trkpt>
      <trkpt lat="44.17759" lon="5.26562">
        <ele>1610.4</ele>
        <time>2022-07-21T07:25:43Z</time>
      </trkpt>
      <trkpt lat="44.17758" lon="5.26564">
        <ele>1610.6</ele>
        <time>2022-07-21T07:25:44Z</time>
      </trkpt>
      <trkpt lat="44.17756" lon="5.26568">
        <ele>1610.9</ele>
        <time>2022-07-21T07:25:45Z</time>
      </trkpt>
      <trkpt lat="44.17756" lon="5.26569">
        <ele>1611</ele>
        <time>2022-07-21T07:25:46Z</time>
      </trkpt>
      <trkpt lat="44.17754" lon="5.26572">
        <ele>1611.2</ele>
        <time>2022-07-21T07:25:47Z</time>
      </trkpt>
      <trkpt lat="44.17754" lon="5.26574">
        <ele>1611.3</ele>
        <time>2022-07-21T07:25:48Z</time>
      </trkpt>
      <trkpt lat="44.17752" lon="5.26577">
        <ele>1611.6</ele>
        <time>2022-07-21T07:25:49Z</time>
      </trkpt>
      <trkpt lat="44.17752" lon="5.26578">
        <ele>1611.6</ele>
        <time>2022-07-21T07:25:50Z</time>
      </trkpt>
      <trkpt lat="44.17751" lon="5.2658">
        <ele>1611.8</ele>
        <time>2022-07-21T07:25:51Z</time>
      </trkpt>
      <trkpt lat="44.1775" lon="5.26581">
        <ele>1611.9</ele>
        <time>2022-07-21T07:25:52Z</time>
      </trkpt>
      <trkpt lat="44.17749" lon="5.26582">
        <ele>1611.9</ele>
        <time>2022-07-21T07:25:53Z</time>
      </trkpt>
      <trkpt lat="44.17749" lon="5.26582">
        <ele>1612</ele>
        <time>2022-07-21T07:25:54Z</time>
      </trkpt>
      <trkpt lat="44.17749" lon="5.26584">
        <ele>1612.1</ele>
        <time>2022-07-21T07:25:55Z</time>
      </trkpt>
      <trkpt lat="44.17749" lon="5.26585">
        <ele>1612.2</ele>
        <time>2022-07-21T07:25:56Z</time>
      </trkpt>
      <trkpt lat="44.17748" lon="5.26588">
        <ele>1612.3</ele>
        <time>2022-07-21T07:25:57Z</time>
      </trkpt>
      <trkpt lat="44.17748" lon="5.26589">
        <ele>1612.4</ele>
        <time>2022-07-21T07:25:58Z</time>
      </trkpt>
      <trkpt lat="44.17747" lon="5.26589">
        <ele>1612.4</ele>
        <time>2022-07-21T07:25:59Z</time>
      </trkpt>
      <trkpt lat="44.17747" lon="5.2659">
        <ele>1612.5</ele>
        <time>2022-07-21T07:26:00Z</time>
      </trkpt>
      <trkpt lat="44.17746" lon="5.26595">
        <ele>1612.8</ele>
        <time>2022-07-21T07:26:01Z</time>
      </trkpt>
      <trkpt lat="44.17746" lon="5.26596">
        <ele>1612.9</ele>
        <time>2022-07-21T07:26:02Z</time>
      </trkpt>
      <trkpt lat="44.17746" lon="5.26601">
        <ele>1613.1</ele>
        <time>2022-07-21T07:26:03Z</time>
      </trkpt>
      <trkpt lat="44.17746" lon="5.26603">
        <ele>1613.2</ele>
        <time>2022-07-21T07:26:04Z</time>
      </trkpt>
      <trkpt lat="44.17744" lon="5.26607">
        <ele>1613.5</ele>
        <time>2022-07-21T07:26:05Z</time>
      </trkpt>
      <trkpt lat="44.17744" lon="5.26609">
        <ele>1613.6</ele>
        <time>2022-07-21T07:26:06Z</time>
      </trkpt>
      <trkpt lat="44.17743" lon="5.26613">
        <ele>1613.8</ele>
        <time>2022-07-21T07:26:07Z</time>
      </trkpt>
      <trkpt lat="44.17743" lon="5.26614">
        <ele>1613.9</ele>
        <time>2022-07-21T07:26:08Z</time>
      </trkpt>
      <trkpt lat="44.17744" lon="5.26619">
        <ele>1614.2</ele>
        <time>2022-07-21T07:26:09Z</time>
      </trkpt>
      <trkpt lat="44.17744" lon="5.26621">
        <ele>1614.2</ele>
        <time>2022-07-21T07:26:10Z</time>
      </trkpt>
      <trkpt lat="44.17746" lon="5.26625">
        <ele>1614.5</ele>
        <time>2022-07-21T07:26:11Z</time>
      </trkpt>
      <trkpt lat="44.17747" lon="5.26626">
        <ele>1614.6</ele>
        <time>2022-07-21T07:26:12Z</time>
      </trkpt>
      <trkpt lat="44.17749" lon="5.2663">
        <ele>1614.8</ele>
        <time>2022-07-21T07:26:13Z</time>
      </trkpt>
      <trkpt lat="44.1775" lon="5.26631">
        <ele>1614.9</ele>
        <time>2022-07-21T07:26:14Z</time>
      </trkpt>
      <trkpt lat="44.17751" lon="5.26635">
        <ele>1615</ele>
        <time>2022-07-21T07:26:15Z</time>
      </trkpt>
      <trkpt lat="44.17752" lon="5.26636">
        <ele>1615.1</ele>
        <time>2022-07-21T07:26:16Z</time>
      </trkpt>
      <trkpt lat="44.17752" lon="5.26638">
        <ele>1615.2</ele>
        <time>2022-07-21T07:26:17Z</time>
      </trkpt>
      <trkpt lat="44.17752" lon="5.26641">
        <ele>1615.3</ele>
        <time>2022-07-21T07:26:18Z</time>
      </trkpt>
      <trkpt lat="44.17752" lon="5.26643">
        <ele>1615.4</ele>
        <time>2022-07-21T07:26:19Z</time>
      </trkpt>
      <trkpt lat="44.17753" lon="5.26645">
        <ele>1615.5</ele>
        <time>2022-07-21T07:26:20Z</time>
      </trkpt>
      <trkpt lat="44.17753" lon="5.26647">
        <ele>1615.5</ele>
        <time>2022-07-21T07:26:21Z</time>
      </trkpt>
      <trkpt lat="44.17754" lon="5.26649">
        <ele>1615.6</ele>
        <time>2022-07-21T07:26:22Z</time>
      </trkpt>
      <trkpt lat="44.17755" lon="5.26651">
        <ele>1615.7</ele>
        <time>2022-07-21T07:26:23Z</time>
      </trkpt>
      <trkpt lat="44.17755" lon="5.26653">
        <ele>1615.8</ele>
        <time>2022-07-21T07:26:24Z</time>
      </trkpt>
      <trkpt lat="44.17755" lon="5.26654">
        <ele>1615.8</ele>
        <time>2022-07-21T07:26:25Z</time>
      </trkpt>
      <trkpt lat="44.17755" lon="5.26655">
        <ele>1615.8</ele>
        <time>2022-07-21T07:26:26Z</time>
      </trkpt>
      <trkpt lat="44.17755" lon="5.26657">
        <ele>1615.9</ele>
        <time>2022-07-21T07:26:27Z</time>
      </trkpt>
      <trkpt lat="44.17755" lon="5.26659">
        <ele>1616</ele>
        <time>2022-07-21T07:26:28Z</time>
      </trkpt>
      <trkpt lat="44.17755" lon="5.26661">
        <ele>1616.1</ele>
        <time>2022-07-21T07:26:29Z</time>
      </trkpt>
      <trkpt lat="44.17755" lon="5.26662">
        <ele>1616.1</ele>
        <time>2022-07-21T07:26:30Z</time>
      </trkpt>
      <trkpt lat="44.17755" lon="5.26664">
        <ele>1616.2</ele>
        <time>2022-07-21T07:26:31Z</time>
      </trkpt>
      <trkpt lat="44.17755" lon="5.26667">
        <ele>1616.3</ele>
        <time>2022-07-21T07:26:32Z</time>
      </trkpt>
      <trkpt lat="44.17757" lon="5.2667">
        <ele>1616.4</ele>
        <time>2022-07-21T07:26:33Z</time>
      </trkpt>
      <trkpt lat="44.17758" lon="5.26671">
        <ele>1616.4</ele>
        <time>2022-07-21T07:26:34Z</time>
      </trkpt>
      <trkpt lat="44.17758" lon="5.26672">
        <ele>1616.5</ele>
        <time>2022-07-21T07:26:35Z</time>
      </trkpt>
      <trkpt lat="44.17759" lon="5.26673">
        <ele>1616.5</ele>
        <time>2022-07-21T07:26:36Z</time>
      </trkpt>
      <trkpt lat="44.17759" lon="5.26675">
        <ele>1616.6</ele>
        <time>2022-07-21T07:26:37Z</time>
      </trkpt>
      <trkpt lat="44.17758" lon="5.26677">
        <ele>1616.7</ele>
        <time>2022-07-21T07:26:38Z</time>
      </trkpt>
      <trkpt lat="44.17757" lon="5.26679">
        <ele>1616.8</ele>
        <time>2022-07-21T07:26:39Z</time>
      </trkpt>
      <trkpt lat="44.17757" lon="5.26681">
        <ele>1616.8</ele>
        <time>2022-07-21T07:26:40Z</time>
      </trkpt>
      <trkpt lat="44.17756" lon="5.26683">
        <ele>1616.9</ele>
        <time>2022-07-21T07:26:41Z</time>
      </trkpt>
      <trkpt lat="44.17757" lon="5.26684">
        <ele>1616.9</ele>
        <time>2022-07-21T07:26:42Z</time>
      </trkpt>
      <trkpt lat="44.17757" lon="5.26686">
        <ele>1617</ele>
        <time>2022-07-21T07:26:43Z</time>
      </trkpt>
      <trkpt lat="44.17757" lon="5.26688">
        <ele>1617.1</ele>
        <time>2022-07-21T07:26:44Z</time>
      </trkpt>
      <trkpt lat="44.17757" lon="5.2669">
        <ele>1617.1</ele>
        <time>2022-07-21T07:26:45Z</time>
      </trkpt>
      <trkpt lat="44.17756" lon="5.26692">
        <ele>1617.2</ele>
        <time>2022-07-21T07:26:46Z</time>
      </trkpt>
      <trkpt lat="44.17757" lon="5.26694">
        <ele>1617.3</ele>
        <time>2022-07-21T07:26:47Z</time>
      </trkpt>
      <trkpt lat="44.17757" lon="5.26696">
        <ele>1617.4</ele>
        <time>2022-07-21T07:26:48Z</time>
      </trkpt>
      <trkpt lat="44.17758" lon="5.26699">
        <ele>1617.5</ele>
        <time>2022-07-21T07:26:49Z</time>
      </trkpt>
      <trkpt lat="44.17759" lon="5.26701">
        <ele>1617.6</ele>
        <time>2022-07-21T07:26:50Z</time>
      </trkpt>
      <trkpt lat="44.1776" lon="5.26702">
        <ele>1617.7</ele>
        <time>2022-07-21T07:26:51Z</time>
      </trkpt>
      <trkpt lat="44.1776" lon="5.26704">
        <ele>1617.8</ele>
        <time>2022-07-21T07:26:52Z</time>
      </trkpt>
      <trkpt lat="44.17761" lon="5.26708">
        <ele>1617.9</ele>
        <time>2022-07-21T07:26:53Z</time>
      </trkpt>
      <trkpt lat="44.17761" lon="5.2671">
        <ele>1618</ele>
        <time>2022-07-21T07:26:54Z</time>
      </trkpt>
      <trkpt lat="44.17759" lon="5.26714">
        <ele>1618.1</ele>
        <time>2022-07-21T07:26:55Z</time>
      </trkpt>
      <trkpt lat="44.17759" lon="5.26715">
        <ele>1618.2</ele>
        <time>2022-07-21T07:26:56Z</time>
      </trkpt>
      <trkpt lat="44.17758" lon="5.26718">
        <ele>1618.4</ele>
        <time>2022-07-21T07:26:57Z</time>
      </trkpt>
      <trkpt lat="44.17757" lon="5.2672">
        <ele>1618.4</ele>
        <time>2022-07-21T07:26:58Z</time>
      </trkpt>
      <trkpt lat="44.17757" lon="5.26722">
        <ele>1618.5</ele>
        <time>2022-07-21T07:26:59Z</time>
      </trkpt>
      <trkpt lat="44.17758" lon="5.26723">
        <ele>1618.6</ele>
        <time>2022-07-21T07:27:00Z</time>
      </trkpt>
      <trkpt lat="44.17759" lon="5.26726">
        <ele>1618.7</ele>
        <time>2022-07-21T07:27:01Z</time>
      </trkpt>
      <trkpt lat="44.1776" lon="5.26727">
        <ele>1618.8</ele>
        <time>2022-07-21T07:27:02Z</time>
      </trkpt>
      <trkpt lat="44.1776" lon="5.26728">
        <ele>1618.8</ele>
        <time>2022-07-21T07:27:03Z</time>
      </trkpt>
      <trkpt lat="44.1776" lon="5.2673">
        <ele>1618.9</ele>
        <time>2022-07-21T07:27:04Z</time>
      </trkpt>
      <trkpt lat="44.1776" lon="5.26731">
        <ele>1618.9</ele>
        <time>2022-07-21T07:27:05Z</time>
      </trkpt>
      <trkpt lat="44.1776" lon="5.26732">
        <ele>1619</ele>
        <time>2022-07-21T07:27:06Z</time>
      </trkpt>
      <trkpt lat="44.1776" lon="5.26733">
        <ele>1619</ele>
        <time>2022-07-21T07:27:07Z</time>
      </trkpt>
      <trkpt lat="44.17758" lon="5.26736">
        <ele>1619.2</ele>
        <time>2022-07-21T07:27:08Z</time>
      </trkpt>
      <trkpt lat="44.17758" lon="5.26737">
        <ele>1619.2</ele>
        <time>2022-07-21T07:27:09Z</time>
      </trkpt>
      <trkpt lat="44.17757" lon="5.26739">
        <ele>1619.3</ele>
        <time>2022-07-21T07:27:10Z</time>
      </trkpt>
      <trkpt lat="44.17756" lon="5.26741">
        <ele>1619.4</ele>
        <time>2022-07-21T07:27:11Z</time>
      </trkpt>
      <trkpt lat="44.17756" lon="5.26743">
        <ele>1619.5</ele>
        <time>2022-07-21T07:27:12Z</time>
      </trkpt>
      <trkpt lat="44.17755" lon="5.26745">
        <ele>1619.6</ele>
        <time>2022-07-21T07:27:13Z</time>
      </trkpt>
      <trkpt lat="44.17754" lon="5.26746">
        <ele>1619.7</ele>
        <time>2022-07-21T07:27:14Z</time>
      </trkpt>
      <trkpt lat="44.17754" lon="5.26748">
        <ele>1619.8</ele>
        <time>2022-07-21T07:27:15Z</time>
      </trkpt>
      <trkpt lat="44.17755" lon="5.26749">
        <ele>1619.9</ele>
        <time>2022-07-21T07:27:16Z</time>
      </trkpt>
      <trkpt lat="44.17755" lon="5.26752">
        <ele>1620</ele>
        <time>2022-07-21T07:27:17Z</time>
      </trkpt>
      <trkpt lat="44.17756" lon="5.26754">
        <ele>1620.1</ele>
        <time>2022-07-21T07:27:18Z</time>
      </trkpt>
      <trkpt lat="44.17757" lon="5.26756">
        <ele>1620.2</ele>
        <time>2022-07-21T07:27:19Z</time>
      </trkpt>
      <trkpt lat="44.17758" lon="5.26758">
        <ele>1620.3</ele>
        <time>2022-07-21T07:27:20Z</time>
      </trkpt>
      <trkpt lat="44.17758" lon="5.2676">
        <ele>1620.4</ele>
        <time>2022-07-21T07:27:21Z</time>
      </trkpt>
      <trkpt lat="44.17758" lon="5.26762">
        <ele>1620.5</ele>
        <time>2022-07-21T07:27:22Z</time>
      </trkpt>
      <trkpt lat="44.17758" lon="5.26764">
        <ele>1620.6</ele>
        <time>2022-07-21T07:27:23Z</time>
      </trkpt>
      <trkpt lat="44.17758" lon="5.26767">
        <ele>1620.7</ele>
        <time>2022-07-21T07:27:24Z</time>
      </trkpt>
      <trkpt lat="44.17757" lon="5.26768">
        <ele>1620.8</ele>
        <time>2022-07-21T07:27:25Z</time>
      </trkpt>
      <trkpt lat="44.17756" lon="5.2677">
        <ele>1620.9</ele>
        <time>2022-07-21T07:27:26Z</time>
      </trkpt>
      <trkpt lat="44.17756" lon="5.26772">
        <ele>1621</ele>
        <time>2022-07-21T07:27:27Z</time>
      </trkpt>
      <trkpt lat="44.17756" lon="5.26775">
        <ele>1621.2</ele>
        <time>2022-07-21T07:27:28Z</time>
      </trkpt>
      <trkpt lat="44.17755" lon="5.26777">
        <ele>1621.3</ele>
        <time>2022-07-21T07:27:29Z</time>
      </trkpt>
      <trkpt lat="44.17755" lon="5.26779">
        <ele>1621.4</ele>
        <time>2022-07-21T07:27:30Z</time>
      </trkpt>
      <trkpt lat="44.17753" lon="5.26781">
        <ele>1621.5</ele>
        <time>2022-07-21T07:27:31Z</time>
      </trkpt>
      <trkpt lat="44.17752" lon="5.26783">
        <ele>1621.7</ele>
        <time>2022-07-21T07:27:32Z</time>
      </trkpt>
      <trkpt lat="44.17751" lon="5.26784">
        <ele>1621.8</ele>
        <time>2022-07-21T07:27:33Z</time>
      </trkpt>
      <trkpt lat="44.17751" lon="5.26786">
        <ele>1621.9</ele>
        <time>2022-07-21T07:27:34Z</time>
      </trkpt>
      <trkpt lat="44.17751" lon="5.26789">
        <ele>1622</ele>
        <time>2022-07-21T07:27:35Z</time>
      </trkpt>
      <trkpt lat="44.1775" lon="5.26791">
        <ele>1622.1</ele>
        <time>2022-07-21T07:27:36Z</time>
      </trkpt>
      <trkpt lat="44.17749" lon="5.26793">
        <ele>1622.2</ele>
        <time>2022-07-21T07:27:37Z</time>
      </trkpt>
      <trkpt lat="44.17748" lon="5.26794">
        <ele>1622.3</ele>
        <time>2022-07-21T07:27:38Z</time>
      </trkpt>
      <trkpt lat="44.17748" lon="5.26795">
        <ele>1622.4</ele>
        <time>2022-07-21T07:27:39Z</time>
      </trkpt>
      <trkpt lat="44.17748" lon="5.26797">
        <ele>1622.5</ele>
        <time>2022-07-21T07:27:40Z</time>
      </trkpt>
      <trkpt lat="44.17747" lon="5.26801">
        <ele>1622.7</ele>
        <time>2022-07-21T07:27:41Z</time>
      </trkpt>
      <trkpt lat="44.17747" lon="5.26802">
        <ele>1622.8</ele>
        <time>2022-07-21T07:27:42Z</time>
      </trkpt>
      <trkpt lat="44.17746" lon="5.26805">
        <ele>1622.9</ele>
        <time>2022-07-21T07:27:43Z</time>
      </trkpt>
      <trkpt lat="44.17746" lon="5.26807">
        <ele>1623</ele>
        <time>2022-07-21T07:27:44Z</time>
      </trkpt>
      <trkpt lat="44.17747" lon="5.26809">
        <ele>1623.1</ele>
        <time>2022-07-21T07:27:45Z</time>
      </trkpt>
      <trkpt lat="44.17748" lon="5.26811">
        <ele>1623.3</ele>
        <time>2022-07-21T07:27:46Z</time>
      </trkpt>
      <trkpt lat="44.17749" lon="5.26815">
        <ele>1623.5</ele>
        <time>2022-07-21T07:27:47Z</time>
      </trkpt>
      <trkpt lat="44.17749" lon="5.26816">
        <ele>1623.5</ele>
        <time>2022-07-21T07:27:48Z</time>
      </trkpt>
      <trkpt lat="44.1775" lon="5.26818">
        <ele>1623.7</ele>
        <time>2022-07-21T07:27:49Z</time>
      </trkpt>
      <trkpt lat="44.17751" lon="5.26819">
        <ele>1623.8</ele>
        <time>2022-07-21T07:27:50Z</time>
      </trkpt>
      <trkpt lat="44.17751" lon="5.26821">
        <ele>1623.9</ele>
        <time>2022-07-21T07:27:51Z</time>
      </trkpt>
      <trkpt lat="44.17752" lon="5.26823">
        <ele>1624</ele>
        <time>2022-07-21T07:27:52Z</time>
      </trkpt>
      <trkpt lat="44.17753" lon="5.26824">
        <ele>1624.1</ele>
        <time>2022-07-21T07:27:53Z</time>
      </trkpt>
      <trkpt lat="44.17754" lon="5.26826">
        <ele>1624.2</ele>
        <time>2022-07-21T07:27:54Z</time>
      </trkpt>
      <trkpt lat="44.17754" lon="5.26828">
        <ele>1624.4</ele>
        <time>2022-07-21T07:27:55Z</time>
      </trkpt>
      <trkpt lat="44.17754" lon="5.2683">
        <ele>1624.5</ele>
        <time>2022-07-21T07:27:56Z</time>
      </trkpt>
      <trkpt lat="44.17755" lon="5.26834">
        <ele>1624.7</ele>
        <time>2022-07-21T07:27:57Z</time>
      </trkpt>
      <trkpt lat="44.17755" lon="5.26836">
        <ele>1624.8</ele>
        <time>2022-07-21T07:27:58Z</time>
      </trkpt>
      <trkpt lat="44.17755" lon="5.26838">
        <ele>1624.9</ele>
        <time>2022-07-21T07:27:59Z</time>
      </trkpt>
      <trkpt lat="44.17755" lon="5.2684">
        <ele>1625.1</ele>
        <time>2022-07-21T07:28:00Z</time>
      </trkpt>
      <trkpt lat="44.17755" lon="5.26843">
        <ele>1625.3</ele>
        <time>2022-07-21T07:28:01Z</time>
      </trkpt>
      <trkpt lat="44.17755" lon="5.26844">
        <ele>1625.3</ele>
        <time>2022-07-21T07:28:02Z</time>
      </trkpt>
      <trkpt lat="44.17755" lon="5.26846">
        <ele>1625.4</ele>
        <time>2022-07-21T07:28:03Z</time>
      </trkpt>
      <trkpt lat="44.17755" lon="5.26847">
        <ele>1625.5</ele>
        <time>2022-07-21T07:28:04Z</time>
      </trkpt>
      <trkpt lat="44.17755" lon="5.26848">
        <ele>1625.6</ele>
        <time>2022-07-21T07:28:05Z</time>
      </trkpt>
      <trkpt lat="44.17755" lon="5.2685">
        <ele>1625.7</ele>
        <time>2022-07-21T07:28:06Z</time>
      </trkpt>
      <trkpt lat="44.17754" lon="5.26852">
        <ele>1625.8</ele>
        <time>2022-07-21T07:28:07Z</time>
      </trkpt>
      <trkpt lat="44.17754" lon="5.26854">
        <ele>1625.9</ele>
        <time>2022-07-21T07:28:08Z</time>
      </trkpt>
      <trkpt lat="44.17754" lon="5.26856">
        <ele>1626</ele>
        <time>2022-07-21T07:28:09Z</time>
      </trkpt>
      <trkpt lat="44.17754" lon="5.26858">
        <ele>1626.1</ele>
        <time>2022-07-21T07:28:10Z</time>
      </trkpt>
      <trkpt lat="44.17754" lon="5.2686">
        <ele>1626.2</ele>
        <time>2022-07-21T07:28:11Z</time>
      </trkpt>
      <trkpt lat="44.17754" lon="5.26861">
        <ele>1626.3</ele>
        <time>2022-07-21T07:28:12Z</time>
      </trkpt>
      <trkpt lat="44.17755" lon="5.26862">
        <ele>1626.4</ele>
        <time>2022-07-21T07:28:13Z</time>
      </trkpt>
      <trkpt lat="44.17756" lon="5.26864">
        <ele>1626.5</ele>
        <time>2022-07-21T07:28:14Z</time>
      </trkpt>
      <trkpt lat="44.17757" lon="5.26866">
        <ele>1626.7</ele>
        <time>2022-07-21T07:28:15Z</time>
      </trkpt>
      <trkpt lat="44.17757" lon="5.26868">
        <ele>1626.8</ele>
        <time>2022-07-21T07:28:16Z</time>
      </trkpt>
      <trkpt lat="44.17758" lon="5.26869">
        <ele>1626.9</ele>
        <time>2022-07-21T07:28:17Z</time>
      </trkpt>
      <trkpt lat="44.17758" lon="5.2687">
        <ele>1627</ele>
        <time>2022-07-21T07:28:18Z</time>
      </trkpt>
      <trkpt lat="44.17756" lon="5.26874">
        <ele>1627.2</ele>
        <time>2022-07-21T07:28:19Z</time>
      </trkpt>
      <trkpt lat="44.17755" lon="5.26875">
        <ele>1627.3</ele>
        <time>2022-07-21T07:28:20Z</time>
      </trkpt>
      <trkpt lat="44.17753" lon="5.26879">
        <ele>1627.6</ele>
        <time>2022-07-21T07:28:21Z</time>
      </trkpt>
      <trkpt lat="44.17753" lon="5.2688">
        <ele>1627.7</ele>
        <time>2022-07-21T07:28:22Z</time>
      </trkpt>
      <trkpt lat="44.17752" lon="5.26883">
        <ele>1627.9</ele>
        <time>2022-07-21T07:28:23Z</time>
      </trkpt>
      <trkpt lat="44.17752" lon="5.26885">
        <ele>1628</ele>
        <time>2022-07-21T07:28:24Z</time>
      </trkpt>
      <trkpt lat="44.17752" lon="5.26887">
        <ele>1628.1</ele>
        <time>2022-07-21T07:28:25Z</time>
      </trkpt>
      <trkpt lat="44.17752" lon="5.26889">
        <ele>1628.3</ele>
        <time>2022-07-21T07:28:26Z</time>
      </trkpt>
      <trkpt lat="44.17752" lon="5.26892">
        <ele>1628.5</ele>
        <time>2022-07-21T07:28:27Z</time>
      </trkpt>
      <trkpt lat="44.17752" lon="5.26894">
        <ele>1628.5</ele>
        <time>2022-07-21T07:28:28Z</time>
      </trkpt>
      <trkpt lat="44.17752" lon="5.26895">
        <ele>1628.6</ele>
        <time>2022-07-21T07:28:29Z</time>
      </trkpt>
      <trkpt lat="44.17751" lon="5.26897">
        <ele>1628.7</ele>
        <time>2022-07-21T07:28:30Z</time>
      </trkpt>
      <trkpt lat="44.17751" lon="5.26899">
        <ele>1628.9</ele>
        <time>2022-07-21T07:28:31Z</time>
      </trkpt>
      <trkpt lat="44.17751" lon="5.26902">
        <ele>1629.1</ele>
        <time>2022-07-21T07:28:32Z</time>
      </trkpt>
      <trkpt lat="44.17751" lon="5.26904">
        <ele>1629.2</ele>
        <time>2022-07-21T07:28:33Z</time>
      </trkpt>
      <trkpt lat="44.17752" lon="5.26907">
        <ele>1629.4</ele>
        <time>2022-07-21T07:28:34Z</time>
      </trkpt>
      <trkpt lat="44.17752" lon="5.26908">
        <ele>1629.5</ele>
        <time>2022-07-21T07:28:35Z</time>
      </trkpt>
      <trkpt lat="44.17753" lon="5.26909">
        <ele>1629.5</ele>
        <time>2022-07-21T07:28:36Z</time>
      </trkpt>
      <trkpt lat="44.17751" lon="5.26912">
        <ele>1629.8</ele>
        <time>2022-07-21T07:28:37Z</time>
      </trkpt>
      <trkpt lat="44.17751" lon="5.26913">
        <ele>1629.9</ele>
        <time>2022-07-21T07:28:38Z</time>
      </trkpt>
      <trkpt lat="44.17749" lon="5.26915">
        <ele>1630.1</ele>
        <time>2022-07-21T07:28:39Z</time>
      </trkpt>
      <trkpt lat="44.17748" lon="5.26916">
        <ele>1630.2</ele>
        <time>2022-07-21T07:28:40Z</time>
      </trkpt>
      <trkpt lat="44.17747" lon="5.26917">
        <ele>1630.3</ele>
        <time>2022-07-21T07:28:41Z</time>
      </trkpt>
      <trkpt lat="44.17747" lon="5.26919">
        <ele>1630.4</ele>
        <time>2022-07-21T07:28:42Z</time>
      </trkpt>
      <trkpt lat="44.17747" lon="5.2692">
        <ele>1630.5</ele>
        <time>2022-07-21T07:28:43Z</time>
      </trkpt>
      <trkpt lat="44.17748" lon="5.26923">
        <ele>1630.7</ele>
        <time>2022-07-21T07:28:44Z</time>
      </trkpt>
      <trkpt lat="44.17748" lon="5.26924">
        <ele>1630.7</ele>
        <time>2022-07-21T07:28:45Z</time>
      </trkpt>
      <trkpt lat="44.17749" lon="5.26925">
        <ele>1630.8</ele>
        <time>2022-07-21T07:28:46Z</time>
      </trkpt>
      <trkpt lat="44.17749" lon="5.26926">
        <ele>1630.9</ele>
        <time>2022-07-21T07:28:47Z</time>
      </trkpt>
      <trkpt lat="44.1775" lon="5.26929">
        <ele>1631.1</ele>
        <time>2022-07-21T07:28:48Z</time>
      </trkpt>
      <trkpt lat="44.1775" lon="5.26932">
        <ele>1631.3</ele>
        <time>2022-07-21T07:28:49Z</time>
      </trkpt>
      <trkpt lat="44.1775" lon="5.26933">
        <ele>1631.3</ele>
        <time>2022-07-21T07:28:50Z</time>
      </trkpt>
      <trkpt lat="44.1775" lon="5.26934">
        <ele>1631.4</ele>
        <time>2022-07-21T07:28:51Z</time>
      </trkpt>
      <trkpt lat="44.17749" lon="5.26937">
        <ele>1631.6</ele>
        <time>2022-07-21T07:28:52Z</time>
      </trkpt>
      <trkpt lat="44.1775" lon="5.26938">
        <ele>1631.7</ele>
        <time>2022-07-21T07:28:53Z</time>
      </trkpt>
      <trkpt lat="44.1775" lon="5.2694">
        <ele>1631.8</ele>
        <time>2022-07-21T07:28:54Z</time>
      </trkpt>
      <trkpt lat="44.17749" lon="5.26944">
        <ele>1632.1</ele>
        <time>2022-07-21T07:28:55Z</time>
      </trkpt>
      <trkpt lat="44.17748" lon="5.26945">
        <ele>1632.2</ele>
        <time>2022-07-21T07:28:56Z</time>
      </trkpt>
      <trkpt lat="44.17746" lon="5.26948">
        <ele>1632.5</ele>
        <time>2022-07-21T07:28:57Z</time>
      </trkpt>
      <trkpt lat="44.17746" lon="5.26949">
        <ele>1632.5</ele>
        <time>2022-07-21T07:28:58Z</time>
      </trkpt>
      <trkpt lat="44.17746" lon="5.26952">
        <ele>1632.7</ele>
        <time>2022-07-21T07:28:59Z</time>
      </trkpt>
      <trkpt lat="44.17746" lon="5.26954">
        <ele>1632.8</ele>
        <time>2022-07-21T07:29:00Z</time>
      </trkpt>
      <trkpt lat="44.17747" lon="5.26955">
        <ele>1632.9</ele>
        <time>2022-07-21T07:29:01Z</time>
      </trkpt>
      <trkpt lat="44.17746" lon="5.26957">
        <ele>1633</ele>
        <time>2022-07-21T07:29:02Z</time>
      </trkpt>
      <trkpt lat="44.17746" lon="5.26958">
        <ele>1633.1</ele>
        <time>2022-07-21T07:29:03Z</time>
      </trkpt>
      <trkpt lat="44.17746" lon="5.2696">
        <ele>1633.2</ele>
        <time>2022-07-21T07:29:04Z</time>
      </trkpt>
      <trkpt lat="44.17746" lon="5.26962">
        <ele>1633.3</ele>
        <time>2022-07-21T07:29:05Z</time>
      </trkpt>
      <trkpt lat="44.17746" lon="5.26965">
        <ele>1633.5</ele>
        <time>2022-07-21T07:29:06Z</time>
      </trkpt>
      <trkpt lat="44.17746" lon="5.26966">
        <ele>1633.6</ele>
        <time>2022-07-21T07:29:07Z</time>
      </trkpt>
      <trkpt lat="44.17746" lon="5.26967">
        <ele>1633.7</ele>
        <time>2022-07-21T07:29:08Z</time>
      </trkpt>
      <trkpt lat="44.17746" lon="5.26969">
        <ele>1633.8</ele>
        <time>2022-07-21T07:29:09Z</time>
      </trkpt>
      <trkpt lat="44.17746" lon="5.26971">
        <ele>1633.9</ele>
        <time>2022-07-21T07:29:10Z</time>
      </trkpt>
      <trkpt lat="44.17746" lon="5.26974">
        <ele>1634.1</ele>
        <time>2022-07-21T07:29:11Z</time>
      </trkpt>
      <trkpt lat="44.17747" lon="5.26975">
        <ele>1634.2</ele>
        <time>2022-07-21T07:29:12Z</time>
      </trkpt>
      <trkpt lat="44.17747" lon="5.26976">
        <ele>1634.3</ele>
        <time>2022-07-21T07:29:13Z</time>
      </trkpt>
      <trkpt lat="44.17747" lon="5.2698">
        <ele>1634.5</ele>
        <time>2022-07-21T07:29:14Z</time>
      </trkpt>
      <trkpt lat="44.17747" lon="5.26981">
        <ele>1634.6</ele>
        <time>2022-07-21T07:29:15Z</time>
      </trkpt>
      <trkpt lat="44.17748" lon="5.26982">
        <ele>1634.6</ele>
        <time>2022-07-21T07:29:16Z</time>
      </trkpt>
      <trkpt lat="44.17748" lon="5.26984">
        <ele>1634.8</ele>
        <time>2022-07-21T07:29:17Z</time>
      </trkpt>
      <trkpt lat="44.17748" lon="5.26985">
        <ele>1634.9</ele>
        <time>2022-07-21T07:29:18Z</time>
      </trkpt>
      <trkpt lat="44.17748" lon="5.26987">
        <ele>1635</ele>
        <time>2022-07-21T07:29:19Z</time>
      </trkpt>
      <trkpt lat="44.17748" lon="5.26989">
        <ele>1635.1</ele>
        <time>2022-07-21T07:29:20Z</time>
      </trkpt>
      <trkpt lat="44.17748" lon="5.26992">
        <ele>1635.3</ele>
        <time>2022-07-21T07:29:21Z</time>
      </trkpt>
      <trkpt lat="44.17748" lon="5.26994">
        <ele>1635.4</ele>
        <time>2022-07-21T07:29:22Z</time>
      </trkpt>
      <trkpt lat="44.17747" lon="5.26996">
        <ele>1635.5</ele>
        <time>2022-07-21T07:29:23Z</time>
      </trkpt>
      <trkpt lat="44.17745" lon="5.26999">
        <ele>1635.8</ele>
        <time>2022-07-21T07:29:24Z</time>
      </trkpt>
      <trkpt lat="44.17745" lon="5.27001">
        <ele>1635.9</ele>
        <time>2022-07-21T07:29:25Z</time>
      </trkpt>
      <trkpt lat="44.17744" lon="5.27003">
        <ele>1636</ele>
        <time>2022-07-21T07:29:26Z</time>
      </trkpt>
      <trkpt lat="44.17743" lon="5.27005">
        <ele>1636.2</ele>
        <time>2022-07-21T07:29:27Z</time>
      </trkpt>
      <trkpt lat="44.17742" lon="5.27009">
        <ele>1636.4</ele>
        <time>2022-07-21T07:29:28Z</time>
      </trkpt>
      <trkpt lat="44.17742" lon="5.2701">
        <ele>1636.5</ele>
        <time>2022-07-21T07:29:29Z</time>
      </trkpt>
      <trkpt lat="44.17741" lon="5.27012">
        <ele>1636.6</ele>
        <time>2022-07-21T07:29:30Z</time>
      </trkpt>
      <trkpt lat="44.1774" lon="5.27014">
        <ele>1636.7</ele>
        <time>2022-07-21T07:29:31Z</time>
      </trkpt>
      <trkpt lat="44.17741" lon="5.27017">
        <ele>1636.9</ele>
        <time>2022-07-21T07:29:32Z</time>
      </trkpt>
      <trkpt lat="44.17741" lon="5.27018">
        <ele>1637</ele>
        <time>2022-07-21T07:29:33Z</time>
      </trkpt>
      <trkpt lat="44.17741" lon="5.27019">
        <ele>1637</ele>
        <time>2022-07-21T07:29:34Z</time>
      </trkpt>
      <trkpt lat="44.17743" lon="5.27022">
        <ele>1637.3</ele>
        <time>2022-07-21T07:29:35Z</time>
      </trkpt>
      <trkpt lat="44.17744" lon="5.27023">
        <ele>1637.4</ele>
        <time>2022-07-21T07:29:36Z</time>
      </trkpt>
      <trkpt lat="44.17745" lon="5.27025">
        <ele>1637.5</ele>
        <time>2022-07-21T07:29:37Z</time>
      </trkpt>
      <trkpt lat="44.17744" lon="5.27027">
        <ele>1637.6</ele>
        <time>2022-07-21T07:29:38Z</time>
      </trkpt>
      <trkpt lat="44.17741" lon="5.27031">
        <ele>1638</ele>
        <time>2022-07-21T07:29:39Z</time>
      </trkpt>
      <trkpt lat="44.1774" lon="5.27032">
        <ele>1638.1</ele>
        <time>2022-07-21T07:29:40Z</time>
      </trkpt>
      <trkpt lat="44.17737" lon="5.27034">
        <ele>1638.4</ele>
        <time>2022-07-21T07:29:41Z</time>
      </trkpt>
      <trkpt lat="44.17737" lon="5.27035">
        <ele>1638.4</ele>
        <time>2022-07-21T07:29:42Z</time>
      </trkpt>
      <trkpt lat="44.17735" lon="5.27035">
        <ele>1638.5</ele>
        <time>2022-07-21T07:29:43Z</time>
      </trkpt>
      <trkpt lat="44.17734" lon="5.27037">
        <ele>1638.7</ele>
        <time>2022-07-21T07:29:44Z</time>
      </trkpt>
      <trkpt lat="44.17733" lon="5.27038">
        <ele>1638.8</ele>
        <time>2022-07-21T07:29:45Z</time>
      </trkpt>
      <trkpt lat="44.17733" lon="5.2704">
        <ele>1638.9</ele>
        <time>2022-07-21T07:29:46Z</time>
      </trkpt>
      <trkpt lat="44.17734" lon="5.27041">
        <ele>1639.1</ele>
        <time>2022-07-21T07:29:47Z</time>
      </trkpt>
      <trkpt lat="44.17738" lon="5.27043">
        <ele>1639.3</ele>
        <time>2022-07-21T07:29:48Z</time>
      </trkpt>
      <trkpt lat="44.17739" lon="5.27044">
        <ele>1639.5</ele>
        <time>2022-07-21T07:29:49Z</time>
      </trkpt>
      <trkpt lat="44.17742" lon="5.27046">
        <ele>1639.8</ele>
        <time>2022-07-21T07:29:50Z</time>
      </trkpt>
      <trkpt lat="44.17743" lon="5.27047">
        <ele>1639.9</ele>
        <time>2022-07-21T07:29:51Z</time>
      </trkpt>
      <trkpt lat="44.17744" lon="5.27049">
        <ele>1640</ele>
        <time>2022-07-21T07:29:52Z</time>
      </trkpt>
      <trkpt lat="44.17745" lon="5.27051">
        <ele>1640.2</ele>
        <time>2022-07-21T07:29:53Z</time>
      </trkpt>
      <trkpt lat="44.17747" lon="5.27051">
        <ele>1640.3</ele>
        <time>2022-07-21T07:29:54Z</time>
      </trkpt>
      <trkpt lat="44.17747" lon="5.27052">
        <ele>1640.4</ele>
        <time>2022-07-21T07:29:55Z</time>
      </trkpt>
      <trkpt lat="44.17746" lon="5.27053">
        <ele>1640.5</ele>
        <time>2022-07-21T07:29:56Z</time>
      </trkpt>
      <trkpt lat="44.17746" lon="5.27055">
        <ele>1640.6</ele>
        <time>2022-07-21T07:29:57Z</time>
      </trkpt>
      <trkpt lat="44.17745" lon="5.27057">
        <ele>1640.8</ele>
        <time>2022-07-21T07:29:58Z</time>
      </trkpt>
      <trkpt lat="44.17744" lon="5.27059">
        <ele>1640.9</ele>
        <time>2022-07-21T07:29:59Z</time>
      </trkpt>
      <trkpt lat="44.17744" lon="5.27061">
        <ele>1641.1</ele>
        <time>2022-07-21T07:30:00Z</time>
      </trkpt>
      <trkpt lat="44.17743" lon="5.27063">
        <ele>1641.2</ele>
        <time>2022-07-21T07:30:01Z</time>
      </trkpt>
      <trkpt lat="44.17742" lon="5.27065">
        <ele>1641.3</ele>
        <time>2022-07-21T07:30:02Z</time>
      </trkpt>
      <trkpt lat="44.17742" lon="5.27067">
        <ele>1641.5</ele>
        <time>2022-07-21T07:30:03Z</time>
      </trkpt>
      <trkpt lat="44.17741" lon="5.27068">
        <ele>1641.6</ele>
        <time>2022-07-21T07:30:04Z</time>
      </trkpt>
      <trkpt lat="44.1774" lon="5.2707">
        <ele>1641.8</ele>
        <time>2022-07-21T07:30:05Z</time>
      </trkpt>
      <trkpt lat="44.17739" lon="5.27071">
        <ele>1641.9</ele>
        <time>2022-07-21T07:30:06Z</time>
      </trkpt>
      <trkpt lat="44.17739" lon="5.27072">
        <ele>1642</ele>
        <time>2022-07-21T07:30:07Z</time>
      </trkpt>
      <trkpt lat="44.17738" lon="5.27074">
        <ele>1642.1</ele>
        <time>2022-07-21T07:30:08Z</time>
      </trkpt>
      <trkpt lat="44.17737" lon="5.27076">
        <ele>1642.3</ele>
        <time>2022-07-21T07:30:09Z</time>
      </trkpt>
      <trkpt lat="44.17737" lon="5.27077">
        <ele>1642.4</ele>
        <time>2022-07-21T07:30:10Z</time>
      </trkpt>
      <trkpt lat="44.17736" lon="5.27078">
        <ele>1642.5</ele>
        <time>2022-07-21T07:30:11Z</time>
      </trkpt>
      <trkpt lat="44.17735" lon="5.27083">
        <ele>1642.8</ele>
        <time>2022-07-21T07:30:12Z</time>
      </trkpt>
      <trkpt lat="44.17735" lon="5.27085">
        <ele>1643</ele>
        <time>2022-07-21T07:30:13Z</time>
      </trkpt>
      <trkpt lat="44.17734" lon="5.27089">
        <ele>1643.3</ele>
        <time>2022-07-21T07:30:14Z</time>
      </trkpt>
      <trkpt lat="44.17733" lon="5.27094">
        <ele>1643.6</ele>
        <time>2022-07-21T07:30:15Z</time>
      </trkpt>
      <trkpt lat="44.17732" lon="5.27095">
        <ele>1643.8</ele>
        <time>2022-07-21T07:30:16Z</time>
      </trkpt>
      <trkpt lat="44.17733" lon="5.27098">
        <ele>1644</ele>
        <time>2022-07-21T07:30:17Z</time>
      </trkpt>
      <trkpt lat="44.17733" lon="5.271">
        <ele>1644.1</ele>
        <time>2022-07-21T07:30:18Z</time>
      </trkpt>
      <trkpt lat="44.17732" lon="5.27101">
        <ele>1644.2</ele>
        <time>2022-07-21T07:30:19Z</time>
      </trkpt>
      <trkpt lat="44.17732" lon="5.27103">
        <ele>1644.4</ele>
        <time>2022-07-21T07:30:20Z</time>
      </trkpt>
      <trkpt lat="44.17731" lon="5.27106">
        <ele>1644.6</ele>
        <time>2022-07-21T07:30:21Z</time>
      </trkpt>
      <trkpt lat="44.17731" lon="5.27108">
        <ele>1644.7</ele>
        <time>2022-07-21T07:30:22Z</time>
      </trkpt>
      <trkpt lat="44.17731" lon="5.27109">
        <ele>1644.8</ele>
        <time>2022-07-21T07:30:23Z</time>
      </trkpt>
      <trkpt lat="44.1773" lon="5.27111">
        <ele>1645</ele>
        <time>2022-07-21T07:30:24Z</time>
      </trkpt>
      <trkpt lat="44.17729" lon="5.27113">
        <ele>1645.1</ele>
        <time>2022-07-21T07:30:25Z</time>
      </trkpt>
      <trkpt lat="44.17728" lon="5.27115">
        <ele>1645.3</ele>
        <time>2022-07-21T07:30:26Z</time>
      </trkpt>
      <trkpt lat="44.17728" lon="5.27116">
        <ele>1645.4</ele>
        <time>2022-07-21T07:30:27Z</time>
      </trkpt>
      <trkpt lat="44.17728" lon="5.27118">
        <ele>1645.5</ele>
        <time>2022-07-21T07:30:28Z</time>
      </trkpt>
      <trkpt lat="44.1773" lon="5.27119">
        <ele>1645.7</ele>
        <time>2022-07-21T07:30:29Z</time>
      </trkpt>
      <trkpt lat="44.17731" lon="5.2712">
        <ele>1645.8</ele>
        <time>2022-07-21T07:30:30Z</time>
      </trkpt>
      <trkpt lat="44.17732" lon="5.27123">
        <ele>1646</ele>
        <time>2022-07-21T07:30:31Z</time>
      </trkpt>
      <trkpt lat="44.17732" lon="5.27124">
        <ele>1646.1</ele>
        <time>2022-07-21T07:30:32Z</time>
      </trkpt>
      <trkpt lat="44.17732" lon="5.27126">
        <ele>1646.2</ele>
        <time>2022-07-21T07:30:33Z</time>
      </trkpt>
      <trkpt lat="44.1773" lon="5.2713">
        <ele>1646.5</ele>
        <time>2022-07-21T07:30:34Z</time>
      </trkpt>
      <trkpt lat="44.1773" lon="5.27131">
        <ele>1646.6</ele>
        <time>2022-07-21T07:30:35Z</time>
      </trkpt>
      <trkpt lat="44.1773" lon="5.27133">
        <ele>1646.8</ele>
        <time>2022-07-21T07:30:36Z</time>
      </trkpt>
      <trkpt lat="44.17729" lon="5.27135">
        <ele>1646.9</ele>
        <time>2022-07-21T07:30:37Z</time>
      </trkpt>
      <trkpt lat="44.17728" lon="5.27138">
        <ele>1647.1</ele>
        <time>2022-07-21T07:30:38Z</time>
      </trkpt>
      <trkpt lat="44.17727" lon="5.27139">
        <ele>1647.2</ele>
        <time>2022-07-21T07:30:39Z</time>
      </trkpt>
      <trkpt lat="44.17727" lon="5.2714">
        <ele>1647.3</ele>
        <time>2022-07-21T07:30:40Z</time>
      </trkpt>
      <trkpt lat="44.17726" lon="5.27141">
        <ele>1647.4</ele>
        <time>2022-07-21T07:30:41Z</time>
      </trkpt>
      <trkpt lat="44.17725" lon="5.27143">
        <ele>1647.6</ele>
        <time>2022-07-21T07:30:42Z</time>
      </trkpt>
      <trkpt lat="44.17724" lon="5.27145">
        <ele>1647.7</ele>
        <time>2022-07-21T07:30:43Z</time>
      </trkpt>
      <trkpt lat="44.17724" lon="5.27147">
        <ele>1647.9</ele>
        <time>2022-07-21T07:30:44Z</time>
      </trkpt>
      <trkpt lat="44.17724" lon="5.2715">
        <ele>1648</ele>
        <time>2022-07-21T07:30:45Z</time>
      </trkpt>
      <trkpt lat="44.17723" lon="5.27152">
        <ele>1648.2</ele>
        <time>2022-07-21T07:30:46Z</time>
      </trkpt>
      <trkpt lat="44.17723" lon="5.27154">
        <ele>1648.4</ele>
        <time>2022-07-21T07:30:47Z</time>
      </trkpt>
      <trkpt lat="44.17723" lon="5.27156">
        <ele>1648.5</ele>
        <time>2022-07-21T07:30:48Z</time>
      </trkpt>
      <trkpt lat="44.17723" lon="5.27159">
        <ele>1648.7</ele>
        <time>2022-07-21T07:30:49Z</time>
      </trkpt>
      <trkpt lat="44.17722" lon="5.27161">
        <ele>1648.8</ele>
        <time>2022-07-21T07:30:50Z</time>
      </trkpt>
      <trkpt lat="44.17721" lon="5.27162">
        <ele>1649</ele>
        <time>2022-07-21T07:30:51Z</time>
      </trkpt>
      <trkpt lat="44.1772" lon="5.27164">
        <ele>1649.1</ele>
        <time>2022-07-21T07:30:52Z</time>
      </trkpt>
      <trkpt lat="44.17719" lon="5.27166">
        <ele>1649.3</ele>
        <time>2022-07-21T07:30:53Z</time>
      </trkpt>
      <trkpt lat="44.17718" lon="5.27168">
        <ele>1649.5</ele>
        <time>2022-07-21T07:30:54Z</time>
      </trkpt>
      <trkpt lat="44.17717" lon="5.27172">
        <ele>1649.8</ele>
        <time>2022-07-21T07:30:55Z</time>
      </trkpt>
      <trkpt lat="44.17717" lon="5.27173">
        <ele>1649.8</ele>
        <time>2022-07-21T07:30:56Z</time>
      </trkpt>
      <trkpt lat="44.17717" lon="5.27177">
        <ele>1650.1</ele>
        <time>2022-07-21T07:30:57Z</time>
      </trkpt>
      <trkpt lat="44.17717" lon="5.27179">
        <ele>1650.2</ele>
        <time>2022-07-21T07:30:58Z</time>
      </trkpt>
      <trkpt lat="44.17718" lon="5.27183">
        <ele>1650.5</ele>
        <time>2022-07-21T07:30:59Z</time>
      </trkpt>
      <trkpt lat="44.17718" lon="5.27185">
        <ele>1650.6</ele>
        <time>2022-07-21T07:31:00Z</time>
      </trkpt>
      <trkpt lat="44.17719" lon="5.27189">
        <ele>1651</ele>
        <time>2022-07-21T07:31:01Z</time>
      </trkpt>
      <trkpt lat="44.17719" lon="5.2719">
        <ele>1651.1</ele>
        <time>2022-07-21T07:31:02Z</time>
      </trkpt>
      <trkpt lat="44.17719" lon="5.27194">
        <ele>1651.3</ele>
        <time>2022-07-21T07:31:03Z</time>
      </trkpt>
      <trkpt lat="44.17719" lon="5.27195">
        <ele>1651.4</ele>
        <time>2022-07-21T07:31:04Z</time>
      </trkpt>
      <trkpt lat="44.17719" lon="5.272">
        <ele>1651.8</ele>
        <time>2022-07-21T07:31:05Z</time>
      </trkpt>
      <trkpt lat="44.17719" lon="5.27201">
        <ele>1651.9</ele>
        <time>2022-07-21T07:31:06Z</time>
      </trkpt>
      <trkpt lat="44.17719" lon="5.27205">
        <ele>1652.2</ele>
        <time>2022-07-21T07:31:07Z</time>
      </trkpt>
      <trkpt lat="44.17719" lon="5.27206">
        <ele>1652.3</ele>
        <time>2022-07-21T07:31:08Z</time>
      </trkpt>
      <trkpt lat="44.17719" lon="5.27208">
        <ele>1652.5</ele>
        <time>2022-07-21T07:31:09Z</time>
      </trkpt>
      <trkpt lat="44.17718" lon="5.2721">
        <ele>1652.6</ele>
        <time>2022-07-21T07:31:10Z</time>
      </trkpt>
      <trkpt lat="44.17717" lon="5.27212">
        <ele>1652.8</ele>
        <time>2022-07-21T07:31:11Z</time>
      </trkpt>
      <trkpt lat="44.17717" lon="5.27215">
        <ele>1653</ele>
        <time>2022-07-21T07:31:12Z</time>
      </trkpt>
      <trkpt lat="44.17716" lon="5.27217">
        <ele>1653.2</ele>
        <time>2022-07-21T07:31:13Z</time>
      </trkpt>
      <trkpt lat="44.17716" lon="5.27219">
        <ele>1653.4</ele>
        <time>2022-07-21T07:31:14Z</time>
      </trkpt>
      <trkpt lat="44.17715" lon="5.27221">
        <ele>1653.6</ele>
        <time>2022-07-21T07:31:15Z</time>
      </trkpt>
      <trkpt lat="44.17715" lon="5.27223">
        <ele>1653.8</ele>
        <time>2022-07-21T07:31:16Z</time>
      </trkpt>
      <trkpt lat="44.17715" lon="5.27226">
        <ele>1654.1</ele>
        <time>2022-07-21T07:31:17Z</time>
      </trkpt>
      <trkpt lat="44.17715" lon="5.27228">
        <ele>1654.2</ele>
        <time>2022-07-21T07:31:18Z</time>
      </trkpt>
      <trkpt lat="44.17714" lon="5.2723">
        <ele>1654.4</ele>
        <time>2022-07-21T07:31:19Z</time>
      </trkpt>
      <trkpt lat="44.17714" lon="5.27232">
        <ele>1654.7</ele>
        <time>2022-07-21T07:31:20Z</time>
      </trkpt>
      <trkpt lat="44.17713" lon="5.27235">
        <ele>1654.9</ele>
        <time>2022-07-21T07:31:21Z</time>
      </trkpt>
      <trkpt lat="44.17712" lon="5.27236">
        <ele>1655</ele>
        <time>2022-07-21T07:31:22Z</time>
      </trkpt>
      <trkpt lat="44.17712" lon="5.27236">
        <ele>1655.1</ele>
        <time>2022-07-21T07:31:23Z</time>
      </trkpt>
      <trkpt lat="44.17711" lon="5.27239">
        <ele>1655.4</ele>
        <time>2022-07-21T07:31:24Z</time>
      </trkpt>
      <trkpt lat="44.1771" lon="5.2724">
        <ele>1655.5</ele>
        <time>2022-07-21T07:31:25Z</time>
      </trkpt>
      <trkpt lat="44.1771" lon="5.27241">
        <ele>1655.7</ele>
        <time>2022-07-21T07:31:26Z</time>
      </trkpt>
      <trkpt lat="44.17709" lon="5.27243">
        <ele>1655.8</ele>
        <time>2022-07-21T07:31:27Z</time>
      </trkpt>
      <trkpt lat="44.17709" lon="5.27245">
        <ele>1656</ele>
        <time>2022-07-21T07:31:28Z</time>
      </trkpt>
      <trkpt lat="44.17708" lon="5.27247">
        <ele>1656.2</ele>
        <time>2022-07-21T07:31:29Z</time>
      </trkpt>
      <trkpt lat="44.17707" lon="5.27249">
        <ele>1656.4</ele>
        <time>2022-07-21T07:31:30Z</time>
      </trkpt>
      <trkpt lat="44.17706" lon="5.27251">
        <ele>1656.6</ele>
        <time>2022-07-21T07:31:31Z</time>
      </trkpt>
      <trkpt lat="44.17705" lon="5.27252">
        <ele>1656.8</ele>
        <time>2022-07-21T07:31:32Z</time>
      </trkpt>
      <trkpt lat="44.17704" lon="5.27255">
        <ele>1657</ele>
        <time>2022-07-21T07:31:33Z</time>
      </trkpt>
      <trkpt lat="44.17704" lon="5.27255">
        <ele>1657.1</ele>
        <time>2022-07-21T07:31:34Z</time>
      </trkpt>
      <trkpt lat="44.17703" lon="5.27256">
        <ele>1657.2</ele>
        <time>2022-07-21T07:31:35Z</time>
      </trkpt>
      <trkpt lat="44.17702" lon="5.27258">
        <ele>1657.4</ele>
        <time>2022-07-21T07:31:36Z</time>
      </trkpt>
      <trkpt lat="44.17701" lon="5.27259">
        <ele>1657.5</ele>
        <time>2022-07-21T07:31:37Z</time>
      </trkpt>
      <trkpt lat="44.17699" lon="5.27261">
        <ele>1657.7</ele>
        <time>2022-07-21T07:31:38Z</time>
      </trkpt>
      <trkpt lat="44.17699" lon="5.27262">
        <ele>1657.8</ele>
        <time>2022-07-21T07:31:39Z</time>
      </trkpt>
      <trkpt lat="44.17698" lon="5.27262">
        <ele>1657.9</ele>
        <time>2022-07-21T07:31:40Z</time>
      </trkpt>
      <trkpt lat="44.17697" lon="5.27263">
        <ele>1658</ele>
        <time>2022-07-21T07:31:41Z</time>
      </trkpt>
      <trkpt lat="44.17696" lon="5.27264">
        <ele>1658.1</ele>
        <time>2022-07-21T07:31:42Z</time>
      </trkpt>
      <trkpt lat="44.17695" lon="5.27265">
        <ele>1658.1</ele>
        <time>2022-07-21T07:31:43Z</time>
      </trkpt>
      <trkpt lat="44.17695" lon="5.27265">
        <ele>1658.2</ele>
        <time>2022-07-21T07:31:44Z</time>
      </trkpt>
      <trkpt lat="44.17693" lon="5.27266">
        <ele>1658.4</ele>
        <time>2022-07-21T07:31:45Z</time>
      </trkpt>
      <trkpt lat="44.17692" lon="5.27267">
        <ele>1658.4</ele>
        <time>2022-07-21T07:31:46Z</time>
      </trkpt>
      <trkpt lat="44.17691" lon="5.27267">
        <ele>1658.5</ele>
        <time>2022-07-21T07:31:47Z</time>
      </trkpt>
      <trkpt lat="44.1769" lon="5.27268">
        <ele>1658.6</ele>
        <time>2022-07-21T07:31:48Z</time>
      </trkpt>
      <trkpt lat="44.17689" lon="5.27268">
        <ele>1658.7</ele>
        <time>2022-07-21T07:31:49Z</time>
      </trkpt>
      <trkpt lat="44.17689" lon="5.27269">
        <ele>1658.7</ele>
        <time>2022-07-21T07:31:50Z</time>
      </trkpt>
      <trkpt lat="44.17688" lon="5.27269">
        <ele>1658.8</ele>
        <time>2022-07-21T07:31:51Z</time>
      </trkpt>
      <trkpt lat="44.17687" lon="5.2727">
        <ele>1658.8</ele>
        <time>2022-07-21T07:31:52Z</time>
      </trkpt>
      <trkpt lat="44.17686" lon="5.27271">
        <ele>1658.9</ele>
        <time>2022-07-21T07:31:53Z</time>
      </trkpt>
      <trkpt lat="44.17683" lon="5.27272">
        <ele>1659.1</ele>
        <time>2022-07-21T07:31:54Z</time>
      </trkpt>
      <trkpt lat="44.17682" lon="5.27273">
        <ele>1659.1</ele>
        <time>2022-07-21T07:31:55Z</time>
      </trkpt>
      <trkpt lat="44.1768" lon="5.27273">
        <ele>1659.2</ele>
        <time>2022-07-21T07:31:56Z</time>
      </trkpt>
      <trkpt lat="44.17679" lon="5.27274">
        <ele>1659.3</ele>
        <time>2022-07-21T07:31:57Z</time>
      </trkpt>
      <trkpt lat="44.17678" lon="5.27275">
        <ele>1659.3</ele>
        <time>2022-07-21T07:31:58Z</time>
      </trkpt>
      <trkpt lat="44.17677" lon="5.27276">
        <ele>1659.4</ele>
        <time>2022-07-21T07:31:59Z</time>
      </trkpt>
      <trkpt lat="44.17675" lon="5.27277">
        <ele>1659.4</ele>
        <time>2022-07-21T07:32:00Z</time>
      </trkpt>
      <trkpt lat="44.17674" lon="5.27278">
        <ele>1659.5</ele>
        <time>2022-07-21T07:32:01Z</time>
      </trkpt>
      <trkpt lat="44.17674" lon="5.27278">
        <ele>1659.5</ele>
        <time>2022-07-21T07:32:02Z</time>
      </trkpt>
      <trkpt lat="44.17673" lon="5.27279">
        <ele>1659.5</ele>
        <time>2022-07-21T07:32:03Z</time>
      </trkpt>
      <trkpt lat="44.17671" lon="5.2728">
        <ele>1659.6</ele>
        <time>2022-07-21T07:32:04Z</time>
      </trkpt>
      <trkpt lat="44.1767" lon="5.27281">
        <ele>1659.6</ele>
        <time>2022-07-21T07:32:05Z</time>
      </trkpt>
      <trkpt lat="44.17669" lon="5.27282">
        <ele>1659.7</ele>
        <time>2022-07-21T07:32:06Z</time>
      </trkpt>
      <trkpt lat="44.17666" lon="5.27284">
        <ele>1659.8</ele>
        <time>2022-07-21T07:32:07Z</time>
      </trkpt>
      <trkpt lat="44.17666" lon="5.27285">
        <ele>1659.8</ele>
        <time>2022-07-21T07:32:08Z</time>
      </trkpt>
      <trkpt lat="44.17665" lon="5.27287">
        <ele>1659.9</ele>
        <time>2022-07-21T07:32:09Z</time>
      </trkpt>
      <trkpt lat="44.17664" lon="5.27289">
        <ele>1659.9</ele>
        <time>2022-07-21T07:32:10Z</time>
      </trkpt>
      <trkpt lat="44.17663" lon="5.2729">
        <ele>1660</ele>
        <time>2022-07-21T07:32:11Z</time>
      </trkpt>
      <trkpt lat="44.17663" lon="5.27292">
        <ele>1660</ele>
        <time>2022-07-21T07:32:12Z</time>
      </trkpt>
      <trkpt lat="44.17662" lon="5.27293">
        <ele>1660</ele>
        <time>2022-07-21T07:32:13Z</time>
      </trkpt>
      <trkpt lat="44.17661" lon="5.27296">
        <ele>1660.1</ele>
        <time>2022-07-21T07:32:14Z</time>
      </trkpt>
      <trkpt lat="44.1766" lon="5.27297">
        <ele>1660.2</ele>
        <time>2022-07-21T07:32:15Z</time>
      </trkpt>
      <trkpt lat="44.17659" lon="5.27299">
        <ele>1660.2</ele>
        <time>2022-07-21T07:32:16Z</time>
      </trkpt>
      <trkpt lat="44.17658" lon="5.27301">
        <ele>1660.3</ele>
        <time>2022-07-21T07:32:17Z</time>
      </trkpt>
      <trkpt lat="44.17657" lon="5.27302">
        <ele>1660.4</ele>
        <time>2022-07-21T07:32:18Z</time>
      </trkpt>
      <trkpt lat="44.17656" lon="5.27304">
        <ele>1660.5</ele>
        <time>2022-07-21T07:32:19Z</time>
      </trkpt>
      <trkpt lat="44.17654" lon="5.27307">
        <ele>1660.6</ele>
        <time>2022-07-21T07:32:20Z</time>
      </trkpt>
      <trkpt lat="44.17653" lon="5.27308">
        <ele>1660.6</ele>
        <time>2022-07-21T07:32:21Z</time>
      </trkpt>
      <trkpt lat="44.17652" lon="5.2731">
        <ele>1660.7</ele>
        <time>2022-07-21T07:32:22Z</time>
      </trkpt>
      <trkpt lat="44.1765" lon="5.27311">
        <ele>1660.8</ele>
        <time>2022-07-21T07:32:23Z</time>
      </trkpt>
      <trkpt lat="44.17649" lon="5.27313">
        <ele>1660.9</ele>
        <time>2022-07-21T07:32:24Z</time>
      </trkpt>
      <trkpt lat="44.17649" lon="5.27314">
        <ele>1661</ele>
        <time>2022-07-21T07:32:25Z</time>
      </trkpt>
      <trkpt lat="44.17648" lon="5.27315">
        <ele>1661.1</ele>
        <time>2022-07-21T07:32:26Z</time>
      </trkpt>
      <trkpt lat="44.17647" lon="5.27317">
        <ele>1661.2</ele>
        <time>2022-07-21T07:32:27Z</time>
      </trkpt>
      <trkpt lat="44.17645" lon="5.27318">
        <ele>1661.3</ele>
        <time>2022-07-21T07:32:28Z</time>
      </trkpt>
      <trkpt lat="44.17644" lon="5.27319">
        <ele>1661.4</ele>
        <time>2022-07-21T07:32:29Z</time>
      </trkpt>
      <trkpt lat="44.17642" lon="5.2732">
        <ele>1661.5</ele>
        <time>2022-07-21T07:32:30Z</time>
      </trkpt>
      <trkpt lat="44.1764" lon="5.27322">
        <ele>1661.7</ele>
        <time>2022-07-21T07:32:31Z</time>
      </trkpt>
      <trkpt lat="44.1764" lon="5.27323">
        <ele>1661.8</ele>
        <time>2022-07-21T07:32:32Z</time>
      </trkpt>
      <trkpt lat="44.17639" lon="5.27324">
        <ele>1661.8</ele>
        <time>2022-07-21T07:32:33Z</time>
      </trkpt>
      <trkpt lat="44.17638" lon="5.27325">
        <ele>1661.9</ele>
        <time>2022-07-21T07:32:34Z</time>
      </trkpt>
      <trkpt lat="44.17637" lon="5.27327">
        <ele>1662.1</ele>
        <time>2022-07-21T07:32:35Z</time>
      </trkpt>
      <trkpt lat="44.17636" lon="5.27329">
        <ele>1662.3</ele>
        <time>2022-07-21T07:32:36Z</time>
      </trkpt>
      <trkpt lat="44.17635" lon="5.2733">
        <ele>1662.4</ele>
        <time>2022-07-21T07:32:37Z</time>
      </trkpt>
      <trkpt lat="44.17634" lon="5.27332">
        <ele>1662.5</ele>
        <time>2022-07-21T07:32:38Z</time>
      </trkpt>
      <trkpt lat="44.17632" lon="5.27335">
        <ele>1662.8</ele>
        <time>2022-07-21T07:32:39Z</time>
      </trkpt>
      <trkpt lat="44.17631" lon="5.27336">
        <ele>1662.9</ele>
        <time>2022-07-21T07:32:40Z</time>
      </trkpt>
      <trkpt lat="44.17629" lon="5.27339">
        <ele>1663.2</ele>
        <time>2022-07-21T07:32:41Z</time>
      </trkpt>
      <trkpt lat="44.17628" lon="5.2734">
        <ele>1663.3</ele>
        <time>2022-07-21T07:32:42Z</time>
      </trkpt>
      <trkpt lat="44.17625" lon="5.27342">
        <ele>1663.6</ele>
        <time>2022-07-21T07:32:43Z</time>
      </trkpt>
      <trkpt lat="44.17624" lon="5.27343">
        <ele>1663.7</ele>
        <time>2022-07-21T07:32:44Z</time>
      </trkpt>
      <trkpt lat="44.17622" lon="5.27346">
        <ele>1664</ele>
        <time>2022-07-21T07:32:45Z</time>
      </trkpt>
      <trkpt lat="44.17621" lon="5.27347">
        <ele>1664.1</ele>
        <time>2022-07-21T07:32:46Z</time>
      </trkpt>
      <trkpt lat="44.17621" lon="5.27349">
        <ele>1664.2</ele>
        <time>2022-07-21T07:32:47Z</time>
      </trkpt>
      <trkpt lat="44.1762" lon="5.27351">
        <ele>1664.4</ele>
        <time>2022-07-21T07:32:48Z</time>
      </trkpt>
      <trkpt lat="44.17619" lon="5.27353">
        <ele>1664.6</ele>
        <time>2022-07-21T07:32:49Z</time>
      </trkpt>
      <trkpt lat="44.17619" lon="5.27355">
        <ele>1664.8</ele>
        <time>2022-07-21T07:32:50Z</time>
      </trkpt>
      <trkpt lat="44.17619" lon="5.27358">
        <ele>1665</ele>
        <time>2022-07-21T07:32:51Z</time>
      </trkpt>
      <trkpt lat="44.17618" lon="5.2736">
        <ele>1665.2</ele>
        <time>2022-07-21T07:32:52Z</time>
      </trkpt>
      <trkpt lat="44.17618" lon="5.27362">
        <ele>1665.3</ele>
        <time>2022-07-21T07:32:53Z</time>
      </trkpt>
      <trkpt lat="44.17617" lon="5.27364">
        <ele>1665.5</ele>
        <time>2022-07-21T07:32:54Z</time>
      </trkpt>
      <trkpt lat="44.17616" lon="5.27366">
        <ele>1665.7</ele>
        <time>2022-07-21T07:32:55Z</time>
      </trkpt>
      <trkpt lat="44.17616" lon="5.27367">
        <ele>1665.8</ele>
        <time>2022-07-21T07:32:56Z</time>
      </trkpt>
      <trkpt lat="44.17615" lon="5.27369">
        <ele>1666</ele>
        <time>2022-07-21T07:32:57Z</time>
      </trkpt>
      <trkpt lat="44.17615" lon="5.27372">
        <ele>1666.2</ele>
        <time>2022-07-21T07:32:58Z</time>
      </trkpt>
      <trkpt lat="44.17614" lon="5.27373">
        <ele>1666.4</ele>
        <time>2022-07-21T07:32:59Z</time>
      </trkpt>
      <trkpt lat="44.17614" lon="5.27375">
        <ele>1666.5</ele>
        <time>2022-07-21T07:33:00Z</time>
      </trkpt>
      <trkpt lat="44.17613" lon="5.27376">
        <ele>1666.7</ele>
        <time>2022-07-21T07:33:01Z</time>
      </trkpt>
      <trkpt lat="44.17612" lon="5.27378">
        <ele>1666.9</ele>
        <time>2022-07-21T07:33:02Z</time>
      </trkpt>
      <trkpt lat="44.17611" lon="5.27379">
        <ele>1667</ele>
        <time>2022-07-21T07:33:03Z</time>
      </trkpt>
      <trkpt lat="44.17611" lon="5.2738">
        <ele>1667.1</ele>
        <time>2022-07-21T07:33:04Z</time>
      </trkpt>
      <trkpt lat="44.1761" lon="5.27382">
        <ele>1667.4</ele>
        <time>2022-07-21T07:33:05Z</time>
      </trkpt>
      <trkpt lat="44.17608" lon="5.27384">
        <ele>1667.6</ele>
        <time>2022-07-21T07:33:06Z</time>
      </trkpt>
      <trkpt lat="44.17608" lon="5.27385">
        <ele>1667.8</ele>
        <time>2022-07-21T07:33:07Z</time>
      </trkpt>
      <trkpt lat="44.17607" lon="5.27387">
        <ele>1668</ele>
        <time>2022-07-21T07:33:08Z</time>
      </trkpt>
      <trkpt lat="44.17606" lon="5.27389">
        <ele>1668.2</ele>
        <time>2022-07-21T07:33:09Z</time>
      </trkpt>
      <trkpt lat="44.17606" lon="5.27391">
        <ele>1668.4</ele>
        <time>2022-07-21T07:33:10Z</time>
      </trkpt>
      <trkpt lat="44.17606" lon="5.27393">
        <ele>1668.6</ele>
        <time>2022-07-21T07:33:11Z</time>
      </trkpt>
      <trkpt lat="44.17606" lon="5.27396">
        <ele>1668.9</ele>
        <time>2022-07-21T07:33:12Z</time>
      </trkpt>
      <trkpt lat="44.17606" lon="5.27398">
        <ele>1669.1</ele>
        <time>2022-07-21T07:33:13Z</time>
      </trkpt>
      <trkpt lat="44.17606" lon="5.274">
        <ele>1669.3</ele>
        <time>2022-07-21T07:33:14Z</time>
      </trkpt>
      <trkpt lat="44.17605" lon="5.27403">
        <ele>1669.6</ele>
        <time>2022-07-21T07:33:15Z</time>
      </trkpt>
      <trkpt lat="44.17605" lon="5.27404">
        <ele>1669.7</ele>
        <time>2022-07-21T07:33:16Z</time>
      </trkpt>
      <trkpt lat="44.17605" lon="5.27405">
        <ele>1669.8</ele>
        <time>2022-07-21T07:33:17Z</time>
      </trkpt>
      <trkpt lat="44.17605" lon="5.27408">
        <ele>1670.2</ele>
        <time>2022-07-21T07:33:18Z</time>
      </trkpt>
      <trkpt lat="44.17605" lon="5.2741">
        <ele>1670.3</ele>
        <time>2022-07-21T07:33:19Z</time>
      </trkpt>
      <trkpt lat="44.17605" lon="5.27411">
        <ele>1670.4</ele>
        <time>2022-07-21T07:33:20Z</time>
      </trkpt>
      <trkpt lat="44.17606" lon="5.27415">
        <ele>1670.8</ele>
        <time>2022-07-21T07:33:21Z</time>
      </trkpt>
      <trkpt lat="44.17606" lon="5.27416">
        <ele>1670.9</ele>
        <time>2022-07-21T07:33:22Z</time>
      </trkpt>
      <trkpt lat="44.17607" lon="5.2742">
        <ele>1671.4</ele>
        <time>2022-07-21T07:33:23Z</time>
      </trkpt>
      <trkpt lat="44.17608" lon="5.27422">
        <ele>1671.5</ele>
        <time>2022-07-21T07:33:24Z</time>
      </trkpt>
      <trkpt lat="44.17609" lon="5.27426">
        <ele>1672</ele>
        <time>2022-07-21T07:33:25Z</time>
      </trkpt>
      <trkpt lat="44.1761" lon="5.27427">
        <ele>1672.1</ele>
        <time>2022-07-21T07:33:26Z</time>
      </trkpt>
      <trkpt lat="44.1761" lon="5.27429">
        <ele>1672.3</ele>
        <time>2022-07-21T07:33:27Z</time>
      </trkpt>
      <trkpt lat="44.1761" lon="5.27429">
        <ele>1672.3</ele>
        <time>2022-07-21T07:33:28Z</time>
      </trkpt>
      <trkpt lat="44.1761" lon="5.27429">
        <ele>1672.3</ele>
        <time>2022-07-21T07:33:29Z</time>
      </trkpt>
      <trkpt lat="44.1761" lon="5.27429">
        <ele>1672.3</ele>
        <time>2022-07-21T07:33:30Z</time>
      </trkpt>
      <trkpt lat="44.1761" lon="5.27429">
        <ele>1672.3</ele>
        <time>2022-07-21T07:33:31Z</time>
      </trkpt>
      <trkpt lat="44.1761" lon="5.27431">
        <ele>1672.5</ele>
        <time>2022-07-21T07:33:32Z</time>
      </trkpt>
      <trkpt lat="44.17611" lon="5.27433">
        <ele>1672.7</ele>
        <time>2022-07-21T07:33:33Z</time>
      </trkpt>
      <trkpt lat="44.17612" lon="5.27435">
        <ele>1672.9</ele>
        <time>2022-07-21T07:33:34Z</time>
      </trkpt>
      <trkpt lat="44.17613" lon="5.27437">
        <ele>1673.1</ele>
        <time>2022-07-21T07:33:35Z</time>
      </trkpt>
      <trkpt lat="44.17614" lon="5.27437">
        <ele>1673.2</ele>
        <time>2022-07-21T07:33:36Z</time>
      </trkpt>
      <trkpt lat="44.17616" lon="5.27438">
        <ele>1673.4</ele>
        <time>2022-07-21T07:33:37Z</time>
      </trkpt>
      <trkpt lat="44.17616" lon="5.27439">
        <ele>1673.4</ele>
        <time>2022-07-21T07:33:38Z</time>
      </trkpt>
      <trkpt lat="44.17615" lon="5.27439">
        <ele>1673.5</ele>
        <time>2022-07-21T07:33:39Z</time>
      </trkpt>
      <trkpt lat="44.17614" lon="5.27438">
        <ele>1673.6</ele>
        <time>2022-07-21T07:33:40Z</time>
      </trkpt>
      <trkpt lat="44.17613" lon="5.27437">
        <ele>1673.7</ele>
        <time>2022-07-21T07:33:41Z</time>
      </trkpt>
      <trkpt lat="44.17613" lon="5.27435">
        <ele>1673.8</ele>
        <time>2022-07-21T07:33:42Z</time>
      </trkpt>
      <trkpt lat="44.17613" lon="5.27434">
        <ele>1673.9</ele>
        <time>2022-07-21T07:33:43Z</time>
      </trkpt>
      <trkpt lat="44.17615" lon="5.27435">
        <ele>1674</ele>
        <time>2022-07-21T07:33:44Z</time>
      </trkpt>
      <trkpt lat="44.17617" lon="5.27435">
        <ele>1674.1</ele>
        <time>2022-07-21T07:33:45Z</time>
      </trkpt>
      <trkpt lat="44.17619" lon="5.27437">
        <ele>1674.4</ele>
        <time>2022-07-21T07:33:46Z</time>
      </trkpt>
      <trkpt lat="44.1762" lon="5.27438">
        <ele>1674.4</ele>
        <time>2022-07-21T07:33:47Z</time>
      </trkpt>
      <trkpt lat="44.17623" lon="5.2744">
        <ele>1674.6</ele>
        <time>2022-07-21T07:33:48Z</time>
      </trkpt>
      <trkpt lat="44.17626" lon="5.27442">
        <ele>1674.8</ele>
        <time>2022-07-21T07:33:49Z</time>
      </trkpt>
      <trkpt lat="44.17628" lon="5.27444">
        <ele>1674.9</ele>
        <time>2022-07-21T07:33:50Z</time>
      </trkpt>
      <trkpt lat="44.17631" lon="5.27446">
        <ele>1675.1</ele>
        <time>2022-07-21T07:33:51Z</time>
      </trkpt>
      <trkpt lat="44.17631" lon="5.27446">
        <ele>1675.1</ele>
        <time>2022-07-21T07:33:52Z</time>
      </trkpt>
      <trkpt lat="44.17633" lon="5.27447">
        <ele>1675.2</ele>
        <time>2022-07-21T07:33:53Z</time>
      </trkpt>
      <trkpt lat="44.17634" lon="5.27448">
        <ele>1675.2</ele>
        <time>2022-07-21T07:33:54Z</time>
      </trkpt>
      <trkpt lat="44.17635" lon="5.27449">
        <ele>1675.3</ele>
        <time>2022-07-21T07:33:55Z</time>
      </trkpt>
      <trkpt lat="44.17637" lon="5.2745">
        <ele>1675.4</ele>
        <time>2022-07-21T07:33:56Z</time>
      </trkpt>
      <trkpt lat="44.17638" lon="5.27451">
        <ele>1675.4</ele>
        <time>2022-07-21T07:33:57Z</time>
      </trkpt>
      <trkpt lat="44.17639" lon="5.27452">
        <ele>1675.5</ele>
        <time>2022-07-21T07:33:58Z</time>
      </trkpt>
      <trkpt lat="44.1764" lon="5.27453">
        <ele>1675.5</ele>
        <time>2022-07-21T07:33:59Z</time>
      </trkpt>
      <trkpt lat="44.17641" lon="5.27454">
        <ele>1675.6</ele>
        <time>2022-07-21T07:34:00Z</time>
      </trkpt>
      <trkpt lat="44.17642" lon="5.27455">
        <ele>1675.6</ele>
        <time>2022-07-21T07:34:01Z</time>
      </trkpt>
      <trkpt lat="44.17643" lon="5.27455">
        <ele>1675.7</ele>
        <time>2022-07-21T07:34:02Z</time>
      </trkpt>
      <trkpt lat="44.17644" lon="5.27455">
        <ele>1675.7</ele>
        <time>2022-07-21T07:34:03Z</time>
      </trkpt>
      <trkpt lat="44.17645" lon="5.27455">
        <ele>1675.7</ele>
        <time>2022-07-21T07:34:04Z</time>
      </trkpt>
      <trkpt lat="44.17646" lon="5.27454">
        <ele>1675.8</ele>
        <time>2022-07-21T07:34:05Z</time>
      </trkpt>
      <trkpt lat="44.17648" lon="5.27455">
        <ele>1675.9</ele>
        <time>2022-07-21T07:34:06Z</time>
      </trkpt>
      <trkpt lat="44.17649" lon="5.27456">
        <ele>1675.9</ele>
        <time>2022-07-21T07:34:07Z</time>
      </trkpt>
      <trkpt lat="44.17649" lon="5.27456">
        <ele>1675.9</ele>
        <time>2022-07-21T07:34:08Z</time>
      </trkpt>
      <trkpt lat="44.1765" lon="5.27456">
        <ele>1676</ele>
        <time>2022-07-21T07:34:09Z</time>
      </trkpt>
      <trkpt lat="44.17651" lon="5.27456">
        <ele>1676</ele>
        <time>2022-07-21T07:34:10Z</time>
      </trkpt>
      <trkpt lat="44.17652" lon="5.27456">
        <ele>1676.1</ele>
        <time>2022-07-21T07:34:11Z</time>
      </trkpt>
      <trkpt lat="44.17655" lon="5.27459">
        <ele>1676.2</ele>
        <time>2022-07-21T07:34:12Z</time>
      </trkpt>
      <trkpt lat="44.17658" lon="5.27462">
        <ele>1676.4</ele>
        <time>2022-07-21T07:34:13Z</time>
      </trkpt>
      <trkpt lat="44.1766" lon="5.27465">
        <ele>1676.5</ele>
        <time>2022-07-21T07:34:14Z</time>
      </trkpt>
      <trkpt lat="44.17663" lon="5.27468">
        <ele>1676.7</ele>
        <time>2022-07-21T07:34:15Z</time>
      </trkpt>
      <trkpt lat="44.17663" lon="5.27469">
        <ele>1676.8</ele>
        <time>2022-07-21T07:34:16Z</time>
      </trkpt>
      <trkpt lat="44.17666" lon="5.27472">
        <ele>1676.9</ele>
        <time>2022-07-21T07:34:17Z</time>
      </trkpt>
      <trkpt lat="44.17667" lon="5.27473">
        <ele>1677</ele>
        <time>2022-07-21T07:34:18Z</time>
      </trkpt>
      <trkpt lat="44.1767" lon="5.27474">
        <ele>1677.4</ele>
        <time>2022-07-21T07:34:19Z</time>
      </trkpt>
      <trkpt lat="44.17671" lon="5.27474">
        <ele>1677.5</ele>
        <time>2022-07-21T07:34:20Z</time>
      </trkpt>
      <trkpt lat="44.17672" lon="5.27474">
        <ele>1677.6</ele>
        <time>2022-07-21T07:34:21Z</time>
      </trkpt>
      <trkpt lat="44.17672" lon="5.27474">
        <ele>1677.6</ele>
        <time>2022-07-21T07:34:22Z</time>
      </trkpt>
      <trkpt lat="44.17672" lon="5.27474">
        <ele>1677.6</ele>
        <time>2022-07-21T07:34:23Z</time>
      </trkpt>
      <trkpt lat="44.17672" lon="5.27474">
        <ele>1677.6</ele>
        <time>2022-07-21T07:34:24Z</time>
      </trkpt>
      <trkpt lat="44.17672" lon="5.27474">
        <ele>1677.6</ele>
        <time>2022-07-21T07:34:25Z</time>
      </trkpt>
      <trkpt lat="44.17672" lon="5.27474">
        <ele>1677.6</ele>
        <time>2022-07-21T07:34:26Z</time>
      </trkpt>
      <trkpt lat="44.17672" lon="5.27474">
        <ele>1677.6</ele>
        <time>2022-07-21T07:34:27Z</time>
      </trkpt>
      <trkpt lat="44.17671" lon="5.27471">
        <ele>1677.8</ele>
        <time>2022-07-21T07:34:28Z</time>
      </trkpt>
      <trkpt lat="44.17672" lon="5.27472">
        <ele>1677.8</ele>
        <time>2022-07-21T07:34:29Z</time>
      </trkpt>
      <trkpt lat="44.17672" lon="5.27473">
        <ele>1677.9</ele>
        <time>2022-07-21T07:34:30Z</time>
      </trkpt>
      <trkpt lat="44.17674" lon="5.27474">
        <ele>1678.1</ele>
        <time>2022-07-21T07:34:31Z</time>
      </trkpt>
      <trkpt lat="44.17677" lon="5.27476">
        <ele>1678.4</ele>
        <time>2022-07-21T07:34:32Z</time>
      </trkpt>
      <trkpt lat="44.1768" lon="5.27479">
        <ele>1678.7</ele>
        <time>2022-07-21T07:34:33Z</time>
      </trkpt>
      <trkpt lat="44.17681" lon="5.2748">
        <ele>1678.8</ele>
        <time>2022-07-21T07:34:34Z</time>
      </trkpt>
      <trkpt lat="44.17682" lon="5.2748">
        <ele>1679</ele>
        <time>2022-07-21T07:34:35Z</time>
      </trkpt>
      <trkpt lat="44.17683" lon="5.27481">
        <ele>1679.1</ele>
        <time>2022-07-21T07:34:36Z</time>
      </trkpt>
      <trkpt lat="44.17685" lon="5.27482">
        <ele>1679.3</ele>
        <time>2022-07-21T07:34:37Z</time>
      </trkpt>
      <trkpt lat="44.17686" lon="5.27484">
        <ele>1679.4</ele>
        <time>2022-07-21T07:34:38Z</time>
      </trkpt>
      <trkpt lat="44.17688" lon="5.27487">
        <ele>1679.8</ele>
        <time>2022-07-21T07:34:39Z</time>
      </trkpt>
      <trkpt lat="44.17689" lon="5.27488">
        <ele>1679.9</ele>
        <time>2022-07-21T07:34:40Z</time>
      </trkpt>
      <trkpt lat="44.1769" lon="5.2749">
        <ele>1680</ele>
        <time>2022-07-21T07:34:41Z</time>
      </trkpt>
      <trkpt lat="44.17691" lon="5.27491">
        <ele>1680.2</ele>
        <time>2022-07-21T07:34:42Z</time>
      </trkpt>
      <trkpt lat="44.17693" lon="5.27494">
        <ele>1680.5</ele>
        <time>2022-07-21T07:34:43Z</time>
      </trkpt>
      <trkpt lat="44.17694" lon="5.27495">
        <ele>1680.6</ele>
        <time>2022-07-21T07:34:44Z</time>
      </trkpt>
      <trkpt lat="44.17695" lon="5.27497">
        <ele>1680.8</ele>
        <time>2022-07-21T07:34:45Z</time>
      </trkpt>
      <trkpt lat="44.17696" lon="5.27499">
        <ele>1680.9</ele>
        <time>2022-07-21T07:34:46Z</time>
      </trkpt>
      <trkpt lat="44.17697" lon="5.27501">
        <ele>1681.1</ele>
        <time>2022-07-21T07:34:47Z</time>
      </trkpt>
      <trkpt lat="44.17697" lon="5.27502">
        <ele>1681.2</ele>
        <time>2022-07-21T07:34:48Z</time>
      </trkpt>
      <trkpt lat="44.17698" lon="5.27503">
        <ele>1681.3</ele>
        <time>2022-07-21T07:34:49Z</time>
      </trkpt>
      <trkpt lat="44.17699" lon="5.27504">
        <ele>1681.4</ele>
        <time>2022-07-21T07:34:50Z</time>
      </trkpt>
      <trkpt lat="44.17699" lon="5.27504">
        <ele>1681.4</ele>
        <time>2022-07-21T07:34:51Z</time>
      </trkpt>
      <trkpt lat="44.17699" lon="5.27504">
        <ele>1681.4</ele>
        <time>2022-07-21T07:34:52Z</time>
      </trkpt>
      <trkpt lat="44.177" lon="5.27506">
        <ele>1681.6</ele>
        <time>2022-07-21T07:34:53Z</time>
      </trkpt>
      <trkpt lat="44.17702" lon="5.27508">
        <ele>1681.8</ele>
        <time>2022-07-21T07:34:54Z</time>
      </trkpt>
      <trkpt lat="44.17703" lon="5.27509">
        <ele>1682</ele>
        <time>2022-07-21T07:34:55Z</time>
      </trkpt>
      <trkpt lat="44.17703" lon="5.2751">
        <ele>1682.1</ele>
        <time>2022-07-21T07:34:56Z</time>
      </trkpt>
      <trkpt lat="44.17706" lon="5.27513">
        <ele>1682.4</ele>
        <time>2022-07-21T07:34:57Z</time>
      </trkpt>
      <trkpt lat="44.17706" lon="5.27514">
        <ele>1682.4</ele>
        <time>2022-07-21T07:34:58Z</time>
      </trkpt>
      <trkpt lat="44.17708" lon="5.27517">
        <ele>1682.8</ele>
        <time>2022-07-21T07:34:59Z</time>
      </trkpt>
      <trkpt lat="44.17709" lon="5.27518">
        <ele>1682.9</ele>
        <time>2022-07-21T07:35:00Z</time>
      </trkpt>
      <trkpt lat="44.1771" lon="5.27523">
        <ele>1683.3</ele>
        <time>2022-07-21T07:35:01Z</time>
      </trkpt>
      <trkpt lat="44.1771" lon="5.27525">
        <ele>1683.4</ele>
        <time>2022-07-21T07:35:02Z</time>
      </trkpt>
      <trkpt lat="44.17711" lon="5.27527">
        <ele>1683.5</ele>
        <time>2022-07-21T07:35:03Z</time>
      </trkpt>
      <trkpt lat="44.17711" lon="5.27528">
        <ele>1683.7</ele>
        <time>2022-07-21T07:35:04Z</time>
      </trkpt>
      <trkpt lat="44.17712" lon="5.2753">
        <ele>1683.8</ele>
        <time>2022-07-21T07:35:05Z</time>
      </trkpt>
      <trkpt lat="44.17713" lon="5.27531">
        <ele>1683.9</ele>
        <time>2022-07-21T07:35:06Z</time>
      </trkpt>
      <trkpt lat="44.17715" lon="5.27533">
        <ele>1684.1</ele>
        <time>2022-07-21T07:35:07Z</time>
      </trkpt>
      <trkpt lat="44.17716" lon="5.27534">
        <ele>1684.2</ele>
        <time>2022-07-21T07:35:08Z</time>
      </trkpt>
      <trkpt lat="44.17716" lon="5.27535">
        <ele>1684.3</ele>
        <time>2022-07-21T07:35:09Z</time>
      </trkpt>
      <trkpt lat="44.17718" lon="5.27536">
        <ele>1684.5</ele>
        <time>2022-07-21T07:35:10Z</time>
      </trkpt>
      <trkpt lat="44.17719" lon="5.27537">
        <ele>1684.6</ele>
        <time>2022-07-21T07:35:11Z</time>
      </trkpt>
      <trkpt lat="44.1772" lon="5.27538">
        <ele>1684.7</ele>
        <time>2022-07-21T07:35:12Z</time>
      </trkpt>
      <trkpt lat="44.17721" lon="5.27539">
        <ele>1684.8</ele>
        <time>2022-07-21T07:35:13Z</time>
      </trkpt>
      <trkpt lat="44.17721" lon="5.2754">
        <ele>1684.9</ele>
        <time>2022-07-21T07:35:14Z</time>
      </trkpt>
      <trkpt lat="44.17721" lon="5.2754">
        <ele>1684.9</ele>
        <time>2022-07-21T07:35:15Z</time>
      </trkpt>
      <trkpt lat="44.17721" lon="5.27541">
        <ele>1685</ele>
        <time>2022-07-21T07:35:16Z</time>
      </trkpt>
      <trkpt lat="44.17721" lon="5.27542">
        <ele>1685</ele>
        <time>2022-07-21T07:35:17Z</time>
      </trkpt>
      <trkpt lat="44.17722" lon="5.27542">
        <ele>1685.1</ele>
        <time>2022-07-21T07:35:18Z</time>
      </trkpt>
      <trkpt lat="44.17722" lon="5.27543">
        <ele>1685.2</ele>
        <time>2022-07-21T07:35:19Z</time>
      </trkpt>
      <trkpt lat="44.17723" lon="5.27545">
        <ele>1685.4</ele>
        <time>2022-07-21T07:35:20Z</time>
      </trkpt>
      <trkpt lat="44.17724" lon="5.27546">
        <ele>1685.5</ele>
        <time>2022-07-21T07:35:21Z</time>
      </trkpt>
      <trkpt lat="44.17725" lon="5.27547">
        <ele>1685.6</ele>
        <time>2022-07-21T07:35:22Z</time>
      </trkpt>
      <trkpt lat="44.17727" lon="5.2755">
        <ele>1685.9</ele>
        <time>2022-07-21T07:35:23Z</time>
      </trkpt>
      <trkpt lat="44.17728" lon="5.2755">
        <ele>1686</ele>
        <time>2022-07-21T07:35:24Z</time>
      </trkpt>
      <trkpt lat="44.1773" lon="5.27553">
        <ele>1686.3</ele>
        <time>2022-07-21T07:35:25Z</time>
      </trkpt>
      <trkpt lat="44.17731" lon="5.27554">
        <ele>1686.4</ele>
        <time>2022-07-21T07:35:26Z</time>
      </trkpt>
      <trkpt lat="44.17732" lon="5.27558">
        <ele>1686.7</ele>
        <time>2022-07-21T07:35:27Z</time>
      </trkpt>
      <trkpt lat="44.17732" lon="5.27559">
        <ele>1686.8</ele>
        <time>2022-07-21T07:35:28Z</time>
      </trkpt>
      <trkpt lat="44.17733" lon="5.27563">
        <ele>1687.1</ele>
        <time>2022-07-21T07:35:29Z</time>
      </trkpt>
      <trkpt lat="44.17734" lon="5.27564">
        <ele>1687.2</ele>
        <time>2022-07-21T07:35:30Z</time>
      </trkpt>
      <trkpt lat="44.17735" lon="5.27566">
        <ele>1687.4</ele>
        <time>2022-07-21T07:35:31Z</time>
      </trkpt>
      <trkpt lat="44.17736" lon="5.27568">
        <ele>1687.5</ele>
        <time>2022-07-21T07:35:32Z</time>
      </trkpt>
      <trkpt lat="44.17737" lon="5.2757">
        <ele>1687.7</ele>
        <time>2022-07-21T07:35:33Z</time>
      </trkpt>
      <trkpt lat="44.17738" lon="5.27572">
        <ele>1687.9</ele>
        <time>2022-07-21T07:35:34Z</time>
      </trkpt>
      <trkpt lat="44.17739" lon="5.27574">
        <ele>1688</ele>
        <time>2022-07-21T07:35:35Z</time>
      </trkpt>
      <trkpt lat="44.1774" lon="5.27575">
        <ele>1688.2</ele>
        <time>2022-07-21T07:35:36Z</time>
      </trkpt>
      <trkpt lat="44.17741" lon="5.27578">
        <ele>1688.4</ele>
        <time>2022-07-21T07:35:37Z</time>
      </trkpt>
      <trkpt lat="44.17742" lon="5.27579">
        <ele>1688.5</ele>
        <time>2022-07-21T07:35:38Z</time>
      </trkpt>
      <trkpt lat="44.17742" lon="5.2758">
        <ele>1688.6</ele>
        <time>2022-07-21T07:35:39Z</time>
      </trkpt>
      <trkpt lat="44.17743" lon="5.27582">
        <ele>1688.8</ele>
        <time>2022-07-21T07:35:40Z</time>
      </trkpt>
      <trkpt lat="44.17744" lon="5.27584">
        <ele>1688.9</ele>
        <time>2022-07-21T07:35:41Z</time>
      </trkpt>
      <trkpt lat="44.17745" lon="5.27586">
        <ele>1689.1</ele>
        <time>2022-07-21T07:35:42Z</time>
      </trkpt>
      <trkpt lat="44.17745" lon="5.27587">
        <ele>1689.2</ele>
        <time>2022-07-21T07:35:43Z</time>
      </trkpt>
      <trkpt lat="44.17745" lon="5.27589">
        <ele>1689.4</ele>
        <time>2022-07-21T07:35:44Z</time>
      </trkpt>
      <trkpt lat="44.17745" lon="5.2759">
        <ele>1689.5</ele>
        <time>2022-07-21T07:35:45Z</time>
      </trkpt>
      <trkpt lat="44.17745" lon="5.27592">
        <ele>1689.6</ele>
        <time>2022-07-21T07:35:46Z</time>
      </trkpt>
      <trkpt lat="44.17744" lon="5.27594">
        <ele>1689.7</ele>
        <time>2022-07-21T07:35:47Z</time>
      </trkpt>
      <trkpt lat="44.17744" lon="5.27596">
        <ele>1689.9</ele>
        <time>2022-07-21T07:35:48Z</time>
      </trkpt>
      <trkpt lat="44.17744" lon="5.27598">
        <ele>1690</ele>
        <time>2022-07-21T07:35:49Z</time>
      </trkpt>
      <trkpt lat="44.17744" lon="5.27599">
        <ele>1690.1</ele>
        <time>2022-07-21T07:35:50Z</time>
      </trkpt>
      <trkpt lat="44.17744" lon="5.276">
        <ele>1690.2</ele>
        <time>2022-07-21T07:35:51Z</time>
      </trkpt>
      <trkpt lat="44.17744" lon="5.27602">
        <ele>1690.4</ele>
        <time>2022-07-21T07:35:52Z</time>
      </trkpt>
      <trkpt lat="44.17744" lon="5.27604">
        <ele>1690.5</ele>
        <time>2022-07-21T07:35:53Z</time>
      </trkpt>
      <trkpt lat="44.17744" lon="5.27606">
        <ele>1690.7</ele>
        <time>2022-07-21T07:35:54Z</time>
      </trkpt>
      <trkpt lat="44.17745" lon="5.27608">
        <ele>1690.8</ele>
        <time>2022-07-21T07:35:55Z</time>
      </trkpt>
      <trkpt lat="44.17745" lon="5.27612">
        <ele>1691.1</ele>
        <time>2022-07-21T07:35:56Z</time>
      </trkpt>
      <trkpt lat="44.17745" lon="5.27614">
        <ele>1691.2</ele>
        <time>2022-07-21T07:35:57Z</time>
      </trkpt>
      <trkpt lat="44.17745" lon="5.27616">
        <ele>1691.4</ele>
        <time>2022-07-21T07:35:58Z</time>
      </trkpt>
      <trkpt lat="44.17745" lon="5.27618">
        <ele>1691.5</ele>
        <time>2022-07-21T07:35:59Z</time>
      </trkpt>
      <trkpt lat="44.17745" lon="5.27622">
        <ele>1691.8</ele>
        <time>2022-07-21T07:36:00Z</time>
      </trkpt>
      <trkpt lat="44.17745" lon="5.27623">
        <ele>1692</ele>
        <time>2022-07-21T07:36:01Z</time>
      </trkpt>
      <trkpt lat="44.17745" lon="5.27626">
        <ele>1692.1</ele>
        <time>2022-07-21T07:36:02Z</time>
      </trkpt>
      <trkpt lat="44.17744" lon="5.27628">
        <ele>1692.3</ele>
        <time>2022-07-21T07:36:03Z</time>
      </trkpt>
      <trkpt lat="44.17745" lon="5.2763">
        <ele>1692.4</ele>
        <time>2022-07-21T07:36:04Z</time>
      </trkpt>
      <trkpt lat="44.17745" lon="5.27631">
        <ele>1692.6</ele>
        <time>2022-07-21T07:36:05Z</time>
      </trkpt>
      <trkpt lat="44.17746" lon="5.27633">
        <ele>1692.7</ele>
        <time>2022-07-21T07:36:06Z</time>
      </trkpt>
      <trkpt lat="44.17747" lon="5.27636">
        <ele>1692.9</ele>
        <time>2022-07-21T07:36:07Z</time>
      </trkpt>
      <trkpt lat="44.17749" lon="5.27639">
        <ele>1693.2</ele>
        <time>2022-07-21T07:36:08Z</time>
      </trkpt>
      <trkpt lat="44.1775" lon="5.2764">
        <ele>1693.3</ele>
        <time>2022-07-21T07:36:09Z</time>
      </trkpt>
      <trkpt lat="44.1775" lon="5.27642">
        <ele>1693.5</ele>
        <time>2022-07-21T07:36:10Z</time>
      </trkpt>
      <trkpt lat="44.1775" lon="5.27644">
        <ele>1693.6</ele>
        <time>2022-07-21T07:36:11Z</time>
      </trkpt>
      <trkpt lat="44.1775" lon="5.27645">
        <ele>1693.8</ele>
        <time>2022-07-21T07:36:12Z</time>
      </trkpt>
      <trkpt lat="44.17751" lon="5.27647">
        <ele>1693.9</ele>
        <time>2022-07-21T07:36:13Z</time>
      </trkpt>
      <trkpt lat="44.17752" lon="5.27649">
        <ele>1694.1</ele>
        <time>2022-07-21T07:36:14Z</time>
      </trkpt>
      <trkpt lat="44.17752" lon="5.27651">
        <ele>1694.2</ele>
        <time>2022-07-21T07:36:15Z</time>
      </trkpt>
      <trkpt lat="44.17752" lon="5.27653">
        <ele>1694.4</ele>
        <time>2022-07-21T07:36:16Z</time>
      </trkpt>
      <trkpt lat="44.17752" lon="5.27655">
        <ele>1694.5</ele>
        <time>2022-07-21T07:36:17Z</time>
      </trkpt>
      <trkpt lat="44.17753" lon="5.27657">
        <ele>1694.7</ele>
        <time>2022-07-21T07:36:18Z</time>
      </trkpt>
      <trkpt lat="44.17753" lon="5.27659">
        <ele>1694.8</ele>
        <time>2022-07-21T07:36:19Z</time>
      </trkpt>
      <trkpt lat="44.17753" lon="5.2766">
        <ele>1695</ele>
        <time>2022-07-21T07:36:20Z</time>
      </trkpt>
      <trkpt lat="44.17754" lon="5.27662">
        <ele>1695.1</ele>
        <time>2022-07-21T07:36:21Z</time>
      </trkpt>
      <trkpt lat="44.17754" lon="5.27664">
        <ele>1695.3</ele>
        <time>2022-07-21T07:36:22Z</time>
      </trkpt>
      <trkpt lat="44.17755" lon="5.27666">
        <ele>1695.4</ele>
        <time>2022-07-21T07:36:23Z</time>
      </trkpt>
      <trkpt lat="44.17756" lon="5.27667">
        <ele>1695.5</ele>
        <time>2022-07-21T07:36:24Z</time>
      </trkpt>
      <trkpt lat="44.17757" lon="5.27669">
        <ele>1695.7</ele>
        <time>2022-07-21T07:36:25Z</time>
      </trkpt>
      <trkpt lat="44.17757" lon="5.27671">
        <ele>1695.9</ele>
        <time>2022-07-21T07:36:26Z</time>
      </trkpt>
      <trkpt lat="44.17758" lon="5.27673">
        <ele>1696</ele>
        <time>2022-07-21T07:36:27Z</time>
      </trkpt>
      <trkpt lat="44.17759" lon="5.27675">
        <ele>1696.2</ele>
        <time>2022-07-21T07:36:28Z</time>
      </trkpt>
      <trkpt lat="44.17759" lon="5.27677">
        <ele>1696.4</ele>
        <time>2022-07-21T07:36:29Z</time>
      </trkpt>
      <trkpt lat="44.1776" lon="5.27679">
        <ele>1696.6</ele>
        <time>2022-07-21T07:36:30Z</time>
      </trkpt>
      <trkpt lat="44.1776" lon="5.27682">
        <ele>1696.7</ele>
        <time>2022-07-21T07:36:31Z</time>
      </trkpt>
      <trkpt lat="44.1776" lon="5.27684">
        <ele>1696.9</ele>
        <time>2022-07-21T07:36:32Z</time>
      </trkpt>
      <trkpt lat="44.1776" lon="5.27686">
        <ele>1697.1</ele>
        <time>2022-07-21T07:36:33Z</time>
      </trkpt>
      <trkpt lat="44.1776" lon="5.27688">
        <ele>1697.2</ele>
        <time>2022-07-21T07:36:34Z</time>
      </trkpt>
      <trkpt lat="44.1776" lon="5.2769">
        <ele>1697.4</ele>
        <time>2022-07-21T07:36:35Z</time>
      </trkpt>
      <trkpt lat="44.17761" lon="5.27691">
        <ele>1697.5</ele>
        <time>2022-07-21T07:36:36Z</time>
      </trkpt>
      <trkpt lat="44.17761" lon="5.27693">
        <ele>1697.6</ele>
        <time>2022-07-21T07:36:37Z</time>
      </trkpt>
      <trkpt lat="44.17761" lon="5.27694">
        <ele>1697.7</ele>
        <time>2022-07-21T07:36:38Z</time>
      </trkpt>
      <trkpt lat="44.17761" lon="5.27697">
        <ele>1697.9</ele>
        <time>2022-07-21T07:36:39Z</time>
      </trkpt>
      <trkpt lat="44.17761" lon="5.27698">
        <ele>1698</ele>
        <time>2022-07-21T07:36:40Z</time>
      </trkpt>
      <trkpt lat="44.17761" lon="5.27699">
        <ele>1698.1</ele>
        <time>2022-07-21T07:36:41Z</time>
      </trkpt>
      <trkpt lat="44.17761" lon="5.27702">
        <ele>1698.3</ele>
        <time>2022-07-21T07:36:42Z</time>
      </trkpt>
      <trkpt lat="44.17762" lon="5.27703">
        <ele>1698.4</ele>
        <time>2022-07-21T07:36:43Z</time>
      </trkpt>
      <trkpt lat="44.17762" lon="5.27704">
        <ele>1698.5</ele>
        <time>2022-07-21T07:36:44Z</time>
      </trkpt>
      <trkpt lat="44.17763" lon="5.27707">
        <ele>1698.7</ele>
        <time>2022-07-21T07:36:45Z</time>
      </trkpt>
      <trkpt lat="44.17763" lon="5.27708">
        <ele>1698.8</ele>
        <time>2022-07-21T07:36:46Z</time>
      </trkpt>
      <trkpt lat="44.17763" lon="5.27709">
        <ele>1698.9</ele>
        <time>2022-07-21T07:36:47Z</time>
      </trkpt>
      <trkpt lat="44.17764" lon="5.27712">
        <ele>1699.1</ele>
        <time>2022-07-21T07:36:48Z</time>
      </trkpt>
      <trkpt lat="44.17765" lon="5.27714">
        <ele>1699.2</ele>
        <time>2022-07-21T07:36:49Z</time>
      </trkpt>
      <trkpt lat="44.17766" lon="5.27718">
        <ele>1699.6</ele>
        <time>2022-07-21T07:36:50Z</time>
      </trkpt>
      <trkpt lat="44.17766" lon="5.27719">
        <ele>1699.7</ele>
        <time>2022-07-21T07:36:51Z</time>
      </trkpt>
      <trkpt lat="44.17767" lon="5.27721">
        <ele>1699.8</ele>
        <time>2022-07-21T07:36:52Z</time>
      </trkpt>
      <trkpt lat="44.17767" lon="5.27723">
        <ele>1700</ele>
        <time>2022-07-21T07:36:53Z</time>
      </trkpt>
      <trkpt lat="44.17767" lon="5.27725">
        <ele>1700.2</ele>
        <time>2022-07-21T07:36:54Z</time>
      </trkpt>
      <trkpt lat="44.17768" lon="5.27728">
        <ele>1700.3</ele>
        <time>2022-07-21T07:36:55Z</time>
      </trkpt>
      <trkpt lat="44.17767" lon="5.2773">
        <ele>1700.5</ele>
        <time>2022-07-21T07:36:56Z</time>
      </trkpt>
      <trkpt lat="44.17767" lon="5.27732">
        <ele>1700.7</ele>
        <time>2022-07-21T07:36:57Z</time>
      </trkpt>
      <trkpt lat="44.17766" lon="5.27734">
        <ele>1700.8</ele>
        <time>2022-07-21T07:36:58Z</time>
      </trkpt>
      <trkpt lat="44.17766" lon="5.27736">
        <ele>1701</ele>
        <time>2022-07-21T07:36:59Z</time>
      </trkpt>
      <trkpt lat="44.17765" lon="5.27738">
        <ele>1701.1</ele>
        <time>2022-07-21T07:37:00Z</time>
      </trkpt>
      <trkpt lat="44.17764" lon="5.2774">
        <ele>1701.4</ele>
        <time>2022-07-21T07:37:01Z</time>
      </trkpt>
      <trkpt lat="44.17763" lon="5.27741">
        <ele>1701.5</ele>
        <time>2022-07-21T07:37:02Z</time>
      </trkpt>
      <trkpt lat="44.17762" lon="5.27743">
        <ele>1701.7</ele>
        <time>2022-07-21T07:37:03Z</time>
      </trkpt>
      <trkpt lat="44.17763" lon="5.27746">
        <ele>1701.9</ele>
        <time>2022-07-21T07:37:04Z</time>
      </trkpt>
      <trkpt lat="44.17763" lon="5.27747">
        <ele>1702</ele>
        <time>2022-07-21T07:37:05Z</time>
      </trkpt>
      <trkpt lat="44.17763" lon="5.27749">
        <ele>1702.1</ele>
        <time>2022-07-21T07:37:06Z</time>
      </trkpt>
      <trkpt lat="44.17763" lon="5.27751">
        <ele>1702.3</ele>
        <time>2022-07-21T07:37:07Z</time>
      </trkpt>
      <trkpt lat="44.17762" lon="5.27752">
        <ele>1702.4</ele>
        <time>2022-07-21T07:37:08Z</time>
      </trkpt>
      <trkpt lat="44.17762" lon="5.27754">
        <ele>1702.5</ele>
        <time>2022-07-21T07:37:09Z</time>
      </trkpt>
      <trkpt lat="44.17759" lon="5.27756">
        <ele>1702.8</ele>
        <time>2022-07-21T07:37:10Z</time>
      </trkpt>
      <trkpt lat="44.17759" lon="5.27757">
        <ele>1702.9</ele>
        <time>2022-07-21T07:37:11Z</time>
      </trkpt>
      <trkpt lat="44.17758" lon="5.27758">
        <ele>1703</ele>
        <time>2022-07-21T07:37:12Z</time>
      </trkpt>
      <trkpt lat="44.17757" lon="5.27759">
        <ele>1703.1</ele>
        <time>2022-07-21T07:37:13Z</time>
      </trkpt>
      <trkpt lat="44.17756" lon="5.27759">
        <ele>1703.2</ele>
        <time>2022-07-21T07:37:14Z</time>
      </trkpt>
      <trkpt lat="44.17755" lon="5.2776">
        <ele>1703.3</ele>
        <time>2022-07-21T07:37:15Z</time>
      </trkpt>
      <trkpt lat="44.17755" lon="5.27761">
        <ele>1703.4</ele>
        <time>2022-07-21T07:37:16Z</time>
      </trkpt>
      <trkpt lat="44.17755" lon="5.27762">
        <ele>1703.5</ele>
        <time>2022-07-21T07:37:17Z</time>
      </trkpt>
      <trkpt lat="44.17756" lon="5.27763">
        <ele>1703.6</ele>
        <time>2022-07-21T07:37:18Z</time>
      </trkpt>
      <trkpt lat="44.17757" lon="5.27767">
        <ele>1703.9</ele>
        <time>2022-07-21T07:37:19Z</time>
      </trkpt>
      <trkpt lat="44.17758" lon="5.27768">
        <ele>1704</ele>
        <time>2022-07-21T07:37:20Z</time>
      </trkpt>
      <trkpt lat="44.17758" lon="5.2777">
        <ele>1704.1</ele>
        <time>2022-07-21T07:37:21Z</time>
      </trkpt>
      <trkpt lat="44.17758" lon="5.27773">
        <ele>1704.3</ele>
        <time>2022-07-21T07:37:22Z</time>
      </trkpt>
      <trkpt lat="44.17757" lon="5.27775">
        <ele>1704.5</ele>
        <time>2022-07-21T07:37:23Z</time>
      </trkpt>
      <trkpt lat="44.17757" lon="5.27777">
        <ele>1704.6</ele>
        <time>2022-07-21T07:37:24Z</time>
      </trkpt>
      <trkpt lat="44.17757" lon="5.27779">
        <ele>1704.7</ele>
        <time>2022-07-21T07:37:25Z</time>
      </trkpt>
      <trkpt lat="44.17757" lon="5.27781">
        <ele>1704.9</ele>
        <time>2022-07-21T07:37:26Z</time>
      </trkpt>
      <trkpt lat="44.17758" lon="5.27783">
        <ele>1705</ele>
        <time>2022-07-21T07:37:27Z</time>
      </trkpt>
      <trkpt lat="44.17758" lon="5.27784">
        <ele>1705.2</ele>
        <time>2022-07-21T07:37:28Z</time>
      </trkpt>
      <trkpt lat="44.1776" lon="5.27788">
        <ele>1705.5</ele>
        <time>2022-07-21T07:37:29Z</time>
      </trkpt>
      <trkpt lat="44.1776" lon="5.27789">
        <ele>1705.6</ele>
        <time>2022-07-21T07:37:30Z</time>
      </trkpt>
      <trkpt lat="44.17761" lon="5.27791">
        <ele>1705.7</ele>
        <time>2022-07-21T07:37:31Z</time>
      </trkpt>
      <trkpt lat="44.17762" lon="5.27793">
        <ele>1705.9</ele>
        <time>2022-07-21T07:37:32Z</time>
      </trkpt>
      <trkpt lat="44.17763" lon="5.27795">
        <ele>1706.1</ele>
        <time>2022-07-21T07:37:33Z</time>
      </trkpt>
      <trkpt lat="44.17763" lon="5.27797">
        <ele>1706.2</ele>
        <time>2022-07-21T07:37:34Z</time>
      </trkpt>
      <trkpt lat="44.17764" lon="5.278">
        <ele>1706.5</ele>
        <time>2022-07-21T07:37:35Z</time>
      </trkpt>
      <trkpt lat="44.17764" lon="5.27801">
        <ele>1706.6</ele>
        <time>2022-07-21T07:37:36Z</time>
      </trkpt>
      <trkpt lat="44.17764" lon="5.27802">
        <ele>1706.6</ele>
        <time>2022-07-21T07:37:37Z</time>
      </trkpt>
      <trkpt lat="44.17764" lon="5.27804">
        <ele>1706.8</ele>
        <time>2022-07-21T07:37:38Z</time>
      </trkpt>
      <trkpt lat="44.17763" lon="5.27806">
        <ele>1706.9</ele>
        <time>2022-07-21T07:37:39Z</time>
      </trkpt>
      <trkpt lat="44.17763" lon="5.27807">
        <ele>1707.1</ele>
        <time>2022-07-21T07:37:40Z</time>
      </trkpt>
      <trkpt lat="44.17763" lon="5.27809">
        <ele>1707.2</ele>
        <time>2022-07-21T07:37:41Z</time>
      </trkpt>
      <trkpt lat="44.17762" lon="5.2781">
        <ele>1707.3</ele>
        <time>2022-07-21T07:37:42Z</time>
      </trkpt>
      <trkpt lat="44.17762" lon="5.27811">
        <ele>1707.4</ele>
        <time>2022-07-21T07:37:43Z</time>
      </trkpt>
      <trkpt lat="44.17761" lon="5.27813">
        <ele>1707.6</ele>
        <time>2022-07-21T07:37:44Z</time>
      </trkpt>
      <trkpt lat="44.1776" lon="5.27815">
        <ele>1707.7</ele>
        <time>2022-07-21T07:37:45Z</time>
      </trkpt>
      <trkpt lat="44.1776" lon="5.27817">
        <ele>1707.9</ele>
        <time>2022-07-21T07:37:46Z</time>
      </trkpt>
      <trkpt lat="44.1776" lon="5.27819">
        <ele>1708</ele>
        <time>2022-07-21T07:37:47Z</time>
      </trkpt>
      <trkpt lat="44.1776" lon="5.27821">
        <ele>1708.2</ele>
        <time>2022-07-21T07:37:48Z</time>
      </trkpt>
      <trkpt lat="44.1776" lon="5.27823">
        <ele>1708.3</ele>
        <time>2022-07-21T07:37:49Z</time>
      </trkpt>
      <trkpt lat="44.17759" lon="5.27825">
        <ele>1708.5</ele>
        <time>2022-07-21T07:37:50Z</time>
      </trkpt>
      <trkpt lat="44.17759" lon="5.27827">
        <ele>1708.7</ele>
        <time>2022-07-21T07:37:51Z</time>
      </trkpt>
      <trkpt lat="44.17758" lon="5.27829">
        <ele>1708.8</ele>
        <time>2022-07-21T07:37:52Z</time>
      </trkpt>
      <trkpt lat="44.17758" lon="5.27831">
        <ele>1709</ele>
        <time>2022-07-21T07:37:53Z</time>
      </trkpt>
      <trkpt lat="44.17758" lon="5.27834">
        <ele>1709.1</ele>
        <time>2022-07-21T07:37:54Z</time>
      </trkpt>
      <trkpt lat="44.17758" lon="5.27836">
        <ele>1709.3</ele>
        <time>2022-07-21T07:37:55Z</time>
      </trkpt>
      <trkpt lat="44.17759" lon="5.27838">
        <ele>1709.5</ele>
        <time>2022-07-21T07:37:56Z</time>
      </trkpt>
      <trkpt lat="44.17759" lon="5.2784">
        <ele>1709.6</ele>
        <time>2022-07-21T07:37:57Z</time>
      </trkpt>
      <trkpt lat="44.17759" lon="5.27842">
        <ele>1709.8</ele>
        <time>2022-07-21T07:37:58Z</time>
      </trkpt>
      <trkpt lat="44.17759" lon="5.27844">
        <ele>1709.9</ele>
        <time>2022-07-21T07:37:59Z</time>
      </trkpt>
      <trkpt lat="44.17759" lon="5.27846">
        <ele>1710.1</ele>
        <time>2022-07-21T07:38:00Z</time>
      </trkpt>
      <trkpt lat="44.17759" lon="5.27847">
        <ele>1710.2</ele>
        <time>2022-07-21T07:38:01Z</time>
      </trkpt>
      <trkpt lat="44.17759" lon="5.27849">
        <ele>1710.3</ele>
        <time>2022-07-21T07:38:02Z</time>
      </trkpt>
      <trkpt lat="44.17759" lon="5.27851">
        <ele>1710.4</ele>
        <time>2022-07-21T07:38:03Z</time>
      </trkpt>
      <trkpt lat="44.17759" lon="5.27852">
        <ele>1710.5</ele>
        <time>2022-07-21T07:38:04Z</time>
      </trkpt>
      <trkpt lat="44.17759" lon="5.27853">
        <ele>1710.7</ele>
        <time>2022-07-21T07:38:05Z</time>
      </trkpt>
      <trkpt lat="44.17758" lon="5.27854">
        <ele>1710.7</ele>
        <time>2022-07-21T07:38:06Z</time>
      </trkpt>
      <trkpt lat="44.17758" lon="5.27855">
        <ele>1710.8</ele>
        <time>2022-07-21T07:38:07Z</time>
      </trkpt>
      <trkpt lat="44.17758" lon="5.27857">
        <ele>1711</ele>
        <time>2022-07-21T07:38:08Z</time>
      </trkpt>
      <trkpt lat="44.17758" lon="5.27859">
        <ele>1711.1</ele>
        <time>2022-07-21T07:38:09Z</time>
      </trkpt>
      <trkpt lat="44.17758" lon="5.27861">
        <ele>1711.3</ele>
        <time>2022-07-21T07:38:10Z</time>
      </trkpt>
      <trkpt lat="44.17758" lon="5.27863">
        <ele>1711.5</ele>
        <time>2022-07-21T07:38:11Z</time>
      </trkpt>
      <trkpt lat="44.17758" lon="5.27865">
        <ele>1711.6</ele>
        <time>2022-07-21T07:38:12Z</time>
      </trkpt>
      <trkpt lat="44.17758" lon="5.27868">
        <ele>1711.8</ele>
        <time>2022-07-21T07:38:13Z</time>
      </trkpt>
      <trkpt lat="44.17757" lon="5.2787">
        <ele>1712</ele>
        <time>2022-07-21T07:38:14Z</time>
      </trkpt>
      <trkpt lat="44.17757" lon="5.27871">
        <ele>1712.1</ele>
        <time>2022-07-21T07:38:15Z</time>
      </trkpt>
      <trkpt lat="44.17759" lon="5.27876">
        <ele>1712.5</ele>
        <time>2022-07-21T07:38:16Z</time>
      </trkpt>
      <trkpt lat="44.17759" lon="5.27877">
        <ele>1712.6</ele>
        <time>2022-07-21T07:38:17Z</time>
      </trkpt>
      <trkpt lat="44.1776" lon="5.27881">
        <ele>1712.9</ele>
        <time>2022-07-21T07:38:18Z</time>
      </trkpt>
      <trkpt lat="44.17761" lon="5.27882">
        <ele>1713</ele>
        <time>2022-07-21T07:38:19Z</time>
      </trkpt>
      <trkpt lat="44.17762" lon="5.27886">
        <ele>1713.4</ele>
        <time>2022-07-21T07:38:20Z</time>
      </trkpt>
      <trkpt lat="44.17762" lon="5.27887">
        <ele>1713.5</ele>
        <time>2022-07-21T07:38:21Z</time>
      </trkpt>
      <trkpt lat="44.17762" lon="5.2789">
        <ele>1713.6</ele>
        <time>2022-07-21T07:38:22Z</time>
      </trkpt>
      <trkpt lat="44.17762" lon="5.27892">
        <ele>1713.8</ele>
        <time>2022-07-21T07:38:23Z</time>
      </trkpt>
      <trkpt lat="44.17762" lon="5.27894">
        <ele>1714</ele>
        <time>2022-07-21T07:38:24Z</time>
      </trkpt>
      <trkpt lat="44.17762" lon="5.27896">
        <ele>1714.1</ele>
        <time>2022-07-21T07:38:25Z</time>
      </trkpt>
      <trkpt lat="44.17762" lon="5.27898">
        <ele>1714.3</ele>
        <time>2022-07-21T07:38:26Z</time>
      </trkpt>
      <trkpt lat="44.17762" lon="5.27899">
        <ele>1714.4</ele>
        <time>2022-07-21T07:38:27Z</time>
      </trkpt>
      <trkpt lat="44.17761" lon="5.27901">
        <ele>1714.5</ele>
        <time>2022-07-21T07:38:28Z</time>
      </trkpt>
      <trkpt lat="44.17761" lon="5.27903">
        <ele>1714.7</ele>
        <time>2022-07-21T07:38:29Z</time>
      </trkpt>
      <trkpt lat="44.17761" lon="5.27904">
        <ele>1714.8</ele>
        <time>2022-07-21T07:38:30Z</time>
      </trkpt>
      <trkpt lat="44.17761" lon="5.27906">
        <ele>1714.9</ele>
        <time>2022-07-21T07:38:31Z</time>
      </trkpt>
      <trkpt lat="44.17761" lon="5.27909">
        <ele>1715.3</ele>
        <time>2022-07-21T07:38:32Z</time>
      </trkpt>
      <trkpt lat="44.17761" lon="5.2791">
        <ele>1715.4</ele>
        <time>2022-07-21T07:38:33Z</time>
      </trkpt>
      <trkpt lat="44.17761" lon="5.27911">
        <ele>1715.5</ele>
        <time>2022-07-21T07:38:34Z</time>
      </trkpt>
      <trkpt lat="44.17761" lon="5.27913">
        <ele>1715.6</ele>
        <time>2022-07-21T07:38:35Z</time>
      </trkpt>
      <trkpt lat="44.17761" lon="5.27915">
        <ele>1715.8</ele>
        <time>2022-07-21T07:38:36Z</time>
      </trkpt>
      <trkpt lat="44.17762" lon="5.27919">
        <ele>1716.1</ele>
        <time>2022-07-21T07:38:37Z</time>
      </trkpt>
      <trkpt lat="44.17763" lon="5.27921">
        <ele>1716.2</ele>
        <time>2022-07-21T07:38:38Z</time>
      </trkpt>
      <trkpt lat="44.17763" lon="5.27922">
        <ele>1716.4</ele>
        <time>2022-07-21T07:38:39Z</time>
      </trkpt>
      <trkpt lat="44.17763" lon="5.27924">
        <ele>1716.5</ele>
        <time>2022-07-21T07:38:40Z</time>
      </trkpt>
      <trkpt lat="44.17762" lon="5.27927">
        <ele>1716.7</ele>
        <time>2022-07-21T07:38:41Z</time>
      </trkpt>
      <trkpt lat="44.17762" lon="5.27928">
        <ele>1716.8</ele>
        <time>2022-07-21T07:38:42Z</time>
      </trkpt>
      <trkpt lat="44.17762" lon="5.2793">
        <ele>1716.9</ele>
        <time>2022-07-21T07:38:43Z</time>
      </trkpt>
      <trkpt lat="44.17762" lon="5.27932">
        <ele>1717.1</ele>
        <time>2022-07-21T07:38:44Z</time>
      </trkpt>
      <trkpt lat="44.17762" lon="5.27934">
        <ele>1717.3</ele>
        <time>2022-07-21T07:38:45Z</time>
      </trkpt>
      <trkpt lat="44.17762" lon="5.27936">
        <ele>1717.4</ele>
        <time>2022-07-21T07:38:46Z</time>
      </trkpt>
      <trkpt lat="44.17762" lon="5.27938">
        <ele>1717.6</ele>
        <time>2022-07-21T07:38:47Z</time>
      </trkpt>
      <trkpt lat="44.17762" lon="5.2794">
        <ele>1717.7</ele>
        <time>2022-07-21T07:38:48Z</time>
      </trkpt>
      <trkpt lat="44.17762" lon="5.27942">
        <ele>1717.9</ele>
        <time>2022-07-21T07:38:49Z</time>
      </trkpt>
      <trkpt lat="44.17761" lon="5.27944">
        <ele>1718.1</ele>
        <time>2022-07-21T07:38:50Z</time>
      </trkpt>
      <trkpt lat="44.17761" lon="5.27946">
        <ele>1718.2</ele>
        <time>2022-07-21T07:38:51Z</time>
      </trkpt>
      <trkpt lat="44.1776" lon="5.27949">
        <ele>1718.4</ele>
        <time>2022-07-21T07:38:52Z</time>
      </trkpt>
      <trkpt lat="44.1776" lon="5.2795">
        <ele>1718.5</ele>
        <time>2022-07-21T07:38:53Z</time>
      </trkpt>
      <trkpt lat="44.17759" lon="5.27951">
        <ele>1718.6</ele>
        <time>2022-07-21T07:38:54Z</time>
      </trkpt>
      <trkpt lat="44.17759" lon="5.27953">
        <ele>1718.7</ele>
        <time>2022-07-21T07:38:55Z</time>
      </trkpt>
      <trkpt lat="44.17758" lon="5.27954">
        <ele>1718.9</ele>
        <time>2022-07-21T07:38:56Z</time>
      </trkpt>
      <trkpt lat="44.17756" lon="5.27956">
        <ele>1719.1</ele>
        <time>2022-07-21T07:38:57Z</time>
      </trkpt>
      <trkpt lat="44.17755" lon="5.27958">
        <ele>1719.3</ele>
        <time>2022-07-21T07:38:58Z</time>
      </trkpt>
      <trkpt lat="44.17755" lon="5.2796">
        <ele>1719.4</ele>
        <time>2022-07-21T07:38:59Z</time>
      </trkpt>
      <trkpt lat="44.17754" lon="5.27962">
        <ele>1719.5</ele>
        <time>2022-07-21T07:39:00Z</time>
      </trkpt>
      <trkpt lat="44.17754" lon="5.27964">
        <ele>1719.7</ele>
        <time>2022-07-21T07:39:01Z</time>
      </trkpt>
      <trkpt lat="44.17754" lon="5.27966">
        <ele>1719.9</ele>
        <time>2022-07-21T07:39:02Z</time>
      </trkpt>
      <trkpt lat="44.17754" lon="5.27968">
        <ele>1720</ele>
        <time>2022-07-21T07:39:03Z</time>
      </trkpt>
      <trkpt lat="44.17754" lon="5.2797">
        <ele>1720.2</ele>
        <time>2022-07-21T07:39:04Z</time>
      </trkpt>
      <trkpt lat="44.17754" lon="5.27973">
        <ele>1720.4</ele>
        <time>2022-07-21T07:39:05Z</time>
      </trkpt>
      <trkpt lat="44.17754" lon="5.27975">
        <ele>1720.6</ele>
        <time>2022-07-21T07:39:06Z</time>
      </trkpt>
      <trkpt lat="44.17754" lon="5.27978">
        <ele>1720.8</ele>
        <time>2022-07-21T07:39:07Z</time>
      </trkpt>
      <trkpt lat="44.17755" lon="5.2798">
        <ele>1720.9</ele>
        <time>2022-07-21T07:39:08Z</time>
      </trkpt>
      <trkpt lat="44.17755" lon="5.27982">
        <ele>1721.1</ele>
        <time>2022-07-21T07:39:09Z</time>
      </trkpt>
      <trkpt lat="44.17756" lon="5.27984">
        <ele>1721.3</ele>
        <time>2022-07-21T07:39:10Z</time>
      </trkpt>
      <trkpt lat="44.17756" lon="5.27987">
        <ele>1721.5</ele>
        <time>2022-07-21T07:39:11Z</time>
      </trkpt>
      <trkpt lat="44.17756" lon="5.27988">
        <ele>1721.6</ele>
        <time>2022-07-21T07:39:12Z</time>
      </trkpt>
      <trkpt lat="44.17755" lon="5.27991">
        <ele>1721.8</ele>
        <time>2022-07-21T07:39:13Z</time>
      </trkpt>
      <trkpt lat="44.17755" lon="5.27993">
        <ele>1721.9</ele>
        <time>2022-07-21T07:39:14Z</time>
      </trkpt>
      <trkpt lat="44.17754" lon="5.27994">
        <ele>1722.1</ele>
        <time>2022-07-21T07:39:15Z</time>
      </trkpt>
      <trkpt lat="44.17754" lon="5.27996">
        <ele>1722.3</ele>
        <time>2022-07-21T07:39:16Z</time>
      </trkpt>
      <trkpt lat="44.17753" lon="5.27998">
        <ele>1722.5</ele>
        <time>2022-07-21T07:39:17Z</time>
      </trkpt>
      <trkpt lat="44.17752" lon="5.28">
        <ele>1722.6</ele>
        <time>2022-07-21T07:39:18Z</time>
      </trkpt>
      <trkpt lat="44.17752" lon="5.28002">
        <ele>1722.8</ele>
        <time>2022-07-21T07:39:19Z</time>
      </trkpt>
      <trkpt lat="44.17751" lon="5.28003">
        <ele>1723</ele>
        <time>2022-07-21T07:39:20Z</time>
      </trkpt>
      <trkpt lat="44.1775" lon="5.28005">
        <ele>1723.1</ele>
        <time>2022-07-21T07:39:21Z</time>
      </trkpt>
      <trkpt lat="44.1775" lon="5.28007">
        <ele>1723.3</ele>
        <time>2022-07-21T07:39:22Z</time>
      </trkpt>
      <trkpt lat="44.17749" lon="5.28009">
        <ele>1723.5</ele>
        <time>2022-07-21T07:39:23Z</time>
      </trkpt>
      <trkpt lat="44.17749" lon="5.28011">
        <ele>1723.7</ele>
        <time>2022-07-21T07:39:24Z</time>
      </trkpt>
      <trkpt lat="44.17749" lon="5.28013">
        <ele>1723.9</ele>
        <time>2022-07-21T07:39:25Z</time>
      </trkpt>
      <trkpt lat="44.17749" lon="5.28015">
        <ele>1724.1</ele>
        <time>2022-07-21T07:39:26Z</time>
      </trkpt>
      <trkpt lat="44.17749" lon="5.28018">
        <ele>1724.3</ele>
        <time>2022-07-21T07:39:27Z</time>
      </trkpt>
      <trkpt lat="44.17749" lon="5.2802">
        <ele>1724.5</ele>
        <time>2022-07-21T07:39:28Z</time>
      </trkpt>
      <trkpt lat="44.17749" lon="5.28022">
        <ele>1724.7</ele>
        <time>2022-07-21T07:39:29Z</time>
      </trkpt>
      <trkpt lat="44.17749" lon="5.28024">
        <ele>1724.9</ele>
        <time>2022-07-21T07:39:30Z</time>
      </trkpt>
      <trkpt lat="44.17748" lon="5.28026">
        <ele>1725.1</ele>
        <time>2022-07-21T07:39:31Z</time>
      </trkpt>
      <trkpt lat="44.17748" lon="5.28028">
        <ele>1725.3</ele>
        <time>2022-07-21T07:39:32Z</time>
      </trkpt>
      <trkpt lat="44.17747" lon="5.2803">
        <ele>1725.5</ele>
        <time>2022-07-21T07:39:33Z</time>
      </trkpt>
      <trkpt lat="44.17747" lon="5.28032">
        <ele>1725.7</ele>
        <time>2022-07-21T07:39:34Z</time>
      </trkpt>
      <trkpt lat="44.17745" lon="5.28035">
        <ele>1726.1</ele>
        <time>2022-07-21T07:39:35Z</time>
      </trkpt>
      <trkpt lat="44.17745" lon="5.28036">
        <ele>1726.2</ele>
        <time>2022-07-21T07:39:36Z</time>
      </trkpt>
      <trkpt lat="44.17743" lon="5.28038">
        <ele>1726.5</ele>
        <time>2022-07-21T07:39:37Z</time>
      </trkpt>
      <trkpt lat="44.17742" lon="5.28039">
        <ele>1726.7</ele>
        <time>2022-07-21T07:39:38Z</time>
      </trkpt>
      <trkpt lat="44.17741" lon="5.2804">
        <ele>1726.8</ele>
        <time>2022-07-21T07:39:39Z</time>
      </trkpt>
      <trkpt lat="44.17741" lon="5.2804">
        <ele>1726.8</ele>
        <time>2022-07-21T07:39:40Z</time>
      </trkpt>
      <trkpt lat="44.17741" lon="5.2804">
        <ele>1726.8</ele>
        <time>2022-07-21T07:39:41Z</time>
      </trkpt>
      <trkpt lat="44.17741" lon="5.2804">
        <ele>1726.8</ele>
        <time>2022-07-21T07:39:42Z</time>
      </trkpt>
      <trkpt lat="44.17742" lon="5.28042">
        <ele>1727.1</ele>
        <time>2022-07-21T07:39:43Z</time>
      </trkpt>
      <trkpt lat="44.17741" lon="5.28043">
        <ele>1727.2</ele>
        <time>2022-07-21T07:39:44Z</time>
      </trkpt>
      <trkpt lat="44.1774" lon="5.28043">
        <ele>1727.4</ele>
        <time>2022-07-21T07:39:45Z</time>
      </trkpt>
      <trkpt lat="44.17739" lon="5.28044">
        <ele>1727.5</ele>
        <time>2022-07-21T07:39:46Z</time>
      </trkpt>
      <trkpt lat="44.17738" lon="5.28045">
        <ele>1727.7</ele>
        <time>2022-07-21T07:39:47Z</time>
      </trkpt>
      <trkpt lat="44.17737" lon="5.28046">
        <ele>1727.8</ele>
        <time>2022-07-21T07:39:48Z</time>
      </trkpt>
      <trkpt lat="44.17737" lon="5.28046">
        <ele>1728</ele>
        <time>2022-07-21T07:39:49Z</time>
      </trkpt>
      <trkpt lat="44.17736" lon="5.28047">
        <ele>1728.1</ele>
        <time>2022-07-21T07:39:50Z</time>
      </trkpt>
      <trkpt lat="44.17736" lon="5.28047">
        <ele>1728.1</ele>
        <time>2022-07-21T07:39:51Z</time>
      </trkpt>
      <trkpt lat="44.17736" lon="5.28047">
        <ele>1728.1</ele>
        <time>2022-07-21T07:39:52Z</time>
      </trkpt>
      <trkpt lat="44.17736" lon="5.28047">
        <ele>1728.1</ele>
        <time>2022-07-21T07:39:53Z</time>
      </trkpt>
      <trkpt lat="44.17736" lon="5.28047">
        <ele>1728.1</ele>
        <time>2022-07-21T07:39:54Z</time>
      </trkpt>
      <trkpt lat="44.17736" lon="5.28047">
        <ele>1728.1</ele>
        <time>2022-07-21T07:39:55Z</time>
      </trkpt>
      <trkpt lat="44.17736" lon="5.28047">
        <ele>1728.1</ele>
        <time>2022-07-21T07:39:56Z</time>
      </trkpt>
      <trkpt lat="44.17736" lon="5.28047">
        <ele>1728.1</ele>
        <time>2022-07-21T07:39:57Z</time>
      </trkpt>
      <trkpt lat="44.17736" lon="5.28047">
        <ele>1728.1</ele>
        <time>2022-07-21T07:39:58Z</time>
      </trkpt>
      <trkpt lat="44.17736" lon="5.28047">
        <ele>1728.1</ele>
        <time>2022-07-21T07:39:59Z</time>
      </trkpt>
      <trkpt lat="44.17739" lon="5.28058">
        <ele>1729.3</ele>
        <time>2022-07-21T07:42:17Z</time>
      </trkpt>
      <trkpt lat="44.1774" lon="5.28059">
        <ele>1729.5</ele>
        <time>2022-07-21T07:42:18Z</time>
      </trkpt>
      <trkpt lat="44.1774" lon="5.28059">
        <ele>1729.5</ele>
        <time>2022-07-21T07:42:19Z</time>
      </trkpt>
      <trkpt lat="44.1774" lon="5.28059">
        <ele>1729.5</ele>
        <time>2022-07-21T07:42:20Z</time>
      </trkpt>
      <trkpt lat="44.1774" lon="5.28059">
        <ele>1729.5</ele>
        <time>2022-07-21T07:42:21Z</time>
      </trkpt>
      <trkpt lat="44.1774" lon="5.28059">
        <ele>1729.5</ele>
        <time>2022-07-21T07:42:22Z</time>
      </trkpt>
      <trkpt lat="44.1774" lon="5.28059">
        <ele>1729.5</ele>
        <time>2022-07-21T07:42:23Z</time>
      </trkpt>
      <trkpt lat="44.1774" lon="5.28059">
        <ele>1729.5</ele>
        <time>2022-07-21T07:42:24Z</time>
      </trkpt>
      <trkpt lat="44.1774" lon="5.28059">
        <ele>1729.5</ele>
        <time>2022-07-21T07:42:25Z</time>
      </trkpt>
      <trkpt lat="44.1774" lon="5.28059">
        <ele>1729.5</ele>
        <time>2022-07-21T07:42:26Z</time>
      </trkpt>
      <trkpt lat="44.17749" lon="5.28052">
        <ele>1730.7</ele>
        <time>2022-07-21T07:55:16Z</time>
      </trkpt>
      <trkpt lat="44.17748" lon="5.28051">
        <ele>1730.8</ele>
        <time>2022-07-21T07:55:17Z</time>
      </trkpt>
      <trkpt lat="44.17748" lon="5.28051">
        <ele>1730.8</ele>
        <time>2022-07-21T07:55:18Z</time>
      </trkpt>
      <trkpt lat="44.17748" lon="5.28051">
        <ele>1730.8</ele>
        <time>2022-07-21T07:55:19Z</time>
      </trkpt>
      <trkpt lat="44.17748" lon="5.28051">
        <ele>1730.8</ele>
        <time>2022-07-21T07:55:20Z</time>
      </trkpt>
      <trkpt lat="44.17748" lon="5.28051">
        <ele>1730.8</ele>
        <time>2022-07-21T07:55:21Z</time>
      </trkpt>
      <trkpt lat="44.17748" lon="5.28051">
        <ele>1730.8</ele>
        <time>2022-07-21T07:55:22Z</time>
      </trkpt>
      <trkpt lat="44.17749" lon="5.2805">
        <ele>1731</ele>
        <time>2022-07-21T07:55:23Z</time>
      </trkpt>
      <trkpt lat="44.17748" lon="5.2805">
        <ele>1731</ele>
        <time>2022-07-21T07:55:24Z</time>
      </trkpt>
      <trkpt lat="44.17748" lon="5.2805">
        <ele>1731.1</ele>
        <time>2022-07-21T07:55:25Z</time>
      </trkpt>
      <trkpt lat="44.17747" lon="5.28049">
        <ele>1731.2</ele>
        <time>2022-07-21T07:57:04Z</time>
      </trkpt>
      <trkpt lat="44.17746" lon="5.28048">
        <ele>1731.3</ele>
        <time>2022-07-21T07:57:05Z</time>
      </trkpt>
      <trkpt lat="44.17745" lon="5.28048">
        <ele>1731.4</ele>
        <time>2022-07-21T07:57:06Z</time>
      </trkpt>
      <trkpt lat="44.17743" lon="5.28047">
        <ele>1731.6</ele>
        <time>2022-07-21T07:57:07Z</time>
      </trkpt>
      <trkpt lat="44.17743" lon="5.28047">
        <ele>1731.6</ele>
        <time>2022-07-21T07:57:08Z</time>
      </trkpt>
      <trkpt lat="44.17742" lon="5.28046">
        <ele>1731.7</ele>
        <time>2022-07-21T07:57:09Z</time>
      </trkpt>
      <trkpt lat="44.1774" lon="5.28046">
        <ele>1731.9</ele>
        <time>2022-07-21T07:57:10Z</time>
      </trkpt>
      <trkpt lat="44.17739" lon="5.28045">
        <ele>1732</ele>
        <time>2022-07-21T07:57:11Z</time>
      </trkpt>
      <trkpt lat="44.17739" lon="5.28045">
        <ele>1732</ele>
        <time>2022-07-21T07:57:12Z</time>
      </trkpt>
      <trkpt lat="44.17737" lon="5.28044">
        <ele>1732.2</ele>
        <time>2022-07-21T07:57:13Z</time>
      </trkpt>
      <trkpt lat="44.17736" lon="5.28043">
        <ele>1732.3</ele>
        <time>2022-07-21T07:57:14Z</time>
      </trkpt>
      <trkpt lat="44.17735" lon="5.28042">
        <ele>1732.4</ele>
        <time>2022-07-21T07:57:15Z</time>
      </trkpt>
      <trkpt lat="44.17734" lon="5.28041">
        <ele>1732.5</ele>
        <time>2022-07-21T07:57:16Z</time>
      </trkpt>
      <trkpt lat="44.17733" lon="5.2804">
        <ele>1732.6</ele>
        <time>2022-07-21T07:57:17Z</time>
      </trkpt>
      <trkpt lat="44.17733" lon="5.28039">
        <ele>1732.7</ele>
        <time>2022-07-21T07:57:18Z</time>
      </trkpt>
      <trkpt lat="44.17732" lon="5.28038">
        <ele>1732.8</ele>
        <time>2022-07-21T07:57:19Z</time>
      </trkpt>
      <trkpt lat="44.17732" lon="5.28037">
        <ele>1732.8</ele>
        <time>2022-07-21T07:57:20Z</time>
      </trkpt>
      <trkpt lat="44.17732" lon="5.28036">
        <ele>1732.9</ele>
        <time>2022-07-21T07:57:21Z</time>
      </trkpt>
      <trkpt lat="44.17732" lon="5.28035">
        <ele>1733</ele>
        <time>2022-07-21T07:57:22Z</time>
      </trkpt>
      <trkpt lat="44.17733" lon="5.28034">
        <ele>1733</ele>
        <time>2022-07-21T07:57:23Z</time>
      </trkpt>
      <trkpt lat="44.17734" lon="5.28033">
        <ele>1733.1</ele>
        <time>2022-07-21T07:57:24Z</time>
      </trkpt>
      <trkpt lat="44.17734" lon="5.28033">
        <ele>1733.1</ele>
        <time>2022-07-21T07:57:25Z</time>
      </trkpt>
      <trkpt lat="44.17734" lon="5.28033">
        <ele>1733.1</ele>
        <time>2022-07-21T07:57:26Z</time>
      </trkpt>
      <trkpt lat="44.17734" lon="5.28033">
        <ele>1733.1</ele>
        <time>2022-07-21T07:57:27Z</time>
      </trkpt>
      <trkpt lat="44.17734" lon="5.28033">
        <ele>1733.1</ele>
        <time>2022-07-21T07:57:28Z</time>
      </trkpt>
      <trkpt lat="44.17734" lon="5.28033">
        <ele>1733.1</ele>
        <time>2022-07-21T07:57:29Z</time>
      </trkpt>
      <trkpt lat="44.17734" lon="5.28033">
        <ele>1733.1</ele>
        <time>2022-07-21T07:57:30Z</time>
      </trkpt>
      <trkpt lat="44.17734" lon="5.28033">
        <ele>1733.1</ele>
        <time>2022-07-21T07:57:31Z</time>
      </trkpt>
      <trkpt lat="44.17739" lon="5.28041">
        <ele>1733.8</ele>
        <time>2022-07-21T08:00:57Z</time>
      </trkpt>
      <trkpt lat="44.1774" lon="5.28041">
        <ele>1733.8</ele>
        <time>2022-07-21T08:00:58Z</time>
      </trkpt>
      <trkpt lat="44.17742" lon="5.28041">
        <ele>1733.9</ele>
        <time>2022-07-21T08:00:59Z</time>
      </trkpt>
      <trkpt lat="44.17743" lon="5.28041">
        <ele>1734.1</ele>
        <time>2022-07-21T08:01:00Z</time>
      </trkpt>
      <trkpt lat="44.17744" lon="5.2804">
        <ele>1734.2</ele>
        <time>2022-07-21T08:01:01Z</time>
      </trkpt>
      <trkpt lat="44.17746" lon="5.28036">
        <ele>1734.4</ele>
        <time>2022-07-21T08:01:02Z</time>
      </trkpt>
      <trkpt lat="44.17746" lon="5.28034">
        <ele>1734.5</ele>
        <time>2022-07-21T08:01:03Z</time>
      </trkpt>
      <trkpt lat="44.17746" lon="5.2803">
        <ele>1734.7</ele>
        <time>2022-07-21T08:01:04Z</time>
      </trkpt>
      <trkpt lat="44.17746" lon="5.28029">
        <ele>1734.8</ele>
        <time>2022-07-21T08:01:05Z</time>
      </trkpt>
      <trkpt lat="44.17746" lon="5.28026">
        <ele>1734.9</ele>
        <time>2022-07-21T08:01:06Z</time>
      </trkpt>
      <trkpt lat="44.17746" lon="5.28025">
        <ele>1735</ele>
        <time>2022-07-21T08:01:07Z</time>
      </trkpt>
      <trkpt lat="44.17746" lon="5.28023">
        <ele>1735.1</ele>
        <time>2022-07-21T08:01:08Z</time>
      </trkpt>
      <trkpt lat="44.17746" lon="5.2802">
        <ele>1735.2</ele>
        <time>2022-07-21T08:01:09Z</time>
      </trkpt>
      <trkpt lat="44.17746" lon="5.28017">
        <ele>1735.4</ele>
        <time>2022-07-21T08:01:10Z</time>
      </trkpt>
      <trkpt lat="44.17746" lon="5.28015">
        <ele>1735.5</ele>
        <time>2022-07-21T08:01:11Z</time>
      </trkpt>
      <trkpt lat="44.17745" lon="5.2801">
        <ele>1735.8</ele>
        <time>2022-07-21T08:01:12Z</time>
      </trkpt>
      <trkpt lat="44.17745" lon="5.28008">
        <ele>1735.9</ele>
        <time>2022-07-21T08:01:13Z</time>
      </trkpt>
      <trkpt lat="44.17745" lon="5.28003">
        <ele>1736.1</ele>
        <time>2022-07-21T08:01:14Z</time>
      </trkpt>
      <trkpt lat="44.17744" lon="5.28001">
        <ele>1736.2</ele>
        <time>2022-07-21T08:01:15Z</time>
      </trkpt>
      <trkpt lat="44.17744" lon="5.27997">
        <ele>1736.4</ele>
        <time>2022-07-21T08:01:16Z</time>
      </trkpt>
      <trkpt lat="44.17744" lon="5.27995">
        <ele>1736.5</ele>
        <time>2022-07-21T08:01:17Z</time>
      </trkpt>
      <trkpt lat="44.17743" lon="5.27991">
        <ele>1736.8</ele>
        <time>2022-07-21T08:01:18Z</time>
      </trkpt>
      <trkpt lat="44.17743" lon="5.27989">
        <ele>1736.8</ele>
        <time>2022-07-21T08:01:19Z</time>
      </trkpt>
      <trkpt lat="44.17743" lon="5.27985">
        <ele>1737.1</ele>
        <time>2022-07-21T08:01:20Z</time>
      </trkpt>
      <trkpt lat="44.17742" lon="5.27983">
        <ele>1737.1</ele>
        <time>2022-07-21T08:01:21Z</time>
      </trkpt>
      <trkpt lat="44.17742" lon="5.27979">
        <ele>1737.3</ele>
        <time>2022-07-21T08:01:22Z</time>
      </trkpt>
      <trkpt lat="44.17742" lon="5.27978">
        <ele>1737.4</ele>
        <time>2022-07-21T08:01:23Z</time>
      </trkpt>
      <trkpt lat="44.17741" lon="5.27974">
        <ele>1737.6</ele>
        <time>2022-07-21T08:01:24Z</time>
      </trkpt>
      <trkpt lat="44.17741" lon="5.27973">
        <ele>1737.7</ele>
        <time>2022-07-21T08:01:25Z</time>
      </trkpt>
      <trkpt lat="44.17741" lon="5.27971">
        <ele>1737.8</ele>
        <time>2022-07-21T08:01:26Z</time>
      </trkpt>
      <trkpt lat="44.17741" lon="5.27968">
        <ele>1737.9</ele>
        <time>2022-07-21T08:01:27Z</time>
      </trkpt>
      <trkpt lat="44.17741" lon="5.27966">
        <ele>1738</ele>
        <time>2022-07-21T08:01:28Z</time>
      </trkpt>
      <trkpt lat="44.17741" lon="5.27963">
        <ele>1738.2</ele>
        <time>2022-07-21T08:01:29Z</time>
      </trkpt>
      <trkpt lat="44.17741" lon="5.27961">
        <ele>1738.3</ele>
        <time>2022-07-21T08:01:30Z</time>
      </trkpt>
      <trkpt lat="44.17741" lon="5.27959">
        <ele>1738.4</ele>
        <time>2022-07-21T08:01:31Z</time>
      </trkpt>
      <trkpt lat="44.1774" lon="5.27957">
        <ele>1738.5</ele>
        <time>2022-07-21T08:01:32Z</time>
      </trkpt>
      <trkpt lat="44.1774" lon="5.27954">
        <ele>1738.6</ele>
        <time>2022-07-21T08:01:33Z</time>
      </trkpt>
      <trkpt lat="44.17739" lon="5.27951">
        <ele>1738.8</ele>
        <time>2022-07-21T08:01:34Z</time>
      </trkpt>
      <trkpt lat="44.17739" lon="5.27949">
        <ele>1738.9</ele>
        <time>2022-07-21T08:01:35Z</time>
      </trkpt>
      <trkpt lat="44.17738" lon="5.27945">
        <ele>1739.1</ele>
        <time>2022-07-21T08:01:36Z</time>
      </trkpt>
      <trkpt lat="44.17737" lon="5.27944">
        <ele>1739.2</ele>
        <time>2022-07-21T08:01:37Z</time>
      </trkpt>
      <trkpt lat="44.17737" lon="5.27942">
        <ele>1739.4</ele>
        <time>2022-07-21T08:01:38Z</time>
      </trkpt>
      <trkpt lat="44.17736" lon="5.27939">
        <ele>1739.5</ele>
        <time>2022-07-21T08:01:39Z</time>
      </trkpt>
      <trkpt lat="44.17736" lon="5.27937">
        <ele>1739.6</ele>
        <time>2022-07-21T08:01:40Z</time>
      </trkpt>
      <trkpt lat="44.17736" lon="5.27936">
        <ele>1739.7</ele>
        <time>2022-07-21T08:01:41Z</time>
      </trkpt>
      <trkpt lat="44.17735" lon="5.27933">
        <ele>1739.8</ele>
        <time>2022-07-21T08:01:42Z</time>
      </trkpt>
      <trkpt lat="44.17735" lon="5.27931">
        <ele>1740</ele>
        <time>2022-07-21T08:01:43Z</time>
      </trkpt>
      <trkpt lat="44.17735" lon="5.27928">
        <ele>1740.1</ele>
        <time>2022-07-21T08:01:44Z</time>
      </trkpt>
      <trkpt lat="44.17734" lon="5.27926">
        <ele>1740.2</ele>
        <time>2022-07-21T08:01:45Z</time>
      </trkpt>
      <trkpt lat="44.17734" lon="5.27924">
        <ele>1740.4</ele>
        <time>2022-07-21T08:01:46Z</time>
      </trkpt>
      <trkpt lat="44.17734" lon="5.27922">
        <ele>1740.5</ele>
        <time>2022-07-21T08:01:47Z</time>
      </trkpt>
      <trkpt lat="44.17734" lon="5.2792">
        <ele>1740.6</ele>
        <time>2022-07-21T08:01:48Z</time>
      </trkpt>
      <trkpt lat="44.17734" lon="5.27918">
        <ele>1740.7</ele>
        <time>2022-07-21T08:01:49Z</time>
      </trkpt>
      <trkpt lat="44.17734" lon="5.27915">
        <ele>1740.9</ele>
        <time>2022-07-21T08:01:50Z</time>
      </trkpt>
      <trkpt lat="44.17733" lon="5.27913">
        <ele>1741</ele>
        <time>2022-07-21T08:01:51Z</time>
      </trkpt>
      <trkpt lat="44.17733" lon="5.27911">
        <ele>1741.1</ele>
        <time>2022-07-21T08:01:52Z</time>
      </trkpt>
      <trkpt lat="44.17732" lon="5.27909">
        <ele>1741.2</ele>
        <time>2022-07-21T08:01:53Z</time>
      </trkpt>
      <trkpt lat="44.17732" lon="5.27907">
        <ele>1741.4</ele>
        <time>2022-07-21T08:01:54Z</time>
      </trkpt>
      <trkpt lat="44.17731" lon="5.27905">
        <ele>1741.5</ele>
        <time>2022-07-21T08:01:55Z</time>
      </trkpt>
      <trkpt lat="44.17731" lon="5.27904">
        <ele>1741.6</ele>
        <time>2022-07-21T08:01:56Z</time>
      </trkpt>
      <trkpt lat="44.17731" lon="5.27903">
        <ele>1741.7</ele>
        <time>2022-07-21T08:01:57Z</time>
      </trkpt>
      <trkpt lat="44.17731" lon="5.27901">
        <ele>1741.7</ele>
        <time>2022-07-21T08:01:58Z</time>
      </trkpt>
      <trkpt lat="44.1773" lon="5.279">
        <ele>1741.8</ele>
        <time>2022-07-21T08:01:59Z</time>
      </trkpt>
      <trkpt lat="44.1773" lon="5.27897">
        <ele>1742</ele>
        <time>2022-07-21T08:02:00Z</time>
      </trkpt>
      <trkpt lat="44.17729" lon="5.27896">
        <ele>1742.1</ele>
        <time>2022-07-21T08:02:01Z</time>
      </trkpt>
      <trkpt lat="44.17729" lon="5.27894">
        <ele>1742.2</ele>
        <time>2022-07-21T08:02:02Z</time>
      </trkpt>
      <trkpt lat="44.17729" lon="5.27892">
        <ele>1742.3</ele>
        <time>2022-07-21T08:02:03Z</time>
      </trkpt>
      <trkpt lat="44.17728" lon="5.2789">
        <ele>1742.4</ele>
        <time>2022-07-21T08:02:04Z</time>
      </trkpt>
      <trkpt lat="44.17728" lon="5.27888">
        <ele>1742.6</ele>
        <time>2022-07-21T08:02:05Z</time>
      </trkpt>
      <trkpt lat="44.17728" lon="5.27886">
        <ele>1742.7</ele>
        <time>2022-07-21T08:02:06Z</time>
      </trkpt>
      <trkpt lat="44.17727" lon="5.27884">
        <ele>1742.8</ele>
        <time>2022-07-21T08:02:07Z</time>
      </trkpt>
      <trkpt lat="44.17727" lon="5.27882">
        <ele>1742.9</ele>
        <time>2022-07-21T08:02:08Z</time>
      </trkpt>
      <trkpt lat="44.17726" lon="5.2788">
        <ele>1743</ele>
        <time>2022-07-21T08:02:09Z</time>
      </trkpt>
      <trkpt lat="44.17726" lon="5.27878">
        <ele>1743.2</ele>
        <time>2022-07-21T08:02:10Z</time>
      </trkpt>
      <trkpt lat="44.17726" lon="5.27876">
        <ele>1743.3</ele>
        <time>2022-07-21T08:02:11Z</time>
      </trkpt>
      <trkpt lat="44.17725" lon="5.27874">
        <ele>1743.4</ele>
        <time>2022-07-21T08:02:12Z</time>
      </trkpt>
      <trkpt lat="44.17725" lon="5.27872">
        <ele>1743.6</ele>
        <time>2022-07-21T08:02:13Z</time>
      </trkpt>
      <trkpt lat="44.17724" lon="5.2787">
        <ele>1743.7</ele>
        <time>2022-07-21T08:02:14Z</time>
      </trkpt>
      <trkpt lat="44.17724" lon="5.27868">
        <ele>1743.9</ele>
        <time>2022-07-21T08:02:15Z</time>
      </trkpt>
      <trkpt lat="44.17723" lon="5.27866">
        <ele>1744</ele>
        <time>2022-07-21T08:02:16Z</time>
      </trkpt>
      <trkpt lat="44.17723" lon="5.27864">
        <ele>1744.1</ele>
        <time>2022-07-21T08:02:17Z</time>
      </trkpt>
      <trkpt lat="44.17722" lon="5.27862">
        <ele>1744.3</ele>
        <time>2022-07-21T08:02:18Z</time>
      </trkpt>
      <trkpt lat="44.17722" lon="5.27861">
        <ele>1744.4</ele>
        <time>2022-07-21T08:02:19Z</time>
      </trkpt>
      <trkpt lat="44.17721" lon="5.27859">
        <ele>1744.5</ele>
        <time>2022-07-21T08:02:20Z</time>
      </trkpt>
      <trkpt lat="44.1772" lon="5.27857">
        <ele>1744.7</ele>
        <time>2022-07-21T08:02:21Z</time>
      </trkpt>
      <trkpt lat="44.17719" lon="5.27855">
        <ele>1744.8</ele>
        <time>2022-07-21T08:02:22Z</time>
      </trkpt>
      <trkpt lat="44.17719" lon="5.27853">
        <ele>1744.9</ele>
        <time>2022-07-21T08:02:23Z</time>
      </trkpt>
      <trkpt lat="44.17718" lon="5.27851">
        <ele>1745.1</ele>
        <time>2022-07-21T08:02:24Z</time>
      </trkpt>
      <trkpt lat="44.17717" lon="5.27849">
        <ele>1745.3</ele>
        <time>2022-07-21T08:02:25Z</time>
      </trkpt>
      <trkpt lat="44.17717" lon="5.27848">
        <ele>1745.3</ele>
        <time>2022-07-21T08:02:26Z</time>
      </trkpt>
      <trkpt lat="44.17717" lon="5.27847">
        <ele>1745.4</ele>
        <time>2022-07-21T08:02:27Z</time>
      </trkpt>
      <trkpt lat="44.17717" lon="5.27845">
        <ele>1745.5</ele>
        <time>2022-07-21T08:02:28Z</time>
      </trkpt>
      <trkpt lat="44.17716" lon="5.27844">
        <ele>1745.6</ele>
        <time>2022-07-21T08:02:29Z</time>
      </trkpt>
      <trkpt lat="44.17716" lon="5.27842">
        <ele>1745.8</ele>
        <time>2022-07-21T08:02:30Z</time>
      </trkpt>
      <trkpt lat="44.17715" lon="5.2784">
        <ele>1745.9</ele>
        <time>2022-07-21T08:02:31Z</time>
      </trkpt>
      <trkpt lat="44.17715" lon="5.27839">
        <ele>1746</ele>
        <time>2022-07-21T08:02:32Z</time>
      </trkpt>
      <trkpt lat="44.17714" lon="5.27837">
        <ele>1746.1</ele>
        <time>2022-07-21T08:02:33Z</time>
      </trkpt>
      <trkpt lat="44.17714" lon="5.27835">
        <ele>1746.3</ele>
        <time>2022-07-21T08:02:34Z</time>
      </trkpt>
      <trkpt lat="44.17713" lon="5.27832">
        <ele>1746.5</ele>
        <time>2022-07-21T08:02:35Z</time>
      </trkpt>
      <trkpt lat="44.17712" lon="5.27831">
        <ele>1746.6</ele>
        <time>2022-07-21T08:02:36Z</time>
      </trkpt>
      <trkpt lat="44.17712" lon="5.2783">
        <ele>1746.7</ele>
        <time>2022-07-21T08:02:37Z</time>
      </trkpt>
      <trkpt lat="44.17711" lon="5.27829">
        <ele>1746.8</ele>
        <time>2022-07-21T08:02:38Z</time>
      </trkpt>
      <trkpt lat="44.1771" lon="5.27827">
        <ele>1747</ele>
        <time>2022-07-21T08:02:39Z</time>
      </trkpt>
      <trkpt lat="44.17709" lon="5.27825">
        <ele>1747.2</ele>
        <time>2022-07-21T08:02:40Z</time>
      </trkpt>
      <trkpt lat="44.17709" lon="5.27824">
        <ele>1747.3</ele>
        <time>2022-07-21T08:02:41Z</time>
      </trkpt>
      <trkpt lat="44.17708" lon="5.27823">
        <ele>1747.3</ele>
        <time>2022-07-21T08:02:42Z</time>
      </trkpt>
      <trkpt lat="44.17707" lon="5.27821">
        <ele>1747.5</ele>
        <time>2022-07-21T08:02:43Z</time>
      </trkpt>
      <trkpt lat="44.17707" lon="5.27819">
        <ele>1747.6</ele>
        <time>2022-07-21T08:02:44Z</time>
      </trkpt>
      <trkpt lat="44.17706" lon="5.27818">
        <ele>1747.8</ele>
        <time>2022-07-21T08:02:45Z</time>
      </trkpt>
      <trkpt lat="44.17705" lon="5.27816">
        <ele>1748</ele>
        <time>2022-07-21T08:02:46Z</time>
      </trkpt>
      <trkpt lat="44.17704" lon="5.27814">
        <ele>1748.1</ele>
        <time>2022-07-21T08:02:47Z</time>
      </trkpt>
      <trkpt lat="44.17703" lon="5.27812">
        <ele>1748.3</ele>
        <time>2022-07-21T08:02:48Z</time>
      </trkpt>
      <trkpt lat="44.17702" lon="5.2781">
        <ele>1748.5</ele>
        <time>2022-07-21T08:02:49Z</time>
      </trkpt>
      <trkpt lat="44.17702" lon="5.27808">
        <ele>1748.6</ele>
        <time>2022-07-21T08:02:50Z</time>
      </trkpt>
      <trkpt lat="44.17701" lon="5.27806">
        <ele>1748.8</ele>
        <time>2022-07-21T08:02:51Z</time>
      </trkpt>
      <trkpt lat="44.177" lon="5.27805">
        <ele>1748.9</ele>
        <time>2022-07-21T08:02:52Z</time>
      </trkpt>
      <trkpt lat="44.177" lon="5.27804">
        <ele>1749</ele>
        <time>2022-07-21T08:02:53Z</time>
      </trkpt>
      <trkpt lat="44.177" lon="5.27802">
        <ele>1749.1</ele>
        <time>2022-07-21T08:02:54Z</time>
      </trkpt>
      <trkpt lat="44.17699" lon="5.27801">
        <ele>1749.2</ele>
        <time>2022-07-21T08:02:55Z</time>
      </trkpt>
      <trkpt lat="44.17699" lon="5.27799">
        <ele>1749.4</ele>
        <time>2022-07-21T08:02:56Z</time>
      </trkpt>
      <trkpt lat="44.17699" lon="5.27798">
        <ele>1749.5</ele>
        <time>2022-07-21T08:02:57Z</time>
      </trkpt>
      <trkpt lat="44.17699" lon="5.27796">
        <ele>1749.6</ele>
        <time>2022-07-21T08:02:58Z</time>
      </trkpt>
      <trkpt lat="44.17698" lon="5.27795">
        <ele>1749.7</ele>
        <time>2022-07-21T08:02:59Z</time>
      </trkpt>
      <trkpt lat="44.17697" lon="5.27792">
        <ele>1749.9</ele>
        <time>2022-07-21T08:03:00Z</time>
      </trkpt>
      <trkpt lat="44.17697" lon="5.27791">
        <ele>1750</ele>
        <time>2022-07-21T08:03:01Z</time>
      </trkpt>
      <trkpt lat="44.17696" lon="5.2779">
        <ele>1750.1</ele>
        <time>2022-07-21T08:03:02Z</time>
      </trkpt>
      <trkpt lat="44.17696" lon="5.27788">
        <ele>1750.2</ele>
        <time>2022-07-21T08:03:03Z</time>
      </trkpt>
      <trkpt lat="44.17695" lon="5.27787">
        <ele>1750.4</ele>
        <time>2022-07-21T08:03:04Z</time>
      </trkpt>
      <trkpt lat="44.17694" lon="5.27785">
        <ele>1750.5</ele>
        <time>2022-07-21T08:03:05Z</time>
      </trkpt>
      <trkpt lat="44.17694" lon="5.27783">
        <ele>1750.7</ele>
        <time>2022-07-21T08:03:06Z</time>
      </trkpt>
      <trkpt lat="44.17692" lon="5.2778">
        <ele>1750.9</ele>
        <time>2022-07-21T08:03:07Z</time>
      </trkpt>
      <trkpt lat="44.17692" lon="5.27779">
        <ele>1751</ele>
        <time>2022-07-21T08:03:08Z</time>
      </trkpt>
      <trkpt lat="44.17691" lon="5.27778">
        <ele>1751.1</ele>
        <time>2022-07-21T08:03:09Z</time>
      </trkpt>
      <trkpt lat="44.17691" lon="5.27776">
        <ele>1751.3</ele>
        <time>2022-07-21T08:03:10Z</time>
      </trkpt>
      <trkpt lat="44.1769" lon="5.27775">
        <ele>1751.4</ele>
        <time>2022-07-21T08:03:11Z</time>
      </trkpt>
      <trkpt lat="44.17689" lon="5.27772">
        <ele>1751.6</ele>
        <time>2022-07-21T08:03:12Z</time>
      </trkpt>
      <trkpt lat="44.17688" lon="5.27771">
        <ele>1751.7</ele>
        <time>2022-07-21T08:03:13Z</time>
      </trkpt>
      <trkpt lat="44.17688" lon="5.2777">
        <ele>1751.8</ele>
        <time>2022-07-21T08:03:14Z</time>
      </trkpt>
      <trkpt lat="44.17688" lon="5.27769">
        <ele>1751.9</ele>
        <time>2022-07-21T08:03:15Z</time>
      </trkpt>
      <trkpt lat="44.17687" lon="5.27767">
        <ele>1752</ele>
        <time>2022-07-21T08:03:16Z</time>
      </trkpt>
      <trkpt lat="44.17687" lon="5.27766">
        <ele>1752.1</ele>
        <time>2022-07-21T08:03:17Z</time>
      </trkpt>
      <trkpt lat="44.17687" lon="5.27764">
        <ele>1752.3</ele>
        <time>2022-07-21T08:03:18Z</time>
      </trkpt>
      <trkpt lat="44.17687" lon="5.27762">
        <ele>1752.4</ele>
        <time>2022-07-21T08:03:19Z</time>
      </trkpt>
      <trkpt lat="44.17687" lon="5.27761">
        <ele>1752.5</ele>
        <time>2022-07-21T08:03:20Z</time>
      </trkpt>
      <trkpt lat="44.17686" lon="5.27759">
        <ele>1752.6</ele>
        <time>2022-07-21T08:03:21Z</time>
      </trkpt>
      <trkpt lat="44.17686" lon="5.27758">
        <ele>1752.8</ele>
        <time>2022-07-21T08:03:22Z</time>
      </trkpt>
      <trkpt lat="44.17685" lon="5.27756">
        <ele>1752.9</ele>
        <time>2022-07-21T08:03:23Z</time>
      </trkpt>
      <trkpt lat="44.17685" lon="5.27755">
        <ele>1753</ele>
        <time>2022-07-21T08:03:24Z</time>
      </trkpt>
      <trkpt lat="44.17684" lon="5.27753">
        <ele>1753.1</ele>
        <time>2022-07-21T08:03:25Z</time>
      </trkpt>
      <trkpt lat="44.17684" lon="5.27752">
        <ele>1753.2</ele>
        <time>2022-07-21T08:03:26Z</time>
      </trkpt>
      <trkpt lat="44.17683" lon="5.2775">
        <ele>1753.4</ele>
        <time>2022-07-21T08:03:27Z</time>
      </trkpt>
      <trkpt lat="44.17683" lon="5.27748">
        <ele>1753.5</ele>
        <time>2022-07-21T08:03:28Z</time>
      </trkpt>
      <trkpt lat="44.17681" lon="5.27746">
        <ele>1753.8</ele>
        <time>2022-07-21T08:03:29Z</time>
      </trkpt>
      <trkpt lat="44.17681" lon="5.27745">
        <ele>1753.9</ele>
        <time>2022-07-21T08:03:30Z</time>
      </trkpt>
      <trkpt lat="44.1768" lon="5.27744">
        <ele>1753.9</ele>
        <time>2022-07-21T08:03:31Z</time>
      </trkpt>
      <trkpt lat="44.1768" lon="5.27741">
        <ele>1754.1</ele>
        <time>2022-07-21T08:03:32Z</time>
      </trkpt>
      <trkpt lat="44.17679" lon="5.2774">
        <ele>1754.2</ele>
        <time>2022-07-21T08:03:33Z</time>
      </trkpt>
      <trkpt lat="44.17679" lon="5.27739">
        <ele>1754.3</ele>
        <time>2022-07-21T08:03:34Z</time>
      </trkpt>
      <trkpt lat="44.17679" lon="5.27737">
        <ele>1754.5</ele>
        <time>2022-07-21T08:03:35Z</time>
      </trkpt>
      <trkpt lat="44.17678" lon="5.27735">
        <ele>1754.6</ele>
        <time>2022-07-21T08:03:36Z</time>
      </trkpt>
      <trkpt lat="44.17677" lon="5.27733">
        <ele>1754.8</ele>
        <time>2022-07-21T08:03:37Z</time>
      </trkpt>
      <trkpt lat="44.17676" lon="5.27732">
        <ele>1755</ele>
        <time>2022-07-21T08:03:38Z</time>
      </trkpt>
      <trkpt lat="44.17675" lon="5.2773">
        <ele>1755.1</ele>
        <time>2022-07-21T08:03:39Z</time>
      </trkpt>
      <trkpt lat="44.17674" lon="5.27729">
        <ele>1755.3</ele>
        <time>2022-07-21T08:03:40Z</time>
      </trkpt>
      <trkpt lat="44.17673" lon="5.27727">
        <ele>1755.4</ele>
        <time>2022-07-21T08:03:41Z</time>
      </trkpt>
      <trkpt lat="44.17673" lon="5.27725">
        <ele>1755.6</ele>
        <time>2022-07-21T08:03:42Z</time>
      </trkpt>
      <trkpt lat="44.17672" lon="5.27723">
        <ele>1755.8</ele>
        <time>2022-07-21T08:03:43Z</time>
      </trkpt>
      <trkpt lat="44.17671" lon="5.27721">
        <ele>1755.9</ele>
        <time>2022-07-21T08:03:44Z</time>
      </trkpt>
      <trkpt lat="44.17671" lon="5.2772">
        <ele>1756.1</ele>
        <time>2022-07-21T08:03:45Z</time>
      </trkpt>
      <trkpt lat="44.1767" lon="5.27718">
        <ele>1756.2</ele>
        <time>2022-07-21T08:03:46Z</time>
      </trkpt>
      <trkpt lat="44.1767" lon="5.27716">
        <ele>1756.4</ele>
        <time>2022-07-21T08:03:47Z</time>
      </trkpt>
      <trkpt lat="44.17669" lon="5.27714">
        <ele>1756.5</ele>
        <time>2022-07-21T08:03:48Z</time>
      </trkpt>
      <trkpt lat="44.17668" lon="5.27712">
        <ele>1756.7</ele>
        <time>2022-07-21T08:03:49Z</time>
      </trkpt>
      <trkpt lat="44.17668" lon="5.2771">
        <ele>1756.9</ele>
        <time>2022-07-21T08:03:50Z</time>
      </trkpt>
      <trkpt lat="44.17667" lon="5.27708">
        <ele>1757</ele>
        <time>2022-07-21T08:03:51Z</time>
      </trkpt>
      <trkpt lat="44.17666" lon="5.27706">
        <ele>1757.2</ele>
        <time>2022-07-21T08:03:52Z</time>
      </trkpt>
      <trkpt lat="44.17665" lon="5.27705">
        <ele>1757.3</ele>
        <time>2022-07-21T08:03:53Z</time>
      </trkpt>
      <trkpt lat="44.17664" lon="5.27703">
        <ele>1757.5</ele>
        <time>2022-07-21T08:03:54Z</time>
      </trkpt>
      <trkpt lat="44.17663" lon="5.27701">
        <ele>1757.7</ele>
        <time>2022-07-21T08:03:55Z</time>
      </trkpt>
      <trkpt lat="44.17663" lon="5.277">
        <ele>1757.8</ele>
        <time>2022-07-21T08:03:56Z</time>
      </trkpt>
      <trkpt lat="44.17662" lon="5.27699">
        <ele>1757.8</ele>
        <time>2022-07-21T08:03:57Z</time>
      </trkpt>
      <trkpt lat="44.17662" lon="5.27697">
        <ele>1758</ele>
        <time>2022-07-21T08:03:58Z</time>
      </trkpt>
      <trkpt lat="44.17661" lon="5.27696">
        <ele>1758.1</ele>
        <time>2022-07-21T08:03:59Z</time>
      </trkpt>
      <trkpt lat="44.17659" lon="5.27694">
        <ele>1758.3</ele>
        <time>2022-07-21T08:04:00Z</time>
      </trkpt>
      <trkpt lat="44.17658" lon="5.27693">
        <ele>1758.4</ele>
        <time>2022-07-21T08:04:01Z</time>
      </trkpt>
      <trkpt lat="44.17657" lon="5.27692">
        <ele>1758.6</ele>
        <time>2022-07-21T08:04:02Z</time>
      </trkpt>
      <trkpt lat="44.17656" lon="5.2769">
        <ele>1758.7</ele>
        <time>2022-07-21T08:04:03Z</time>
      </trkpt>
      <trkpt lat="44.17654" lon="5.27689">
        <ele>1758.9</ele>
        <time>2022-07-21T08:04:04Z</time>
      </trkpt>
      <trkpt lat="44.17653" lon="5.27687">
        <ele>1759.1</ele>
        <time>2022-07-21T08:04:05Z</time>
      </trkpt>
      <trkpt lat="44.17652" lon="5.27685">
        <ele>1759.2</ele>
        <time>2022-07-21T08:04:06Z</time>
      </trkpt>
      <trkpt lat="44.17651" lon="5.27684">
        <ele>1759.3</ele>
        <time>2022-07-21T08:04:07Z</time>
      </trkpt>
      <trkpt lat="44.1765" lon="5.27682">
        <ele>1759.5</ele>
        <time>2022-07-21T08:04:08Z</time>
      </trkpt>
      <trkpt lat="44.17649" lon="5.27681">
        <ele>1759.6</ele>
        <time>2022-07-21T08:04:09Z</time>
      </trkpt>
      <trkpt lat="44.17648" lon="5.2768">
        <ele>1759.7</ele>
        <time>2022-07-21T08:04:10Z</time>
      </trkpt>
      <trkpt lat="44.17647" lon="5.27678">
        <ele>1759.9</ele>
        <time>2022-07-21T08:04:11Z</time>
      </trkpt>
      <trkpt lat="44.17646" lon="5.27677">
        <ele>1760</ele>
        <time>2022-07-21T08:04:12Z</time>
      </trkpt>
      <trkpt lat="44.17646" lon="5.27676">
        <ele>1760.1</ele>
        <time>2022-07-21T08:04:13Z</time>
      </trkpt>
      <trkpt lat="44.17644" lon="5.27674">
        <ele>1760.3</ele>
        <time>2022-07-21T08:04:14Z</time>
      </trkpt>
      <trkpt lat="44.17644" lon="5.27673">
        <ele>1760.3</ele>
        <time>2022-07-21T08:04:15Z</time>
      </trkpt>
      <trkpt lat="44.17643" lon="5.27673">
        <ele>1760.4</ele>
        <time>2022-07-21T08:04:16Z</time>
      </trkpt>
      <trkpt lat="44.17642" lon="5.27671">
        <ele>1760.5</ele>
        <time>2022-07-21T08:04:17Z</time>
      </trkpt>
      <trkpt lat="44.17641" lon="5.2767">
        <ele>1760.7</ele>
        <time>2022-07-21T08:04:18Z</time>
      </trkpt>
      <trkpt lat="44.1764" lon="5.27669">
        <ele>1760.8</ele>
        <time>2022-07-21T08:04:19Z</time>
      </trkpt>
      <trkpt lat="44.17638" lon="5.27667">
        <ele>1761</ele>
        <time>2022-07-21T08:04:20Z</time>
      </trkpt>
      <trkpt lat="44.17637" lon="5.27666">
        <ele>1761.1</ele>
        <time>2022-07-21T08:04:21Z</time>
      </trkpt>
      <trkpt lat="44.17636" lon="5.27665">
        <ele>1761.2</ele>
        <time>2022-07-21T08:04:22Z</time>
      </trkpt>
      <trkpt lat="44.17633" lon="5.27663">
        <ele>1761.5</ele>
        <time>2022-07-21T08:04:23Z</time>
      </trkpt>
      <trkpt lat="44.17632" lon="5.27662">
        <ele>1761.6</ele>
        <time>2022-07-21T08:04:24Z</time>
      </trkpt>
      <trkpt lat="44.17631" lon="5.27661">
        <ele>1761.7</ele>
        <time>2022-07-21T08:04:25Z</time>
      </trkpt>
      <trkpt lat="44.1763" lon="5.2766">
        <ele>1761.9</ele>
        <time>2022-07-21T08:04:26Z</time>
      </trkpt>
      <trkpt lat="44.17628" lon="5.27659">
        <ele>1762</ele>
        <time>2022-07-21T08:04:27Z</time>
      </trkpt>
      <trkpt lat="44.17627" lon="5.27658">
        <ele>1762.2</ele>
        <time>2022-07-21T08:04:28Z</time>
      </trkpt>
      <trkpt lat="44.17626" lon="5.27657">
        <ele>1762.3</ele>
        <time>2022-07-21T08:04:29Z</time>
      </trkpt>
      <trkpt lat="44.17624" lon="5.27657">
        <ele>1762.5</ele>
        <time>2022-07-21T08:04:30Z</time>
      </trkpt>
      <trkpt lat="44.17623" lon="5.27656">
        <ele>1762.6</ele>
        <time>2022-07-21T08:04:31Z</time>
      </trkpt>
      <trkpt lat="44.17621" lon="5.27656">
        <ele>1762.7</ele>
        <time>2022-07-21T08:04:32Z</time>
      </trkpt>
      <trkpt lat="44.17619" lon="5.27655">
        <ele>1763</ele>
        <time>2022-07-21T08:04:33Z</time>
      </trkpt>
      <trkpt lat="44.17618" lon="5.27655">
        <ele>1763.1</ele>
        <time>2022-07-21T08:04:34Z</time>
      </trkpt>
      <trkpt lat="44.17614" lon="5.27654">
        <ele>1763.5</ele>
        <time>2022-07-21T08:04:35Z</time>
      </trkpt>
      <trkpt lat="44.17614" lon="5.27653">
        <ele>1763.5</ele>
        <time>2022-07-21T08:04:36Z</time>
      </trkpt>
      <trkpt lat="44.17612" lon="5.27653">
        <ele>1763.6</ele>
        <time>2022-07-21T08:04:37Z</time>
      </trkpt>
      <trkpt lat="44.17612" lon="5.27652">
        <ele>1763.7</ele>
        <time>2022-07-21T08:04:38Z</time>
      </trkpt>
      <trkpt lat="44.17612" lon="5.27652">
        <ele>1763.7</ele>
        <time>2022-07-21T08:04:39Z</time>
      </trkpt>
      <trkpt lat="44.17616" lon="5.2765">
        <ele>1764.2</ele>
        <time>2022-07-21T08:04:40Z</time>
      </trkpt>
      <trkpt lat="44.17616" lon="5.27649">
        <ele>1764.2</ele>
        <time>2022-07-21T08:04:41Z</time>
      </trkpt>
      <trkpt lat="44.17616" lon="5.27648">
        <ele>1764.3</ele>
        <time>2022-07-21T08:04:42Z</time>
      </trkpt>
      <trkpt lat="44.17615" lon="5.27647">
        <ele>1764.4</ele>
        <time>2022-07-21T08:04:43Z</time>
      </trkpt>
      <trkpt lat="44.17614" lon="5.27646">
        <ele>1764.6</ele>
        <time>2022-07-21T08:04:44Z</time>
      </trkpt>
      <trkpt lat="44.17614" lon="5.27645">
        <ele>1764.6</ele>
        <time>2022-07-21T08:04:45Z</time>
      </trkpt>
      <trkpt lat="44.17612" lon="5.27644">
        <ele>1764.8</ele>
        <time>2022-07-21T08:04:46Z</time>
      </trkpt>
      <trkpt lat="44.17611" lon="5.27644">
        <ele>1764.9</ele>
        <time>2022-07-21T08:04:47Z</time>
      </trkpt>
      <trkpt lat="44.17609" lon="5.27643">
        <ele>1765.2</ele>
        <time>2022-07-21T08:04:48Z</time>
      </trkpt>
      <trkpt lat="44.17608" lon="5.27642">
        <ele>1765.3</ele>
        <time>2022-07-21T08:04:49Z</time>
      </trkpt>
      <trkpt lat="44.17605" lon="5.27641">
        <ele>1765.6</ele>
        <time>2022-07-21T08:04:50Z</time>
      </trkpt>
      <trkpt lat="44.17604" lon="5.27641">
        <ele>1765.7</ele>
        <time>2022-07-21T08:04:51Z</time>
      </trkpt>
      <trkpt lat="44.17603" lon="5.2764">
        <ele>1765.9</ele>
        <time>2022-07-21T08:04:52Z</time>
      </trkpt>
      <trkpt lat="44.17601" lon="5.27639">
        <ele>1766.1</ele>
        <time>2022-07-21T08:04:53Z</time>
      </trkpt>
      <trkpt lat="44.17599" lon="5.27639">
        <ele>1766.3</ele>
        <time>2022-07-21T08:04:54Z</time>
      </trkpt>
      <trkpt lat="44.17598" lon="5.27638">
        <ele>1766.4</ele>
        <time>2022-07-21T08:04:55Z</time>
      </trkpt>
      <trkpt lat="44.17598" lon="5.27638">
        <ele>1766.5</ele>
        <time>2022-07-21T08:04:56Z</time>
      </trkpt>
      <trkpt lat="44.17597" lon="5.27637">
        <ele>1766.5</ele>
        <time>2022-07-21T08:04:57Z</time>
      </trkpt>
      <trkpt lat="44.17595" lon="5.27637">
        <ele>1766.7</ele>
        <time>2022-07-21T08:04:58Z</time>
      </trkpt>
      <trkpt lat="44.17594" lon="5.27636">
        <ele>1766.8</ele>
        <time>2022-07-21T08:04:59Z</time>
      </trkpt>
      <trkpt lat="44.17592" lon="5.27634">
        <ele>1767.1</ele>
        <time>2022-07-21T08:05:00Z</time>
      </trkpt>
      <trkpt lat="44.17591" lon="5.27634">
        <ele>1767.3</ele>
        <time>2022-07-21T08:05:01Z</time>
      </trkpt>
      <trkpt lat="44.17588" lon="5.27633">
        <ele>1767.6</ele>
        <time>2022-07-21T08:05:02Z</time>
      </trkpt>
      <trkpt lat="44.17585" lon="5.27632">
        <ele>1767.9</ele>
        <time>2022-07-21T08:05:03Z</time>
      </trkpt>
      <trkpt lat="44.17582" lon="5.27631">
        <ele>1768.3</ele>
        <time>2022-07-21T08:05:04Z</time>
      </trkpt>
      <trkpt lat="44.17581" lon="5.27631">
        <ele>1768.4</ele>
        <time>2022-07-21T08:05:05Z</time>
      </trkpt>
      <trkpt lat="44.17579" lon="5.2763">
        <ele>1768.5</ele>
        <time>2022-07-21T08:05:06Z</time>
      </trkpt>
      <trkpt lat="44.17578" lon="5.27629">
        <ele>1768.6</ele>
        <time>2022-07-21T08:05:07Z</time>
      </trkpt>
      <trkpt lat="44.17578" lon="5.27629">
        <ele>1768.7</ele>
        <time>2022-07-21T08:05:08Z</time>
      </trkpt>
      <trkpt lat="44.17577" lon="5.27628">
        <ele>1768.8</ele>
        <time>2022-07-21T08:05:09Z</time>
      </trkpt>
      <trkpt lat="44.17574" lon="5.27627">
        <ele>1769.1</ele>
        <time>2022-07-21T08:05:10Z</time>
      </trkpt>
      <trkpt lat="44.17573" lon="5.27627">
        <ele>1769.3</ele>
        <time>2022-07-21T08:05:11Z</time>
      </trkpt>
      <trkpt lat="44.17572" lon="5.27626">
        <ele>1769.4</ele>
        <time>2022-07-21T08:05:12Z</time>
      </trkpt>
      <trkpt lat="44.17571" lon="5.27626">
        <ele>1769.5</ele>
        <time>2022-07-21T08:05:13Z</time>
      </trkpt>
      <trkpt lat="44.1757" lon="5.27625">
        <ele>1769.6</ele>
        <time>2022-07-21T08:05:14Z</time>
      </trkpt>
      <trkpt lat="44.17568" lon="5.27625">
        <ele>1769.8</ele>
        <time>2022-07-21T08:05:15Z</time>
      </trkpt>
      <trkpt lat="44.17567" lon="5.27624">
        <ele>1770</ele>
        <time>2022-07-21T08:05:16Z</time>
      </trkpt>
      <trkpt lat="44.17565" lon="5.27623">
        <ele>1770.2</ele>
        <time>2022-07-21T08:05:17Z</time>
      </trkpt>
      <trkpt lat="44.17564" lon="5.27623">
        <ele>1770.3</ele>
        <time>2022-07-21T08:05:18Z</time>
      </trkpt>
      <trkpt lat="44.17563" lon="5.27622">
        <ele>1770.4</ele>
        <time>2022-07-21T08:05:19Z</time>
      </trkpt>
      <trkpt lat="44.17562" lon="5.27622">
        <ele>1770.5</ele>
        <time>2022-07-21T08:05:20Z</time>
      </trkpt>
      <trkpt lat="44.17561" lon="5.27622">
        <ele>1770.6</ele>
        <time>2022-07-21T08:05:21Z</time>
      </trkpt>
      <trkpt lat="44.1756" lon="5.27622">
        <ele>1770.7</ele>
        <time>2022-07-21T08:05:22Z</time>
      </trkpt>
      <trkpt lat="44.17559" lon="5.27622">
        <ele>1770.8</ele>
        <time>2022-07-21T08:05:23Z</time>
      </trkpt>
      <trkpt lat="44.17559" lon="5.27622">
        <ele>1770.8</ele>
        <time>2022-07-21T08:05:24Z</time>
      </trkpt>
      <trkpt lat="44.17559" lon="5.27622">
        <ele>1770.8</ele>
        <time>2022-07-21T08:05:25Z</time>
      </trkpt>
      <trkpt lat="44.17558" lon="5.27621">
        <ele>1770.9</ele>
        <time>2022-07-21T08:05:26Z</time>
      </trkpt>
      <trkpt lat="44.17557" lon="5.2762">
        <ele>1771.1</ele>
        <time>2022-07-21T08:05:27Z</time>
      </trkpt>
      <trkpt lat="44.17555" lon="5.27619">
        <ele>1771.3</ele>
        <time>2022-07-21T08:05:28Z</time>
      </trkpt>
      <trkpt lat="44.17554" lon="5.27619">
        <ele>1771.4</ele>
        <time>2022-07-21T08:05:29Z</time>
      </trkpt>
      <trkpt lat="44.17553" lon="5.27618">
        <ele>1771.5</ele>
        <time>2022-07-21T08:05:30Z</time>
      </trkpt>
      <trkpt lat="44.17552" lon="5.27617">
        <ele>1771.6</ele>
        <time>2022-07-21T08:05:31Z</time>
      </trkpt>
      <trkpt lat="44.17551" lon="5.27617">
        <ele>1771.7</ele>
        <time>2022-07-21T08:05:32Z</time>
      </trkpt>
      <trkpt lat="44.1755" lon="5.27616">
        <ele>1771.8</ele>
        <time>2022-07-21T08:05:33Z</time>
      </trkpt>
      <trkpt lat="44.17549" lon="5.27616">
        <ele>1771.9</ele>
        <time>2022-07-21T08:05:34Z</time>
      </trkpt>
      <trkpt lat="44.17548" lon="5.27616">
        <ele>1772.1</ele>
        <time>2022-07-21T08:05:35Z</time>
      </trkpt>
      <trkpt lat="44.17547" lon="5.27616">
        <ele>1772.2</ele>
        <time>2022-07-21T08:05:36Z</time>
      </trkpt>
      <trkpt lat="44.17545" lon="5.27616">
        <ele>1772.4</ele>
        <time>2022-07-21T08:05:37Z</time>
      </trkpt>
      <trkpt lat="44.17544" lon="5.27616">
        <ele>1772.5</ele>
        <time>2022-07-21T08:05:38Z</time>
      </trkpt>
      <trkpt lat="44.17543" lon="5.27616">
        <ele>1772.6</ele>
        <time>2022-07-21T08:05:39Z</time>
      </trkpt>
      <trkpt lat="44.17542" lon="5.27616">
        <ele>1772.7</ele>
        <time>2022-07-21T08:05:40Z</time>
      </trkpt>
      <trkpt lat="44.1754" lon="5.27615">
        <ele>1772.9</ele>
        <time>2022-07-21T08:05:41Z</time>
      </trkpt>
      <trkpt lat="44.17539" lon="5.27615">
        <ele>1773</ele>
        <time>2022-07-21T08:05:42Z</time>
      </trkpt>
      <trkpt lat="44.17538" lon="5.27615">
        <ele>1773.1</ele>
        <time>2022-07-21T08:05:43Z</time>
      </trkpt>
      <trkpt lat="44.17537" lon="5.27615">
        <ele>1773.2</ele>
        <time>2022-07-21T08:05:44Z</time>
      </trkpt>
      <trkpt lat="44.17536" lon="5.27614">
        <ele>1773.3</ele>
        <time>2022-07-21T08:05:45Z</time>
      </trkpt>
      <trkpt lat="44.17535" lon="5.27614">
        <ele>1773.5</ele>
        <time>2022-07-21T08:05:46Z</time>
      </trkpt>
      <trkpt lat="44.17534" lon="5.27614">
        <ele>1773.6</ele>
        <time>2022-07-21T08:05:47Z</time>
      </trkpt>
      <trkpt lat="44.17532" lon="5.27614">
        <ele>1773.8</ele>
        <time>2022-07-21T08:05:48Z</time>
      </trkpt>
      <trkpt lat="44.17532" lon="5.27613">
        <ele>1773.9</ele>
        <time>2022-07-21T08:05:49Z</time>
      </trkpt>
      <trkpt lat="44.17531" lon="5.27613">
        <ele>1774</ele>
        <time>2022-07-21T08:05:50Z</time>
      </trkpt>
      <trkpt lat="44.1753" lon="5.27612">
        <ele>1774.1</ele>
        <time>2022-07-21T08:05:51Z</time>
      </trkpt>
      <trkpt lat="44.1753" lon="5.27612">
        <ele>1774.2</ele>
        <time>2022-07-21T08:05:52Z</time>
      </trkpt>
      <trkpt lat="44.17529" lon="5.27612">
        <ele>1774.2</ele>
        <time>2022-07-21T08:05:53Z</time>
      </trkpt>
      <trkpt lat="44.17528" lon="5.27612">
        <ele>1774.3</ele>
        <time>2022-07-21T08:05:54Z</time>
      </trkpt>
      <trkpt lat="44.17528" lon="5.27612">
        <ele>1774.4</ele>
        <time>2022-07-21T08:05:55Z</time>
      </trkpt>
      <trkpt lat="44.17527" lon="5.27612">
        <ele>1774.4</ele>
        <time>2022-07-21T08:05:56Z</time>
      </trkpt>
      <trkpt lat="44.17527" lon="5.27612">
        <ele>1774.5</ele>
        <time>2022-07-21T08:05:57Z</time>
      </trkpt>
      <trkpt lat="44.17526" lon="5.27611">
        <ele>1774.6</ele>
        <time>2022-07-21T08:05:58Z</time>
      </trkpt>
      <trkpt lat="44.17525" lon="5.27611">
        <ele>1774.7</ele>
        <time>2022-07-21T08:05:59Z</time>
      </trkpt>
      <trkpt lat="44.17524" lon="5.27611">
        <ele>1774.8</ele>
        <time>2022-07-21T08:06:00Z</time>
      </trkpt>
      <trkpt lat="44.17522" lon="5.2761">
        <ele>1775</ele>
        <time>2022-07-21T08:06:01Z</time>
      </trkpt>
      <trkpt lat="44.1752" lon="5.2761">
        <ele>1775.2</ele>
        <time>2022-07-21T08:06:02Z</time>
      </trkpt>
      <trkpt lat="44.17519" lon="5.27609">
        <ele>1775.4</ele>
        <time>2022-07-21T08:06:03Z</time>
      </trkpt>
      <trkpt lat="44.17517" lon="5.27608">
        <ele>1775.6</ele>
        <time>2022-07-21T08:06:04Z</time>
      </trkpt>
      <trkpt lat="44.17516" lon="5.27607">
        <ele>1775.8</ele>
        <time>2022-07-21T08:06:05Z</time>
      </trkpt>
      <trkpt lat="44.17514" lon="5.27607">
        <ele>1775.9</ele>
        <time>2022-07-21T08:06:06Z</time>
      </trkpt>
      <trkpt lat="44.17513" lon="5.27606">
        <ele>1776.1</ele>
        <time>2022-07-21T08:06:07Z</time>
      </trkpt>
      <trkpt lat="44.17512" lon="5.27605">
        <ele>1776.2</ele>
        <time>2022-07-21T08:06:08Z</time>
      </trkpt>
      <trkpt lat="44.1751" lon="5.27604">
        <ele>1776.4</ele>
        <time>2022-07-21T08:06:09Z</time>
      </trkpt>
      <trkpt lat="44.17509" lon="5.27604">
        <ele>1776.6</ele>
        <time>2022-07-21T08:06:10Z</time>
      </trkpt>
      <trkpt lat="44.17507" lon="5.27604">
        <ele>1776.8</ele>
        <time>2022-07-21T08:06:11Z</time>
      </trkpt>
      <trkpt lat="44.17505" lon="5.27603">
        <ele>1777</ele>
        <time>2022-07-21T08:06:12Z</time>
      </trkpt>
      <trkpt lat="44.17503" lon="5.27603">
        <ele>1777.2</ele>
        <time>2022-07-21T08:06:13Z</time>
      </trkpt>
      <trkpt lat="44.17502" lon="5.27603">
        <ele>1777.3</ele>
        <time>2022-07-21T08:06:14Z</time>
      </trkpt>
      <trkpt lat="44.175" lon="5.27602">
        <ele>1777.5</ele>
        <time>2022-07-21T08:06:15Z</time>
      </trkpt>
      <trkpt lat="44.17499" lon="5.27602">
        <ele>1777.7</ele>
        <time>2022-07-21T08:06:16Z</time>
      </trkpt>
      <trkpt lat="44.17497" lon="5.27601">
        <ele>1777.8</ele>
        <time>2022-07-21T08:06:17Z</time>
      </trkpt>
      <trkpt lat="44.17496" lon="5.27601">
        <ele>1778</ele>
        <time>2022-07-21T08:06:18Z</time>
      </trkpt>
      <trkpt lat="44.17494" lon="5.276">
        <ele>1778.2</ele>
        <time>2022-07-21T08:06:19Z</time>
      </trkpt>
      <trkpt lat="44.17493" lon="5.276">
        <ele>1778.3</ele>
        <time>2022-07-21T08:06:20Z</time>
      </trkpt>
      <trkpt lat="44.17491" lon="5.27599">
        <ele>1778.5</ele>
        <time>2022-07-21T08:06:21Z</time>
      </trkpt>
      <trkpt lat="44.1749" lon="5.27599">
        <ele>1778.7</ele>
        <time>2022-07-21T08:06:22Z</time>
      </trkpt>
      <trkpt lat="44.17488" lon="5.27598">
        <ele>1778.8</ele>
        <time>2022-07-21T08:06:23Z</time>
      </trkpt>
      <trkpt lat="44.17487" lon="5.27597">
        <ele>1778.9</ele>
        <time>2022-07-21T08:06:24Z</time>
      </trkpt>
      <trkpt lat="44.17486" lon="5.27597">
        <ele>1779.1</ele>
        <time>2022-07-21T08:06:25Z</time>
      </trkpt>
      <trkpt lat="44.17483" lon="5.27595">
        <ele>1779.4</ele>
        <time>2022-07-21T08:06:26Z</time>
      </trkpt>
      <trkpt lat="44.17482" lon="5.27595">
        <ele>1779.5</ele>
        <time>2022-07-21T08:06:27Z</time>
      </trkpt>
      <trkpt lat="44.1748" lon="5.27595">
        <ele>1779.7</ele>
        <time>2022-07-21T08:06:28Z</time>
      </trkpt>
      <trkpt lat="44.17479" lon="5.27594">
        <ele>1779.9</ele>
        <time>2022-07-21T08:06:29Z</time>
      </trkpt>
      <trkpt lat="44.17477" lon="5.27593">
        <ele>1780.1</ele>
        <time>2022-07-21T08:06:30Z</time>
      </trkpt>
      <trkpt lat="44.17475" lon="5.27592">
        <ele>1780.3</ele>
        <time>2022-07-21T08:06:31Z</time>
      </trkpt>
      <trkpt lat="44.17474" lon="5.27592">
        <ele>1780.4</ele>
        <time>2022-07-21T08:06:32Z</time>
      </trkpt>
      <trkpt lat="44.17472" lon="5.27591">
        <ele>1780.6</ele>
        <time>2022-07-21T08:06:33Z</time>
      </trkpt>
      <trkpt lat="44.17471" lon="5.2759">
        <ele>1780.8</ele>
        <time>2022-07-21T08:06:34Z</time>
      </trkpt>
      <trkpt lat="44.17469" lon="5.2759">
        <ele>1780.9</ele>
        <time>2022-07-21T08:06:35Z</time>
      </trkpt>
      <trkpt lat="44.17468" lon="5.27589">
        <ele>1781</ele>
        <time>2022-07-21T08:06:36Z</time>
      </trkpt>
      <trkpt lat="44.17467" lon="5.27589">
        <ele>1781.1</ele>
        <time>2022-07-21T08:06:37Z</time>
      </trkpt>
      <trkpt lat="44.17466" lon="5.27588">
        <ele>1781.3</ele>
        <time>2022-07-21T08:06:38Z</time>
      </trkpt>
      <trkpt lat="44.17464" lon="5.27586">
        <ele>1781.5</ele>
        <time>2022-07-21T08:06:39Z</time>
      </trkpt>
      <trkpt lat="44.17464" lon="5.27586">
        <ele>1781.6</ele>
        <time>2022-07-21T08:06:40Z</time>
      </trkpt>
      <trkpt lat="44.17463" lon="5.27585">
        <ele>1781.7</ele>
        <time>2022-07-21T08:06:41Z</time>
      </trkpt>
      <trkpt lat="44.17462" lon="5.27584">
        <ele>1781.8</ele>
        <time>2022-07-21T08:06:42Z</time>
      </trkpt>
      <trkpt lat="44.1746" lon="5.27584">
        <ele>1782</ele>
        <time>2022-07-21T08:06:43Z</time>
      </trkpt>
      <trkpt lat="44.17459" lon="5.27583">
        <ele>1782.1</ele>
        <time>2022-07-21T08:06:44Z</time>
      </trkpt>
      <trkpt lat="44.17457" lon="5.27582">
        <ele>1782.3</ele>
        <time>2022-07-21T08:06:45Z</time>
      </trkpt>
      <trkpt lat="44.17456" lon="5.27581">
        <ele>1782.4</ele>
        <time>2022-07-21T08:06:46Z</time>
      </trkpt>
      <trkpt lat="44.17455" lon="5.2758">
        <ele>1782.6</ele>
        <time>2022-07-21T08:06:47Z</time>
      </trkpt>
      <trkpt lat="44.17453" lon="5.27579">
        <ele>1782.8</ele>
        <time>2022-07-21T08:06:48Z</time>
      </trkpt>
      <trkpt lat="44.17452" lon="5.27578">
        <ele>1782.9</ele>
        <time>2022-07-21T08:06:49Z</time>
      </trkpt>
      <trkpt lat="44.17451" lon="5.27577">
        <ele>1783.1</ele>
        <time>2022-07-21T08:06:50Z</time>
      </trkpt>
      <trkpt lat="44.17449" lon="5.27576">
        <ele>1783.2</ele>
        <time>2022-07-21T08:06:51Z</time>
      </trkpt>
      <trkpt lat="44.17448" lon="5.27575">
        <ele>1783.4</ele>
        <time>2022-07-21T08:06:52Z</time>
      </trkpt>
      <trkpt lat="44.17447" lon="5.27574">
        <ele>1783.5</ele>
        <time>2022-07-21T08:06:53Z</time>
      </trkpt>
      <trkpt lat="44.17445" lon="5.27573">
        <ele>1783.7</ele>
        <time>2022-07-21T08:06:54Z</time>
      </trkpt>
      <trkpt lat="44.17445" lon="5.27572">
        <ele>1783.8</ele>
        <time>2022-07-21T08:06:55Z</time>
      </trkpt>
      <trkpt lat="44.17444" lon="5.27571">
        <ele>1783.9</ele>
        <time>2022-07-21T08:06:56Z</time>
      </trkpt>
      <trkpt lat="44.17442" lon="5.27569">
        <ele>1784.1</ele>
        <time>2022-07-21T08:06:57Z</time>
      </trkpt>
      <trkpt lat="44.17442" lon="5.27569">
        <ele>1784.2</ele>
        <time>2022-07-21T08:06:58Z</time>
      </trkpt>
      <trkpt lat="44.17441" lon="5.27568">
        <ele>1784.3</ele>
        <time>2022-07-21T08:06:59Z</time>
      </trkpt>
      <trkpt lat="44.1744" lon="5.27567">
        <ele>1784.4</ele>
        <time>2022-07-21T08:07:00Z</time>
      </trkpt>
      <trkpt lat="44.1744" lon="5.27566">
        <ele>1784.5</ele>
        <time>2022-07-21T08:07:01Z</time>
      </trkpt>
      <trkpt lat="44.17439" lon="5.27564">
        <ele>1784.7</ele>
        <time>2022-07-21T08:07:02Z</time>
      </trkpt>
      <trkpt lat="44.17438" lon="5.27563">
        <ele>1784.8</ele>
        <time>2022-07-21T08:07:03Z</time>
      </trkpt>
      <trkpt lat="44.17437" lon="5.27562">
        <ele>1784.9</ele>
        <time>2022-07-21T08:07:04Z</time>
      </trkpt>
      <trkpt lat="44.17437" lon="5.27561">
        <ele>1785</ele>
        <time>2022-07-21T08:07:05Z</time>
      </trkpt>
      <trkpt lat="44.17436" lon="5.2756">
        <ele>1785.1</ele>
        <time>2022-07-21T08:07:06Z</time>
      </trkpt>
      <trkpt lat="44.17435" lon="5.27558">
        <ele>1785.3</ele>
        <time>2022-07-21T08:07:07Z</time>
      </trkpt>
      <trkpt lat="44.17434" lon="5.27557">
        <ele>1785.4</ele>
        <time>2022-07-21T08:07:08Z</time>
      </trkpt>
      <trkpt lat="44.17433" lon="5.27555">
        <ele>1785.6</ele>
        <time>2022-07-21T08:07:09Z</time>
      </trkpt>
      <trkpt lat="44.17433" lon="5.27554">
        <ele>1785.7</ele>
        <time>2022-07-21T08:07:10Z</time>
      </trkpt>
      <trkpt lat="44.17432" lon="5.27553">
        <ele>1785.8</ele>
        <time>2022-07-21T08:07:11Z</time>
      </trkpt>
      <trkpt lat="44.17431" lon="5.2755">
        <ele>1786</ele>
        <time>2022-07-21T08:07:12Z</time>
      </trkpt>
      <trkpt lat="44.17431" lon="5.27549">
        <ele>1786.1</ele>
        <time>2022-07-21T08:07:13Z</time>
      </trkpt>
      <trkpt lat="44.1743" lon="5.27548">
        <ele>1786.2</ele>
        <time>2022-07-21T08:07:14Z</time>
      </trkpt>
      <trkpt lat="44.1743" lon="5.27547">
        <ele>1786.3</ele>
        <time>2022-07-21T08:07:15Z</time>
      </trkpt>
      <trkpt lat="44.17429" lon="5.27546">
        <ele>1786.4</ele>
        <time>2022-07-21T08:07:16Z</time>
      </trkpt>
      <trkpt lat="44.17428" lon="5.27545">
        <ele>1786.5</ele>
        <time>2022-07-21T08:07:17Z</time>
      </trkpt>
      <trkpt lat="44.17427" lon="5.27543">
        <ele>1786.7</ele>
        <time>2022-07-21T08:07:18Z</time>
      </trkpt>
      <trkpt lat="44.17426" lon="5.27542">
        <ele>1786.8</ele>
        <time>2022-07-21T08:07:19Z</time>
      </trkpt>
      <trkpt lat="44.17426" lon="5.27541">
        <ele>1786.9</ele>
        <time>2022-07-21T08:07:20Z</time>
      </trkpt>
      <trkpt lat="44.17425" lon="5.2754">
        <ele>1787.1</ele>
        <time>2022-07-21T08:07:21Z</time>
      </trkpt>
      <trkpt lat="44.17424" lon="5.27538">
        <ele>1787.2</ele>
        <time>2022-07-21T08:07:22Z</time>
      </trkpt>
      <trkpt lat="44.17422" lon="5.27537">
        <ele>1787.3</ele>
        <time>2022-07-21T08:07:23Z</time>
      </trkpt>
      <trkpt lat="44.17421" lon="5.27536">
        <ele>1787.5</ele>
        <time>2022-07-21T08:07:24Z</time>
      </trkpt>
      <trkpt lat="44.1742" lon="5.27535">
        <ele>1787.6</ele>
        <time>2022-07-21T08:07:25Z</time>
      </trkpt>
      <trkpt lat="44.17419" lon="5.27534">
        <ele>1787.8</ele>
        <time>2022-07-21T08:07:26Z</time>
      </trkpt>
      <trkpt lat="44.17418" lon="5.27532">
        <ele>1787.9</ele>
        <time>2022-07-21T08:07:27Z</time>
      </trkpt>
      <trkpt lat="44.17417" lon="5.27531">
        <ele>1788</ele>
        <time>2022-07-21T08:07:28Z</time>
      </trkpt>
      <trkpt lat="44.17415" lon="5.27529">
        <ele>1788.2</ele>
        <time>2022-07-21T08:07:29Z</time>
      </trkpt>
      <trkpt lat="44.17414" lon="5.27528">
        <ele>1788.3</ele>
        <time>2022-07-21T08:07:30Z</time>
      </trkpt>
      <trkpt lat="44.17414" lon="5.27527">
        <ele>1788.4</ele>
        <time>2022-07-21T08:07:31Z</time>
      </trkpt>
      <trkpt lat="44.17412" lon="5.27525">
        <ele>1788.6</ele>
        <time>2022-07-21T08:07:32Z</time>
      </trkpt>
      <trkpt lat="44.17412" lon="5.27525">
        <ele>1788.7</ele>
        <time>2022-07-21T08:07:33Z</time>
      </trkpt>
      <trkpt lat="44.17411" lon="5.27524">
        <ele>1788.7</ele>
        <time>2022-07-21T08:07:34Z</time>
      </trkpt>
      <trkpt lat="44.17409" lon="5.27522">
        <ele>1788.9</ele>
        <time>2022-07-21T08:07:35Z</time>
      </trkpt>
      <trkpt lat="44.17409" lon="5.27521">
        <ele>1789</ele>
        <time>2022-07-21T08:07:36Z</time>
      </trkpt>
      <trkpt lat="44.17408" lon="5.27521">
        <ele>1789.1</ele>
        <time>2022-07-21T08:07:37Z</time>
      </trkpt>
      <trkpt lat="44.17407" lon="5.27519">
        <ele>1789.2</ele>
        <time>2022-07-21T08:07:38Z</time>
      </trkpt>
      <trkpt lat="44.17406" lon="5.27518">
        <ele>1789.3</ele>
        <time>2022-07-21T08:07:39Z</time>
      </trkpt>
      <trkpt lat="44.17406" lon="5.27517">
        <ele>1789.4</ele>
        <time>2022-07-21T08:07:40Z</time>
      </trkpt>
      <trkpt lat="44.17405" lon="5.27516">
        <ele>1789.5</ele>
        <time>2022-07-21T08:07:41Z</time>
      </trkpt>
      <trkpt lat="44.17404" lon="5.27515">
        <ele>1789.6</ele>
        <time>2022-07-21T08:07:42Z</time>
      </trkpt>
      <trkpt lat="44.17404" lon="5.27513">
        <ele>1789.7</ele>
        <time>2022-07-21T08:07:43Z</time>
      </trkpt>
      <trkpt lat="44.17403" lon="5.27512">
        <ele>1789.8</ele>
        <time>2022-07-21T08:07:44Z</time>
      </trkpt>
      <trkpt lat="44.17402" lon="5.27511">
        <ele>1789.9</ele>
        <time>2022-07-21T08:07:45Z</time>
      </trkpt>
      <trkpt lat="44.17402" lon="5.2751">
        <ele>1790</ele>
        <time>2022-07-21T08:07:46Z</time>
      </trkpt>
      <trkpt lat="44.174" lon="5.27508">
        <ele>1790.2</ele>
        <time>2022-07-21T08:07:47Z</time>
      </trkpt>
      <trkpt lat="44.17399" lon="5.27507">
        <ele>1790.3</ele>
        <time>2022-07-21T08:07:48Z</time>
      </trkpt>
      <trkpt lat="44.17399" lon="5.27506">
        <ele>1790.4</ele>
        <time>2022-07-21T08:07:49Z</time>
      </trkpt>
      <trkpt lat="44.17398" lon="5.27505">
        <ele>1790.5</ele>
        <time>2022-07-21T08:07:50Z</time>
      </trkpt>
      <trkpt lat="44.17397" lon="5.27503">
        <ele>1790.7</ele>
        <time>2022-07-21T08:07:51Z</time>
      </trkpt>
      <trkpt lat="44.17396" lon="5.27501">
        <ele>1790.8</ele>
        <time>2022-07-21T08:07:52Z</time>
      </trkpt>
      <trkpt lat="44.17395" lon="5.275">
        <ele>1791</ele>
        <time>2022-07-21T08:07:53Z</time>
      </trkpt>
      <trkpt lat="44.17394" lon="5.27498">
        <ele>1791.1</ele>
        <time>2022-07-21T08:07:54Z</time>
      </trkpt>
      <trkpt lat="44.17393" lon="5.27497">
        <ele>1791.2</ele>
        <time>2022-07-21T08:07:55Z</time>
      </trkpt>
      <trkpt lat="44.17392" lon="5.27495">
        <ele>1791.4</ele>
        <time>2022-07-21T08:07:56Z</time>
      </trkpt>
      <trkpt lat="44.17391" lon="5.27494">
        <ele>1791.5</ele>
        <time>2022-07-21T08:07:57Z</time>
      </trkpt>
      <trkpt lat="44.1739" lon="5.27493">
        <ele>1791.6</ele>
        <time>2022-07-21T08:07:58Z</time>
      </trkpt>
      <trkpt lat="44.17389" lon="5.27491">
        <ele>1791.7</ele>
        <time>2022-07-21T08:07:59Z</time>
      </trkpt>
      <trkpt lat="44.17388" lon="5.27489">
        <ele>1791.9</ele>
        <time>2022-07-21T08:08:00Z</time>
      </trkpt>
      <trkpt lat="44.17387" lon="5.27488">
        <ele>1792</ele>
        <time>2022-07-21T08:08:01Z</time>
      </trkpt>
      <trkpt lat="44.17387" lon="5.27487">
        <ele>1792</ele>
        <time>2022-07-21T08:08:02Z</time>
      </trkpt>
      <trkpt lat="44.17387" lon="5.27486">
        <ele>1792.1</ele>
        <time>2022-07-21T08:08:03Z</time>
      </trkpt>
      <trkpt lat="44.17386" lon="5.27484">
        <ele>1792.2</ele>
        <time>2022-07-21T08:08:04Z</time>
      </trkpt>
      <trkpt lat="44.17386" lon="5.27483">
        <ele>1792.3</ele>
        <time>2022-07-21T08:08:05Z</time>
      </trkpt>
      <trkpt lat="44.17386" lon="5.2748">
        <ele>1792.5</ele>
        <time>2022-07-21T08:08:06Z</time>
      </trkpt>
      <trkpt lat="44.17386" lon="5.27479">
        <ele>1792.5</ele>
        <time>2022-07-21T08:08:07Z</time>
      </trkpt>
      <trkpt lat="44.17386" lon="5.27478">
        <ele>1792.6</ele>
        <time>2022-07-21T08:08:08Z</time>
      </trkpt>
      <trkpt lat="44.17385" lon="5.27476">
        <ele>1792.7</ele>
        <time>2022-07-21T08:08:09Z</time>
      </trkpt>
      <trkpt lat="44.17385" lon="5.27475">
        <ele>1792.8</ele>
        <time>2022-07-21T08:08:10Z</time>
      </trkpt>
      <trkpt lat="44.17385" lon="5.27474">
        <ele>1792.8</ele>
        <time>2022-07-21T08:08:11Z</time>
      </trkpt>
      <trkpt lat="44.17385" lon="5.27471">
        <ele>1793</ele>
        <time>2022-07-21T08:08:12Z</time>
      </trkpt>
      <trkpt lat="44.17385" lon="5.27469">
        <ele>1793.1</ele>
        <time>2022-07-21T08:08:13Z</time>
      </trkpt>
      <trkpt lat="44.17385" lon="5.27468">
        <ele>1793.1</ele>
        <time>2022-07-21T08:08:14Z</time>
      </trkpt>
      <trkpt lat="44.17384" lon="5.27467">
        <ele>1793.2</ele>
        <time>2022-07-21T08:08:15Z</time>
      </trkpt>
      <trkpt lat="44.17384" lon="5.27465">
        <ele>1793.3</ele>
        <time>2022-07-21T08:08:16Z</time>
      </trkpt>
      <trkpt lat="44.17384" lon="5.27463">
        <ele>1793.4</ele>
        <time>2022-07-21T08:08:17Z</time>
      </trkpt>
      <trkpt lat="44.17384" lon="5.2746">
        <ele>1793.6</ele>
        <time>2022-07-21T08:08:18Z</time>
      </trkpt>
      <trkpt lat="44.17384" lon="5.27459">
        <ele>1793.6</ele>
        <time>2022-07-21T08:08:19Z</time>
      </trkpt>
      <trkpt lat="44.17384" lon="5.27458">
        <ele>1793.7</ele>
        <time>2022-07-21T08:08:20Z</time>
      </trkpt>
      <trkpt lat="44.17383" lon="5.27456">
        <ele>1793.8</ele>
        <time>2022-07-21T08:08:21Z</time>
      </trkpt>
      <trkpt lat="44.17383" lon="5.27455">
        <ele>1793.9</ele>
        <time>2022-07-21T08:08:22Z</time>
      </trkpt>
      <trkpt lat="44.17383" lon="5.27453">
        <ele>1793.9</ele>
        <time>2022-07-21T08:08:23Z</time>
      </trkpt>
      <trkpt lat="44.17382" lon="5.27452">
        <ele>1794</ele>
        <time>2022-07-21T08:08:24Z</time>
      </trkpt>
      <trkpt lat="44.17382" lon="5.2745">
        <ele>1794.1</ele>
        <time>2022-07-21T08:08:25Z</time>
      </trkpt>
      <trkpt lat="44.17382" lon="5.27448">
        <ele>1794.2</ele>
        <time>2022-07-21T08:08:26Z</time>
      </trkpt>
      <trkpt lat="44.17382" lon="5.27447">
        <ele>1794.3</ele>
        <time>2022-07-21T08:08:27Z</time>
      </trkpt>
      <trkpt lat="44.17383" lon="5.27445">
        <ele>1794.4</ele>
        <time>2022-07-21T08:08:28Z</time>
      </trkpt>
      <trkpt lat="44.17383" lon="5.27444">
        <ele>1794.5</ele>
        <time>2022-07-21T08:08:29Z</time>
      </trkpt>
      <trkpt lat="44.17382" lon="5.27442">
        <ele>1794.6</ele>
        <time>2022-07-21T08:08:30Z</time>
      </trkpt>
      <trkpt lat="44.17382" lon="5.2744">
        <ele>1794.7</ele>
        <time>2022-07-21T08:08:31Z</time>
      </trkpt>
      <trkpt lat="44.17382" lon="5.27439">
        <ele>1794.7</ele>
        <time>2022-07-21T08:08:32Z</time>
      </trkpt>
      <trkpt lat="44.17382" lon="5.27437">
        <ele>1794.8</ele>
        <time>2022-07-21T08:08:33Z</time>
      </trkpt>
      <trkpt lat="44.17382" lon="5.27436">
        <ele>1794.9</ele>
        <time>2022-07-21T08:08:34Z</time>
      </trkpt>
      <trkpt lat="44.17382" lon="5.27434">
        <ele>1795</ele>
        <time>2022-07-21T08:08:35Z</time>
      </trkpt>
      <trkpt lat="44.17382" lon="5.27432">
        <ele>1795.1</ele>
        <time>2022-07-21T08:08:36Z</time>
      </trkpt>
      <trkpt lat="44.17382" lon="5.27431">
        <ele>1795.1</ele>
        <time>2022-07-21T08:08:37Z</time>
      </trkpt>
      <trkpt lat="44.17382" lon="5.27429">
        <ele>1795.2</ele>
        <time>2022-07-21T08:08:38Z</time>
      </trkpt>
      <trkpt lat="44.17382" lon="5.27427">
        <ele>1795.3</ele>
        <time>2022-07-21T08:08:39Z</time>
      </trkpt>
      <trkpt lat="44.17382" lon="5.27425">
        <ele>1795.4</ele>
        <time>2022-07-21T08:08:40Z</time>
      </trkpt>
      <trkpt lat="44.17382" lon="5.27423">
        <ele>1795.5</ele>
        <time>2022-07-21T08:08:41Z</time>
      </trkpt>
      <trkpt lat="44.17382" lon="5.27421">
        <ele>1795.6</ele>
        <time>2022-07-21T08:08:42Z</time>
      </trkpt>
      <trkpt lat="44.17381" lon="5.27417">
        <ele>1795.8</ele>
        <time>2022-07-21T08:08:43Z</time>
      </trkpt>
      <trkpt lat="44.17381" lon="5.27416">
        <ele>1795.9</ele>
        <time>2022-07-21T08:08:44Z</time>
      </trkpt>
      <trkpt lat="44.17381" lon="5.27413">
        <ele>1796</ele>
        <time>2022-07-21T08:08:45Z</time>
      </trkpt>
      <trkpt lat="44.17381" lon="5.27411">
        <ele>1796.1</ele>
        <time>2022-07-21T08:08:46Z</time>
      </trkpt>
      <trkpt lat="44.1738" lon="5.27407">
        <ele>1796.3</ele>
        <time>2022-07-21T08:08:47Z</time>
      </trkpt>
      <trkpt lat="44.1738" lon="5.27406">
        <ele>1796.4</ele>
        <time>2022-07-21T08:08:48Z</time>
      </trkpt>
      <trkpt lat="44.1738" lon="5.27403">
        <ele>1796.5</ele>
        <time>2022-07-21T08:08:49Z</time>
      </trkpt>
      <trkpt lat="44.1738" lon="5.27401">
        <ele>1796.6</ele>
        <time>2022-07-21T08:08:50Z</time>
      </trkpt>
      <trkpt lat="44.1738" lon="5.27396">
        <ele>1796.9</ele>
        <time>2022-07-21T08:08:51Z</time>
      </trkpt>
      <trkpt lat="44.1738" lon="5.27395">
        <ele>1796.9</ele>
        <time>2022-07-21T08:08:52Z</time>
      </trkpt>
      <trkpt lat="44.17379" lon="5.27391">
        <ele>1797.2</ele>
        <time>2022-07-21T08:08:53Z</time>
      </trkpt>
      <trkpt lat="44.17379" lon="5.27389">
        <ele>1797.2</ele>
        <time>2022-07-21T08:08:54Z</time>
      </trkpt>
      <trkpt lat="44.17379" lon="5.27385">
        <ele>1797.4</ele>
        <time>2022-07-21T08:08:55Z</time>
      </trkpt>
      <trkpt lat="44.17379" lon="5.27384">
        <ele>1797.5</ele>
        <time>2022-07-21T08:08:56Z</time>
      </trkpt>
      <trkpt lat="44.17379" lon="5.2738">
        <ele>1797.7</ele>
        <time>2022-07-21T08:08:57Z</time>
      </trkpt>
      <trkpt lat="44.17379" lon="5.27378">
        <ele>1797.8</ele>
        <time>2022-07-21T08:08:58Z</time>
      </trkpt>
      <trkpt lat="44.17379" lon="5.27374">
        <ele>1798</ele>
        <time>2022-07-21T08:08:59Z</time>
      </trkpt>
      <trkpt lat="44.17379" lon="5.27373">
        <ele>1798</ele>
        <time>2022-07-21T08:09:00Z</time>
      </trkpt>
      <trkpt lat="44.17379" lon="5.27369">
        <ele>1798.2</ele>
        <time>2022-07-21T08:09:01Z</time>
      </trkpt>
      <trkpt lat="44.17379" lon="5.27367">
        <ele>1798.3</ele>
        <time>2022-07-21T08:09:02Z</time>
      </trkpt>
      <trkpt lat="44.1738" lon="5.27364">
        <ele>1798.5</ele>
        <time>2022-07-21T08:09:03Z</time>
      </trkpt>
      <trkpt lat="44.1738" lon="5.27362">
        <ele>1798.5</ele>
        <time>2022-07-21T08:09:04Z</time>
      </trkpt>
      <trkpt lat="44.1738" lon="5.27358">
        <ele>1798.7</ele>
        <time>2022-07-21T08:09:05Z</time>
      </trkpt>
      <trkpt lat="44.1738" lon="5.27357">
        <ele>1798.8</ele>
        <time>2022-07-21T08:09:06Z</time>
      </trkpt>
      <trkpt lat="44.1738" lon="5.27352">
        <ele>1799</ele>
        <time>2022-07-21T08:09:07Z</time>
      </trkpt>
      <trkpt lat="44.1738" lon="5.27351">
        <ele>1799.1</ele>
        <time>2022-07-21T08:09:08Z</time>
      </trkpt>
      <trkpt lat="44.1738" lon="5.27347">
        <ele>1799.2</ele>
        <time>2022-07-21T08:09:09Z</time>
      </trkpt>
      <trkpt lat="44.1738" lon="5.27346">
        <ele>1799.3</ele>
        <time>2022-07-21T08:09:10Z</time>
      </trkpt>
      <trkpt lat="44.1738" lon="5.27342">
        <ele>1799.5</ele>
        <time>2022-07-21T08:09:11Z</time>
      </trkpt>
      <trkpt lat="44.1738" lon="5.2734">
        <ele>1799.6</ele>
        <time>2022-07-21T08:09:12Z</time>
      </trkpt>
      <trkpt lat="44.1738" lon="5.27336">
        <ele>1799.7</ele>
        <time>2022-07-21T08:09:13Z</time>
      </trkpt>
      <trkpt lat="44.1738" lon="5.27335">
        <ele>1799.8</ele>
        <time>2022-07-21T08:09:14Z</time>
      </trkpt>
      <trkpt lat="44.1738" lon="5.2733">
        <ele>1800</ele>
        <time>2022-07-21T08:09:15Z</time>
      </trkpt>
      <trkpt lat="44.1738" lon="5.27329">
        <ele>1800.1</ele>
        <time>2022-07-21T08:09:16Z</time>
      </trkpt>
      <trkpt lat="44.1738" lon="5.27324">
        <ele>1800.3</ele>
        <time>2022-07-21T08:09:17Z</time>
      </trkpt>
      <trkpt lat="44.1738" lon="5.27323">
        <ele>1800.4</ele>
        <time>2022-07-21T08:09:18Z</time>
      </trkpt>
      <trkpt lat="44.1738" lon="5.27319">
        <ele>1800.6</ele>
        <time>2022-07-21T08:09:19Z</time>
      </trkpt>
      <trkpt lat="44.1738" lon="5.27317">
        <ele>1800.6</ele>
        <time>2022-07-21T08:09:20Z</time>
      </trkpt>
      <trkpt lat="44.1738" lon="5.27314">
        <ele>1800.8</ele>
        <time>2022-07-21T08:09:21Z</time>
      </trkpt>
      <trkpt lat="44.1738" lon="5.27312">
        <ele>1800.9</ele>
        <time>2022-07-21T08:09:22Z</time>
      </trkpt>
      <trkpt lat="44.17381" lon="5.2731">
        <ele>1801</ele>
        <time>2022-07-21T08:09:23Z</time>
      </trkpt>
      <trkpt lat="44.17381" lon="5.27307">
        <ele>1801.1</ele>
        <time>2022-07-21T08:09:24Z</time>
      </trkpt>
      <trkpt lat="44.17381" lon="5.27304">
        <ele>1801.3</ele>
        <time>2022-07-21T08:09:25Z</time>
      </trkpt>
      <trkpt lat="44.17382" lon="5.27302">
        <ele>1801.4</ele>
        <time>2022-07-21T08:09:26Z</time>
      </trkpt>
      <trkpt lat="44.17382" lon="5.273">
        <ele>1801.5</ele>
        <time>2022-07-21T08:09:27Z</time>
      </trkpt>
      <trkpt lat="44.17382" lon="5.27297">
        <ele>1801.6</ele>
        <time>2022-07-21T08:09:28Z</time>
      </trkpt>
      <trkpt lat="44.17383" lon="5.27295">
        <ele>1801.7</ele>
        <time>2022-07-21T08:09:29Z</time>
      </trkpt>
      <trkpt lat="44.17383" lon="5.27293">
        <ele>1801.9</ele>
        <time>2022-07-21T08:09:30Z</time>
      </trkpt>
      <trkpt lat="44.17384" lon="5.27291">
        <ele>1802</ele>
        <time>2022-07-21T08:09:31Z</time>
      </trkpt>
      <trkpt lat="44.17385" lon="5.27288">
        <ele>1802.1</ele>
        <time>2022-07-21T08:09:32Z</time>
      </trkpt>
      <trkpt lat="44.17385" lon="5.27286">
        <ele>1802.2</ele>
        <time>2022-07-21T08:09:33Z</time>
      </trkpt>
      <trkpt lat="44.17386" lon="5.27284">
        <ele>1802.3</ele>
        <time>2022-07-21T08:09:34Z</time>
      </trkpt>
      <trkpt lat="44.17386" lon="5.27282">
        <ele>1802.5</ele>
        <time>2022-07-21T08:09:35Z</time>
      </trkpt>
      <trkpt lat="44.17387" lon="5.27279">
        <ele>1802.6</ele>
        <time>2022-07-21T08:09:36Z</time>
      </trkpt>
      <trkpt lat="44.17387" lon="5.27277">
        <ele>1802.7</ele>
        <time>2022-07-21T08:09:37Z</time>
      </trkpt>
      <trkpt lat="44.17387" lon="5.27275">
        <ele>1802.8</ele>
        <time>2022-07-21T08:09:38Z</time>
      </trkpt>
      <trkpt lat="44.17387" lon="5.27272">
        <ele>1803</ele>
        <time>2022-07-21T08:09:39Z</time>
      </trkpt>
      <trkpt lat="44.17387" lon="5.2727">
        <ele>1803.1</ele>
        <time>2022-07-21T08:09:40Z</time>
      </trkpt>
      <trkpt lat="44.17388" lon="5.27268">
        <ele>1803.2</ele>
        <time>2022-07-21T08:09:41Z</time>
      </trkpt>
      <trkpt lat="44.17388" lon="5.27265">
        <ele>1803.3</ele>
        <time>2022-07-21T08:09:42Z</time>
      </trkpt>
      <trkpt lat="44.17388" lon="5.27262">
        <ele>1803.5</ele>
        <time>2022-07-21T08:09:43Z</time>
      </trkpt>
      <trkpt lat="44.17388" lon="5.27261">
        <ele>1803.5</ele>
        <time>2022-07-21T08:09:44Z</time>
      </trkpt>
      <trkpt lat="44.17388" lon="5.2726">
        <ele>1803.6</ele>
        <time>2022-07-21T08:09:45Z</time>
      </trkpt>
      <trkpt lat="44.17387" lon="5.27256">
        <ele>1803.8</ele>
        <time>2022-07-21T08:09:46Z</time>
      </trkpt>
      <trkpt lat="44.17387" lon="5.27255">
        <ele>1803.8</ele>
        <time>2022-07-21T08:09:47Z</time>
      </trkpt>
      <trkpt lat="44.17387" lon="5.27251">
        <ele>1803.9</ele>
        <time>2022-07-21T08:09:48Z</time>
      </trkpt>
      <trkpt lat="44.17386" lon="5.27249">
        <ele>1803.9</ele>
        <time>2022-07-21T08:09:49Z</time>
      </trkpt>
      <trkpt lat="44.17385" lon="5.27246">
        <ele>1804</ele>
        <time>2022-07-21T08:09:50Z</time>
      </trkpt>
      <trkpt lat="44.17384" lon="5.27245">
        <ele>1804</ele>
        <time>2022-07-21T08:09:51Z</time>
      </trkpt>
      <trkpt lat="44.17383" lon="5.27244">
        <ele>1804.1</ele>
        <time>2022-07-21T08:09:52Z</time>
      </trkpt>
      <trkpt lat="44.17383" lon="5.27243">
        <ele>1804.1</ele>
        <time>2022-07-21T08:09:53Z</time>
      </trkpt>
      <trkpt lat="44.17382" lon="5.27243">
        <ele>1804.1</ele>
        <time>2022-07-21T08:09:54Z</time>
      </trkpt>
      <trkpt lat="44.17382" lon="5.27243">
        <ele>1804.1</ele>
        <time>2022-07-21T08:09:55Z</time>
      </trkpt>
      <trkpt lat="44.17382" lon="5.27243">
        <ele>1804.1</ele>
        <time>2022-07-21T08:09:56Z</time>
      </trkpt>
      <trkpt lat="44.17382" lon="5.27243">
        <ele>1804.1</ele>
        <time>2022-07-21T08:09:57Z</time>
      </trkpt>
      <trkpt lat="44.17382" lon="5.27243">
        <ele>1804.1</ele>
        <time>2022-07-21T08:09:58Z</time>
      </trkpt>
      <trkpt lat="44.17382" lon="5.27243">
        <ele>1804.1</ele>
        <time>2022-07-21T08:09:59Z</time>
      </trkpt>
      <trkpt lat="44.17382" lon="5.27243">
        <ele>1804.1</ele>
        <time>2022-07-21T08:10:00Z</time>
      </trkpt>
      <trkpt lat="44.17382" lon="5.27243">
        <ele>1804.1</ele>
        <time>2022-07-21T08:10:01Z</time>
      </trkpt>
      <trkpt lat="44.17382" lon="5.27243">
        <ele>1804.1</ele>
        <time>2022-07-21T08:10:02Z</time>
      </trkpt>
      <trkpt lat="44.17382" lon="5.27243">
        <ele>1804.1</ele>
        <time>2022-07-21T08:10:03Z</time>
      </trkpt>
      <trkpt lat="44.17378" lon="5.27237">
        <ele>1804.3</ele>
        <time>2022-07-21T08:10:51Z</time>
      </trkpt>
      <trkpt lat="44.17376" lon="5.27236">
        <ele>1804.3</ele>
        <time>2022-07-21T08:10:52Z</time>
      </trkpt>
      <trkpt lat="44.17373" lon="5.27234">
        <ele>1804.4</ele>
        <time>2022-07-21T08:10:53Z</time>
      </trkpt>
      <trkpt lat="44.17372" lon="5.27233">
        <ele>1804.4</ele>
        <time>2022-07-21T08:10:54Z</time>
      </trkpt>
      <trkpt lat="44.17369" lon="5.27232">
        <ele>1804.5</ele>
        <time>2022-07-21T08:10:55Z</time>
      </trkpt>
      <trkpt lat="44.17368" lon="5.27232">
        <ele>1804.6</ele>
        <time>2022-07-21T08:10:56Z</time>
      </trkpt>
      <trkpt lat="44.17364" lon="5.27232">
        <ele>1804.7</ele>
        <time>2022-07-21T08:10:57Z</time>
      </trkpt>
      <trkpt lat="44.17363" lon="5.27232">
        <ele>1804.7</ele>
        <time>2022-07-21T08:10:58Z</time>
      </trkpt>
      <trkpt lat="44.17359" lon="5.27233">
        <ele>1804.8</ele>
        <time>2022-07-21T08:10:59Z</time>
      </trkpt>
      <trkpt lat="44.17358" lon="5.27233">
        <ele>1804.9</ele>
        <time>2022-07-21T08:11:00Z</time>
      </trkpt>
      <trkpt lat="44.17355" lon="5.27235">
        <ele>1805</ele>
        <time>2022-07-21T08:11:01Z</time>
      </trkpt>
      <trkpt lat="44.17354" lon="5.27236">
        <ele>1805</ele>
        <time>2022-07-21T08:11:02Z</time>
      </trkpt>
      <trkpt lat="44.1735" lon="5.27239">
        <ele>1805.1</ele>
        <time>2022-07-21T08:11:03Z</time>
      </trkpt>
      <trkpt lat="44.17349" lon="5.2724">
        <ele>1805.2</ele>
        <time>2022-07-21T08:11:04Z</time>
      </trkpt>
      <trkpt lat="44.17347" lon="5.27244">
        <ele>1805.3</ele>
        <time>2022-07-21T08:11:05Z</time>
      </trkpt>
      <trkpt lat="44.17346" lon="5.27245">
        <ele>1805.3</ele>
        <time>2022-07-21T08:11:06Z</time>
      </trkpt>
      <trkpt lat="44.17344" lon="5.27249">
        <ele>1805.4</ele>
        <time>2022-07-21T08:11:07Z</time>
      </trkpt>
      <trkpt lat="44.17344" lon="5.27251">
        <ele>1805.5</ele>
        <time>2022-07-21T08:11:08Z</time>
      </trkpt>
      <trkpt lat="44.17343" lon="5.27255">
        <ele>1805.6</ele>
        <time>2022-07-21T08:11:09Z</time>
      </trkpt>
      <trkpt lat="44.17342" lon="5.27256">
        <ele>1805.6</ele>
        <time>2022-07-21T08:11:10Z</time>
      </trkpt>
      <trkpt lat="44.17342" lon="5.27261">
        <ele>1805.7</ele>
        <time>2022-07-21T08:11:11Z</time>
      </trkpt>
      <trkpt lat="44.17341" lon="5.27263">
        <ele>1805.7</ele>
        <time>2022-07-21T08:11:12Z</time>
      </trkpt>
      <trkpt lat="44.17342" lon="5.27267">
        <ele>1805.7</ele>
        <time>2022-07-21T08:11:13Z</time>
      </trkpt>
      <trkpt lat="44.17342" lon="5.27269">
        <ele>1805.7</ele>
        <time>2022-07-21T08:11:14Z</time>
      </trkpt>
      <trkpt lat="44.17342" lon="5.27273">
        <ele>1805.8</ele>
        <time>2022-07-21T08:11:15Z</time>
      </trkpt>
      <trkpt lat="44.17342" lon="5.27274">
        <ele>1805.8</ele>
        <time>2022-07-21T08:11:16Z</time>
      </trkpt>
      <trkpt lat="44.17343" lon="5.27279">
        <ele>1805.8</ele>
        <time>2022-07-21T08:11:17Z</time>
      </trkpt>
      <trkpt lat="44.17343" lon="5.2728">
        <ele>1805.8</ele>
        <time>2022-07-21T08:11:18Z</time>
      </trkpt>
      <trkpt lat="44.17344" lon="5.27284">
        <ele>1805.9</ele>
        <time>2022-07-21T08:11:19Z</time>
      </trkpt>
      <trkpt lat="44.17344" lon="5.27286">
        <ele>1805.9</ele>
        <time>2022-07-21T08:11:20Z</time>
      </trkpt>
      <trkpt lat="44.17345" lon="5.2729">
        <ele>1805.9</ele>
        <time>2022-07-21T08:11:21Z</time>
      </trkpt>
      <trkpt lat="44.17345" lon="5.27292">
        <ele>1805.9</ele>
        <time>2022-07-21T08:11:22Z</time>
      </trkpt>
      <trkpt lat="44.17346" lon="5.27296">
        <ele>1806</ele>
        <time>2022-07-21T08:11:23Z</time>
      </trkpt>
      <trkpt lat="44.17346" lon="5.27298">
        <ele>1806</ele>
        <time>2022-07-21T08:11:24Z</time>
      </trkpt>
      <trkpt lat="44.17346" lon="5.27302">
        <ele>1806</ele>
        <time>2022-07-21T08:11:25Z</time>
      </trkpt>
      <trkpt lat="44.17346" lon="5.27303">
        <ele>1806</ele>
        <time>2022-07-21T08:11:26Z</time>
      </trkpt>
      <trkpt lat="44.17347" lon="5.27307">
        <ele>1806.1</ele>
        <time>2022-07-21T08:11:27Z</time>
      </trkpt>
      <trkpt lat="44.17347" lon="5.27309">
        <ele>1806.1</ele>
        <time>2022-07-21T08:11:28Z</time>
      </trkpt>
      <trkpt lat="44.17347" lon="5.27311">
        <ele>1806.1</ele>
        <time>2022-07-21T08:11:29Z</time>
      </trkpt>
      <trkpt lat="44.17347" lon="5.27314">
        <ele>1806.1</ele>
        <time>2022-07-21T08:11:30Z</time>
      </trkpt>
      <trkpt lat="44.17347" lon="5.27318">
        <ele>1806.1</ele>
        <time>2022-07-21T08:11:31Z</time>
      </trkpt>
      <trkpt lat="44.17347" lon="5.27319">
        <ele>1806.1</ele>
        <time>2022-07-21T08:11:32Z</time>
      </trkpt>
      <trkpt lat="44.17347" lon="5.27324">
        <ele>1806.2</ele>
        <time>2022-07-21T08:11:33Z</time>
      </trkpt>
      <trkpt lat="44.17347" lon="5.27325">
        <ele>1806.2</ele>
        <time>2022-07-21T08:11:34Z</time>
      </trkpt>
      <trkpt lat="44.17347" lon="5.27329">
        <ele>1806.2</ele>
        <time>2022-07-21T08:11:35Z</time>
      </trkpt>
      <trkpt lat="44.17347" lon="5.27331">
        <ele>1806.3</ele>
        <time>2022-07-21T08:11:36Z</time>
      </trkpt>
      <trkpt lat="44.17348" lon="5.27334">
        <ele>1806.3</ele>
        <time>2022-07-21T08:11:37Z</time>
      </trkpt>
      <trkpt lat="44.17348" lon="5.27336">
        <ele>1806.3</ele>
        <time>2022-07-21T08:11:38Z</time>
      </trkpt>
      <trkpt lat="44.17348" lon="5.27338">
        <ele>1806.4</ele>
        <time>2022-07-21T08:11:39Z</time>
      </trkpt>
      <trkpt lat="44.17347" lon="5.27341">
        <ele>1806.4</ele>
        <time>2022-07-21T08:11:40Z</time>
      </trkpt>
      <trkpt lat="44.17347" lon="5.27345">
        <ele>1806.5</ele>
        <time>2022-07-21T08:11:41Z</time>
      </trkpt>
      <trkpt lat="44.17347" lon="5.27346">
        <ele>1806.5</ele>
        <time>2022-07-21T08:11:42Z</time>
      </trkpt>
      <trkpt lat="44.17347" lon="5.2735">
        <ele>1806.6</ele>
        <time>2022-07-21T08:11:43Z</time>
      </trkpt>
      <trkpt lat="44.17347" lon="5.27351">
        <ele>1806.6</ele>
        <time>2022-07-21T08:11:44Z</time>
      </trkpt>
      <trkpt lat="44.17348" lon="5.27356">
        <ele>1806.7</ele>
        <time>2022-07-21T08:11:45Z</time>
      </trkpt>
      <trkpt lat="44.17348" lon="5.27357">
        <ele>1806.8</ele>
        <time>2022-07-21T08:11:46Z</time>
      </trkpt>
      <trkpt lat="44.17348" lon="5.27361">
        <ele>1806.9</ele>
        <time>2022-07-21T08:11:47Z</time>
      </trkpt>
      <trkpt lat="44.17349" lon="5.27362">
        <ele>1806.9</ele>
        <time>2022-07-21T08:11:48Z</time>
      </trkpt>
      <trkpt lat="44.17349" lon="5.27365">
        <ele>1807</ele>
        <time>2022-07-21T08:11:49Z</time>
      </trkpt>
      <trkpt lat="44.17348" lon="5.27367">
        <ele>1807</ele>
        <time>2022-07-21T08:11:50Z</time>
      </trkpt>
      <trkpt lat="44.17348" lon="5.27368">
        <ele>1807.1</ele>
        <time>2022-07-21T08:11:51Z</time>
      </trkpt>
      <trkpt lat="44.17348" lon="5.27372">
        <ele>1807.2</ele>
        <time>2022-07-21T08:11:52Z</time>
      </trkpt>
      <trkpt lat="44.17348" lon="5.27373">
        <ele>1807.3</ele>
        <time>2022-07-21T08:11:53Z</time>
      </trkpt>
      <trkpt lat="44.17348" lon="5.27378">
        <ele>1807.4</ele>
        <time>2022-07-21T08:11:54Z</time>
      </trkpt>
      <trkpt lat="44.17348" lon="5.27379">
        <ele>1807.4</ele>
        <time>2022-07-21T08:11:55Z</time>
      </trkpt>
      <trkpt lat="44.17349" lon="5.27383">
        <ele>1807.6</ele>
        <time>2022-07-21T08:11:56Z</time>
      </trkpt>
      <trkpt lat="44.17349" lon="5.27384">
        <ele>1807.6</ele>
        <time>2022-07-21T08:11:57Z</time>
      </trkpt>
      <trkpt lat="44.17349" lon="5.27388">
        <ele>1807.8</ele>
        <time>2022-07-21T08:11:58Z</time>
      </trkpt>
      <trkpt lat="44.17349" lon="5.2739">
        <ele>1807.8</ele>
        <time>2022-07-21T08:11:59Z</time>
      </trkpt>
      <trkpt lat="44.17349" lon="5.27393">
        <ele>1808</ele>
        <time>2022-07-21T08:12:00Z</time>
      </trkpt>
      <trkpt lat="44.17349" lon="5.27395">
        <ele>1808</ele>
        <time>2022-07-21T08:12:01Z</time>
      </trkpt>
      <trkpt lat="44.17349" lon="5.27399">
        <ele>1808.2</ele>
        <time>2022-07-21T08:12:02Z</time>
      </trkpt>
      <trkpt lat="44.17349" lon="5.274">
        <ele>1808.3</ele>
        <time>2022-07-21T08:12:03Z</time>
      </trkpt>
      <trkpt lat="44.17348" lon="5.27402">
        <ele>1808.4</ele>
        <time>2022-07-21T08:12:04Z</time>
      </trkpt>
      <trkpt lat="44.17348" lon="5.27405">
        <ele>1808.5</ele>
        <time>2022-07-21T08:12:05Z</time>
      </trkpt>
      <trkpt lat="44.17347" lon="5.27409">
        <ele>1808.7</ele>
        <time>2022-07-21T08:12:06Z</time>
      </trkpt>
      <trkpt lat="44.17347" lon="5.2741">
        <ele>1808.8</ele>
        <time>2022-07-21T08:12:07Z</time>
      </trkpt>
      <trkpt lat="44.17348" lon="5.27415">
        <ele>1809</ele>
        <time>2022-07-21T08:12:08Z</time>
      </trkpt>
      <trkpt lat="44.17348" lon="5.27416">
        <ele>1809.1</ele>
        <time>2022-07-21T08:12:09Z</time>
      </trkpt>
      <trkpt lat="44.17348" lon="5.27421">
        <ele>1809.3</ele>
        <time>2022-07-21T08:12:10Z</time>
      </trkpt>
      <trkpt lat="44.17348" lon="5.27422">
        <ele>1809.4</ele>
        <time>2022-07-21T08:12:11Z</time>
      </trkpt>
      <trkpt lat="44.17347" lon="5.27426">
        <ele>1809.6</ele>
        <time>2022-07-21T08:12:12Z</time>
      </trkpt>
      <trkpt lat="44.17347" lon="5.27428">
        <ele>1809.7</ele>
        <time>2022-07-21T08:12:13Z</time>
      </trkpt>
      <trkpt lat="44.17347" lon="5.27431">
        <ele>1809.9</ele>
        <time>2022-07-21T08:12:14Z</time>
      </trkpt>
      <trkpt lat="44.17346" lon="5.27433">
        <ele>1810</ele>
        <time>2022-07-21T08:12:15Z</time>
      </trkpt>
      <trkpt lat="44.17346" lon="5.27437">
        <ele>1810.2</ele>
        <time>2022-07-21T08:12:16Z</time>
      </trkpt>
      <trkpt lat="44.17346" lon="5.27438">
        <ele>1810.3</ele>
        <time>2022-07-21T08:12:17Z</time>
      </trkpt>
      <trkpt lat="44.17347" lon="5.27443">
        <ele>1810.5</ele>
        <time>2022-07-21T08:12:18Z</time>
      </trkpt>
      <trkpt lat="44.17347" lon="5.27444">
        <ele>1810.6</ele>
        <time>2022-07-21T08:12:19Z</time>
      </trkpt>
      <trkpt lat="44.17348" lon="5.27449">
        <ele>1810.9</ele>
        <time>2022-07-21T08:12:20Z</time>
      </trkpt>
      <trkpt lat="44.17348" lon="5.2745">
        <ele>1811</ele>
        <time>2022-07-21T08:12:21Z</time>
      </trkpt>
      <trkpt lat="44.17349" lon="5.27454">
        <ele>1811.2</ele>
        <time>2022-07-21T08:12:22Z</time>
      </trkpt>
      <trkpt lat="44.17349" lon="5.27455">
        <ele>1811.3</ele>
        <time>2022-07-21T08:12:23Z</time>
      </trkpt>
      <trkpt lat="44.17349" lon="5.27458">
        <ele>1811.5</ele>
        <time>2022-07-21T08:12:24Z</time>
      </trkpt>
      <trkpt lat="44.17348" lon="5.2746">
        <ele>1811.6</ele>
        <time>2022-07-21T08:12:25Z</time>
      </trkpt>
      <trkpt lat="44.17348" lon="5.27462">
        <ele>1811.7</ele>
        <time>2022-07-21T08:12:26Z</time>
      </trkpt>
      <trkpt lat="44.17348" lon="5.27464">
        <ele>1811.8</ele>
        <time>2022-07-21T08:12:27Z</time>
      </trkpt>
      <trkpt lat="44.17347" lon="5.27466">
        <ele>1812</ele>
        <time>2022-07-21T08:12:28Z</time>
      </trkpt>
      <trkpt lat="44.17346" lon="5.27468">
        <ele>1812.1</ele>
        <time>2022-07-21T08:12:29Z</time>
      </trkpt>
      <trkpt lat="44.17346" lon="5.27471">
        <ele>1812.3</ele>
        <time>2022-07-21T08:12:30Z</time>
      </trkpt>
      <trkpt lat="44.17346" lon="5.27473">
        <ele>1812.4</ele>
        <time>2022-07-21T08:12:31Z</time>
      </trkpt>
      <trkpt lat="44.17346" lon="5.27475">
        <ele>1812.6</ele>
        <time>2022-07-21T08:12:32Z</time>
      </trkpt>
      <trkpt lat="44.17346" lon="5.27477">
        <ele>1812.7</ele>
        <time>2022-07-21T08:12:33Z</time>
      </trkpt>
      <trkpt lat="44.17345" lon="5.2748">
        <ele>1812.9</ele>
        <time>2022-07-21T08:12:34Z</time>
      </trkpt>
      <trkpt lat="44.17345" lon="5.27481">
        <ele>1813</ele>
        <time>2022-07-21T08:12:35Z</time>
      </trkpt>
      <trkpt lat="44.17345" lon="5.27482">
        <ele>1813.1</ele>
        <time>2022-07-21T08:12:36Z</time>
      </trkpt>
      <trkpt lat="44.17345" lon="5.27484">
        <ele>1813.2</ele>
        <time>2022-07-21T08:12:37Z</time>
      </trkpt>
      <trkpt lat="44.17345" lon="5.27486">
        <ele>1813.4</ele>
        <time>2022-07-21T08:12:38Z</time>
      </trkpt>
      <trkpt lat="44.17346" lon="5.27488">
        <ele>1813.5</ele>
        <time>2022-07-21T08:12:39Z</time>
      </trkpt>
      <trkpt lat="44.17346" lon="5.2749">
        <ele>1813.7</ele>
        <time>2022-07-21T08:12:40Z</time>
      </trkpt>
      <trkpt lat="44.17345" lon="5.27492">
        <ele>1813.8</ele>
        <time>2022-07-21T08:12:41Z</time>
      </trkpt>
      <trkpt lat="44.17345" lon="5.27493">
        <ele>1813.9</ele>
        <time>2022-07-21T08:12:42Z</time>
      </trkpt>
      <trkpt lat="44.17344" lon="5.27494">
        <ele>1814</ele>
        <time>2022-07-21T08:12:43Z</time>
      </trkpt>
      <trkpt lat="44.17344" lon="5.27496">
        <ele>1814.1</ele>
        <time>2022-07-21T08:12:44Z</time>
      </trkpt>
      <trkpt lat="44.17344" lon="5.27499">
        <ele>1814.3</ele>
        <time>2022-07-21T08:12:45Z</time>
      </trkpt>
      <trkpt lat="44.17345" lon="5.27503">
        <ele>1814.7</ele>
        <time>2022-07-21T08:12:46Z</time>
      </trkpt>
      <trkpt lat="44.17345" lon="5.27504">
        <ele>1814.8</ele>
        <time>2022-07-21T08:12:47Z</time>
      </trkpt>
      <trkpt lat="44.17345" lon="5.27508">
        <ele>1815.1</ele>
        <time>2022-07-21T08:12:48Z</time>
      </trkpt>
      <trkpt lat="44.17346" lon="5.2751">
        <ele>1815.2</ele>
        <time>2022-07-21T08:12:49Z</time>
      </trkpt>
      <trkpt lat="44.17346" lon="5.27512">
        <ele>1815.3</ele>
        <time>2022-07-21T08:12:50Z</time>
      </trkpt>
      <trkpt lat="44.17346" lon="5.27514">
        <ele>1815.5</ele>
        <time>2022-07-21T08:12:51Z</time>
      </trkpt>
      <trkpt lat="44.17346" lon="5.27516">
        <ele>1815.7</ele>
        <time>2022-07-21T08:12:52Z</time>
      </trkpt>
      <trkpt lat="44.17347" lon="5.27519">
        <ele>1815.8</ele>
        <time>2022-07-21T08:12:53Z</time>
      </trkpt>
      <trkpt lat="44.17347" lon="5.27521">
        <ele>1816</ele>
        <time>2022-07-21T08:12:54Z</time>
      </trkpt>
      <trkpt lat="44.17347" lon="5.27523">
        <ele>1816.2</ele>
        <time>2022-07-21T08:12:55Z</time>
      </trkpt>
      <trkpt lat="44.17347" lon="5.27525">
        <ele>1816.3</ele>
        <time>2022-07-21T08:12:56Z</time>
      </trkpt>
      <trkpt lat="44.17347" lon="5.27527">
        <ele>1816.4</ele>
        <time>2022-07-21T08:12:57Z</time>
      </trkpt>
      <trkpt lat="44.17347" lon="5.27529">
        <ele>1816.5</ele>
        <time>2022-07-21T08:12:58Z</time>
      </trkpt>
      <trkpt lat="44.17348" lon="5.2753">
        <ele>1816.7</ele>
        <time>2022-07-21T08:12:59Z</time>
      </trkpt>
      <trkpt lat="44.17348" lon="5.27532">
        <ele>1816.8</ele>
        <time>2022-07-21T08:13:00Z</time>
      </trkpt>
      <trkpt lat="44.17349" lon="5.27533">
        <ele>1816.9</ele>
        <time>2022-07-21T08:13:01Z</time>
      </trkpt>
      <trkpt lat="44.17349" lon="5.27535">
        <ele>1817</ele>
        <time>2022-07-21T08:13:02Z</time>
      </trkpt>
      <trkpt lat="44.1735" lon="5.27538">
        <ele>1817.2</ele>
        <time>2022-07-21T08:13:03Z</time>
      </trkpt>
      <trkpt lat="44.1735" lon="5.2754">
        <ele>1817.4</ele>
        <time>2022-07-21T08:13:04Z</time>
      </trkpt>
      <trkpt lat="44.17351" lon="5.27543">
        <ele>1817.6</ele>
        <time>2022-07-21T08:13:05Z</time>
      </trkpt>
      <trkpt lat="44.17351" lon="5.27545">
        <ele>1817.7</ele>
        <time>2022-07-21T08:13:06Z</time>
      </trkpt>
      <trkpt lat="44.17352" lon="5.27547">
        <ele>1817.9</ele>
        <time>2022-07-21T08:13:07Z</time>
      </trkpt>
      <trkpt lat="44.17353" lon="5.27549">
        <ele>1818</ele>
        <time>2022-07-21T08:13:08Z</time>
      </trkpt>
      <trkpt lat="44.17354" lon="5.27551">
        <ele>1818.1</ele>
        <time>2022-07-21T08:13:09Z</time>
      </trkpt>
      <trkpt lat="44.17354" lon="5.27553">
        <ele>1818.3</ele>
        <time>2022-07-21T08:13:10Z</time>
      </trkpt>
      <trkpt lat="44.17355" lon="5.27555">
        <ele>1818.4</ele>
        <time>2022-07-21T08:13:11Z</time>
      </trkpt>
      <trkpt lat="44.17356" lon="5.27557">
        <ele>1818.6</ele>
        <time>2022-07-21T08:13:12Z</time>
      </trkpt>
      <trkpt lat="44.17358" lon="5.2756">
        <ele>1818.9</ele>
        <time>2022-07-21T08:13:13Z</time>
      </trkpt>
      <trkpt lat="44.17359" lon="5.27561">
        <ele>1819</ele>
        <time>2022-07-21T08:13:14Z</time>
      </trkpt>
      <trkpt lat="44.17361" lon="5.27564">
        <ele>1819.2</ele>
        <time>2022-07-21T08:13:15Z</time>
      </trkpt>
      <trkpt lat="44.17361" lon="5.27565">
        <ele>1819.3</ele>
        <time>2022-07-21T08:13:16Z</time>
      </trkpt>
      <trkpt lat="44.17362" lon="5.27567">
        <ele>1819.4</ele>
        <time>2022-07-21T08:13:17Z</time>
      </trkpt>
      <trkpt lat="44.17362" lon="5.27569">
        <ele>1819.6</ele>
        <time>2022-07-21T08:13:18Z</time>
      </trkpt>
      <trkpt lat="44.17363" lon="5.27571">
        <ele>1819.7</ele>
        <time>2022-07-21T08:13:19Z</time>
      </trkpt>
      <trkpt lat="44.17364" lon="5.27572">
        <ele>1819.8</ele>
        <time>2022-07-21T08:13:20Z</time>
      </trkpt>
      <trkpt lat="44.17365" lon="5.27574">
        <ele>1820</ele>
        <time>2022-07-21T08:13:21Z</time>
      </trkpt>
      <trkpt lat="44.17365" lon="5.27576">
        <ele>1820.1</ele>
        <time>2022-07-21T08:13:22Z</time>
      </trkpt>
      <trkpt lat="44.17366" lon="5.27577">
        <ele>1820.2</ele>
        <time>2022-07-21T08:13:23Z</time>
      </trkpt>
      <trkpt lat="44.17366" lon="5.27579">
        <ele>1820.3</ele>
        <time>2022-07-21T08:13:24Z</time>
      </trkpt>
      <trkpt lat="44.17367" lon="5.2758">
        <ele>1820.4</ele>
        <time>2022-07-21T08:13:25Z</time>
      </trkpt>
      <trkpt lat="44.17368" lon="5.27582">
        <ele>1820.5</ele>
        <time>2022-07-21T08:13:26Z</time>
      </trkpt>
      <trkpt lat="44.17369" lon="5.27584">
        <ele>1820.7</ele>
        <time>2022-07-21T08:13:27Z</time>
      </trkpt>
      <trkpt lat="44.1737" lon="5.27586">
        <ele>1820.8</ele>
        <time>2022-07-21T08:13:28Z</time>
      </trkpt>
      <trkpt lat="44.17371" lon="5.27587">
        <ele>1820.9</ele>
        <time>2022-07-21T08:13:29Z</time>
      </trkpt>
      <trkpt lat="44.17371" lon="5.27589">
        <ele>1821</ele>
        <time>2022-07-21T08:13:30Z</time>
      </trkpt>
      <trkpt lat="44.17372" lon="5.2759">
        <ele>1821.2</ele>
        <time>2022-07-21T08:13:31Z</time>
      </trkpt>
      <trkpt lat="44.17373" lon="5.27592">
        <ele>1821.3</ele>
        <time>2022-07-21T08:13:32Z</time>
      </trkpt>
      <trkpt lat="44.17374" lon="5.27594">
        <ele>1821.4</ele>
        <time>2022-07-21T08:13:33Z</time>
      </trkpt>
      <trkpt lat="44.17376" lon="5.27596">
        <ele>1821.7</ele>
        <time>2022-07-21T08:13:34Z</time>
      </trkpt>
      <trkpt lat="44.17377" lon="5.27597">
        <ele>1821.7</ele>
        <time>2022-07-21T08:13:35Z</time>
      </trkpt>
      <trkpt lat="44.17378" lon="5.27599">
        <ele>1821.9</ele>
        <time>2022-07-21T08:13:36Z</time>
      </trkpt>
      <trkpt lat="44.17379" lon="5.276">
        <ele>1822</ele>
        <time>2022-07-21T08:13:37Z</time>
      </trkpt>
      <trkpt lat="44.1738" lon="5.27602">
        <ele>1822.1</ele>
        <time>2022-07-21T08:13:38Z</time>
      </trkpt>
      <trkpt lat="44.1738" lon="5.27603">
        <ele>1822.2</ele>
        <time>2022-07-21T08:13:39Z</time>
      </trkpt>
      <trkpt lat="44.17381" lon="5.27604">
        <ele>1822.3</ele>
        <time>2022-07-21T08:13:40Z</time>
      </trkpt>
      <trkpt lat="44.17381" lon="5.27605">
        <ele>1822.4</ele>
        <time>2022-07-21T08:13:41Z</time>
      </trkpt>
      <trkpt lat="44.17382" lon="5.27606">
        <ele>1822.4</ele>
        <time>2022-07-21T08:13:42Z</time>
      </trkpt>
      <trkpt lat="44.17382" lon="5.27607">
        <ele>1822.5</ele>
        <time>2022-07-21T08:13:43Z</time>
      </trkpt>
      <trkpt lat="44.17383" lon="5.2761">
        <ele>1822.7</ele>
        <time>2022-07-21T08:13:44Z</time>
      </trkpt>
      <trkpt lat="44.17383" lon="5.27611">
        <ele>1822.8</ele>
        <time>2022-07-21T08:13:45Z</time>
      </trkpt>
      <trkpt lat="44.17383" lon="5.27612">
        <ele>1822.9</ele>
        <time>2022-07-21T08:13:46Z</time>
      </trkpt>
      <trkpt lat="44.17384" lon="5.27614">
        <ele>1823</ele>
        <time>2022-07-21T08:13:47Z</time>
      </trkpt>
      <trkpt lat="44.17384" lon="5.27616">
        <ele>1823.1</ele>
        <time>2022-07-21T08:13:48Z</time>
      </trkpt>
      <trkpt lat="44.17385" lon="5.27618">
        <ele>1823.2</ele>
        <time>2022-07-21T08:13:49Z</time>
      </trkpt>
      <trkpt lat="44.17386" lon="5.27619">
        <ele>1823.4</ele>
        <time>2022-07-21T08:13:50Z</time>
      </trkpt>
      <trkpt lat="44.17387" lon="5.27621">
        <ele>1823.5</ele>
        <time>2022-07-21T08:13:51Z</time>
      </trkpt>
      <trkpt lat="44.17387" lon="5.27622">
        <ele>1823.6</ele>
        <time>2022-07-21T08:13:52Z</time>
      </trkpt>
      <trkpt lat="44.17388" lon="5.27624">
        <ele>1823.7</ele>
        <time>2022-07-21T08:13:53Z</time>
      </trkpt>
      <trkpt lat="44.17388" lon="5.27625">
        <ele>1823.9</ele>
        <time>2022-07-21T08:13:54Z</time>
      </trkpt>
      <trkpt lat="44.17389" lon="5.27627">
        <ele>1824</ele>
        <time>2022-07-21T08:13:55Z</time>
      </trkpt>
      <trkpt lat="44.1739" lon="5.27629">
        <ele>1824.2</ele>
        <time>2022-07-21T08:13:56Z</time>
      </trkpt>
      <trkpt lat="44.1739" lon="5.27629">
        <ele>1824.2</ele>
        <time>2022-07-21T08:13:57Z</time>
      </trkpt>
      <trkpt lat="44.1739" lon="5.27629">
        <ele>1824.2</ele>
        <time>2022-07-21T08:13:58Z</time>
      </trkpt>
      <trkpt lat="44.1739" lon="5.27629">
        <ele>1824.2</ele>
        <time>2022-07-21T08:13:59Z</time>
      </trkpt>
      <trkpt lat="44.1739" lon="5.27629">
        <ele>1824.2</ele>
        <time>2022-07-21T08:14:00Z</time>
      </trkpt>
      <trkpt lat="44.1739" lon="5.27629">
        <ele>1824.2</ele>
        <time>2022-07-21T08:14:01Z</time>
      </trkpt>
      <trkpt lat="44.1739" lon="5.27629">
        <ele>1824.2</ele>
        <time>2022-07-21T08:14:02Z</time>
      </trkpt>
      <trkpt lat="44.1739" lon="5.27629">
        <ele>1824.2</ele>
        <time>2022-07-21T08:14:03Z</time>
      </trkpt>
      <trkpt lat="44.1739" lon="5.27629">
        <ele>1824.2</ele>
        <time>2022-07-21T08:14:04Z</time>
      </trkpt>
      <trkpt lat="44.1739" lon="5.27629">
        <ele>1824.2</ele>
        <time>2022-07-21T08:14:05Z</time>
      </trkpt>
      <trkpt lat="44.1739" lon="5.27629">
        <ele>1824.2</ele>
        <time>2022-07-21T08:14:06Z</time>
      </trkpt>
      <trkpt lat="44.17395" lon="5.27639">
        <ele>1825.1</ele>
        <time>2022-07-21T08:16:36Z</time>
      </trkpt>
      <trkpt lat="44.17396" lon="5.27641">
        <ele>1825.2</ele>
        <time>2022-07-21T08:16:37Z</time>
      </trkpt>
      <trkpt lat="44.17397" lon="5.27644">
        <ele>1825.5</ele>
        <time>2022-07-21T08:16:38Z</time>
      </trkpt>
      <trkpt lat="44.17398" lon="5.27645">
        <ele>1825.6</ele>
        <time>2022-07-21T08:16:39Z</time>
      </trkpt>
      <trkpt lat="44.17398" lon="5.27646">
        <ele>1825.7</ele>
        <time>2022-07-21T08:16:40Z</time>
      </trkpt>
      <trkpt lat="44.17399" lon="5.27648">
        <ele>1825.8</ele>
        <time>2022-07-21T08:16:41Z</time>
      </trkpt>
      <trkpt lat="44.17399" lon="5.27649">
        <ele>1826</ele>
        <time>2022-07-21T08:16:42Z</time>
      </trkpt>
      <trkpt lat="44.174" lon="5.27651">
        <ele>1826.1</ele>
        <time>2022-07-21T08:16:43Z</time>
      </trkpt>
      <trkpt lat="44.17401" lon="5.27653">
        <ele>1826.3</ele>
        <time>2022-07-21T08:16:44Z</time>
      </trkpt>
      <trkpt lat="44.17402" lon="5.27656">
        <ele>1826.5</ele>
        <time>2022-07-21T08:16:45Z</time>
      </trkpt>
      <trkpt lat="44.17402" lon="5.27657">
        <ele>1826.6</ele>
        <time>2022-07-21T08:16:46Z</time>
      </trkpt>
      <trkpt lat="44.17403" lon="5.27658">
        <ele>1826.7</ele>
        <time>2022-07-21T08:16:47Z</time>
      </trkpt>
      <trkpt lat="44.17403" lon="5.2766">
        <ele>1826.9</ele>
        <time>2022-07-21T08:16:48Z</time>
      </trkpt>
      <trkpt lat="44.17404" lon="5.27662">
        <ele>1827.1</ele>
        <time>2022-07-21T08:16:49Z</time>
      </trkpt>
      <trkpt lat="44.17405" lon="5.27664">
        <ele>1827.2</ele>
        <time>2022-07-21T08:16:50Z</time>
      </trkpt>
      <trkpt lat="44.17405" lon="5.27665">
        <ele>1827.3</ele>
        <time>2022-07-21T08:16:51Z</time>
      </trkpt>
      <trkpt lat="44.17406" lon="5.27666">
        <ele>1827.4</ele>
        <time>2022-07-21T08:16:52Z</time>
      </trkpt>
      <trkpt lat="44.17406" lon="5.27667">
        <ele>1827.5</ele>
        <time>2022-07-21T08:16:53Z</time>
      </trkpt>
      <trkpt lat="44.17407" lon="5.27669">
        <ele>1827.7</ele>
        <time>2022-07-21T08:16:54Z</time>
      </trkpt>
      <trkpt lat="44.17407" lon="5.2767">
        <ele>1827.8</ele>
        <time>2022-07-21T08:16:55Z</time>
      </trkpt>
      <trkpt lat="44.17408" lon="5.27671">
        <ele>1827.9</ele>
        <time>2022-07-21T08:16:56Z</time>
      </trkpt>
      <trkpt lat="44.17408" lon="5.27673">
        <ele>1828</ele>
        <time>2022-07-21T08:16:57Z</time>
      </trkpt>
      <trkpt lat="44.17409" lon="5.27675">
        <ele>1828.2</ele>
        <time>2022-07-21T08:16:58Z</time>
      </trkpt>
      <trkpt lat="44.1741" lon="5.27677">
        <ele>1828.4</ele>
        <time>2022-07-21T08:16:59Z</time>
      </trkpt>
      <trkpt lat="44.1741" lon="5.27678">
        <ele>1828.5</ele>
        <time>2022-07-21T08:17:00Z</time>
      </trkpt>
      <trkpt lat="44.17411" lon="5.27679">
        <ele>1828.6</ele>
        <time>2022-07-21T08:17:01Z</time>
      </trkpt>
      <trkpt lat="44.17412" lon="5.27681">
        <ele>1828.8</ele>
        <time>2022-07-21T08:17:02Z</time>
      </trkpt>
      <trkpt lat="44.17413" lon="5.27682">
        <ele>1829</ele>
        <time>2022-07-21T08:17:03Z</time>
      </trkpt>
      <trkpt lat="44.17414" lon="5.27684">
        <ele>1829.1</ele>
        <time>2022-07-21T08:17:04Z</time>
      </trkpt>
      <trkpt lat="44.17416" lon="5.27686">
        <ele>1829.4</ele>
        <time>2022-07-21T08:17:05Z</time>
      </trkpt>
      <trkpt lat="44.17419" lon="5.27688">
        <ele>1829.7</ele>
        <time>2022-07-21T08:17:06Z</time>
      </trkpt>
      <trkpt lat="44.1742" lon="5.27689">
        <ele>1829.8</ele>
        <time>2022-07-21T08:17:07Z</time>
      </trkpt>
      <trkpt lat="44.17421" lon="5.2769">
        <ele>1830</ele>
        <time>2022-07-21T08:17:08Z</time>
      </trkpt>
      <trkpt lat="44.17423" lon="5.27691">
        <ele>1830.2</ele>
        <time>2022-07-21T08:17:09Z</time>
      </trkpt>
      <trkpt lat="44.17424" lon="5.27693">
        <ele>1830.4</ele>
        <time>2022-07-21T08:17:10Z</time>
      </trkpt>
      <trkpt lat="44.17425" lon="5.27693">
        <ele>1830.5</ele>
        <time>2022-07-21T08:17:11Z</time>
      </trkpt>
      <trkpt lat="44.17425" lon="5.27694">
        <ele>1830.6</ele>
        <time>2022-07-21T08:17:12Z</time>
      </trkpt>
      <trkpt lat="44.17426" lon="5.27696">
        <ele>1830.8</ele>
        <time>2022-07-21T08:17:13Z</time>
      </trkpt>
      <trkpt lat="44.17427" lon="5.27697">
        <ele>1830.9</ele>
        <time>2022-07-21T08:17:14Z</time>
      </trkpt>
      <trkpt lat="44.17427" lon="5.27697">
        <ele>1831</ele>
        <time>2022-07-21T08:17:15Z</time>
      </trkpt>
      <trkpt lat="44.17428" lon="5.27698">
        <ele>1831</ele>
        <time>2022-07-21T08:17:16Z</time>
      </trkpt>
      <trkpt lat="44.17428" lon="5.27699">
        <ele>1831.1</ele>
        <time>2022-07-21T08:17:17Z</time>
      </trkpt>
      <trkpt lat="44.17429" lon="5.277">
        <ele>1831.2</ele>
        <time>2022-07-21T08:17:18Z</time>
      </trkpt>
      <trkpt lat="44.1743" lon="5.27701">
        <ele>1831.4</ele>
        <time>2022-07-21T08:17:19Z</time>
      </trkpt>
      <trkpt lat="44.17431" lon="5.27703">
        <ele>1831.6</ele>
        <time>2022-07-21T08:17:20Z</time>
      </trkpt>
      <trkpt lat="44.17433" lon="5.27704">
        <ele>1831.7</ele>
        <time>2022-07-21T08:17:21Z</time>
      </trkpt>
      <trkpt lat="44.17434" lon="5.27705">
        <ele>1831.9</ele>
        <time>2022-07-21T08:17:22Z</time>
      </trkpt>
      <trkpt lat="44.17435" lon="5.27706">
        <ele>1832</ele>
        <time>2022-07-21T08:17:23Z</time>
      </trkpt>
      <trkpt lat="44.17436" lon="5.27708">
        <ele>1832.2</ele>
        <time>2022-07-21T08:17:24Z</time>
      </trkpt>
      <trkpt lat="44.17437" lon="5.27709">
        <ele>1832.3</ele>
        <time>2022-07-21T08:17:25Z</time>
      </trkpt>
      <trkpt lat="44.17439" lon="5.27712">
        <ele>1832.6</ele>
        <time>2022-07-21T08:17:26Z</time>
      </trkpt>
      <trkpt lat="44.17439" lon="5.27713">
        <ele>1832.7</ele>
        <time>2022-07-21T08:17:27Z</time>
      </trkpt>
      <trkpt lat="44.1744" lon="5.27714">
        <ele>1832.8</ele>
        <time>2022-07-21T08:17:28Z</time>
      </trkpt>
      <trkpt lat="44.17442" lon="5.27716">
        <ele>1833.1</ele>
        <time>2022-07-21T08:17:29Z</time>
      </trkpt>
      <trkpt lat="44.17443" lon="5.27717">
        <ele>1833.2</ele>
        <time>2022-07-21T08:17:30Z</time>
      </trkpt>
      <trkpt lat="44.17445" lon="5.27719">
        <ele>1833.4</ele>
        <time>2022-07-21T08:17:31Z</time>
      </trkpt>
      <trkpt lat="44.17446" lon="5.2772">
        <ele>1833.6</ele>
        <time>2022-07-21T08:17:32Z</time>
      </trkpt>
      <trkpt lat="44.17447" lon="5.27722">
        <ele>1833.7</ele>
        <time>2022-07-21T08:17:33Z</time>
      </trkpt>
      <trkpt lat="44.17448" lon="5.27723">
        <ele>1833.9</ele>
        <time>2022-07-21T08:17:34Z</time>
      </trkpt>
      <trkpt lat="44.17449" lon="5.27724">
        <ele>1834</ele>
        <time>2022-07-21T08:17:35Z</time>
      </trkpt>
      <trkpt lat="44.17451" lon="5.27726">
        <ele>1834.2</ele>
        <time>2022-07-21T08:17:36Z</time>
      </trkpt>
      <trkpt lat="44.17452" lon="5.27727">
        <ele>1834.4</ele>
        <time>2022-07-21T08:17:37Z</time>
      </trkpt>
      <trkpt lat="44.17453" lon="5.27728">
        <ele>1834.6</ele>
        <time>2022-07-21T08:17:38Z</time>
      </trkpt>
      <trkpt lat="44.17454" lon="5.2773">
        <ele>1834.7</ele>
        <time>2022-07-21T08:17:39Z</time>
      </trkpt>
      <trkpt lat="44.17456" lon="5.27731">
        <ele>1834.9</ele>
        <time>2022-07-21T08:17:40Z</time>
      </trkpt>
      <trkpt lat="44.17457" lon="5.27732">
        <ele>1835</ele>
        <time>2022-07-21T08:17:41Z</time>
      </trkpt>
      <trkpt lat="44.17458" lon="5.27734">
        <ele>1835.2</ele>
        <time>2022-07-21T08:17:42Z</time>
      </trkpt>
      <trkpt lat="44.1746" lon="5.27735">
        <ele>1835.4</ele>
        <time>2022-07-21T08:17:43Z</time>
      </trkpt>
      <trkpt lat="44.17461" lon="5.27736">
        <ele>1835.6</ele>
        <time>2022-07-21T08:17:44Z</time>
      </trkpt>
      <trkpt lat="44.17463" lon="5.27737">
        <ele>1835.7</ele>
        <time>2022-07-21T08:17:45Z</time>
      </trkpt>
      <trkpt lat="44.17464" lon="5.27738">
        <ele>1835.9</ele>
        <time>2022-07-21T08:17:46Z</time>
      </trkpt>
      <trkpt lat="44.17465" lon="5.27739">
        <ele>1836</ele>
        <time>2022-07-21T08:17:47Z</time>
      </trkpt>
      <trkpt lat="44.17466" lon="5.2774">
        <ele>1836.1</ele>
        <time>2022-07-21T08:17:48Z</time>
      </trkpt>
      <trkpt lat="44.17467" lon="5.27742">
        <ele>1836.3</ele>
        <time>2022-07-21T08:17:49Z</time>
      </trkpt>
      <trkpt lat="44.17468" lon="5.27743">
        <ele>1836.5</ele>
        <time>2022-07-21T08:17:50Z</time>
      </trkpt>
      <trkpt lat="44.17469" lon="5.27744">
        <ele>1836.6</ele>
        <time>2022-07-21T08:17:51Z</time>
      </trkpt>
      <trkpt lat="44.1747" lon="5.27745">
        <ele>1836.6</ele>
        <time>2022-07-21T08:17:52Z</time>
      </trkpt>
      <trkpt lat="44.1747" lon="5.27746">
        <ele>1836.8</ele>
        <time>2022-07-21T08:17:53Z</time>
      </trkpt>
      <trkpt lat="44.17472" lon="5.27747">
        <ele>1836.9</ele>
        <time>2022-07-21T08:17:54Z</time>
      </trkpt>
      <trkpt lat="44.17473" lon="5.27749">
        <ele>1837.1</ele>
        <time>2022-07-21T08:17:55Z</time>
      </trkpt>
      <trkpt lat="44.17473" lon="5.2775">
        <ele>1837.2</ele>
        <time>2022-07-21T08:17:56Z</time>
      </trkpt>
      <trkpt lat="44.17474" lon="5.27751">
        <ele>1837.3</ele>
        <time>2022-07-21T08:17:57Z</time>
      </trkpt>
      <trkpt lat="44.17475" lon="5.27752">
        <ele>1837.4</ele>
        <time>2022-07-21T08:17:58Z</time>
      </trkpt>
      <trkpt lat="44.17476" lon="5.27754">
        <ele>1837.6</ele>
        <time>2022-07-21T08:17:59Z</time>
      </trkpt>
      <trkpt lat="44.17477" lon="5.27755">
        <ele>1837.8</ele>
        <time>2022-07-21T08:18:00Z</time>
      </trkpt>
      <trkpt lat="44.17478" lon="5.27757">
        <ele>1837.9</ele>
        <time>2022-07-21T08:18:01Z</time>
      </trkpt>
      <trkpt lat="44.17479" lon="5.27758">
        <ele>1838.1</ele>
        <time>2022-07-21T08:18:02Z</time>
      </trkpt>
      <trkpt lat="44.1748" lon="5.2776">
        <ele>1838.3</ele>
        <time>2022-07-21T08:18:03Z</time>
      </trkpt>
      <trkpt lat="44.17481" lon="5.27761">
        <ele>1838.4</ele>
        <time>2022-07-21T08:18:04Z</time>
      </trkpt>
      <trkpt lat="44.17483" lon="5.27763">
        <ele>1838.6</ele>
        <time>2022-07-21T08:18:05Z</time>
      </trkpt>
      <trkpt lat="44.17484" lon="5.27764">
        <ele>1838.8</ele>
        <time>2022-07-21T08:18:06Z</time>
      </trkpt>
      <trkpt lat="44.17485" lon="5.27766">
        <ele>1839</ele>
        <time>2022-07-21T08:18:07Z</time>
      </trkpt>
      <trkpt lat="44.17486" lon="5.27767">
        <ele>1839.2</ele>
        <time>2022-07-21T08:18:08Z</time>
      </trkpt>
      <trkpt lat="44.17487" lon="5.27769">
        <ele>1839.4</ele>
        <time>2022-07-21T08:18:09Z</time>
      </trkpt>
      <trkpt lat="44.17488" lon="5.27771">
        <ele>1839.6</ele>
        <time>2022-07-21T08:18:10Z</time>
      </trkpt>
      <trkpt lat="44.1749" lon="5.27773">
        <ele>1839.8</ele>
        <time>2022-07-21T08:18:11Z</time>
      </trkpt>
      <trkpt lat="44.17491" lon="5.27775">
        <ele>1840</ele>
        <time>2022-07-21T08:18:12Z</time>
      </trkpt>
      <trkpt lat="44.17492" lon="5.27776">
        <ele>1840.2</ele>
        <time>2022-07-21T08:18:13Z</time>
      </trkpt>
      <trkpt lat="44.17493" lon="5.27778">
        <ele>1840.4</ele>
        <time>2022-07-21T08:18:14Z</time>
      </trkpt>
      <trkpt lat="44.17494" lon="5.2778">
        <ele>1840.6</ele>
        <time>2022-07-21T08:18:15Z</time>
      </trkpt>
      <trkpt lat="44.17494" lon="5.27782">
        <ele>1840.8</ele>
        <time>2022-07-21T08:18:16Z</time>
      </trkpt>
      <trkpt lat="44.17496" lon="5.27784">
        <ele>1841</ele>
        <time>2022-07-21T08:18:17Z</time>
      </trkpt>
      <trkpt lat="44.17497" lon="5.27785">
        <ele>1841.1</ele>
        <time>2022-07-21T08:18:18Z</time>
      </trkpt>
      <trkpt lat="44.17498" lon="5.27788">
        <ele>1841.4</ele>
        <time>2022-07-21T08:18:19Z</time>
      </trkpt>
      <trkpt lat="44.17498" lon="5.27789">
        <ele>1841.5</ele>
        <time>2022-07-21T08:18:20Z</time>
      </trkpt>
      <trkpt lat="44.17499" lon="5.2779">
        <ele>1841.6</ele>
        <time>2022-07-21T08:18:21Z</time>
      </trkpt>
      <trkpt lat="44.17499" lon="5.27792">
        <ele>1841.8</ele>
        <time>2022-07-21T08:18:22Z</time>
      </trkpt>
      <trkpt lat="44.175" lon="5.27794">
        <ele>1842</ele>
        <time>2022-07-21T08:18:23Z</time>
      </trkpt>
      <trkpt lat="44.17501" lon="5.27797">
        <ele>1842.3</ele>
        <time>2022-07-21T08:18:24Z</time>
      </trkpt>
      <trkpt lat="44.17502" lon="5.27799">
        <ele>1842.4</ele>
        <time>2022-07-21T08:18:25Z</time>
      </trkpt>
      <trkpt lat="44.17503" lon="5.278">
        <ele>1842.6</ele>
        <time>2022-07-21T08:18:26Z</time>
      </trkpt>
      <trkpt lat="44.17504" lon="5.27802">
        <ele>1842.8</ele>
        <time>2022-07-21T08:18:27Z</time>
      </trkpt>
      <trkpt lat="44.17505" lon="5.27804">
        <ele>1843</ele>
        <time>2022-07-21T08:18:28Z</time>
      </trkpt>
      <trkpt lat="44.17505" lon="5.27806">
        <ele>1843.2</ele>
        <time>2022-07-21T08:18:29Z</time>
      </trkpt>
      <trkpt lat="44.17506" lon="5.27808">
        <ele>1843.4</ele>
        <time>2022-07-21T08:18:30Z</time>
      </trkpt>
      <trkpt lat="44.17507" lon="5.2781">
        <ele>1843.5</ele>
        <time>2022-07-21T08:18:31Z</time>
      </trkpt>
      <trkpt lat="44.17508" lon="5.27811">
        <ele>1843.7</ele>
        <time>2022-07-21T08:18:32Z</time>
      </trkpt>
      <trkpt lat="44.17509" lon="5.27813">
        <ele>1843.9</ele>
        <time>2022-07-21T08:18:33Z</time>
      </trkpt>
      <trkpt lat="44.17509" lon="5.27815">
        <ele>1844.1</ele>
        <time>2022-07-21T08:18:34Z</time>
      </trkpt>
      <trkpt lat="44.1751" lon="5.27817">
        <ele>1844.2</ele>
        <time>2022-07-21T08:18:35Z</time>
      </trkpt>
      <trkpt lat="44.1751" lon="5.27818">
        <ele>1844.3</ele>
        <time>2022-07-21T08:18:36Z</time>
      </trkpt>
      <trkpt lat="44.1751" lon="5.27819">
        <ele>1844.4</ele>
        <time>2022-07-21T08:18:37Z</time>
      </trkpt>
      <trkpt lat="44.1751" lon="5.27821">
        <ele>1844.6</ele>
        <time>2022-07-21T08:18:38Z</time>
      </trkpt>
      <trkpt lat="44.17511" lon="5.27823">
        <ele>1844.7</ele>
        <time>2022-07-21T08:18:39Z</time>
      </trkpt>
      <trkpt lat="44.17511" lon="5.27824">
        <ele>1844.9</ele>
        <time>2022-07-21T08:18:40Z</time>
      </trkpt>
      <trkpt lat="44.17512" lon="5.27826">
        <ele>1845.1</ele>
        <time>2022-07-21T08:18:41Z</time>
      </trkpt>
      <trkpt lat="44.17513" lon="5.27828">
        <ele>1845.3</ele>
        <time>2022-07-21T08:18:42Z</time>
      </trkpt>
      <trkpt lat="44.17513" lon="5.27831">
        <ele>1845.5</ele>
        <time>2022-07-21T08:18:43Z</time>
      </trkpt>
      <trkpt lat="44.17513" lon="5.27833">
        <ele>1845.6</ele>
        <time>2022-07-21T08:18:44Z</time>
      </trkpt>
      <trkpt lat="44.17513" lon="5.27834">
        <ele>1845.8</ele>
        <time>2022-07-21T08:18:45Z</time>
      </trkpt>
      <trkpt lat="44.17513" lon="5.27837">
        <ele>1845.9</ele>
        <time>2022-07-21T08:18:46Z</time>
      </trkpt>
      <trkpt lat="44.17514" lon="5.27839">
        <ele>1846.2</ele>
        <time>2022-07-21T08:18:47Z</time>
      </trkpt>
      <trkpt lat="44.17514" lon="5.27844">
        <ele>1846.6</ele>
        <time>2022-07-21T08:18:48Z</time>
      </trkpt>
      <trkpt lat="44.17515" lon="5.27846">
        <ele>1846.7</ele>
        <time>2022-07-21T08:18:49Z</time>
      </trkpt>
      <trkpt lat="44.17515" lon="5.2785">
        <ele>1847.1</ele>
        <time>2022-07-21T08:18:50Z</time>
      </trkpt>
      <trkpt lat="44.17515" lon="5.27852">
        <ele>1847.2</ele>
        <time>2022-07-21T08:18:51Z</time>
      </trkpt>
      <trkpt lat="44.17516" lon="5.27856">
        <ele>1847.5</ele>
        <time>2022-07-21T08:18:52Z</time>
      </trkpt>
      <trkpt lat="44.17516" lon="5.27858">
        <ele>1847.6</ele>
        <time>2022-07-21T08:18:53Z</time>
      </trkpt>
      <trkpt lat="44.17516" lon="5.2786">
        <ele>1847.8</ele>
        <time>2022-07-21T08:18:54Z</time>
      </trkpt>
      <trkpt lat="44.17516" lon="5.27861">
        <ele>1847.9</ele>
        <time>2022-07-21T08:18:55Z</time>
      </trkpt>
      <trkpt lat="44.17516" lon="5.27863">
        <ele>1848.1</ele>
        <time>2022-07-21T08:18:56Z</time>
      </trkpt>
      <trkpt lat="44.17516" lon="5.27865">
        <ele>1848.2</ele>
        <time>2022-07-21T08:18:57Z</time>
      </trkpt>
      <trkpt lat="44.17517" lon="5.27869">
        <ele>1848.5</ele>
        <time>2022-07-21T08:18:58Z</time>
      </trkpt>
      <trkpt lat="44.17517" lon="5.2787">
        <ele>1848.6</ele>
        <time>2022-07-21T08:18:59Z</time>
      </trkpt>
      <trkpt lat="44.17518" lon="5.27874">
        <ele>1848.9</ele>
        <time>2022-07-21T08:19:00Z</time>
      </trkpt>
      <trkpt lat="44.17518" lon="5.27875">
        <ele>1849</ele>
        <time>2022-07-21T08:19:01Z</time>
      </trkpt>
      <trkpt lat="44.17519" lon="5.27878">
        <ele>1849.2</ele>
        <time>2022-07-21T08:19:02Z</time>
      </trkpt>
      <trkpt lat="44.17519" lon="5.2788">
        <ele>1849.3</ele>
        <time>2022-07-21T08:19:03Z</time>
      </trkpt>
      <trkpt lat="44.17519" lon="5.27882">
        <ele>1849.5</ele>
        <time>2022-07-21T08:19:04Z</time>
      </trkpt>
      <trkpt lat="44.17519" lon="5.27884">
        <ele>1849.6</ele>
        <time>2022-07-21T08:19:05Z</time>
      </trkpt>
      <trkpt lat="44.17519" lon="5.27886">
        <ele>1849.8</ele>
        <time>2022-07-21T08:19:06Z</time>
      </trkpt>
      <trkpt lat="44.17519" lon="5.27888">
        <ele>1849.9</ele>
        <time>2022-07-21T08:19:07Z</time>
      </trkpt>
      <trkpt lat="44.17519" lon="5.27891">
        <ele>1850.1</ele>
        <time>2022-07-21T08:19:08Z</time>
      </trkpt>
      <trkpt lat="44.17519" lon="5.27892">
        <ele>1850.2</ele>
        <time>2022-07-21T08:19:09Z</time>
      </trkpt>
      <trkpt lat="44.17519" lon="5.27893">
        <ele>1850.3</ele>
        <time>2022-07-21T08:19:10Z</time>
      </trkpt>
      <trkpt lat="44.17519" lon="5.27896">
        <ele>1850.5</ele>
        <time>2022-07-21T08:19:11Z</time>
      </trkpt>
      <trkpt lat="44.17519" lon="5.27898">
        <ele>1850.7</ele>
        <time>2022-07-21T08:19:12Z</time>
      </trkpt>
      <trkpt lat="44.17519" lon="5.279">
        <ele>1850.8</ele>
        <time>2022-07-21T08:19:13Z</time>
      </trkpt>
      <trkpt lat="44.17519" lon="5.27902">
        <ele>1851.1</ele>
        <time>2022-07-21T08:19:14Z</time>
      </trkpt>
      <trkpt lat="44.1752" lon="5.27905">
        <ele>1851.3</ele>
        <time>2022-07-21T08:19:15Z</time>
      </trkpt>
      <trkpt lat="44.1752" lon="5.27906">
        <ele>1851.4</ele>
        <time>2022-07-21T08:19:16Z</time>
      </trkpt>
      <trkpt lat="44.17519" lon="5.27907">
        <ele>1851.5</ele>
        <time>2022-07-21T08:19:17Z</time>
      </trkpt>
      <trkpt lat="44.17519" lon="5.27909">
        <ele>1851.6</ele>
        <time>2022-07-21T08:19:18Z</time>
      </trkpt>
      <trkpt lat="44.17518" lon="5.27909">
        <ele>1851.7</ele>
        <time>2022-07-21T08:19:19Z</time>
      </trkpt>
      <trkpt lat="44.17517" lon="5.2791">
        <ele>1851.8</ele>
        <time>2022-07-21T08:19:20Z</time>
      </trkpt>
      <trkpt lat="44.17517" lon="5.27912">
        <ele>1851.9</ele>
        <time>2022-07-21T08:19:21Z</time>
      </trkpt>
      <trkpt lat="44.17517" lon="5.27913">
        <ele>1852.1</ele>
        <time>2022-07-21T08:19:22Z</time>
      </trkpt>
      <trkpt lat="44.17516" lon="5.27916">
        <ele>1852.2</ele>
        <time>2022-07-21T08:19:23Z</time>
      </trkpt>
      <trkpt lat="44.17516" lon="5.27918">
        <ele>1852.4</ele>
        <time>2022-07-21T08:19:24Z</time>
      </trkpt>
      <trkpt lat="44.17516" lon="5.2792">
        <ele>1852.6</ele>
        <time>2022-07-21T08:19:25Z</time>
      </trkpt>
      <trkpt lat="44.17515" lon="5.27922">
        <ele>1852.7</ele>
        <time>2022-07-21T08:19:26Z</time>
      </trkpt>
      <trkpt lat="44.17515" lon="5.27925">
        <ele>1852.9</ele>
        <time>2022-07-21T08:19:27Z</time>
      </trkpt>
      <trkpt lat="44.17515" lon="5.27927">
        <ele>1853.1</ele>
        <time>2022-07-21T08:19:28Z</time>
      </trkpt>
      <trkpt lat="44.17515" lon="5.27932">
        <ele>1853.5</ele>
        <time>2022-07-21T08:19:29Z</time>
      </trkpt>
      <trkpt lat="44.17515" lon="5.27933">
        <ele>1853.6</ele>
        <time>2022-07-21T08:19:30Z</time>
      </trkpt>
      <trkpt lat="44.17515" lon="5.27936">
        <ele>1853.8</ele>
        <time>2022-07-21T08:19:31Z</time>
      </trkpt>
      <trkpt lat="44.17515" lon="5.27938">
        <ele>1853.9</ele>
        <time>2022-07-21T08:19:32Z</time>
      </trkpt>
      <trkpt lat="44.17515" lon="5.2794">
        <ele>1854.1</ele>
        <time>2022-07-21T08:19:33Z</time>
      </trkpt>
      <trkpt lat="44.17514" lon="5.27942">
        <ele>1854.3</ele>
        <time>2022-07-21T08:19:34Z</time>
      </trkpt>
      <trkpt lat="44.17514" lon="5.27946">
        <ele>1854.6</ele>
        <time>2022-07-21T08:19:35Z</time>
      </trkpt>
      <trkpt lat="44.17514" lon="5.27947">
        <ele>1854.7</ele>
        <time>2022-07-21T08:19:36Z</time>
      </trkpt>
      <trkpt lat="44.17514" lon="5.27951">
        <ele>1855</ele>
        <time>2022-07-21T08:19:37Z</time>
      </trkpt>
      <trkpt lat="44.17514" lon="5.27952">
        <ele>1855.1</ele>
        <time>2022-07-21T08:19:38Z</time>
      </trkpt>
      <trkpt lat="44.17514" lon="5.27955">
        <ele>1855.3</ele>
        <time>2022-07-21T08:19:39Z</time>
      </trkpt>
      <trkpt lat="44.17514" lon="5.27957">
        <ele>1855.5</ele>
        <time>2022-07-21T08:19:40Z</time>
      </trkpt>
      <trkpt lat="44.17513" lon="5.27959">
        <ele>1855.7</ele>
        <time>2022-07-21T08:19:41Z</time>
      </trkpt>
      <trkpt lat="44.17513" lon="5.27961">
        <ele>1855.9</ele>
        <time>2022-07-21T08:19:42Z</time>
      </trkpt>
      <trkpt lat="44.17512" lon="5.27963">
        <ele>1856</ele>
        <time>2022-07-21T08:19:43Z</time>
      </trkpt>
      <trkpt lat="44.17512" lon="5.27965">
        <ele>1856.2</ele>
        <time>2022-07-21T08:19:44Z</time>
      </trkpt>
      <trkpt lat="44.17511" lon="5.27967">
        <ele>1856.4</ele>
        <time>2022-07-21T08:19:45Z</time>
      </trkpt>
      <trkpt lat="44.17511" lon="5.27969">
        <ele>1856.6</ele>
        <time>2022-07-21T08:19:46Z</time>
      </trkpt>
      <trkpt lat="44.17511" lon="5.27971">
        <ele>1856.8</ele>
        <time>2022-07-21T08:19:47Z</time>
      </trkpt>
      <trkpt lat="44.17511" lon="5.27974">
        <ele>1857</ele>
        <time>2022-07-21T08:19:48Z</time>
      </trkpt>
      <trkpt lat="44.1751" lon="5.27976">
        <ele>1857.2</ele>
        <time>2022-07-21T08:19:49Z</time>
      </trkpt>
      <trkpt lat="44.1751" lon="5.27978">
        <ele>1857.4</ele>
        <time>2022-07-21T08:19:50Z</time>
      </trkpt>
      <trkpt lat="44.1751" lon="5.27981">
        <ele>1857.6</ele>
        <time>2022-07-21T08:19:51Z</time>
      </trkpt>
      <trkpt lat="44.17509" lon="5.27983">
        <ele>1857.8</ele>
        <time>2022-07-21T08:19:52Z</time>
      </trkpt>
      <trkpt lat="44.17509" lon="5.27985">
        <ele>1857.9</ele>
        <time>2022-07-21T08:19:53Z</time>
      </trkpt>
      <trkpt lat="44.17509" lon="5.27987">
        <ele>1858.1</ele>
        <time>2022-07-21T08:19:54Z</time>
      </trkpt>
      <trkpt lat="44.17508" lon="5.27989">
        <ele>1858.3</ele>
        <time>2022-07-21T08:19:55Z</time>
      </trkpt>
      <trkpt lat="44.17508" lon="5.27992">
        <ele>1858.5</ele>
        <time>2022-07-21T08:19:56Z</time>
      </trkpt>
      <trkpt lat="44.17507" lon="5.27994">
        <ele>1858.7</ele>
        <time>2022-07-21T08:19:57Z</time>
      </trkpt>
      <trkpt lat="44.17507" lon="5.27996">
        <ele>1858.9</ele>
        <time>2022-07-21T08:19:58Z</time>
      </trkpt>
      <trkpt lat="44.17506" lon="5.27998">
        <ele>1859.1</ele>
        <time>2022-07-21T08:19:59Z</time>
      </trkpt>
      <trkpt lat="44.17506" lon="5.28">
        <ele>1859.3</ele>
        <time>2022-07-21T08:20:00Z</time>
      </trkpt>
      <trkpt lat="44.17505" lon="5.28004">
        <ele>1859.6</ele>
        <time>2022-07-21T08:20:01Z</time>
      </trkpt>
      <trkpt lat="44.17505" lon="5.28005">
        <ele>1859.7</ele>
        <time>2022-07-21T08:20:02Z</time>
      </trkpt>
      <trkpt lat="44.17505" lon="5.28007">
        <ele>1859.9</ele>
        <time>2022-07-21T08:20:03Z</time>
      </trkpt>
      <trkpt lat="44.17504" lon="5.28009">
        <ele>1860.1</ele>
        <time>2022-07-21T08:20:04Z</time>
      </trkpt>
      <trkpt lat="44.17504" lon="5.28012">
        <ele>1860.3</ele>
        <time>2022-07-21T08:20:05Z</time>
      </trkpt>
      <trkpt lat="44.17503" lon="5.28014">
        <ele>1860.5</ele>
        <time>2022-07-21T08:20:06Z</time>
      </trkpt>
      <trkpt lat="44.17503" lon="5.28016">
        <ele>1860.7</ele>
        <time>2022-07-21T08:20:07Z</time>
      </trkpt>
      <trkpt lat="44.17502" lon="5.28019">
        <ele>1860.9</ele>
        <time>2022-07-21T08:20:08Z</time>
      </trkpt>
      <trkpt lat="44.17501" lon="5.28022">
        <ele>1861.2</ele>
        <time>2022-07-21T08:20:09Z</time>
      </trkpt>
      <trkpt lat="44.17501" lon="5.28023">
        <ele>1861.3</ele>
        <time>2022-07-21T08:20:10Z</time>
      </trkpt>
      <trkpt lat="44.175" lon="5.28027">
        <ele>1861.6</ele>
        <time>2022-07-21T08:20:11Z</time>
      </trkpt>
      <trkpt lat="44.17499" lon="5.28028">
        <ele>1861.7</ele>
        <time>2022-07-21T08:20:12Z</time>
      </trkpt>
      <trkpt lat="44.17498" lon="5.28032">
        <ele>1862</ele>
        <time>2022-07-21T08:20:13Z</time>
      </trkpt>
      <trkpt lat="44.17498" lon="5.28033">
        <ele>1862.1</ele>
        <time>2022-07-21T08:20:14Z</time>
      </trkpt>
      <trkpt lat="44.17496" lon="5.28036">
        <ele>1862.3</ele>
        <time>2022-07-21T08:20:15Z</time>
      </trkpt>
      <trkpt lat="44.17496" lon="5.28037">
        <ele>1862.4</ele>
        <time>2022-07-21T08:20:16Z</time>
      </trkpt>
      <trkpt lat="44.17495" lon="5.28039">
        <ele>1862.6</ele>
        <time>2022-07-21T08:20:17Z</time>
      </trkpt>
      <trkpt lat="44.17493" lon="5.28041">
        <ele>1862.7</ele>
        <time>2022-07-21T08:20:18Z</time>
      </trkpt>
      <trkpt lat="44.17492" lon="5.28042">
        <ele>1862.8</ele>
        <time>2022-07-21T08:20:19Z</time>
      </trkpt>
      <trkpt lat="44.1749" lon="5.28044">
        <ele>1863</ele>
        <time>2022-07-21T08:20:20Z</time>
      </trkpt>
      <trkpt lat="44.17488" lon="5.28046">
        <ele>1863.2</ele>
        <time>2022-07-21T08:20:21Z</time>
      </trkpt>
      <trkpt lat="44.17488" lon="5.28047">
        <ele>1863.2</ele>
        <time>2022-07-21T08:20:22Z</time>
      </trkpt>
      <trkpt lat="44.17486" lon="5.28049">
        <ele>1863.4</ele>
        <time>2022-07-21T08:20:23Z</time>
      </trkpt>
      <trkpt lat="44.17486" lon="5.28051">
        <ele>1863.5</ele>
        <time>2022-07-21T08:20:24Z</time>
      </trkpt>
      <trkpt lat="44.17486" lon="5.28051">
        <ele>1863.5</ele>
        <time>2022-07-21T08:20:25Z</time>
      </trkpt>
      <trkpt lat="44.17486" lon="5.28051">
        <ele>1863.5</ele>
        <time>2022-07-21T08:20:26Z</time>
      </trkpt>
      <trkpt lat="44.17486" lon="5.28051">
        <ele>1863.5</ele>
        <time>2022-07-21T08:20:27Z</time>
      </trkpt>
      <trkpt lat="44.17486" lon="5.28051">
        <ele>1863.5</ele>
        <time>2022-07-21T08:20:28Z</time>
      </trkpt>
      <trkpt lat="44.17486" lon="5.28051">
        <ele>1863.5</ele>
        <time>2022-07-21T08:20:29Z</time>
      </trkpt>
      <trkpt lat="44.17486" lon="5.28051">
        <ele>1863.5</ele>
        <time>2022-07-21T08:20:30Z</time>
      </trkpt>
      <trkpt lat="44.17486" lon="5.28051">
        <ele>1863.5</ele>
        <time>2022-07-21T08:20:31Z</time>
      </trkpt>
      <trkpt lat="44.17486" lon="5.28051">
        <ele>1863.5</ele>
        <time>2022-07-21T08:20:32Z</time>
      </trkpt>
      <trkpt lat="44.17486" lon="5.28051">
        <ele>1863.5</ele>
        <time>2022-07-21T08:20:33Z</time>
      </trkpt>
      <trkpt lat="44.17486" lon="5.28051">
        <ele>1863.5</ele>
        <time>2022-07-21T08:20:34Z</time>
      </trkpt>
      <trkpt lat="44.1749" lon="5.28057">
        <ele>1863.5</ele>
        <time>2022-07-21T08:21:31Z</time>
      </trkpt>
      <trkpt lat="44.1749" lon="5.28057">
        <ele>1863.5</ele>
        <time>2022-07-21T08:21:32Z</time>
      </trkpt>
      <trkpt lat="44.1749" lon="5.28057">
        <ele>1863.5</ele>
        <time>2022-07-21T08:21:33Z</time>
      </trkpt>
      <trkpt lat="44.1749" lon="5.28057">
        <ele>1863.5</ele>
        <time>2022-07-21T08:21:34Z</time>
      </trkpt>
      <trkpt lat="44.1749" lon="5.28057">
        <ele>1863.5</ele>
        <time>2022-07-21T08:21:35Z</time>
      </trkpt>
      <trkpt lat="44.1749" lon="5.28057">
        <ele>1863.5</ele>
        <time>2022-07-21T08:21:36Z</time>
      </trkpt>
      <trkpt lat="44.17491" lon="5.28058">
        <ele>1863.5</ele>
        <time>2022-07-21T08:21:37Z</time>
      </trkpt>
      <trkpt lat="44.17491" lon="5.28058">
        <ele>1863.5</ele>
        <time>2022-07-21T08:21:38Z</time>
      </trkpt>
      <trkpt lat="44.1749" lon="5.28059">
        <ele>1863.5</ele>
        <time>2022-07-21T08:21:39Z</time>
      </trkpt>
      <trkpt lat="44.1749" lon="5.28058">
        <ele>1863.5</ele>
        <time>2022-07-21T08:21:40Z</time>
      </trkpt>
      <trkpt lat="44.17486" lon="5.28057">
        <ele>1863.5</ele>
        <time>2022-07-21T08:21:43Z</time>
      </trkpt>
      <trkpt lat="44.17485" lon="5.28056">
        <ele>1863.6</ele>
        <time>2022-07-21T08:21:44Z</time>
      </trkpt>
      <trkpt lat="44.17482" lon="5.28054">
        <ele>1863.6</ele>
        <time>2022-07-21T08:21:45Z</time>
      </trkpt>
      <trkpt lat="44.17481" lon="5.28053">
        <ele>1863.6</ele>
        <time>2022-07-21T08:21:46Z</time>
      </trkpt>
      <trkpt lat="44.17478" lon="5.28049">
        <ele>1863.6</ele>
        <time>2022-07-21T08:21:47Z</time>
      </trkpt>
      <trkpt lat="44.17477" lon="5.28047">
        <ele>1863.6</ele>
        <time>2022-07-21T08:21:48Z</time>
      </trkpt>
      <trkpt lat="44.17475" lon="5.28044">
        <ele>1863.6</ele>
        <time>2022-07-21T08:21:49Z</time>
      </trkpt>
      <trkpt lat="44.17474" lon="5.2804">
        <ele>1863.6</ele>
        <time>2022-07-21T08:21:50Z</time>
      </trkpt>
      <trkpt lat="44.17472" lon="5.28037">
        <ele>1863.6</ele>
        <time>2022-07-21T08:21:51Z</time>
      </trkpt>
      <trkpt lat="44.1747" lon="5.28033">
        <ele>1863.7</ele>
        <time>2022-07-21T08:21:52Z</time>
      </trkpt>
      <trkpt lat="44.1747" lon="5.28031">
        <ele>1863.7</ele>
        <time>2022-07-21T08:21:53Z</time>
      </trkpt>
      <trkpt lat="44.17468" lon="5.28027">
        <ele>1863.9</ele>
        <time>2022-07-21T08:21:54Z</time>
      </trkpt>
      <trkpt lat="44.17467" lon="5.28026">
        <ele>1864</ele>
        <time>2022-07-21T08:21:55Z</time>
      </trkpt>
      <trkpt lat="44.17465" lon="5.28022">
        <ele>1864.1</ele>
        <time>2022-07-21T08:21:56Z</time>
      </trkpt>
      <trkpt lat="44.17465" lon="5.2802">
        <ele>1864.2</ele>
        <time>2022-07-21T08:21:57Z</time>
      </trkpt>
      <trkpt lat="44.17463" lon="5.28016">
        <ele>1864.4</ele>
        <time>2022-07-21T08:21:58Z</time>
      </trkpt>
      <trkpt lat="44.17462" lon="5.28014">
        <ele>1864.5</ele>
        <time>2022-07-21T08:21:59Z</time>
      </trkpt>
      <trkpt lat="44.1746" lon="5.2801">
        <ele>1864.7</ele>
        <time>2022-07-21T08:22:00Z</time>
      </trkpt>
      <trkpt lat="44.17459" lon="5.28008">
        <ele>1864.8</ele>
        <time>2022-07-21T08:22:01Z</time>
      </trkpt>
      <trkpt lat="44.17457" lon="5.28005">
        <ele>1865.1</ele>
        <time>2022-07-21T08:22:02Z</time>
      </trkpt>
      <trkpt lat="44.17456" lon="5.28004">
        <ele>1865.2</ele>
        <time>2022-07-21T08:22:03Z</time>
      </trkpt>
      <trkpt lat="44.17454" lon="5.28">
        <ele>1865.4</ele>
        <time>2022-07-21T08:22:04Z</time>
      </trkpt>
      <trkpt lat="44.17454" lon="5.27999">
        <ele>1865.5</ele>
        <time>2022-07-21T08:22:05Z</time>
      </trkpt>
      <trkpt lat="44.17452" lon="5.27994">
        <ele>1865.8</ele>
        <time>2022-07-21T08:22:06Z</time>
      </trkpt>
      <trkpt lat="44.17451" lon="5.27993">
        <ele>1865.9</ele>
        <time>2022-07-21T08:22:07Z</time>
      </trkpt>
      <trkpt lat="44.1745" lon="5.27989">
        <ele>1866.1</ele>
        <time>2022-07-21T08:22:08Z</time>
      </trkpt>
      <trkpt lat="44.17449" lon="5.27988">
        <ele>1866.2</ele>
        <time>2022-07-21T08:22:09Z</time>
      </trkpt>
      <trkpt lat="44.17447" lon="5.27983">
        <ele>1866.8</ele>
        <time>2022-07-21T08:22:10Z</time>
      </trkpt>
      <trkpt lat="44.17447" lon="5.27982">
        <ele>1867</ele>
        <time>2022-07-21T08:22:11Z</time>
      </trkpt>
      <trkpt lat="44.17445" lon="5.27978">
        <ele>1867.5</ele>
        <time>2022-07-21T08:22:12Z</time>
      </trkpt>
      <trkpt lat="44.17444" lon="5.27977">
        <ele>1867.7</ele>
        <time>2022-07-21T08:22:13Z</time>
      </trkpt>
      <trkpt lat="44.17441" lon="5.27974">
        <ele>1868.3</ele>
        <time>2022-07-21T08:22:14Z</time>
      </trkpt>
      <trkpt lat="44.1744" lon="5.27972">
        <ele>1868.5</ele>
        <time>2022-07-21T08:22:15Z</time>
      </trkpt>
      <trkpt lat="44.17438" lon="5.2797">
        <ele>1869</ele>
        <time>2022-07-21T08:22:16Z</time>
      </trkpt>
      <trkpt lat="44.17437" lon="5.27969">
        <ele>1869.2</ele>
        <time>2022-07-21T08:22:17Z</time>
      </trkpt>
      <trkpt lat="44.17434" lon="5.27967">
        <ele>1869.6</ele>
        <time>2022-07-21T08:22:18Z</time>
      </trkpt>
      <trkpt lat="44.17433" lon="5.27966">
        <ele>1869.8</ele>
        <time>2022-07-21T08:22:19Z</time>
      </trkpt>
      <trkpt lat="44.17431" lon="5.27965">
        <ele>1869.8</ele>
        <time>2022-07-21T08:22:20Z</time>
      </trkpt>
      <trkpt lat="44.1743" lon="5.27965">
        <ele>1869.9</ele>
        <time>2022-07-21T08:22:21Z</time>
      </trkpt>
      <trkpt lat="44.17428" lon="5.27964">
        <ele>1869.9</ele>
        <time>2022-07-21T08:22:22Z</time>
      </trkpt>
      <trkpt lat="44.17427" lon="5.27963">
        <ele>1870</ele>
        <time>2022-07-21T08:22:23Z</time>
      </trkpt>
      <trkpt lat="44.17426" lon="5.27962">
        <ele>1870.1</ele>
        <time>2022-07-21T08:22:24Z</time>
      </trkpt>
      <trkpt lat="44.17425" lon="5.27961">
        <ele>1870.3</ele>
        <time>2022-07-21T08:22:25Z</time>
      </trkpt>
      <trkpt lat="44.17423" lon="5.27959">
        <ele>1870.5</ele>
        <time>2022-07-21T08:22:26Z</time>
      </trkpt>
      <trkpt lat="44.17423" lon="5.27957">
        <ele>1870.6</ele>
        <time>2022-07-21T08:22:27Z</time>
      </trkpt>
      <trkpt lat="44.17422" lon="5.27955">
        <ele>1870.8</ele>
        <time>2022-07-21T08:22:28Z</time>
      </trkpt>
      <trkpt lat="44.17421" lon="5.27953">
        <ele>1870.9</ele>
        <time>2022-07-21T08:22:29Z</time>
      </trkpt>
      <trkpt lat="44.17419" lon="5.27952">
        <ele>1871.1</ele>
        <time>2022-07-21T08:22:30Z</time>
      </trkpt>
      <trkpt lat="44.17417" lon="5.27951">
        <ele>1871.3</ele>
        <time>2022-07-21T08:22:31Z</time>
      </trkpt>
      <trkpt lat="44.17416" lon="5.2795">
        <ele>1871.4</ele>
        <time>2022-07-21T08:22:32Z</time>
      </trkpt>
      <trkpt lat="44.17414" lon="5.27948">
        <ele>1871.6</ele>
        <time>2022-07-21T08:22:33Z</time>
      </trkpt>
      <trkpt lat="44.17412" lon="5.27946">
        <ele>1871.9</ele>
        <time>2022-07-21T08:22:34Z</time>
      </trkpt>
      <trkpt lat="44.17411" lon="5.27946">
        <ele>1872</ele>
        <time>2022-07-21T08:22:35Z</time>
      </trkpt>
      <trkpt lat="44.17408" lon="5.27943">
        <ele>1872.3</ele>
        <time>2022-07-21T08:22:36Z</time>
      </trkpt>
      <trkpt lat="44.17407" lon="5.27942">
        <ele>1872.4</ele>
        <time>2022-07-21T08:22:37Z</time>
      </trkpt>
      <trkpt lat="44.17405" lon="5.27939">
        <ele>1872.7</ele>
        <time>2022-07-21T08:22:38Z</time>
      </trkpt>
      <trkpt lat="44.17404" lon="5.27938">
        <ele>1872.8</ele>
        <time>2022-07-21T08:22:39Z</time>
      </trkpt>
      <trkpt lat="44.17403" lon="5.27937">
        <ele>1873</ele>
        <time>2022-07-21T08:22:40Z</time>
      </trkpt>
      <trkpt lat="44.17402" lon="5.27935">
        <ele>1873.1</ele>
        <time>2022-07-21T08:22:41Z</time>
      </trkpt>
      <trkpt lat="44.17401" lon="5.27933">
        <ele>1873.3</ele>
        <time>2022-07-21T08:22:42Z</time>
      </trkpt>
      <trkpt lat="44.174" lon="5.27932">
        <ele>1873.4</ele>
        <time>2022-07-21T08:22:43Z</time>
      </trkpt>
      <trkpt lat="44.17398" lon="5.2793">
        <ele>1873.7</ele>
        <time>2022-07-21T08:22:44Z</time>
      </trkpt>
      <trkpt lat="44.17397" lon="5.27929">
        <ele>1873.8</ele>
        <time>2022-07-21T08:22:45Z</time>
      </trkpt>
      <trkpt lat="44.17395" lon="5.27928">
        <ele>1874</ele>
        <time>2022-07-21T08:22:46Z</time>
      </trkpt>
      <trkpt lat="44.17394" lon="5.27927">
        <ele>1874.1</ele>
        <time>2022-07-21T08:22:47Z</time>
      </trkpt>
      <trkpt lat="44.17393" lon="5.27925">
        <ele>1874.3</ele>
        <time>2022-07-21T08:22:48Z</time>
      </trkpt>
      <trkpt lat="44.17391" lon="5.27924">
        <ele>1874.5</ele>
        <time>2022-07-21T08:22:49Z</time>
      </trkpt>
      <trkpt lat="44.17389" lon="5.27922">
        <ele>1874.8</ele>
        <time>2022-07-21T08:22:50Z</time>
      </trkpt>
      <trkpt lat="44.17388" lon="5.27921">
        <ele>1874.9</ele>
        <time>2022-07-21T08:22:51Z</time>
      </trkpt>
      <trkpt lat="44.17386" lon="5.27918">
        <ele>1875.2</ele>
        <time>2022-07-21T08:22:52Z</time>
      </trkpt>
      <trkpt lat="44.17386" lon="5.27917">
        <ele>1875.3</ele>
        <time>2022-07-21T08:22:53Z</time>
      </trkpt>
      <trkpt lat="44.17383" lon="5.27914">
        <ele>1875.6</ele>
        <time>2022-07-21T08:22:54Z</time>
      </trkpt>
      <trkpt lat="44.17382" lon="5.27913">
        <ele>1875.7</ele>
        <time>2022-07-21T08:22:55Z</time>
      </trkpt>
      <trkpt lat="44.1738" lon="5.27911">
        <ele>1876</ele>
        <time>2022-07-21T08:22:56Z</time>
      </trkpt>
      <trkpt lat="44.17379" lon="5.2791">
        <ele>1876.2</ele>
        <time>2022-07-21T08:22:57Z</time>
      </trkpt>
      <trkpt lat="44.17377" lon="5.27906">
        <ele>1876.5</ele>
        <time>2022-07-21T08:22:58Z</time>
      </trkpt>
      <trkpt lat="44.17377" lon="5.27905">
        <ele>1876.6</ele>
        <time>2022-07-21T08:22:59Z</time>
      </trkpt>
      <trkpt lat="44.17375" lon="5.27902">
        <ele>1876.9</ele>
        <time>2022-07-21T08:23:00Z</time>
      </trkpt>
      <trkpt lat="44.17374" lon="5.27901">
        <ele>1877</ele>
        <time>2022-07-21T08:23:01Z</time>
      </trkpt>
      <trkpt lat="44.17372" lon="5.27898">
        <ele>1877.3</ele>
        <time>2022-07-21T08:23:02Z</time>
      </trkpt>
      <trkpt lat="44.17371" lon="5.27897">
        <ele>1877.4</ele>
        <time>2022-07-21T08:23:03Z</time>
      </trkpt>
      <trkpt lat="44.17368" lon="5.27894">
        <ele>1877.8</ele>
        <time>2022-07-21T08:23:04Z</time>
      </trkpt>
      <trkpt lat="44.17367" lon="5.27893">
        <ele>1877.9</ele>
        <time>2022-07-21T08:23:05Z</time>
      </trkpt>
      <trkpt lat="44.17366" lon="5.2789">
        <ele>1878.2</ele>
        <time>2022-07-21T08:23:06Z</time>
      </trkpt>
      <trkpt lat="44.17365" lon="5.27889">
        <ele>1878.3</ele>
        <time>2022-07-21T08:23:07Z</time>
      </trkpt>
      <trkpt lat="44.17364" lon="5.27886">
        <ele>1878.4</ele>
        <time>2022-07-21T08:23:08Z</time>
      </trkpt>
      <trkpt lat="44.17364" lon="5.27885">
        <ele>1878.4</ele>
        <time>2022-07-21T08:23:09Z</time>
      </trkpt>
      <trkpt lat="44.17364" lon="5.27884">
        <ele>1878.5</ele>
        <time>2022-07-21T08:23:10Z</time>
      </trkpt>
      <trkpt lat="44.17363" lon="5.27882">
        <ele>1878.5</ele>
        <time>2022-07-21T08:23:11Z</time>
      </trkpt>
      <trkpt lat="44.17363" lon="5.27881">
        <ele>1878.5</ele>
        <time>2022-07-21T08:23:12Z</time>
      </trkpt>
      <trkpt lat="44.17362" lon="5.2788">
        <ele>1878.5</ele>
        <time>2022-07-21T08:23:13Z</time>
      </trkpt>
      <trkpt lat="44.17361" lon="5.27879">
        <ele>1878.5</ele>
        <time>2022-07-21T08:23:14Z</time>
      </trkpt>
      <trkpt lat="44.1736" lon="5.27878">
        <ele>1878.5</ele>
        <time>2022-07-21T08:23:15Z</time>
      </trkpt>
      <trkpt lat="44.1736" lon="5.27877">
        <ele>1878.5</ele>
        <time>2022-07-21T08:23:16Z</time>
      </trkpt>
      <trkpt lat="44.1736" lon="5.27877">
        <ele>1878.5</ele>
        <time>2022-07-21T08:23:17Z</time>
      </trkpt>
      <trkpt lat="44.1736" lon="5.27877">
        <ele>1878.5</ele>
        <time>2022-07-21T08:23:18Z</time>
      </trkpt>
      <trkpt lat="44.1736" lon="5.27877">
        <ele>1878.5</ele>
        <time>2022-07-21T08:23:19Z</time>
      </trkpt>
      <trkpt lat="44.1736" lon="5.27877">
        <ele>1878.5</ele>
        <time>2022-07-21T08:23:20Z</time>
      </trkpt>
      <trkpt lat="44.1736" lon="5.27877">
        <ele>1878.5</ele>
        <time>2022-07-21T08:23:21Z</time>
      </trkpt>
      <trkpt lat="44.1736" lon="5.27877">
        <ele>1878.5</ele>
        <time>2022-07-21T08:23:22Z</time>
      </trkpt>
      <trkpt lat="44.1736" lon="5.27877">
        <ele>1878.5</ele>
        <time>2022-07-21T08:23:23Z</time>
      </trkpt>
      <trkpt lat="44.1736" lon="5.27877">
        <ele>1878.5</ele>
        <time>2022-07-21T08:23:24Z</time>
      </trkpt>
      <trkpt lat="44.1736" lon="5.27877">
        <ele>1878.5</ele>
        <time>2022-07-21T08:23:25Z</time>
      </trkpt>
      <trkpt lat="44.17353" lon="5.27873">
        <ele>1878.6</ele>
        <time>2022-07-21T08:23:53Z</time>
      </trkpt>
      <trkpt lat="44.17353" lon="5.27873">
        <ele>1878.6</ele>
        <time>2022-07-21T08:23:54Z</time>
      </trkpt>
      <trkpt lat="44.17353" lon="5.27873">
        <ele>1878.6</ele>
        <time>2022-07-21T08:23:55Z</time>
      </trkpt>
      <trkpt lat="44.17354" lon="5.27871">
        <ele>1878.6</ele>
        <time>2022-07-21T08:23:56Z</time>
      </trkpt>
      <trkpt lat="44.17354" lon="5.2787">
        <ele>1878.6</ele>
        <time>2022-07-21T08:23:57Z</time>
      </trkpt>
      <trkpt lat="44.17354" lon="5.27869">
        <ele>1878.6</ele>
        <time>2022-07-21T08:23:58Z</time>
      </trkpt>
      <trkpt lat="44.17355" lon="5.27868">
        <ele>1878.6</ele>
        <time>2022-07-21T08:23:59Z</time>
      </trkpt>
      <trkpt lat="44.17355" lon="5.27867">
        <ele>1878.6</ele>
        <time>2022-07-21T08:24:00Z</time>
      </trkpt>
      <trkpt lat="44.17355" lon="5.27867">
        <ele>1878.6</ele>
        <time>2022-07-21T08:24:01Z</time>
      </trkpt>
      <trkpt lat="44.17355" lon="5.27867">
        <ele>1878.6</ele>
        <time>2022-07-21T08:24:02Z</time>
      </trkpt>
      <trkpt lat="44.17355" lon="5.27867">
        <ele>1878.6</ele>
        <time>2022-07-21T08:24:03Z</time>
      </trkpt>
      <trkpt lat="44.17355" lon="5.27867">
        <ele>1878.6</ele>
        <time>2022-07-21T08:24:04Z</time>
      </trkpt>
      <trkpt lat="44.17355" lon="5.27867">
        <ele>1878.6</ele>
        <time>2022-07-21T08:24:05Z</time>
      </trkpt>
      <trkpt lat="44.17355" lon="5.27867">
        <ele>1878.6</ele>
        <time>2022-07-21T08:24:06Z</time>
      </trkpt>
      <trkpt lat="44.17355" lon="5.27867">
        <ele>1878.6</ele>
        <time>2022-07-21T08:24:07Z</time>
      </trkpt>
      <trkpt lat="44.1735" lon="5.2787">
        <ele>1878.6</ele>
        <time>2022-07-21T08:24:18Z</time>
      </trkpt>
      <trkpt lat="44.1735" lon="5.27871">
        <ele>1878.6</ele>
        <time>2022-07-21T08:24:19Z</time>
      </trkpt>
      <trkpt lat="44.1735" lon="5.27871">
        <ele>1878.6</ele>
        <time>2022-07-21T08:24:20Z</time>
      </trkpt>
      <trkpt lat="44.17349" lon="5.27871">
        <ele>1878.6</ele>
        <time>2022-07-21T08:24:21Z</time>
      </trkpt>
      <trkpt lat="44.17349" lon="5.27872">
        <ele>1878.7</ele>
        <time>2022-07-21T08:24:22Z</time>
      </trkpt>
      <trkpt lat="44.17348" lon="5.27873">
        <ele>1878.7</ele>
        <time>2022-07-21T08:24:23Z</time>
      </trkpt>
      <trkpt lat="44.17348" lon="5.27873">
        <ele>1878.7</ele>
        <time>2022-07-21T08:24:24Z</time>
      </trkpt>
      <trkpt lat="44.17348" lon="5.27873">
        <ele>1878.7</ele>
        <time>2022-07-21T08:24:25Z</time>
      </trkpt>
      <trkpt lat="44.17348" lon="5.27873">
        <ele>1878.7</ele>
        <time>2022-07-21T08:24:26Z</time>
      </trkpt>
      <trkpt lat="44.17348" lon="5.27873">
        <ele>1878.7</ele>
        <time>2022-07-21T08:24:27Z</time>
      </trkpt>
      <trkpt lat="44.17348" lon="5.27873">
        <ele>1878.7</ele>
        <time>2022-07-21T08:24:28Z</time>
      </trkpt>
      <trkpt lat="44.17348" lon="5.27873">
        <ele>1878.7</ele>
        <time>2022-07-21T08:24:29Z</time>
      </trkpt>
      <trkpt lat="44.17348" lon="5.27873">
        <ele>1878.7</ele>
        <time>2022-07-21T08:24:30Z</time>
      </trkpt>
      <trkpt lat="44.17349" lon="5.27874">
        <ele>1878.7</ele>
        <time>2022-07-21T08:24:31Z</time>
      </trkpt>
      <trkpt lat="44.17349" lon="5.27874">
        <ele>1878.7</ele>
        <time>2022-07-21T08:24:32Z</time>
      </trkpt>
      <trkpt lat="44.17349" lon="5.27874">
        <ele>1878.7</ele>
        <time>2022-07-21T08:24:33Z</time>
      </trkpt>
      <trkpt lat="44.17349" lon="5.27874">
        <ele>1878.7</ele>
        <time>2022-07-21T08:24:34Z</time>
      </trkpt>
      <trkpt lat="44.17348" lon="5.27861">
        <ele>1878.7</ele>
        <time>2022-07-21T08:31:23Z</time>
      </trkpt>
      <trkpt lat="44.17349" lon="5.27861">
        <ele>1878.7</ele>
        <time>2022-07-21T08:31:24Z</time>
      </trkpt>
      <trkpt lat="44.17349" lon="5.27861">
        <ele>1878.7</ele>
        <time>2022-07-21T08:31:25Z</time>
      </trkpt>
      <trkpt lat="44.1735" lon="5.27863">
        <ele>1878.7</ele>
        <time>2022-07-21T08:31:26Z</time>
      </trkpt>
      <trkpt lat="44.1735" lon="5.27864">
        <ele>1878.8</ele>
        <time>2022-07-21T08:31:27Z</time>
      </trkpt>
      <trkpt lat="44.1735" lon="5.27866">
        <ele>1878.8</ele>
        <time>2022-07-21T08:31:28Z</time>
      </trkpt>
      <trkpt lat="44.17351" lon="5.27867">
        <ele>1878.8</ele>
        <time>2022-07-21T08:31:29Z</time>
      </trkpt>
      <trkpt lat="44.17352" lon="5.27867">
        <ele>1878.8</ele>
        <time>2022-07-21T08:31:30Z</time>
      </trkpt>
      <trkpt lat="44.17352" lon="5.27867">
        <ele>1878.8</ele>
        <time>2022-07-21T08:31:31Z</time>
      </trkpt>
      <trkpt lat="44.17352" lon="5.27867">
        <ele>1878.8</ele>
        <time>2022-07-21T08:31:32Z</time>
      </trkpt>
      <trkpt lat="44.17352" lon="5.27867">
        <ele>1878.8</ele>
        <time>2022-07-21T08:31:33Z</time>
      </trkpt>
      <trkpt lat="44.17353" lon="5.27869">
        <ele>1878.8</ele>
        <time>2022-07-21T08:31:34Z</time>
      </trkpt>
      <trkpt lat="44.17353" lon="5.27869">
        <ele>1878.8</ele>
        <time>2022-07-21T08:31:35Z</time>
      </trkpt>
      <trkpt lat="44.17353" lon="5.27871">
        <ele>1878.8</ele>
        <time>2022-07-21T08:31:36Z</time>
      </trkpt>
      <trkpt lat="44.17353" lon="5.27872">
        <ele>1878.8</ele>
        <time>2022-07-21T08:31:37Z</time>
      </trkpt>
      <trkpt lat="44.17353" lon="5.27872">
        <ele>1878.8</ele>
        <time>2022-07-21T08:31:38Z</time>
      </trkpt>
      <trkpt lat="44.17352" lon="5.27872">
        <ele>1878.8</ele>
        <time>2022-07-21T08:31:39Z</time>
      </trkpt>
      <trkpt lat="44.17351" lon="5.27871">
        <ele>1878.8</ele>
        <time>2022-07-21T08:31:40Z</time>
      </trkpt>
      <trkpt lat="44.17351" lon="5.27869">
        <ele>1878.8</ele>
        <time>2022-07-21T08:31:41Z</time>
      </trkpt>
      <trkpt lat="44.1735" lon="5.27868">
        <ele>1878.8</ele>
        <time>2022-07-21T08:31:42Z</time>
      </trkpt>
      <trkpt lat="44.1735" lon="5.27867">
        <ele>1878.8</ele>
        <time>2022-07-21T08:31:43Z</time>
      </trkpt>
      <trkpt lat="44.1735" lon="5.27865">
        <ele>1878.8</ele>
        <time>2022-07-21T08:31:44Z</time>
      </trkpt>
      <trkpt lat="44.17349" lon="5.27863">
        <ele>1878.8</ele>
        <time>2022-07-21T08:31:45Z</time>
      </trkpt>
      <trkpt lat="44.17349" lon="5.27862">
        <ele>1878.8</ele>
        <time>2022-07-21T08:31:46Z</time>
      </trkpt>
      <trkpt lat="44.17349" lon="5.27861">
        <ele>1878.8</ele>
        <time>2022-07-21T08:31:47Z</time>
      </trkpt>
      <trkpt lat="44.17348" lon="5.27859">
        <ele>1878.8</ele>
        <time>2022-07-21T08:31:48Z</time>
      </trkpt>
      <trkpt lat="44.17348" lon="5.27858">
        <ele>1878.8</ele>
        <time>2022-07-21T08:31:49Z</time>
      </trkpt>
      <trkpt lat="44.17348" lon="5.27857">
        <ele>1878.8</ele>
        <time>2022-07-21T08:31:50Z</time>
      </trkpt>
      <trkpt lat="44.17348" lon="5.27856">
        <ele>1878.9</ele>
        <time>2022-07-21T08:31:51Z</time>
      </trkpt>
      <trkpt lat="44.17348" lon="5.27856">
        <ele>1878.9</ele>
        <time>2022-07-21T08:31:52Z</time>
      </trkpt>
      <trkpt lat="44.17348" lon="5.27856">
        <ele>1878.9</ele>
        <time>2022-07-21T08:31:53Z</time>
      </trkpt>
      <trkpt lat="44.17348" lon="5.27856">
        <ele>1878.9</ele>
        <time>2022-07-21T08:31:54Z</time>
      </trkpt>
      <trkpt lat="44.17348" lon="5.27856">
        <ele>1878.9</ele>
        <time>2022-07-21T08:31:55Z</time>
      </trkpt>
      <trkpt lat="44.17348" lon="5.27856">
        <ele>1878.9</ele>
        <time>2022-07-21T08:31:56Z</time>
      </trkpt>
      <trkpt lat="44.17348" lon="5.27856">
        <ele>1878.9</ele>
        <time>2022-07-21T08:31:57Z</time>
      </trkpt>
      <trkpt lat="44.17348" lon="5.27856">
        <ele>1878.9</ele>
        <time>2022-07-21T08:31:58Z</time>
      </trkpt>
      <trkpt lat="44.17348" lon="5.27856">
        <ele>1878.9</ele>
        <time>2022-07-21T08:31:59Z</time>
      </trkpt>
      <trkpt lat="44.17348" lon="5.27856">
        <ele>1878.9</ele>
        <time>2022-07-21T08:32:00Z</time>
      </trkpt>
      <trkpt lat="44.17348" lon="5.27856">
        <ele>1878.9</ele>
        <time>2022-07-21T08:32:01Z</time>
      </trkpt>
      <trkpt lat="44.17349" lon="5.27864">
        <ele>1878.9</ele>
        <time>2022-07-21T08:33:15Z</time>
      </trkpt>
      <trkpt lat="44.17349" lon="5.27865">
        <ele>1878.9</ele>
        <time>2022-07-21T08:33:16Z</time>
      </trkpt>
      <trkpt lat="44.17349" lon="5.27865">
        <ele>1878.9</ele>
        <time>2022-07-21T08:33:17Z</time>
      </trkpt>
      <trkpt lat="44.17349" lon="5.27866">
        <ele>1878.9</ele>
        <time>2022-07-21T08:33:18Z</time>
      </trkpt>
      <trkpt lat="44.1735" lon="5.27868">
        <ele>1878.9</ele>
        <time>2022-07-21T08:33:19Z</time>
      </trkpt>
      <trkpt lat="44.1735" lon="5.27869">
        <ele>1878.9</ele>
        <time>2022-07-21T08:33:20Z</time>
      </trkpt>
      <trkpt lat="44.1735" lon="5.27869">
        <ele>1878.9</ele>
        <time>2022-07-21T08:33:21Z</time>
      </trkpt>
      <trkpt lat="44.17351" lon="5.2787">
        <ele>1878.9</ele>
        <time>2022-07-21T08:33:22Z</time>
      </trkpt>
      <trkpt lat="44.17351" lon="5.2787">
        <ele>1878.9</ele>
        <time>2022-07-21T08:33:23Z</time>
      </trkpt>
      <trkpt lat="44.17352" lon="5.2787">
        <ele>1878.9</ele>
        <time>2022-07-21T08:33:24Z</time>
      </trkpt>
      <trkpt lat="44.17352" lon="5.2787">
        <ele>1878.9</ele>
        <time>2022-07-21T08:33:25Z</time>
      </trkpt>
      <trkpt lat="44.17352" lon="5.2787">
        <ele>1878.9</ele>
        <time>2022-07-21T08:33:26Z</time>
      </trkpt>
      <trkpt lat="44.17352" lon="5.2787">
        <ele>1878.9</ele>
        <time>2022-07-21T08:33:27Z</time>
      </trkpt>
      <trkpt lat="44.17353" lon="5.2787">
        <ele>1878.9</ele>
        <time>2022-07-21T08:33:28Z</time>
      </trkpt>
      <trkpt lat="44.17353" lon="5.27869">
        <ele>1878.9</ele>
        <time>2022-07-21T08:33:29Z</time>
      </trkpt>
      <trkpt lat="44.17353" lon="5.27869">
        <ele>1878.9</ele>
        <time>2022-07-21T08:33:30Z</time>
      </trkpt>
      <trkpt lat="44.17353" lon="5.27869">
        <ele>1878.9</ele>
        <time>2022-07-21T08:33:31Z</time>
      </trkpt>
      <trkpt lat="44.17354" lon="5.27869">
        <ele>1878.9</ele>
        <time>2022-07-21T08:33:32Z</time>
      </trkpt>
      <trkpt lat="44.17354" lon="5.27869">
        <ele>1878.9</ele>
        <time>2022-07-21T08:33:33Z</time>
      </trkpt>
      <trkpt lat="44.17354" lon="5.27869">
        <ele>1878.9</ele>
        <time>2022-07-21T08:33:34Z</time>
      </trkpt>
      <trkpt lat="44.17354" lon="5.27869">
        <ele>1878.9</ele>
        <time>2022-07-21T08:36:29Z</time>
      </trkpt>
      <trkpt lat="44.17354" lon="5.27869">
        <ele>1878.8</ele>
        <time>2022-07-21T08:36:30Z</time>
      </trkpt>
      <trkpt lat="44.17355" lon="5.27869">
        <ele>1878.8</ele>
        <time>2022-07-21T08:36:31Z</time>
      </trkpt>
      <trkpt lat="44.17355" lon="5.27869">
        <ele>1878.8</ele>
        <time>2022-07-21T08:36:32Z</time>
      </trkpt>
      <trkpt lat="44.17357" lon="5.2787">
        <ele>1878.8</ele>
        <time>2022-07-21T08:36:33Z</time>
      </trkpt>
      <trkpt lat="44.17357" lon="5.2787">
        <ele>1878.8</ele>
        <time>2022-07-21T08:36:34Z</time>
      </trkpt>
      <trkpt lat="44.17357" lon="5.2787">
        <ele>1878.8</ele>
        <time>2022-07-21T08:36:35Z</time>
      </trkpt>
      <trkpt lat="44.17357" lon="5.2787">
        <ele>1878.8</ele>
        <time>2022-07-21T08:36:36Z</time>
      </trkpt>
      <trkpt lat="44.17358" lon="5.2787">
        <ele>1878.8</ele>
        <time>2022-07-21T08:36:37Z</time>
      </trkpt>
      <trkpt lat="44.17358" lon="5.2787">
        <ele>1878.8</ele>
        <time>2022-07-21T08:36:38Z</time>
      </trkpt>
      <trkpt lat="44.17358" lon="5.2787">
        <ele>1878.8</ele>
        <time>2022-07-21T08:36:39Z</time>
      </trkpt>
      <trkpt lat="44.17358" lon="5.2787">
        <ele>1878.8</ele>
        <time>2022-07-21T08:36:40Z</time>
      </trkpt>
      <trkpt lat="44.17359" lon="5.27871">
        <ele>1878.8</ele>
        <time>2022-07-21T08:36:41Z</time>
      </trkpt>
      <trkpt lat="44.17359" lon="5.27871">
        <ele>1878.8</ele>
        <time>2022-07-21T08:36:42Z</time>
      </trkpt>
      <trkpt lat="44.17359" lon="5.27871">
        <ele>1878.8</ele>
        <time>2022-07-21T08:36:43Z</time>
      </trkpt>
      <trkpt lat="44.17359" lon="5.27871">
        <ele>1878.8</ele>
        <time>2022-07-21T08:36:44Z</time>
      </trkpt>
      <trkpt lat="44.17356" lon="5.2787">
        <ele>1878.8</ele>
        <time>2022-07-21T08:37:27Z</time>
      </trkpt>
      <trkpt lat="44.17355" lon="5.2787">
        <ele>1878.7</ele>
        <time>2022-07-21T08:37:28Z</time>
      </trkpt>
      <trkpt lat="44.17354" lon="5.27869">
        <ele>1878.7</ele>
        <time>2022-07-21T08:37:29Z</time>
      </trkpt>
      <trkpt lat="44.17354" lon="5.27869">
        <ele>1878.7</ele>
        <time>2022-07-21T08:37:30Z</time>
      </trkpt>
      <trkpt lat="44.17354" lon="5.27868">
        <ele>1878.7</ele>
        <time>2022-07-21T08:37:31Z</time>
      </trkpt>
      <trkpt lat="44.17354" lon="5.27868">
        <ele>1878.7</ele>
        <time>2022-07-21T08:37:32Z</time>
      </trkpt>
      <trkpt lat="44.17354" lon="5.27868">
        <ele>1878.7</ele>
        <time>2022-07-21T08:37:33Z</time>
      </trkpt>
      <trkpt lat="44.17354" lon="5.27868">
        <ele>1878.7</ele>
        <time>2022-07-21T08:37:34Z</time>
      </trkpt>
      <trkpt lat="44.17354" lon="5.27868">
        <ele>1878.7</ele>
        <time>2022-07-21T08:37:35Z</time>
      </trkpt>
      <trkpt lat="44.17354" lon="5.27868">
        <ele>1878.7</ele>
        <time>2022-07-21T08:37:36Z</time>
      </trkpt>
      <trkpt lat="44.17354" lon="5.27868">
        <ele>1878.7</ele>
        <time>2022-07-21T08:37:37Z</time>
      </trkpt>
      <trkpt lat="44.17354" lon="5.27868">
        <ele>1878.7</ele>
        <time>2022-07-21T08:37:38Z</time>
      </trkpt>
      <trkpt lat="44.17354" lon="5.27868">
        <ele>1878.7</ele>
        <time>2022-07-21T08:37:39Z</time>
      </trkpt>
      <trkpt lat="44.17353" lon="5.27876">
        <ele>1878.7</ele>
        <time>2022-07-21T08:43:40Z</time>
      </trkpt>
      <trkpt lat="44.17354" lon="5.27876">
        <ele>1878.6</ele>
        <time>2022-07-21T08:43:41Z</time>
      </trkpt>
      <trkpt lat="44.17355" lon="5.27877">
        <ele>1878.6</ele>
        <time>2022-07-21T08:43:42Z</time>
      </trkpt>
      <trkpt lat="44.17355" lon="5.27877">
        <ele>1878.6</ele>
        <time>2022-07-21T08:43:43Z</time>
      </trkpt>
      <trkpt lat="44.17355" lon="5.27877">
        <ele>1878.6</ele>
        <time>2022-07-21T08:43:44Z</time>
      </trkpt>
      <trkpt lat="44.17356" lon="5.27878">
        <ele>1878.6</ele>
        <time>2022-07-21T08:43:45Z</time>
      </trkpt>
      <trkpt lat="44.17356" lon="5.27878">
        <ele>1878.6</ele>
        <time>2022-07-21T08:43:46Z</time>
      </trkpt>
      <trkpt lat="44.17356" lon="5.27878">
        <ele>1878.6</ele>
        <time>2022-07-21T08:43:47Z</time>
      </trkpt>
      <trkpt lat="44.17356" lon="5.27878">
        <ele>1878.6</ele>
        <time>2022-07-21T08:43:48Z</time>
      </trkpt>
      <trkpt lat="44.17356" lon="5.27878">
        <ele>1878.6</ele>
        <time>2022-07-21T08:43:49Z</time>
      </trkpt>
      <trkpt lat="44.17356" lon="5.27878">
        <ele>1878.6</ele>
        <time>2022-07-21T08:43:50Z</time>
      </trkpt>
      <trkpt lat="44.17356" lon="5.27878">
        <ele>1878.6</ele>
        <time>2022-07-21T08:43:51Z</time>
      </trkpt>
      <trkpt lat="44.17356" lon="5.27878">
        <ele>1878.6</ele>
        <time>2022-07-21T08:43:52Z</time>
      </trkpt>
      <trkpt lat="44.17356" lon="5.27878">
        <ele>1878.6</ele>
        <time>2022-07-21T08:43:53Z</time>
      </trkpt>
      <trkpt lat="44.17356" lon="5.27878">
        <ele>1878.6</ele>
        <time>2022-07-21T08:43:54Z</time>
      </trkpt>
      <trkpt lat="44.17356" lon="5.27878">
        <ele>1878.6</ele>
        <time>2022-07-21T08:43:55Z</time>
      </trkpt>
      <trkpt lat="44.17356" lon="5.27878">
        <ele>1878.6</ele>
        <time>2022-07-21T08:43:56Z</time>
      </trkpt>
      <trkpt lat="44.1736" lon="5.27887">
        <ele>1878.5</ele>
        <time>2022-07-21T08:44:04Z</time>
      </trkpt>
      <trkpt lat="44.17361" lon="5.27888">
        <ele>1878.5</ele>
        <time>2022-07-21T08:44:05Z</time>
      </trkpt>
      <trkpt lat="44.17363" lon="5.27892">
        <ele>1878.3</ele>
        <time>2022-07-21T08:44:06Z</time>
      </trkpt>
      <trkpt lat="44.17364" lon="5.27893">
        <ele>1878.2</ele>
        <time>2022-07-21T08:44:07Z</time>
      </trkpt>
      <trkpt lat="44.17367" lon="5.27897">
        <ele>1877.8</ele>
        <time>2022-07-21T08:44:08Z</time>
      </trkpt>
      <trkpt lat="44.17368" lon="5.27898">
        <ele>1877.6</ele>
        <time>2022-07-21T08:44:09Z</time>
      </trkpt>
      <trkpt lat="44.1737" lon="5.27902">
        <ele>1877.3</ele>
        <time>2022-07-21T08:44:10Z</time>
      </trkpt>
      <trkpt lat="44.17373" lon="5.27905">
        <ele>1876.9</ele>
        <time>2022-07-21T08:44:11Z</time>
      </trkpt>
      <trkpt lat="44.17375" lon="5.27908">
        <ele>1876.6</ele>
        <time>2022-07-21T08:44:12Z</time>
      </trkpt>
      <trkpt lat="44.17377" lon="5.2791">
        <ele>1876.3</ele>
        <time>2022-07-21T08:44:13Z</time>
      </trkpt>
      <trkpt lat="44.17379" lon="5.27913">
        <ele>1876</ele>
        <time>2022-07-21T08:44:14Z</time>
      </trkpt>
      <trkpt lat="44.17381" lon="5.27916">
        <ele>1875.7</ele>
        <time>2022-07-21T08:44:15Z</time>
      </trkpt>
      <trkpt lat="44.17383" lon="5.27918">
        <ele>1875.4</ele>
        <time>2022-07-21T08:44:16Z</time>
      </trkpt>
      <trkpt lat="44.17385" lon="5.2792">
        <ele>1875.1</ele>
        <time>2022-07-21T08:44:17Z</time>
      </trkpt>
      <trkpt lat="44.17388" lon="5.27923">
        <ele>1874.8</ele>
        <time>2022-07-21T08:44:18Z</time>
      </trkpt>
      <trkpt lat="44.17391" lon="5.27926">
        <ele>1874.5</ele>
        <time>2022-07-21T08:44:19Z</time>
      </trkpt>
      <trkpt lat="44.17394" lon="5.27929">
        <ele>1874.1</ele>
        <time>2022-07-21T08:44:20Z</time>
      </trkpt>
      <trkpt lat="44.17397" lon="5.27932">
        <ele>1873.6</ele>
        <time>2022-07-21T08:44:21Z</time>
      </trkpt>
      <trkpt lat="44.17401" lon="5.27935">
        <ele>1873.2</ele>
        <time>2022-07-21T08:44:22Z</time>
      </trkpt>
      <trkpt lat="44.17404" lon="5.27938">
        <ele>1872.9</ele>
        <time>2022-07-21T08:44:23Z</time>
      </trkpt>
      <trkpt lat="44.17407" lon="5.27941">
        <ele>1872.5</ele>
        <time>2022-07-21T08:44:24Z</time>
      </trkpt>
      <trkpt lat="44.1741" lon="5.27943">
        <ele>1872.2</ele>
        <time>2022-07-21T08:44:25Z</time>
      </trkpt>
      <trkpt lat="44.17413" lon="5.27945">
        <ele>1871.8</ele>
        <time>2022-07-21T08:44:26Z</time>
      </trkpt>
      <trkpt lat="44.17416" lon="5.27947">
        <ele>1871.6</ele>
        <time>2022-07-21T08:44:27Z</time>
      </trkpt>
      <trkpt lat="44.17419" lon="5.27949">
        <ele>1871.2</ele>
        <time>2022-07-21T08:44:28Z</time>
      </trkpt>
      <trkpt lat="44.1742" lon="5.2795">
        <ele>1871.1</ele>
        <time>2022-07-21T08:44:29Z</time>
      </trkpt>
      <trkpt lat="44.17423" lon="5.27952">
        <ele>1870.8</ele>
        <time>2022-07-21T08:44:30Z</time>
      </trkpt>
      <trkpt lat="44.17424" lon="5.27952">
        <ele>1870.7</ele>
        <time>2022-07-21T08:44:31Z</time>
      </trkpt>
      <trkpt lat="44.17426" lon="5.27953">
        <ele>1870.5</ele>
        <time>2022-07-21T08:44:32Z</time>
      </trkpt>
      <trkpt lat="44.17427" lon="5.27953">
        <ele>1870.4</ele>
        <time>2022-07-21T08:44:33Z</time>
      </trkpt>
      <trkpt lat="44.17428" lon="5.27954">
        <ele>1870</ele>
        <time>2022-07-21T08:44:34Z</time>
      </trkpt>
      <trkpt lat="44.17428" lon="5.27955">
        <ele>1870</ele>
        <time>2022-07-21T08:44:35Z</time>
      </trkpt>
      <trkpt lat="44.17428" lon="5.27956">
        <ele>1870</ele>
        <time>2022-07-21T08:44:36Z</time>
      </trkpt>
      <trkpt lat="44.17427" lon="5.27958">
        <ele>1870</ele>
        <time>2022-07-21T08:44:37Z</time>
      </trkpt>
      <trkpt lat="44.17426" lon="5.27959">
        <ele>1870</ele>
        <time>2022-07-21T08:44:38Z</time>
      </trkpt>
      <trkpt lat="44.17425" lon="5.27959">
        <ele>1870.1</ele>
        <time>2022-07-21T08:44:39Z</time>
      </trkpt>
      <trkpt lat="44.17424" lon="5.27959">
        <ele>1870.1</ele>
        <time>2022-07-21T08:44:40Z</time>
      </trkpt>
      <trkpt lat="44.17422" lon="5.27959">
        <ele>1870.2</ele>
        <time>2022-07-21T08:44:41Z</time>
      </trkpt>
      <trkpt lat="44.17421" lon="5.27958">
        <ele>1870.2</ele>
        <time>2022-07-21T08:44:42Z</time>
      </trkpt>
      <trkpt lat="44.1742" lon="5.27957">
        <ele>1870.2</ele>
        <time>2022-07-21T08:44:43Z</time>
      </trkpt>
      <trkpt lat="44.17419" lon="5.27956">
        <ele>1870.3</ele>
        <time>2022-07-21T08:44:44Z</time>
      </trkpt>
      <trkpt lat="44.17416" lon="5.27954">
        <ele>1870.4</ele>
        <time>2022-07-21T08:44:45Z</time>
      </trkpt>
      <trkpt lat="44.17415" lon="5.27954">
        <ele>1870.4</ele>
        <time>2022-07-21T08:44:46Z</time>
      </trkpt>
      <trkpt lat="44.17412" lon="5.27953">
        <ele>1870.5</ele>
        <time>2022-07-21T08:44:47Z</time>
      </trkpt>
      <trkpt lat="44.17411" lon="5.27952">
        <ele>1870.5</ele>
        <time>2022-07-21T08:44:48Z</time>
      </trkpt>
      <trkpt lat="44.17409" lon="5.2795">
        <ele>1870.6</ele>
        <time>2022-07-21T08:44:49Z</time>
      </trkpt>
      <trkpt lat="44.17407" lon="5.2795">
        <ele>1870.6</ele>
        <time>2022-07-21T08:44:50Z</time>
      </trkpt>
      <trkpt lat="44.17404" lon="5.27948">
        <ele>1870.7</ele>
        <time>2022-07-21T08:44:51Z</time>
      </trkpt>
      <trkpt lat="44.17403" lon="5.27947">
        <ele>1870.7</ele>
        <time>2022-07-21T08:44:52Z</time>
      </trkpt>
      <trkpt lat="44.174" lon="5.27945">
        <ele>1870.8</ele>
        <time>2022-07-21T08:44:53Z</time>
      </trkpt>
      <trkpt lat="44.17399" lon="5.27944">
        <ele>1870.9</ele>
        <time>2022-07-21T08:44:54Z</time>
      </trkpt>
      <trkpt lat="44.17396" lon="5.27942">
        <ele>1871</ele>
        <time>2022-07-21T08:44:55Z</time>
      </trkpt>
      <trkpt lat="44.17395" lon="5.27942">
        <ele>1871.1</ele>
        <time>2022-07-21T08:44:56Z</time>
      </trkpt>
      <trkpt lat="44.17392" lon="5.2794">
        <ele>1871.2</ele>
        <time>2022-07-21T08:44:57Z</time>
      </trkpt>
      <trkpt lat="44.17391" lon="5.2794">
        <ele>1871.2</ele>
        <time>2022-07-21T08:44:58Z</time>
      </trkpt>
      <trkpt lat="44.17388" lon="5.27937">
        <ele>1871.4</ele>
        <time>2022-07-21T08:44:59Z</time>
      </trkpt>
      <trkpt lat="44.17387" lon="5.27936">
        <ele>1871.4</ele>
        <time>2022-07-21T08:45:00Z</time>
      </trkpt>
      <trkpt lat="44.17384" lon="5.27934">
        <ele>1871.6</ele>
        <time>2022-07-21T08:45:01Z</time>
      </trkpt>
      <trkpt lat="44.17383" lon="5.27933">
        <ele>1871.6</ele>
        <time>2022-07-21T08:45:02Z</time>
      </trkpt>
      <trkpt lat="44.1738" lon="5.27931">
        <ele>1871.8</ele>
        <time>2022-07-21T08:45:03Z</time>
      </trkpt>
      <trkpt lat="44.17379" lon="5.2793">
        <ele>1871.8</ele>
        <time>2022-07-21T08:45:04Z</time>
      </trkpt>
      <trkpt lat="44.17376" lon="5.27927">
        <ele>1872</ele>
        <time>2022-07-21T08:45:05Z</time>
      </trkpt>
      <trkpt lat="44.17375" lon="5.27926">
        <ele>1872.1</ele>
        <time>2022-07-21T08:45:06Z</time>
      </trkpt>
      <trkpt lat="44.17372" lon="5.27923">
        <ele>1872.2</ele>
        <time>2022-07-21T08:45:07Z</time>
      </trkpt>
      <trkpt lat="44.17371" lon="5.27922">
        <ele>1872.3</ele>
        <time>2022-07-21T08:45:08Z</time>
      </trkpt>
      <trkpt lat="44.17368" lon="5.27919">
        <ele>1872.5</ele>
        <time>2022-07-21T08:45:09Z</time>
      </trkpt>
      <trkpt lat="44.17367" lon="5.27918">
        <ele>1872.5</ele>
        <time>2022-07-21T08:45:10Z</time>
      </trkpt>
      <trkpt lat="44.17364" lon="5.27914">
        <ele>1872.7</ele>
        <time>2022-07-21T08:45:11Z</time>
      </trkpt>
      <trkpt lat="44.17363" lon="5.27913">
        <ele>1872.8</ele>
        <time>2022-07-21T08:45:12Z</time>
      </trkpt>
      <trkpt lat="44.1736" lon="5.2791">
        <ele>1873</ele>
        <time>2022-07-21T08:45:13Z</time>
      </trkpt>
      <trkpt lat="44.17359" lon="5.27909">
        <ele>1873.1</ele>
        <time>2022-07-21T08:45:14Z</time>
      </trkpt>
      <trkpt lat="44.17356" lon="5.27906">
        <ele>1873.3</ele>
        <time>2022-07-21T08:45:15Z</time>
      </trkpt>
      <trkpt lat="44.17356" lon="5.27905">
        <ele>1873.3</ele>
        <time>2022-07-21T08:45:16Z</time>
      </trkpt>
      <trkpt lat="44.17353" lon="5.27901">
        <ele>1873.5</ele>
        <time>2022-07-21T08:45:17Z</time>
      </trkpt>
      <trkpt lat="44.17352" lon="5.279">
        <ele>1873.6</ele>
        <time>2022-07-21T08:45:18Z</time>
      </trkpt>
      <trkpt lat="44.1735" lon="5.27896">
        <ele>1873.8</ele>
        <time>2022-07-21T08:45:19Z</time>
      </trkpt>
      <trkpt lat="44.1735" lon="5.27895">
        <ele>1873.8</ele>
        <time>2022-07-21T08:45:20Z</time>
      </trkpt>
      <trkpt lat="44.17348" lon="5.27891">
        <ele>1874</ele>
        <time>2022-07-21T08:45:21Z</time>
      </trkpt>
      <trkpt lat="44.17347" lon="5.2789">
        <ele>1874.1</ele>
        <time>2022-07-21T08:45:22Z</time>
      </trkpt>
      <trkpt lat="44.17345" lon="5.27886">
        <ele>1874.3</ele>
        <time>2022-07-21T08:45:23Z</time>
      </trkpt>
      <trkpt lat="44.17344" lon="5.27885">
        <ele>1874.4</ele>
        <time>2022-07-21T08:45:24Z</time>
      </trkpt>
      <trkpt lat="44.17343" lon="5.27881">
        <ele>1874.6</ele>
        <time>2022-07-21T08:45:25Z</time>
      </trkpt>
      <trkpt lat="44.17342" lon="5.27879">
        <ele>1874.6</ele>
        <time>2022-07-21T08:45:26Z</time>
      </trkpt>
      <trkpt lat="44.17341" lon="5.27875">
        <ele>1874.8</ele>
        <time>2022-07-21T08:45:27Z</time>
      </trkpt>
      <trkpt lat="44.1734" lon="5.27874">
        <ele>1874.8</ele>
        <time>2022-07-21T08:45:28Z</time>
      </trkpt>
      <trkpt lat="44.17339" lon="5.2787">
        <ele>1875</ele>
        <time>2022-07-21T08:45:29Z</time>
      </trkpt>
      <trkpt lat="44.17338" lon="5.27869">
        <ele>1875</ele>
        <time>2022-07-21T08:45:30Z</time>
      </trkpt>
      <trkpt lat="44.17337" lon="5.27865">
        <ele>1875.2</ele>
        <time>2022-07-21T08:45:31Z</time>
      </trkpt>
      <trkpt lat="44.17337" lon="5.27864">
        <ele>1875.2</ele>
        <time>2022-07-21T08:45:32Z</time>
      </trkpt>
      <trkpt lat="44.17336" lon="5.27859">
        <ele>1875.4</ele>
        <time>2022-07-21T08:45:33Z</time>
      </trkpt>
      <trkpt lat="44.17336" lon="5.27857">
        <ele>1875.4</ele>
        <time>2022-07-21T08:45:34Z</time>
      </trkpt>
      <trkpt lat="44.17336" lon="5.27853">
        <ele>1875.6</ele>
        <time>2022-07-21T08:45:35Z</time>
      </trkpt>
      <trkpt lat="44.17335" lon="5.27851">
        <ele>1875.6</ele>
        <time>2022-07-21T08:45:36Z</time>
      </trkpt>
      <trkpt lat="44.17335" lon="5.27847">
        <ele>1875.8</ele>
        <time>2022-07-21T08:45:37Z</time>
      </trkpt>
      <trkpt lat="44.17335" lon="5.27846">
        <ele>1875.8</ele>
        <time>2022-07-21T08:45:38Z</time>
      </trkpt>
      <trkpt lat="44.17334" lon="5.27841">
        <ele>1876</ele>
        <time>2022-07-21T08:45:39Z</time>
      </trkpt>
      <trkpt lat="44.17334" lon="5.27839">
        <ele>1876</ele>
        <time>2022-07-21T08:45:40Z</time>
      </trkpt>
      <trkpt lat="44.17334" lon="5.27834">
        <ele>1875.9</ele>
        <time>2022-07-21T08:45:41Z</time>
      </trkpt>
      <trkpt lat="44.17334" lon="5.27832">
        <ele>1875.9</ele>
        <time>2022-07-21T08:45:42Z</time>
      </trkpt>
      <trkpt lat="44.17334" lon="5.27827">
        <ele>1875.8</ele>
        <time>2022-07-21T08:45:43Z</time>
      </trkpt>
      <trkpt lat="44.17334" lon="5.27826">
        <ele>1875.8</ele>
        <time>2022-07-21T08:45:44Z</time>
      </trkpt>
      <trkpt lat="44.17334" lon="5.27821">
        <ele>1875.8</ele>
        <time>2022-07-21T08:45:45Z</time>
      </trkpt>
      <trkpt lat="44.17334" lon="5.2782">
        <ele>1875.7</ele>
        <time>2022-07-21T08:45:46Z</time>
      </trkpt>
      <trkpt lat="44.17334" lon="5.27815">
        <ele>1875.7</ele>
        <time>2022-07-21T08:45:47Z</time>
      </trkpt>
      <trkpt lat="44.17335" lon="5.27814">
        <ele>1875.6</ele>
        <time>2022-07-21T08:45:48Z</time>
      </trkpt>
      <trkpt lat="44.17335" lon="5.27809">
        <ele>1875.6</ele>
        <time>2022-07-21T08:45:49Z</time>
      </trkpt>
      <trkpt lat="44.17335" lon="5.27808">
        <ele>1875.6</ele>
        <time>2022-07-21T08:45:50Z</time>
      </trkpt>
      <trkpt lat="44.17336" lon="5.27804">
        <ele>1875.5</ele>
        <time>2022-07-21T08:45:51Z</time>
      </trkpt>
      <trkpt lat="44.17336" lon="5.27803">
        <ele>1875.5</ele>
        <time>2022-07-21T08:45:52Z</time>
      </trkpt>
      <trkpt lat="44.17337" lon="5.27799">
        <ele>1875.5</ele>
        <time>2022-07-21T08:45:53Z</time>
      </trkpt>
      <trkpt lat="44.17337" lon="5.27798">
        <ele>1875.4</ele>
        <time>2022-07-21T08:45:54Z</time>
      </trkpt>
      <trkpt lat="44.17337" lon="5.27794">
        <ele>1875.4</ele>
        <time>2022-07-21T08:45:55Z</time>
      </trkpt>
      <trkpt lat="44.17338" lon="5.27793">
        <ele>1875.4</ele>
        <time>2022-07-21T08:45:56Z</time>
      </trkpt>
      <trkpt lat="44.17338" lon="5.27789">
        <ele>1875.3</ele>
        <time>2022-07-21T08:45:57Z</time>
      </trkpt>
      <trkpt lat="44.17339" lon="5.27788">
        <ele>1875.3</ele>
        <time>2022-07-21T08:45:58Z</time>
      </trkpt>
      <trkpt lat="44.1734" lon="5.27784">
        <ele>1875.2</ele>
        <time>2022-07-21T08:45:59Z</time>
      </trkpt>
      <trkpt lat="44.1734" lon="5.27783">
        <ele>1875.2</ele>
        <time>2022-07-21T08:46:00Z</time>
      </trkpt>
      <trkpt lat="44.17341" lon="5.27781">
        <ele>1875.2</ele>
        <time>2022-07-21T08:46:01Z</time>
      </trkpt>
      <trkpt lat="44.17341" lon="5.27778">
        <ele>1875.2</ele>
        <time>2022-07-21T08:46:02Z</time>
      </trkpt>
      <trkpt lat="44.17342" lon="5.27776">
        <ele>1875.1</ele>
        <time>2022-07-21T08:46:03Z</time>
      </trkpt>
      <trkpt lat="44.17343" lon="5.27774">
        <ele>1874.9</ele>
        <time>2022-07-21T08:46:04Z</time>
      </trkpt>
      <trkpt lat="44.17343" lon="5.27772">
        <ele>1874.8</ele>
        <time>2022-07-21T08:46:05Z</time>
      </trkpt>
      <trkpt lat="44.17344" lon="5.27769">
        <ele>1874.7</ele>
        <time>2022-07-21T08:46:06Z</time>
      </trkpt>
      <trkpt lat="44.17345" lon="5.27767">
        <ele>1874.6</ele>
        <time>2022-07-21T08:46:07Z</time>
      </trkpt>
      <trkpt lat="44.17345" lon="5.27765">
        <ele>1874.5</ele>
        <time>2022-07-21T08:46:08Z</time>
      </trkpt>
      <trkpt lat="44.17346" lon="5.27763">
        <ele>1874.3</ele>
        <time>2022-07-21T08:46:09Z</time>
      </trkpt>
      <trkpt lat="44.17347" lon="5.27761">
        <ele>1874.2</ele>
        <time>2022-07-21T08:46:10Z</time>
      </trkpt>
      <trkpt lat="44.17348" lon="5.27757">
        <ele>1873.9</ele>
        <time>2022-07-21T08:46:11Z</time>
      </trkpt>
      <trkpt lat="44.17348" lon="5.27755">
        <ele>1873.8</ele>
        <time>2022-07-21T08:46:12Z</time>
      </trkpt>
      <trkpt lat="44.17349" lon="5.27751">
        <ele>1873.5</ele>
        <time>2022-07-21T08:46:13Z</time>
      </trkpt>
      <trkpt lat="44.1735" lon="5.2775">
        <ele>1873.4</ele>
        <time>2022-07-21T08:46:14Z</time>
      </trkpt>
      <trkpt lat="44.17351" lon="5.27746">
        <ele>1873.1</ele>
        <time>2022-07-21T08:46:15Z</time>
      </trkpt>
      <trkpt lat="44.17351" lon="5.27745">
        <ele>1873</ele>
        <time>2022-07-21T08:46:16Z</time>
      </trkpt>
      <trkpt lat="44.17352" lon="5.27743">
        <ele>1872.8</ele>
        <time>2022-07-21T08:46:17Z</time>
      </trkpt>
      <trkpt lat="44.17352" lon="5.27742">
        <ele>1872.7</ele>
        <time>2022-07-21T08:46:18Z</time>
      </trkpt>
      <trkpt lat="44.17352" lon="5.27741">
        <ele>1872.6</ele>
        <time>2022-07-21T08:46:19Z</time>
      </trkpt>
      <trkpt lat="44.17352" lon="5.2774">
        <ele>1872.5</ele>
        <time>2022-07-21T08:46:20Z</time>
      </trkpt>
      <trkpt lat="44.17352" lon="5.27738">
        <ele>1872.3</ele>
        <time>2022-07-21T08:46:21Z</time>
      </trkpt>
      <trkpt lat="44.17352" lon="5.27737">
        <ele>1872.2</ele>
        <time>2022-07-21T08:46:22Z</time>
      </trkpt>
      <trkpt lat="44.17352" lon="5.27735">
        <ele>1872</ele>
        <time>2022-07-21T08:46:23Z</time>
      </trkpt>
      <trkpt lat="44.17352" lon="5.27734">
        <ele>1871.9</ele>
        <time>2022-07-21T08:46:24Z</time>
      </trkpt>
      <trkpt lat="44.17351" lon="5.27728">
        <ele>1871.2</ele>
        <time>2022-07-21T08:46:25Z</time>
      </trkpt>
      <trkpt lat="44.17351" lon="5.27726">
        <ele>1870.9</ele>
        <time>2022-07-21T08:46:26Z</time>
      </trkpt>
      <trkpt lat="44.17351" lon="5.27721">
        <ele>1870.2</ele>
        <time>2022-07-21T08:46:27Z</time>
      </trkpt>
      <trkpt lat="44.17351" lon="5.27715">
        <ele>1869.4</ele>
        <time>2022-07-21T08:46:28Z</time>
      </trkpt>
      <trkpt lat="44.17347" lon="5.27708">
        <ele>1868.6</ele>
        <time>2022-07-21T08:46:29Z</time>
      </trkpt>
      <trkpt lat="44.17343" lon="5.27705">
        <ele>1867.6</ele>
        <time>2022-07-21T08:46:30Z</time>
      </trkpt>
      <trkpt lat="44.17339" lon="5.27706">
        <ele>1866.9</ele>
        <time>2022-07-21T08:46:31Z</time>
      </trkpt>
      <trkpt lat="44.17335" lon="5.27709">
        <ele>1866.3</ele>
        <time>2022-07-21T08:46:32Z</time>
      </trkpt>
      <trkpt lat="44.17332" lon="5.27716">
        <ele>1865.5</ele>
        <time>2022-07-21T08:46:33Z</time>
      </trkpt>
      <trkpt lat="44.1733" lon="5.27724">
        <ele>1864.7</ele>
        <time>2022-07-21T08:46:34Z</time>
      </trkpt>
      <trkpt lat="44.17327" lon="5.27733">
        <ele>1863.9</ele>
        <time>2022-07-21T08:46:35Z</time>
      </trkpt>
      <trkpt lat="44.17325" lon="5.27742">
        <ele>1863.1</ele>
        <time>2022-07-21T08:46:36Z</time>
      </trkpt>
      <trkpt lat="44.1732" lon="5.27752">
        <ele>1862.3</ele>
        <time>2022-07-21T08:46:37Z</time>
      </trkpt>
      <trkpt lat="44.17316" lon="5.27762">
        <ele>1861.5</ele>
        <time>2022-07-21T08:46:38Z</time>
      </trkpt>
      <trkpt lat="44.17312" lon="5.27772">
        <ele>1860.8</ele>
        <time>2022-07-21T08:46:39Z</time>
      </trkpt>
      <trkpt lat="44.17308" lon="5.27781">
        <ele>1860.1</ele>
        <time>2022-07-21T08:46:40Z</time>
      </trkpt>
      <trkpt lat="44.17305" lon="5.27791">
        <ele>1859.4</ele>
        <time>2022-07-21T08:46:41Z</time>
      </trkpt>
      <trkpt lat="44.17302" lon="5.27799">
        <ele>1858.8</ele>
        <time>2022-07-21T08:46:42Z</time>
      </trkpt>
      <trkpt lat="44.173" lon="5.27809">
        <ele>1858.3</ele>
        <time>2022-07-21T08:46:43Z</time>
      </trkpt>
      <trkpt lat="44.17299" lon="5.27818">
        <ele>1857.7</ele>
        <time>2022-07-21T08:46:44Z</time>
      </trkpt>
      <trkpt lat="44.17298" lon="5.27827">
        <ele>1857.4</ele>
        <time>2022-07-21T08:46:45Z</time>
      </trkpt>
      <trkpt lat="44.17297" lon="5.27838">
        <ele>1857.1</ele>
        <time>2022-07-21T08:46:46Z</time>
      </trkpt>
      <trkpt lat="44.17296" lon="5.27849">
        <ele>1856.3</ele>
        <time>2022-07-21T08:46:47Z</time>
      </trkpt>
      <trkpt lat="44.17296" lon="5.27861">
        <ele>1855.3</ele>
        <time>2022-07-21T08:46:48Z</time>
      </trkpt>
      <trkpt lat="44.17296" lon="5.27873">
        <ele>1854.2</ele>
        <time>2022-07-21T08:46:49Z</time>
      </trkpt>
      <trkpt lat="44.17297" lon="5.27886">
        <ele>1853.1</ele>
        <time>2022-07-21T08:46:50Z</time>
      </trkpt>
      <trkpt lat="44.17298" lon="5.27898">
        <ele>1852</ele>
        <time>2022-07-21T08:46:51Z</time>
      </trkpt>
      <trkpt lat="44.173" lon="5.2791">
        <ele>1851.1</ele>
        <time>2022-07-21T08:46:52Z</time>
      </trkpt>
      <trkpt lat="44.17303" lon="5.2792">
        <ele>1850.2</ele>
        <time>2022-07-21T08:46:53Z</time>
      </trkpt>
      <trkpt lat="44.17307" lon="5.2793">
        <ele>1849.3</ele>
        <time>2022-07-21T08:46:54Z</time>
      </trkpt>
      <trkpt lat="44.17312" lon="5.27941">
        <ele>1848.4</ele>
        <time>2022-07-21T08:46:55Z</time>
      </trkpt>
      <trkpt lat="44.17317" lon="5.2795">
        <ele>1847.6</ele>
        <time>2022-07-21T08:46:56Z</time>
      </trkpt>
      <trkpt lat="44.17321" lon="5.27958">
        <ele>1846.9</ele>
        <time>2022-07-21T08:46:57Z</time>
      </trkpt>
      <trkpt lat="44.17326" lon="5.27967">
        <ele>1846.1</ele>
        <time>2022-07-21T08:46:58Z</time>
      </trkpt>
      <trkpt lat="44.17331" lon="5.27976">
        <ele>1845.2</ele>
        <time>2022-07-21T08:46:59Z</time>
      </trkpt>
      <trkpt lat="44.17336" lon="5.27986">
        <ele>1844.2</ele>
        <time>2022-07-21T08:47:00Z</time>
      </trkpt>
      <trkpt lat="44.17341" lon="5.27995">
        <ele>1843.3</ele>
        <time>2022-07-21T08:47:01Z</time>
      </trkpt>
      <trkpt lat="44.17346" lon="5.28005">
        <ele>1842.2</ele>
        <time>2022-07-21T08:47:02Z</time>
      </trkpt>
      <trkpt lat="44.17352" lon="5.28014">
        <ele>1841.2</ele>
        <time>2022-07-21T08:47:03Z</time>
      </trkpt>
      <trkpt lat="44.17357" lon="5.28024">
        <ele>1840.2</ele>
        <time>2022-07-21T08:47:04Z</time>
      </trkpt>
      <trkpt lat="44.17362" lon="5.28035">
        <ele>1839.3</ele>
        <time>2022-07-21T08:47:05Z</time>
      </trkpt>
      <trkpt lat="44.17367" lon="5.28046">
        <ele>1838.3</ele>
        <time>2022-07-21T08:47:06Z</time>
      </trkpt>
      <trkpt lat="44.17372" lon="5.28058">
        <ele>1837.2</ele>
        <time>2022-07-21T08:47:07Z</time>
      </trkpt>
      <trkpt lat="44.17376" lon="5.28073">
        <ele>1836.1</ele>
        <time>2022-07-21T08:47:08Z</time>
      </trkpt>
      <trkpt lat="44.17379" lon="5.28088">
        <ele>1834.9</ele>
        <time>2022-07-21T08:47:09Z</time>
      </trkpt>
      <trkpt lat="44.17383" lon="5.28104">
        <ele>1833.6</ele>
        <time>2022-07-21T08:47:10Z</time>
      </trkpt>
      <trkpt lat="44.17387" lon="5.28121">
        <ele>1832.3</ele>
        <time>2022-07-21T08:47:11Z</time>
      </trkpt>
      <trkpt lat="44.1739" lon="5.28138">
        <ele>1830.9</ele>
        <time>2022-07-21T08:47:12Z</time>
      </trkpt>
      <trkpt lat="44.17393" lon="5.28155">
        <ele>1829.4</ele>
        <time>2022-07-21T08:47:13Z</time>
      </trkpt>
      <trkpt lat="44.17396" lon="5.28171">
        <ele>1828</ele>
        <time>2022-07-21T08:47:14Z</time>
      </trkpt>
      <trkpt lat="44.17399" lon="5.28188">
        <ele>1826.6</ele>
        <time>2022-07-21T08:47:15Z</time>
      </trkpt>
      <trkpt lat="44.17402" lon="5.28204">
        <ele>1825.1</ele>
        <time>2022-07-21T08:47:16Z</time>
      </trkpt>
      <trkpt lat="44.17405" lon="5.2822">
        <ele>1823.7</ele>
        <time>2022-07-21T08:47:17Z</time>
      </trkpt>
      <trkpt lat="44.17408" lon="5.28235">
        <ele>1822.2</ele>
        <time>2022-07-21T08:47:18Z</time>
      </trkpt>
      <trkpt lat="44.1741" lon="5.2825">
        <ele>1820.9</ele>
        <time>2022-07-21T08:47:19Z</time>
      </trkpt>
      <trkpt lat="44.17413" lon="5.28264">
        <ele>1819.6</ele>
        <time>2022-07-21T08:47:20Z</time>
      </trkpt>
      <trkpt lat="44.17416" lon="5.28278">
        <ele>1818.4</ele>
        <time>2022-07-21T08:47:21Z</time>
      </trkpt>
      <trkpt lat="44.17418" lon="5.2829">
        <ele>1817.2</ele>
        <time>2022-07-21T08:47:22Z</time>
      </trkpt>
      <trkpt lat="44.1742" lon="5.28302">
        <ele>1816.3</ele>
        <time>2022-07-21T08:47:23Z</time>
      </trkpt>
      <trkpt lat="44.17421" lon="5.28313">
        <ele>1815.3</ele>
        <time>2022-07-21T08:47:24Z</time>
      </trkpt>
      <trkpt lat="44.17423" lon="5.28323">
        <ele>1814.4</ele>
        <time>2022-07-21T08:47:25Z</time>
      </trkpt>
      <trkpt lat="44.17424" lon="5.28334">
        <ele>1813.5</ele>
        <time>2022-07-21T08:47:26Z</time>
      </trkpt>
      <trkpt lat="44.17424" lon="5.28344">
        <ele>1812.7</ele>
        <time>2022-07-21T08:47:27Z</time>
      </trkpt>
      <trkpt lat="44.17422" lon="5.28353">
        <ele>1812.1</ele>
        <time>2022-07-21T08:47:28Z</time>
      </trkpt>
      <trkpt lat="44.1742" lon="5.28362">
        <ele>1811.8</ele>
        <time>2022-07-21T08:47:29Z</time>
      </trkpt>
      <trkpt lat="44.17416" lon="5.28369">
        <ele>1811.4</ele>
        <time>2022-07-21T08:47:30Z</time>
      </trkpt>
      <trkpt lat="44.17413" lon="5.28376">
        <ele>1811</ele>
        <time>2022-07-21T08:47:31Z</time>
      </trkpt>
      <trkpt lat="44.1741" lon="5.28381">
        <ele>1810.1</ele>
        <time>2022-07-21T08:47:32Z</time>
      </trkpt>
      <trkpt lat="44.17407" lon="5.28386">
        <ele>1809.4</ele>
        <time>2022-07-21T08:47:33Z</time>
      </trkpt>
      <trkpt lat="44.17405" lon="5.28389">
        <ele>1808.9</ele>
        <time>2022-07-21T08:47:34Z</time>
      </trkpt>
      <trkpt lat="44.17402" lon="5.2839">
        <ele>1808.7</ele>
        <time>2022-07-21T08:47:35Z</time>
      </trkpt>
      <trkpt lat="44.17401" lon="5.28391">
        <ele>1808.6</ele>
        <time>2022-07-21T08:47:36Z</time>
      </trkpt>
      <trkpt lat="44.17401" lon="5.28391">
        <ele>1808.5</ele>
        <time>2022-07-21T08:47:37Z</time>
      </trkpt>
      <trkpt lat="44.17401" lon="5.28391">
        <ele>1808.5</ele>
        <time>2022-07-21T08:47:38Z</time>
      </trkpt>
      <trkpt lat="44.17401" lon="5.28391">
        <ele>1808.5</ele>
        <time>2022-07-21T08:47:39Z</time>
      </trkpt>
      <trkpt lat="44.17401" lon="5.28391">
        <ele>1808.5</ele>
        <time>2022-07-21T08:47:40Z</time>
      </trkpt>
      <trkpt lat="44.17401" lon="5.28391">
        <ele>1808.5</ele>
        <time>2022-07-21T08:47:41Z</time>
      </trkpt>
      <trkpt lat="44.17401" lon="5.28391">
        <ele>1808.5</ele>
        <time>2022-07-21T08:47:42Z</time>
      </trkpt>
      <trkpt lat="44.17401" lon="5.28391">
        <ele>1808.5</ele>
        <time>2022-07-21T08:47:43Z</time>
      </trkpt>
      <trkpt lat="44.17401" lon="5.28391">
        <ele>1808.5</ele>
        <time>2022-07-21T08:47:44Z</time>
      </trkpt>
      <trkpt lat="44.17401" lon="5.28391">
        <ele>1808.5</ele>
        <time>2022-07-21T08:47:45Z</time>
      </trkpt>
      <trkpt lat="44.17401" lon="5.28391">
        <ele>1808.5</ele>
        <time>2022-07-21T08:47:46Z</time>
      </trkpt>
      <trkpt lat="44.17401" lon="5.28391">
        <ele>1808.5</ele>
        <time>2022-07-21T08:47:47Z</time>
      </trkpt>
      <trkpt lat="44.17401" lon="5.28395">
        <ele>1808.3</ele>
        <time>2022-07-21T08:48:22Z</time>
      </trkpt>
      <trkpt lat="44.17401" lon="5.28395">
        <ele>1808.3</ele>
        <time>2022-07-21T08:48:23Z</time>
      </trkpt>
      <trkpt lat="44.17401" lon="5.28395">
        <ele>1808.3</ele>
        <time>2022-07-21T08:48:24Z</time>
      </trkpt>
      <trkpt lat="44.17401" lon="5.28395">
        <ele>1808.3</ele>
        <time>2022-07-21T08:48:25Z</time>
      </trkpt>
      <trkpt lat="44.17401" lon="5.28395">
        <ele>1808.3</ele>
        <time>2022-07-21T08:48:26Z</time>
      </trkpt>
      <trkpt lat="44.17401" lon="5.28395">
        <ele>1808.3</ele>
        <time>2022-07-21T08:48:27Z</time>
      </trkpt>
      <trkpt lat="44.17401" lon="5.28395">
        <ele>1808.3</ele>
        <time>2022-07-21T08:48:28Z</time>
      </trkpt>
      <trkpt lat="44.17401" lon="5.28395">
        <ele>1808.3</ele>
        <time>2022-07-21T08:48:29Z</time>
      </trkpt>
      <trkpt lat="44.17401" lon="5.28395">
        <ele>1808.3</ele>
        <time>2022-07-21T08:48:30Z</time>
      </trkpt>
      <trkpt lat="44.17401" lon="5.28395">
        <ele>1808.3</ele>
        <time>2022-07-21T08:48:31Z</time>
      </trkpt>
      <trkpt lat="44.17398" lon="5.28392">
        <ele>1807.9</ele>
        <time>2022-07-21T08:50:34Z</time>
      </trkpt>
      <trkpt lat="44.17395" lon="5.2839">
        <ele>1807.5</ele>
        <time>2022-07-21T08:50:35Z</time>
      </trkpt>
      <trkpt lat="44.17391" lon="5.28389">
        <ele>1807.1</ele>
        <time>2022-07-21T08:50:36Z</time>
      </trkpt>
      <trkpt lat="44.17386" lon="5.28389">
        <ele>1806.5</ele>
        <time>2022-07-21T08:50:37Z</time>
      </trkpt>
      <trkpt lat="44.17381" lon="5.28389">
        <ele>1805.9</ele>
        <time>2022-07-21T08:50:38Z</time>
      </trkpt>
      <trkpt lat="44.17375" lon="5.2839">
        <ele>1805.2</ele>
        <time>2022-07-21T08:50:39Z</time>
      </trkpt>
      <trkpt lat="44.17368" lon="5.28391">
        <ele>1804.4</ele>
        <time>2022-07-21T08:50:40Z</time>
      </trkpt>
      <trkpt lat="44.17361" lon="5.28393">
        <ele>1803.6</ele>
        <time>2022-07-21T08:50:41Z</time>
      </trkpt>
      <trkpt lat="44.17352" lon="5.28394">
        <ele>1802.6</ele>
        <time>2022-07-21T08:50:42Z</time>
      </trkpt>
      <trkpt lat="44.17344" lon="5.28396">
        <ele>1801.5</ele>
        <time>2022-07-21T08:50:43Z</time>
      </trkpt>
      <trkpt lat="44.17333" lon="5.28398">
        <ele>1800.3</ele>
        <time>2022-07-21T08:50:44Z</time>
      </trkpt>
      <trkpt lat="44.17323" lon="5.284">
        <ele>1799.1</ele>
        <time>2022-07-21T08:50:45Z</time>
      </trkpt>
      <trkpt lat="44.17313" lon="5.28402">
        <ele>1797.8</ele>
        <time>2022-07-21T08:50:46Z</time>
      </trkpt>
      <trkpt lat="44.17301" lon="5.28403">
        <ele>1796.4</ele>
        <time>2022-07-21T08:50:47Z</time>
      </trkpt>
      <trkpt lat="44.1729" lon="5.28404">
        <ele>1795.1</ele>
        <time>2022-07-21T08:50:48Z</time>
      </trkpt>
      <trkpt lat="44.17277" lon="5.28406">
        <ele>1793.5</ele>
        <time>2022-07-21T08:50:49Z</time>
      </trkpt>
      <trkpt lat="44.17265" lon="5.28408">
        <ele>1792</ele>
        <time>2022-07-21T08:50:50Z</time>
      </trkpt>
      <trkpt lat="44.17252" lon="5.2841">
        <ele>1790.4</ele>
        <time>2022-07-21T08:50:51Z</time>
      </trkpt>
      <trkpt lat="44.17237" lon="5.28412">
        <ele>1788.6</ele>
        <time>2022-07-21T08:50:52Z</time>
      </trkpt>
      <trkpt lat="44.17224" lon="5.28415">
        <ele>1787</ele>
        <time>2022-07-21T08:50:53Z</time>
      </trkpt>
      <trkpt lat="44.17209" lon="5.28417">
        <ele>1785.3</ele>
        <time>2022-07-21T08:50:54Z</time>
      </trkpt>
      <trkpt lat="44.17195" lon="5.2842">
        <ele>1783.7</ele>
        <time>2022-07-21T08:50:55Z</time>
      </trkpt>
      <trkpt lat="44.1718" lon="5.28422">
        <ele>1782.1</ele>
        <time>2022-07-21T08:50:56Z</time>
      </trkpt>
      <trkpt lat="44.17165" lon="5.28424">
        <ele>1780.6</ele>
        <time>2022-07-21T08:50:57Z</time>
      </trkpt>
      <trkpt lat="44.1715" lon="5.28428">
        <ele>1779.1</ele>
        <time>2022-07-21T08:50:58Z</time>
      </trkpt>
      <trkpt lat="44.17136" lon="5.28433">
        <ele>1777.6</ele>
        <time>2022-07-21T08:50:59Z</time>
      </trkpt>
      <trkpt lat="44.17123" lon="5.2844">
        <ele>1776.2</ele>
        <time>2022-07-21T08:51:00Z</time>
      </trkpt>
      <trkpt lat="44.17109" lon="5.28449">
        <ele>1774.6</ele>
        <time>2022-07-21T08:51:01Z</time>
      </trkpt>
      <trkpt lat="44.17097" lon="5.28461">
        <ele>1773.1</ele>
        <time>2022-07-21T08:51:02Z</time>
      </trkpt>
      <trkpt lat="44.17087" lon="5.28473">
        <ele>1771.7</ele>
        <time>2022-07-21T08:51:03Z</time>
      </trkpt>
      <trkpt lat="44.17078" lon="5.28485">
        <ele>1770.2</ele>
        <time>2022-07-21T08:51:04Z</time>
      </trkpt>
      <trkpt lat="44.1707" lon="5.28498">
        <ele>1768.9</ele>
        <time>2022-07-21T08:51:05Z</time>
      </trkpt>
      <trkpt lat="44.17062" lon="5.28509">
        <ele>1767.5</ele>
        <time>2022-07-21T08:51:06Z</time>
      </trkpt>
      <trkpt lat="44.17053" lon="5.2852">
        <ele>1766.2</ele>
        <time>2022-07-21T08:51:07Z</time>
      </trkpt>
      <trkpt lat="44.17043" lon="5.2853">
        <ele>1764.8</ele>
        <time>2022-07-21T08:51:08Z</time>
      </trkpt>
      <trkpt lat="44.17034" lon="5.2854">
        <ele>1763.4</ele>
        <time>2022-07-21T08:51:09Z</time>
      </trkpt>
      <trkpt lat="44.17024" lon="5.28549">
        <ele>1762</ele>
        <time>2022-07-21T08:51:10Z</time>
      </trkpt>
      <trkpt lat="44.17013" lon="5.28558">
        <ele>1760.5</ele>
        <time>2022-07-21T08:51:11Z</time>
      </trkpt>
      <trkpt lat="44.17002" lon="5.28567">
        <ele>1759</ele>
        <time>2022-07-21T08:51:12Z</time>
      </trkpt>
      <trkpt lat="44.16993" lon="5.28577">
        <ele>1757.7</ele>
        <time>2022-07-21T08:51:13Z</time>
      </trkpt>
      <trkpt lat="44.16985" lon="5.28586">
        <ele>1756.5</ele>
        <time>2022-07-21T08:51:14Z</time>
      </trkpt>
      <trkpt lat="44.16978" lon="5.28593">
        <ele>1755.5</ele>
        <time>2022-07-21T08:51:15Z</time>
      </trkpt>
      <trkpt lat="44.16972" lon="5.286">
        <ele>1754.6</ele>
        <time>2022-07-21T08:51:16Z</time>
      </trkpt>
      <trkpt lat="44.16965" lon="5.28608">
        <ele>1753.6</ele>
        <time>2022-07-21T08:51:17Z</time>
      </trkpt>
      <trkpt lat="44.16958" lon="5.28616">
        <ele>1752.6</ele>
        <time>2022-07-21T08:51:18Z</time>
      </trkpt>
      <trkpt lat="44.16951" lon="5.28624">
        <ele>1751.5</ele>
        <time>2022-07-21T08:51:19Z</time>
      </trkpt>
      <trkpt lat="44.16943" lon="5.28633">
        <ele>1750.4</ele>
        <time>2022-07-21T08:51:20Z</time>
      </trkpt>
      <trkpt lat="44.16936" lon="5.28644">
        <ele>1749.3</ele>
        <time>2022-07-21T08:51:21Z</time>
      </trkpt>
      <trkpt lat="44.16929" lon="5.28657">
        <ele>1748.1</ele>
        <time>2022-07-21T08:51:22Z</time>
      </trkpt>
      <trkpt lat="44.16922" lon="5.28669">
        <ele>1747</ele>
        <time>2022-07-21T08:51:23Z</time>
      </trkpt>
      <trkpt lat="44.16915" lon="5.28683">
        <ele>1745.9</ele>
        <time>2022-07-21T08:51:24Z</time>
      </trkpt>
      <trkpt lat="44.16908" lon="5.28699">
        <ele>1744.7</ele>
        <time>2022-07-21T08:51:25Z</time>
      </trkpt>
      <trkpt lat="44.16902" lon="5.28714">
        <ele>1743.5</ele>
        <time>2022-07-21T08:51:26Z</time>
      </trkpt>
      <trkpt lat="44.16896" lon="5.2873">
        <ele>1742.4</ele>
        <time>2022-07-21T08:51:27Z</time>
      </trkpt>
      <trkpt lat="44.1689" lon="5.28747">
        <ele>1741.2</ele>
        <time>2022-07-21T08:51:28Z</time>
      </trkpt>
      <trkpt lat="44.16885" lon="5.28764">
        <ele>1740</ele>
        <time>2022-07-21T08:51:29Z</time>
      </trkpt>
      <trkpt lat="44.1688" lon="5.28782">
        <ele>1738.9</ele>
        <time>2022-07-21T08:51:30Z</time>
      </trkpt>
      <trkpt lat="44.16875" lon="5.28801">
        <ele>1737.7</ele>
        <time>2022-07-21T08:51:31Z</time>
      </trkpt>
      <trkpt lat="44.16872" lon="5.2882">
        <ele>1736.5</ele>
        <time>2022-07-21T08:51:32Z</time>
      </trkpt>
      <trkpt lat="44.16869" lon="5.28839">
        <ele>1735.2</ele>
        <time>2022-07-21T08:51:33Z</time>
      </trkpt>
      <trkpt lat="44.16866" lon="5.28858">
        <ele>1733.9</ele>
        <time>2022-07-21T08:51:34Z</time>
      </trkpt>
      <trkpt lat="44.16863" lon="5.28877">
        <ele>1732.6</ele>
        <time>2022-07-21T08:51:35Z</time>
      </trkpt>
      <trkpt lat="44.16861" lon="5.28897">
        <ele>1731.3</ele>
        <time>2022-07-21T08:51:36Z</time>
      </trkpt>
      <trkpt lat="44.1686" lon="5.28917">
        <ele>1730</ele>
        <time>2022-07-21T08:51:37Z</time>
      </trkpt>
      <trkpt lat="44.16861" lon="5.28937">
        <ele>1728.7</ele>
        <time>2022-07-21T08:51:38Z</time>
      </trkpt>
      <trkpt lat="44.16863" lon="5.28956">
        <ele>1727.5</ele>
        <time>2022-07-21T08:51:39Z</time>
      </trkpt>
      <trkpt lat="44.16867" lon="5.28973">
        <ele>1726.3</ele>
        <time>2022-07-21T08:51:40Z</time>
      </trkpt>
      <trkpt lat="44.16872" lon="5.28988">
        <ele>1725.3</ele>
        <time>2022-07-21T08:51:41Z</time>
      </trkpt>
      <trkpt lat="44.1688" lon="5.29003">
        <ele>1724.4</ele>
        <time>2022-07-21T08:51:42Z</time>
      </trkpt>
      <trkpt lat="44.16887" lon="5.29014">
        <ele>1723.7</ele>
        <time>2022-07-21T08:51:43Z</time>
      </trkpt>
      <trkpt lat="44.16897" lon="5.29026">
        <ele>1722.9</ele>
        <time>2022-07-21T08:51:44Z</time>
      </trkpt>
      <trkpt lat="44.16907" lon="5.29036">
        <ele>1722.2</ele>
        <time>2022-07-21T08:51:45Z</time>
      </trkpt>
      <trkpt lat="44.16916" lon="5.29047">
        <ele>1721.6</ele>
        <time>2022-07-21T08:51:46Z</time>
      </trkpt>
      <trkpt lat="44.16926" lon="5.29058">
        <ele>1720.9</ele>
        <time>2022-07-21T08:51:47Z</time>
      </trkpt>
      <trkpt lat="44.16934" lon="5.29068">
        <ele>1720.3</ele>
        <time>2022-07-21T08:51:48Z</time>
      </trkpt>
      <trkpt lat="44.1694" lon="5.29078">
        <ele>1719.6</ele>
        <time>2022-07-21T08:51:49Z</time>
      </trkpt>
      <trkpt lat="44.16943" lon="5.29089">
        <ele>1719</ele>
        <time>2022-07-21T08:51:50Z</time>
      </trkpt>
      <trkpt lat="44.16942" lon="5.29101">
        <ele>1718.2</ele>
        <time>2022-07-21T08:51:51Z</time>
      </trkpt>
      <trkpt lat="44.16937" lon="5.2911">
        <ele>1717.5</ele>
        <time>2022-07-21T08:51:52Z</time>
      </trkpt>
      <trkpt lat="44.1693" lon="5.29117">
        <ele>1716.6</ele>
        <time>2022-07-21T08:51:53Z</time>
      </trkpt>
      <trkpt lat="44.16921" lon="5.29122">
        <ele>1715.7</ele>
        <time>2022-07-21T08:51:54Z</time>
      </trkpt>
      <trkpt lat="44.16911" lon="5.29126">
        <ele>1714.5</ele>
        <time>2022-07-21T08:51:55Z</time>
      </trkpt>
      <trkpt lat="44.169" lon="5.29129">
        <ele>1713.3</ele>
        <time>2022-07-21T08:51:56Z</time>
      </trkpt>
      <trkpt lat="44.16889" lon="5.29134">
        <ele>1712</ele>
        <time>2022-07-21T08:51:57Z</time>
      </trkpt>
      <trkpt lat="44.16877" lon="5.29138">
        <ele>1710.7</ele>
        <time>2022-07-21T08:51:58Z</time>
      </trkpt>
      <trkpt lat="44.16864" lon="5.29143">
        <ele>1709.2</ele>
        <time>2022-07-21T08:51:59Z</time>
      </trkpt>
      <trkpt lat="44.16851" lon="5.29148">
        <ele>1707.8</ele>
        <time>2022-07-21T08:52:00Z</time>
      </trkpt>
      <trkpt lat="44.16837" lon="5.29154">
        <ele>1706.2</ele>
        <time>2022-07-21T08:52:01Z</time>
      </trkpt>
      <trkpt lat="44.16823" lon="5.2916">
        <ele>1704.7</ele>
        <time>2022-07-21T08:52:02Z</time>
      </trkpt>
      <trkpt lat="44.16809" lon="5.29167">
        <ele>1703.2</ele>
        <time>2022-07-21T08:52:03Z</time>
      </trkpt>
      <trkpt lat="44.16795" lon="5.29173">
        <ele>1701.7</ele>
        <time>2022-07-21T08:52:04Z</time>
      </trkpt>
      <trkpt lat="44.16781" lon="5.29178">
        <ele>1700.3</ele>
        <time>2022-07-21T08:52:05Z</time>
      </trkpt>
      <trkpt lat="44.16768" lon="5.29184">
        <ele>1699</ele>
        <time>2022-07-21T08:52:06Z</time>
      </trkpt>
      <trkpt lat="44.16756" lon="5.29192">
        <ele>1697.7</ele>
        <time>2022-07-21T08:52:07Z</time>
      </trkpt>
      <trkpt lat="44.16745" lon="5.29204">
        <ele>1696.5</ele>
        <time>2022-07-21T08:52:08Z</time>
      </trkpt>
      <trkpt lat="44.16735" lon="5.29217">
        <ele>1695.1</ele>
        <time>2022-07-21T08:52:09Z</time>
      </trkpt>
      <trkpt lat="44.16726" lon="5.29232">
        <ele>1693.7</ele>
        <time>2022-07-21T08:52:10Z</time>
      </trkpt>
      <trkpt lat="44.16718" lon="5.29248">
        <ele>1692.3</ele>
        <time>2022-07-21T08:52:11Z</time>
      </trkpt>
      <trkpt lat="44.16711" lon="5.29267">
        <ele>1690.7</ele>
        <time>2022-07-21T08:52:12Z</time>
      </trkpt>
      <trkpt lat="44.16708" lon="5.29286">
        <ele>1689.2</ele>
        <time>2022-07-21T08:52:13Z</time>
      </trkpt>
      <trkpt lat="44.16707" lon="5.29306">
        <ele>1687.8</ele>
        <time>2022-07-21T08:52:14Z</time>
      </trkpt>
      <trkpt lat="44.16708" lon="5.29326">
        <ele>1686.4</ele>
        <time>2022-07-21T08:52:15Z</time>
      </trkpt>
      <trkpt lat="44.16711" lon="5.29346">
        <ele>1685.1</ele>
        <time>2022-07-21T08:52:16Z</time>
      </trkpt>
      <trkpt lat="44.16716" lon="5.29365">
        <ele>1683.8</ele>
        <time>2022-07-21T08:52:17Z</time>
      </trkpt>
      <trkpt lat="44.16723" lon="5.29382">
        <ele>1682.7</ele>
        <time>2022-07-21T08:52:18Z</time>
      </trkpt>
      <trkpt lat="44.1673" lon="5.294">
        <ele>1681.6</ele>
        <time>2022-07-21T08:52:19Z</time>
      </trkpt>
      <trkpt lat="44.16738" lon="5.29417">
        <ele>1680.5</ele>
        <time>2022-07-21T08:52:20Z</time>
      </trkpt>
      <trkpt lat="44.16745" lon="5.29434">
        <ele>1679.6</ele>
        <time>2022-07-21T08:52:21Z</time>
      </trkpt>
      <trkpt lat="44.16753" lon="5.29451">
        <ele>1678.8</ele>
        <time>2022-07-21T08:52:22Z</time>
      </trkpt>
      <trkpt lat="44.1676" lon="5.29467">
        <ele>1678.1</ele>
        <time>2022-07-21T08:52:23Z</time>
      </trkpt>
      <trkpt lat="44.16765" lon="5.29485">
        <ele>1677.4</ele>
        <time>2022-07-21T08:52:24Z</time>
      </trkpt>
      <trkpt lat="44.16767" lon="5.29503">
        <ele>1676.7</ele>
        <time>2022-07-21T08:52:25Z</time>
      </trkpt>
      <trkpt lat="44.16764" lon="5.29522">
        <ele>1675.9</ele>
        <time>2022-07-21T08:52:26Z</time>
      </trkpt>
      <trkpt lat="44.16759" lon="5.29539">
        <ele>1675</ele>
        <time>2022-07-21T08:52:27Z</time>
      </trkpt>
      <trkpt lat="44.1675" lon="5.29553">
        <ele>1674</ele>
        <time>2022-07-21T08:52:28Z</time>
      </trkpt>
      <trkpt lat="44.1674" lon="5.29566">
        <ele>1672.9</ele>
        <time>2022-07-21T08:52:29Z</time>
      </trkpt>
      <trkpt lat="44.16729" lon="5.29576">
        <ele>1671.8</ele>
        <time>2022-07-21T08:52:30Z</time>
      </trkpt>
      <trkpt lat="44.16718" lon="5.29588">
        <ele>1670.6</ele>
        <time>2022-07-21T08:52:31Z</time>
      </trkpt>
      <trkpt lat="44.16707" lon="5.29599">
        <ele>1669.4</ele>
        <time>2022-07-21T08:52:32Z</time>
      </trkpt>
      <trkpt lat="44.16695" lon="5.29609">
        <ele>1668.1</ele>
        <time>2022-07-21T08:52:33Z</time>
      </trkpt>
      <trkpt lat="44.16682" lon="5.29619">
        <ele>1666.7</ele>
        <time>2022-07-21T08:52:34Z</time>
      </trkpt>
      <trkpt lat="44.16668" lon="5.29628">
        <ele>1665.2</ele>
        <time>2022-07-21T08:52:35Z</time>
      </trkpt>
      <trkpt lat="44.16655" lon="5.29636">
        <ele>1663.7</ele>
        <time>2022-07-21T08:52:36Z</time>
      </trkpt>
      <trkpt lat="44.16642" lon="5.29644">
        <ele>1662.2</ele>
        <time>2022-07-21T08:52:37Z</time>
      </trkpt>
      <trkpt lat="44.16628" lon="5.29653">
        <ele>1660.6</ele>
        <time>2022-07-21T08:52:38Z</time>
      </trkpt>
      <trkpt lat="44.16613" lon="5.29662">
        <ele>1658.9</ele>
        <time>2022-07-21T08:52:39Z</time>
      </trkpt>
      <trkpt lat="44.166" lon="5.2967">
        <ele>1657.3</ele>
        <time>2022-07-21T08:52:40Z</time>
      </trkpt>
      <trkpt lat="44.16585" lon="5.2968">
        <ele>1655.5</ele>
        <time>2022-07-21T08:52:41Z</time>
      </trkpt>
      <trkpt lat="44.16572" lon="5.29691">
        <ele>1653.8</ele>
        <time>2022-07-21T08:52:42Z</time>
      </trkpt>
      <trkpt lat="44.1656" lon="5.29705">
        <ele>1652.2</ele>
        <time>2022-07-21T08:52:43Z</time>
      </trkpt>
      <trkpt lat="44.1655" lon="5.2972">
        <ele>1650.7</ele>
        <time>2022-07-21T08:52:44Z</time>
      </trkpt>
      <trkpt lat="44.16542" lon="5.29738">
        <ele>1649.4</ele>
        <time>2022-07-21T08:52:45Z</time>
      </trkpt>
      <trkpt lat="44.16535" lon="5.29757">
        <ele>1648.1</ele>
        <time>2022-07-21T08:52:46Z</time>
      </trkpt>
      <trkpt lat="44.1653" lon="5.29777">
        <ele>1646.9</ele>
        <time>2022-07-21T08:52:47Z</time>
      </trkpt>
      <trkpt lat="44.16525" lon="5.29797">
        <ele>1645.6</ele>
        <time>2022-07-21T08:52:48Z</time>
      </trkpt>
      <trkpt lat="44.16521" lon="5.29817">
        <ele>1644.5</ele>
        <time>2022-07-21T08:52:49Z</time>
      </trkpt>
      <trkpt lat="44.16517" lon="5.29837">
        <ele>1643.3</ele>
        <time>2022-07-21T08:52:50Z</time>
      </trkpt>
      <trkpt lat="44.16513" lon="5.29857">
        <ele>1642.1</ele>
        <time>2022-07-21T08:52:51Z</time>
      </trkpt>
      <trkpt lat="44.16507" lon="5.29877">
        <ele>1640.9</ele>
        <time>2022-07-21T08:52:52Z</time>
      </trkpt>
      <trkpt lat="44.16493" lon="5.29915">
        <ele>1638.2</ele>
        <time>2022-07-21T08:52:53Z</time>
      </trkpt>
      <trkpt lat="44.16485" lon="5.29934">
        <ele>1636.8</ele>
        <time>2022-07-21T08:52:55Z</time>
      </trkpt>
      <trkpt lat="44.16477" lon="5.29952">
        <ele>1635.5</ele>
        <time>2022-07-21T08:52:56Z</time>
      </trkpt>
      <trkpt lat="44.16469" lon="5.29971">
        <ele>1634.1</ele>
        <time>2022-07-21T08:52:57Z</time>
      </trkpt>
      <trkpt lat="44.16461" lon="5.2999">
        <ele>1632.7</ele>
        <time>2022-07-21T08:52:58Z</time>
      </trkpt>
      <trkpt lat="44.16453" lon="5.30009">
        <ele>1631.3</ele>
        <time>2022-07-21T08:52:59Z</time>
      </trkpt>
      <trkpt lat="44.16446" lon="5.30029">
        <ele>1630</ele>
        <time>2022-07-21T08:53:00Z</time>
      </trkpt>
      <trkpt lat="44.16439" lon="5.30049">
        <ele>1628.7</ele>
        <time>2022-07-21T08:53:01Z</time>
      </trkpt>
      <trkpt lat="44.16432" lon="5.3007">
        <ele>1627.3</ele>
        <time>2022-07-21T08:53:02Z</time>
      </trkpt>
      <trkpt lat="44.16425" lon="5.3009">
        <ele>1626.1</ele>
        <time>2022-07-21T08:53:03Z</time>
      </trkpt>
      <trkpt lat="44.16419" lon="5.30111">
        <ele>1624.8</ele>
        <time>2022-07-21T08:53:04Z</time>
      </trkpt>
      <trkpt lat="44.16412" lon="5.30131">
        <ele>1623.6</ele>
        <time>2022-07-21T08:53:05Z</time>
      </trkpt>
      <trkpt lat="44.16405" lon="5.30151">
        <ele>1622.4</ele>
        <time>2022-07-21T08:53:06Z</time>
      </trkpt>
      <trkpt lat="44.16398" lon="5.30171">
        <ele>1621.2</ele>
        <time>2022-07-21T08:53:07Z</time>
      </trkpt>
      <trkpt lat="44.16388" lon="5.30188">
        <ele>1620</ele>
        <time>2022-07-21T08:53:08Z</time>
      </trkpt>
      <trkpt lat="44.16377" lon="5.30204">
        <ele>1618.8</ele>
        <time>2022-07-21T08:53:09Z</time>
      </trkpt>
      <trkpt lat="44.16365" lon="5.30216">
        <ele>1617.7</ele>
        <time>2022-07-21T08:53:10Z</time>
      </trkpt>
      <trkpt lat="44.16351" lon="5.30227">
        <ele>1616.9</ele>
        <time>2022-07-21T08:53:11Z</time>
      </trkpt>
      <trkpt lat="44.16339" lon="5.30237">
        <ele>1616.2</ele>
        <time>2022-07-21T08:53:12Z</time>
      </trkpt>
      <trkpt lat="44.16326" lon="5.30245">
        <ele>1615.6</ele>
        <time>2022-07-21T08:53:13Z</time>
      </trkpt>
      <trkpt lat="44.16314" lon="5.3025">
        <ele>1615.2</ele>
        <time>2022-07-21T08:53:14Z</time>
      </trkpt>
      <trkpt lat="44.16302" lon="5.30251">
        <ele>1614.7</ele>
        <time>2022-07-21T08:53:15Z</time>
      </trkpt>
      <trkpt lat="44.16291" lon="5.30247">
        <ele>1614</ele>
        <time>2022-07-21T08:53:16Z</time>
      </trkpt>
      <trkpt lat="44.16281" lon="5.30239">
        <ele>1613.2</ele>
        <time>2022-07-21T08:53:17Z</time>
      </trkpt>
      <trkpt lat="44.16272" lon="5.30227">
        <ele>1612.3</ele>
        <time>2022-07-21T08:53:18Z</time>
      </trkpt>
      <trkpt lat="44.16264" lon="5.30215">
        <ele>1611.3</ele>
        <time>2022-07-21T08:53:19Z</time>
      </trkpt>
      <trkpt lat="44.16257" lon="5.30201">
        <ele>1610.2</ele>
        <time>2022-07-21T08:53:20Z</time>
      </trkpt>
      <trkpt lat="44.1625" lon="5.30187">
        <ele>1609.1</ele>
        <time>2022-07-21T08:53:21Z</time>
      </trkpt>
      <trkpt lat="44.16242" lon="5.30173">
        <ele>1607.9</ele>
        <time>2022-07-21T08:53:22Z</time>
      </trkpt>
      <trkpt lat="44.16234" lon="5.30159">
        <ele>1606.8</ele>
        <time>2022-07-21T08:53:23Z</time>
      </trkpt>
      <trkpt lat="44.16226" lon="5.30144">
        <ele>1605.7</ele>
        <time>2022-07-21T08:53:24Z</time>
      </trkpt>
      <trkpt lat="44.16218" lon="5.30129">
        <ele>1604.5</ele>
        <time>2022-07-21T08:53:25Z</time>
      </trkpt>
      <trkpt lat="44.16209" lon="5.30114">
        <ele>1603.2</ele>
        <time>2022-07-21T08:53:26Z</time>
      </trkpt>
      <trkpt lat="44.16202" lon="5.301">
        <ele>1602</ele>
        <time>2022-07-21T08:53:27Z</time>
      </trkpt>
      <trkpt lat="44.16193" lon="5.30088">
        <ele>1600.7</ele>
        <time>2022-07-21T08:53:28Z</time>
      </trkpt>
      <trkpt lat="44.16184" lon="5.3008">
        <ele>1599.6</ele>
        <time>2022-07-21T08:53:29Z</time>
      </trkpt>
      <trkpt lat="44.16173" lon="5.30076">
        <ele>1598.4</ele>
        <time>2022-07-21T08:53:30Z</time>
      </trkpt>
      <trkpt lat="44.16161" lon="5.30076">
        <ele>1597.3</ele>
        <time>2022-07-21T08:53:31Z</time>
      </trkpt>
      <trkpt lat="44.16149" lon="5.3008">
        <ele>1596.2</ele>
        <time>2022-07-21T08:53:32Z</time>
      </trkpt>
      <trkpt lat="44.16138" lon="5.30087">
        <ele>1595.1</ele>
        <time>2022-07-21T08:53:33Z</time>
      </trkpt>
      <trkpt lat="44.16126" lon="5.30094">
        <ele>1594.1</ele>
        <time>2022-07-21T08:53:34Z</time>
      </trkpt>
      <trkpt lat="44.16115" lon="5.30103">
        <ele>1593</ele>
        <time>2022-07-21T08:53:35Z</time>
      </trkpt>
      <trkpt lat="44.16104" lon="5.30113">
        <ele>1591.8</ele>
        <time>2022-07-21T08:53:36Z</time>
      </trkpt>
      <trkpt lat="44.16093" lon="5.30124">
        <ele>1590.6</ele>
        <time>2022-07-21T08:53:37Z</time>
      </trkpt>
      <trkpt lat="44.16082" lon="5.30137">
        <ele>1589.3</ele>
        <time>2022-07-21T08:53:38Z</time>
      </trkpt>
      <trkpt lat="44.16072" lon="5.30151">
        <ele>1588.1</ele>
        <time>2022-07-21T08:53:39Z</time>
      </trkpt>
      <trkpt lat="44.16063" lon="5.30165">
        <ele>1586.8</ele>
        <time>2022-07-21T08:53:40Z</time>
      </trkpt>
      <trkpt lat="44.16055" lon="5.30182">
        <ele>1585.5</ele>
        <time>2022-07-21T08:53:41Z</time>
      </trkpt>
      <trkpt lat="44.16047" lon="5.302">
        <ele>1584.3</ele>
        <time>2022-07-21T08:53:42Z</time>
      </trkpt>
      <trkpt lat="44.1604" lon="5.30218">
        <ele>1583</ele>
        <time>2022-07-21T08:53:43Z</time>
      </trkpt>
      <trkpt lat="44.16033" lon="5.30235">
        <ele>1581.9</ele>
        <time>2022-07-21T08:53:44Z</time>
      </trkpt>
      <trkpt lat="44.16026" lon="5.30254">
        <ele>1580.7</ele>
        <time>2022-07-21T08:53:45Z</time>
      </trkpt>
      <trkpt lat="44.16019" lon="5.30272">
        <ele>1579.6</ele>
        <time>2022-07-21T08:53:46Z</time>
      </trkpt>
      <trkpt lat="44.16013" lon="5.30291">
        <ele>1578.4</ele>
        <time>2022-07-21T08:53:47Z</time>
      </trkpt>
      <trkpt lat="44.16006" lon="5.3031">
        <ele>1577.4</ele>
        <time>2022-07-21T08:53:48Z</time>
      </trkpt>
      <trkpt lat="44.16" lon="5.30329">
        <ele>1576.2</ele>
        <time>2022-07-21T08:53:49Z</time>
      </trkpt>
      <trkpt lat="44.15996" lon="5.30349">
        <ele>1575</ele>
        <time>2022-07-21T08:53:50Z</time>
      </trkpt>
      <trkpt lat="44.15991" lon="5.3037">
        <ele>1573.7</ele>
        <time>2022-07-21T08:53:51Z</time>
      </trkpt>
      <trkpt lat="44.15987" lon="5.3039">
        <ele>1572.5</ele>
        <time>2022-07-21T08:53:52Z</time>
      </trkpt>
      <trkpt lat="44.15982" lon="5.30411">
        <ele>1571.3</ele>
        <time>2022-07-21T08:53:53Z</time>
      </trkpt>
      <trkpt lat="44.15978" lon="5.30432">
        <ele>1570</ele>
        <time>2022-07-21T08:53:54Z</time>
      </trkpt>
      <trkpt lat="44.15974" lon="5.30453">
        <ele>1568.7</ele>
        <time>2022-07-21T08:53:55Z</time>
      </trkpt>
      <trkpt lat="44.15969" lon="5.30473">
        <ele>1567.4</ele>
        <time>2022-07-21T08:53:56Z</time>
      </trkpt>
      <trkpt lat="44.15965" lon="5.30494">
        <ele>1566.1</ele>
        <time>2022-07-21T08:53:57Z</time>
      </trkpt>
      <trkpt lat="44.15962" lon="5.30515">
        <ele>1564.8</ele>
        <time>2022-07-21T08:53:58Z</time>
      </trkpt>
      <trkpt lat="44.1596" lon="5.30536">
        <ele>1563.5</ele>
        <time>2022-07-21T08:53:59Z</time>
      </trkpt>
      <trkpt lat="44.15961" lon="5.30557">
        <ele>1562.4</ele>
        <time>2022-07-21T08:54:00Z</time>
      </trkpt>
      <trkpt lat="44.15963" lon="5.30578">
        <ele>1561.3</ele>
        <time>2022-07-21T08:54:01Z</time>
      </trkpt>
      <trkpt lat="44.15968" lon="5.30599">
        <ele>1560.1</ele>
        <time>2022-07-21T08:54:02Z</time>
      </trkpt>
      <trkpt lat="44.15972" lon="5.30619">
        <ele>1558.9</ele>
        <time>2022-07-21T08:54:03Z</time>
      </trkpt>
      <trkpt lat="44.15975" lon="5.30639">
        <ele>1557.6</ele>
        <time>2022-07-21T08:54:04Z</time>
      </trkpt>
      <trkpt lat="44.1598" lon="5.30658">
        <ele>1556.3</ele>
        <time>2022-07-21T08:54:05Z</time>
      </trkpt>
      <trkpt lat="44.15984" lon="5.30677">
        <ele>1555.1</ele>
        <time>2022-07-21T08:54:06Z</time>
      </trkpt>
      <trkpt lat="44.15989" lon="5.30696">
        <ele>1554</ele>
        <time>2022-07-21T08:54:07Z</time>
      </trkpt>
      <trkpt lat="44.15995" lon="5.30714">
        <ele>1553</ele>
        <time>2022-07-21T08:54:08Z</time>
      </trkpt>
      <trkpt lat="44.16002" lon="5.30731">
        <ele>1552.1</ele>
        <time>2022-07-21T08:54:09Z</time>
      </trkpt>
      <trkpt lat="44.16009" lon="5.30746">
        <ele>1551.3</ele>
        <time>2022-07-21T08:54:10Z</time>
      </trkpt>
      <trkpt lat="44.16016" lon="5.3076">
        <ele>1550.6</ele>
        <time>2022-07-21T08:54:11Z</time>
      </trkpt>
      <trkpt lat="44.16021" lon="5.30773">
        <ele>1550.1</ele>
        <time>2022-07-21T08:54:12Z</time>
      </trkpt>
      <trkpt lat="44.16025" lon="5.30786">
        <ele>1549.7</ele>
        <time>2022-07-21T08:54:13Z</time>
      </trkpt>
      <trkpt lat="44.16025" lon="5.30799">
        <ele>1549.3</ele>
        <time>2022-07-21T08:54:14Z</time>
      </trkpt>
      <trkpt lat="44.16022" lon="5.3081">
        <ele>1549</ele>
        <time>2022-07-21T08:54:15Z</time>
      </trkpt>
      <trkpt lat="44.16015" lon="5.30817">
        <ele>1548.7</ele>
        <time>2022-07-21T08:54:16Z</time>
      </trkpt>
      <trkpt lat="44.16007" lon="5.3082">
        <ele>1548.3</ele>
        <time>2022-07-21T08:54:17Z</time>
      </trkpt>
      <trkpt lat="44.15998" lon="5.3082">
        <ele>1547.7</ele>
        <time>2022-07-21T08:54:18Z</time>
      </trkpt>
      <trkpt lat="44.15988" lon="5.30819">
        <ele>1547.1</ele>
        <time>2022-07-21T08:54:19Z</time>
      </trkpt>
      <trkpt lat="44.15979" lon="5.30817">
        <ele>1546.4</ele>
        <time>2022-07-21T08:54:20Z</time>
      </trkpt>
      <trkpt lat="44.15968" lon="5.30815">
        <ele>1545.6</ele>
        <time>2022-07-21T08:54:21Z</time>
      </trkpt>
      <trkpt lat="44.15957" lon="5.30814">
        <ele>1544.8</ele>
        <time>2022-07-21T08:54:22Z</time>
      </trkpt>
      <trkpt lat="44.15946" lon="5.30812">
        <ele>1543.9</ele>
        <time>2022-07-21T08:54:23Z</time>
      </trkpt>
      <trkpt lat="44.15934" lon="5.30811">
        <ele>1542.9</ele>
        <time>2022-07-21T08:54:24Z</time>
      </trkpt>
      <trkpt lat="44.15922" lon="5.3081">
        <ele>1542</ele>
        <time>2022-07-21T08:54:25Z</time>
      </trkpt>
      <trkpt lat="44.15909" lon="5.3081">
        <ele>1541</ele>
        <time>2022-07-21T08:54:26Z</time>
      </trkpt>
      <trkpt lat="44.15891" lon="5.30812">
        <ele>1539.6</ele>
        <time>2022-07-21T08:54:27Z</time>
      </trkpt>
      <trkpt lat="44.15884" lon="5.30813">
        <ele>1539.1</ele>
        <time>2022-07-21T08:54:28Z</time>
      </trkpt>
      <trkpt lat="44.15871" lon="5.30816">
        <ele>1538.2</ele>
        <time>2022-07-21T08:54:29Z</time>
      </trkpt>
      <trkpt lat="44.15857" lon="5.30822">
        <ele>1537.1</ele>
        <time>2022-07-21T08:54:30Z</time>
      </trkpt>
      <trkpt lat="44.15845" lon="5.30828">
        <ele>1536.1</ele>
        <time>2022-07-21T08:54:31Z</time>
      </trkpt>
      <trkpt lat="44.15832" lon="5.30835">
        <ele>1535</ele>
        <time>2022-07-21T08:54:32Z</time>
      </trkpt>
      <trkpt lat="44.1582" lon="5.30844">
        <ele>1533.7</ele>
        <time>2022-07-21T08:54:33Z</time>
      </trkpt>
      <trkpt lat="44.15809" lon="5.30854">
        <ele>1532.5</ele>
        <time>2022-07-21T08:54:34Z</time>
      </trkpt>
      <trkpt lat="44.15797" lon="5.30866">
        <ele>1531.4</ele>
        <time>2022-07-21T08:54:35Z</time>
      </trkpt>
      <trkpt lat="44.15787" lon="5.30881">
        <ele>1530.2</ele>
        <time>2022-07-21T08:54:36Z</time>
      </trkpt>
      <trkpt lat="44.15779" lon="5.30896">
        <ele>1529.1</ele>
        <time>2022-07-21T08:54:37Z</time>
      </trkpt>
      <trkpt lat="44.15771" lon="5.30914">
        <ele>1527.8</ele>
        <time>2022-07-21T08:54:38Z</time>
      </trkpt>
      <trkpt lat="44.15764" lon="5.30932">
        <ele>1526.5</ele>
        <time>2022-07-21T08:54:39Z</time>
      </trkpt>
      <trkpt lat="44.15757" lon="5.30951">
        <ele>1525.3</ele>
        <time>2022-07-21T08:54:40Z</time>
      </trkpt>
      <trkpt lat="44.15752" lon="5.30971">
        <ele>1524</ele>
        <time>2022-07-21T08:54:41Z</time>
      </trkpt>
      <trkpt lat="44.15748" lon="5.30992">
        <ele>1522.7</ele>
        <time>2022-07-21T08:54:42Z</time>
      </trkpt>
      <trkpt lat="44.15744" lon="5.31012">
        <ele>1521.4</ele>
        <time>2022-07-21T08:54:43Z</time>
      </trkpt>
      <trkpt lat="44.15741" lon="5.31033">
        <ele>1520.1</ele>
        <time>2022-07-21T08:54:44Z</time>
      </trkpt>
      <trkpt lat="44.1574" lon="5.31075">
        <ele>1517.4</ele>
        <time>2022-07-21T08:54:46Z</time>
      </trkpt>
      <trkpt lat="44.15745" lon="5.31114">
        <ele>1514.8</ele>
        <time>2022-07-21T08:54:47Z</time>
      </trkpt>
      <trkpt lat="44.15748" lon="5.31134">
        <ele>1513.6</ele>
        <time>2022-07-21T08:54:49Z</time>
      </trkpt>
      <trkpt lat="44.15757" lon="5.31162">
        <ele>1511.8</ele>
        <time>2022-07-21T08:54:50Z</time>
      </trkpt>
      <trkpt lat="44.1576" lon="5.31171">
        <ele>1511.3</ele>
        <time>2022-07-21T08:54:51Z</time>
      </trkpt>
      <trkpt lat="44.15767" lon="5.31189">
        <ele>1510.1</ele>
        <time>2022-07-21T08:54:52Z</time>
      </trkpt>
      <trkpt lat="44.15773" lon="5.31207">
        <ele>1508.9</ele>
        <time>2022-07-21T08:54:53Z</time>
      </trkpt>
      <trkpt lat="44.15777" lon="5.31225">
        <ele>1507.6</ele>
        <time>2022-07-21T08:54:54Z</time>
      </trkpt>
      <trkpt lat="44.15779" lon="5.31244">
        <ele>1506.4</ele>
        <time>2022-07-21T08:54:55Z</time>
      </trkpt>
      <trkpt lat="44.1578" lon="5.31262">
        <ele>1505.2</ele>
        <time>2022-07-21T08:54:56Z</time>
      </trkpt>
      <trkpt lat="44.1578" lon="5.3128">
        <ele>1504.3</ele>
        <time>2022-07-21T08:54:57Z</time>
      </trkpt>
      <trkpt lat="44.15781" lon="5.31305">
        <ele>1503.4</ele>
        <time>2022-07-21T08:54:58Z</time>
      </trkpt>
      <trkpt lat="44.15781" lon="5.31312">
        <ele>1503.1</ele>
        <time>2022-07-21T08:54:59Z</time>
      </trkpt>
      <trkpt lat="44.15778" lon="5.31326">
        <ele>1502.7</ele>
        <time>2022-07-21T08:55:00Z</time>
      </trkpt>
      <trkpt lat="44.15763" lon="5.3134">
        <ele>1502.1</ele>
        <time>2022-07-21T08:55:02Z</time>
      </trkpt>
      <trkpt lat="44.15749" lon="5.31339">
        <ele>1501.4</ele>
        <time>2022-07-21T08:55:03Z</time>
      </trkpt>
      <trkpt lat="44.15744" lon="5.31337">
        <ele>1501.2</ele>
        <time>2022-07-21T08:55:04Z</time>
      </trkpt>
      <trkpt lat="44.15735" lon="5.3133">
        <ele>1500.6</ele>
        <time>2022-07-21T08:55:05Z</time>
      </trkpt>
      <trkpt lat="44.15726" lon="5.31324">
        <ele>1499.9</ele>
        <time>2022-07-21T08:55:06Z</time>
      </trkpt>
      <trkpt lat="44.15716" lon="5.31317">
        <ele>1499.2</ele>
        <time>2022-07-21T08:55:07Z</time>
      </trkpt>
      <trkpt lat="44.15706" lon="5.31311">
        <ele>1498.6</ele>
        <time>2022-07-21T08:55:08Z</time>
      </trkpt>
      <trkpt lat="44.15695" lon="5.31305">
        <ele>1497.9</ele>
        <time>2022-07-21T08:55:09Z</time>
      </trkpt>
      <trkpt lat="44.15683" lon="5.31301">
        <ele>1497.2</ele>
        <time>2022-07-21T08:55:10Z</time>
      </trkpt>
      <trkpt lat="44.15672" lon="5.31295">
        <ele>1496.5</ele>
        <time>2022-07-21T08:55:11Z</time>
      </trkpt>
      <trkpt lat="44.1566" lon="5.3129">
        <ele>1495.9</ele>
        <time>2022-07-21T08:55:12Z</time>
      </trkpt>
      <trkpt lat="44.15648" lon="5.31285">
        <ele>1495.3</ele>
        <time>2022-07-21T08:55:13Z</time>
      </trkpt>
      <trkpt lat="44.15636" lon="5.3128">
        <ele>1494.8</ele>
        <time>2022-07-21T08:55:14Z</time>
      </trkpt>
      <trkpt lat="44.15624" lon="5.31274">
        <ele>1494.3</ele>
        <time>2022-07-21T08:55:15Z</time>
      </trkpt>
      <trkpt lat="44.15612" lon="5.31267">
        <ele>1493.7</ele>
        <time>2022-07-21T08:55:16Z</time>
      </trkpt>
      <trkpt lat="44.156" lon="5.3126">
        <ele>1493</ele>
        <time>2022-07-21T08:55:17Z</time>
      </trkpt>
      <trkpt lat="44.15589" lon="5.31252">
        <ele>1492.4</ele>
        <time>2022-07-21T08:55:18Z</time>
      </trkpt>
      <trkpt lat="44.15578" lon="5.31244">
        <ele>1491.6</ele>
        <time>2022-07-21T08:55:19Z</time>
      </trkpt>
      <trkpt lat="44.15567" lon="5.31235">
        <ele>1490.8</ele>
        <time>2022-07-21T08:55:20Z</time>
      </trkpt>
      <trkpt lat="44.15555" lon="5.31227">
        <ele>1489.8</ele>
        <time>2022-07-21T08:55:21Z</time>
      </trkpt>
      <trkpt lat="44.15543" lon="5.3122">
        <ele>1488.8</ele>
        <time>2022-07-21T08:55:22Z</time>
      </trkpt>
      <trkpt lat="44.15531" lon="5.31218">
        <ele>1487.8</ele>
        <time>2022-07-21T08:55:23Z</time>
      </trkpt>
      <trkpt lat="44.15519" lon="5.31221">
        <ele>1486.8</ele>
        <time>2022-07-21T08:55:24Z</time>
      </trkpt>
      <trkpt lat="44.15507" lon="5.31228">
        <ele>1485.9</ele>
        <time>2022-07-21T08:55:25Z</time>
      </trkpt>
      <trkpt lat="44.15499" lon="5.3124">
        <ele>1485</ele>
        <time>2022-07-21T08:55:26Z</time>
      </trkpt>
      <trkpt lat="44.15492" lon="5.31254">
        <ele>1484.2</ele>
        <time>2022-07-21T08:55:27Z</time>
      </trkpt>
      <trkpt lat="44.15487" lon="5.3127">
        <ele>1483.3</ele>
        <time>2022-07-21T08:55:28Z</time>
      </trkpt>
      <trkpt lat="44.15485" lon="5.31287">
        <ele>1482.5</ele>
        <time>2022-07-21T08:55:29Z</time>
      </trkpt>
      <trkpt lat="44.15484" lon="5.31305">
        <ele>1481.7</ele>
        <time>2022-07-21T08:55:30Z</time>
      </trkpt>
      <trkpt lat="44.15483" lon="5.31323">
        <ele>1481</ele>
        <time>2022-07-21T08:55:31Z</time>
      </trkpt>
      <trkpt lat="44.15481" lon="5.31339">
        <ele>1480.2</ele>
        <time>2022-07-21T08:55:32Z</time>
      </trkpt>
      <trkpt lat="44.1548" lon="5.31358">
        <ele>1479.4</ele>
        <time>2022-07-21T08:55:33Z</time>
      </trkpt>
      <trkpt lat="44.15479" lon="5.31375">
        <ele>1478.6</ele>
        <time>2022-07-21T08:55:34Z</time>
      </trkpt>
      <trkpt lat="44.15478" lon="5.31393">
        <ele>1477.9</ele>
        <time>2022-07-21T08:55:35Z</time>
      </trkpt>
      <trkpt lat="44.15478" lon="5.31411">
        <ele>1477.1</ele>
        <time>2022-07-21T08:55:36Z</time>
      </trkpt>
      <trkpt lat="44.15477" lon="5.31429">
        <ele>1476.3</ele>
        <time>2022-07-21T08:55:37Z</time>
      </trkpt>
      <trkpt lat="44.15478" lon="5.31446">
        <ele>1475.6</ele>
        <time>2022-07-21T08:55:38Z</time>
      </trkpt>
      <trkpt lat="44.15479" lon="5.31464">
        <ele>1475</ele>
        <time>2022-07-21T08:55:39Z</time>
      </trkpt>
      <trkpt lat="44.15482" lon="5.3148">
        <ele>1474.6</ele>
        <time>2022-07-21T08:55:40Z</time>
      </trkpt>
      <trkpt lat="44.15486" lon="5.31494">
        <ele>1474.2</ele>
        <time>2022-07-21T08:55:41Z</time>
      </trkpt>
      <trkpt lat="44.15492" lon="5.31506">
        <ele>1474</ele>
        <time>2022-07-21T08:55:42Z</time>
      </trkpt>
      <trkpt lat="44.15496" lon="5.31517">
        <ele>1473.7</ele>
        <time>2022-07-21T08:55:43Z</time>
      </trkpt>
      <trkpt lat="44.15498" lon="5.31526">
        <ele>1473.5</ele>
        <time>2022-07-21T08:55:44Z</time>
      </trkpt>
      <trkpt lat="44.15495" lon="5.31535">
        <ele>1473.2</ele>
        <time>2022-07-21T08:55:45Z</time>
      </trkpt>
      <trkpt lat="44.15489" lon="5.31541">
        <ele>1472.7</ele>
        <time>2022-07-21T08:55:46Z</time>
      </trkpt>
      <trkpt lat="44.15482" lon="5.31542">
        <ele>1472.2</ele>
        <time>2022-07-21T08:55:47Z</time>
      </trkpt>
      <trkpt lat="44.15473" lon="5.31538">
        <ele>1471.6</ele>
        <time>2022-07-21T08:55:48Z</time>
      </trkpt>
      <trkpt lat="44.15465" lon="5.31534">
        <ele>1470.8</ele>
        <time>2022-07-21T08:55:49Z</time>
      </trkpt>
      <trkpt lat="44.15457" lon="5.31527">
        <ele>1470.1</ele>
        <time>2022-07-21T08:55:50Z</time>
      </trkpt>
      <trkpt lat="44.15448" lon="5.3152">
        <ele>1469.2</ele>
        <time>2022-07-21T08:55:51Z</time>
      </trkpt>
      <trkpt lat="44.15439" lon="5.31513">
        <ele>1468.3</ele>
        <time>2022-07-21T08:55:52Z</time>
      </trkpt>
      <trkpt lat="44.15429" lon="5.31507">
        <ele>1467.4</ele>
        <time>2022-07-21T08:55:53Z</time>
      </trkpt>
      <trkpt lat="44.15419" lon="5.315">
        <ele>1466.5</ele>
        <time>2022-07-21T08:55:54Z</time>
      </trkpt>
      <trkpt lat="44.15409" lon="5.31493">
        <ele>1465.5</ele>
        <time>2022-07-21T08:55:55Z</time>
      </trkpt>
      <trkpt lat="44.15397" lon="5.31485">
        <ele>1464.5</ele>
        <time>2022-07-21T08:55:56Z</time>
      </trkpt>
      <trkpt lat="44.15386" lon="5.31477">
        <ele>1463.4</ele>
        <time>2022-07-21T08:55:57Z</time>
      </trkpt>
      <trkpt lat="44.15375" lon="5.3147">
        <ele>1462.4</ele>
        <time>2022-07-21T08:55:58Z</time>
      </trkpt>
      <trkpt lat="44.15362" lon="5.31464">
        <ele>1461.3</ele>
        <time>2022-07-21T08:55:59Z</time>
      </trkpt>
      <trkpt lat="44.15349" lon="5.31459">
        <ele>1460.3</ele>
        <time>2022-07-21T08:56:00Z</time>
      </trkpt>
      <trkpt lat="44.15336" lon="5.31454">
        <ele>1459.3</ele>
        <time>2022-07-21T08:56:01Z</time>
      </trkpt>
      <trkpt lat="44.15324" lon="5.31447">
        <ele>1458.3</ele>
        <time>2022-07-21T08:56:02Z</time>
      </trkpt>
      <trkpt lat="44.15311" lon="5.3144">
        <ele>1457.2</ele>
        <time>2022-07-21T08:56:03Z</time>
      </trkpt>
      <trkpt lat="44.153" lon="5.3143">
        <ele>1456.2</ele>
        <time>2022-07-21T08:56:04Z</time>
      </trkpt>
      <trkpt lat="44.15289" lon="5.31418">
        <ele>1455.1</ele>
        <time>2022-07-21T08:56:05Z</time>
      </trkpt>
      <trkpt lat="44.15279" lon="5.31404">
        <ele>1453.8</ele>
        <time>2022-07-21T08:56:06Z</time>
      </trkpt>
      <trkpt lat="44.15269" lon="5.31391">
        <ele>1452.4</ele>
        <time>2022-07-21T08:56:07Z</time>
      </trkpt>
      <trkpt lat="44.15257" lon="5.3138">
        <ele>1451</ele>
        <time>2022-07-21T08:56:08Z</time>
      </trkpt>
      <trkpt lat="44.15244" lon="5.3137">
        <ele>1449.5</ele>
        <time>2022-07-21T08:56:09Z</time>
      </trkpt>
      <trkpt lat="44.1523" lon="5.31364">
        <ele>1448</ele>
        <time>2022-07-21T08:56:10Z</time>
      </trkpt>
      <trkpt lat="44.15215" lon="5.31359">
        <ele>1446.4</ele>
        <time>2022-07-21T08:56:11Z</time>
      </trkpt>
      <trkpt lat="44.15201" lon="5.31355">
        <ele>1445</ele>
        <time>2022-07-21T08:56:12Z</time>
      </trkpt>
      <trkpt lat="44.15188" lon="5.31352">
        <ele>1443.6</ele>
        <time>2022-07-21T08:56:13Z</time>
      </trkpt>
      <trkpt lat="44.15175" lon="5.31349">
        <ele>1442.4</ele>
        <time>2022-07-21T08:56:14Z</time>
      </trkpt>
      <trkpt lat="44.15162" lon="5.31349">
        <ele>1441.2</ele>
        <time>2022-07-21T08:56:15Z</time>
      </trkpt>
      <trkpt lat="44.1515" lon="5.31352">
        <ele>1440</ele>
        <time>2022-07-21T08:56:16Z</time>
      </trkpt>
      <trkpt lat="44.15138" lon="5.31359">
        <ele>1438.8</ele>
        <time>2022-07-21T08:56:17Z</time>
      </trkpt>
      <trkpt lat="44.15127" lon="5.31369">
        <ele>1437.9</ele>
        <time>2022-07-21T08:56:18Z</time>
      </trkpt>
      <trkpt lat="44.15116" lon="5.31379">
        <ele>1436.8</ele>
        <time>2022-07-21T08:56:19Z</time>
      </trkpt>
      <trkpt lat="44.15107" lon="5.31389">
        <ele>1435.7</ele>
        <time>2022-07-21T08:56:20Z</time>
      </trkpt>
      <trkpt lat="44.15099" lon="5.31399">
        <ele>1434.8</ele>
        <time>2022-07-21T08:56:21Z</time>
      </trkpt>
      <trkpt lat="44.15094" lon="5.31411">
        <ele>1433.8</ele>
        <time>2022-07-21T08:56:22Z</time>
      </trkpt>
      <trkpt lat="44.15091" lon="5.31426">
        <ele>1432.9</ele>
        <time>2022-07-21T08:56:23Z</time>
      </trkpt>
      <trkpt lat="44.15093" lon="5.31443">
        <ele>1432</ele>
        <time>2022-07-21T08:56:24Z</time>
      </trkpt>
      <trkpt lat="44.15097" lon="5.31458">
        <ele>1431.2</ele>
        <time>2022-07-21T08:56:25Z</time>
      </trkpt>
      <trkpt lat="44.15104" lon="5.31472">
        <ele>1430.4</ele>
        <time>2022-07-21T08:56:26Z</time>
      </trkpt>
      <trkpt lat="44.15111" lon="5.31486">
        <ele>1429.7</ele>
        <time>2022-07-21T08:56:27Z</time>
      </trkpt>
      <trkpt lat="44.15118" lon="5.31501">
        <ele>1429</ele>
        <time>2022-07-21T08:56:28Z</time>
      </trkpt>
      <trkpt lat="44.15123" lon="5.31517">
        <ele>1428.1</ele>
        <time>2022-07-21T08:56:29Z</time>
      </trkpt>
      <trkpt lat="44.15127" lon="5.31534">
        <ele>1427.2</ele>
        <time>2022-07-21T08:56:30Z</time>
      </trkpt>
      <trkpt lat="44.15131" lon="5.31552">
        <ele>1426.3</ele>
        <time>2022-07-21T08:56:31Z</time>
      </trkpt>
      <trkpt lat="44.15136" lon="5.31569">
        <ele>1425.3</ele>
        <time>2022-07-21T08:56:32Z</time>
      </trkpt>
      <trkpt lat="44.15141" lon="5.31587">
        <ele>1424.3</ele>
        <time>2022-07-21T08:56:33Z</time>
      </trkpt>
      <trkpt lat="44.15145" lon="5.31604">
        <ele>1423.5</ele>
        <time>2022-07-21T08:56:34Z</time>
      </trkpt>
      <trkpt lat="44.15151" lon="5.31622">
        <ele>1422.5</ele>
        <time>2022-07-21T08:56:35Z</time>
      </trkpt>
      <trkpt lat="44.15156" lon="5.3164">
        <ele>1421.6</ele>
        <time>2022-07-21T08:56:36Z</time>
      </trkpt>
      <trkpt lat="44.15162" lon="5.31658">
        <ele>1420.8</ele>
        <time>2022-07-21T08:56:37Z</time>
      </trkpt>
      <trkpt lat="44.15169" lon="5.31675">
        <ele>1420</ele>
        <time>2022-07-21T08:56:38Z</time>
      </trkpt>
      <trkpt lat="44.15176" lon="5.31692">
        <ele>1419.1</ele>
        <time>2022-07-21T08:56:39Z</time>
      </trkpt>
      <trkpt lat="44.15183" lon="5.31709">
        <ele>1418.3</ele>
        <time>2022-07-21T08:56:40Z</time>
      </trkpt>
      <trkpt lat="44.15189" lon="5.31726">
        <ele>1417.4</ele>
        <time>2022-07-21T08:56:41Z</time>
      </trkpt>
      <trkpt lat="44.15194" lon="5.31744">
        <ele>1416.6</ele>
        <time>2022-07-21T08:56:42Z</time>
      </trkpt>
      <trkpt lat="44.15199" lon="5.3176">
        <ele>1415.8</ele>
        <time>2022-07-21T08:56:43Z</time>
      </trkpt>
      <trkpt lat="44.15204" lon="5.31775">
        <ele>1415.1</ele>
        <time>2022-07-21T08:56:44Z</time>
      </trkpt>
      <trkpt lat="44.15207" lon="5.3179">
        <ele>1414.4</ele>
        <time>2022-07-21T08:56:45Z</time>
      </trkpt>
      <trkpt lat="44.15211" lon="5.31802">
        <ele>1413.8</ele>
        <time>2022-07-21T08:56:46Z</time>
      </trkpt>
      <trkpt lat="44.15215" lon="5.31815">
        <ele>1413.2</ele>
        <time>2022-07-21T08:56:47Z</time>
      </trkpt>
      <trkpt lat="44.15218" lon="5.31826">
        <ele>1412.7</ele>
        <time>2022-07-21T08:56:48Z</time>
      </trkpt>
      <trkpt lat="44.15221" lon="5.31836">
        <ele>1412.2</ele>
        <time>2022-07-21T08:56:49Z</time>
      </trkpt>
      <trkpt lat="44.15223" lon="5.31845">
        <ele>1411.8</ele>
        <time>2022-07-21T08:56:50Z</time>
      </trkpt>
      <trkpt lat="44.15224" lon="5.31853">
        <ele>1411.4</ele>
        <time>2022-07-21T08:56:51Z</time>
      </trkpt>
      <trkpt lat="44.15225" lon="5.3186">
        <ele>1411.1</ele>
        <time>2022-07-21T08:56:52Z</time>
      </trkpt>
      <trkpt lat="44.15224" lon="5.31864">
        <ele>1410.9</ele>
        <time>2022-07-21T08:56:53Z</time>
      </trkpt>
      <trkpt lat="44.15224" lon="5.3187">
        <ele>1410.8</ele>
        <time>2022-07-21T08:56:54Z</time>
      </trkpt>
      <trkpt lat="44.15224" lon="5.31871">
        <ele>1410.7</ele>
        <time>2022-07-21T08:56:55Z</time>
      </trkpt>
      <trkpt lat="44.15223" lon="5.31874">
        <ele>1410.6</ele>
        <time>2022-07-21T08:56:56Z</time>
      </trkpt>
      <trkpt lat="44.15223" lon="5.31875">
        <ele>1410.5</ele>
        <time>2022-07-21T08:56:57Z</time>
      </trkpt>
      <trkpt lat="44.15223" lon="5.31875">
        <ele>1410.5</ele>
        <time>2022-07-21T08:56:58Z</time>
      </trkpt>
      <trkpt lat="44.15223" lon="5.31875">
        <ele>1410.5</ele>
        <time>2022-07-21T08:56:59Z</time>
      </trkpt>
      <trkpt lat="44.15223" lon="5.31875">
        <ele>1410.5</ele>
        <time>2022-07-21T08:57:00Z</time>
      </trkpt>
      <trkpt lat="44.15223" lon="5.31875">
        <ele>1410.5</ele>
        <time>2022-07-21T08:57:01Z</time>
      </trkpt>
      <trkpt lat="44.15223" lon="5.31875">
        <ele>1410.5</ele>
        <time>2022-07-21T08:57:02Z</time>
      </trkpt>
      <trkpt lat="44.15223" lon="5.31875">
        <ele>1410.5</ele>
        <time>2022-07-21T08:57:03Z</time>
      </trkpt>
      <trkpt lat="44.15223" lon="5.31875">
        <ele>1410.5</ele>
        <time>2022-07-21T08:57:04Z</time>
      </trkpt>
      <trkpt lat="44.15223" lon="5.31875">
        <ele>1410.5</ele>
        <time>2022-07-21T08:57:05Z</time>
      </trkpt>
      <trkpt lat="44.15223" lon="5.31875">
        <ele>1410.5</ele>
        <time>2022-07-21T08:57:06Z</time>
      </trkpt>
      <trkpt lat="44.15226" lon="5.31878">
        <ele>1410.4</ele>
        <time>2022-07-21T08:57:45Z</time>
      </trkpt>
      <trkpt lat="44.15227" lon="5.31878">
        <ele>1410.3</ele>
        <time>2022-07-21T08:57:46Z</time>
      </trkpt>
      <trkpt lat="44.15228" lon="5.31879">
        <ele>1410.3</ele>
        <time>2022-07-21T08:57:47Z</time>
      </trkpt>
      <trkpt lat="44.15229" lon="5.31879">
        <ele>1410.2</ele>
        <time>2022-07-21T08:57:48Z</time>
      </trkpt>
      <trkpt lat="44.1523" lon="5.31879">
        <ele>1410.2</ele>
        <time>2022-07-21T08:57:49Z</time>
      </trkpt>
      <trkpt lat="44.1523" lon="5.31879">
        <ele>1410.2</ele>
        <time>2022-07-21T08:57:50Z</time>
      </trkpt>
      <trkpt lat="44.15231" lon="5.31879">
        <ele>1410.1</ele>
        <time>2022-07-21T08:57:51Z</time>
      </trkpt>
      <trkpt lat="44.15231" lon="5.31879">
        <ele>1410.1</ele>
        <time>2022-07-21T08:57:52Z</time>
      </trkpt>
      <trkpt lat="44.15232" lon="5.3188">
        <ele>1410.1</ele>
        <time>2022-07-21T08:57:53Z</time>
      </trkpt>
      <trkpt lat="44.15232" lon="5.3188">
        <ele>1410</ele>
        <time>2022-07-21T08:57:54Z</time>
      </trkpt>
      <trkpt lat="44.15233" lon="5.31881">
        <ele>1410</ele>
        <time>2022-07-21T08:57:55Z</time>
      </trkpt>
      <trkpt lat="44.15233" lon="5.31881">
        <ele>1410</ele>
        <time>2022-07-21T08:57:56Z</time>
      </trkpt>
      <trkpt lat="44.15234" lon="5.31882">
        <ele>1409.9</ele>
        <time>2022-07-21T08:57:57Z</time>
      </trkpt>
      <trkpt lat="44.15234" lon="5.31883">
        <ele>1409.9</ele>
        <time>2022-07-21T08:57:58Z</time>
      </trkpt>
      <trkpt lat="44.15234" lon="5.31883">
        <ele>1409.9</ele>
        <time>2022-07-21T08:57:59Z</time>
      </trkpt>
      <trkpt lat="44.15234" lon="5.31883">
        <ele>1409.9</ele>
        <time>2022-07-21T08:58:00Z</time>
      </trkpt>
      <trkpt lat="44.15234" lon="5.31883">
        <ele>1409.9</ele>
        <time>2022-07-21T08:58:01Z</time>
      </trkpt>
      <trkpt lat="44.15234" lon="5.31883">
        <ele>1409.9</ele>
        <time>2022-07-21T08:58:02Z</time>
      </trkpt>
      <trkpt lat="44.15234" lon="5.31883">
        <ele>1409.9</ele>
        <time>2022-07-21T08:58:03Z</time>
      </trkpt>
      <trkpt lat="44.15234" lon="5.31883">
        <ele>1409.9</ele>
        <time>2022-07-21T08:58:04Z</time>
      </trkpt>
      <trkpt lat="44.15234" lon="5.31883">
        <ele>1409.9</ele>
        <time>2022-07-21T08:58:05Z</time>
      </trkpt>
      <trkpt lat="44.15234" lon="5.31883">
        <ele>1409.9</ele>
        <time>2022-07-21T08:58:06Z</time>
      </trkpt>
      <trkpt lat="44.15234" lon="5.31883">
        <ele>1409.9</ele>
        <time>2022-07-21T08:58:07Z</time>
      </trkpt>
      <trkpt lat="44.15232" lon="5.31887">
        <ele>1409.8</ele>
        <time>2022-07-21T08:58:53Z</time>
      </trkpt>
      <trkpt lat="44.15232" lon="5.31888">
        <ele>1409.7</ele>
        <time>2022-07-21T08:58:54Z</time>
      </trkpt>
      <trkpt lat="44.15232" lon="5.31889">
        <ele>1409.7</ele>
        <time>2022-07-21T08:58:55Z</time>
      </trkpt>
      <trkpt lat="44.15232" lon="5.3189">
        <ele>1409.6</ele>
        <time>2022-07-21T08:58:56Z</time>
      </trkpt>
      <trkpt lat="44.15231" lon="5.31891">
        <ele>1409.6</ele>
        <time>2022-07-21T08:58:57Z</time>
      </trkpt>
      <trkpt lat="44.15231" lon="5.31892">
        <ele>1409.6</ele>
        <time>2022-07-21T08:58:58Z</time>
      </trkpt>
      <trkpt lat="44.15231" lon="5.31894">
        <ele>1409.5</ele>
        <time>2022-07-21T08:58:59Z</time>
      </trkpt>
      <trkpt lat="44.15232" lon="5.31896">
        <ele>1409.4</ele>
        <time>2022-07-21T08:59:00Z</time>
      </trkpt>
      <trkpt lat="44.15232" lon="5.31894">
        <ele>1409.4</ele>
        <time>2022-07-21T08:59:01Z</time>
      </trkpt>
      <trkpt lat="44.15232" lon="5.31893">
        <ele>1409.3</ele>
        <time>2022-07-21T08:59:02Z</time>
      </trkpt>
      <trkpt lat="44.15231" lon="5.31891">
        <ele>1409.3</ele>
        <time>2022-07-21T08:59:03Z</time>
      </trkpt>
      <trkpt lat="44.15231" lon="5.3189">
        <ele>1409.2</ele>
        <time>2022-07-21T08:59:04Z</time>
      </trkpt>
      <trkpt lat="44.15231" lon="5.31888">
        <ele>1409.1</ele>
        <time>2022-07-21T08:59:05Z</time>
      </trkpt>
      <trkpt lat="44.15231" lon="5.31887">
        <ele>1409.1</ele>
        <time>2022-07-21T08:59:06Z</time>
      </trkpt>
      <trkpt lat="44.1523" lon="5.31885">
        <ele>1409</ele>
        <time>2022-07-21T08:59:07Z</time>
      </trkpt>
      <trkpt lat="44.1523" lon="5.31884">
        <ele>1409</ele>
        <time>2022-07-21T08:59:08Z</time>
      </trkpt>
      <trkpt lat="44.1523" lon="5.31882">
        <ele>1408.9</ele>
        <time>2022-07-21T08:59:09Z</time>
      </trkpt>
      <trkpt lat="44.1523" lon="5.31881">
        <ele>1408.9</ele>
        <time>2022-07-21T09:11:32Z</time>
      </trkpt>
      <trkpt lat="44.1523" lon="5.31879">
        <ele>1408.8</ele>
        <time>2022-07-21T09:11:33Z</time>
      </trkpt>
      <trkpt lat="44.15229" lon="5.31878">
        <ele>1408.8</ele>
        <time>2022-07-21T09:11:34Z</time>
      </trkpt>
      <trkpt lat="44.15227" lon="5.31876">
        <ele>1408.6</ele>
        <time>2022-07-21T09:11:35Z</time>
      </trkpt>
      <trkpt lat="44.15225" lon="5.31875">
        <ele>1408.6</ele>
        <time>2022-07-21T09:11:36Z</time>
      </trkpt>
      <trkpt lat="44.15222" lon="5.31872">
        <ele>1408.4</ele>
        <time>2022-07-21T09:11:37Z</time>
      </trkpt>
      <trkpt lat="44.15221" lon="5.31871">
        <ele>1408.4</ele>
        <time>2022-07-21T09:11:38Z</time>
      </trkpt>
      <trkpt lat="44.15217" lon="5.3187">
        <ele>1408.3</ele>
        <time>2022-07-21T09:11:39Z</time>
      </trkpt>
      <trkpt lat="44.15216" lon="5.31869">
        <ele>1408.3</ele>
        <time>2022-07-21T09:11:40Z</time>
      </trkpt>
      <trkpt lat="44.15212" lon="5.31869">
        <ele>1408.2</ele>
        <time>2022-07-21T09:11:41Z</time>
      </trkpt>
      <trkpt lat="44.1521" lon="5.3187">
        <ele>1408.1</ele>
        <time>2022-07-21T09:11:42Z</time>
      </trkpt>
      <trkpt lat="44.15207" lon="5.31871">
        <ele>1408.1</ele>
        <time>2022-07-21T09:11:43Z</time>
      </trkpt>
      <trkpt lat="44.15204" lon="5.31872">
        <ele>1408.1</ele>
        <time>2022-07-21T09:11:44Z</time>
      </trkpt>
      <trkpt lat="44.15201" lon="5.31874">
        <ele>1407.9</ele>
        <time>2022-07-21T09:11:45Z</time>
      </trkpt>
      <trkpt lat="44.15197" lon="5.31874">
        <ele>1407.6</ele>
        <time>2022-07-21T09:11:46Z</time>
      </trkpt>
      <trkpt lat="44.15193" lon="5.31874">
        <ele>1407.4</ele>
        <time>2022-07-21T09:11:47Z</time>
      </trkpt>
      <trkpt lat="44.15189" lon="5.31873">
        <ele>1407.1</ele>
        <time>2022-07-21T09:11:48Z</time>
      </trkpt>
      <trkpt lat="44.15185" lon="5.31869">
        <ele>1406.7</ele>
        <time>2022-07-21T09:11:49Z</time>
      </trkpt>
      <trkpt lat="44.1518" lon="5.31865">
        <ele>1406.3</ele>
        <time>2022-07-21T09:11:50Z</time>
      </trkpt>
      <trkpt lat="44.15175" lon="5.31861">
        <ele>1405.9</ele>
        <time>2022-07-21T09:11:51Z</time>
      </trkpt>
      <trkpt lat="44.15171" lon="5.31857">
        <ele>1405.5</ele>
        <time>2022-07-21T09:11:52Z</time>
      </trkpt>
      <trkpt lat="44.15165" lon="5.31853">
        <ele>1405.1</ele>
        <time>2022-07-21T09:11:53Z</time>
      </trkpt>
      <trkpt lat="44.1516" lon="5.31847">
        <ele>1404.6</ele>
        <time>2022-07-21T09:11:54Z</time>
      </trkpt>
      <trkpt lat="44.15154" lon="5.31842">
        <ele>1404.2</ele>
        <time>2022-07-21T09:11:55Z</time>
      </trkpt>
      <trkpt lat="44.15148" lon="5.31837">
        <ele>1403.7</ele>
        <time>2022-07-21T09:11:56Z</time>
      </trkpt>
      <trkpt lat="44.15142" lon="5.31831">
        <ele>1403.3</ele>
        <time>2022-07-21T09:11:57Z</time>
      </trkpt>
      <trkpt lat="44.15136" lon="5.31824">
        <ele>1402.8</ele>
        <time>2022-07-21T09:11:58Z</time>
      </trkpt>
      <trkpt lat="44.15129" lon="5.31817">
        <ele>1402.3</ele>
        <time>2022-07-21T09:11:59Z</time>
      </trkpt>
      <trkpt lat="44.15122" lon="5.3181">
        <ele>1401.8</ele>
        <time>2022-07-21T09:12:00Z</time>
      </trkpt>
      <trkpt lat="44.15114" lon="5.31803">
        <ele>1401.3</ele>
        <time>2022-07-21T09:12:01Z</time>
      </trkpt>
      <trkpt lat="44.15107" lon="5.31796">
        <ele>1400.8</ele>
        <time>2022-07-21T09:12:02Z</time>
      </trkpt>
      <trkpt lat="44.15099" lon="5.31789">
        <ele>1400.2</ele>
        <time>2022-07-21T09:12:03Z</time>
      </trkpt>
      <trkpt lat="44.15091" lon="5.31783">
        <ele>1399.7</ele>
        <time>2022-07-21T09:12:04Z</time>
      </trkpt>
      <trkpt lat="44.15083" lon="5.31777">
        <ele>1399.2</ele>
        <time>2022-07-21T09:12:05Z</time>
      </trkpt>
      <trkpt lat="44.15074" lon="5.31771">
        <ele>1398.7</ele>
        <time>2022-07-21T09:12:06Z</time>
      </trkpt>
      <trkpt lat="44.15065" lon="5.31766">
        <ele>1398.2</ele>
        <time>2022-07-21T09:12:07Z</time>
      </trkpt>
      <trkpt lat="44.15055" lon="5.31762">
        <ele>1397.7</ele>
        <time>2022-07-21T09:12:08Z</time>
      </trkpt>
      <trkpt lat="44.15046" lon="5.31759">
        <ele>1397.2</ele>
        <time>2022-07-21T09:12:09Z</time>
      </trkpt>
      <trkpt lat="44.15035" lon="5.31756">
        <ele>1396.7</ele>
        <time>2022-07-21T09:12:10Z</time>
      </trkpt>
      <trkpt lat="44.15026" lon="5.31751">
        <ele>1396.2</ele>
        <time>2022-07-21T09:12:11Z</time>
      </trkpt>
      <trkpt lat="44.15017" lon="5.31747">
        <ele>1395.6</ele>
        <time>2022-07-21T09:12:12Z</time>
      </trkpt>
      <trkpt lat="44.15008" lon="5.31742">
        <ele>1395</ele>
        <time>2022-07-21T09:12:13Z</time>
      </trkpt>
      <trkpt lat="44.14998" lon="5.31736">
        <ele>1394.2</ele>
        <time>2022-07-21T09:12:14Z</time>
      </trkpt>
      <trkpt lat="44.14988" lon="5.3173">
        <ele>1393.5</ele>
        <time>2022-07-21T09:12:15Z</time>
      </trkpt>
      <trkpt lat="44.14978" lon="5.31724">
        <ele>1392.7</ele>
        <time>2022-07-21T09:12:16Z</time>
      </trkpt>
      <trkpt lat="44.14968" lon="5.31718">
        <ele>1391.8</ele>
        <time>2022-07-21T09:12:17Z</time>
      </trkpt>
      <trkpt lat="44.14958" lon="5.31711">
        <ele>1391</ele>
        <time>2022-07-21T09:12:18Z</time>
      </trkpt>
      <trkpt lat="44.14948" lon="5.31704">
        <ele>1390.1</ele>
        <time>2022-07-21T09:12:19Z</time>
      </trkpt>
      <trkpt lat="44.14938" lon="5.31696">
        <ele>1389.2</ele>
        <time>2022-07-21T09:12:20Z</time>
      </trkpt>
      <trkpt lat="44.14928" lon="5.31689">
        <ele>1388.3</ele>
        <time>2022-07-21T09:12:21Z</time>
      </trkpt>
      <trkpt lat="44.14918" lon="5.31682">
        <ele>1387.2</ele>
        <time>2022-07-21T09:12:22Z</time>
      </trkpt>
      <trkpt lat="44.14907" lon="5.31676">
        <ele>1386.1</ele>
        <time>2022-07-21T09:12:23Z</time>
      </trkpt>
      <trkpt lat="44.14896" lon="5.31669">
        <ele>1384.9</ele>
        <time>2022-07-21T09:12:24Z</time>
      </trkpt>
      <trkpt lat="44.14883" lon="5.31662">
        <ele>1383.5</ele>
        <time>2022-07-21T09:12:25Z</time>
      </trkpt>
      <trkpt lat="44.14872" lon="5.31654">
        <ele>1382.2</ele>
        <time>2022-07-21T09:12:26Z</time>
      </trkpt>
      <trkpt lat="44.1486" lon="5.31646">
        <ele>1380.8</ele>
        <time>2022-07-21T09:12:27Z</time>
      </trkpt>
      <trkpt lat="44.14848" lon="5.31639">
        <ele>1379.4</ele>
        <time>2022-07-21T09:12:28Z</time>
      </trkpt>
      <trkpt lat="44.14836" lon="5.31631">
        <ele>1378</ele>
        <time>2022-07-21T09:12:29Z</time>
      </trkpt>
      <trkpt lat="44.14823" lon="5.31624">
        <ele>1376.6</ele>
        <time>2022-07-21T09:12:30Z</time>
      </trkpt>
      <trkpt lat="44.1481" lon="5.31617">
        <ele>1375.1</ele>
        <time>2022-07-21T09:12:31Z</time>
      </trkpt>
      <trkpt lat="44.14797" lon="5.31612">
        <ele>1373.7</ele>
        <time>2022-07-21T09:12:32Z</time>
      </trkpt>
      <trkpt lat="44.14784" lon="5.31607">
        <ele>1372.2</ele>
        <time>2022-07-21T09:12:33Z</time>
      </trkpt>
      <trkpt lat="44.1477" lon="5.31602">
        <ele>1370.8</ele>
        <time>2022-07-21T09:12:34Z</time>
      </trkpt>
      <trkpt lat="44.14757" lon="5.31596">
        <ele>1369.5</ele>
        <time>2022-07-21T09:12:35Z</time>
      </trkpt>
      <trkpt lat="44.14744" lon="5.31589">
        <ele>1368.1</ele>
        <time>2022-07-21T09:12:36Z</time>
      </trkpt>
      <trkpt lat="44.14734" lon="5.31576">
        <ele>1366.8</ele>
        <time>2022-07-21T09:12:37Z</time>
      </trkpt>
      <trkpt lat="44.14724" lon="5.31564">
        <ele>1365.4</ele>
        <time>2022-07-21T09:12:38Z</time>
      </trkpt>
      <trkpt lat="44.14713" lon="5.31552">
        <ele>1364</ele>
        <time>2022-07-21T09:12:39Z</time>
      </trkpt>
      <trkpt lat="44.14701" lon="5.31543">
        <ele>1362.6</ele>
        <time>2022-07-21T09:12:40Z</time>
      </trkpt>
      <trkpt lat="44.14688" lon="5.31535">
        <ele>1361.3</ele>
        <time>2022-07-21T09:12:41Z</time>
      </trkpt>
      <trkpt lat="44.14674" lon="5.31529">
        <ele>1359.7</ele>
        <time>2022-07-21T09:12:42Z</time>
      </trkpt>
      <trkpt lat="44.1466" lon="5.31525">
        <ele>1358.3</ele>
        <time>2022-07-21T09:12:43Z</time>
      </trkpt>
      <trkpt lat="44.14646" lon="5.31521">
        <ele>1357</ele>
        <time>2022-07-21T09:12:44Z</time>
      </trkpt>
      <trkpt lat="44.14634" lon="5.31519">
        <ele>1356.1</ele>
        <time>2022-07-21T09:12:45Z</time>
      </trkpt>
      <trkpt lat="44.14623" lon="5.3152">
        <ele>1355.3</ele>
        <time>2022-07-21T09:12:46Z</time>
      </trkpt>
      <trkpt lat="44.14612" lon="5.31525">
        <ele>1354.5</ele>
        <time>2022-07-21T09:12:47Z</time>
      </trkpt>
      <trkpt lat="44.14603" lon="5.31536">
        <ele>1353.6</ele>
        <time>2022-07-21T09:12:48Z</time>
      </trkpt>
      <trkpt lat="44.14595" lon="5.31548">
        <ele>1352.8</ele>
        <time>2022-07-21T09:12:49Z</time>
      </trkpt>
      <trkpt lat="44.14588" lon="5.31562">
        <ele>1352.2</ele>
        <time>2022-07-21T09:12:50Z</time>
      </trkpt>
      <trkpt lat="44.14581" lon="5.31576">
        <ele>1351.7</ele>
        <time>2022-07-21T09:12:51Z</time>
      </trkpt>
      <trkpt lat="44.14572" lon="5.31589">
        <ele>1351.3</ele>
        <time>2022-07-21T09:12:52Z</time>
      </trkpt>
      <trkpt lat="44.14565" lon="5.31602">
        <ele>1351</ele>
        <time>2022-07-21T09:12:53Z</time>
      </trkpt>
      <trkpt lat="44.14557" lon="5.31615">
        <ele>1350.8</ele>
        <time>2022-07-21T09:12:54Z</time>
      </trkpt>
      <trkpt lat="44.1455" lon="5.31628">
        <ele>1350.2</ele>
        <time>2022-07-21T09:12:55Z</time>
      </trkpt>
      <trkpt lat="44.14545" lon="5.31643">
        <ele>1349.5</ele>
        <time>2022-07-21T09:12:56Z</time>
      </trkpt>
      <trkpt lat="44.14544" lon="5.31657">
        <ele>1348.8</ele>
        <time>2022-07-21T09:12:57Z</time>
      </trkpt>
      <trkpt lat="44.14546" lon="5.31671">
        <ele>1347.9</ele>
        <time>2022-07-21T09:12:58Z</time>
      </trkpt>
      <trkpt lat="44.14552" lon="5.31685">
        <ele>1347</ele>
        <time>2022-07-21T09:12:59Z</time>
      </trkpt>
      <trkpt lat="44.14559" lon="5.31698">
        <ele>1346</ele>
        <time>2022-07-21T09:13:00Z</time>
      </trkpt>
      <trkpt lat="44.14567" lon="5.31712">
        <ele>1345.2</ele>
        <time>2022-07-21T09:13:01Z</time>
      </trkpt>
      <trkpt lat="44.14575" lon="5.31724">
        <ele>1344.7</ele>
        <time>2022-07-21T09:13:02Z</time>
      </trkpt>
      <trkpt lat="44.14581" lon="5.31735">
        <ele>1344.4</ele>
        <time>2022-07-21T09:13:03Z</time>
      </trkpt>
      <trkpt lat="44.14588" lon="5.31746">
        <ele>1344</ele>
        <time>2022-07-21T09:13:04Z</time>
      </trkpt>
      <trkpt lat="44.14587" lon="5.31753">
        <ele>1343.8</ele>
        <time>2022-07-21T09:13:05Z</time>
      </trkpt>
      <trkpt lat="44.14586" lon="5.31761">
        <ele>1343.1</ele>
        <time>2022-07-21T09:13:06Z</time>
      </trkpt>
      <trkpt lat="44.14583" lon="5.31768">
        <ele>1342.6</ele>
        <time>2022-07-21T09:13:07Z</time>
      </trkpt>
      <trkpt lat="44.14575" lon="5.31765">
        <ele>1341.9</ele>
        <time>2022-07-21T09:13:08Z</time>
      </trkpt>
      <trkpt lat="44.14568" lon="5.31762">
        <ele>1341.2</ele>
        <time>2022-07-21T09:13:09Z</time>
      </trkpt>
      <trkpt lat="44.1456" lon="5.31759">
        <ele>1340.5</ele>
        <time>2022-07-21T09:13:10Z</time>
      </trkpt>
      <trkpt lat="44.14551" lon="5.31756">
        <ele>1339.5</ele>
        <time>2022-07-21T09:13:11Z</time>
      </trkpt>
      <trkpt lat="44.14541" lon="5.31755">
        <ele>1338.6</ele>
        <time>2022-07-21T09:13:12Z</time>
      </trkpt>
      <trkpt lat="44.1453" lon="5.31752">
        <ele>1337.4</ele>
        <time>2022-07-21T09:13:13Z</time>
      </trkpt>
      <trkpt lat="44.1452" lon="5.3175">
        <ele>1336.3</ele>
        <time>2022-07-21T09:13:14Z</time>
      </trkpt>
      <trkpt lat="44.14509" lon="5.31747">
        <ele>1334.9</ele>
        <time>2022-07-21T09:13:15Z</time>
      </trkpt>
      <trkpt lat="44.14497" lon="5.31744">
        <ele>1333.5</ele>
        <time>2022-07-21T09:13:16Z</time>
      </trkpt>
      <trkpt lat="44.14485" lon="5.31741">
        <ele>1332.1</ele>
        <time>2022-07-21T09:13:17Z</time>
      </trkpt>
      <trkpt lat="44.14473" lon="5.3174">
        <ele>1330.7</ele>
        <time>2022-07-21T09:13:18Z</time>
      </trkpt>
      <trkpt lat="44.14459" lon="5.31738">
        <ele>1329.1</ele>
        <time>2022-07-21T09:13:19Z</time>
      </trkpt>
      <trkpt lat="44.14446" lon="5.31737">
        <ele>1327.6</ele>
        <time>2022-07-21T09:13:20Z</time>
      </trkpt>
      <trkpt lat="44.14432" lon="5.31739">
        <ele>1325.9</ele>
        <time>2022-07-21T09:13:21Z</time>
      </trkpt>
      <trkpt lat="44.14418" lon="5.31741">
        <ele>1324.2</ele>
        <time>2022-07-21T09:13:22Z</time>
      </trkpt>
      <trkpt lat="44.14404" lon="5.31746">
        <ele>1322.5</ele>
        <time>2022-07-21T09:13:23Z</time>
      </trkpt>
      <trkpt lat="44.14392" lon="5.31754">
        <ele>1320.9</ele>
        <time>2022-07-21T09:13:24Z</time>
      </trkpt>
      <trkpt lat="44.14379" lon="5.31765">
        <ele>1319.3</ele>
        <time>2022-07-21T09:13:25Z</time>
      </trkpt>
      <trkpt lat="44.14368" lon="5.31777">
        <ele>1317.6</ele>
        <time>2022-07-21T09:13:26Z</time>
      </trkpt>
      <trkpt lat="44.14356" lon="5.31789">
        <ele>1315.9</ele>
        <time>2022-07-21T09:13:27Z</time>
      </trkpt>
      <trkpt lat="44.14343" lon="5.31799">
        <ele>1314.3</ele>
        <time>2022-07-21T09:13:28Z</time>
      </trkpt>
      <trkpt lat="44.1433" lon="5.31809">
        <ele>1312.8</ele>
        <time>2022-07-21T09:13:29Z</time>
      </trkpt>
      <trkpt lat="44.14316" lon="5.31819">
        <ele>1311.3</ele>
        <time>2022-07-21T09:13:30Z</time>
      </trkpt>
      <trkpt lat="44.14303" lon="5.31831">
        <ele>1309.8</ele>
        <time>2022-07-21T09:13:31Z</time>
      </trkpt>
      <trkpt lat="44.14291" lon="5.31841">
        <ele>1308.3</ele>
        <time>2022-07-21T09:13:32Z</time>
      </trkpt>
      <trkpt lat="44.14279" lon="5.31851">
        <ele>1306.6</ele>
        <time>2022-07-21T09:13:33Z</time>
      </trkpt>
      <trkpt lat="44.14267" lon="5.31851">
        <ele>1304.9</ele>
        <time>2022-07-21T09:13:34Z</time>
      </trkpt>
      <trkpt lat="44.14254" lon="5.31847">
        <ele>1303.3</ele>
        <time>2022-07-21T09:13:35Z</time>
      </trkpt>
      <trkpt lat="44.14242" lon="5.31842">
        <ele>1301.7</ele>
        <time>2022-07-21T09:13:36Z</time>
      </trkpt>
      <trkpt lat="44.14228" lon="5.31838">
        <ele>1300.3</ele>
        <time>2022-07-21T09:13:37Z</time>
      </trkpt>
      <trkpt lat="44.14215" lon="5.31838">
        <ele>1299.1</ele>
        <time>2022-07-21T09:13:38Z</time>
      </trkpt>
      <trkpt lat="44.14202" lon="5.31839">
        <ele>1297.8</ele>
        <time>2022-07-21T09:13:39Z</time>
      </trkpt>
      <trkpt lat="44.14188" lon="5.31841">
        <ele>1296.5</ele>
        <time>2022-07-21T09:13:40Z</time>
      </trkpt>
      <trkpt lat="44.14175" lon="5.31838">
        <ele>1295.1</ele>
        <time>2022-07-21T09:13:41Z</time>
      </trkpt>
      <trkpt lat="44.14162" lon="5.31831">
        <ele>1293.5</ele>
        <time>2022-07-21T09:13:42Z</time>
      </trkpt>
      <trkpt lat="44.1415" lon="5.31822">
        <ele>1291.9</ele>
        <time>2022-07-21T09:13:43Z</time>
      </trkpt>
      <trkpt lat="44.14138" lon="5.3181">
        <ele>1290.2</ele>
        <time>2022-07-21T09:13:44Z</time>
      </trkpt>
      <trkpt lat="44.14127" lon="5.31798">
        <ele>1288.7</ele>
        <time>2022-07-21T09:13:45Z</time>
      </trkpt>
      <trkpt lat="44.14116" lon="5.31785">
        <ele>1287.1</ele>
        <time>2022-07-21T09:13:46Z</time>
      </trkpt>
      <trkpt lat="44.14105" lon="5.31772">
        <ele>1285.5</ele>
        <time>2022-07-21T09:13:47Z</time>
      </trkpt>
      <trkpt lat="44.14095" lon="5.31755">
        <ele>1283.8</ele>
        <time>2022-07-21T09:13:48Z</time>
      </trkpt>
      <trkpt lat="44.14086" lon="5.31738">
        <ele>1282</ele>
        <time>2022-07-21T09:13:49Z</time>
      </trkpt>
      <trkpt lat="44.14073" lon="5.3172">
        <ele>1279.9</ele>
        <time>2022-07-21T09:13:50Z</time>
      </trkpt>
      <trkpt lat="44.14062" lon="5.31704">
        <ele>1278.1</ele>
        <time>2022-07-21T09:13:51Z</time>
      </trkpt>
      <trkpt lat="44.14051" lon="5.31689">
        <ele>1276.3</ele>
        <time>2022-07-21T09:13:52Z</time>
      </trkpt>
      <trkpt lat="44.14039" lon="5.31673">
        <ele>1274.5</ele>
        <time>2022-07-21T09:13:53Z</time>
      </trkpt>
      <trkpt lat="44.14026" lon="5.31657">
        <ele>1272.5</ele>
        <time>2022-07-21T09:13:54Z</time>
      </trkpt>
      <trkpt lat="44.14014" lon="5.31641">
        <ele>1270.6</ele>
        <time>2022-07-21T09:13:55Z</time>
      </trkpt>
      <trkpt lat="44.14002" lon="5.31625">
        <ele>1268.7</ele>
        <time>2022-07-21T09:13:56Z</time>
      </trkpt>
      <trkpt lat="44.13991" lon="5.31608">
        <ele>1266.7</ele>
        <time>2022-07-21T09:13:57Z</time>
      </trkpt>
      <trkpt lat="44.13979" lon="5.31591">
        <ele>1264.9</ele>
        <time>2022-07-21T09:13:58Z</time>
      </trkpt>
      <trkpt lat="44.13967" lon="5.31574">
        <ele>1263.1</ele>
        <time>2022-07-21T09:13:59Z</time>
      </trkpt>
      <trkpt lat="44.13956" lon="5.31557">
        <ele>1261.3</ele>
        <time>2022-07-21T09:14:00Z</time>
      </trkpt>
      <trkpt lat="44.13944" lon="5.3154">
        <ele>1259.5</ele>
        <time>2022-07-21T09:14:01Z</time>
      </trkpt>
      <trkpt lat="44.13933" lon="5.31522">
        <ele>1257.7</ele>
        <time>2022-07-21T09:14:02Z</time>
      </trkpt>
      <trkpt lat="44.13922" lon="5.31504">
        <ele>1255.7</ele>
        <time>2022-07-21T09:14:03Z</time>
      </trkpt>
      <trkpt lat="44.1391" lon="5.31487">
        <ele>1253.8</ele>
        <time>2022-07-21T09:14:04Z</time>
      </trkpt>
      <trkpt lat="44.139" lon="5.31468">
        <ele>1251.8</ele>
        <time>2022-07-21T09:14:05Z</time>
      </trkpt>
      <trkpt lat="44.13891" lon="5.31449">
        <ele>1250</ele>
        <time>2022-07-21T09:14:06Z</time>
      </trkpt>
      <trkpt lat="44.13881" lon="5.3143">
        <ele>1248.2</ele>
        <time>2022-07-21T09:14:07Z</time>
      </trkpt>
      <trkpt lat="44.13873" lon="5.3141">
        <ele>1246.5</ele>
        <time>2022-07-21T09:14:08Z</time>
      </trkpt>
      <trkpt lat="44.13865" lon="5.3139">
        <ele>1244.8</ele>
        <time>2022-07-21T09:14:09Z</time>
      </trkpt>
      <trkpt lat="44.13859" lon="5.31372">
        <ele>1243.3</ele>
        <time>2022-07-21T09:14:10Z</time>
      </trkpt>
      <trkpt lat="44.13854" lon="5.31354">
        <ele>1241.8</ele>
        <time>2022-07-21T09:14:11Z</time>
      </trkpt>
      <trkpt lat="44.13851" lon="5.31333">
        <ele>1240.2</ele>
        <time>2022-07-21T09:14:12Z</time>
      </trkpt>
      <trkpt lat="44.13849" lon="5.31312">
        <ele>1238.4</ele>
        <time>2022-07-21T09:14:13Z</time>
      </trkpt>
      <trkpt lat="44.13847" lon="5.3129">
        <ele>1236.5</ele>
        <time>2022-07-21T09:14:14Z</time>
      </trkpt>
      <trkpt lat="44.13844" lon="5.3127">
        <ele>1234.8</ele>
        <time>2022-07-21T09:14:15Z</time>
      </trkpt>
      <trkpt lat="44.1384" lon="5.3125">
        <ele>1233.1</ele>
        <time>2022-07-21T09:14:16Z</time>
      </trkpt>
      <trkpt lat="44.13835" lon="5.3123">
        <ele>1231.2</ele>
        <time>2022-07-21T09:14:17Z</time>
      </trkpt>
      <trkpt lat="44.13831" lon="5.31211">
        <ele>1229.5</ele>
        <time>2022-07-21T09:14:18Z</time>
      </trkpt>
      <trkpt lat="44.13826" lon="5.31192">
        <ele>1227.9</ele>
        <time>2022-07-21T09:14:19Z</time>
      </trkpt>
      <trkpt lat="44.13822" lon="5.31175">
        <ele>1226.5</ele>
        <time>2022-07-21T09:14:20Z</time>
      </trkpt>
      <trkpt lat="44.13819" lon="5.31157">
        <ele>1224.8</ele>
        <time>2022-07-21T09:14:21Z</time>
      </trkpt>
      <trkpt lat="44.13817" lon="5.31139">
        <ele>1223.2</ele>
        <time>2022-07-21T09:14:22Z</time>
      </trkpt>
      <trkpt lat="44.13819" lon="5.31119">
        <ele>1221.5</ele>
        <time>2022-07-21T09:14:23Z</time>
      </trkpt>
      <trkpt lat="44.13818" lon="5.31099">
        <ele>1220</ele>
        <time>2022-07-21T09:14:24Z</time>
      </trkpt>
      <trkpt lat="44.13814" lon="5.31081">
        <ele>1218.5</ele>
        <time>2022-07-21T09:14:25Z</time>
      </trkpt>
      <trkpt lat="44.13809" lon="5.31061">
        <ele>1216.9</ele>
        <time>2022-07-21T09:14:26Z</time>
      </trkpt>
      <trkpt lat="44.13803" lon="5.31043">
        <ele>1215.6</ele>
        <time>2022-07-21T09:14:27Z</time>
      </trkpt>
      <trkpt lat="44.13795" lon="5.31024">
        <ele>1214.1</ele>
        <time>2022-07-21T09:14:28Z</time>
      </trkpt>
      <trkpt lat="44.13789" lon="5.31006">
        <ele>1212.7</ele>
        <time>2022-07-21T09:14:29Z</time>
      </trkpt>
      <trkpt lat="44.13782" lon="5.30987">
        <ele>1211.3</ele>
        <time>2022-07-21T09:14:30Z</time>
      </trkpt>
      <trkpt lat="44.13776" lon="5.30969">
        <ele>1209.9</ele>
        <time>2022-07-21T09:14:31Z</time>
      </trkpt>
      <trkpt lat="44.13769" lon="5.30951">
        <ele>1208.4</ele>
        <time>2022-07-21T09:14:32Z</time>
      </trkpt>
      <trkpt lat="44.13759" lon="5.30932">
        <ele>1206.8</ele>
        <time>2022-07-21T09:14:33Z</time>
      </trkpt>
      <trkpt lat="44.1375" lon="5.30916">
        <ele>1205.4</ele>
        <time>2022-07-21T09:14:34Z</time>
      </trkpt>
      <trkpt lat="44.1374" lon="5.30899">
        <ele>1204.1</ele>
        <time>2022-07-21T09:14:35Z</time>
      </trkpt>
      <trkpt lat="44.13726" lon="5.30885">
        <ele>1202.7</ele>
        <time>2022-07-21T09:14:36Z</time>
      </trkpt>
      <trkpt lat="44.13714" lon="5.30869">
        <ele>1201.2</ele>
        <time>2022-07-21T09:14:37Z</time>
      </trkpt>
      <trkpt lat="44.13702" lon="5.30854">
        <ele>1199.8</ele>
        <time>2022-07-21T09:14:38Z</time>
      </trkpt>
      <trkpt lat="44.1369" lon="5.30838">
        <ele>1198.2</ele>
        <time>2022-07-21T09:14:39Z</time>
      </trkpt>
      <trkpt lat="44.13679" lon="5.30824">
        <ele>1196.7</ele>
        <time>2022-07-21T09:14:40Z</time>
      </trkpt>
      <trkpt lat="44.13666" lon="5.30809">
        <ele>1195.2</ele>
        <time>2022-07-21T09:14:41Z</time>
      </trkpt>
      <trkpt lat="44.13654" lon="5.30794">
        <ele>1193.7</ele>
        <time>2022-07-21T09:14:42Z</time>
      </trkpt>
      <trkpt lat="44.13642" lon="5.30779">
        <ele>1192.3</ele>
        <time>2022-07-21T09:14:43Z</time>
      </trkpt>
      <trkpt lat="44.1363" lon="5.30763">
        <ele>1191</ele>
        <time>2022-07-21T09:14:44Z</time>
      </trkpt>
      <trkpt lat="44.13619" lon="5.30748">
        <ele>1189.7</ele>
        <time>2022-07-21T09:14:45Z</time>
      </trkpt>
      <trkpt lat="44.13609" lon="5.30733">
        <ele>1188.4</ele>
        <time>2022-07-21T09:14:46Z</time>
      </trkpt>
      <trkpt lat="44.136" lon="5.30718">
        <ele>1187.1</ele>
        <time>2022-07-21T09:14:47Z</time>
      </trkpt>
      <trkpt lat="44.13593" lon="5.30703">
        <ele>1185.8</ele>
        <time>2022-07-21T09:14:48Z</time>
      </trkpt>
      <trkpt lat="44.13585" lon="5.30689">
        <ele>1184.5</ele>
        <time>2022-07-21T09:14:49Z</time>
      </trkpt>
      <trkpt lat="44.13579" lon="5.30675">
        <ele>1183.3</ele>
        <time>2022-07-21T09:14:50Z</time>
      </trkpt>
      <trkpt lat="44.13572" lon="5.30661">
        <ele>1182</ele>
        <time>2022-07-21T09:14:51Z</time>
      </trkpt>
      <trkpt lat="44.13565" lon="5.30644">
        <ele>1180.6</ele>
        <time>2022-07-21T09:14:52Z</time>
      </trkpt>
      <trkpt lat="44.13559" lon="5.30629">
        <ele>1179.4</ele>
        <time>2022-07-21T09:14:53Z</time>
      </trkpt>
      <trkpt lat="44.13557" lon="5.30611">
        <ele>1178.1</ele>
        <time>2022-07-21T09:14:54Z</time>
      </trkpt>
      <trkpt lat="44.13555" lon="5.30593">
        <ele>1176.8</ele>
        <time>2022-07-21T09:14:55Z</time>
      </trkpt>
      <trkpt lat="44.13554" lon="5.30575">
        <ele>1175.6</ele>
        <time>2022-07-21T09:14:56Z</time>
      </trkpt>
      <trkpt lat="44.13553" lon="5.30556">
        <ele>1174.3</ele>
        <time>2022-07-21T09:14:57Z</time>
      </trkpt>
      <trkpt lat="44.13554" lon="5.30536">
        <ele>1173</ele>
        <time>2022-07-21T09:14:58Z</time>
      </trkpt>
      <trkpt lat="44.13556" lon="5.30516">
        <ele>1171.7</ele>
        <time>2022-07-21T09:14:59Z</time>
      </trkpt>
      <trkpt lat="44.13559" lon="5.30497">
        <ele>1170.3</ele>
        <time>2022-07-21T09:15:00Z</time>
      </trkpt>
      <trkpt lat="44.13561" lon="5.30478">
        <ele>1168.9</ele>
        <time>2022-07-21T09:15:01Z</time>
      </trkpt>
      <trkpt lat="44.13563" lon="5.30456">
        <ele>1167.4</ele>
        <time>2022-07-21T09:15:02Z</time>
      </trkpt>
      <trkpt lat="44.13566" lon="5.30436">
        <ele>1165.9</ele>
        <time>2022-07-21T09:15:03Z</time>
      </trkpt>
      <trkpt lat="44.13569" lon="5.30416">
        <ele>1164.6</ele>
        <time>2022-07-21T09:15:04Z</time>
      </trkpt>
      <trkpt lat="44.13573" lon="5.30397">
        <ele>1163.2</ele>
        <time>2022-07-21T09:15:05Z</time>
      </trkpt>
      <trkpt lat="44.13577" lon="5.30379">
        <ele>1162</ele>
        <time>2022-07-21T09:15:06Z</time>
      </trkpt>
      <trkpt lat="44.13581" lon="5.30362">
        <ele>1160.7</ele>
        <time>2022-07-21T09:15:07Z</time>
      </trkpt>
      <trkpt lat="44.13584" lon="5.30349">
        <ele>1159.7</ele>
        <time>2022-07-21T09:15:08Z</time>
      </trkpt>
      <trkpt lat="44.13586" lon="5.30334">
        <ele>1158.6</ele>
        <time>2022-07-21T09:15:09Z</time>
      </trkpt>
      <trkpt lat="44.13589" lon="5.30318">
        <ele>1157.4</ele>
        <time>2022-07-21T09:15:10Z</time>
      </trkpt>
      <trkpt lat="44.13589" lon="5.30304">
        <ele>1156.4</ele>
        <time>2022-07-21T09:15:11Z</time>
      </trkpt>
      <trkpt lat="44.13586" lon="5.3029">
        <ele>1155.3</ele>
        <time>2022-07-21T09:15:12Z</time>
      </trkpt>
      <trkpt lat="44.13582" lon="5.30276">
        <ele>1154.1</ele>
        <time>2022-07-21T09:15:13Z</time>
      </trkpt>
      <trkpt lat="44.13577" lon="5.30263">
        <ele>1153</ele>
        <time>2022-07-21T09:15:14Z</time>
      </trkpt>
      <trkpt lat="44.13571" lon="5.30249">
        <ele>1151.6</ele>
        <time>2022-07-21T09:15:15Z</time>
      </trkpt>
      <trkpt lat="44.13564" lon="5.30236">
        <ele>1150.3</ele>
        <time>2022-07-21T09:15:16Z</time>
      </trkpt>
      <trkpt lat="44.13557" lon="5.30223">
        <ele>1149</ele>
        <time>2022-07-21T09:15:17Z</time>
      </trkpt>
      <trkpt lat="44.13551" lon="5.30209">
        <ele>1147.8</ele>
        <time>2022-07-21T09:15:18Z</time>
      </trkpt>
      <trkpt lat="44.13543" lon="5.30196">
        <ele>1146.6</ele>
        <time>2022-07-21T09:15:19Z</time>
      </trkpt>
      <trkpt lat="44.13535" lon="5.30181">
        <ele>1145.3</ele>
        <time>2022-07-21T09:15:20Z</time>
      </trkpt>
      <trkpt lat="44.13527" lon="5.30167">
        <ele>1144.1</ele>
        <time>2022-07-21T09:15:21Z</time>
      </trkpt>
      <trkpt lat="44.13519" lon="5.30152">
        <ele>1142.8</ele>
        <time>2022-07-21T09:15:22Z</time>
      </trkpt>
      <trkpt lat="44.13511" lon="5.30138">
        <ele>1141.5</ele>
        <time>2022-07-21T09:15:23Z</time>
      </trkpt>
      <trkpt lat="44.13503" lon="5.30122">
        <ele>1140</ele>
        <time>2022-07-21T09:15:24Z</time>
      </trkpt>
      <trkpt lat="44.13495" lon="5.30107">
        <ele>1138.5</ele>
        <time>2022-07-21T09:15:25Z</time>
      </trkpt>
      <trkpt lat="44.1349" lon="5.30086">
        <ele>1136.8</ele>
        <time>2022-07-21T09:15:26Z</time>
      </trkpt>
      <trkpt lat="44.13484" lon="5.30067">
        <ele>1135.1</ele>
        <time>2022-07-21T09:15:27Z</time>
      </trkpt>
      <trkpt lat="44.13479" lon="5.30046">
        <ele>1133.5</ele>
        <time>2022-07-21T09:15:28Z</time>
      </trkpt>
      <trkpt lat="44.13476" lon="5.30025">
        <ele>1132.4</ele>
        <time>2022-07-21T09:15:29Z</time>
      </trkpt>
      <trkpt lat="44.13474" lon="5.30003">
        <ele>1131.4</ele>
        <time>2022-07-21T09:15:30Z</time>
      </trkpt>
      <trkpt lat="44.13472" lon="5.29982">
        <ele>1129.9</ele>
        <time>2022-07-21T09:15:31Z</time>
      </trkpt>
      <trkpt lat="44.13471" lon="5.2996">
        <ele>1128.3</ele>
        <time>2022-07-21T09:15:32Z</time>
      </trkpt>
      <trkpt lat="44.13469" lon="5.29939">
        <ele>1126.8</ele>
        <time>2022-07-21T09:15:33Z</time>
      </trkpt>
      <trkpt lat="44.13468" lon="5.29917">
        <ele>1125.2</ele>
        <time>2022-07-21T09:15:34Z</time>
      </trkpt>
      <trkpt lat="44.13466" lon="5.29895">
        <ele>1123.4</ele>
        <time>2022-07-21T09:15:35Z</time>
      </trkpt>
      <trkpt lat="44.13464" lon="5.29873">
        <ele>1121.6</ele>
        <time>2022-07-21T09:15:36Z</time>
      </trkpt>
      <trkpt lat="44.13461" lon="5.2985">
        <ele>1119.7</ele>
        <time>2022-07-21T09:15:37Z</time>
      </trkpt>
      <trkpt lat="44.1346" lon="5.29828">
        <ele>1117.9</ele>
        <time>2022-07-21T09:15:38Z</time>
      </trkpt>
      <trkpt lat="44.13457" lon="5.29806">
        <ele>1116.2</ele>
        <time>2022-07-21T09:15:39Z</time>
      </trkpt>
      <trkpt lat="44.13455" lon="5.29784">
        <ele>1114.6</ele>
        <time>2022-07-21T09:15:40Z</time>
      </trkpt>
      <trkpt lat="44.13451" lon="5.29762">
        <ele>1112.8</ele>
        <time>2022-07-21T09:15:41Z</time>
      </trkpt>
      <trkpt lat="44.13443" lon="5.29743">
        <ele>1111.1</ele>
        <time>2022-07-21T09:15:42Z</time>
      </trkpt>
      <trkpt lat="44.13437" lon="5.29723">
        <ele>1109.4</ele>
        <time>2022-07-21T09:15:43Z</time>
      </trkpt>
      <trkpt lat="44.13431" lon="5.29706">
        <ele>1108</ele>
        <time>2022-07-21T09:15:44Z</time>
      </trkpt>
      <trkpt lat="44.13423" lon="5.29687">
        <ele>1106.2</ele>
        <time>2022-07-21T09:15:45Z</time>
      </trkpt>
      <trkpt lat="44.13415" lon="5.29667">
        <ele>1104.4</ele>
        <time>2022-07-21T09:15:46Z</time>
      </trkpt>
      <trkpt lat="44.13404" lon="5.29647">
        <ele>1102.4</ele>
        <time>2022-07-21T09:15:47Z</time>
      </trkpt>
      <trkpt lat="44.13395" lon="5.29627">
        <ele>1100.6</ele>
        <time>2022-07-21T09:15:48Z</time>
      </trkpt>
      <trkpt lat="44.13387" lon="5.29609">
        <ele>1098.9</ele>
        <time>2022-07-21T09:15:49Z</time>
      </trkpt>
      <trkpt lat="44.13378" lon="5.2959">
        <ele>1097.3</ele>
        <time>2022-07-21T09:15:50Z</time>
      </trkpt>
      <trkpt lat="44.13368" lon="5.29569">
        <ele>1095.7</ele>
        <time>2022-07-21T09:15:51Z</time>
      </trkpt>
      <trkpt lat="44.13359" lon="5.2955">
        <ele>1094.1</ele>
        <time>2022-07-21T09:15:52Z</time>
      </trkpt>
      <trkpt lat="44.13346" lon="5.29528">
        <ele>1092.1</ele>
        <time>2022-07-21T09:15:53Z</time>
      </trkpt>
      <trkpt lat="44.13336" lon="5.29509">
        <ele>1090.5</ele>
        <time>2022-07-21T09:15:54Z</time>
      </trkpt>
      <trkpt lat="44.13326" lon="5.2949">
        <ele>1089</ele>
        <time>2022-07-21T09:15:55Z</time>
      </trkpt>
      <trkpt lat="44.13315" lon="5.29473">
        <ele>1087.4</ele>
        <time>2022-07-21T09:15:56Z</time>
      </trkpt>
      <trkpt lat="44.13304" lon="5.29456">
        <ele>1085.9</ele>
        <time>2022-07-21T09:15:57Z</time>
      </trkpt>
      <trkpt lat="44.13293" lon="5.29439">
        <ele>1084.3</ele>
        <time>2022-07-21T09:15:58Z</time>
      </trkpt>
      <trkpt lat="44.13283" lon="5.2942">
        <ele>1082.5</ele>
        <time>2022-07-21T09:15:59Z</time>
      </trkpt>
      <trkpt lat="44.13273" lon="5.294">
        <ele>1080.5</ele>
        <time>2022-07-21T09:16:00Z</time>
      </trkpt>
      <trkpt lat="44.13264" lon="5.29381">
        <ele>1078.6</ele>
        <time>2022-07-21T09:16:01Z</time>
      </trkpt>
      <trkpt lat="44.13255" lon="5.29362">
        <ele>1076.8</ele>
        <time>2022-07-21T09:16:02Z</time>
      </trkpt>
      <trkpt lat="44.13246" lon="5.29342">
        <ele>1074.9</ele>
        <time>2022-07-21T09:16:03Z</time>
      </trkpt>
      <trkpt lat="44.13236" lon="5.29322">
        <ele>1072.8</ele>
        <time>2022-07-21T09:16:04Z</time>
      </trkpt>
      <trkpt lat="44.13227" lon="5.293">
        <ele>1070.7</ele>
        <time>2022-07-21T09:16:05Z</time>
      </trkpt>
      <trkpt lat="44.13218" lon="5.29279">
        <ele>1068.7</ele>
        <time>2022-07-21T09:16:06Z</time>
      </trkpt>
      <trkpt lat="44.13209" lon="5.29258">
        <ele>1066.7</ele>
        <time>2022-07-21T09:16:07Z</time>
      </trkpt>
      <trkpt lat="44.13202" lon="5.29236">
        <ele>1064.5</ele>
        <time>2022-07-21T09:16:08Z</time>
      </trkpt>
      <trkpt lat="44.13194" lon="5.29213">
        <ele>1062.4</ele>
        <time>2022-07-21T09:16:09Z</time>
      </trkpt>
      <trkpt lat="44.13186" lon="5.29191">
        <ele>1060.4</ele>
        <time>2022-07-21T09:16:10Z</time>
      </trkpt>
      <trkpt lat="44.13178" lon="5.29169">
        <ele>1058.3</ele>
        <time>2022-07-21T09:16:11Z</time>
      </trkpt>
      <trkpt lat="44.13168" lon="5.29148">
        <ele>1056.2</ele>
        <time>2022-07-21T09:16:12Z</time>
      </trkpt>
      <trkpt lat="44.13157" lon="5.29127">
        <ele>1054.1</ele>
        <time>2022-07-21T09:16:13Z</time>
      </trkpt>
      <trkpt lat="44.13147" lon="5.29107">
        <ele>1052.1</ele>
        <time>2022-07-21T09:16:14Z</time>
      </trkpt>
      <trkpt lat="44.13137" lon="5.29088">
        <ele>1050.1</ele>
        <time>2022-07-21T09:16:15Z</time>
      </trkpt>
      <trkpt lat="44.13126" lon="5.29069">
        <ele>1048.1</ele>
        <time>2022-07-21T09:16:16Z</time>
      </trkpt>
      <trkpt lat="44.13115" lon="5.2905">
        <ele>1046</ele>
        <time>2022-07-21T09:16:17Z</time>
      </trkpt>
      <trkpt lat="44.13106" lon="5.2903">
        <ele>1043.9</ele>
        <time>2022-07-21T09:16:18Z</time>
      </trkpt>
      <trkpt lat="44.13099" lon="5.29009">
        <ele>1041.9</ele>
        <time>2022-07-21T09:16:19Z</time>
      </trkpt>
      <trkpt lat="44.13093" lon="5.28987">
        <ele>1040</ele>
        <time>2022-07-21T09:16:20Z</time>
      </trkpt>
      <trkpt lat="44.13087" lon="5.28966">
        <ele>1038</ele>
        <time>2022-07-21T09:16:21Z</time>
      </trkpt>
      <trkpt lat="44.13082" lon="5.28946">
        <ele>1036.1</ele>
        <time>2022-07-21T09:16:22Z</time>
      </trkpt>
      <trkpt lat="44.13075" lon="5.28929">
        <ele>1034.3</ele>
        <time>2022-07-21T09:16:23Z</time>
      </trkpt>
      <trkpt lat="44.13066" lon="5.28912">
        <ele>1032.5</ele>
        <time>2022-07-21T09:16:24Z</time>
      </trkpt>
      <trkpt lat="44.13056" lon="5.28896">
        <ele>1030.9</ele>
        <time>2022-07-21T09:16:25Z</time>
      </trkpt>
      <trkpt lat="44.13045" lon="5.28884">
        <ele>1029.5</ele>
        <time>2022-07-21T09:16:26Z</time>
      </trkpt>
      <trkpt lat="44.13032" lon="5.28874">
        <ele>1028.3</ele>
        <time>2022-07-21T09:16:27Z</time>
      </trkpt>
      <trkpt lat="44.13019" lon="5.28864">
        <ele>1027</ele>
        <time>2022-07-21T09:16:28Z</time>
      </trkpt>
      <trkpt lat="44.13006" lon="5.28855">
        <ele>1025.6</ele>
        <time>2022-07-21T09:16:29Z</time>
      </trkpt>
      <trkpt lat="44.12994" lon="5.28846">
        <ele>1024.2</ele>
        <time>2022-07-21T09:16:30Z</time>
      </trkpt>
      <trkpt lat="44.12983" lon="5.28838">
        <ele>1022.8</ele>
        <time>2022-07-21T09:16:31Z</time>
      </trkpt>
      <trkpt lat="44.12974" lon="5.28829">
        <ele>1021.6</ele>
        <time>2022-07-21T09:16:32Z</time>
      </trkpt>
      <trkpt lat="44.12967" lon="5.28817">
        <ele>1020.4</ele>
        <time>2022-07-21T09:16:33Z</time>
      </trkpt>
      <trkpt lat="44.12961" lon="5.28804">
        <ele>1018.9</ele>
        <time>2022-07-21T09:16:34Z</time>
      </trkpt>
      <trkpt lat="44.12956" lon="5.2879">
        <ele>1017.7</ele>
        <time>2022-07-21T09:16:35Z</time>
      </trkpt>
      <trkpt lat="44.12962" lon="5.28775">
        <ele>1016.4</ele>
        <time>2022-07-21T09:16:36Z</time>
      </trkpt>
      <trkpt lat="44.12963" lon="5.28758">
        <ele>1015.1</ele>
        <time>2022-07-21T09:16:37Z</time>
      </trkpt>
      <trkpt lat="44.12961" lon="5.28742">
        <ele>1013.8</ele>
        <time>2022-07-21T09:16:38Z</time>
      </trkpt>
      <trkpt lat="44.12958" lon="5.28728">
        <ele>1012.6</ele>
        <time>2022-07-21T09:16:39Z</time>
      </trkpt>
      <trkpt lat="44.12954" lon="5.28718">
        <ele>1011.8</ele>
        <time>2022-07-21T09:16:40Z</time>
      </trkpt>
      <trkpt lat="44.12953" lon="5.28714">
        <ele>1011.4</ele>
        <time>2022-07-21T09:16:41Z</time>
      </trkpt>
      <trkpt lat="44.12948" lon="5.28708">
        <ele>1010.8</ele>
        <time>2022-07-21T09:16:42Z</time>
      </trkpt>
      <trkpt lat="44.12945" lon="5.28703">
        <ele>1010.3</ele>
        <time>2022-07-21T09:16:43Z</time>
      </trkpt>
      <trkpt lat="44.12948" lon="5.28705">
        <ele>1010</ele>
        <time>2022-07-21T09:16:44Z</time>
      </trkpt>
      <trkpt lat="44.12947" lon="5.28703">
        <ele>1009.9</ele>
        <time>2022-07-21T09:16:45Z</time>
      </trkpt>
      <trkpt lat="44.12948" lon="5.287">
        <ele>1009.7</ele>
        <time>2022-07-21T09:16:46Z</time>
      </trkpt>
      <trkpt lat="44.12948" lon="5.28702">
        <ele>1009.6</ele>
        <time>2022-07-21T09:16:47Z</time>
      </trkpt>
      <trkpt lat="44.12948" lon="5.28703">
        <ele>1009.5</ele>
        <time>2022-07-21T09:16:48Z</time>
      </trkpt>
      <trkpt lat="44.12949" lon="5.28705">
        <ele>1009.4</ele>
        <time>2022-07-21T09:16:49Z</time>
      </trkpt>
      <trkpt lat="44.12949" lon="5.28706">
        <ele>1009.3</ele>
        <time>2022-07-21T09:16:50Z</time>
      </trkpt>
      <trkpt lat="44.12949" lon="5.28706">
        <ele>1009.3</ele>
        <time>2022-07-21T09:16:51Z</time>
      </trkpt>
      <trkpt lat="44.12948" lon="5.28708">
        <ele>1009.1</ele>
        <time>2022-07-21T09:16:52Z</time>
      </trkpt>
      <trkpt lat="44.12948" lon="5.28708">
        <ele>1009.1</ele>
        <time>2022-07-21T09:16:53Z</time>
      </trkpt>
      <trkpt lat="44.12948" lon="5.28708">
        <ele>1009.1</ele>
        <time>2022-07-21T09:16:54Z</time>
      </trkpt>
      <trkpt lat="44.12948" lon="5.28709">
        <ele>1009</ele>
        <time>2022-07-21T09:16:55Z</time>
      </trkpt>
      <trkpt lat="44.12948" lon="5.28709">
        <ele>1009</ele>
        <time>2022-07-21T09:16:56Z</time>
      </trkpt>
      <trkpt lat="44.12941" lon="5.28707">
        <ele>1008.3</ele>
        <time>2022-07-21T09:22:03Z</time>
      </trkpt>
      <trkpt lat="44.12941" lon="5.28705">
        <ele>1008.2</ele>
        <time>2022-07-21T09:22:04Z</time>
      </trkpt>
      <trkpt lat="44.1294" lon="5.287">
        <ele>1007.8</ele>
        <time>2022-07-21T09:22:05Z</time>
      </trkpt>
      <trkpt lat="44.1294" lon="5.28698">
        <ele>1007.6</ele>
        <time>2022-07-21T09:22:06Z</time>
      </trkpt>
      <trkpt lat="44.12939" lon="5.28694">
        <ele>1007.3</ele>
        <time>2022-07-21T09:22:07Z</time>
      </trkpt>
      <trkpt lat="44.12938" lon="5.28689">
        <ele>1006.9</ele>
        <time>2022-07-21T09:22:08Z</time>
      </trkpt>
      <trkpt lat="44.12936" lon="5.28684">
        <ele>1006.5</ele>
        <time>2022-07-21T09:22:09Z</time>
      </trkpt>
      <trkpt lat="44.12934" lon="5.28678">
        <ele>1006</ele>
        <time>2022-07-21T09:22:10Z</time>
      </trkpt>
      <trkpt lat="44.12932" lon="5.28672">
        <ele>1005.5</ele>
        <time>2022-07-21T09:22:11Z</time>
      </trkpt>
      <trkpt lat="44.1293" lon="5.28666">
        <ele>1005</ele>
        <time>2022-07-21T09:22:12Z</time>
      </trkpt>
      <trkpt lat="44.12927" lon="5.28661">
        <ele>1004.6</ele>
        <time>2022-07-21T09:22:13Z</time>
      </trkpt>
      <trkpt lat="44.12924" lon="5.28656">
        <ele>1004</ele>
        <time>2022-07-21T09:22:14Z</time>
      </trkpt>
      <trkpt lat="44.12921" lon="5.28651">
        <ele>1003.6</ele>
        <time>2022-07-21T09:22:15Z</time>
      </trkpt>
      <trkpt lat="44.12918" lon="5.28646">
        <ele>1003</ele>
        <time>2022-07-21T09:22:16Z</time>
      </trkpt>
      <trkpt lat="44.12914" lon="5.2864">
        <ele>1002.5</ele>
        <time>2022-07-21T09:22:17Z</time>
      </trkpt>
      <trkpt lat="44.1291" lon="5.28634">
        <ele>1001.9</ele>
        <time>2022-07-21T09:22:18Z</time>
      </trkpt>
      <trkpt lat="44.12907" lon="5.28627">
        <ele>1001.2</ele>
        <time>2022-07-21T09:22:19Z</time>
      </trkpt>
      <trkpt lat="44.12904" lon="5.28618">
        <ele>1000.5</ele>
        <time>2022-07-21T09:22:20Z</time>
      </trkpt>
      <trkpt lat="44.12901" lon="5.28608">
        <ele>999.8</ele>
        <time>2022-07-21T09:22:21Z</time>
      </trkpt>
      <trkpt lat="44.12899" lon="5.28598">
        <ele>999.1</ele>
        <time>2022-07-21T09:22:22Z</time>
      </trkpt>
      <trkpt lat="44.12898" lon="5.28588">
        <ele>998.4</ele>
        <time>2022-07-21T09:22:23Z</time>
      </trkpt>
      <trkpt lat="44.12897" lon="5.28577">
        <ele>997.6</ele>
        <time>2022-07-21T09:22:24Z</time>
      </trkpt>
      <trkpt lat="44.12897" lon="5.28566">
        <ele>996.8</ele>
        <time>2022-07-21T09:22:25Z</time>
      </trkpt>
      <trkpt lat="44.12896" lon="5.28555">
        <ele>996.1</ele>
        <time>2022-07-21T09:22:26Z</time>
      </trkpt>
      <trkpt lat="44.12895" lon="5.28544">
        <ele>995.3</ele>
        <time>2022-07-21T09:22:27Z</time>
      </trkpt>
      <trkpt lat="44.12894" lon="5.28533">
        <ele>994.5</ele>
        <time>2022-07-21T09:22:28Z</time>
      </trkpt>
      <trkpt lat="44.12892" lon="5.28521">
        <ele>993.6</ele>
        <time>2022-07-21T09:22:29Z</time>
      </trkpt>
      <trkpt lat="44.12889" lon="5.2851">
        <ele>992.9</ele>
        <time>2022-07-21T09:22:30Z</time>
      </trkpt>
      <trkpt lat="44.12885" lon="5.285">
        <ele>992</ele>
        <time>2022-07-21T09:22:31Z</time>
      </trkpt>
      <trkpt lat="44.1288" lon="5.2849">
        <ele>991.1</ele>
        <time>2022-07-21T09:22:32Z</time>
      </trkpt>
      <trkpt lat="44.12874" lon="5.28479">
        <ele>990.1</ele>
        <time>2022-07-21T09:22:33Z</time>
      </trkpt>
      <trkpt lat="44.12869" lon="5.2847">
        <ele>989.4</ele>
        <time>2022-07-21T09:22:34Z</time>
      </trkpt>
      <trkpt lat="44.12865" lon="5.28463">
        <ele>988.8</ele>
        <time>2022-07-21T09:22:35Z</time>
      </trkpt>
      <trkpt lat="44.12861" lon="5.28455">
        <ele>988.2</ele>
        <time>2022-07-21T09:22:36Z</time>
      </trkpt>
      <trkpt lat="44.12857" lon="5.28448">
        <ele>987.7</ele>
        <time>2022-07-21T09:22:37Z</time>
      </trkpt>
      <trkpt lat="44.12855" lon="5.2844">
        <ele>987.3</ele>
        <time>2022-07-21T09:22:38Z</time>
      </trkpt>
      <trkpt lat="44.12853" lon="5.28432">
        <ele>986.9</ele>
        <time>2022-07-21T09:22:39Z</time>
      </trkpt>
      <trkpt lat="44.12853" lon="5.28423">
        <ele>986.5</ele>
        <time>2022-07-21T09:22:40Z</time>
      </trkpt>
      <trkpt lat="44.12856" lon="5.28414">
        <ele>986.1</ele>
        <time>2022-07-21T09:22:41Z</time>
      </trkpt>
      <trkpt lat="44.1286" lon="5.28407">
        <ele>985.7</ele>
        <time>2022-07-21T09:22:42Z</time>
      </trkpt>
      <trkpt lat="44.12866" lon="5.28405">
        <ele>985.4</ele>
        <time>2022-07-21T09:22:43Z</time>
      </trkpt>
      <trkpt lat="44.12871" lon="5.28402">
        <ele>985.1</ele>
        <time>2022-07-21T09:22:44Z</time>
      </trkpt>
      <trkpt lat="44.12876" lon="5.284">
        <ele>984.7</ele>
        <time>2022-07-21T09:22:45Z</time>
      </trkpt>
      <trkpt lat="44.12881" lon="5.28397">
        <ele>984.3</ele>
        <time>2022-07-21T09:22:46Z</time>
      </trkpt>
      <trkpt lat="44.12884" lon="5.28392">
        <ele>983.9</ele>
        <time>2022-07-21T09:22:47Z</time>
      </trkpt>
      <trkpt lat="44.12886" lon="5.28388">
        <ele>983.6</ele>
        <time>2022-07-21T09:22:48Z</time>
      </trkpt>
      <trkpt lat="44.12888" lon="5.28384">
        <ele>983.3</ele>
        <time>2022-07-21T09:22:49Z</time>
      </trkpt>
      <trkpt lat="44.12889" lon="5.28382">
        <ele>983.2</ele>
        <time>2022-07-21T09:22:50Z</time>
      </trkpt>
      <trkpt lat="44.12889" lon="5.28381">
        <ele>983.2</ele>
        <time>2022-07-21T09:22:51Z</time>
      </trkpt>
      <trkpt lat="44.12889" lon="5.28381">
        <ele>983.1</ele>
        <time>2022-07-21T09:22:52Z</time>
      </trkpt>
      <trkpt lat="44.12889" lon="5.2838">
        <ele>983</ele>
        <time>2022-07-21T09:22:53Z</time>
      </trkpt>
      <trkpt lat="44.12888" lon="5.28379">
        <ele>982.9</ele>
        <time>2022-07-21T09:22:54Z</time>
      </trkpt>
      <trkpt lat="44.12887" lon="5.28379">
        <ele>982.8</ele>
        <time>2022-07-21T09:22:55Z</time>
      </trkpt>
      <trkpt lat="44.12887" lon="5.28378">
        <ele>982.8</ele>
        <time>2022-07-21T09:22:56Z</time>
      </trkpt>
      <trkpt lat="44.12886" lon="5.28378">
        <ele>982.7</ele>
        <time>2022-07-21T09:22:57Z</time>
      </trkpt>
      <trkpt lat="44.12886" lon="5.28377">
        <ele>982.6</ele>
        <time>2022-07-21T09:22:58Z</time>
      </trkpt>
      <trkpt lat="44.12885" lon="5.28376">
        <ele>982.5</ele>
        <time>2022-07-21T09:22:59Z</time>
      </trkpt>
      <trkpt lat="44.12885" lon="5.28376">
        <ele>982.4</ele>
        <time>2022-07-21T09:23:00Z</time>
      </trkpt>
      <trkpt lat="44.12884" lon="5.28375">
        <ele>982.3</ele>
        <time>2022-07-21T09:23:01Z</time>
      </trkpt>
      <trkpt lat="44.12884" lon="5.28374">
        <ele>982.3</ele>
        <time>2022-07-21T09:23:54Z</time>
      </trkpt>
      <trkpt lat="44.12883" lon="5.28374">
        <ele>982.2</ele>
        <time>2022-07-21T09:23:55Z</time>
      </trkpt>
      <trkpt lat="44.1288" lon="5.28372">
        <ele>981.7</ele>
        <time>2022-07-21T09:23:56Z</time>
      </trkpt>
      <trkpt lat="44.12876" lon="5.2837">
        <ele>981.3</ele>
        <time>2022-07-21T09:23:57Z</time>
      </trkpt>
      <trkpt lat="44.12872" lon="5.28368">
        <ele>980.8</ele>
        <time>2022-07-21T09:23:58Z</time>
      </trkpt>
      <trkpt lat="44.12868" lon="5.28367">
        <ele>980.4</ele>
        <time>2022-07-21T09:23:59Z</time>
      </trkpt>
      <trkpt lat="44.12864" lon="5.2837">
        <ele>979.8</ele>
        <time>2022-07-21T09:24:00Z</time>
      </trkpt>
      <trkpt lat="44.12859" lon="5.28371">
        <ele>979.3</ele>
        <time>2022-07-21T09:24:01Z</time>
      </trkpt>
      <trkpt lat="44.12852" lon="5.28372">
        <ele>978.4</ele>
        <time>2022-07-21T09:24:02Z</time>
      </trkpt>
      <trkpt lat="44.12844" lon="5.28372">
        <ele>977.6</ele>
        <time>2022-07-21T09:24:03Z</time>
      </trkpt>
      <trkpt lat="44.12837" lon="5.28371">
        <ele>976.7</ele>
        <time>2022-07-21T09:24:04Z</time>
      </trkpt>
      <trkpt lat="44.1283" lon="5.2837">
        <ele>975.8</ele>
        <time>2022-07-21T09:24:05Z</time>
      </trkpt>
      <trkpt lat="44.12822" lon="5.28368">
        <ele>974.8</ele>
        <time>2022-07-21T09:24:06Z</time>
      </trkpt>
      <trkpt lat="44.12813" lon="5.28366">
        <ele>973.8</ele>
        <time>2022-07-21T09:24:07Z</time>
      </trkpt>
      <trkpt lat="44.12804" lon="5.28364">
        <ele>972.8</ele>
        <time>2022-07-21T09:24:08Z</time>
      </trkpt>
      <trkpt lat="44.12796" lon="5.28363">
        <ele>971.8</ele>
        <time>2022-07-21T09:24:09Z</time>
      </trkpt>
      <trkpt lat="44.12787" lon="5.28364">
        <ele>970.9</ele>
        <time>2022-07-21T09:24:10Z</time>
      </trkpt>
      <trkpt lat="44.12778" lon="5.28365">
        <ele>969.8</ele>
        <time>2022-07-21T09:24:11Z</time>
      </trkpt>
      <trkpt lat="44.12769" lon="5.28369">
        <ele>968.8</ele>
        <time>2022-07-21T09:24:12Z</time>
      </trkpt>
      <trkpt lat="44.1276" lon="5.28371">
        <ele>967.7</ele>
        <time>2022-07-21T09:24:13Z</time>
      </trkpt>
      <trkpt lat="44.12751" lon="5.28374">
        <ele>966.7</ele>
        <time>2022-07-21T09:24:14Z</time>
      </trkpt>
      <trkpt lat="44.12742" lon="5.28371">
        <ele>965.6</ele>
        <time>2022-07-21T09:24:15Z</time>
      </trkpt>
      <trkpt lat="44.12732" lon="5.2837">
        <ele>964.5</ele>
        <time>2022-07-21T09:24:16Z</time>
      </trkpt>
      <trkpt lat="44.12723" lon="5.28366">
        <ele>963.4</ele>
        <time>2022-07-21T09:24:17Z</time>
      </trkpt>
      <trkpt lat="44.12716" lon="5.2836">
        <ele>962.5</ele>
        <time>2022-07-21T09:24:18Z</time>
      </trkpt>
      <trkpt lat="44.12709" lon="5.28354">
        <ele>961.5</ele>
        <time>2022-07-21T09:24:19Z</time>
      </trkpt>
      <trkpt lat="44.12703" lon="5.28342">
        <ele>960.4</ele>
        <time>2022-07-21T09:24:20Z</time>
      </trkpt>
      <trkpt lat="44.12698" lon="5.28331">
        <ele>959.3</ele>
        <time>2022-07-21T09:24:21Z</time>
      </trkpt>
      <trkpt lat="44.12694" lon="5.28318">
        <ele>958.1</ele>
        <time>2022-07-21T09:24:22Z</time>
      </trkpt>
      <trkpt lat="44.12694" lon="5.28304">
        <ele>956.9</ele>
        <time>2022-07-21T09:24:23Z</time>
      </trkpt>
      <trkpt lat="44.12692" lon="5.2829">
        <ele>955.8</ele>
        <time>2022-07-21T09:24:24Z</time>
      </trkpt>
      <trkpt lat="44.12703" lon="5.28273">
        <ele>953.9</ele>
        <time>2022-07-21T09:24:25Z</time>
      </trkpt>
      <trkpt lat="44.12706" lon="5.28258">
        <ele>952.7</ele>
        <time>2022-07-21T09:24:26Z</time>
      </trkpt>
      <trkpt lat="44.12708" lon="5.28244">
        <ele>951.5</ele>
        <time>2022-07-21T09:24:27Z</time>
      </trkpt>
      <trkpt lat="44.12711" lon="5.28231">
        <ele>950.3</ele>
        <time>2022-07-21T09:24:28Z</time>
      </trkpt>
      <trkpt lat="44.12713" lon="5.28215">
        <ele>949.1</ele>
        <time>2022-07-21T09:24:29Z</time>
      </trkpt>
      <trkpt lat="44.12712" lon="5.28197">
        <ele>947.8</ele>
        <time>2022-07-21T09:24:30Z</time>
      </trkpt>
      <trkpt lat="44.1271" lon="5.28183">
        <ele>946.8</ele>
        <time>2022-07-21T09:24:31Z</time>
      </trkpt>
      <trkpt lat="44.12706" lon="5.28169">
        <ele>945.7</ele>
        <time>2022-07-21T09:24:32Z</time>
      </trkpt>
      <trkpt lat="44.12702" lon="5.28154">
        <ele>944.6</ele>
        <time>2022-07-21T09:24:33Z</time>
      </trkpt>
      <trkpt lat="44.12697" lon="5.28139">
        <ele>943.4</ele>
        <time>2022-07-21T09:24:34Z</time>
      </trkpt>
      <trkpt lat="44.12692" lon="5.28124">
        <ele>942.3</ele>
        <time>2022-07-21T09:24:35Z</time>
      </trkpt>
      <trkpt lat="44.12686" lon="5.28109">
        <ele>941.1</ele>
        <time>2022-07-21T09:24:36Z</time>
      </trkpt>
      <trkpt lat="44.12681" lon="5.28094">
        <ele>939.9</ele>
        <time>2022-07-21T09:24:37Z</time>
      </trkpt>
      <trkpt lat="44.12677" lon="5.28079">
        <ele>938.8</ele>
        <time>2022-07-21T09:24:38Z</time>
      </trkpt>
      <trkpt lat="44.12672" lon="5.28064">
        <ele>937.6</ele>
        <time>2022-07-21T09:24:39Z</time>
      </trkpt>
      <trkpt lat="44.12668" lon="5.28049">
        <ele>936.5</ele>
        <time>2022-07-21T09:24:40Z</time>
      </trkpt>
      <trkpt lat="44.12668" lon="5.28034">
        <ele>935.5</ele>
        <time>2022-07-21T09:24:41Z</time>
      </trkpt>
      <trkpt lat="44.12666" lon="5.28019">
        <ele>934.4</ele>
        <time>2022-07-21T09:24:42Z</time>
      </trkpt>
      <trkpt lat="44.12666" lon="5.28003">
        <ele>933.3</ele>
        <time>2022-07-21T09:24:43Z</time>
      </trkpt>
      <trkpt lat="44.12666" lon="5.27986">
        <ele>932.2</ele>
        <time>2022-07-21T09:24:44Z</time>
      </trkpt>
      <trkpt lat="44.12666" lon="5.27971">
        <ele>931.2</ele>
        <time>2022-07-21T09:24:45Z</time>
      </trkpt>
      <trkpt lat="44.12666" lon="5.27953">
        <ele>930.1</ele>
        <time>2022-07-21T09:24:46Z</time>
      </trkpt>
      <trkpt lat="44.12665" lon="5.27937">
        <ele>929.1</ele>
        <time>2022-07-21T09:24:47Z</time>
      </trkpt>
      <trkpt lat="44.12665" lon="5.27921">
        <ele>928</ele>
        <time>2022-07-21T09:24:48Z</time>
      </trkpt>
      <trkpt lat="44.12665" lon="5.27906">
        <ele>927</ele>
        <time>2022-07-21T09:24:49Z</time>
      </trkpt>
      <trkpt lat="44.12665" lon="5.27892">
        <ele>926</ele>
        <time>2022-07-21T09:24:50Z</time>
      </trkpt>
      <trkpt lat="44.12661" lon="5.27877">
        <ele>924.8</ele>
        <time>2022-07-21T09:24:51Z</time>
      </trkpt>
      <trkpt lat="44.12657" lon="5.27864">
        <ele>923.8</ele>
        <time>2022-07-21T09:24:52Z</time>
      </trkpt>
      <trkpt lat="44.12648" lon="5.27852">
        <ele>922.6</ele>
        <time>2022-07-21T09:24:53Z</time>
      </trkpt>
      <trkpt lat="44.12639" lon="5.27841">
        <ele>921.4</ele>
        <time>2022-07-21T09:24:54Z</time>
      </trkpt>
      <trkpt lat="44.1263" lon="5.27832">
        <ele>920.3</ele>
        <time>2022-07-21T09:24:55Z</time>
      </trkpt>
      <trkpt lat="44.12626" lon="5.27818">
        <ele>919.2</ele>
        <time>2022-07-21T09:24:56Z</time>
      </trkpt>
      <trkpt lat="44.12621" lon="5.27805">
        <ele>918.1</ele>
        <time>2022-07-21T09:24:57Z</time>
      </trkpt>
      <trkpt lat="44.12618" lon="5.27788">
        <ele>916.8</ele>
        <time>2022-07-21T09:24:58Z</time>
      </trkpt>
      <trkpt lat="44.12615" lon="5.27774">
        <ele>915.7</ele>
        <time>2022-07-21T09:24:59Z</time>
      </trkpt>
      <trkpt lat="44.12612" lon="5.27759">
        <ele>914.7</ele>
        <time>2022-07-21T09:25:00Z</time>
      </trkpt>
      <trkpt lat="44.12609" lon="5.27745">
        <ele>913.7</ele>
        <time>2022-07-21T09:25:01Z</time>
      </trkpt>
      <trkpt lat="44.12606" lon="5.2773">
        <ele>912.7</ele>
        <time>2022-07-21T09:25:02Z</time>
      </trkpt>
      <trkpt lat="44.12603" lon="5.27714">
        <ele>911.6</ele>
        <time>2022-07-21T09:25:03Z</time>
      </trkpt>
      <trkpt lat="44.126" lon="5.277">
        <ele>910.6</ele>
        <time>2022-07-21T09:25:04Z</time>
      </trkpt>
      <trkpt lat="44.12597" lon="5.27683">
        <ele>909.4</ele>
        <time>2022-07-21T09:25:05Z</time>
      </trkpt>
      <trkpt lat="44.12594" lon="5.2767">
        <ele>908.5</ele>
        <time>2022-07-21T09:25:06Z</time>
      </trkpt>
      <trkpt lat="44.12591" lon="5.27656">
        <ele>907.6</ele>
        <time>2022-07-21T09:25:07Z</time>
      </trkpt>
      <trkpt lat="44.12587" lon="5.27643">
        <ele>906.8</ele>
        <time>2022-07-21T09:25:08Z</time>
      </trkpt>
      <trkpt lat="44.12584" lon="5.27629">
        <ele>906</ele>
        <time>2022-07-21T09:25:09Z</time>
      </trkpt>
      <trkpt lat="44.12582" lon="5.27616">
        <ele>905.1</ele>
        <time>2022-07-21T09:25:10Z</time>
      </trkpt>
      <trkpt lat="44.12582" lon="5.27601">
        <ele>904.1</ele>
        <time>2022-07-21T09:25:11Z</time>
      </trkpt>
      <trkpt lat="44.12584" lon="5.27586">
        <ele>903.1</ele>
        <time>2022-07-21T09:25:12Z</time>
      </trkpt>
      <trkpt lat="44.12586" lon="5.2757">
        <ele>901.9</ele>
        <time>2022-07-21T09:25:13Z</time>
      </trkpt>
      <trkpt lat="44.1259" lon="5.27555">
        <ele>900.7</ele>
        <time>2022-07-21T09:25:14Z</time>
      </trkpt>
      <trkpt lat="44.12596" lon="5.27539">
        <ele>899.4</ele>
        <time>2022-07-21T09:25:15Z</time>
      </trkpt>
      <trkpt lat="44.12601" lon="5.27525">
        <ele>898.2</ele>
        <time>2022-07-21T09:25:16Z</time>
      </trkpt>
      <trkpt lat="44.12607" lon="5.27509">
        <ele>896.8</ele>
        <time>2022-07-21T09:25:17Z</time>
      </trkpt>
      <trkpt lat="44.12614" lon="5.27493">
        <ele>895.5</ele>
        <time>2022-07-21T09:25:18Z</time>
      </trkpt>
      <trkpt lat="44.12621" lon="5.27476">
        <ele>894</ele>
        <time>2022-07-21T09:25:19Z</time>
      </trkpt>
      <trkpt lat="44.12627" lon="5.27459">
        <ele>892.7</ele>
        <time>2022-07-21T09:25:20Z</time>
      </trkpt>
      <trkpt lat="44.12633" lon="5.27442">
        <ele>891.3</ele>
        <time>2022-07-21T09:25:21Z</time>
      </trkpt>
      <trkpt lat="44.1264" lon="5.27425">
        <ele>889.9</ele>
        <time>2022-07-21T09:25:22Z</time>
      </trkpt>
      <trkpt lat="44.12645" lon="5.27408">
        <ele>888.6</ele>
        <time>2022-07-21T09:25:23Z</time>
      </trkpt>
      <trkpt lat="44.12651" lon="5.27391">
        <ele>887.4</ele>
        <time>2022-07-21T09:25:24Z</time>
      </trkpt>
      <trkpt lat="44.12658" lon="5.27377">
        <ele>886.1</ele>
        <time>2022-07-21T09:25:25Z</time>
      </trkpt>
      <trkpt lat="44.12664" lon="5.27362">
        <ele>884.9</ele>
        <time>2022-07-21T09:25:26Z</time>
      </trkpt>
      <trkpt lat="44.12667" lon="5.27345">
        <ele>883.5</ele>
        <time>2022-07-21T09:25:27Z</time>
      </trkpt>
      <trkpt lat="44.1267" lon="5.27328">
        <ele>882.3</ele>
        <time>2022-07-21T09:25:28Z</time>
      </trkpt>
      <trkpt lat="44.12672" lon="5.27311">
        <ele>881.1</ele>
        <time>2022-07-21T09:25:29Z</time>
      </trkpt>
      <trkpt lat="44.12672" lon="5.27296">
        <ele>880</ele>
        <time>2022-07-21T09:25:30Z</time>
      </trkpt>
      <trkpt lat="44.12671" lon="5.27278">
        <ele>878.7</ele>
        <time>2022-07-21T09:25:31Z</time>
      </trkpt>
      <trkpt lat="44.12671" lon="5.27258">
        <ele>877.3</ele>
        <time>2022-07-21T09:25:32Z</time>
      </trkpt>
      <trkpt lat="44.1267" lon="5.27241">
        <ele>875.9</ele>
        <time>2022-07-21T09:25:33Z</time>
      </trkpt>
      <trkpt lat="44.12668" lon="5.27222">
        <ele>874.6</ele>
        <time>2022-07-21T09:25:34Z</time>
      </trkpt>
      <trkpt lat="44.12668" lon="5.27203">
        <ele>873.2</ele>
        <time>2022-07-21T09:25:35Z</time>
      </trkpt>
      <trkpt lat="44.12667" lon="5.27183">
        <ele>871.9</ele>
        <time>2022-07-21T09:25:36Z</time>
      </trkpt>
      <trkpt lat="44.12666" lon="5.27164">
        <ele>870.6</ele>
        <time>2022-07-21T09:25:37Z</time>
      </trkpt>
      <trkpt lat="44.12665" lon="5.27147">
        <ele>869.4</ele>
        <time>2022-07-21T09:25:38Z</time>
      </trkpt>
      <trkpt lat="44.12663" lon="5.2713">
        <ele>868.3</ele>
        <time>2022-07-21T09:25:39Z</time>
      </trkpt>
      <trkpt lat="44.12659" lon="5.27114">
        <ele>867.1</ele>
        <time>2022-07-21T09:25:40Z</time>
      </trkpt>
      <trkpt lat="44.12655" lon="5.27099">
        <ele>866.1</ele>
        <time>2022-07-21T09:25:41Z</time>
      </trkpt>
      <trkpt lat="44.12649" lon="5.27083">
        <ele>865</ele>
        <time>2022-07-21T09:25:42Z</time>
      </trkpt>
      <trkpt lat="44.12643" lon="5.27068">
        <ele>863.8</ele>
        <time>2022-07-21T09:25:43Z</time>
      </trkpt>
      <trkpt lat="44.12638" lon="5.27051">
        <ele>862.5</ele>
        <time>2022-07-21T09:25:44Z</time>
      </trkpt>
      <trkpt lat="44.12632" lon="5.27033">
        <ele>861.1</ele>
        <time>2022-07-21T09:25:45Z</time>
      </trkpt>
      <trkpt lat="44.12627" lon="5.27017">
        <ele>859.7</ele>
        <time>2022-07-21T09:25:46Z</time>
      </trkpt>
      <trkpt lat="44.12623" lon="5.27001">
        <ele>858.3</ele>
        <time>2022-07-21T09:25:47Z</time>
      </trkpt>
      <trkpt lat="44.12622" lon="5.26984">
        <ele>857</ele>
        <time>2022-07-21T09:25:48Z</time>
      </trkpt>
      <trkpt lat="44.12618" lon="5.26967">
        <ele>855.7</ele>
        <time>2022-07-21T09:25:49Z</time>
      </trkpt>
      <trkpt lat="44.12614" lon="5.2695">
        <ele>854.6</ele>
        <time>2022-07-21T09:25:50Z</time>
      </trkpt>
      <trkpt lat="44.12606" lon="5.26935">
        <ele>853.6</ele>
        <time>2022-07-21T09:25:51Z</time>
      </trkpt>
      <trkpt lat="44.126" lon="5.2692">
        <ele>853.1</ele>
        <time>2022-07-21T09:25:52Z</time>
      </trkpt>
      <trkpt lat="44.12593" lon="5.26905">
        <ele>851.8</ele>
        <time>2022-07-21T09:25:53Z</time>
      </trkpt>
      <trkpt lat="44.12587" lon="5.26891">
        <ele>850.3</ele>
        <time>2022-07-21T09:25:54Z</time>
      </trkpt>
      <trkpt lat="44.12584" lon="5.26872">
        <ele>848.6</ele>
        <time>2022-07-21T09:25:55Z</time>
      </trkpt>
      <trkpt lat="44.12581" lon="5.26855">
        <ele>847</ele>
        <time>2022-07-21T09:25:56Z</time>
      </trkpt>
      <trkpt lat="44.12574" lon="5.26839">
        <ele>845.2</ele>
        <time>2022-07-21T09:25:57Z</time>
      </trkpt>
      <trkpt lat="44.12567" lon="5.26823">
        <ele>843.5</ele>
        <time>2022-07-21T09:25:58Z</time>
      </trkpt>
      <trkpt lat="44.12559" lon="5.26808">
        <ele>841.8</ele>
        <time>2022-07-21T09:25:59Z</time>
      </trkpt>
      <trkpt lat="44.12552" lon="5.26793">
        <ele>840.1</ele>
        <time>2022-07-21T09:26:00Z</time>
      </trkpt>
      <trkpt lat="44.12544" lon="5.26774">
        <ele>838.2</ele>
        <time>2022-07-21T09:26:01Z</time>
      </trkpt>
      <trkpt lat="44.12538" lon="5.26756">
        <ele>836.3</ele>
        <time>2022-07-21T09:26:02Z</time>
      </trkpt>
      <trkpt lat="44.12531" lon="5.26738">
        <ele>834.4</ele>
        <time>2022-07-21T09:26:03Z</time>
      </trkpt>
      <trkpt lat="44.12525" lon="5.26719">
        <ele>832.5</ele>
        <time>2022-07-21T09:26:04Z</time>
      </trkpt>
      <trkpt lat="44.12517" lon="5.26701">
        <ele>830.6</ele>
        <time>2022-07-21T09:26:05Z</time>
      </trkpt>
      <trkpt lat="44.12512" lon="5.26686">
        <ele>829</ele>
        <time>2022-07-21T09:26:06Z</time>
      </trkpt>
      <trkpt lat="44.12505" lon="5.26669">
        <ele>827.2</ele>
        <time>2022-07-21T09:26:07Z</time>
      </trkpt>
      <trkpt lat="44.12494" lon="5.2665">
        <ele>824.8</ele>
        <time>2022-07-21T09:26:08Z</time>
      </trkpt>
      <trkpt lat="44.12485" lon="5.26634">
        <ele>822.9</ele>
        <time>2022-07-21T09:26:09Z</time>
      </trkpt>
      <trkpt lat="44.12475" lon="5.26621">
        <ele>821.3</ele>
        <time>2022-07-21T09:26:10Z</time>
      </trkpt>
      <trkpt lat="44.12465" lon="5.26609">
        <ele>819.8</ele>
        <time>2022-07-21T09:26:11Z</time>
      </trkpt>
      <trkpt lat="44.12455" lon="5.26597">
        <ele>818.1</ele>
        <time>2022-07-21T09:26:12Z</time>
      </trkpt>
      <trkpt lat="44.12445" lon="5.26585">
        <ele>816.4</ele>
        <time>2022-07-21T09:26:13Z</time>
      </trkpt>
      <trkpt lat="44.12436" lon="5.26568">
        <ele>814.4</ele>
        <time>2022-07-21T09:26:14Z</time>
      </trkpt>
      <trkpt lat="44.12427" lon="5.26553">
        <ele>812.6</ele>
        <time>2022-07-21T09:26:15Z</time>
      </trkpt>
      <trkpt lat="44.12422" lon="5.26535">
        <ele>810.9</ele>
        <time>2022-07-21T09:26:16Z</time>
      </trkpt>
      <trkpt lat="44.12416" lon="5.2652">
        <ele>809.5</ele>
        <time>2022-07-21T09:26:17Z</time>
      </trkpt>
      <trkpt lat="44.1241" lon="5.26506">
        <ele>808.1</ele>
        <time>2022-07-21T09:26:18Z</time>
      </trkpt>
      <trkpt lat="44.12406" lon="5.2649">
        <ele>806.5</ele>
        <time>2022-07-21T09:26:19Z</time>
      </trkpt>
      <trkpt lat="44.12403" lon="5.26474">
        <ele>804.8</ele>
        <time>2022-07-21T09:26:20Z</time>
      </trkpt>
      <trkpt lat="44.12408" lon="5.26458">
        <ele>803.2</ele>
        <time>2022-07-21T09:26:21Z</time>
      </trkpt>
      <trkpt lat="44.12412" lon="5.26441">
        <ele>801.6</ele>
        <time>2022-07-21T09:26:22Z</time>
      </trkpt>
      <trkpt lat="44.12419" lon="5.26426">
        <ele>800.1</ele>
        <time>2022-07-21T09:26:23Z</time>
      </trkpt>
      <trkpt lat="44.12425" lon="5.26411">
        <ele>798.8</ele>
        <time>2022-07-21T09:26:24Z</time>
      </trkpt>
      <trkpt lat="44.1243" lon="5.26395">
        <ele>797.4</ele>
        <time>2022-07-21T09:26:25Z</time>
      </trkpt>
      <trkpt lat="44.12434" lon="5.26375">
        <ele>795.7</ele>
        <time>2022-07-21T09:26:26Z</time>
      </trkpt>
      <trkpt lat="44.12438" lon="5.26357">
        <ele>794.2</ele>
        <time>2022-07-21T09:26:27Z</time>
      </trkpt>
      <trkpt lat="44.12438" lon="5.26337">
        <ele>792.5</ele>
        <time>2022-07-21T09:26:28Z</time>
      </trkpt>
      <trkpt lat="44.1244" lon="5.26318">
        <ele>790.9</ele>
        <time>2022-07-21T09:26:29Z</time>
      </trkpt>
      <trkpt lat="44.12443" lon="5.263">
        <ele>789.4</ele>
        <time>2022-07-21T09:26:30Z</time>
      </trkpt>
      <trkpt lat="44.12445" lon="5.26282">
        <ele>787.9</ele>
        <time>2022-07-21T09:26:31Z</time>
      </trkpt>
      <trkpt lat="44.12448" lon="5.26265">
        <ele>786.4</ele>
        <time>2022-07-21T09:26:32Z</time>
      </trkpt>
      <trkpt lat="44.12451" lon="5.26248">
        <ele>784.9</ele>
        <time>2022-07-21T09:26:33Z</time>
      </trkpt>
      <trkpt lat="44.12456" lon="5.26233">
        <ele>783.5</ele>
        <time>2022-07-21T09:26:34Z</time>
      </trkpt>
      <trkpt lat="44.12459" lon="5.26217">
        <ele>782.1</ele>
        <time>2022-07-21T09:26:35Z</time>
      </trkpt>
      <trkpt lat="44.1246" lon="5.262">
        <ele>780.6</ele>
        <time>2022-07-21T09:26:36Z</time>
      </trkpt>
      <trkpt lat="44.12463" lon="5.26179">
        <ele>778.8</ele>
        <time>2022-07-21T09:26:37Z</time>
      </trkpt>
      <trkpt lat="44.12465" lon="5.2616">
        <ele>777.2</ele>
        <time>2022-07-21T09:26:38Z</time>
      </trkpt>
      <trkpt lat="44.12464" lon="5.26142">
        <ele>775.9</ele>
        <time>2022-07-21T09:26:39Z</time>
      </trkpt>
      <trkpt lat="44.12464" lon="5.26125">
        <ele>774.7</ele>
        <time>2022-07-21T09:26:40Z</time>
      </trkpt>
      <trkpt lat="44.12464" lon="5.26109">
        <ele>773.5</ele>
        <time>2022-07-21T09:26:41Z</time>
      </trkpt>
      <trkpt lat="44.12457" lon="5.26094">
        <ele>772</ele>
        <time>2022-07-21T09:26:42Z</time>
      </trkpt>
      <trkpt lat="44.12449" lon="5.26078">
        <ele>770.5</ele>
        <time>2022-07-21T09:26:43Z</time>
      </trkpt>
      <trkpt lat="44.12446" lon="5.26063">
        <ele>769</ele>
        <time>2022-07-21T09:26:44Z</time>
      </trkpt>
      <trkpt lat="44.12445" lon="5.26046">
        <ele>767.6</ele>
        <time>2022-07-21T09:26:45Z</time>
      </trkpt>
      <trkpt lat="44.12445" lon="5.26027">
        <ele>766</ele>
        <time>2022-07-21T09:26:46Z</time>
      </trkpt>
      <trkpt lat="44.12443" lon="5.26011">
        <ele>764.6</ele>
        <time>2022-07-21T09:26:47Z</time>
      </trkpt>
      <trkpt lat="44.12444" lon="5.25988">
        <ele>762.8</ele>
        <time>2022-07-21T09:26:48Z</time>
      </trkpt>
      <trkpt lat="44.12444" lon="5.25969">
        <ele>761.4</ele>
        <time>2022-07-21T09:26:49Z</time>
      </trkpt>
      <trkpt lat="44.12446" lon="5.25954">
        <ele>760.2</ele>
        <time>2022-07-21T09:26:50Z</time>
      </trkpt>
      <trkpt lat="44.12448" lon="5.25939">
        <ele>759.1</ele>
        <time>2022-07-21T09:26:51Z</time>
      </trkpt>
      <trkpt lat="44.12454" lon="5.25925">
        <ele>758</ele>
        <time>2022-07-21T09:26:52Z</time>
      </trkpt>
      <trkpt lat="44.12459" lon="5.25912">
        <ele>756.9</ele>
        <time>2022-07-21T09:26:53Z</time>
      </trkpt>
      <trkpt lat="44.12467" lon="5.25899">
        <ele>755.6</ele>
        <time>2022-07-21T09:26:54Z</time>
      </trkpt>
      <trkpt lat="44.12478" lon="5.25887">
        <ele>754.1</ele>
        <time>2022-07-21T09:26:55Z</time>
      </trkpt>
      <trkpt lat="44.12489" lon="5.25876">
        <ele>752.4</ele>
        <time>2022-07-21T09:26:56Z</time>
      </trkpt>
      <trkpt lat="44.12494" lon="5.25861">
        <ele>750.9</ele>
        <time>2022-07-21T09:26:57Z</time>
      </trkpt>
      <trkpt lat="44.12503" lon="5.25848">
        <ele>749.3</ele>
        <time>2022-07-21T09:26:58Z</time>
      </trkpt>
      <trkpt lat="44.12509" lon="5.25833">
        <ele>747.8</ele>
        <time>2022-07-21T09:26:59Z</time>
      </trkpt>
      <trkpt lat="44.12514" lon="5.25817">
        <ele>746.3</ele>
        <time>2022-07-21T09:27:00Z</time>
      </trkpt>
      <trkpt lat="44.12519" lon="5.25796">
        <ele>744.3</ele>
        <time>2022-07-21T09:27:01Z</time>
      </trkpt>
      <trkpt lat="44.12522" lon="5.25777">
        <ele>742.8</ele>
        <time>2022-07-21T09:27:02Z</time>
      </trkpt>
      <trkpt lat="44.12524" lon="5.25759">
        <ele>741.3</ele>
        <time>2022-07-21T09:27:03Z</time>
      </trkpt>
      <trkpt lat="44.12524" lon="5.25741">
        <ele>739.9</ele>
        <time>2022-07-21T09:27:04Z</time>
      </trkpt>
      <trkpt lat="44.12521" lon="5.25722">
        <ele>738.4</ele>
        <time>2022-07-21T09:27:05Z</time>
      </trkpt>
      <trkpt lat="44.12514" lon="5.25702">
        <ele>736.7</ele>
        <time>2022-07-21T09:27:06Z</time>
      </trkpt>
      <trkpt lat="44.12511" lon="5.25684">
        <ele>735.3</ele>
        <time>2022-07-21T09:27:07Z</time>
      </trkpt>
      <trkpt lat="44.12507" lon="5.25665">
        <ele>733.7</ele>
        <time>2022-07-21T09:27:08Z</time>
      </trkpt>
      <trkpt lat="44.12502" lon="5.25646">
        <ele>732.1</ele>
        <time>2022-07-21T09:27:09Z</time>
      </trkpt>
      <trkpt lat="44.12497" lon="5.25627">
        <ele>730.5</ele>
        <time>2022-07-21T09:27:10Z</time>
      </trkpt>
      <trkpt lat="44.12493" lon="5.25608">
        <ele>728.9</ele>
        <time>2022-07-21T09:27:11Z</time>
      </trkpt>
      <trkpt lat="44.12489" lon="5.25589">
        <ele>727.2</ele>
        <time>2022-07-21T09:27:12Z</time>
      </trkpt>
      <trkpt lat="44.12485" lon="5.2557">
        <ele>725.6</ele>
        <time>2022-07-21T09:27:13Z</time>
      </trkpt>
      <trkpt lat="44.12482" lon="5.25551">
        <ele>724</ele>
        <time>2022-07-21T09:27:14Z</time>
      </trkpt>
      <trkpt lat="44.12479" lon="5.25533">
        <ele>722.5</ele>
        <time>2022-07-21T09:27:15Z</time>
      </trkpt>
      <trkpt lat="44.12478" lon="5.25513">
        <ele>720.9</ele>
        <time>2022-07-21T09:27:16Z</time>
      </trkpt>
      <trkpt lat="44.12479" lon="5.25494">
        <ele>719.3</ele>
        <time>2022-07-21T09:27:17Z</time>
      </trkpt>
      <trkpt lat="44.1248" lon="5.25474">
        <ele>717.5</ele>
        <time>2022-07-21T09:27:18Z</time>
      </trkpt>
      <trkpt lat="44.12481" lon="5.25455">
        <ele>716</ele>
        <time>2022-07-21T09:27:19Z</time>
      </trkpt>
      <trkpt lat="44.12479" lon="5.25436">
        <ele>714.4</ele>
        <time>2022-07-21T09:27:20Z</time>
      </trkpt>
      <trkpt lat="44.12479" lon="5.25418">
        <ele>713.1</ele>
        <time>2022-07-21T09:27:21Z</time>
      </trkpt>
      <trkpt lat="44.1248" lon="5.25399">
        <ele>711.6</ele>
        <time>2022-07-21T09:27:22Z</time>
      </trkpt>
      <trkpt lat="44.12479" lon="5.25382">
        <ele>710.3</ele>
        <time>2022-07-21T09:27:23Z</time>
      </trkpt>
      <trkpt lat="44.12478" lon="5.25366">
        <ele>709.1</ele>
        <time>2022-07-21T09:27:24Z</time>
      </trkpt>
      <trkpt lat="44.12478" lon="5.2535">
        <ele>707.8</ele>
        <time>2022-07-21T09:27:25Z</time>
      </trkpt>
      <trkpt lat="44.12473" lon="5.25335">
        <ele>706.6</ele>
        <time>2022-07-21T09:27:26Z</time>
      </trkpt>
      <trkpt lat="44.12467" lon="5.25319">
        <ele>705.4</ele>
        <time>2022-07-21T09:27:27Z</time>
      </trkpt>
      <trkpt lat="44.1246" lon="5.25304">
        <ele>704.2</ele>
        <time>2022-07-21T09:27:28Z</time>
      </trkpt>
      <trkpt lat="44.12451" lon="5.25288">
        <ele>702.8</ele>
        <time>2022-07-21T09:27:29Z</time>
      </trkpt>
      <trkpt lat="44.12443" lon="5.25274">
        <ele>701.6</ele>
        <time>2022-07-21T09:27:30Z</time>
      </trkpt>
      <trkpt lat="44.12434" lon="5.25259">
        <ele>700.2</ele>
        <time>2022-07-21T09:27:31Z</time>
      </trkpt>
      <trkpt lat="44.12425" lon="5.25244">
        <ele>698.9</ele>
        <time>2022-07-21T09:27:32Z</time>
      </trkpt>
      <trkpt lat="44.12415" lon="5.25228">
        <ele>697.5</ele>
        <time>2022-07-21T09:27:33Z</time>
      </trkpt>
      <trkpt lat="44.12399" lon="5.2521">
        <ele>695.6</ele>
        <time>2022-07-21T09:27:34Z</time>
      </trkpt>
      <trkpt lat="44.12391" lon="5.25195">
        <ele>694.4</ele>
        <time>2022-07-21T09:27:35Z</time>
      </trkpt>
      <trkpt lat="44.12383" lon="5.2518">
        <ele>693.1</ele>
        <time>2022-07-21T09:27:36Z</time>
      </trkpt>
      <trkpt lat="44.12374" lon="5.25165">
        <ele>691.7</ele>
        <time>2022-07-21T09:27:37Z</time>
      </trkpt>
      <trkpt lat="44.12365" lon="5.25149">
        <ele>690.3</ele>
        <time>2022-07-21T09:27:38Z</time>
      </trkpt>
      <trkpt lat="44.12355" lon="5.25133">
        <ele>688.9</ele>
        <time>2022-07-21T09:27:39Z</time>
      </trkpt>
      <trkpt lat="44.12346" lon="5.25118">
        <ele>687.5</ele>
        <time>2022-07-21T09:27:40Z</time>
      </trkpt>
      <trkpt lat="44.12336" lon="5.25102">
        <ele>686.1</ele>
        <time>2022-07-21T09:27:41Z</time>
      </trkpt>
      <trkpt lat="44.12326" lon="5.25086">
        <ele>684.7</ele>
        <time>2022-07-21T09:27:42Z</time>
      </trkpt>
      <trkpt lat="44.12318" lon="5.2507">
        <ele>683.5</ele>
        <time>2022-07-21T09:27:43Z</time>
      </trkpt>
      <trkpt lat="44.12309" lon="5.25054">
        <ele>682.1</ele>
        <time>2022-07-21T09:27:44Z</time>
      </trkpt>
      <trkpt lat="44.12301" lon="5.25038">
        <ele>680.9</ele>
        <time>2022-07-21T09:27:45Z</time>
      </trkpt>
      <trkpt lat="44.12293" lon="5.25023">
        <ele>679.6</ele>
        <time>2022-07-21T09:27:46Z</time>
      </trkpt>
      <trkpt lat="44.12285" lon="5.25009">
        <ele>678.5</ele>
        <time>2022-07-21T09:27:47Z</time>
      </trkpt>
      <trkpt lat="44.12277" lon="5.24996">
        <ele>677.3</ele>
        <time>2022-07-21T09:27:48Z</time>
      </trkpt>
      <trkpt lat="44.12269" lon="5.24982">
        <ele>676.1</ele>
        <time>2022-07-21T09:27:49Z</time>
      </trkpt>
      <trkpt lat="44.12257" lon="5.24967">
        <ele>674.6</ele>
        <time>2022-07-21T09:27:50Z</time>
      </trkpt>
      <trkpt lat="44.1225" lon="5.24955">
        <ele>673.5</ele>
        <time>2022-07-21T09:27:51Z</time>
      </trkpt>
      <trkpt lat="44.12245" lon="5.24944">
        <ele>672.6</ele>
        <time>2022-07-21T09:27:52Z</time>
      </trkpt>
      <trkpt lat="44.12239" lon="5.24933">
        <ele>671.7</ele>
        <time>2022-07-21T09:27:53Z</time>
      </trkpt>
      <trkpt lat="44.1223" lon="5.24923">
        <ele>670.6</ele>
        <time>2022-07-21T09:27:54Z</time>
      </trkpt>
      <trkpt lat="44.12222" lon="5.24915">
        <ele>669.7</ele>
        <time>2022-07-21T09:27:55Z</time>
      </trkpt>
      <trkpt lat="44.12214" lon="5.24912">
        <ele>668.9</ele>
        <time>2022-07-21T09:27:56Z</time>
      </trkpt>
      <trkpt lat="44.12203" lon="5.24911">
        <ele>668</ele>
        <time>2022-07-21T09:27:57Z</time>
      </trkpt>
      <trkpt lat="44.12192" lon="5.24911">
        <ele>667</ele>
        <time>2022-07-21T09:27:58Z</time>
      </trkpt>
      <trkpt lat="44.12178" lon="5.24913">
        <ele>665.6</ele>
        <time>2022-07-21T09:27:59Z</time>
      </trkpt>
      <trkpt lat="44.1217" lon="5.24922">
        <ele>664.5</ele>
        <time>2022-07-21T09:28:00Z</time>
      </trkpt>
      <trkpt lat="44.12162" lon="5.24927">
        <ele>663.6</ele>
        <time>2022-07-21T09:28:01Z</time>
      </trkpt>
      <trkpt lat="44.12151" lon="5.24928">
        <ele>662.4</ele>
        <time>2022-07-21T09:28:02Z</time>
      </trkpt>
      <trkpt lat="44.12145" lon="5.2493">
        <ele>661.7</ele>
        <time>2022-07-21T09:28:03Z</time>
      </trkpt>
      <trkpt lat="44.1214" lon="5.24926">
        <ele>661</ele>
        <time>2022-07-21T09:28:04Z</time>
      </trkpt>
      <trkpt lat="44.12135" lon="5.24918">
        <ele>660</ele>
        <time>2022-07-21T09:28:05Z</time>
      </trkpt>
      <trkpt lat="44.12132" lon="5.24907">
        <ele>659</ele>
        <time>2022-07-21T09:28:06Z</time>
      </trkpt>
      <trkpt lat="44.12128" lon="5.24896">
        <ele>658</ele>
        <time>2022-07-21T09:28:07Z</time>
      </trkpt>
      <trkpt lat="44.12121" lon="5.24887">
        <ele>657</ele>
        <time>2022-07-21T09:28:08Z</time>
      </trkpt>
      <trkpt lat="44.12112" lon="5.24878">
        <ele>655.8</ele>
        <time>2022-07-21T09:28:09Z</time>
      </trkpt>
      <trkpt lat="44.12104" lon="5.24872">
        <ele>655</ele>
        <time>2022-07-21T09:28:10Z</time>
      </trkpt>
      <trkpt lat="44.12091" lon="5.24868">
        <ele>653.6</ele>
        <time>2022-07-21T09:28:11Z</time>
      </trkpt>
      <trkpt lat="44.12081" lon="5.24869">
        <ele>652.6</ele>
        <time>2022-07-21T09:28:12Z</time>
      </trkpt>
      <trkpt lat="44.12069" lon="5.24862">
        <ele>651.2</ele>
        <time>2022-07-21T09:28:13Z</time>
      </trkpt>
      <trkpt lat="44.12057" lon="5.24858">
        <ele>650</ele>
        <time>2022-07-21T09:28:14Z</time>
      </trkpt>
      <trkpt lat="44.12046" lon="5.24854">
        <ele>648.7</ele>
        <time>2022-07-21T09:28:15Z</time>
      </trkpt>
      <trkpt lat="44.12033" lon="5.24858">
        <ele>647.2</ele>
        <time>2022-07-21T09:28:16Z</time>
      </trkpt>
      <trkpt lat="44.12021" lon="5.24857">
        <ele>646</ele>
        <time>2022-07-21T09:28:17Z</time>
      </trkpt>
      <trkpt lat="44.12008" lon="5.24852">
        <ele>644.6</ele>
        <time>2022-07-21T09:28:18Z</time>
      </trkpt>
      <trkpt lat="44.11997" lon="5.24845">
        <ele>643.3</ele>
        <time>2022-07-21T09:28:19Z</time>
      </trkpt>
      <trkpt lat="44.11988" lon="5.24837">
        <ele>642.1</ele>
        <time>2022-07-21T09:28:20Z</time>
      </trkpt>
      <trkpt lat="44.11977" lon="5.24827">
        <ele>640.5</ele>
        <time>2022-07-21T09:28:21Z</time>
      </trkpt>
      <trkpt lat="44.11966" lon="5.24817">
        <ele>638.9</ele>
        <time>2022-07-21T09:28:22Z</time>
      </trkpt>
      <trkpt lat="44.11952" lon="5.24807">
        <ele>637.2</ele>
        <time>2022-07-21T09:28:23Z</time>
      </trkpt>
      <trkpt lat="44.11938" lon="5.24802">
        <ele>635.7</ele>
        <time>2022-07-21T09:28:24Z</time>
      </trkpt>
      <trkpt lat="44.11925" lon="5.24798">
        <ele>634.2</ele>
        <time>2022-07-21T09:28:25Z</time>
      </trkpt>
      <trkpt lat="44.11912" lon="5.24795">
        <ele>632.8</ele>
        <time>2022-07-21T09:28:26Z</time>
      </trkpt>
      <trkpt lat="44.11899" lon="5.2479">
        <ele>631.2</ele>
        <time>2022-07-21T09:28:27Z</time>
      </trkpt>
      <trkpt lat="44.11887" lon="5.24783">
        <ele>629.7</ele>
        <time>2022-07-21T09:28:28Z</time>
      </trkpt>
      <trkpt lat="44.11875" lon="5.24775">
        <ele>627.9</ele>
        <time>2022-07-21T09:28:29Z</time>
      </trkpt>
      <trkpt lat="44.11866" lon="5.24764">
        <ele>626.5</ele>
        <time>2022-07-21T09:28:30Z</time>
      </trkpt>
      <trkpt lat="44.11858" lon="5.24754">
        <ele>625.2</ele>
        <time>2022-07-21T09:28:31Z</time>
      </trkpt>
      <trkpt lat="44.11846" lon="5.24743">
        <ele>623.5</ele>
        <time>2022-07-21T09:28:32Z</time>
      </trkpt>
      <trkpt lat="44.11833" lon="5.24734">
        <ele>621.9</ele>
        <time>2022-07-21T09:28:33Z</time>
      </trkpt>
      <trkpt lat="44.1182" lon="5.24725">
        <ele>620.5</ele>
        <time>2022-07-21T09:28:34Z</time>
      </trkpt>
      <trkpt lat="44.11808" lon="5.24719">
        <ele>619.2</ele>
        <time>2022-07-21T09:28:35Z</time>
      </trkpt>
      <trkpt lat="44.11797" lon="5.24709">
        <ele>617.8</ele>
        <time>2022-07-21T09:28:36Z</time>
      </trkpt>
      <trkpt lat="44.11786" lon="5.24698">
        <ele>616.3</ele>
        <time>2022-07-21T09:28:37Z</time>
      </trkpt>
      <trkpt lat="44.11775" lon="5.24687">
        <ele>614.9</ele>
        <time>2022-07-21T09:28:38Z</time>
      </trkpt>
      <trkpt lat="44.11764" lon="5.24675">
        <ele>613.3</ele>
        <time>2022-07-21T09:28:39Z</time>
      </trkpt>
      <trkpt lat="44.11751" lon="5.24662">
        <ele>611.6</ele>
        <time>2022-07-21T09:28:40Z</time>
      </trkpt>
      <trkpt lat="44.11742" lon="5.24649">
        <ele>610.2</ele>
        <time>2022-07-21T09:28:41Z</time>
      </trkpt>
      <trkpt lat="44.1173" lon="5.24635">
        <ele>608.7</ele>
        <time>2022-07-21T09:28:42Z</time>
      </trkpt>
      <trkpt lat="44.11718" lon="5.24622">
        <ele>607.3</ele>
        <time>2022-07-21T09:28:43Z</time>
      </trkpt>
      <trkpt lat="44.11707" lon="5.24609">
        <ele>606</ele>
        <time>2022-07-21T09:28:44Z</time>
      </trkpt>
      <trkpt lat="44.11696" lon="5.24595">
        <ele>604.6</ele>
        <time>2022-07-21T09:28:45Z</time>
      </trkpt>
      <trkpt lat="44.11685" lon="5.24582">
        <ele>603.3</ele>
        <time>2022-07-21T09:28:46Z</time>
      </trkpt>
      <trkpt lat="44.11674" lon="5.24569">
        <ele>602</ele>
        <time>2022-07-21T09:28:47Z</time>
      </trkpt>
      <trkpt lat="44.11663" lon="5.24556">
        <ele>600.7</ele>
        <time>2022-07-21T09:28:48Z</time>
      </trkpt>
      <trkpt lat="44.11652" lon="5.24542">
        <ele>599.3</ele>
        <time>2022-07-21T09:28:49Z</time>
      </trkpt>
      <trkpt lat="44.11639" lon="5.24529">
        <ele>597.8</ele>
        <time>2022-07-21T09:28:50Z</time>
      </trkpt>
      <trkpt lat="44.11628" lon="5.24516">
        <ele>596.5</ele>
        <time>2022-07-21T09:28:51Z</time>
      </trkpt>
      <trkpt lat="44.11617" lon="5.24503">
        <ele>595.2</ele>
        <time>2022-07-21T09:28:52Z</time>
      </trkpt>
      <trkpt lat="44.11606" lon="5.24491">
        <ele>594.1</ele>
        <time>2022-07-21T09:28:53Z</time>
      </trkpt>
      <trkpt lat="44.11597" lon="5.24481">
        <ele>593</ele>
        <time>2022-07-21T09:28:54Z</time>
      </trkpt>
      <trkpt lat="44.11587" lon="5.24471">
        <ele>592</ele>
        <time>2022-07-21T09:28:55Z</time>
      </trkpt>
      <trkpt lat="44.11578" lon="5.24461">
        <ele>591</ele>
        <time>2022-07-21T09:28:56Z</time>
      </trkpt>
      <trkpt lat="44.11569" lon="5.24451">
        <ele>590.1</ele>
        <time>2022-07-21T09:28:57Z</time>
      </trkpt>
      <trkpt lat="44.11563" lon="5.24441">
        <ele>589.3</ele>
        <time>2022-07-21T09:28:58Z</time>
      </trkpt>
      <trkpt lat="44.11557" lon="5.24431">
        <ele>588.5</ele>
        <time>2022-07-21T09:28:59Z</time>
      </trkpt>
      <trkpt lat="44.11552" lon="5.2442">
        <ele>587.7</ele>
        <time>2022-07-21T09:29:00Z</time>
      </trkpt>
      <trkpt lat="44.11553" lon="5.24405">
        <ele>586.9</ele>
        <time>2022-07-21T09:29:01Z</time>
      </trkpt>
      <trkpt lat="44.11553" lon="5.24392">
        <ele>586.1</ele>
        <time>2022-07-21T09:29:02Z</time>
      </trkpt>
      <trkpt lat="44.11558" lon="5.24381">
        <ele>585.3</ele>
        <time>2022-07-21T09:29:03Z</time>
      </trkpt>
      <trkpt lat="44.11565" lon="5.24368">
        <ele>584.2</ele>
        <time>2022-07-21T09:29:04Z</time>
      </trkpt>
      <trkpt lat="44.11571" lon="5.24357">
        <ele>583.1</ele>
        <time>2022-07-21T09:29:05Z</time>
      </trkpt>
      <trkpt lat="44.11578" lon="5.24344">
        <ele>581.8</ele>
        <time>2022-07-21T09:29:06Z</time>
      </trkpt>
      <trkpt lat="44.11585" lon="5.24331">
        <ele>580.5</ele>
        <time>2022-07-21T09:29:07Z</time>
      </trkpt>
      <trkpt lat="44.11592" lon="5.24319">
        <ele>579.2</ele>
        <time>2022-07-21T09:29:08Z</time>
      </trkpt>
      <trkpt lat="44.11599" lon="5.24308">
        <ele>577.9</ele>
        <time>2022-07-21T09:29:09Z</time>
      </trkpt>
      <trkpt lat="44.11606" lon="5.24298">
        <ele>576.7</ele>
        <time>2022-07-21T09:29:10Z</time>
      </trkpt>
      <trkpt lat="44.11611" lon="5.24289">
        <ele>575.6</ele>
        <time>2022-07-21T09:29:11Z</time>
      </trkpt>
      <trkpt lat="44.11616" lon="5.2428">
        <ele>574.6</ele>
        <time>2022-07-21T09:29:12Z</time>
      </trkpt>
      <trkpt lat="44.11617" lon="5.24269">
        <ele>573.6</ele>
        <time>2022-07-21T09:29:13Z</time>
      </trkpt>
      <trkpt lat="44.11616" lon="5.24257">
        <ele>572.5</ele>
        <time>2022-07-21T09:29:14Z</time>
      </trkpt>
      <trkpt lat="44.11614" lon="5.24247">
        <ele>571.6</ele>
        <time>2022-07-21T09:29:15Z</time>
      </trkpt>
      <trkpt lat="44.11606" lon="5.24237">
        <ele>570.3</ele>
        <time>2022-07-21T09:29:16Z</time>
      </trkpt>
      <trkpt lat="44.11599" lon="5.24227">
        <ele>569.1</ele>
        <time>2022-07-21T09:29:17Z</time>
      </trkpt>
      <trkpt lat="44.1159" lon="5.24218">
        <ele>567.9</ele>
        <time>2022-07-21T09:29:18Z</time>
      </trkpt>
      <trkpt lat="44.1158" lon="5.2421">
        <ele>566.7</ele>
        <time>2022-07-21T09:29:19Z</time>
      </trkpt>
      <trkpt lat="44.1157" lon="5.24202">
        <ele>565.6</ele>
        <time>2022-07-21T09:29:20Z</time>
      </trkpt>
      <trkpt lat="44.1156" lon="5.24195">
        <ele>564.4</ele>
        <time>2022-07-21T09:29:21Z</time>
      </trkpt>
      <trkpt lat="44.1155" lon="5.24188">
        <ele>563.4</ele>
        <time>2022-07-21T09:29:22Z</time>
      </trkpt>
      <trkpt lat="44.1154" lon="5.24181">
        <ele>562.2</ele>
        <time>2022-07-21T09:29:23Z</time>
      </trkpt>
      <trkpt lat="44.11527" lon="5.24171">
        <ele>560.8</ele>
        <time>2022-07-21T09:29:24Z</time>
      </trkpt>
      <trkpt lat="44.11516" lon="5.24162">
        <ele>559.5</ele>
        <time>2022-07-21T09:29:25Z</time>
      </trkpt>
      <trkpt lat="44.11506" lon="5.2415">
        <ele>558.3</ele>
        <time>2022-07-21T09:29:26Z</time>
      </trkpt>
      <trkpt lat="44.11498" lon="5.24137">
        <ele>557.1</ele>
        <time>2022-07-21T09:29:27Z</time>
      </trkpt>
      <trkpt lat="44.11487" lon="5.24125">
        <ele>555.9</ele>
        <time>2022-07-21T09:29:28Z</time>
      </trkpt>
      <trkpt lat="44.11477" lon="5.24111">
        <ele>554.7</ele>
        <time>2022-07-21T09:29:29Z</time>
      </trkpt>
      <trkpt lat="44.11466" lon="5.24098">
        <ele>553.4</ele>
        <time>2022-07-21T09:29:30Z</time>
      </trkpt>
      <trkpt lat="44.11457" lon="5.24084">
        <ele>552.2</ele>
        <time>2022-07-21T09:29:31Z</time>
      </trkpt>
      <trkpt lat="44.11449" lon="5.24071">
        <ele>551</ele>
        <time>2022-07-21T09:29:32Z</time>
      </trkpt>
      <trkpt lat="44.11439" lon="5.24059">
        <ele>549.7</ele>
        <time>2022-07-21T09:29:33Z</time>
      </trkpt>
      <trkpt lat="44.11432" lon="5.24047">
        <ele>548.6</ele>
        <time>2022-07-21T09:29:34Z</time>
      </trkpt>
      <trkpt lat="44.11422" lon="5.24034">
        <ele>547.3</ele>
        <time>2022-07-21T09:29:35Z</time>
      </trkpt>
      <trkpt lat="44.11413" lon="5.24025">
        <ele>546.2</ele>
        <time>2022-07-21T09:29:36Z</time>
      </trkpt>
      <trkpt lat="44.11402" lon="5.24016">
        <ele>544.9</ele>
        <time>2022-07-21T09:29:37Z</time>
      </trkpt>
      <trkpt lat="44.11394" lon="5.24009">
        <ele>544</ele>
        <time>2022-07-21T09:29:38Z</time>
      </trkpt>
      <trkpt lat="44.11385" lon="5.24004">
        <ele>543.1</ele>
        <time>2022-07-21T09:29:39Z</time>
      </trkpt>
      <trkpt lat="44.11376" lon="5.24">
        <ele>542.3</ele>
        <time>2022-07-21T09:29:40Z</time>
      </trkpt>
      <trkpt lat="44.11368" lon="5.23996">
        <ele>541.7</ele>
        <time>2022-07-21T09:29:41Z</time>
      </trkpt>
      <trkpt lat="44.11363" lon="5.23993">
        <ele>541.3</ele>
        <time>2022-07-21T09:29:42Z</time>
      </trkpt>
      <trkpt lat="44.11359" lon="5.23988">
        <ele>540.9</ele>
        <time>2022-07-21T09:29:43Z</time>
      </trkpt>
      <trkpt lat="44.11355" lon="5.23982">
        <ele>539.9</ele>
        <time>2022-07-21T09:29:44Z</time>
      </trkpt>
      <trkpt lat="44.11355" lon="5.23978">
        <ele>539.6</ele>
        <time>2022-07-21T09:29:45Z</time>
      </trkpt>
      <trkpt lat="44.11363" lon="5.23973">
        <ele>538.8</ele>
        <time>2022-07-21T09:29:46Z</time>
      </trkpt>
      <trkpt lat="44.11369" lon="5.2397">
        <ele>538.3</ele>
        <time>2022-07-21T09:29:47Z</time>
      </trkpt>
      <trkpt lat="44.11374" lon="5.23974">
        <ele>537.7</ele>
        <time>2022-07-21T09:29:48Z</time>
      </trkpt>
      <trkpt lat="44.1138" lon="5.23975">
        <ele>537.1</ele>
        <time>2022-07-21T09:29:49Z</time>
      </trkpt>
      <trkpt lat="44.11387" lon="5.23977">
        <ele>536.6</ele>
        <time>2022-07-21T09:29:50Z</time>
      </trkpt>
      <trkpt lat="44.11394" lon="5.23972">
        <ele>536.1</ele>
        <time>2022-07-21T09:29:51Z</time>
      </trkpt>
      <trkpt lat="44.11403" lon="5.23975">
        <ele>535.5</ele>
        <time>2022-07-21T09:29:52Z</time>
      </trkpt>
      <trkpt lat="44.11413" lon="5.23979">
        <ele>534.9</ele>
        <time>2022-07-21T09:29:53Z</time>
      </trkpt>
      <trkpt lat="44.11422" lon="5.23981">
        <ele>534.5</ele>
        <time>2022-07-21T09:29:54Z</time>
      </trkpt>
      <trkpt lat="44.1143" lon="5.2399">
        <ele>534.2</ele>
        <time>2022-07-21T09:29:55Z</time>
      </trkpt>
      <trkpt lat="44.11438" lon="5.23995">
        <ele>534</ele>
        <time>2022-07-21T09:29:56Z</time>
      </trkpt>
      <trkpt lat="44.11446" lon="5.24001">
        <ele>533.7</ele>
        <time>2022-07-21T09:29:57Z</time>
      </trkpt>
      <trkpt lat="44.11453" lon="5.24007">
        <ele>533.4</ele>
        <time>2022-07-21T09:29:58Z</time>
      </trkpt>
      <trkpt lat="44.11461" lon="5.24014">
        <ele>533.1</ele>
        <time>2022-07-21T09:29:59Z</time>
      </trkpt>
      <trkpt lat="44.11468" lon="5.2402">
        <ele>532.7</ele>
        <time>2022-07-21T09:30:00Z</time>
      </trkpt>
      <trkpt lat="44.11475" lon="5.24025">
        <ele>532.4</ele>
        <time>2022-07-21T09:30:01Z</time>
      </trkpt>
      <trkpt lat="44.11483" lon="5.2403">
        <ele>532</ele>
        <time>2022-07-21T09:30:02Z</time>
      </trkpt>
      <trkpt lat="44.11492" lon="5.24031">
        <ele>531.5</ele>
        <time>2022-07-21T09:30:03Z</time>
      </trkpt>
      <trkpt lat="44.11501" lon="5.24033">
        <ele>531.1</ele>
        <time>2022-07-21T09:30:04Z</time>
      </trkpt>
      <trkpt lat="44.11511" lon="5.24032">
        <ele>530.7</ele>
        <time>2022-07-21T09:30:05Z</time>
      </trkpt>
      <trkpt lat="44.11521" lon="5.24032">
        <ele>530.4</ele>
        <time>2022-07-21T09:30:06Z</time>
      </trkpt>
      <trkpt lat="44.11533" lon="5.24032">
        <ele>530.1</ele>
        <time>2022-07-21T09:30:07Z</time>
      </trkpt>
      <trkpt lat="44.11542" lon="5.24032">
        <ele>530</ele>
        <time>2022-07-21T09:30:08Z</time>
      </trkpt>
      <trkpt lat="44.11551" lon="5.2403">
        <ele>530</ele>
        <time>2022-07-21T09:30:09Z</time>
      </trkpt>
      <trkpt lat="44.11561" lon="5.24028">
        <ele>530</ele>
        <time>2022-07-21T09:30:10Z</time>
      </trkpt>
      <trkpt lat="44.1157" lon="5.24024">
        <ele>530</ele>
        <time>2022-07-21T09:30:11Z</time>
      </trkpt>
      <trkpt lat="44.11578" lon="5.24019">
        <ele>530.1</ele>
        <time>2022-07-21T09:30:12Z</time>
      </trkpt>
      <trkpt lat="44.11586" lon="5.24013">
        <ele>530.1</ele>
        <time>2022-07-21T09:30:13Z</time>
      </trkpt>
      <trkpt lat="44.11593" lon="5.24007">
        <ele>530</ele>
        <time>2022-07-21T09:30:14Z</time>
      </trkpt>
      <trkpt lat="44.116" lon="5.24">
        <ele>530</ele>
        <time>2022-07-21T09:30:15Z</time>
      </trkpt>
      <trkpt lat="44.11607" lon="5.23993">
        <ele>529.9</ele>
        <time>2022-07-21T09:30:16Z</time>
      </trkpt>
      <trkpt lat="44.11612" lon="5.23985">
        <ele>529.9</ele>
        <time>2022-07-21T09:30:17Z</time>
      </trkpt>
      <trkpt lat="44.11618" lon="5.23977">
        <ele>529.9</ele>
        <time>2022-07-21T09:30:18Z</time>
      </trkpt>
      <trkpt lat="44.11624" lon="5.2397">
        <ele>529.9</ele>
        <time>2022-07-21T09:30:19Z</time>
      </trkpt>
      <trkpt lat="44.1163" lon="5.23963">
        <ele>529.8</ele>
        <time>2022-07-21T09:30:20Z</time>
      </trkpt>
      <trkpt lat="44.11636" lon="5.23957">
        <ele>529.8</ele>
        <time>2022-07-21T09:30:21Z</time>
      </trkpt>
      <trkpt lat="44.11641" lon="5.23951">
        <ele>529.8</ele>
        <time>2022-07-21T09:30:22Z</time>
      </trkpt>
      <trkpt lat="44.11646" lon="5.23944">
        <ele>529.8</ele>
        <time>2022-07-21T09:30:23Z</time>
      </trkpt>
      <trkpt lat="44.11652" lon="5.23937">
        <ele>529.7</ele>
        <time>2022-07-21T09:30:24Z</time>
      </trkpt>
      <trkpt lat="44.11657" lon="5.2393">
        <ele>529.7</ele>
        <time>2022-07-21T09:30:25Z</time>
      </trkpt>
      <trkpt lat="44.11663" lon="5.23923">
        <ele>529.7</ele>
        <time>2022-07-21T09:30:26Z</time>
      </trkpt>
      <trkpt lat="44.11669" lon="5.23917">
        <ele>529.7</ele>
        <time>2022-07-21T09:30:27Z</time>
      </trkpt>
      <trkpt lat="44.11674" lon="5.23911">
        <ele>529.7</ele>
        <time>2022-07-21T09:30:28Z</time>
      </trkpt>
      <trkpt lat="44.1168" lon="5.23904">
        <ele>529.6</ele>
        <time>2022-07-21T09:30:29Z</time>
      </trkpt>
      <trkpt lat="44.11686" lon="5.23896">
        <ele>529.5</ele>
        <time>2022-07-21T09:30:30Z</time>
      </trkpt>
      <trkpt lat="44.11691" lon="5.23889">
        <ele>529.4</ele>
        <time>2022-07-21T09:30:31Z</time>
      </trkpt>
      <trkpt lat="44.11696" lon="5.23882">
        <ele>529.3</ele>
        <time>2022-07-21T09:30:32Z</time>
      </trkpt>
      <trkpt lat="44.11701" lon="5.23875">
        <ele>529.1</ele>
        <time>2022-07-21T09:30:33Z</time>
      </trkpt>
      <trkpt lat="44.11706" lon="5.23869">
        <ele>528.8</ele>
        <time>2022-07-21T09:30:34Z</time>
      </trkpt>
      <trkpt lat="44.11711" lon="5.23863">
        <ele>528.6</ele>
        <time>2022-07-21T09:30:35Z</time>
      </trkpt>
      <trkpt lat="44.11716" lon="5.23857">
        <ele>528.3</ele>
        <time>2022-07-21T09:30:36Z</time>
      </trkpt>
      <trkpt lat="44.11721" lon="5.23848">
        <ele>527.9</ele>
        <time>2022-07-21T09:30:37Z</time>
      </trkpt>
      <trkpt lat="44.11726" lon="5.2384">
        <ele>527.5</ele>
        <time>2022-07-21T09:30:38Z</time>
      </trkpt>
      <trkpt lat="44.11729" lon="5.2383">
        <ele>527.1</ele>
        <time>2022-07-21T09:30:39Z</time>
      </trkpt>
      <trkpt lat="44.11733" lon="5.23821">
        <ele>526.7</ele>
        <time>2022-07-21T09:30:40Z</time>
      </trkpt>
      <trkpt lat="44.11735" lon="5.23811">
        <ele>526.3</ele>
        <time>2022-07-21T09:30:41Z</time>
      </trkpt>
      <trkpt lat="44.11738" lon="5.238">
        <ele>525.8</ele>
        <time>2022-07-21T09:30:42Z</time>
      </trkpt>
      <trkpt lat="44.11739" lon="5.23788">
        <ele>525.4</ele>
        <time>2022-07-21T09:30:43Z</time>
      </trkpt>
      <trkpt lat="44.11742" lon="5.23777">
        <ele>525</ele>
        <time>2022-07-21T09:30:44Z</time>
      </trkpt>
      <trkpt lat="44.11744" lon="5.23766">
        <ele>524.7</ele>
        <time>2022-07-21T09:30:45Z</time>
      </trkpt>
      <trkpt lat="44.11746" lon="5.23754">
        <ele>524.3</ele>
        <time>2022-07-21T09:30:46Z</time>
      </trkpt>
      <trkpt lat="44.11748" lon="5.23742">
        <ele>523.9</ele>
        <time>2022-07-21T09:30:47Z</time>
      </trkpt>
      <trkpt lat="44.11749" lon="5.2373">
        <ele>523.6</ele>
        <time>2022-07-21T09:30:48Z</time>
      </trkpt>
      <trkpt lat="44.11751" lon="5.23719">
        <ele>523.2</ele>
        <time>2022-07-21T09:30:49Z</time>
      </trkpt>
      <trkpt lat="44.11753" lon="5.23707">
        <ele>522.9</ele>
        <time>2022-07-21T09:30:50Z</time>
      </trkpt>
      <trkpt lat="44.11755" lon="5.23694">
        <ele>522.7</ele>
        <time>2022-07-21T09:30:51Z</time>
      </trkpt>
      <trkpt lat="44.11756" lon="5.23683">
        <ele>522.5</ele>
        <time>2022-07-21T09:30:52Z</time>
      </trkpt>
      <trkpt lat="44.11757" lon="5.2367">
        <ele>522.2</ele>
        <time>2022-07-21T09:30:53Z</time>
      </trkpt>
      <trkpt lat="44.11757" lon="5.23658">
        <ele>522</ele>
        <time>2022-07-21T09:30:54Z</time>
      </trkpt>
      <trkpt lat="44.11757" lon="5.23646">
        <ele>521.7</ele>
        <time>2022-07-21T09:30:55Z</time>
      </trkpt>
      <trkpt lat="44.11755" lon="5.23633">
        <ele>521.4</ele>
        <time>2022-07-21T09:30:56Z</time>
      </trkpt>
      <trkpt lat="44.11754" lon="5.23621">
        <ele>521.1</ele>
        <time>2022-07-21T09:30:57Z</time>
      </trkpt>
      <trkpt lat="44.11752" lon="5.23609">
        <ele>520.8</ele>
        <time>2022-07-21T09:30:58Z</time>
      </trkpt>
      <trkpt lat="44.11751" lon="5.23597">
        <ele>520.6</ele>
        <time>2022-07-21T09:30:59Z</time>
      </trkpt>
      <trkpt lat="44.1175" lon="5.23585">
        <ele>520.3</ele>
        <time>2022-07-21T09:31:00Z</time>
      </trkpt>
      <trkpt lat="44.11748" lon="5.23573">
        <ele>520</ele>
        <time>2022-07-21T09:31:01Z</time>
      </trkpt>
      <trkpt lat="44.11747" lon="5.23562">
        <ele>519.8</ele>
        <time>2022-07-21T09:31:02Z</time>
      </trkpt>
      <trkpt lat="44.11746" lon="5.2355">
        <ele>519.5</ele>
        <time>2022-07-21T09:31:03Z</time>
      </trkpt>
      <trkpt lat="44.11748" lon="5.23539">
        <ele>519.2</ele>
        <time>2022-07-21T09:31:04Z</time>
      </trkpt>
      <trkpt lat="44.1175" lon="5.23528">
        <ele>518.9</ele>
        <time>2022-07-21T09:31:05Z</time>
      </trkpt>
      <trkpt lat="44.11754" lon="5.23518">
        <ele>518.6</ele>
        <time>2022-07-21T09:31:06Z</time>
      </trkpt>
      <trkpt lat="44.11759" lon="5.23509">
        <ele>518.2</ele>
        <time>2022-07-21T09:31:07Z</time>
      </trkpt>
      <trkpt lat="44.11765" lon="5.23502">
        <ele>517.9</ele>
        <time>2022-07-21T09:31:08Z</time>
      </trkpt>
      <trkpt lat="44.11771" lon="5.23495">
        <ele>517.6</ele>
        <time>2022-07-21T09:31:09Z</time>
      </trkpt>
      <trkpt lat="44.11776" lon="5.23487">
        <ele>517.3</ele>
        <time>2022-07-21T09:31:10Z</time>
      </trkpt>
      <trkpt lat="44.1178" lon="5.23477">
        <ele>517</ele>
        <time>2022-07-21T09:31:11Z</time>
      </trkpt>
      <trkpt lat="44.11784" lon="5.23468">
        <ele>516.8</ele>
        <time>2022-07-21T09:31:12Z</time>
      </trkpt>
      <trkpt lat="44.11787" lon="5.2346">
        <ele>516.5</ele>
        <time>2022-07-21T09:31:13Z</time>
      </trkpt>
      <trkpt lat="44.11789" lon="5.2345">
        <ele>516.3</ele>
        <time>2022-07-21T09:31:14Z</time>
      </trkpt>
      <trkpt lat="44.11792" lon="5.23438">
        <ele>515.9</ele>
        <time>2022-07-21T09:31:15Z</time>
      </trkpt>
      <trkpt lat="44.11796" lon="5.23428">
        <ele>515.6</ele>
        <time>2022-07-21T09:31:16Z</time>
      </trkpt>
      <trkpt lat="44.118" lon="5.23417">
        <ele>515.2</ele>
        <time>2022-07-21T09:31:17Z</time>
      </trkpt>
      <trkpt lat="44.11804" lon="5.23405">
        <ele>514.7</ele>
        <time>2022-07-21T09:31:18Z</time>
      </trkpt>
      <trkpt lat="44.11809" lon="5.23394">
        <ele>514.2</ele>
        <time>2022-07-21T09:31:19Z</time>
      </trkpt>
      <trkpt lat="44.11814" lon="5.23383">
        <ele>513.6</ele>
        <time>2022-07-21T09:31:20Z</time>
      </trkpt>
      <trkpt lat="44.11821" lon="5.23373">
        <ele>513</ele>
        <time>2022-07-21T09:31:21Z</time>
      </trkpt>
      <trkpt lat="44.11828" lon="5.23364">
        <ele>512.4</ele>
        <time>2022-07-21T09:31:22Z</time>
      </trkpt>
      <trkpt lat="44.11835" lon="5.23354">
        <ele>511.8</ele>
        <time>2022-07-21T09:31:23Z</time>
      </trkpt>
      <trkpt lat="44.11842" lon="5.23344">
        <ele>511.2</ele>
        <time>2022-07-21T09:31:24Z</time>
      </trkpt>
      <trkpt lat="44.11849" lon="5.23333">
        <ele>510.6</ele>
        <time>2022-07-21T09:31:25Z</time>
      </trkpt>
      <trkpt lat="44.11857" lon="5.23322">
        <ele>510</ele>
        <time>2022-07-21T09:31:26Z</time>
      </trkpt>
      <trkpt lat="44.11864" lon="5.23312">
        <ele>509.5</ele>
        <time>2022-07-21T09:31:27Z</time>
      </trkpt>
      <trkpt lat="44.11872" lon="5.23302">
        <ele>508.9</ele>
        <time>2022-07-21T09:31:28Z</time>
      </trkpt>
      <trkpt lat="44.11879" lon="5.23291">
        <ele>508.3</ele>
        <time>2022-07-21T09:31:29Z</time>
      </trkpt>
      <trkpt lat="44.11886" lon="5.2328">
        <ele>507.7</ele>
        <time>2022-07-21T09:31:30Z</time>
      </trkpt>
      <trkpt lat="44.11893" lon="5.23271">
        <ele>507.1</ele>
        <time>2022-07-21T09:31:31Z</time>
      </trkpt>
      <trkpt lat="44.11901" lon="5.2326">
        <ele>506.4</ele>
        <time>2022-07-21T09:31:32Z</time>
      </trkpt>
      <trkpt lat="44.11908" lon="5.23248">
        <ele>505.7</ele>
        <time>2022-07-21T09:31:33Z</time>
      </trkpt>
      <trkpt lat="44.11916" lon="5.23239">
        <ele>505</ele>
        <time>2022-07-21T09:31:34Z</time>
      </trkpt>
      <trkpt lat="44.11923" lon="5.23228">
        <ele>504.3</ele>
        <time>2022-07-21T09:31:35Z</time>
      </trkpt>
      <trkpt lat="44.11932" lon="5.23217">
        <ele>503.5</ele>
        <time>2022-07-21T09:31:36Z</time>
      </trkpt>
      <trkpt lat="44.1194" lon="5.23206">
        <ele>502.8</ele>
        <time>2022-07-21T09:31:37Z</time>
      </trkpt>
      <trkpt lat="44.11949" lon="5.23195">
        <ele>502</ele>
        <time>2022-07-21T09:31:38Z</time>
      </trkpt>
      <trkpt lat="44.11957" lon="5.23183">
        <ele>501.2</ele>
        <time>2022-07-21T09:31:39Z</time>
      </trkpt>
      <trkpt lat="44.11965" lon="5.23171">
        <ele>500.4</ele>
        <time>2022-07-21T09:31:40Z</time>
      </trkpt>
      <trkpt lat="44.11974" lon="5.2316">
        <ele>499.6</ele>
        <time>2022-07-21T09:31:41Z</time>
      </trkpt>
      <trkpt lat="44.11983" lon="5.23149">
        <ele>498.8</ele>
        <time>2022-07-21T09:31:42Z</time>
      </trkpt>
      <trkpt lat="44.11991" lon="5.23137">
        <ele>498.1</ele>
        <time>2022-07-21T09:31:43Z</time>
      </trkpt>
      <trkpt lat="44.12" lon="5.23126">
        <ele>497.3</ele>
        <time>2022-07-21T09:31:44Z</time>
      </trkpt>
      <trkpt lat="44.12009" lon="5.23113">
        <ele>496.5</ele>
        <time>2022-07-21T09:31:45Z</time>
      </trkpt>
      <trkpt lat="44.12017" lon="5.23101">
        <ele>495.6</ele>
        <time>2022-07-21T09:31:46Z</time>
      </trkpt>
      <trkpt lat="44.12025" lon="5.23089">
        <ele>494.7</ele>
        <time>2022-07-21T09:31:47Z</time>
      </trkpt>
      <trkpt lat="44.12034" lon="5.23078">
        <ele>493.9</ele>
        <time>2022-07-21T09:31:48Z</time>
      </trkpt>
      <trkpt lat="44.12041" lon="5.23066">
        <ele>493.1</ele>
        <time>2022-07-21T09:31:49Z</time>
      </trkpt>
      <trkpt lat="44.12047" lon="5.23053">
        <ele>492.3</ele>
        <time>2022-07-21T09:31:50Z</time>
      </trkpt>
      <trkpt lat="44.12051" lon="5.23037">
        <ele>491.5</ele>
        <time>2022-07-21T09:31:51Z</time>
      </trkpt>
      <trkpt lat="44.12052" lon="5.23021">
        <ele>490.7</ele>
        <time>2022-07-21T09:31:52Z</time>
      </trkpt>
      <trkpt lat="44.12052" lon="5.23004">
        <ele>489.9</ele>
        <time>2022-07-21T09:31:53Z</time>
      </trkpt>
      <trkpt lat="44.12051" lon="5.22986">
        <ele>489</ele>
        <time>2022-07-21T09:31:54Z</time>
      </trkpt>
      <trkpt lat="44.12049" lon="5.22969">
        <ele>488.1</ele>
        <time>2022-07-21T09:31:55Z</time>
      </trkpt>
      <trkpt lat="44.12046" lon="5.22953">
        <ele>487.1</ele>
        <time>2022-07-21T09:31:56Z</time>
      </trkpt>
      <trkpt lat="44.12044" lon="5.22935">
        <ele>486.1</ele>
        <time>2022-07-21T09:31:57Z</time>
      </trkpt>
      <trkpt lat="44.12042" lon="5.22919">
        <ele>485.2</ele>
        <time>2022-07-21T09:31:58Z</time>
      </trkpt>
      <trkpt lat="44.1204" lon="5.22903">
        <ele>484.2</ele>
        <time>2022-07-21T09:31:59Z</time>
      </trkpt>
      <trkpt lat="44.12038" lon="5.22888">
        <ele>483.4</ele>
        <time>2022-07-21T09:32:00Z</time>
      </trkpt>
      <trkpt lat="44.12036" lon="5.22874">
        <ele>482.5</ele>
        <time>2022-07-21T09:32:01Z</time>
      </trkpt>
      <trkpt lat="44.12034" lon="5.22859">
        <ele>481.7</ele>
        <time>2022-07-21T09:32:02Z</time>
      </trkpt>
      <trkpt lat="44.12032" lon="5.22844">
        <ele>480.9</ele>
        <time>2022-07-21T09:32:03Z</time>
      </trkpt>
      <trkpt lat="44.1203" lon="5.22829">
        <ele>480</ele>
        <time>2022-07-21T09:32:04Z</time>
      </trkpt>
      <trkpt lat="44.12027" lon="5.22813">
        <ele>479.1</ele>
        <time>2022-07-21T09:32:05Z</time>
      </trkpt>
      <trkpt lat="44.12025" lon="5.22796">
        <ele>478.2</ele>
        <time>2022-07-21T09:32:06Z</time>
      </trkpt>
      <trkpt lat="44.12026" lon="5.22781">
        <ele>477.4</ele>
        <time>2022-07-21T09:32:07Z</time>
      </trkpt>
      <trkpt lat="44.12024" lon="5.22765">
        <ele>476.5</ele>
        <time>2022-07-21T09:32:08Z</time>
      </trkpt>
      <trkpt lat="44.12023" lon="5.22748">
        <ele>475.5</ele>
        <time>2022-07-21T09:32:09Z</time>
      </trkpt>
      <trkpt lat="44.12024" lon="5.22731">
        <ele>474.6</ele>
        <time>2022-07-21T09:32:10Z</time>
      </trkpt>
      <trkpt lat="44.12025" lon="5.22714">
        <ele>473.7</ele>
        <time>2022-07-21T09:32:11Z</time>
      </trkpt>
      <trkpt lat="44.12027" lon="5.22696">
        <ele>472.7</ele>
        <time>2022-07-21T09:32:12Z</time>
      </trkpt>
      <trkpt lat="44.12029" lon="5.22679">
        <ele>471.9</ele>
        <time>2022-07-21T09:32:13Z</time>
      </trkpt>
      <trkpt lat="44.1203" lon="5.22662">
        <ele>471.1</ele>
        <time>2022-07-21T09:32:14Z</time>
      </trkpt>
      <trkpt lat="44.12032" lon="5.22645">
        <ele>470.3</ele>
        <time>2022-07-21T09:32:15Z</time>
      </trkpt>
      <trkpt lat="44.12034" lon="5.22628">
        <ele>469.6</ele>
        <time>2022-07-21T09:32:16Z</time>
      </trkpt>
      <trkpt lat="44.12035" lon="5.22612">
        <ele>468.9</ele>
        <time>2022-07-21T09:32:17Z</time>
      </trkpt>
      <trkpt lat="44.12037" lon="5.22597">
        <ele>468.2</ele>
        <time>2022-07-21T09:32:18Z</time>
      </trkpt>
      <trkpt lat="44.12039" lon="5.22581">
        <ele>467.6</ele>
        <time>2022-07-21T09:32:19Z</time>
      </trkpt>
      <trkpt lat="44.12042" lon="5.22566">
        <ele>466.9</ele>
        <time>2022-07-21T09:32:20Z</time>
      </trkpt>
      <trkpt lat="44.12044" lon="5.22551">
        <ele>466.3</ele>
        <time>2022-07-21T09:32:21Z</time>
      </trkpt>
      <trkpt lat="44.12047" lon="5.22536">
        <ele>465.7</ele>
        <time>2022-07-21T09:32:22Z</time>
      </trkpt>
      <trkpt lat="44.12049" lon="5.22521">
        <ele>465.2</ele>
        <time>2022-07-21T09:32:23Z</time>
      </trkpt>
      <trkpt lat="44.12051" lon="5.22506">
        <ele>464.7</ele>
        <time>2022-07-21T09:32:24Z</time>
      </trkpt>
      <trkpt lat="44.12052" lon="5.22491">
        <ele>464.3</ele>
        <time>2022-07-21T09:32:25Z</time>
      </trkpt>
      <trkpt lat="44.12054" lon="5.22476">
        <ele>463.8</ele>
        <time>2022-07-21T09:32:26Z</time>
      </trkpt>
      <trkpt lat="44.12055" lon="5.22461">
        <ele>463.1</ele>
        <time>2022-07-21T09:32:27Z</time>
      </trkpt>
      <trkpt lat="44.12056" lon="5.22445">
        <ele>462.4</ele>
        <time>2022-07-21T09:32:28Z</time>
      </trkpt>
      <trkpt lat="44.12055" lon="5.22429">
        <ele>461.6</ele>
        <time>2022-07-21T09:32:29Z</time>
      </trkpt>
      <trkpt lat="44.12053" lon="5.22415">
        <ele>460.9</ele>
        <time>2022-07-21T09:32:30Z</time>
      </trkpt>
      <trkpt lat="44.12051" lon="5.22401">
        <ele>460.3</ele>
        <time>2022-07-21T09:32:31Z</time>
      </trkpt>
      <trkpt lat="44.12048" lon="5.22386">
        <ele>459.7</ele>
        <time>2022-07-21T09:32:32Z</time>
      </trkpt>
      <trkpt lat="44.12045" lon="5.22373">
        <ele>459.1</ele>
        <time>2022-07-21T09:32:33Z</time>
      </trkpt>
      <trkpt lat="44.12044" lon="5.22359">
        <ele>458.5</ele>
        <time>2022-07-21T09:32:34Z</time>
      </trkpt>
      <trkpt lat="44.12042" lon="5.22346">
        <ele>457.9</ele>
        <time>2022-07-21T09:32:35Z</time>
      </trkpt>
      <trkpt lat="44.1204" lon="5.22333">
        <ele>457.5</ele>
        <time>2022-07-21T09:32:36Z</time>
      </trkpt>
      <trkpt lat="44.12038" lon="5.2232">
        <ele>457.2</ele>
        <time>2022-07-21T09:32:37Z</time>
      </trkpt>
      <trkpt lat="44.12037" lon="5.22306">
        <ele>456.6</ele>
        <time>2022-07-21T09:32:38Z</time>
      </trkpt>
      <trkpt lat="44.12035" lon="5.22293">
        <ele>456</ele>
        <time>2022-07-21T09:32:39Z</time>
      </trkpt>
      <trkpt lat="44.12033" lon="5.2228">
        <ele>455.5</ele>
        <time>2022-07-21T09:32:40Z</time>
      </trkpt>
      <trkpt lat="44.12033" lon="5.22268">
        <ele>454.9</ele>
        <time>2022-07-21T09:32:41Z</time>
      </trkpt>
      <trkpt lat="44.12034" lon="5.22256">
        <ele>454.5</ele>
        <time>2022-07-21T09:32:42Z</time>
      </trkpt>
      <trkpt lat="44.12034" lon="5.22244">
        <ele>453.9</ele>
        <time>2022-07-21T09:32:43Z</time>
      </trkpt>
      <trkpt lat="44.12037" lon="5.22231">
        <ele>453.4</ele>
        <time>2022-07-21T09:32:44Z</time>
      </trkpt>
      <trkpt lat="44.1204" lon="5.22219">
        <ele>452.9</ele>
        <time>2022-07-21T09:32:45Z</time>
      </trkpt>
      <trkpt lat="44.12043" lon="5.22207">
        <ele>452.4</ele>
        <time>2022-07-21T09:32:46Z</time>
      </trkpt>
      <trkpt lat="44.12046" lon="5.22194">
        <ele>451.9</ele>
        <time>2022-07-21T09:32:47Z</time>
      </trkpt>
      <trkpt lat="44.12049" lon="5.22182">
        <ele>451.5</ele>
        <time>2022-07-21T09:32:48Z</time>
      </trkpt>
      <trkpt lat="44.12051" lon="5.2217">
        <ele>451.2</ele>
        <time>2022-07-21T09:32:49Z</time>
      </trkpt>
      <trkpt lat="44.12054" lon="5.22159">
        <ele>451</ele>
        <time>2022-07-21T09:32:50Z</time>
      </trkpt>
      <trkpt lat="44.12058" lon="5.22148">
        <ele>450.8</ele>
        <time>2022-07-21T09:32:51Z</time>
      </trkpt>
      <trkpt lat="44.12062" lon="5.22137">
        <ele>450.5</ele>
        <time>2022-07-21T09:32:52Z</time>
      </trkpt>
      <trkpt lat="44.12065" lon="5.22126">
        <ele>450.2</ele>
        <time>2022-07-21T09:32:53Z</time>
      </trkpt>
      <trkpt lat="44.12069" lon="5.22115">
        <ele>449.8</ele>
        <time>2022-07-21T09:32:54Z</time>
      </trkpt>
      <trkpt lat="44.12072" lon="5.22104">
        <ele>449.3</ele>
        <time>2022-07-21T09:32:55Z</time>
      </trkpt>
      <trkpt lat="44.12076" lon="5.22093">
        <ele>448.8</ele>
        <time>2022-07-21T09:32:56Z</time>
      </trkpt>
      <trkpt lat="44.12081" lon="5.22082">
        <ele>448.3</ele>
        <time>2022-07-21T09:32:57Z</time>
      </trkpt>
      <trkpt lat="44.12085" lon="5.2207">
        <ele>447.8</ele>
        <time>2022-07-21T09:32:58Z</time>
      </trkpt>
      <trkpt lat="44.1209" lon="5.22058">
        <ele>447.2</ele>
        <time>2022-07-21T09:32:59Z</time>
      </trkpt>
      <trkpt lat="44.12095" lon="5.22046">
        <ele>446.6</ele>
        <time>2022-07-21T09:33:00Z</time>
      </trkpt>
      <trkpt lat="44.12099" lon="5.22034">
        <ele>446</ele>
        <time>2022-07-21T09:33:01Z</time>
      </trkpt>
      <trkpt lat="44.12104" lon="5.22021">
        <ele>445.4</ele>
        <time>2022-07-21T09:33:02Z</time>
      </trkpt>
      <trkpt lat="44.12109" lon="5.22009">
        <ele>444.8</ele>
        <time>2022-07-21T09:33:03Z</time>
      </trkpt>
      <trkpt lat="44.12114" lon="5.21997">
        <ele>444.2</ele>
        <time>2022-07-21T09:33:04Z</time>
      </trkpt>
      <trkpt lat="44.12118" lon="5.21985">
        <ele>443.5</ele>
        <time>2022-07-21T09:33:05Z</time>
      </trkpt>
      <trkpt lat="44.12123" lon="5.21972">
        <ele>442.8</ele>
        <time>2022-07-21T09:33:06Z</time>
      </trkpt>
      <trkpt lat="44.12128" lon="5.21958">
        <ele>441.9</ele>
        <time>2022-07-21T09:33:07Z</time>
      </trkpt>
      <trkpt lat="44.12133" lon="5.21944">
        <ele>441.1</ele>
        <time>2022-07-21T09:33:08Z</time>
      </trkpt>
      <trkpt lat="44.12137" lon="5.2193">
        <ele>440.2</ele>
        <time>2022-07-21T09:33:09Z</time>
      </trkpt>
      <trkpt lat="44.12143" lon="5.21916">
        <ele>439.3</ele>
        <time>2022-07-21T09:33:10Z</time>
      </trkpt>
      <trkpt lat="44.12148" lon="5.21902">
        <ele>438.4</ele>
        <time>2022-07-21T09:33:11Z</time>
      </trkpt>
      <trkpt lat="44.12151" lon="5.21886">
        <ele>437.5</ele>
        <time>2022-07-21T09:33:12Z</time>
      </trkpt>
      <trkpt lat="44.12156" lon="5.2187">
        <ele>436.6</ele>
        <time>2022-07-21T09:33:13Z</time>
      </trkpt>
      <trkpt lat="44.12159" lon="5.21853">
        <ele>435.6</ele>
        <time>2022-07-21T09:33:14Z</time>
      </trkpt>
      <trkpt lat="44.12163" lon="5.21837">
        <ele>434.7</ele>
        <time>2022-07-21T09:33:15Z</time>
      </trkpt>
      <trkpt lat="44.12167" lon="5.21819">
        <ele>433.8</ele>
        <time>2022-07-21T09:33:16Z</time>
      </trkpt>
      <trkpt lat="44.12172" lon="5.21803">
        <ele>432.8</ele>
        <time>2022-07-21T09:33:17Z</time>
      </trkpt>
      <trkpt lat="44.12177" lon="5.21786">
        <ele>431.9</ele>
        <time>2022-07-21T09:33:18Z</time>
      </trkpt>
      <trkpt lat="44.12182" lon="5.21772">
        <ele>431.1</ele>
        <time>2022-07-21T09:33:19Z</time>
      </trkpt>
      <trkpt lat="44.12186" lon="5.21755">
        <ele>430.2</ele>
        <time>2022-07-21T09:33:20Z</time>
      </trkpt>
      <trkpt lat="44.1219" lon="5.21739">
        <ele>429.3</ele>
        <time>2022-07-21T09:33:21Z</time>
      </trkpt>
      <trkpt lat="44.12195" lon="5.21726">
        <ele>428.4</ele>
        <time>2022-07-21T09:33:22Z</time>
      </trkpt>
      <trkpt lat="44.12199" lon="5.2171">
        <ele>427.5</ele>
        <time>2022-07-21T09:33:23Z</time>
      </trkpt>
      <trkpt lat="44.12203" lon="5.21695">
        <ele>426.6</ele>
        <time>2022-07-21T09:33:24Z</time>
      </trkpt>
      <trkpt lat="44.12209" lon="5.21679">
        <ele>425.6</ele>
        <time>2022-07-21T09:33:25Z</time>
      </trkpt>
      <trkpt lat="44.12214" lon="5.21661">
        <ele>424.5</ele>
        <time>2022-07-21T09:33:26Z</time>
      </trkpt>
      <trkpt lat="44.12218" lon="5.21645">
        <ele>423.7</ele>
        <time>2022-07-21T09:33:27Z</time>
      </trkpt>
      <trkpt lat="44.12222" lon="5.21629">
        <ele>422.8</ele>
        <time>2022-07-21T09:33:28Z</time>
      </trkpt>
      <trkpt lat="44.12223" lon="5.21612">
        <ele>421.9</ele>
        <time>2022-07-21T09:33:29Z</time>
      </trkpt>
      <trkpt lat="44.12223" lon="5.21593">
        <ele>421</ele>
        <time>2022-07-21T09:33:30Z</time>
      </trkpt>
      <trkpt lat="44.12221" lon="5.21576">
        <ele>420.1</ele>
        <time>2022-07-21T09:33:31Z</time>
      </trkpt>
      <trkpt lat="44.12217" lon="5.2156">
        <ele>419.3</ele>
        <time>2022-07-21T09:33:32Z</time>
      </trkpt>
      <trkpt lat="44.12213" lon="5.21544">
        <ele>418.5</ele>
        <time>2022-07-21T09:33:33Z</time>
      </trkpt>
      <trkpt lat="44.12208" lon="5.21527">
        <ele>417.6</ele>
        <time>2022-07-21T09:33:34Z</time>
      </trkpt>
      <trkpt lat="44.12203" lon="5.2151">
        <ele>416.8</ele>
        <time>2022-07-21T09:33:35Z</time>
      </trkpt>
      <trkpt lat="44.12198" lon="5.21494">
        <ele>416</ele>
        <time>2022-07-21T09:33:36Z</time>
      </trkpt>
      <trkpt lat="44.12192" lon="5.21477">
        <ele>415.1</ele>
        <time>2022-07-21T09:33:37Z</time>
      </trkpt>
      <trkpt lat="44.12187" lon="5.21461">
        <ele>414.3</ele>
        <time>2022-07-21T09:33:38Z</time>
      </trkpt>
      <trkpt lat="44.1218" lon="5.21446">
        <ele>413.5</ele>
        <time>2022-07-21T09:33:39Z</time>
      </trkpt>
      <trkpt lat="44.12173" lon="5.21431">
        <ele>412.7</ele>
        <time>2022-07-21T09:33:40Z</time>
      </trkpt>
      <trkpt lat="44.12165" lon="5.21418">
        <ele>411.9</ele>
        <time>2022-07-21T09:33:41Z</time>
      </trkpt>
      <trkpt lat="44.12157" lon="5.21403">
        <ele>411.1</ele>
        <time>2022-07-21T09:33:42Z</time>
      </trkpt>
      <trkpt lat="44.1215" lon="5.2139">
        <ele>410.4</ele>
        <time>2022-07-21T09:33:43Z</time>
      </trkpt>
      <trkpt lat="44.12144" lon="5.21377">
        <ele>409.7</ele>
        <time>2022-07-21T09:33:44Z</time>
      </trkpt>
      <trkpt lat="44.12138" lon="5.21364">
        <ele>409</ele>
        <time>2022-07-21T09:33:45Z</time>
      </trkpt>
      <trkpt lat="44.12132" lon="5.21352">
        <ele>408.4</ele>
        <time>2022-07-21T09:33:46Z</time>
      </trkpt>
      <trkpt lat="44.12125" lon="5.2134">
        <ele>407.8</ele>
        <time>2022-07-21T09:33:47Z</time>
      </trkpt>
      <trkpt lat="44.12118" lon="5.21328">
        <ele>407.3</ele>
        <time>2022-07-21T09:33:48Z</time>
      </trkpt>
      <trkpt lat="44.12112" lon="5.21316">
        <ele>406.7</ele>
        <time>2022-07-21T09:33:49Z</time>
      </trkpt>
      <trkpt lat="44.12105" lon="5.21304">
        <ele>406.2</ele>
        <time>2022-07-21T09:33:50Z</time>
      </trkpt>
      <trkpt lat="44.12099" lon="5.2129">
        <ele>405.7</ele>
        <time>2022-07-21T09:33:51Z</time>
      </trkpt>
      <trkpt lat="44.12093" lon="5.21278">
        <ele>405.2</ele>
        <time>2022-07-21T09:33:52Z</time>
      </trkpt>
      <trkpt lat="44.12086" lon="5.21265">
        <ele>404.7</ele>
        <time>2022-07-21T09:33:53Z</time>
      </trkpt>
      <trkpt lat="44.12079" lon="5.21253">
        <ele>404.2</ele>
        <time>2022-07-21T09:33:54Z</time>
      </trkpt>
      <trkpt lat="44.12072" lon="5.2124">
        <ele>403.7</ele>
        <time>2022-07-21T09:33:55Z</time>
      </trkpt>
      <trkpt lat="44.12066" lon="5.21227">
        <ele>403.3</ele>
        <time>2022-07-21T09:33:56Z</time>
      </trkpt>
      <trkpt lat="44.1206" lon="5.21214">
        <ele>402.9</ele>
        <time>2022-07-21T09:33:57Z</time>
      </trkpt>
      <trkpt lat="44.12054" lon="5.21202">
        <ele>402.5</ele>
        <time>2022-07-21T09:33:58Z</time>
      </trkpt>
      <trkpt lat="44.12048" lon="5.2119">
        <ele>401.9</ele>
        <time>2022-07-21T09:33:59Z</time>
      </trkpt>
      <trkpt lat="44.12042" lon="5.21177">
        <ele>401.2</ele>
        <time>2022-07-21T09:34:00Z</time>
      </trkpt>
      <trkpt lat="44.12038" lon="5.21163">
        <ele>400.3</ele>
        <time>2022-07-21T09:34:01Z</time>
      </trkpt>
      <trkpt lat="44.12034" lon="5.21149">
        <ele>399.4</ele>
        <time>2022-07-21T09:34:02Z</time>
      </trkpt>
      <trkpt lat="44.12031" lon="5.21134">
        <ele>398.5</ele>
        <time>2022-07-21T09:34:03Z</time>
      </trkpt>
      <trkpt lat="44.12028" lon="5.21119">
        <ele>397.6</ele>
        <time>2022-07-21T09:34:04Z</time>
      </trkpt>
      <trkpt lat="44.12026" lon="5.21103">
        <ele>396.7</ele>
        <time>2022-07-21T09:34:05Z</time>
      </trkpt>
      <trkpt lat="44.12023" lon="5.21088">
        <ele>395.9</ele>
        <time>2022-07-21T09:34:06Z</time>
      </trkpt>
      <trkpt lat="44.1202" lon="5.21072">
        <ele>395.1</ele>
        <time>2022-07-21T09:34:07Z</time>
      </trkpt>
      <trkpt lat="44.12017" lon="5.21056">
        <ele>394.3</ele>
        <time>2022-07-21T09:34:08Z</time>
      </trkpt>
      <trkpt lat="44.12015" lon="5.21039">
        <ele>393.6</ele>
        <time>2022-07-21T09:34:09Z</time>
      </trkpt>
      <trkpt lat="44.12012" lon="5.21024">
        <ele>392.8</ele>
        <time>2022-07-21T09:34:10Z</time>
      </trkpt>
      <trkpt lat="44.12009" lon="5.21009">
        <ele>392.1</ele>
        <time>2022-07-21T09:34:11Z</time>
      </trkpt>
      <trkpt lat="44.12007" lon="5.20994">
        <ele>391.5</ele>
        <time>2022-07-21T09:34:12Z</time>
      </trkpt>
      <trkpt lat="44.12004" lon="5.20981">
        <ele>391</ele>
        <time>2022-07-21T09:34:13Z</time>
      </trkpt>
      <trkpt lat="44.12001" lon="5.20967">
        <ele>390.5</ele>
        <time>2022-07-21T09:34:14Z</time>
      </trkpt>
      <trkpt lat="44.11999" lon="5.20951">
        <ele>390</ele>
        <time>2022-07-21T09:34:15Z</time>
      </trkpt>
      <trkpt lat="44.11996" lon="5.20937">
        <ele>389.6</ele>
        <time>2022-07-21T09:34:16Z</time>
      </trkpt>
      <trkpt lat="44.11996" lon="5.20922">
        <ele>389.2</ele>
        <time>2022-07-21T09:34:17Z</time>
      </trkpt>
      <trkpt lat="44.11994" lon="5.20907">
        <ele>388.8</ele>
        <time>2022-07-21T09:34:18Z</time>
      </trkpt>
      <trkpt lat="44.11993" lon="5.20891">
        <ele>388.4</ele>
        <time>2022-07-21T09:34:19Z</time>
      </trkpt>
      <trkpt lat="44.11993" lon="5.20875">
        <ele>388</ele>
        <time>2022-07-21T09:34:20Z</time>
      </trkpt>
      <trkpt lat="44.11993" lon="5.2086">
        <ele>387.6</ele>
        <time>2022-07-21T09:34:21Z</time>
      </trkpt>
      <trkpt lat="44.11994" lon="5.20846">
        <ele>387.2</ele>
        <time>2022-07-21T09:34:22Z</time>
      </trkpt>
      <trkpt lat="44.11995" lon="5.20831">
        <ele>386.8</ele>
        <time>2022-07-21T09:34:23Z</time>
      </trkpt>
      <trkpt lat="44.11996" lon="5.20817">
        <ele>386.4</ele>
        <time>2022-07-21T09:34:24Z</time>
      </trkpt>
      <trkpt lat="44.11997" lon="5.20803">
        <ele>386</ele>
        <time>2022-07-21T09:34:25Z</time>
      </trkpt>
      <trkpt lat="44.11999" lon="5.20789">
        <ele>385.6</ele>
        <time>2022-07-21T09:34:26Z</time>
      </trkpt>
      <trkpt lat="44.12" lon="5.20775">
        <ele>385.3</ele>
        <time>2022-07-21T09:34:27Z</time>
      </trkpt>
      <trkpt lat="44.12002" lon="5.20761">
        <ele>384.9</ele>
        <time>2022-07-21T09:34:28Z</time>
      </trkpt>
      <trkpt lat="44.12003" lon="5.20747">
        <ele>384.6</ele>
        <time>2022-07-21T09:34:29Z</time>
      </trkpt>
      <trkpt lat="44.12004" lon="5.20733">
        <ele>384.2</ele>
        <time>2022-07-21T09:34:30Z</time>
      </trkpt>
      <trkpt lat="44.12006" lon="5.2072">
        <ele>383.8</ele>
        <time>2022-07-21T09:34:31Z</time>
      </trkpt>
      <trkpt lat="44.12008" lon="5.20706">
        <ele>383.4</ele>
        <time>2022-07-21T09:34:32Z</time>
      </trkpt>
      <trkpt lat="44.12009" lon="5.20692">
        <ele>383</ele>
        <time>2022-07-21T09:34:33Z</time>
      </trkpt>
      <trkpt lat="44.1201" lon="5.20679">
        <ele>382.6</ele>
        <time>2022-07-21T09:34:34Z</time>
      </trkpt>
      <trkpt lat="44.12011" lon="5.20666">
        <ele>382.3</ele>
        <time>2022-07-21T09:34:35Z</time>
      </trkpt>
      <trkpt lat="44.12013" lon="5.20653">
        <ele>381.9</ele>
        <time>2022-07-21T09:34:36Z</time>
      </trkpt>
      <trkpt lat="44.12014" lon="5.2064">
        <ele>381.4</ele>
        <time>2022-07-21T09:34:37Z</time>
      </trkpt>
      <trkpt lat="44.12015" lon="5.20627">
        <ele>381</ele>
        <time>2022-07-21T09:34:38Z</time>
      </trkpt>
      <trkpt lat="44.12016" lon="5.20615">
        <ele>380.6</ele>
        <time>2022-07-21T09:34:39Z</time>
      </trkpt>
      <trkpt lat="44.12017" lon="5.20602">
        <ele>380.2</ele>
        <time>2022-07-21T09:34:40Z</time>
      </trkpt>
      <trkpt lat="44.12018" lon="5.20589">
        <ele>379.7</ele>
        <time>2022-07-21T09:34:41Z</time>
      </trkpt>
      <trkpt lat="44.12019" lon="5.20577">
        <ele>379.3</ele>
        <time>2022-07-21T09:34:42Z</time>
      </trkpt>
      <trkpt lat="44.1202" lon="5.20564">
        <ele>378.9</ele>
        <time>2022-07-21T09:34:43Z</time>
      </trkpt>
      <trkpt lat="44.1202" lon="5.20552">
        <ele>378.7</ele>
        <time>2022-07-21T09:34:44Z</time>
      </trkpt>
      <trkpt lat="44.1202" lon="5.2054">
        <ele>378.4</ele>
        <time>2022-07-21T09:34:45Z</time>
      </trkpt>
      <trkpt lat="44.12021" lon="5.20528">
        <ele>378.2</ele>
        <time>2022-07-21T09:34:46Z</time>
      </trkpt>
      <trkpt lat="44.1202" lon="5.20515">
        <ele>377.9</ele>
        <time>2022-07-21T09:34:47Z</time>
      </trkpt>
      <trkpt lat="44.1202" lon="5.20503">
        <ele>377.6</ele>
        <time>2022-07-21T09:34:48Z</time>
      </trkpt>
      <trkpt lat="44.12018" lon="5.20491">
        <ele>377.3</ele>
        <time>2022-07-21T09:34:49Z</time>
      </trkpt>
      <trkpt lat="44.12017" lon="5.20478">
        <ele>377</ele>
        <time>2022-07-21T09:34:50Z</time>
      </trkpt>
      <trkpt lat="44.12016" lon="5.20466">
        <ele>376.6</ele>
        <time>2022-07-21T09:34:51Z</time>
      </trkpt>
      <trkpt lat="44.12015" lon="5.20453">
        <ele>376.3</ele>
        <time>2022-07-21T09:34:52Z</time>
      </trkpt>
      <trkpt lat="44.12014" lon="5.20441">
        <ele>376</ele>
        <time>2022-07-21T09:34:53Z</time>
      </trkpt>
      <trkpt lat="44.12012" lon="5.20428">
        <ele>375.6</ele>
        <time>2022-07-21T09:34:54Z</time>
      </trkpt>
      <trkpt lat="44.12011" lon="5.20415">
        <ele>375.3</ele>
        <time>2022-07-21T09:34:55Z</time>
      </trkpt>
      <trkpt lat="44.1201" lon="5.20402">
        <ele>375</ele>
        <time>2022-07-21T09:34:56Z</time>
      </trkpt>
      <trkpt lat="44.12009" lon="5.20389">
        <ele>374.6</ele>
        <time>2022-07-21T09:34:57Z</time>
      </trkpt>
      <trkpt lat="44.12008" lon="5.20376">
        <ele>374.2</ele>
        <time>2022-07-21T09:34:58Z</time>
      </trkpt>
      <trkpt lat="44.12007" lon="5.20364">
        <ele>373.8</ele>
        <time>2022-07-21T09:34:59Z</time>
      </trkpt>
      <trkpt lat="44.12006" lon="5.20352">
        <ele>373.4</ele>
        <time>2022-07-21T09:35:00Z</time>
      </trkpt>
      <trkpt lat="44.12006" lon="5.20339">
        <ele>373</ele>
        <time>2022-07-21T09:35:01Z</time>
      </trkpt>
      <trkpt lat="44.12004" lon="5.20327">
        <ele>372.5</ele>
        <time>2022-07-21T09:35:02Z</time>
      </trkpt>
      <trkpt lat="44.12003" lon="5.20315">
        <ele>372.1</ele>
        <time>2022-07-21T09:35:03Z</time>
      </trkpt>
      <trkpt lat="44.12002" lon="5.20302">
        <ele>371.6</ele>
        <time>2022-07-21T09:35:04Z</time>
      </trkpt>
      <trkpt lat="44.12001" lon="5.20289">
        <ele>371.1</ele>
        <time>2022-07-21T09:35:05Z</time>
      </trkpt>
      <trkpt lat="44.12" lon="5.20276">
        <ele>370.6</ele>
        <time>2022-07-21T09:35:06Z</time>
      </trkpt>
      <trkpt lat="44.11999" lon="5.20263">
        <ele>370</ele>
        <time>2022-07-21T09:35:07Z</time>
      </trkpt>
      <trkpt lat="44.11998" lon="5.20249">
        <ele>369.3</ele>
        <time>2022-07-21T09:35:08Z</time>
      </trkpt>
      <trkpt lat="44.11996" lon="5.20236">
        <ele>368.7</ele>
        <time>2022-07-21T09:35:09Z</time>
      </trkpt>
      <trkpt lat="44.11995" lon="5.20222">
        <ele>368.1</ele>
        <time>2022-07-21T09:35:10Z</time>
      </trkpt>
      <trkpt lat="44.11993" lon="5.20207">
        <ele>367.4</ele>
        <time>2022-07-21T09:35:11Z</time>
      </trkpt>
      <trkpt lat="44.11991" lon="5.20193">
        <ele>366.8</ele>
        <time>2022-07-21T09:35:12Z</time>
      </trkpt>
      <trkpt lat="44.11989" lon="5.20179">
        <ele>366.2</ele>
        <time>2022-07-21T09:35:13Z</time>
      </trkpt>
      <trkpt lat="44.11985" lon="5.20165">
        <ele>365.6</ele>
        <time>2022-07-21T09:35:14Z</time>
      </trkpt>
      <trkpt lat="44.1198" lon="5.20152">
        <ele>365.1</ele>
        <time>2022-07-21T09:35:15Z</time>
      </trkpt>
      <trkpt lat="44.11973" lon="5.2014">
        <ele>364.6</ele>
        <time>2022-07-21T09:35:16Z</time>
      </trkpt>
      <trkpt lat="44.11965" lon="5.20129">
        <ele>364.1</ele>
        <time>2022-07-21T09:35:17Z</time>
      </trkpt>
      <trkpt lat="44.11957" lon="5.20118">
        <ele>363.7</ele>
        <time>2022-07-21T09:35:18Z</time>
      </trkpt>
      <trkpt lat="44.1195" lon="5.20109">
        <ele>363.3</ele>
        <time>2022-07-21T09:35:19Z</time>
      </trkpt>
      <trkpt lat="44.11942" lon="5.201">
        <ele>362.9</ele>
        <time>2022-07-21T09:35:20Z</time>
      </trkpt>
      <trkpt lat="44.11934" lon="5.20092">
        <ele>362.6</ele>
        <time>2022-07-21T09:35:21Z</time>
      </trkpt>
      <trkpt lat="44.11926" lon="5.20084">
        <ele>362.2</ele>
        <time>2022-07-21T09:35:22Z</time>
      </trkpt>
      <trkpt lat="44.11917" lon="5.20079">
        <ele>361.8</ele>
        <time>2022-07-21T09:35:23Z</time>
      </trkpt>
      <trkpt lat="44.11908" lon="5.20073">
        <ele>361.3</ele>
        <time>2022-07-21T09:35:24Z</time>
      </trkpt>
      <trkpt lat="44.11899" lon="5.20068">
        <ele>360.9</ele>
        <time>2022-07-21T09:35:25Z</time>
      </trkpt>
      <trkpt lat="44.11891" lon="5.20063">
        <ele>360.4</ele>
        <time>2022-07-21T09:35:26Z</time>
      </trkpt>
      <trkpt lat="44.11882" lon="5.20058">
        <ele>360</ele>
        <time>2022-07-21T09:35:27Z</time>
      </trkpt>
      <trkpt lat="44.11874" lon="5.20054">
        <ele>359.5</ele>
        <time>2022-07-21T09:35:28Z</time>
      </trkpt>
      <trkpt lat="44.11866" lon="5.20049">
        <ele>359.1</ele>
        <time>2022-07-21T09:35:29Z</time>
      </trkpt>
      <trkpt lat="44.11859" lon="5.20044">
        <ele>358.6</ele>
        <time>2022-07-21T09:35:30Z</time>
      </trkpt>
      <trkpt lat="44.11853" lon="5.20038">
        <ele>358.2</ele>
        <time>2022-07-21T09:35:31Z</time>
      </trkpt>
      <trkpt lat="44.11849" lon="5.20029">
        <ele>357.7</ele>
        <time>2022-07-21T09:35:32Z</time>
      </trkpt>
      <trkpt lat="44.11847" lon="5.20019">
        <ele>357.2</ele>
        <time>2022-07-21T09:35:33Z</time>
      </trkpt>
      <trkpt lat="44.11848" lon="5.20008">
        <ele>356.6</ele>
        <time>2022-07-21T09:35:34Z</time>
      </trkpt>
      <trkpt lat="44.1185" lon="5.19997">
        <ele>356</ele>
        <time>2022-07-21T09:35:35Z</time>
      </trkpt>
      <trkpt lat="44.11853" lon="5.19986">
        <ele>355.4</ele>
        <time>2022-07-21T09:35:36Z</time>
      </trkpt>
      <trkpt lat="44.11855" lon="5.19974">
        <ele>354.9</ele>
        <time>2022-07-21T09:35:37Z</time>
      </trkpt>
      <trkpt lat="44.11859" lon="5.19963">
        <ele>354.3</ele>
        <time>2022-07-21T09:35:38Z</time>
      </trkpt>
      <trkpt lat="44.11862" lon="5.19951">
        <ele>353.8</ele>
        <time>2022-07-21T09:35:39Z</time>
      </trkpt>
      <trkpt lat="44.11866" lon="5.19939">
        <ele>353.3</ele>
        <time>2022-07-21T09:35:40Z</time>
      </trkpt>
      <trkpt lat="44.11871" lon="5.19927">
        <ele>352.8</ele>
        <time>2022-07-21T09:35:41Z</time>
      </trkpt>
      <trkpt lat="44.11877" lon="5.19914">
        <ele>352.4</ele>
        <time>2022-07-21T09:35:42Z</time>
      </trkpt>
      <trkpt lat="44.11882" lon="5.19902">
        <ele>352.1</ele>
        <time>2022-07-21T09:35:43Z</time>
      </trkpt>
      <trkpt lat="44.11887" lon="5.1989">
        <ele>351.8</ele>
        <time>2022-07-21T09:35:44Z</time>
      </trkpt>
      <trkpt lat="44.11893" lon="5.19879">
        <ele>351.6</ele>
        <time>2022-07-21T09:35:45Z</time>
      </trkpt>
      <trkpt lat="44.11898" lon="5.19868">
        <ele>351.4</ele>
        <time>2022-07-21T09:35:46Z</time>
      </trkpt>
      <trkpt lat="44.11903" lon="5.19858">
        <ele>351.3</ele>
        <time>2022-07-21T09:35:47Z</time>
      </trkpt>
      <trkpt lat="44.11909" lon="5.19848">
        <ele>351.1</ele>
        <time>2022-07-21T09:35:48Z</time>
      </trkpt>
      <trkpt lat="44.11914" lon="5.19838">
        <ele>350.9</ele>
        <time>2022-07-21T09:35:49Z</time>
      </trkpt>
      <trkpt lat="44.11919" lon="5.19828">
        <ele>350.7</ele>
        <time>2022-07-21T09:35:50Z</time>
      </trkpt>
      <trkpt lat="44.11924" lon="5.19818">
        <ele>350.5</ele>
        <time>2022-07-21T09:35:51Z</time>
      </trkpt>
      <trkpt lat="44.11928" lon="5.19808">
        <ele>350.3</ele>
        <time>2022-07-21T09:35:52Z</time>
      </trkpt>
      <trkpt lat="44.11933" lon="5.19798">
        <ele>350.1</ele>
        <time>2022-07-21T09:35:53Z</time>
      </trkpt>
      <trkpt lat="44.11937" lon="5.19788">
        <ele>349.9</ele>
        <time>2022-07-21T09:35:54Z</time>
      </trkpt>
      <trkpt lat="44.11942" lon="5.19779">
        <ele>349.7</ele>
        <time>2022-07-21T09:35:55Z</time>
      </trkpt>
      <trkpt lat="44.11947" lon="5.19769">
        <ele>349.4</ele>
        <time>2022-07-21T09:35:56Z</time>
      </trkpt>
      <trkpt lat="44.11953" lon="5.1976">
        <ele>349.1</ele>
        <time>2022-07-21T09:35:57Z</time>
      </trkpt>
      <trkpt lat="44.11957" lon="5.1975">
        <ele>348.9</ele>
        <time>2022-07-21T09:35:58Z</time>
      </trkpt>
      <trkpt lat="44.11962" lon="5.19741">
        <ele>348.6</ele>
        <time>2022-07-21T09:35:59Z</time>
      </trkpt>
      <trkpt lat="44.11967" lon="5.19732">
        <ele>348.3</ele>
        <time>2022-07-21T09:36:00Z</time>
      </trkpt>
      <trkpt lat="44.11972" lon="5.19722">
        <ele>348</ele>
        <time>2022-07-21T09:36:01Z</time>
      </trkpt>
      <trkpt lat="44.11977" lon="5.19712">
        <ele>347.7</ele>
        <time>2022-07-21T09:36:02Z</time>
      </trkpt>
      <trkpt lat="44.11982" lon="5.19703">
        <ele>347.4</ele>
        <time>2022-07-21T09:36:03Z</time>
      </trkpt>
      <trkpt lat="44.11987" lon="5.19693">
        <ele>347</ele>
        <time>2022-07-21T09:36:04Z</time>
      </trkpt>
      <trkpt lat="44.11992" lon="5.19683">
        <ele>346.7</ele>
        <time>2022-07-21T09:36:05Z</time>
      </trkpt>
      <trkpt lat="44.11997" lon="5.19673">
        <ele>346.3</ele>
        <time>2022-07-21T09:36:06Z</time>
      </trkpt>
      <trkpt lat="44.12001" lon="5.19663">
        <ele>346</ele>
        <time>2022-07-21T09:36:07Z</time>
      </trkpt>
      <trkpt lat="44.12005" lon="5.19653">
        <ele>345.7</ele>
        <time>2022-07-21T09:36:08Z</time>
      </trkpt>
      <trkpt lat="44.1201" lon="5.19642">
        <ele>345.3</ele>
        <time>2022-07-21T09:36:09Z</time>
      </trkpt>
      <trkpt lat="44.12014" lon="5.19632">
        <ele>344.9</ele>
        <time>2022-07-21T09:36:10Z</time>
      </trkpt>
      <trkpt lat="44.12018" lon="5.19621">
        <ele>344.6</ele>
        <time>2022-07-21T09:36:11Z</time>
      </trkpt>
      <trkpt lat="44.12022" lon="5.19609">
        <ele>344.3</ele>
        <time>2022-07-21T09:36:12Z</time>
      </trkpt>
      <trkpt lat="44.12027" lon="5.19598">
        <ele>344</ele>
        <time>2022-07-21T09:36:13Z</time>
      </trkpt>
      <trkpt lat="44.12031" lon="5.19587">
        <ele>343.7</ele>
        <time>2022-07-21T09:36:14Z</time>
      </trkpt>
      <trkpt lat="44.12035" lon="5.19576">
        <ele>343.3</ele>
        <time>2022-07-21T09:36:15Z</time>
      </trkpt>
      <trkpt lat="44.12039" lon="5.19565">
        <ele>343</ele>
        <time>2022-07-21T09:36:16Z</time>
      </trkpt>
      <trkpt lat="44.12043" lon="5.19553">
        <ele>342.7</ele>
        <time>2022-07-21T09:36:17Z</time>
      </trkpt>
      <trkpt lat="44.12047" lon="5.19542">
        <ele>342.4</ele>
        <time>2022-07-21T09:36:18Z</time>
      </trkpt>
      <trkpt lat="44.12051" lon="5.19532">
        <ele>342</ele>
        <time>2022-07-21T09:36:19Z</time>
      </trkpt>
      <trkpt lat="44.12055" lon="5.1952">
        <ele>341.7</ele>
        <time>2022-07-21T09:36:20Z</time>
      </trkpt>
      <trkpt lat="44.12059" lon="5.19509">
        <ele>341.4</ele>
        <time>2022-07-21T09:36:21Z</time>
      </trkpt>
      <trkpt lat="44.12063" lon="5.19498">
        <ele>341.1</ele>
        <time>2022-07-21T09:36:22Z</time>
      </trkpt>
      <trkpt lat="44.12066" lon="5.19487">
        <ele>340.8</ele>
        <time>2022-07-21T09:36:23Z</time>
      </trkpt>
      <trkpt lat="44.12069" lon="5.19474">
        <ele>340.4</ele>
        <time>2022-07-21T09:36:24Z</time>
      </trkpt>
      <trkpt lat="44.12072" lon="5.19463">
        <ele>340.2</ele>
        <time>2022-07-21T09:36:25Z</time>
      </trkpt>
      <trkpt lat="44.12076" lon="5.19451">
        <ele>339.8</ele>
        <time>2022-07-21T09:36:26Z</time>
      </trkpt>
      <trkpt lat="44.1208" lon="5.19439">
        <ele>339.5</ele>
        <time>2022-07-21T09:36:27Z</time>
      </trkpt>
      <trkpt lat="44.12083" lon="5.19427">
        <ele>339.3</ele>
        <time>2022-07-21T09:36:28Z</time>
      </trkpt>
      <trkpt lat="44.12086" lon="5.19415">
        <ele>339</ele>
        <time>2022-07-21T09:36:29Z</time>
      </trkpt>
      <trkpt lat="44.12089" lon="5.19403">
        <ele>338.8</ele>
        <time>2022-07-21T09:36:30Z</time>
      </trkpt>
      <trkpt lat="44.12093" lon="5.19391">
        <ele>338.6</ele>
        <time>2022-07-21T09:36:31Z</time>
      </trkpt>
      <trkpt lat="44.12096" lon="5.19379">
        <ele>338.4</ele>
        <time>2022-07-21T09:36:32Z</time>
      </trkpt>
      <trkpt lat="44.12099" lon="5.19368">
        <ele>338.1</ele>
        <time>2022-07-21T09:36:33Z</time>
      </trkpt>
      <trkpt lat="44.12102" lon="5.19356">
        <ele>337.9</ele>
        <time>2022-07-21T09:36:34Z</time>
      </trkpt>
      <trkpt lat="44.12106" lon="5.19344">
        <ele>337.7</ele>
        <time>2022-07-21T09:36:35Z</time>
      </trkpt>
      <trkpt lat="44.12109" lon="5.19333">
        <ele>337.5</ele>
        <time>2022-07-21T09:36:36Z</time>
      </trkpt>
      <trkpt lat="44.12113" lon="5.19321">
        <ele>337.3</ele>
        <time>2022-07-21T09:36:37Z</time>
      </trkpt>
      <trkpt lat="44.12116" lon="5.19309">
        <ele>337.1</ele>
        <time>2022-07-21T09:36:38Z</time>
      </trkpt>
      <trkpt lat="44.1212" lon="5.19297">
        <ele>336.9</ele>
        <time>2022-07-21T09:36:39Z</time>
      </trkpt>
      <trkpt lat="44.12123" lon="5.19285">
        <ele>336.7</ele>
        <time>2022-07-21T09:36:40Z</time>
      </trkpt>
      <trkpt lat="44.12127" lon="5.19274">
        <ele>336.5</ele>
        <time>2022-07-21T09:36:41Z</time>
      </trkpt>
      <trkpt lat="44.1213" lon="5.19261">
        <ele>336.3</ele>
        <time>2022-07-21T09:36:42Z</time>
      </trkpt>
      <trkpt lat="44.12134" lon="5.1925">
        <ele>336.2</ele>
        <time>2022-07-21T09:36:43Z</time>
      </trkpt>
      <trkpt lat="44.12137" lon="5.1924">
        <ele>336</ele>
        <time>2022-07-21T09:36:44Z</time>
      </trkpt>
      <trkpt lat="44.1214" lon="5.19228">
        <ele>335.9</ele>
        <time>2022-07-21T09:36:45Z</time>
      </trkpt>
      <trkpt lat="44.12144" lon="5.19217">
        <ele>335.7</ele>
        <time>2022-07-21T09:36:46Z</time>
      </trkpt>
      <trkpt lat="44.12147" lon="5.19206">
        <ele>335.6</ele>
        <time>2022-07-21T09:36:47Z</time>
      </trkpt>
      <trkpt lat="44.12151" lon="5.19195">
        <ele>335.4</ele>
        <time>2022-07-21T09:36:48Z</time>
      </trkpt>
      <trkpt lat="44.12155" lon="5.19184">
        <ele>335.3</ele>
        <time>2022-07-21T09:36:49Z</time>
      </trkpt>
      <trkpt lat="44.12158" lon="5.19173">
        <ele>335.2</ele>
        <time>2022-07-21T09:36:50Z</time>
      </trkpt>
      <trkpt lat="44.12162" lon="5.19163">
        <ele>335</ele>
        <time>2022-07-21T09:36:51Z</time>
      </trkpt>
      <trkpt lat="44.12166" lon="5.19152">
        <ele>334.9</ele>
        <time>2022-07-21T09:36:52Z</time>
      </trkpt>
      <trkpt lat="44.1217" lon="5.19142">
        <ele>334.8</ele>
        <time>2022-07-21T09:36:53Z</time>
      </trkpt>
      <trkpt lat="44.12175" lon="5.19132">
        <ele>334.6</ele>
        <time>2022-07-21T09:36:54Z</time>
      </trkpt>
      <trkpt lat="44.12179" lon="5.19123">
        <ele>334.5</ele>
        <time>2022-07-21T09:36:55Z</time>
      </trkpt>
      <trkpt lat="44.12183" lon="5.19112">
        <ele>334.3</ele>
        <time>2022-07-21T09:36:56Z</time>
      </trkpt>
      <trkpt lat="44.12186" lon="5.19101">
        <ele>334.2</ele>
        <time>2022-07-21T09:36:57Z</time>
      </trkpt>
      <trkpt lat="44.1219" lon="5.19091">
        <ele>334.1</ele>
        <time>2022-07-21T09:36:58Z</time>
      </trkpt>
      <trkpt lat="44.12194" lon="5.19081">
        <ele>333.9</ele>
        <time>2022-07-21T09:36:59Z</time>
      </trkpt>
      <trkpt lat="44.12199" lon="5.19071">
        <ele>333.7</ele>
        <time>2022-07-21T09:37:00Z</time>
      </trkpt>
      <trkpt lat="44.12203" lon="5.19061">
        <ele>333.6</ele>
        <time>2022-07-21T09:37:01Z</time>
      </trkpt>
      <trkpt lat="44.12207" lon="5.19051">
        <ele>333.4</ele>
        <time>2022-07-21T09:37:02Z</time>
      </trkpt>
      <trkpt lat="44.12212" lon="5.19041">
        <ele>333.2</ele>
        <time>2022-07-21T09:37:03Z</time>
      </trkpt>
      <trkpt lat="44.12216" lon="5.19031">
        <ele>333</ele>
        <time>2022-07-21T09:37:04Z</time>
      </trkpt>
      <trkpt lat="44.12221" lon="5.19021">
        <ele>332.8</ele>
        <time>2022-07-21T09:37:05Z</time>
      </trkpt>
      <trkpt lat="44.12226" lon="5.19012">
        <ele>332.6</ele>
        <time>2022-07-21T09:37:06Z</time>
      </trkpt>
      <trkpt lat="44.12232" lon="5.19004">
        <ele>332.3</ele>
        <time>2022-07-21T09:37:07Z</time>
      </trkpt>
      <trkpt lat="44.12239" lon="5.18996">
        <ele>332</ele>
        <time>2022-07-21T09:37:08Z</time>
      </trkpt>
      <trkpt lat="44.12245" lon="5.1899">
        <ele>331.7</ele>
        <time>2022-07-21T09:37:09Z</time>
      </trkpt>
      <trkpt lat="44.12252" lon="5.18984">
        <ele>331.4</ele>
        <time>2022-07-21T09:37:10Z</time>
      </trkpt>
      <trkpt lat="44.12259" lon="5.18979">
        <ele>331.1</ele>
        <time>2022-07-21T09:37:11Z</time>
      </trkpt>
      <trkpt lat="44.12266" lon="5.18973">
        <ele>330.8</ele>
        <time>2022-07-21T09:37:12Z</time>
      </trkpt>
      <trkpt lat="44.12273" lon="5.18967">
        <ele>330.5</ele>
        <time>2022-07-21T09:37:13Z</time>
      </trkpt>
      <trkpt lat="44.12281" lon="5.1896">
        <ele>330.3</ele>
        <time>2022-07-21T09:37:14Z</time>
      </trkpt>
      <trkpt lat="44.12288" lon="5.18954">
        <ele>330.1</ele>
        <time>2022-07-21T09:37:15Z</time>
      </trkpt>
      <trkpt lat="44.12295" lon="5.18949">
        <ele>329.8</ele>
        <time>2022-07-21T09:37:16Z</time>
      </trkpt>
      <trkpt lat="44.12302" lon="5.18943">
        <ele>329.4</ele>
        <time>2022-07-21T09:37:17Z</time>
      </trkpt>
      <trkpt lat="44.12309" lon="5.18937">
        <ele>329.1</ele>
        <time>2022-07-21T09:37:18Z</time>
      </trkpt>
      <trkpt lat="44.12316" lon="5.18931">
        <ele>328.7</ele>
        <time>2022-07-21T09:37:19Z</time>
      </trkpt>
      <trkpt lat="44.12323" lon="5.18924">
        <ele>328.2</ele>
        <time>2022-07-21T09:37:20Z</time>
      </trkpt>
      <trkpt lat="44.1233" lon="5.18916">
        <ele>327.8</ele>
        <time>2022-07-21T09:37:21Z</time>
      </trkpt>
      <trkpt lat="44.12335" lon="5.18908">
        <ele>327.5</ele>
        <time>2022-07-21T09:37:22Z</time>
      </trkpt>
      <trkpt lat="44.1234" lon="5.18899">
        <ele>327.2</ele>
        <time>2022-07-21T09:37:23Z</time>
      </trkpt>
      <trkpt lat="44.12344" lon="5.18889">
        <ele>326.9</ele>
        <time>2022-07-21T09:37:24Z</time>
      </trkpt>
      <trkpt lat="44.12348" lon="5.18878">
        <ele>326.5</ele>
        <time>2022-07-21T09:37:25Z</time>
      </trkpt>
      <trkpt lat="44.12351" lon="5.18867">
        <ele>326</ele>
        <time>2022-07-21T09:37:26Z</time>
      </trkpt>
      <trkpt lat="44.12355" lon="5.18854">
        <ele>325.4</ele>
        <time>2022-07-21T09:37:27Z</time>
      </trkpt>
      <trkpt lat="44.12358" lon="5.18844">
        <ele>324.9</ele>
        <time>2022-07-21T09:37:28Z</time>
      </trkpt>
      <trkpt lat="44.1236" lon="5.18831">
        <ele>324.3</ele>
        <time>2022-07-21T09:37:29Z</time>
      </trkpt>
      <trkpt lat="44.12364" lon="5.18819">
        <ele>323.7</ele>
        <time>2022-07-21T09:37:30Z</time>
      </trkpt>
      <trkpt lat="44.12367" lon="5.18804">
        <ele>323</ele>
        <time>2022-07-21T09:37:31Z</time>
      </trkpt>
      <trkpt lat="44.1237" lon="5.1879">
        <ele>322.4</ele>
        <time>2022-07-21T09:37:32Z</time>
      </trkpt>
      <trkpt lat="44.12373" lon="5.18777">
        <ele>321.8</ele>
        <time>2022-07-21T09:37:33Z</time>
      </trkpt>
      <trkpt lat="44.12376" lon="5.18763">
        <ele>321.2</ele>
        <time>2022-07-21T09:37:34Z</time>
      </trkpt>
      <trkpt lat="44.12378" lon="5.18749">
        <ele>320.7</ele>
        <time>2022-07-21T09:37:35Z</time>
      </trkpt>
      <trkpt lat="44.12381" lon="5.18735">
        <ele>320.1</ele>
        <time>2022-07-21T09:37:36Z</time>
      </trkpt>
      <trkpt lat="44.12384" lon="5.18721">
        <ele>319.6</ele>
        <time>2022-07-21T09:37:37Z</time>
      </trkpt>
      <trkpt lat="44.12387" lon="5.18707">
        <ele>319.2</ele>
        <time>2022-07-21T09:37:38Z</time>
      </trkpt>
      <trkpt lat="44.1239" lon="5.18693">
        <ele>318.9</ele>
        <time>2022-07-21T09:37:39Z</time>
      </trkpt>
      <trkpt lat="44.12394" lon="5.18679">
        <ele>318.6</ele>
        <time>2022-07-21T09:37:40Z</time>
      </trkpt>
      <trkpt lat="44.12397" lon="5.18665">
        <ele>318.5</ele>
        <time>2022-07-21T09:37:41Z</time>
      </trkpt>
      <trkpt lat="44.124" lon="5.18651">
        <ele>318.3</ele>
        <time>2022-07-21T09:37:42Z</time>
      </trkpt>
      <trkpt lat="44.12402" lon="5.18637">
        <ele>318.1</ele>
        <time>2022-07-21T09:37:43Z</time>
      </trkpt>
      <trkpt lat="44.12405" lon="5.18624">
        <ele>318</ele>
        <time>2022-07-21T09:37:44Z</time>
      </trkpt>
      <trkpt lat="44.12408" lon="5.18611">
        <ele>317.8</ele>
        <time>2022-07-21T09:37:45Z</time>
      </trkpt>
      <trkpt lat="44.12411" lon="5.18598">
        <ele>317.7</ele>
        <time>2022-07-21T09:37:46Z</time>
      </trkpt>
      <trkpt lat="44.12414" lon="5.18586">
        <ele>317.6</ele>
        <time>2022-07-21T09:37:47Z</time>
      </trkpt>
      <trkpt lat="44.12416" lon="5.18574">
        <ele>317.4</ele>
        <time>2022-07-21T09:37:48Z</time>
      </trkpt>
      <trkpt lat="44.12419" lon="5.18562">
        <ele>317.2</ele>
        <time>2022-07-21T09:37:49Z</time>
      </trkpt>
      <trkpt lat="44.12422" lon="5.18551">
        <ele>317.1</ele>
        <time>2022-07-21T09:37:50Z</time>
      </trkpt>
      <trkpt lat="44.12424" lon="5.18541">
        <ele>316.9</ele>
        <time>2022-07-21T09:37:51Z</time>
      </trkpt>
      <trkpt lat="44.12427" lon="5.1853">
        <ele>316.8</ele>
        <time>2022-07-21T09:37:52Z</time>
      </trkpt>
      <trkpt lat="44.12429" lon="5.18518">
        <ele>316.7</ele>
        <time>2022-07-21T09:37:53Z</time>
      </trkpt>
      <trkpt lat="44.12431" lon="5.18508">
        <ele>316.6</ele>
        <time>2022-07-21T09:37:54Z</time>
      </trkpt>
      <trkpt lat="44.12434" lon="5.18498">
        <ele>316.5</ele>
        <time>2022-07-21T09:37:55Z</time>
      </trkpt>
      <trkpt lat="44.12436" lon="5.18487">
        <ele>316.5</ele>
        <time>2022-07-21T09:37:56Z</time>
      </trkpt>
      <trkpt lat="44.12437" lon="5.18476">
        <ele>316.4</ele>
        <time>2022-07-21T09:37:57Z</time>
      </trkpt>
      <trkpt lat="44.1244" lon="5.18467">
        <ele>316.3</ele>
        <time>2022-07-21T09:37:58Z</time>
      </trkpt>
      <trkpt lat="44.12442" lon="5.18456">
        <ele>316.3</ele>
        <time>2022-07-21T09:37:59Z</time>
      </trkpt>
      <trkpt lat="44.12444" lon="5.18445">
        <ele>316.2</ele>
        <time>2022-07-21T09:38:00Z</time>
      </trkpt>
      <trkpt lat="44.12446" lon="5.18435">
        <ele>316.1</ele>
        <time>2022-07-21T09:38:01Z</time>
      </trkpt>
      <trkpt lat="44.12449" lon="5.18425">
        <ele>316</ele>
        <time>2022-07-21T09:38:02Z</time>
      </trkpt>
      <trkpt lat="44.12451" lon="5.18417">
        <ele>316</ele>
        <time>2022-07-21T09:38:03Z</time>
      </trkpt>
      <trkpt lat="44.12453" lon="5.18406">
        <ele>315.9</ele>
        <time>2022-07-21T09:38:04Z</time>
      </trkpt>
      <trkpt lat="44.12455" lon="5.18396">
        <ele>315.8</ele>
        <time>2022-07-21T09:38:05Z</time>
      </trkpt>
      <trkpt lat="44.12457" lon="5.18386">
        <ele>315.6</ele>
        <time>2022-07-21T09:38:06Z</time>
      </trkpt>
      <trkpt lat="44.1246" lon="5.18375">
        <ele>315.5</ele>
        <time>2022-07-21T09:38:07Z</time>
      </trkpt>
      <trkpt lat="44.12464" lon="5.18365">
        <ele>315.3</ele>
        <time>2022-07-21T09:38:08Z</time>
      </trkpt>
      <trkpt lat="44.12466" lon="5.18356">
        <ele>315.1</ele>
        <time>2022-07-21T09:38:09Z</time>
      </trkpt>
      <trkpt lat="44.12469" lon="5.18346">
        <ele>315</ele>
        <time>2022-07-21T09:38:10Z</time>
      </trkpt>
      <trkpt lat="44.12471" lon="5.18336">
        <ele>314.8</ele>
        <time>2022-07-21T09:38:11Z</time>
      </trkpt>
      <trkpt lat="44.12473" lon="5.18326">
        <ele>314.6</ele>
        <time>2022-07-21T09:38:12Z</time>
      </trkpt>
      <trkpt lat="44.12475" lon="5.18315">
        <ele>314.5</ele>
        <time>2022-07-21T09:38:13Z</time>
      </trkpt>
      <trkpt lat="44.12477" lon="5.18305">
        <ele>314.4</ele>
        <time>2022-07-21T09:38:14Z</time>
      </trkpt>
      <trkpt lat="44.12479" lon="5.18295">
        <ele>314.3</ele>
        <time>2022-07-21T09:38:15Z</time>
      </trkpt>
      <trkpt lat="44.12481" lon="5.18285">
        <ele>314.1</ele>
        <time>2022-07-21T09:38:16Z</time>
      </trkpt>
      <trkpt lat="44.12484" lon="5.18275">
        <ele>314</ele>
        <time>2022-07-21T09:38:17Z</time>
      </trkpt>
      <trkpt lat="44.12486" lon="5.18266">
        <ele>313.9</ele>
        <time>2022-07-21T09:38:18Z</time>
      </trkpt>
      <trkpt lat="44.12488" lon="5.18255">
        <ele>313.8</ele>
        <time>2022-07-21T09:38:19Z</time>
      </trkpt>
      <trkpt lat="44.12491" lon="5.18244">
        <ele>313.7</ele>
        <time>2022-07-21T09:38:20Z</time>
      </trkpt>
      <trkpt lat="44.12494" lon="5.18234">
        <ele>313.6</ele>
        <time>2022-07-21T09:38:21Z</time>
      </trkpt>
      <trkpt lat="44.12496" lon="5.18225">
        <ele>313.6</ele>
        <time>2022-07-21T09:38:22Z</time>
      </trkpt>
      <trkpt lat="44.12499" lon="5.18215">
        <ele>313.5</ele>
        <time>2022-07-21T09:38:23Z</time>
      </trkpt>
      <trkpt lat="44.12501" lon="5.18206">
        <ele>313.5</ele>
        <time>2022-07-21T09:38:24Z</time>
      </trkpt>
      <trkpt lat="44.12503" lon="5.18196">
        <ele>313.4</ele>
        <time>2022-07-21T09:38:25Z</time>
      </trkpt>
      <trkpt lat="44.12506" lon="5.18187">
        <ele>313.4</ele>
        <time>2022-07-21T09:38:26Z</time>
      </trkpt>
      <trkpt lat="44.12508" lon="5.18178">
        <ele>313.3</ele>
        <time>2022-07-21T09:38:27Z</time>
      </trkpt>
      <trkpt lat="44.1251" lon="5.18169">
        <ele>313.3</ele>
        <time>2022-07-21T09:38:28Z</time>
      </trkpt>
      <trkpt lat="44.12512" lon="5.18161">
        <ele>313.2</ele>
        <time>2022-07-21T09:38:29Z</time>
      </trkpt>
      <trkpt lat="44.12513" lon="5.18152">
        <ele>313.2</ele>
        <time>2022-07-21T09:38:30Z</time>
      </trkpt>
      <trkpt lat="44.12516" lon="5.18143">
        <ele>313.2</ele>
        <time>2022-07-21T09:38:31Z</time>
      </trkpt>
      <trkpt lat="44.12517" lon="5.18135">
        <ele>313.1</ele>
        <time>2022-07-21T09:38:32Z</time>
      </trkpt>
      <trkpt lat="44.1252" lon="5.18128">
        <ele>313.1</ele>
        <time>2022-07-21T09:38:33Z</time>
      </trkpt>
      <trkpt lat="44.12521" lon="5.1812">
        <ele>313.1</ele>
        <time>2022-07-21T09:38:34Z</time>
      </trkpt>
      <trkpt lat="44.12523" lon="5.18111">
        <ele>313.1</ele>
        <time>2022-07-21T09:38:35Z</time>
      </trkpt>
      <trkpt lat="44.12525" lon="5.18105">
        <ele>313.1</ele>
        <time>2022-07-21T09:38:36Z</time>
      </trkpt>
      <trkpt lat="44.12527" lon="5.18097">
        <ele>313.1</ele>
        <time>2022-07-21T09:38:37Z</time>
      </trkpt>
      <trkpt lat="44.12529" lon="5.18088">
        <ele>313.1</ele>
        <time>2022-07-21T09:38:38Z</time>
      </trkpt>
      <trkpt lat="44.12531" lon="5.1808">
        <ele>313</ele>
        <time>2022-07-21T09:38:39Z</time>
      </trkpt>
      <trkpt lat="44.12533" lon="5.18073">
        <ele>313</ele>
        <time>2022-07-21T09:38:40Z</time>
      </trkpt>
      <trkpt lat="44.12534" lon="5.18065">
        <ele>313</ele>
        <time>2022-07-21T09:38:41Z</time>
      </trkpt>
      <trkpt lat="44.12534" lon="5.18056">
        <ele>313.1</ele>
        <time>2022-07-21T09:38:42Z</time>
      </trkpt>
      <trkpt lat="44.12534" lon="5.1805">
        <ele>313.1</ele>
        <time>2022-07-21T09:38:43Z</time>
      </trkpt>
      <trkpt lat="44.12534" lon="5.18045">
        <ele>313.1</ele>
        <time>2022-07-21T09:38:44Z</time>
      </trkpt>
      <trkpt lat="44.12535" lon="5.18038">
        <ele>313.1</ele>
        <time>2022-07-21T09:38:45Z</time>
      </trkpt>
      <trkpt lat="44.12536" lon="5.18032">
        <ele>313.4</ele>
        <time>2022-07-21T09:38:46Z</time>
      </trkpt>
      <trkpt lat="44.12538" lon="5.18027">
        <ele>313.5</ele>
        <time>2022-07-21T09:38:47Z</time>
      </trkpt>
      <trkpt lat="44.12539" lon="5.18023">
        <ele>313.6</ele>
        <time>2022-07-21T09:38:48Z</time>
      </trkpt>
      <trkpt lat="44.12541" lon="5.18019">
        <ele>313.7</ele>
        <time>2022-07-21T09:38:49Z</time>
      </trkpt>
      <trkpt lat="44.12542" lon="5.18015">
        <ele>313.8</ele>
        <time>2022-07-21T09:38:50Z</time>
      </trkpt>
      <trkpt lat="44.12543" lon="5.18011">
        <ele>314</ele>
        <time>2022-07-21T09:38:51Z</time>
      </trkpt>
      <trkpt lat="44.12545" lon="5.18008">
        <ele>314.1</ele>
        <time>2022-07-21T09:38:52Z</time>
      </trkpt>
      <trkpt lat="44.12547" lon="5.18005">
        <ele>314.2</ele>
        <time>2022-07-21T09:38:53Z</time>
      </trkpt>
      <trkpt lat="44.12549" lon="5.18004">
        <ele>314.3</ele>
        <time>2022-07-21T09:38:54Z</time>
      </trkpt>
      <trkpt lat="44.1255" lon="5.18004">
        <ele>314.3</ele>
        <time>2022-07-21T09:38:55Z</time>
      </trkpt>
      <trkpt lat="44.12551" lon="5.18003">
        <ele>314.3</ele>
        <time>2022-07-21T09:38:56Z</time>
      </trkpt>
      <trkpt lat="44.12555" lon="5.18001">
        <ele>314.5</ele>
        <time>2022-07-21T09:38:57Z</time>
      </trkpt>
      <trkpt lat="44.12556" lon="5.17999">
        <ele>314.6</ele>
        <time>2022-07-21T09:38:58Z</time>
      </trkpt>
      <trkpt lat="44.12558" lon="5.17997">
        <ele>314.8</ele>
        <time>2022-07-21T09:38:59Z</time>
      </trkpt>
      <trkpt lat="44.12561" lon="5.17995">
        <ele>314.9</ele>
        <time>2022-07-21T09:39:00Z</time>
      </trkpt>
      <trkpt lat="44.12563" lon="5.17992">
        <ele>315.1</ele>
        <time>2022-07-21T09:39:01Z</time>
      </trkpt>
      <trkpt lat="44.12566" lon="5.1799">
        <ele>315.2</ele>
        <time>2022-07-21T09:39:02Z</time>
      </trkpt>
      <trkpt lat="44.12568" lon="5.17987">
        <ele>315.4</ele>
        <time>2022-07-21T09:39:03Z</time>
      </trkpt>
      <trkpt lat="44.12571" lon="5.17985">
        <ele>315.6</ele>
        <time>2022-07-21T09:39:04Z</time>
      </trkpt>
      <trkpt lat="44.12573" lon="5.17982">
        <ele>315.8</ele>
        <time>2022-07-21T09:39:05Z</time>
      </trkpt>
      <trkpt lat="44.12577" lon="5.1798">
        <ele>316</ele>
        <time>2022-07-21T09:39:06Z</time>
      </trkpt>
      <trkpt lat="44.12578" lon="5.17979">
        <ele>316.1</ele>
        <time>2022-07-21T09:39:07Z</time>
      </trkpt>
      <trkpt lat="44.1258" lon="5.17978">
        <ele>316.3</ele>
        <time>2022-07-21T09:39:08Z</time>
      </trkpt>
      <trkpt lat="44.12583" lon="5.17976">
        <ele>316.5</ele>
        <time>2022-07-21T09:39:09Z</time>
      </trkpt>
      <trkpt lat="44.12586" lon="5.17974">
        <ele>316.7</ele>
        <time>2022-07-21T09:39:10Z</time>
      </trkpt>
      <trkpt lat="44.12588" lon="5.17972">
        <ele>316.9</ele>
        <time>2022-07-21T09:39:11Z</time>
      </trkpt>
      <trkpt lat="44.12591" lon="5.17969">
        <ele>317.2</ele>
        <time>2022-07-21T09:39:12Z</time>
      </trkpt>
      <trkpt lat="44.12592" lon="5.17968">
        <ele>317.2</ele>
        <time>2022-07-21T09:39:13Z</time>
      </trkpt>
      <trkpt lat="44.12596" lon="5.17965">
        <ele>317.5</ele>
        <time>2022-07-21T09:39:14Z</time>
      </trkpt>
      <trkpt lat="44.12597" lon="5.17965">
        <ele>317.5</ele>
        <time>2022-07-21T09:39:15Z</time>
      </trkpt>
      <trkpt lat="44.12599" lon="5.17963">
        <ele>317.5</ele>
        <time>2022-07-21T09:39:16Z</time>
      </trkpt>
      <trkpt lat="44.12602" lon="5.17961">
        <ele>317.6</ele>
        <time>2022-07-21T09:39:17Z</time>
      </trkpt>
      <trkpt lat="44.12604" lon="5.17959">
        <ele>317.7</ele>
        <time>2022-07-21T09:39:18Z</time>
      </trkpt>
      <trkpt lat="44.12607" lon="5.17957">
        <ele>317.9</ele>
        <time>2022-07-21T09:39:19Z</time>
      </trkpt>
      <trkpt lat="44.1261" lon="5.17954">
        <ele>318.1</ele>
        <time>2022-07-21T09:39:20Z</time>
      </trkpt>
      <trkpt lat="44.12611" lon="5.17953">
        <ele>318.2</ele>
        <time>2022-07-21T09:39:21Z</time>
      </trkpt>
      <trkpt lat="44.12613" lon="5.17951">
        <ele>318.3</ele>
        <time>2022-07-21T09:39:22Z</time>
      </trkpt>
      <trkpt lat="44.12614" lon="5.1795">
        <ele>318.4</ele>
        <time>2022-07-21T09:39:23Z</time>
      </trkpt>
      <trkpt lat="44.12617" lon="5.17947">
        <ele>318.6</ele>
        <time>2022-07-21T09:39:24Z</time>
      </trkpt>
      <trkpt lat="44.12618" lon="5.17946">
        <ele>318.7</ele>
        <time>2022-07-21T09:39:25Z</time>
      </trkpt>
      <trkpt lat="44.12621" lon="5.17942">
        <ele>318.9</ele>
        <time>2022-07-21T09:39:26Z</time>
      </trkpt>
      <trkpt lat="44.12622" lon="5.17941">
        <ele>319</ele>
        <time>2022-07-21T09:39:27Z</time>
      </trkpt>
      <trkpt lat="44.12625" lon="5.17938">
        <ele>319.2</ele>
        <time>2022-07-21T09:39:28Z</time>
      </trkpt>
      <trkpt lat="44.12627" lon="5.17937">
        <ele>319.3</ele>
        <time>2022-07-21T09:39:29Z</time>
      </trkpt>
      <trkpt lat="44.12629" lon="5.17935">
        <ele>319.4</ele>
        <time>2022-07-21T09:39:30Z</time>
      </trkpt>
      <trkpt lat="44.12632" lon="5.17932">
        <ele>319.6</ele>
        <time>2022-07-21T09:39:31Z</time>
      </trkpt>
      <trkpt lat="44.12633" lon="5.17931">
        <ele>319.6</ele>
        <time>2022-07-21T09:39:32Z</time>
      </trkpt>
      <trkpt lat="44.12636" lon="5.17928">
        <ele>319.8</ele>
        <time>2022-07-21T09:39:33Z</time>
      </trkpt>
      <trkpt lat="44.12637" lon="5.17927">
        <ele>319.8</ele>
        <time>2022-07-21T09:39:34Z</time>
      </trkpt>
      <trkpt lat="44.12641" lon="5.17924">
        <ele>319.9</ele>
        <time>2022-07-21T09:39:35Z</time>
      </trkpt>
      <trkpt lat="44.12642" lon="5.17923">
        <ele>319.9</ele>
        <time>2022-07-21T09:39:36Z</time>
      </trkpt>
      <trkpt lat="44.12645" lon="5.17921">
        <ele>319.9</ele>
        <time>2022-07-21T09:39:37Z</time>
      </trkpt>
      <trkpt lat="44.12646" lon="5.1792">
        <ele>320</ele>
        <time>2022-07-21T09:39:38Z</time>
      </trkpt>
      <trkpt lat="44.12649" lon="5.17917">
        <ele>320.1</ele>
        <time>2022-07-21T09:39:39Z</time>
      </trkpt>
      <trkpt lat="44.1265" lon="5.17917">
        <ele>320.2</ele>
        <time>2022-07-21T09:39:40Z</time>
      </trkpt>
      <trkpt lat="44.12653" lon="5.17914">
        <ele>320.3</ele>
        <time>2022-07-21T09:39:41Z</time>
      </trkpt>
      <trkpt lat="44.12654" lon="5.17913">
        <ele>320.4</ele>
        <time>2022-07-21T09:39:42Z</time>
      </trkpt>
      <trkpt lat="44.12656" lon="5.17911">
        <ele>320.5</ele>
        <time>2022-07-21T09:39:43Z</time>
      </trkpt>
      <trkpt lat="44.12657" lon="5.1791">
        <ele>320.6</ele>
        <time>2022-07-21T09:39:44Z</time>
      </trkpt>
      <trkpt lat="44.1266" lon="5.17907">
        <ele>320.7</ele>
        <time>2022-07-21T09:39:45Z</time>
      </trkpt>
      <trkpt lat="44.12661" lon="5.17907">
        <ele>320.8</ele>
        <time>2022-07-21T09:39:46Z</time>
      </trkpt>
      <trkpt lat="44.12664" lon="5.17904">
        <ele>321</ele>
        <time>2022-07-21T09:39:47Z</time>
      </trkpt>
      <trkpt lat="44.12665" lon="5.17903">
        <ele>321</ele>
        <time>2022-07-21T09:39:48Z</time>
      </trkpt>
      <trkpt lat="44.12668" lon="5.179">
        <ele>321.2</ele>
        <time>2022-07-21T09:39:49Z</time>
      </trkpt>
      <trkpt lat="44.12669" lon="5.17899">
        <ele>321.3</ele>
        <time>2022-07-21T09:39:50Z</time>
      </trkpt>
      <trkpt lat="44.12672" lon="5.17897">
        <ele>321.4</ele>
        <time>2022-07-21T09:39:51Z</time>
      </trkpt>
      <trkpt lat="44.12673" lon="5.17896">
        <ele>321.5</ele>
        <time>2022-07-21T09:39:52Z</time>
      </trkpt>
      <trkpt lat="44.12676" lon="5.17894">
        <ele>321.6</ele>
        <time>2022-07-21T09:39:53Z</time>
      </trkpt>
      <trkpt lat="44.12677" lon="5.17893">
        <ele>321.7</ele>
        <time>2022-07-21T09:39:54Z</time>
      </trkpt>
      <trkpt lat="44.12679" lon="5.1789">
        <ele>321.9</ele>
        <time>2022-07-21T09:39:55Z</time>
      </trkpt>
      <trkpt lat="44.1268" lon="5.1789">
        <ele>321.9</ele>
        <time>2022-07-21T09:39:56Z</time>
      </trkpt>
      <trkpt lat="44.12683" lon="5.17888">
        <ele>322.1</ele>
        <time>2022-07-21T09:39:57Z</time>
      </trkpt>
      <trkpt lat="44.12684" lon="5.17887">
        <ele>322.2</ele>
        <time>2022-07-21T09:39:58Z</time>
      </trkpt>
      <trkpt lat="44.12687" lon="5.17885">
        <ele>322.3</ele>
        <time>2022-07-21T09:39:59Z</time>
      </trkpt>
      <trkpt lat="44.12688" lon="5.17884">
        <ele>322.4</ele>
        <time>2022-07-21T09:40:00Z</time>
      </trkpt>
      <trkpt lat="44.12691" lon="5.17882">
        <ele>322.5</ele>
        <time>2022-07-21T09:40:01Z</time>
      </trkpt>
      <trkpt lat="44.12691" lon="5.17881">
        <ele>322.6</ele>
        <time>2022-07-21T09:40:02Z</time>
      </trkpt>
      <trkpt lat="44.12695" lon="5.17879">
        <ele>322.8</ele>
        <time>2022-07-21T09:40:03Z</time>
      </trkpt>
      <trkpt lat="44.12696" lon="5.17878">
        <ele>322.9</ele>
        <time>2022-07-21T09:40:04Z</time>
      </trkpt>
      <trkpt lat="44.12699" lon="5.17875">
        <ele>323</ele>
        <time>2022-07-21T09:40:05Z</time>
      </trkpt>
      <trkpt lat="44.127" lon="5.17875">
        <ele>323.1</ele>
        <time>2022-07-21T09:40:06Z</time>
      </trkpt>
      <trkpt lat="44.12703" lon="5.17872">
        <ele>323.3</ele>
        <time>2022-07-21T09:40:07Z</time>
      </trkpt>
      <trkpt lat="44.12704" lon="5.17871">
        <ele>323.4</ele>
        <time>2022-07-21T09:40:08Z</time>
      </trkpt>
      <trkpt lat="44.12707" lon="5.17868">
        <ele>323.6</ele>
        <time>2022-07-21T09:40:09Z</time>
      </trkpt>
      <trkpt lat="44.12708" lon="5.17868">
        <ele>323.6</ele>
        <time>2022-07-21T09:40:10Z</time>
      </trkpt>
      <trkpt lat="44.12711" lon="5.17865">
        <ele>323.8</ele>
        <time>2022-07-21T09:40:11Z</time>
      </trkpt>
      <trkpt lat="44.12712" lon="5.17864">
        <ele>323.8</ele>
        <time>2022-07-21T09:40:12Z</time>
      </trkpt>
      <trkpt lat="44.12715" lon="5.17862">
        <ele>324</ele>
        <time>2022-07-21T09:40:13Z</time>
      </trkpt>
      <trkpt lat="44.12716" lon="5.17861">
        <ele>324.1</ele>
        <time>2022-07-21T09:40:14Z</time>
      </trkpt>
      <trkpt lat="44.12719" lon="5.17858">
        <ele>324.2</ele>
        <time>2022-07-21T09:40:15Z</time>
      </trkpt>
      <trkpt lat="44.1272" lon="5.17857">
        <ele>324.3</ele>
        <time>2022-07-21T09:40:16Z</time>
      </trkpt>
      <trkpt lat="44.12723" lon="5.17855">
        <ele>324.5</ele>
        <time>2022-07-21T09:40:17Z</time>
      </trkpt>
      <trkpt lat="44.12724" lon="5.17854">
        <ele>324.5</ele>
        <time>2022-07-21T09:40:18Z</time>
      </trkpt>
      <trkpt lat="44.12727" lon="5.17851">
        <ele>324.7</ele>
        <time>2022-07-21T09:40:19Z</time>
      </trkpt>
      <trkpt lat="44.12728" lon="5.1785">
        <ele>324.7</ele>
        <time>2022-07-21T09:40:20Z</time>
      </trkpt>
      <trkpt lat="44.12731" lon="5.17848">
        <ele>324.9</ele>
        <time>2022-07-21T09:40:21Z</time>
      </trkpt>
      <trkpt lat="44.12732" lon="5.17847">
        <ele>324.9</ele>
        <time>2022-07-21T09:40:22Z</time>
      </trkpt>
      <trkpt lat="44.12735" lon="5.17844">
        <ele>325.1</ele>
        <time>2022-07-21T09:40:23Z</time>
      </trkpt>
      <trkpt lat="44.12736" lon="5.17843">
        <ele>325.2</ele>
        <time>2022-07-21T09:40:24Z</time>
      </trkpt>
      <trkpt lat="44.12739" lon="5.1784">
        <ele>325.3</ele>
        <time>2022-07-21T09:40:25Z</time>
      </trkpt>
      <trkpt lat="44.1274" lon="5.17839">
        <ele>325.4</ele>
        <time>2022-07-21T09:40:26Z</time>
      </trkpt>
      <trkpt lat="44.12743" lon="5.17837">
        <ele>325.5</ele>
        <time>2022-07-21T09:40:27Z</time>
      </trkpt>
      <trkpt lat="44.12744" lon="5.17836">
        <ele>325.5</ele>
        <time>2022-07-21T09:40:28Z</time>
      </trkpt>
      <trkpt lat="44.12747" lon="5.17833">
        <ele>325.7</ele>
        <time>2022-07-21T09:40:29Z</time>
      </trkpt>
      <trkpt lat="44.12748" lon="5.17832">
        <ele>325.7</ele>
        <time>2022-07-21T09:40:30Z</time>
      </trkpt>
      <trkpt lat="44.12752" lon="5.17829">
        <ele>325.8</ele>
        <time>2022-07-21T09:40:31Z</time>
      </trkpt>
      <trkpt lat="44.12753" lon="5.17828">
        <ele>325.9</ele>
        <time>2022-07-21T09:40:32Z</time>
      </trkpt>
      <trkpt lat="44.12756" lon="5.17825">
        <ele>326</ele>
        <time>2022-07-21T09:40:33Z</time>
      </trkpt>
      <trkpt lat="44.12757" lon="5.17824">
        <ele>326.1</ele>
        <time>2022-07-21T09:40:34Z</time>
      </trkpt>
      <trkpt lat="44.1276" lon="5.17822">
        <ele>326.2</ele>
        <time>2022-07-21T09:40:35Z</time>
      </trkpt>
      <trkpt lat="44.12762" lon="5.1782">
        <ele>326.3</ele>
        <time>2022-07-21T09:40:36Z</time>
      </trkpt>
      <trkpt lat="44.12764" lon="5.17817">
        <ele>326.3</ele>
        <time>2022-07-21T09:40:37Z</time>
      </trkpt>
      <trkpt lat="44.12767" lon="5.17815">
        <ele>326.4</ele>
        <time>2022-07-21T09:40:38Z</time>
      </trkpt>
      <trkpt lat="44.12769" lon="5.17813">
        <ele>326.5</ele>
        <time>2022-07-21T09:40:39Z</time>
      </trkpt>
      <trkpt lat="44.12772" lon="5.17812">
        <ele>326.6</ele>
        <time>2022-07-21T09:40:40Z</time>
      </trkpt>
      <trkpt lat="44.12774" lon="5.1781">
        <ele>326.7</ele>
        <time>2022-07-21T09:40:41Z</time>
      </trkpt>
      <trkpt lat="44.12777" lon="5.17808">
        <ele>326.8</ele>
        <time>2022-07-21T09:40:42Z</time>
      </trkpt>
      <trkpt lat="44.1278" lon="5.17805">
        <ele>326.9</ele>
        <time>2022-07-21T09:40:43Z</time>
      </trkpt>
      <trkpt lat="44.12782" lon="5.17803">
        <ele>327</ele>
        <time>2022-07-21T09:40:44Z</time>
      </trkpt>
      <trkpt lat="44.12784" lon="5.17801">
        <ele>327.1</ele>
        <time>2022-07-21T09:40:45Z</time>
      </trkpt>
      <trkpt lat="44.12786" lon="5.17799">
        <ele>327.1</ele>
        <time>2022-07-21T09:40:46Z</time>
      </trkpt>
      <trkpt lat="44.12789" lon="5.17796">
        <ele>327.2</ele>
        <time>2022-07-21T09:40:47Z</time>
      </trkpt>
      <trkpt lat="44.12791" lon="5.17794">
        <ele>327.3</ele>
        <time>2022-07-21T09:40:48Z</time>
      </trkpt>
      <trkpt lat="44.12794" lon="5.17792">
        <ele>327.3</ele>
        <time>2022-07-21T09:40:49Z</time>
      </trkpt>
      <trkpt lat="44.12796" lon="5.1779">
        <ele>327.4</ele>
        <time>2022-07-21T09:40:50Z</time>
      </trkpt>
      <trkpt lat="44.12799" lon="5.17789">
        <ele>327.4</ele>
        <time>2022-07-21T09:40:51Z</time>
      </trkpt>
      <trkpt lat="44.12801" lon="5.17787">
        <ele>327.5</ele>
        <time>2022-07-21T09:40:52Z</time>
      </trkpt>
      <trkpt lat="44.12804" lon="5.17785">
        <ele>327.6</ele>
        <time>2022-07-21T09:40:53Z</time>
      </trkpt>
      <trkpt lat="44.12806" lon="5.17783">
        <ele>327.6</ele>
        <time>2022-07-21T09:40:54Z</time>
      </trkpt>
      <trkpt lat="44.1281" lon="5.17781">
        <ele>327.7</ele>
        <time>2022-07-21T09:40:55Z</time>
      </trkpt>
      <trkpt lat="44.12811" lon="5.1778">
        <ele>327.8</ele>
        <time>2022-07-21T09:40:56Z</time>
      </trkpt>
      <trkpt lat="44.12814" lon="5.17778">
        <ele>327.8</ele>
        <time>2022-07-21T09:40:57Z</time>
      </trkpt>
      <trkpt lat="44.12816" lon="5.17776">
        <ele>327.9</ele>
        <time>2022-07-21T09:40:58Z</time>
      </trkpt>
      <trkpt lat="44.12819" lon="5.17774">
        <ele>328</ele>
        <time>2022-07-21T09:40:59Z</time>
      </trkpt>
      <trkpt lat="44.12821" lon="5.17772">
        <ele>328</ele>
        <time>2022-07-21T09:41:00Z</time>
      </trkpt>
      <trkpt lat="44.12824" lon="5.17771">
        <ele>328.1</ele>
        <time>2022-07-21T09:41:01Z</time>
      </trkpt>
      <trkpt lat="44.12827" lon="5.17769">
        <ele>328.1</ele>
        <time>2022-07-21T09:41:02Z</time>
      </trkpt>
      <trkpt lat="44.12829" lon="5.17768">
        <ele>328.2</ele>
        <time>2022-07-21T09:41:03Z</time>
      </trkpt>
      <trkpt lat="44.12832" lon="5.17766">
        <ele>328.2</ele>
        <time>2022-07-21T09:41:04Z</time>
      </trkpt>
      <trkpt lat="44.12836" lon="5.17765">
        <ele>328.3</ele>
        <time>2022-07-21T09:41:05Z</time>
      </trkpt>
      <trkpt lat="44.12837" lon="5.17765">
        <ele>328.3</ele>
        <time>2022-07-21T09:41:06Z</time>
      </trkpt>
      <trkpt lat="44.12841" lon="5.17764">
        <ele>328.4</ele>
        <time>2022-07-21T09:41:07Z</time>
      </trkpt>
      <trkpt lat="44.12842" lon="5.17764">
        <ele>328.4</ele>
        <time>2022-07-21T09:41:08Z</time>
      </trkpt>
      <trkpt lat="44.12846" lon="5.17762">
        <ele>328.5</ele>
        <time>2022-07-21T09:41:09Z</time>
      </trkpt>
      <trkpt lat="44.12848" lon="5.17762">
        <ele>328.5</ele>
        <time>2022-07-21T09:41:10Z</time>
      </trkpt>
      <trkpt lat="44.1285" lon="5.1776">
        <ele>328.5</ele>
        <time>2022-07-21T09:41:11Z</time>
      </trkpt>
      <trkpt lat="44.12853" lon="5.17759">
        <ele>328.6</ele>
        <time>2022-07-21T09:41:12Z</time>
      </trkpt>
      <trkpt lat="44.12856" lon="5.17757">
        <ele>328.7</ele>
        <time>2022-07-21T09:41:13Z</time>
      </trkpt>
      <trkpt lat="44.12858" lon="5.17754">
        <ele>328.7</ele>
        <time>2022-07-21T09:41:14Z</time>
      </trkpt>
      <trkpt lat="44.12861" lon="5.17751">
        <ele>328.8</ele>
        <time>2022-07-21T09:41:15Z</time>
      </trkpt>
      <trkpt lat="44.12863" lon="5.17749">
        <ele>328.9</ele>
        <time>2022-07-21T09:41:16Z</time>
      </trkpt>
      <trkpt lat="44.12866" lon="5.17745">
        <ele>329.1</ele>
        <time>2022-07-21T09:41:17Z</time>
      </trkpt>
      <trkpt lat="44.12868" lon="5.17742">
        <ele>329.2</ele>
        <time>2022-07-21T09:41:18Z</time>
      </trkpt>
      <trkpt lat="44.12871" lon="5.17739">
        <ele>329.4</ele>
        <time>2022-07-21T09:41:19Z</time>
      </trkpt>
      <trkpt lat="44.12873" lon="5.17736">
        <ele>329.5</ele>
        <time>2022-07-21T09:41:20Z</time>
      </trkpt>
      <trkpt lat="44.12875" lon="5.17733">
        <ele>329.6</ele>
        <time>2022-07-21T09:41:21Z</time>
      </trkpt>
      <trkpt lat="44.12877" lon="5.1773">
        <ele>329.7</ele>
        <time>2022-07-21T09:41:22Z</time>
      </trkpt>
      <trkpt lat="44.12879" lon="5.17727">
        <ele>329.9</ele>
        <time>2022-07-21T09:41:23Z</time>
      </trkpt>
      <trkpt lat="44.12881" lon="5.17724">
        <ele>330.1</ele>
        <time>2022-07-21T09:41:24Z</time>
      </trkpt>
      <trkpt lat="44.12884" lon="5.17721">
        <ele>330.2</ele>
        <time>2022-07-21T09:41:25Z</time>
      </trkpt>
      <trkpt lat="44.12885" lon="5.1772">
        <ele>330.2</ele>
        <time>2022-07-21T09:41:26Z</time>
      </trkpt>
      <trkpt lat="44.12888" lon="5.17718">
        <ele>330.3</ele>
        <time>2022-07-21T09:41:27Z</time>
      </trkpt>
      <trkpt lat="44.1289" lon="5.17717">
        <ele>330.3</ele>
        <time>2022-07-21T09:41:28Z</time>
      </trkpt>
      <trkpt lat="44.12892" lon="5.17715">
        <ele>330.4</ele>
        <time>2022-07-21T09:41:29Z</time>
      </trkpt>
      <trkpt lat="44.12895" lon="5.17714">
        <ele>330.5</ele>
        <time>2022-07-21T09:41:30Z</time>
      </trkpt>
      <trkpt lat="44.12897" lon="5.17712">
        <ele>330.5</ele>
        <time>2022-07-21T09:41:31Z</time>
      </trkpt>
      <trkpt lat="44.129" lon="5.1771">
        <ele>330.6</ele>
        <time>2022-07-21T09:41:32Z</time>
      </trkpt>
      <trkpt lat="44.12903" lon="5.17708">
        <ele>330.7</ele>
        <time>2022-07-21T09:41:33Z</time>
      </trkpt>
      <trkpt lat="44.12904" lon="5.17708">
        <ele>330.7</ele>
        <time>2022-07-21T09:41:34Z</time>
      </trkpt>
      <trkpt lat="44.12907" lon="5.17706">
        <ele>330.8</ele>
        <time>2022-07-21T09:41:35Z</time>
      </trkpt>
      <trkpt lat="44.1291" lon="5.17704">
        <ele>330.8</ele>
        <time>2022-07-21T09:41:36Z</time>
      </trkpt>
      <trkpt lat="44.12913" lon="5.17702">
        <ele>330.9</ele>
        <time>2022-07-21T09:41:37Z</time>
      </trkpt>
      <trkpt lat="44.12915" lon="5.177">
        <ele>331</ele>
        <time>2022-07-21T09:41:38Z</time>
      </trkpt>
      <trkpt lat="44.12918" lon="5.17697">
        <ele>331</ele>
        <time>2022-07-21T09:41:39Z</time>
      </trkpt>
      <trkpt lat="44.1292" lon="5.17695">
        <ele>331</ele>
        <time>2022-07-21T09:41:40Z</time>
      </trkpt>
      <trkpt lat="44.12923" lon="5.17692">
        <ele>331.1</ele>
        <time>2022-07-21T09:41:41Z</time>
      </trkpt>
      <trkpt lat="44.12925" lon="5.1769">
        <ele>331.2</ele>
        <time>2022-07-21T09:41:42Z</time>
      </trkpt>
      <trkpt lat="44.12928" lon="5.17687">
        <ele>331.2</ele>
        <time>2022-07-21T09:41:43Z</time>
      </trkpt>
      <trkpt lat="44.1293" lon="5.17685">
        <ele>331.3</ele>
        <time>2022-07-21T09:41:44Z</time>
      </trkpt>
      <trkpt lat="44.12933" lon="5.17682">
        <ele>331.3</ele>
        <time>2022-07-21T09:41:45Z</time>
      </trkpt>
      <trkpt lat="44.12935" lon="5.17679">
        <ele>331.4</ele>
        <time>2022-07-21T09:41:46Z</time>
      </trkpt>
      <trkpt lat="44.12937" lon="5.17677">
        <ele>331.5</ele>
        <time>2022-07-21T09:41:47Z</time>
      </trkpt>
      <trkpt lat="44.12939" lon="5.17674">
        <ele>331.5</ele>
        <time>2022-07-21T09:41:48Z</time>
      </trkpt>
      <trkpt lat="44.12941" lon="5.17671">
        <ele>331.6</ele>
        <time>2022-07-21T09:41:49Z</time>
      </trkpt>
      <trkpt lat="44.12943" lon="5.17668">
        <ele>331.7</ele>
        <time>2022-07-21T09:41:50Z</time>
      </trkpt>
      <trkpt lat="44.12946" lon="5.17665">
        <ele>331.7</ele>
        <time>2022-07-21T09:41:51Z</time>
      </trkpt>
      <trkpt lat="44.12948" lon="5.17662">
        <ele>331.8</ele>
        <time>2022-07-21T09:41:52Z</time>
      </trkpt>
      <trkpt lat="44.1295" lon="5.17659">
        <ele>331.9</ele>
        <time>2022-07-21T09:41:53Z</time>
      </trkpt>
      <trkpt lat="44.12952" lon="5.17656">
        <ele>331.9</ele>
        <time>2022-07-21T09:41:54Z</time>
      </trkpt>
      <trkpt lat="44.12954" lon="5.17653">
        <ele>332</ele>
        <time>2022-07-21T09:41:55Z</time>
      </trkpt>
      <trkpt lat="44.12957" lon="5.17651">
        <ele>332.1</ele>
        <time>2022-07-21T09:41:56Z</time>
      </trkpt>
      <trkpt lat="44.12958" lon="5.17648">
        <ele>332.1</ele>
        <time>2022-07-21T09:41:57Z</time>
      </trkpt>
      <trkpt lat="44.1296" lon="5.17644">
        <ele>332.2</ele>
        <time>2022-07-21T09:41:58Z</time>
      </trkpt>
      <trkpt lat="44.12962" lon="5.17641">
        <ele>332.3</ele>
        <time>2022-07-21T09:41:59Z</time>
      </trkpt>
      <trkpt lat="44.12964" lon="5.17638">
        <ele>332.4</ele>
        <time>2022-07-21T09:42:00Z</time>
      </trkpt>
      <trkpt lat="44.12966" lon="5.17635">
        <ele>332.4</ele>
        <time>2022-07-21T09:42:01Z</time>
      </trkpt>
      <trkpt lat="44.12968" lon="5.17631">
        <ele>332.5</ele>
        <time>2022-07-21T09:42:02Z</time>
      </trkpt>
      <trkpt lat="44.1297" lon="5.17628">
        <ele>332.6</ele>
        <time>2022-07-21T09:42:03Z</time>
      </trkpt>
      <trkpt lat="44.12972" lon="5.17624">
        <ele>332.7</ele>
        <time>2022-07-21T09:42:04Z</time>
      </trkpt>
      <trkpt lat="44.12973" lon="5.17621">
        <ele>332.8</ele>
        <time>2022-07-21T09:42:05Z</time>
      </trkpt>
      <trkpt lat="44.12975" lon="5.17618">
        <ele>332.8</ele>
        <time>2022-07-21T09:42:06Z</time>
      </trkpt>
      <trkpt lat="44.12977" lon="5.17614">
        <ele>332.9</ele>
        <time>2022-07-21T09:42:07Z</time>
      </trkpt>
      <trkpt lat="44.12978" lon="5.1761">
        <ele>333</ele>
        <time>2022-07-21T09:42:08Z</time>
      </trkpt>
      <trkpt lat="44.1298" lon="5.17607">
        <ele>333.1</ele>
        <time>2022-07-21T09:42:09Z</time>
      </trkpt>
      <trkpt lat="44.12981" lon="5.17603">
        <ele>333.2</ele>
        <time>2022-07-21T09:42:10Z</time>
      </trkpt>
      <trkpt lat="44.12983" lon="5.17599">
        <ele>333.3</ele>
        <time>2022-07-21T09:42:11Z</time>
      </trkpt>
      <trkpt lat="44.12984" lon="5.17595">
        <ele>333.3</ele>
        <time>2022-07-21T09:42:12Z</time>
      </trkpt>
      <trkpt lat="44.12986" lon="5.17591">
        <ele>333.4</ele>
        <time>2022-07-21T09:42:13Z</time>
      </trkpt>
      <trkpt lat="44.12987" lon="5.17587">
        <ele>333.5</ele>
        <time>2022-07-21T09:42:14Z</time>
      </trkpt>
      <trkpt lat="44.12988" lon="5.17583">
        <ele>333.6</ele>
        <time>2022-07-21T09:42:15Z</time>
      </trkpt>
      <trkpt lat="44.1299" lon="5.17579">
        <ele>333.7</ele>
        <time>2022-07-21T09:42:16Z</time>
      </trkpt>
      <trkpt lat="44.12991" lon="5.17575">
        <ele>333.8</ele>
        <time>2022-07-21T09:42:17Z</time>
      </trkpt>
      <trkpt lat="44.12992" lon="5.17571">
        <ele>333.9</ele>
        <time>2022-07-21T09:42:18Z</time>
      </trkpt>
      <trkpt lat="44.12993" lon="5.17567">
        <ele>334</ele>
        <time>2022-07-21T09:42:19Z</time>
      </trkpt>
      <trkpt lat="44.12994" lon="5.17563">
        <ele>334</ele>
        <time>2022-07-21T09:42:20Z</time>
      </trkpt>
      <trkpt lat="44.12995" lon="5.17559">
        <ele>334.1</ele>
        <time>2022-07-21T09:42:21Z</time>
      </trkpt>
      <trkpt lat="44.12996" lon="5.17555">
        <ele>334.2</ele>
        <time>2022-07-21T09:42:22Z</time>
      </trkpt>
      <trkpt lat="44.12997" lon="5.17551">
        <ele>334.3</ele>
        <time>2022-07-21T09:42:23Z</time>
      </trkpt>
      <trkpt lat="44.12998" lon="5.17547">
        <ele>334.4</ele>
        <time>2022-07-21T09:42:24Z</time>
      </trkpt>
      <trkpt lat="44.12998" lon="5.17543">
        <ele>334.5</ele>
        <time>2022-07-21T09:42:25Z</time>
      </trkpt>
      <trkpt lat="44.12999" lon="5.17539">
        <ele>334.5</ele>
        <time>2022-07-21T09:42:26Z</time>
      </trkpt>
      <trkpt lat="44.13" lon="5.17535">
        <ele>334.6</ele>
        <time>2022-07-21T09:42:27Z</time>
      </trkpt>
      <trkpt lat="44.13001" lon="5.17531">
        <ele>334.7</ele>
        <time>2022-07-21T09:42:28Z</time>
      </trkpt>
      <trkpt lat="44.13001" lon="5.17528">
        <ele>334.8</ele>
        <time>2022-07-21T09:42:29Z</time>
      </trkpt>
      <trkpt lat="44.13002" lon="5.17524">
        <ele>334.9</ele>
        <time>2022-07-21T09:42:30Z</time>
      </trkpt>
      <trkpt lat="44.13003" lon="5.1752">
        <ele>335</ele>
        <time>2022-07-21T09:42:31Z</time>
      </trkpt>
      <trkpt lat="44.13004" lon="5.17515">
        <ele>335.2</ele>
        <time>2022-07-21T09:42:32Z</time>
      </trkpt>
      <trkpt lat="44.13004" lon="5.17513">
        <ele>335.2</ele>
        <time>2022-07-21T09:42:33Z</time>
      </trkpt>
      <trkpt lat="44.13005" lon="5.17509">
        <ele>335.3</ele>
        <time>2022-07-21T09:42:34Z</time>
      </trkpt>
      <trkpt lat="44.13006" lon="5.17504">
        <ele>335.5</ele>
        <time>2022-07-21T09:42:35Z</time>
      </trkpt>
      <trkpt lat="44.13006" lon="5.17502">
        <ele>335.5</ele>
        <time>2022-07-21T09:42:36Z</time>
      </trkpt>
      <trkpt lat="44.13007" lon="5.17497">
        <ele>335.7</ele>
        <time>2022-07-21T09:42:37Z</time>
      </trkpt>
      <trkpt lat="44.13007" lon="5.17495">
        <ele>335.7</ele>
        <time>2022-07-21T09:42:38Z</time>
      </trkpt>
      <trkpt lat="44.13008" lon="5.1749">
        <ele>335.9</ele>
        <time>2022-07-21T09:42:39Z</time>
      </trkpt>
      <trkpt lat="44.13009" lon="5.17488">
        <ele>335.9</ele>
        <time>2022-07-21T09:42:40Z</time>
      </trkpt>
      <trkpt lat="44.13009" lon="5.17483">
        <ele>336.1</ele>
        <time>2022-07-21T09:42:41Z</time>
      </trkpt>
      <trkpt lat="44.1301" lon="5.17481">
        <ele>336.2</ele>
        <time>2022-07-21T09:42:42Z</time>
      </trkpt>
      <trkpt lat="44.1301" lon="5.17475">
        <ele>336.3</ele>
        <time>2022-07-21T09:42:43Z</time>
      </trkpt>
      <trkpt lat="44.13011" lon="5.17473">
        <ele>336.4</ele>
        <time>2022-07-21T09:42:44Z</time>
      </trkpt>
      <trkpt lat="44.13012" lon="5.17468">
        <ele>336.5</ele>
        <time>2022-07-21T09:42:45Z</time>
      </trkpt>
      <trkpt lat="44.13012" lon="5.17467">
        <ele>336.6</ele>
        <time>2022-07-21T09:42:46Z</time>
      </trkpt>
      <trkpt lat="44.13013" lon="5.17462">
        <ele>336.7</ele>
        <time>2022-07-21T09:42:47Z</time>
      </trkpt>
      <trkpt lat="44.13013" lon="5.1746">
        <ele>336.8</ele>
        <time>2022-07-21T09:42:48Z</time>
      </trkpt>
      <trkpt lat="44.13014" lon="5.17455">
        <ele>337</ele>
        <time>2022-07-21T09:42:49Z</time>
      </trkpt>
      <trkpt lat="44.13014" lon="5.17453">
        <ele>337</ele>
        <time>2022-07-21T09:42:50Z</time>
      </trkpt>
      <trkpt lat="44.13015" lon="5.17449">
        <ele>337.2</ele>
        <time>2022-07-21T09:42:51Z</time>
      </trkpt>
      <trkpt lat="44.13015" lon="5.17447">
        <ele>337.2</ele>
        <time>2022-07-21T09:42:52Z</time>
      </trkpt>
      <trkpt lat="44.13016" lon="5.17442">
        <ele>337.4</ele>
        <time>2022-07-21T09:42:53Z</time>
      </trkpt>
      <trkpt lat="44.13016" lon="5.17441">
        <ele>337.4</ele>
        <time>2022-07-21T09:42:54Z</time>
      </trkpt>
      <trkpt lat="44.13017" lon="5.17436">
        <ele>337.6</ele>
        <time>2022-07-21T09:42:55Z</time>
      </trkpt>
      <trkpt lat="44.13017" lon="5.17434">
        <ele>337.6</ele>
        <time>2022-07-21T09:42:56Z</time>
      </trkpt>
      <trkpt lat="44.13018" lon="5.17429">
        <ele>337.8</ele>
        <time>2022-07-21T09:42:57Z</time>
      </trkpt>
      <trkpt lat="44.13018" lon="5.17428">
        <ele>337.9</ele>
        <time>2022-07-21T09:42:58Z</time>
      </trkpt>
      <trkpt lat="44.13019" lon="5.17423">
        <ele>338</ele>
        <time>2022-07-21T09:42:59Z</time>
      </trkpt>
      <trkpt lat="44.13019" lon="5.17422">
        <ele>338</ele>
        <time>2022-07-21T09:43:00Z</time>
      </trkpt>
      <trkpt lat="44.1302" lon="5.17417">
        <ele>338.2</ele>
        <time>2022-07-21T09:43:01Z</time>
      </trkpt>
      <trkpt lat="44.1302" lon="5.17415">
        <ele>338.2</ele>
        <time>2022-07-21T09:43:02Z</time>
      </trkpt>
      <trkpt lat="44.13021" lon="5.1741">
        <ele>338.4</ele>
        <time>2022-07-21T09:43:03Z</time>
      </trkpt>
      <trkpt lat="44.13022" lon="5.17409">
        <ele>338.4</ele>
        <time>2022-07-21T09:43:04Z</time>
      </trkpt>
      <trkpt lat="44.13022" lon="5.17404">
        <ele>338.6</ele>
        <time>2022-07-21T09:43:05Z</time>
      </trkpt>
      <trkpt lat="44.13022" lon="5.17402">
        <ele>338.6</ele>
        <time>2022-07-21T09:43:06Z</time>
      </trkpt>
      <trkpt lat="44.13023" lon="5.17397">
        <ele>338.8</ele>
        <time>2022-07-21T09:43:07Z</time>
      </trkpt>
      <trkpt lat="44.13023" lon="5.17395">
        <ele>338.8</ele>
        <time>2022-07-21T09:43:08Z</time>
      </trkpt>
      <trkpt lat="44.13024" lon="5.17391">
        <ele>338.9</ele>
        <time>2022-07-21T09:43:09Z</time>
      </trkpt>
      <trkpt lat="44.13025" lon="5.17389">
        <ele>339</ele>
        <time>2022-07-21T09:43:10Z</time>
      </trkpt>
      <trkpt lat="44.13026" lon="5.17384">
        <ele>339.1</ele>
        <time>2022-07-21T09:43:11Z</time>
      </trkpt>
      <trkpt lat="44.13026" lon="5.17383">
        <ele>339.2</ele>
        <time>2022-07-21T09:43:12Z</time>
      </trkpt>
      <trkpt lat="44.13027" lon="5.17378">
        <ele>339.3</ele>
        <time>2022-07-21T09:43:13Z</time>
      </trkpt>
      <trkpt lat="44.13027" lon="5.17376">
        <ele>339.4</ele>
        <time>2022-07-21T09:43:14Z</time>
      </trkpt>
      <trkpt lat="44.13028" lon="5.17371">
        <ele>339.5</ele>
        <time>2022-07-21T09:43:15Z</time>
      </trkpt>
      <trkpt lat="44.13028" lon="5.17369">
        <ele>339.6</ele>
        <time>2022-07-21T09:43:16Z</time>
      </trkpt>
      <trkpt lat="44.13029" lon="5.17364">
        <ele>339.7</ele>
        <time>2022-07-21T09:43:17Z</time>
      </trkpt>
      <trkpt lat="44.13029" lon="5.17362">
        <ele>339.8</ele>
        <time>2022-07-21T09:43:18Z</time>
      </trkpt>
      <trkpt lat="44.1303" lon="5.17357">
        <ele>339.9</ele>
        <time>2022-07-21T09:43:19Z</time>
      </trkpt>
      <trkpt lat="44.1303" lon="5.17356">
        <ele>339.9</ele>
        <time>2022-07-21T09:43:20Z</time>
      </trkpt>
      <trkpt lat="44.13031" lon="5.17351">
        <ele>340.1</ele>
        <time>2022-07-21T09:43:21Z</time>
      </trkpt>
      <trkpt lat="44.13031" lon="5.17349">
        <ele>340.1</ele>
        <time>2022-07-21T09:43:22Z</time>
      </trkpt>
      <trkpt lat="44.13032" lon="5.17345">
        <ele>340.2</ele>
        <time>2022-07-21T09:43:23Z</time>
      </trkpt>
      <trkpt lat="44.13032" lon="5.17343">
        <ele>340.3</ele>
        <time>2022-07-21T09:43:24Z</time>
      </trkpt>
      <trkpt lat="44.13032" lon="5.17338">
        <ele>340.4</ele>
        <time>2022-07-21T09:43:25Z</time>
      </trkpt>
      <trkpt lat="44.13033" lon="5.17337">
        <ele>340.4</ele>
        <time>2022-07-21T09:43:26Z</time>
      </trkpt>
      <trkpt lat="44.13034" lon="5.17332">
        <ele>340.5</ele>
        <time>2022-07-21T09:43:27Z</time>
      </trkpt>
      <trkpt lat="44.13034" lon="5.1733">
        <ele>340.6</ele>
        <time>2022-07-21T09:43:28Z</time>
      </trkpt>
      <trkpt lat="44.13035" lon="5.17324">
        <ele>340.7</ele>
        <time>2022-07-21T09:43:29Z</time>
      </trkpt>
      <trkpt lat="44.13035" lon="5.17323">
        <ele>340.8</ele>
        <time>2022-07-21T09:43:30Z</time>
      </trkpt>
      <trkpt lat="44.13037" lon="5.17317">
        <ele>340.9</ele>
        <time>2022-07-21T09:43:31Z</time>
      </trkpt>
      <trkpt lat="44.13037" lon="5.17316">
        <ele>340.9</ele>
        <time>2022-07-21T09:43:32Z</time>
      </trkpt>
      <trkpt lat="44.13038" lon="5.17312">
        <ele>341</ele>
        <time>2022-07-21T09:43:33Z</time>
      </trkpt>
      <trkpt lat="44.13039" lon="5.17308">
        <ele>341.1</ele>
        <time>2022-07-21T09:43:34Z</time>
      </trkpt>
      <trkpt lat="44.1304" lon="5.17304">
        <ele>341.2</ele>
        <time>2022-07-21T09:43:35Z</time>
      </trkpt>
      <trkpt lat="44.13041" lon="5.173">
        <ele>341.2</ele>
        <time>2022-07-21T09:43:36Z</time>
      </trkpt>
      <trkpt lat="44.13042" lon="5.17295">
        <ele>341.3</ele>
        <time>2022-07-21T09:43:37Z</time>
      </trkpt>
      <trkpt lat="44.13043" lon="5.17291">
        <ele>341.3</ele>
        <time>2022-07-21T09:43:38Z</time>
      </trkpt>
      <trkpt lat="44.13045" lon="5.17287">
        <ele>341.4</ele>
        <time>2022-07-21T09:43:39Z</time>
      </trkpt>
      <trkpt lat="44.13046" lon="5.17283">
        <ele>341.4</ele>
        <time>2022-07-21T09:43:40Z</time>
      </trkpt>
      <trkpt lat="44.13048" lon="5.17279">
        <ele>341.4</ele>
        <time>2022-07-21T09:43:41Z</time>
      </trkpt>
      <trkpt lat="44.1305" lon="5.17275">
        <ele>341.5</ele>
        <time>2022-07-21T09:43:42Z</time>
      </trkpt>
      <trkpt lat="44.13052" lon="5.17271">
        <ele>341.5</ele>
        <time>2022-07-21T09:43:43Z</time>
      </trkpt>
      <trkpt lat="44.13054" lon="5.17267">
        <ele>341.5</ele>
        <time>2022-07-21T09:43:44Z</time>
      </trkpt>
      <trkpt lat="44.13056" lon="5.17263">
        <ele>341.5</ele>
        <time>2022-07-21T09:43:45Z</time>
      </trkpt>
      <trkpt lat="44.13059" lon="5.17259">
        <ele>341.5</ele>
        <time>2022-07-21T09:43:46Z</time>
      </trkpt>
      <trkpt lat="44.13061" lon="5.17255">
        <ele>341.5</ele>
        <time>2022-07-21T09:43:47Z</time>
      </trkpt>
      <trkpt lat="44.13064" lon="5.17251">
        <ele>341.5</ele>
        <time>2022-07-21T09:43:48Z</time>
      </trkpt>
      <trkpt lat="44.13066" lon="5.17247">
        <ele>341.6</ele>
        <time>2022-07-21T09:43:49Z</time>
      </trkpt>
      <trkpt lat="44.13069" lon="5.17244">
        <ele>341.6</ele>
        <time>2022-07-21T09:43:50Z</time>
      </trkpt>
      <trkpt lat="44.13072" lon="5.1724">
        <ele>341.6</ele>
        <time>2022-07-21T09:43:51Z</time>
      </trkpt>
      <trkpt lat="44.13075" lon="5.17236">
        <ele>341.6</ele>
        <time>2022-07-21T09:43:52Z</time>
      </trkpt>
      <trkpt lat="44.13078" lon="5.17232">
        <ele>341.7</ele>
        <time>2022-07-21T09:43:53Z</time>
      </trkpt>
      <trkpt lat="44.13081" lon="5.17229">
        <ele>341.8</ele>
        <time>2022-07-21T09:43:54Z</time>
      </trkpt>
      <trkpt lat="44.13083" lon="5.17226">
        <ele>341.8</ele>
        <time>2022-07-21T09:43:55Z</time>
      </trkpt>
      <trkpt lat="44.13086" lon="5.17222">
        <ele>341.9</ele>
        <time>2022-07-21T09:43:56Z</time>
      </trkpt>
      <trkpt lat="44.13088" lon="5.17219">
        <ele>342</ele>
        <time>2022-07-21T09:43:57Z</time>
      </trkpt>
      <trkpt lat="44.13091" lon="5.17216">
        <ele>342</ele>
        <time>2022-07-21T09:43:58Z</time>
      </trkpt>
      <trkpt lat="44.13094" lon="5.17214">
        <ele>342.1</ele>
        <time>2022-07-21T09:43:59Z</time>
      </trkpt>
      <trkpt lat="44.13097" lon="5.17211">
        <ele>342.2</ele>
        <time>2022-07-21T09:44:00Z</time>
      </trkpt>
      <trkpt lat="44.13099" lon="5.17209">
        <ele>342.3</ele>
        <time>2022-07-21T09:44:01Z</time>
      </trkpt>
      <trkpt lat="44.13101" lon="5.17206">
        <ele>342.4</ele>
        <time>2022-07-21T09:44:02Z</time>
      </trkpt>
      <trkpt lat="44.13104" lon="5.17203">
        <ele>342.5</ele>
        <time>2022-07-21T09:44:03Z</time>
      </trkpt>
      <trkpt lat="44.13106" lon="5.172">
        <ele>342.5</ele>
        <time>2022-07-21T09:44:04Z</time>
      </trkpt>
      <trkpt lat="44.13109" lon="5.17197">
        <ele>342.7</ele>
        <time>2022-07-21T09:44:05Z</time>
      </trkpt>
      <trkpt lat="44.13109" lon="5.17196">
        <ele>342.7</ele>
        <time>2022-07-21T09:44:06Z</time>
      </trkpt>
      <trkpt lat="44.13112" lon="5.17193">
        <ele>342.9</ele>
        <time>2022-07-21T09:44:07Z</time>
      </trkpt>
      <trkpt lat="44.13113" lon="5.17191">
        <ele>342.9</ele>
        <time>2022-07-21T09:44:08Z</time>
      </trkpt>
      <trkpt lat="44.13116" lon="5.17187">
        <ele>343.1</ele>
        <time>2022-07-21T09:44:09Z</time>
      </trkpt>
      <trkpt lat="44.13117" lon="5.17185">
        <ele>343.1</ele>
        <time>2022-07-21T09:44:10Z</time>
      </trkpt>
      <trkpt lat="44.13119" lon="5.17182">
        <ele>343.3</ele>
        <time>2022-07-21T09:44:11Z</time>
      </trkpt>
      <trkpt lat="44.13121" lon="5.17179">
        <ele>343.4</ele>
        <time>2022-07-21T09:44:12Z</time>
      </trkpt>
      <trkpt lat="44.13123" lon="5.17176">
        <ele>343.5</ele>
        <time>2022-07-21T09:44:13Z</time>
      </trkpt>
      <trkpt lat="44.13124" lon="5.17174">
        <ele>343.6</ele>
        <time>2022-07-21T09:44:14Z</time>
      </trkpt>
      <trkpt lat="44.13127" lon="5.17171">
        <ele>343.8</ele>
        <time>2022-07-21T09:44:15Z</time>
      </trkpt>
      <trkpt lat="44.13128" lon="5.17169">
        <ele>343.8</ele>
        <time>2022-07-21T09:44:16Z</time>
      </trkpt>
      <trkpt lat="44.1313" lon="5.17167">
        <ele>344</ele>
        <time>2022-07-21T09:44:17Z</time>
      </trkpt>
      <trkpt lat="44.13133" lon="5.17163">
        <ele>344.2</ele>
        <time>2022-07-21T09:44:18Z</time>
      </trkpt>
      <trkpt lat="44.13134" lon="5.17162">
        <ele>344.3</ele>
        <time>2022-07-21T09:44:19Z</time>
      </trkpt>
      <trkpt lat="44.13136" lon="5.17159">
        <ele>344.4</ele>
        <time>2022-07-21T09:44:20Z</time>
      </trkpt>
      <trkpt lat="44.13138" lon="5.17157">
        <ele>344.6</ele>
        <time>2022-07-21T09:44:21Z</time>
      </trkpt>
      <trkpt lat="44.1314" lon="5.17154">
        <ele>344.7</ele>
        <time>2022-07-21T09:44:22Z</time>
      </trkpt>
      <trkpt lat="44.13143" lon="5.17151">
        <ele>344.9</ele>
        <time>2022-07-21T09:44:23Z</time>
      </trkpt>
      <trkpt lat="44.13144" lon="5.17149">
        <ele>345</ele>
        <time>2022-07-21T09:44:24Z</time>
      </trkpt>
      <trkpt lat="44.13147" lon="5.17146">
        <ele>345.2</ele>
        <time>2022-07-21T09:44:25Z</time>
      </trkpt>
      <trkpt lat="44.13147" lon="5.17145">
        <ele>345.2</ele>
        <time>2022-07-21T09:44:26Z</time>
      </trkpt>
      <trkpt lat="44.1315" lon="5.17141">
        <ele>345.4</ele>
        <time>2022-07-21T09:44:27Z</time>
      </trkpt>
      <trkpt lat="44.13151" lon="5.1714">
        <ele>345.5</ele>
        <time>2022-07-21T09:44:28Z</time>
      </trkpt>
      <trkpt lat="44.13154" lon="5.17137">
        <ele>345.7</ele>
        <time>2022-07-21T09:44:29Z</time>
      </trkpt>
      <trkpt lat="44.13155" lon="5.17136">
        <ele>345.8</ele>
        <time>2022-07-21T09:44:30Z</time>
      </trkpt>
      <trkpt lat="44.13158" lon="5.17133">
        <ele>345.9</ele>
        <time>2022-07-21T09:44:31Z</time>
      </trkpt>
      <trkpt lat="44.13159" lon="5.17132">
        <ele>346</ele>
        <time>2022-07-21T09:44:32Z</time>
      </trkpt>
      <trkpt lat="44.13162" lon="5.17128">
        <ele>346.2</ele>
        <time>2022-07-21T09:44:33Z</time>
      </trkpt>
      <trkpt lat="44.13164" lon="5.17127">
        <ele>346.2</ele>
        <time>2022-07-21T09:44:34Z</time>
      </trkpt>
      <trkpt lat="44.13166" lon="5.17123">
        <ele>346.4</ele>
        <time>2022-07-21T09:44:35Z</time>
      </trkpt>
      <trkpt lat="44.13167" lon="5.17122">
        <ele>346.5</ele>
        <time>2022-07-21T09:44:36Z</time>
      </trkpt>
      <trkpt lat="44.1317" lon="5.17119">
        <ele>346.6</ele>
        <time>2022-07-21T09:44:37Z</time>
      </trkpt>
      <trkpt lat="44.13171" lon="5.17118">
        <ele>346.7</ele>
        <time>2022-07-21T09:44:38Z</time>
      </trkpt>
      <trkpt lat="44.13174" lon="5.17115">
        <ele>346.8</ele>
        <time>2022-07-21T09:44:39Z</time>
      </trkpt>
      <trkpt lat="44.13175" lon="5.17114">
        <ele>346.9</ele>
        <time>2022-07-21T09:44:40Z</time>
      </trkpt>
      <trkpt lat="44.13178" lon="5.17111">
        <ele>347</ele>
        <time>2022-07-21T09:44:41Z</time>
      </trkpt>
      <trkpt lat="44.13179" lon="5.1711">
        <ele>347</ele>
        <time>2022-07-21T09:44:42Z</time>
      </trkpt>
      <trkpt lat="44.13181" lon="5.17108">
        <ele>347.1</ele>
        <time>2022-07-21T09:44:43Z</time>
      </trkpt>
      <trkpt lat="44.13183" lon="5.17105">
        <ele>347.2</ele>
        <time>2022-07-21T09:44:44Z</time>
      </trkpt>
      <trkpt lat="44.13185" lon="5.17103">
        <ele>347.3</ele>
        <time>2022-07-21T09:44:45Z</time>
      </trkpt>
      <trkpt lat="44.13187" lon="5.171">
        <ele>347.3</ele>
        <time>2022-07-21T09:44:46Z</time>
      </trkpt>
      <trkpt lat="44.13189" lon="5.17097">
        <ele>347.4</ele>
        <time>2022-07-21T09:44:47Z</time>
      </trkpt>
      <trkpt lat="44.13192" lon="5.17094">
        <ele>347.5</ele>
        <time>2022-07-21T09:44:48Z</time>
      </trkpt>
      <trkpt lat="44.13194" lon="5.17091">
        <ele>347.5</ele>
        <time>2022-07-21T09:44:49Z</time>
      </trkpt>
      <trkpt lat="44.13196" lon="5.17089">
        <ele>347.5</ele>
        <time>2022-07-21T09:44:50Z</time>
      </trkpt>
      <trkpt lat="44.13199" lon="5.17086">
        <ele>347.6</ele>
        <time>2022-07-21T09:44:51Z</time>
      </trkpt>
      <trkpt lat="44.13201" lon="5.17083">
        <ele>347.6</ele>
        <time>2022-07-21T09:44:52Z</time>
      </trkpt>
      <trkpt lat="44.13204" lon="5.1708">
        <ele>347.7</ele>
        <time>2022-07-21T09:44:53Z</time>
      </trkpt>
      <trkpt lat="44.13206" lon="5.17076">
        <ele>347.8</ele>
        <time>2022-07-21T09:44:54Z</time>
      </trkpt>
      <trkpt lat="44.13209" lon="5.17073">
        <ele>347.8</ele>
        <time>2022-07-21T09:44:55Z</time>
      </trkpt>
      <trkpt lat="44.13211" lon="5.1707">
        <ele>347.9</ele>
        <time>2022-07-21T09:44:56Z</time>
      </trkpt>
      <trkpt lat="44.13214" lon="5.17067">
        <ele>347.9</ele>
        <time>2022-07-21T09:44:57Z</time>
      </trkpt>
      <trkpt lat="44.13216" lon="5.17064">
        <ele>348</ele>
        <time>2022-07-21T09:44:58Z</time>
      </trkpt>
      <trkpt lat="44.13219" lon="5.17061">
        <ele>348</ele>
        <time>2022-07-21T09:44:59Z</time>
      </trkpt>
      <trkpt lat="44.13222" lon="5.17057">
        <ele>348.1</ele>
        <time>2022-07-21T09:45:00Z</time>
      </trkpt>
      <trkpt lat="44.13224" lon="5.17054">
        <ele>348.1</ele>
        <time>2022-07-21T09:45:01Z</time>
      </trkpt>
      <trkpt lat="44.13227" lon="5.17051">
        <ele>348.1</ele>
        <time>2022-07-21T09:45:02Z</time>
      </trkpt>
      <trkpt lat="44.13229" lon="5.17047">
        <ele>348.2</ele>
        <time>2022-07-21T09:45:03Z</time>
      </trkpt>
      <trkpt lat="44.13232" lon="5.17043">
        <ele>348.2</ele>
        <time>2022-07-21T09:45:04Z</time>
      </trkpt>
      <trkpt lat="44.13234" lon="5.17039">
        <ele>348.3</ele>
        <time>2022-07-21T09:45:05Z</time>
      </trkpt>
      <trkpt lat="44.13237" lon="5.17036">
        <ele>348.3</ele>
        <time>2022-07-21T09:45:06Z</time>
      </trkpt>
      <trkpt lat="44.13239" lon="5.17033">
        <ele>348.3</ele>
        <time>2022-07-21T09:45:07Z</time>
      </trkpt>
      <trkpt lat="44.13242" lon="5.17029">
        <ele>348.4</ele>
        <time>2022-07-21T09:45:08Z</time>
      </trkpt>
      <trkpt lat="44.13244" lon="5.17025">
        <ele>348.4</ele>
        <time>2022-07-21T09:45:09Z</time>
      </trkpt>
      <trkpt lat="44.13247" lon="5.17021">
        <ele>348.4</ele>
        <time>2022-07-21T09:45:10Z</time>
      </trkpt>
      <trkpt lat="44.13249" lon="5.17018">
        <ele>348.5</ele>
        <time>2022-07-21T09:45:11Z</time>
      </trkpt>
      <trkpt lat="44.13251" lon="5.17014">
        <ele>348.5</ele>
        <time>2022-07-21T09:45:12Z</time>
      </trkpt>
      <trkpt lat="44.13254" lon="5.1701">
        <ele>348.6</ele>
        <time>2022-07-21T09:45:13Z</time>
      </trkpt>
      <trkpt lat="44.13257" lon="5.17006">
        <ele>348.6</ele>
        <time>2022-07-21T09:45:14Z</time>
      </trkpt>
      <trkpt lat="44.13259" lon="5.17002">
        <ele>348.7</ele>
        <time>2022-07-21T09:45:15Z</time>
      </trkpt>
      <trkpt lat="44.13262" lon="5.16998">
        <ele>348.7</ele>
        <time>2022-07-21T09:45:16Z</time>
      </trkpt>
      <trkpt lat="44.13264" lon="5.16994">
        <ele>348.7</ele>
        <time>2022-07-21T09:45:17Z</time>
      </trkpt>
      <trkpt lat="44.13266" lon="5.1699">
        <ele>348.7</ele>
        <time>2022-07-21T09:45:18Z</time>
      </trkpt>
      <trkpt lat="44.13269" lon="5.16986">
        <ele>348.8</ele>
        <time>2022-07-21T09:45:19Z</time>
      </trkpt>
      <trkpt lat="44.13271" lon="5.16982">
        <ele>348.8</ele>
        <time>2022-07-21T09:45:20Z</time>
      </trkpt>
      <trkpt lat="44.13274" lon="5.16978">
        <ele>348.8</ele>
        <time>2022-07-21T09:45:21Z</time>
      </trkpt>
      <trkpt lat="44.13276" lon="5.16974">
        <ele>348.8</ele>
        <time>2022-07-21T09:45:22Z</time>
      </trkpt>
      <trkpt lat="44.13278" lon="5.16969">
        <ele>348.9</ele>
        <time>2022-07-21T09:45:23Z</time>
      </trkpt>
      <trkpt lat="44.13281" lon="5.16965">
        <ele>348.9</ele>
        <time>2022-07-21T09:45:24Z</time>
      </trkpt>
      <trkpt lat="44.13283" lon="5.16961">
        <ele>349</ele>
        <time>2022-07-21T09:45:25Z</time>
      </trkpt>
      <trkpt lat="44.13285" lon="5.16956">
        <ele>349</ele>
        <time>2022-07-21T09:45:26Z</time>
      </trkpt>
      <trkpt lat="44.13288" lon="5.16952">
        <ele>349.1</ele>
        <time>2022-07-21T09:45:27Z</time>
      </trkpt>
      <trkpt lat="44.1329" lon="5.16948">
        <ele>349.1</ele>
        <time>2022-07-21T09:45:28Z</time>
      </trkpt>
      <trkpt lat="44.13292" lon="5.16944">
        <ele>349.2</ele>
        <time>2022-07-21T09:45:29Z</time>
      </trkpt>
      <trkpt lat="44.13295" lon="5.16941">
        <ele>349.2</ele>
        <time>2022-07-21T09:45:30Z</time>
      </trkpt>
      <trkpt lat="44.13297" lon="5.16937">
        <ele>349.3</ele>
        <time>2022-07-21T09:45:31Z</time>
      </trkpt>
      <trkpt lat="44.13299" lon="5.16933">
        <ele>349.4</ele>
        <time>2022-07-21T09:45:32Z</time>
      </trkpt>
      <trkpt lat="44.13301" lon="5.16929">
        <ele>349.4</ele>
        <time>2022-07-21T09:45:33Z</time>
      </trkpt>
      <trkpt lat="44.13303" lon="5.16925">
        <ele>349.5</ele>
        <time>2022-07-21T09:45:34Z</time>
      </trkpt>
      <trkpt lat="44.13306" lon="5.16921">
        <ele>349.6</ele>
        <time>2022-07-21T09:45:35Z</time>
      </trkpt>
      <trkpt lat="44.13308" lon="5.16917">
        <ele>349.7</ele>
        <time>2022-07-21T09:45:36Z</time>
      </trkpt>
      <trkpt lat="44.13311" lon="5.16913">
        <ele>349.7</ele>
        <time>2022-07-21T09:45:37Z</time>
      </trkpt>
      <trkpt lat="44.13313" lon="5.16909">
        <ele>349.8</ele>
        <time>2022-07-21T09:45:38Z</time>
      </trkpt>
      <trkpt lat="44.13315" lon="5.16905">
        <ele>349.9</ele>
        <time>2022-07-21T09:45:39Z</time>
      </trkpt>
      <trkpt lat="44.13317" lon="5.16901">
        <ele>350</ele>
        <time>2022-07-21T09:45:40Z</time>
      </trkpt>
      <trkpt lat="44.1332" lon="5.16898">
        <ele>350</ele>
        <time>2022-07-21T09:45:41Z</time>
      </trkpt>
      <trkpt lat="44.13322" lon="5.16894">
        <ele>350.1</ele>
        <time>2022-07-21T09:45:42Z</time>
      </trkpt>
      <trkpt lat="44.13324" lon="5.1689">
        <ele>350.2</ele>
        <time>2022-07-21T09:45:43Z</time>
      </trkpt>
      <trkpt lat="44.13326" lon="5.16886">
        <ele>350.3</ele>
        <time>2022-07-21T09:45:44Z</time>
      </trkpt>
      <trkpt lat="44.13328" lon="5.16883">
        <ele>350.5</ele>
        <time>2022-07-21T09:45:45Z</time>
      </trkpt>
      <trkpt lat="44.1333" lon="5.16879">
        <ele>350.6</ele>
        <time>2022-07-21T09:45:46Z</time>
      </trkpt>
      <trkpt lat="44.13332" lon="5.16875">
        <ele>350.7</ele>
        <time>2022-07-21T09:45:47Z</time>
      </trkpt>
      <trkpt lat="44.13334" lon="5.16871">
        <ele>350.9</ele>
        <time>2022-07-21T09:45:48Z</time>
      </trkpt>
      <trkpt lat="44.13336" lon="5.16867">
        <ele>351</ele>
        <time>2022-07-21T09:45:49Z</time>
      </trkpt>
      <trkpt lat="44.13338" lon="5.16863">
        <ele>351.2</ele>
        <time>2022-07-21T09:45:50Z</time>
      </trkpt>
      <trkpt lat="44.1334" lon="5.16859">
        <ele>351.3</ele>
        <time>2022-07-21T09:45:51Z</time>
      </trkpt>
      <trkpt lat="44.13342" lon="5.16855">
        <ele>351.5</ele>
        <time>2022-07-21T09:45:52Z</time>
      </trkpt>
      <trkpt lat="44.13344" lon="5.16852">
        <ele>351.6</ele>
        <time>2022-07-21T09:45:53Z</time>
      </trkpt>
      <trkpt lat="44.13346" lon="5.16848">
        <ele>351.8</ele>
        <time>2022-07-21T09:45:54Z</time>
      </trkpt>
      <trkpt lat="44.13348" lon="5.16844">
        <ele>352</ele>
        <time>2022-07-21T09:45:55Z</time>
      </trkpt>
      <trkpt lat="44.1335" lon="5.16841">
        <ele>352.1</ele>
        <time>2022-07-21T09:45:56Z</time>
      </trkpt>
      <trkpt lat="44.13351" lon="5.16837">
        <ele>352.3</ele>
        <time>2022-07-21T09:45:57Z</time>
      </trkpt>
      <trkpt lat="44.13353" lon="5.16834">
        <ele>352.4</ele>
        <time>2022-07-21T09:45:58Z</time>
      </trkpt>
      <trkpt lat="44.13354" lon="5.16831">
        <ele>352.6</ele>
        <time>2022-07-21T09:45:59Z</time>
      </trkpt>
      <trkpt lat="44.13356" lon="5.16828">
        <ele>352.7</ele>
        <time>2022-07-21T09:46:00Z</time>
      </trkpt>
      <trkpt lat="44.13358" lon="5.16824">
        <ele>352.9</ele>
        <time>2022-07-21T09:46:01Z</time>
      </trkpt>
      <trkpt lat="44.13359" lon="5.16822">
        <ele>353</ele>
        <time>2022-07-21T09:46:02Z</time>
      </trkpt>
      <trkpt lat="44.13361" lon="5.16818">
        <ele>353.2</ele>
        <time>2022-07-21T09:46:03Z</time>
      </trkpt>
      <trkpt lat="44.13362" lon="5.16817">
        <ele>353.3</ele>
        <time>2022-07-21T09:46:04Z</time>
      </trkpt>
      <trkpt lat="44.13364" lon="5.16812">
        <ele>353.5</ele>
        <time>2022-07-21T09:46:05Z</time>
      </trkpt>
      <trkpt lat="44.13365" lon="5.16811">
        <ele>353.6</ele>
        <time>2022-07-21T09:46:06Z</time>
      </trkpt>
      <trkpt lat="44.13367" lon="5.16807">
        <ele>353.8</ele>
        <time>2022-07-21T09:46:07Z</time>
      </trkpt>
      <trkpt lat="44.13368" lon="5.16806">
        <ele>353.9</ele>
        <time>2022-07-21T09:46:08Z</time>
      </trkpt>
      <trkpt lat="44.1337" lon="5.16802">
        <ele>354.1</ele>
        <time>2022-07-21T09:46:09Z</time>
      </trkpt>
      <trkpt lat="44.13371" lon="5.16801">
        <ele>354.2</ele>
        <time>2022-07-21T09:46:10Z</time>
      </trkpt>
      <trkpt lat="44.13373" lon="5.16797">
        <ele>354.4</ele>
        <time>2022-07-21T09:46:11Z</time>
      </trkpt>
      <trkpt lat="44.13374" lon="5.16796">
        <ele>354.5</ele>
        <time>2022-07-21T09:46:12Z</time>
      </trkpt>
      <trkpt lat="44.13376" lon="5.16793">
        <ele>354.7</ele>
        <time>2022-07-21T09:46:13Z</time>
      </trkpt>
      <trkpt lat="44.13379" lon="5.1679">
        <ele>354.9</ele>
        <time>2022-07-21T09:46:14Z</time>
      </trkpt>
      <trkpt lat="44.1338" lon="5.16788">
        <ele>354.9</ele>
        <time>2022-07-21T09:46:15Z</time>
      </trkpt>
      <trkpt lat="44.13383" lon="5.16785">
        <ele>355.1</ele>
        <time>2022-07-21T09:46:16Z</time>
      </trkpt>
      <trkpt lat="44.13384" lon="5.16784">
        <ele>355.2</ele>
        <time>2022-07-21T09:46:17Z</time>
      </trkpt>
      <trkpt lat="44.13386" lon="5.16781">
        <ele>355.3</ele>
        <time>2022-07-21T09:46:18Z</time>
      </trkpt>
      <trkpt lat="44.13388" lon="5.16778">
        <ele>355.5</ele>
        <time>2022-07-21T09:46:19Z</time>
      </trkpt>
      <trkpt lat="44.1339" lon="5.16776">
        <ele>355.6</ele>
        <time>2022-07-21T09:46:20Z</time>
      </trkpt>
      <trkpt lat="44.13392" lon="5.16773">
        <ele>355.7</ele>
        <time>2022-07-21T09:46:21Z</time>
      </trkpt>
      <trkpt lat="44.13394" lon="5.1677">
        <ele>355.8</ele>
        <time>2022-07-21T09:46:22Z</time>
      </trkpt>
      <trkpt lat="44.13396" lon="5.16768">
        <ele>355.9</ele>
        <time>2022-07-21T09:46:23Z</time>
      </trkpt>
      <trkpt lat="44.13399" lon="5.16765">
        <ele>356.1</ele>
        <time>2022-07-21T09:46:24Z</time>
      </trkpt>
      <trkpt lat="44.13401" lon="5.16763">
        <ele>356.2</ele>
        <time>2022-07-21T09:46:25Z</time>
      </trkpt>
      <trkpt lat="44.13403" lon="5.16761">
        <ele>356.3</ele>
        <time>2022-07-21T09:46:26Z</time>
      </trkpt>
      <trkpt lat="44.13406" lon="5.16758">
        <ele>356.4</ele>
        <time>2022-07-21T09:46:27Z</time>
      </trkpt>
      <trkpt lat="44.13408" lon="5.16756">
        <ele>356.6</ele>
        <time>2022-07-21T09:46:28Z</time>
      </trkpt>
      <trkpt lat="44.13411" lon="5.16754">
        <ele>356.7</ele>
        <time>2022-07-21T09:46:29Z</time>
      </trkpt>
      <trkpt lat="44.13413" lon="5.16751">
        <ele>356.8</ele>
        <time>2022-07-21T09:46:30Z</time>
      </trkpt>
      <trkpt lat="44.13416" lon="5.16749">
        <ele>357</ele>
        <time>2022-07-21T09:46:31Z</time>
      </trkpt>
      <trkpt lat="44.13418" lon="5.16747">
        <ele>357.1</ele>
        <time>2022-07-21T09:46:32Z</time>
      </trkpt>
      <trkpt lat="44.13422" lon="5.16744">
        <ele>357.3</ele>
        <time>2022-07-21T09:46:33Z</time>
      </trkpt>
      <trkpt lat="44.13423" lon="5.16743">
        <ele>357.4</ele>
        <time>2022-07-21T09:46:34Z</time>
      </trkpt>
      <trkpt lat="44.13426" lon="5.1674">
        <ele>357.5</ele>
        <time>2022-07-21T09:46:35Z</time>
      </trkpt>
      <trkpt lat="44.13428" lon="5.16738">
        <ele>357.7</ele>
        <time>2022-07-21T09:46:36Z</time>
      </trkpt>
      <trkpt lat="44.13432" lon="5.16735">
        <ele>357.8</ele>
        <time>2022-07-21T09:46:37Z</time>
      </trkpt>
      <trkpt lat="44.13433" lon="5.16734">
        <ele>357.9</ele>
        <time>2022-07-21T09:46:38Z</time>
      </trkpt>
      <trkpt lat="44.13435" lon="5.16733">
        <ele>358</ele>
        <time>2022-07-21T09:46:39Z</time>
      </trkpt>
      <trkpt lat="44.13438" lon="5.16731">
        <ele>358.1</ele>
        <time>2022-07-21T09:46:40Z</time>
      </trkpt>
      <trkpt lat="44.1344" lon="5.16729">
        <ele>358.2</ele>
        <time>2022-07-21T09:46:42Z</time>
      </trkpt>
      <trkpt lat="44.13443" lon="5.16727">
        <ele>358.3</ele>
        <time>2022-07-21T09:46:43Z</time>
      </trkpt>
      <trkpt lat="44.13446" lon="5.16725">
        <ele>358.4</ele>
        <time>2022-07-21T09:46:44Z</time>
      </trkpt>
      <trkpt lat="44.13449" lon="5.16723">
        <ele>358.5</ele>
        <time>2022-07-21T09:46:45Z</time>
      </trkpt>
      <trkpt lat="44.1345" lon="5.16723">
        <ele>358.5</ele>
        <time>2022-07-21T09:46:46Z</time>
      </trkpt>
      <trkpt lat="44.13453" lon="5.16721">
        <ele>358.5</ele>
        <time>2022-07-21T09:46:47Z</time>
      </trkpt>
      <trkpt lat="44.13456" lon="5.16719">
        <ele>358.6</ele>
        <time>2022-07-21T09:46:48Z</time>
      </trkpt>
      <trkpt lat="44.13459" lon="5.16717">
        <ele>358.6</ele>
        <time>2022-07-21T09:46:49Z</time>
      </trkpt>
      <trkpt lat="44.13462" lon="5.16715">
        <ele>358.6</ele>
        <time>2022-07-21T09:46:50Z</time>
      </trkpt>
      <trkpt lat="44.13465" lon="5.16713">
        <ele>358.6</ele>
        <time>2022-07-21T09:46:51Z</time>
      </trkpt>
      <trkpt lat="44.13468" lon="5.16711">
        <ele>358.5</ele>
        <time>2022-07-21T09:46:52Z</time>
      </trkpt>
      <trkpt lat="44.13471" lon="5.16709">
        <ele>358.5</ele>
        <time>2022-07-21T09:46:53Z</time>
      </trkpt>
      <trkpt lat="44.13475" lon="5.16707">
        <ele>358.4</ele>
        <time>2022-07-21T09:46:54Z</time>
      </trkpt>
      <trkpt lat="44.13478" lon="5.16705">
        <ele>358.2</ele>
        <time>2022-07-21T09:46:55Z</time>
      </trkpt>
      <trkpt lat="44.13483" lon="5.16702">
        <ele>358.1</ele>
        <time>2022-07-21T09:46:56Z</time>
      </trkpt>
      <trkpt lat="44.13487" lon="5.16699">
        <ele>357.9</ele>
        <time>2022-07-21T09:46:57Z</time>
      </trkpt>
      <trkpt lat="44.1349" lon="5.16697">
        <ele>357.7</ele>
        <time>2022-07-21T09:46:58Z</time>
      </trkpt>
      <trkpt lat="44.13495" lon="5.16694">
        <ele>357.5</ele>
        <time>2022-07-21T09:46:59Z</time>
      </trkpt>
      <trkpt lat="44.13499" lon="5.16692">
        <ele>357.3</ele>
        <time>2022-07-21T09:47:00Z</time>
      </trkpt>
      <trkpt lat="44.13505" lon="5.1669">
        <ele>357</ele>
        <time>2022-07-21T09:47:01Z</time>
      </trkpt>
      <trkpt lat="44.13509" lon="5.16687">
        <ele>356.7</ele>
        <time>2022-07-21T09:47:02Z</time>
      </trkpt>
      <trkpt lat="44.13514" lon="5.16684">
        <ele>356.5</ele>
        <time>2022-07-21T09:47:03Z</time>
      </trkpt>
      <trkpt lat="44.13519" lon="5.16681">
        <ele>356.2</ele>
        <time>2022-07-21T09:47:04Z</time>
      </trkpt>
      <trkpt lat="44.13524" lon="5.16678">
        <ele>355.9</ele>
        <time>2022-07-21T09:47:05Z</time>
      </trkpt>
      <trkpt lat="44.13531" lon="5.16675">
        <ele>355.5</ele>
        <time>2022-07-21T09:47:06Z</time>
      </trkpt>
      <trkpt lat="44.13536" lon="5.16672">
        <ele>355.1</ele>
        <time>2022-07-21T09:47:07Z</time>
      </trkpt>
      <trkpt lat="44.13542" lon="5.16668">
        <ele>354.8</ele>
        <time>2022-07-21T09:47:08Z</time>
      </trkpt>
      <trkpt lat="44.13548" lon="5.16665">
        <ele>354.5</ele>
        <time>2022-07-21T09:47:09Z</time>
      </trkpt>
      <trkpt lat="44.13555" lon="5.16662">
        <ele>354.1</ele>
        <time>2022-07-21T09:47:10Z</time>
      </trkpt>
      <trkpt lat="44.13561" lon="5.16658">
        <ele>353.8</ele>
        <time>2022-07-21T09:47:11Z</time>
      </trkpt>
      <trkpt lat="44.13568" lon="5.16654">
        <ele>353.5</ele>
        <time>2022-07-21T09:47:12Z</time>
      </trkpt>
      <trkpt lat="44.13574" lon="5.16651">
        <ele>353.2</ele>
        <time>2022-07-21T09:47:13Z</time>
      </trkpt>
      <trkpt lat="44.13581" lon="5.16648">
        <ele>353</ele>
        <time>2022-07-21T09:47:14Z</time>
      </trkpt>
      <trkpt lat="44.13587" lon="5.16643">
        <ele>352.7</ele>
        <time>2022-07-21T09:47:15Z</time>
      </trkpt>
      <trkpt lat="44.13594" lon="5.16639">
        <ele>352.4</ele>
        <time>2022-07-21T09:47:16Z</time>
      </trkpt>
      <trkpt lat="44.13601" lon="5.16636">
        <ele>352.1</ele>
        <time>2022-07-21T09:47:17Z</time>
      </trkpt>
      <trkpt lat="44.13608" lon="5.16631">
        <ele>351.8</ele>
        <time>2022-07-21T09:47:18Z</time>
      </trkpt>
      <trkpt lat="44.13615" lon="5.16627">
        <ele>351.5</ele>
        <time>2022-07-21T09:47:19Z</time>
      </trkpt>
      <trkpt lat="44.13622" lon="5.16623">
        <ele>351.3</ele>
        <time>2022-07-21T09:47:20Z</time>
      </trkpt>
      <trkpt lat="44.13629" lon="5.16619">
        <ele>351</ele>
        <time>2022-07-21T09:47:21Z</time>
      </trkpt>
      <trkpt lat="44.13637" lon="5.16615">
        <ele>350.8</ele>
        <time>2022-07-21T09:47:22Z</time>
      </trkpt>
      <trkpt lat="44.13644" lon="5.16611">
        <ele>350.7</ele>
        <time>2022-07-21T09:47:23Z</time>
      </trkpt>
      <trkpt lat="44.13651" lon="5.16607">
        <ele>350.5</ele>
        <time>2022-07-21T09:47:24Z</time>
      </trkpt>
      <trkpt lat="44.13657" lon="5.16604">
        <ele>350.4</ele>
        <time>2022-07-21T09:47:25Z</time>
      </trkpt>
      <trkpt lat="44.13664" lon="5.166">
        <ele>350.2</ele>
        <time>2022-07-21T09:47:26Z</time>
      </trkpt>
      <trkpt lat="44.1367" lon="5.16597">
        <ele>350.1</ele>
        <time>2022-07-21T09:47:27Z</time>
      </trkpt>
      <trkpt lat="44.13676" lon="5.16593">
        <ele>350</ele>
        <time>2022-07-21T09:47:28Z</time>
      </trkpt>
      <trkpt lat="44.13683" lon="5.1659">
        <ele>349.9</ele>
        <time>2022-07-21T09:47:29Z</time>
      </trkpt>
      <trkpt lat="44.13689" lon="5.16587">
        <ele>349.8</ele>
        <time>2022-07-21T09:47:30Z</time>
      </trkpt>
      <trkpt lat="44.13694" lon="5.16581">
        <ele>349.7</ele>
        <time>2022-07-21T09:47:31Z</time>
      </trkpt>
      <trkpt lat="44.137" lon="5.16578">
        <ele>349.6</ele>
        <time>2022-07-21T09:47:32Z</time>
      </trkpt>
      <trkpt lat="44.13705" lon="5.16574">
        <ele>349.5</ele>
        <time>2022-07-21T09:47:33Z</time>
      </trkpt>
      <trkpt lat="44.1371" lon="5.16571">
        <ele>349.4</ele>
        <time>2022-07-21T09:47:34Z</time>
      </trkpt>
      <trkpt lat="44.13716" lon="5.16566">
        <ele>349.3</ele>
        <time>2022-07-21T09:47:35Z</time>
      </trkpt>
      <trkpt lat="44.13722" lon="5.16563">
        <ele>349.1</ele>
        <time>2022-07-21T09:47:36Z</time>
      </trkpt>
      <trkpt lat="44.13729" lon="5.16559">
        <ele>349</ele>
        <time>2022-07-21T09:47:37Z</time>
      </trkpt>
      <trkpt lat="44.13734" lon="5.16556">
        <ele>348.9</ele>
        <time>2022-07-21T09:47:38Z</time>
      </trkpt>
      <trkpt lat="44.1374" lon="5.16553">
        <ele>348.8</ele>
        <time>2022-07-21T09:47:39Z</time>
      </trkpt>
      <trkpt lat="44.13746" lon="5.16549">
        <ele>348.7</ele>
        <time>2022-07-21T09:47:40Z</time>
      </trkpt>
      <trkpt lat="44.13753" lon="5.16547">
        <ele>348.7</ele>
        <time>2022-07-21T09:47:41Z</time>
      </trkpt>
      <trkpt lat="44.13759" lon="5.16544">
        <ele>348.6</ele>
        <time>2022-07-21T09:47:42Z</time>
      </trkpt>
      <trkpt lat="44.13766" lon="5.1654">
        <ele>348.6</ele>
        <time>2022-07-21T09:47:43Z</time>
      </trkpt>
      <trkpt lat="44.13773" lon="5.16539">
        <ele>348.5</ele>
        <time>2022-07-21T09:47:44Z</time>
      </trkpt>
      <trkpt lat="44.13779" lon="5.16536">
        <ele>348.4</ele>
        <time>2022-07-21T09:47:45Z</time>
      </trkpt>
      <trkpt lat="44.13785" lon="5.16535">
        <ele>348.4</ele>
        <time>2022-07-21T09:47:46Z</time>
      </trkpt>
      <trkpt lat="44.13792" lon="5.16533">
        <ele>348.3</ele>
        <time>2022-07-21T09:47:47Z</time>
      </trkpt>
      <trkpt lat="44.13798" lon="5.16532">
        <ele>348.2</ele>
        <time>2022-07-21T09:47:48Z</time>
      </trkpt>
      <trkpt lat="44.13804" lon="5.1653">
        <ele>348.2</ele>
        <time>2022-07-21T09:47:49Z</time>
      </trkpt>
      <trkpt lat="44.1381" lon="5.1653">
        <ele>348.2</ele>
        <time>2022-07-21T09:47:50Z</time>
      </trkpt>
      <trkpt lat="44.13816" lon="5.16528">
        <ele>348.2</ele>
        <time>2022-07-21T09:47:51Z</time>
      </trkpt>
      <trkpt lat="44.13821" lon="5.16527">
        <ele>348.3</ele>
        <time>2022-07-21T09:47:52Z</time>
      </trkpt>
      <trkpt lat="44.13827" lon="5.16526">
        <ele>348.4</ele>
        <time>2022-07-21T09:47:53Z</time>
      </trkpt>
      <trkpt lat="44.13832" lon="5.16525">
        <ele>348.5</ele>
        <time>2022-07-21T09:47:54Z</time>
      </trkpt>
      <trkpt lat="44.13836" lon="5.16524">
        <ele>348.6</ele>
        <time>2022-07-21T09:47:55Z</time>
      </trkpt>
      <trkpt lat="44.13841" lon="5.16523">
        <ele>348.7</ele>
        <time>2022-07-21T09:47:56Z</time>
      </trkpt>
      <trkpt lat="44.13845" lon="5.16521">
        <ele>348.8</ele>
        <time>2022-07-21T09:47:57Z</time>
      </trkpt>
      <trkpt lat="44.13849" lon="5.1652">
        <ele>348.9</ele>
        <time>2022-07-21T09:47:58Z</time>
      </trkpt>
      <trkpt lat="44.13853" lon="5.16519">
        <ele>349</ele>
        <time>2022-07-21T09:47:59Z</time>
      </trkpt>
      <trkpt lat="44.13856" lon="5.16518">
        <ele>349.1</ele>
        <time>2022-07-21T09:48:00Z</time>
      </trkpt>
      <trkpt lat="44.1386" lon="5.16517">
        <ele>349.3</ele>
        <time>2022-07-21T09:48:01Z</time>
      </trkpt>
      <trkpt lat="44.13864" lon="5.16515">
        <ele>349.4</ele>
        <time>2022-07-21T09:48:02Z</time>
      </trkpt>
      <trkpt lat="44.13867" lon="5.16513">
        <ele>349.5</ele>
        <time>2022-07-21T09:48:03Z</time>
      </trkpt>
      <trkpt lat="44.13871" lon="5.16513">
        <ele>349.7</ele>
        <time>2022-07-21T09:48:04Z</time>
      </trkpt>
      <trkpt lat="44.13872" lon="5.16513">
        <ele>349.7</ele>
        <time>2022-07-21T09:48:05Z</time>
      </trkpt>
      <trkpt lat="44.13876" lon="5.16511">
        <ele>349.9</ele>
        <time>2022-07-21T09:48:06Z</time>
      </trkpt>
      <trkpt lat="44.13878" lon="5.1651">
        <ele>350</ele>
        <time>2022-07-21T09:48:07Z</time>
      </trkpt>
      <trkpt lat="44.13881" lon="5.16509">
        <ele>350.1</ele>
        <time>2022-07-21T09:48:08Z</time>
      </trkpt>
      <trkpt lat="44.13884" lon="5.16507">
        <ele>350.2</ele>
        <time>2022-07-21T09:48:09Z</time>
      </trkpt>
      <trkpt lat="44.13887" lon="5.16506">
        <ele>350.3</ele>
        <time>2022-07-21T09:48:10Z</time>
      </trkpt>
      <trkpt lat="44.1389" lon="5.16505">
        <ele>350.5</ele>
        <time>2022-07-21T09:48:11Z</time>
      </trkpt>
      <trkpt lat="44.13892" lon="5.16504">
        <ele>350.6</ele>
        <time>2022-07-21T09:48:12Z</time>
      </trkpt>
      <trkpt lat="44.13896" lon="5.16502">
        <ele>350.8</ele>
        <time>2022-07-21T09:48:13Z</time>
      </trkpt>
      <trkpt lat="44.13897" lon="5.16502">
        <ele>350.8</ele>
        <time>2022-07-21T09:48:14Z</time>
      </trkpt>
      <trkpt lat="44.139" lon="5.16501">
        <ele>351</ele>
        <time>2022-07-21T09:48:15Z</time>
      </trkpt>
      <trkpt lat="44.13901" lon="5.16501">
        <ele>351</ele>
        <time>2022-07-21T09:48:16Z</time>
      </trkpt>
      <trkpt lat="44.13904" lon="5.16501">
        <ele>351.2</ele>
        <time>2022-07-21T09:48:17Z</time>
      </trkpt>
      <trkpt lat="44.13906" lon="5.16501">
        <ele>351.3</ele>
        <time>2022-07-21T09:48:18Z</time>
      </trkpt>
      <trkpt lat="44.13909" lon="5.165">
        <ele>351.5</ele>
        <time>2022-07-21T09:48:19Z</time>
      </trkpt>
      <trkpt lat="44.1391" lon="5.16499">
        <ele>351.5</ele>
        <time>2022-07-21T09:48:20Z</time>
      </trkpt>
      <trkpt lat="44.13913" lon="5.16498">
        <ele>351.7</ele>
        <time>2022-07-21T09:48:21Z</time>
      </trkpt>
      <trkpt lat="44.13914" lon="5.16497">
        <ele>351.8</ele>
        <time>2022-07-21T09:48:22Z</time>
      </trkpt>
      <trkpt lat="44.13917" lon="5.16496">
        <ele>352</ele>
        <time>2022-07-21T09:48:23Z</time>
      </trkpt>
      <trkpt lat="44.13918" lon="5.16495">
        <ele>352</ele>
        <time>2022-07-21T09:48:24Z</time>
      </trkpt>
      <trkpt lat="44.1392" lon="5.16494">
        <ele>352.1</ele>
        <time>2022-07-21T09:48:25Z</time>
      </trkpt>
      <trkpt lat="44.13922" lon="5.16494">
        <ele>352.2</ele>
        <time>2022-07-21T09:48:26Z</time>
      </trkpt>
      <trkpt lat="44.13923" lon="5.16494">
        <ele>352.3</ele>
        <time>2022-07-21T09:48:27Z</time>
      </trkpt>
      <trkpt lat="44.13925" lon="5.16493">
        <ele>352.4</ele>
        <time>2022-07-21T09:48:28Z</time>
      </trkpt>
      <trkpt lat="44.13926" lon="5.16493">
        <ele>352.5</ele>
        <time>2022-07-21T09:48:29Z</time>
      </trkpt>
      <trkpt lat="44.13928" lon="5.16492">
        <ele>352.6</ele>
        <time>2022-07-21T09:48:30Z</time>
      </trkpt>
      <trkpt lat="44.13931" lon="5.1649">
        <ele>352.8</ele>
        <time>2022-07-21T09:48:31Z</time>
      </trkpt>
      <trkpt lat="44.13931" lon="5.16489">
        <ele>352.9</ele>
        <time>2022-07-21T09:48:32Z</time>
      </trkpt>
      <trkpt lat="44.13934" lon="5.16487">
        <ele>353.1</ele>
        <time>2022-07-21T09:48:33Z</time>
      </trkpt>
      <trkpt lat="44.13935" lon="5.16487">
        <ele>353.2</ele>
        <time>2022-07-21T09:48:34Z</time>
      </trkpt>
      <trkpt lat="44.13938" lon="5.16484">
        <ele>353.4</ele>
        <time>2022-07-21T09:48:35Z</time>
      </trkpt>
      <trkpt lat="44.13939" lon="5.16484">
        <ele>353.5</ele>
        <time>2022-07-21T09:48:36Z</time>
      </trkpt>
      <trkpt lat="44.13942" lon="5.16481">
        <ele>353.7</ele>
        <time>2022-07-21T09:48:37Z</time>
      </trkpt>
      <trkpt lat="44.13943" lon="5.16481">
        <ele>353.7</ele>
        <time>2022-07-21T09:48:38Z</time>
      </trkpt>
      <trkpt lat="44.13946" lon="5.16479">
        <ele>353.9</ele>
        <time>2022-07-21T09:48:39Z</time>
      </trkpt>
      <trkpt lat="44.13947" lon="5.16478">
        <ele>354</ele>
        <time>2022-07-21T09:48:40Z</time>
      </trkpt>
      <trkpt lat="44.13949" lon="5.16475">
        <ele>354.2</ele>
        <time>2022-07-21T09:48:41Z</time>
      </trkpt>
      <trkpt lat="44.1395" lon="5.16475">
        <ele>354.3</ele>
        <time>2022-07-21T09:48:42Z</time>
      </trkpt>
      <trkpt lat="44.13953" lon="5.16472">
        <ele>354.6</ele>
        <time>2022-07-21T09:48:43Z</time>
      </trkpt>
      <trkpt lat="44.13954" lon="5.16472">
        <ele>354.6</ele>
        <time>2022-07-21T09:48:44Z</time>
      </trkpt>
      <trkpt lat="44.13957" lon="5.16469">
        <ele>354.9</ele>
        <time>2022-07-21T09:48:45Z</time>
      </trkpt>
      <trkpt lat="44.13958" lon="5.16468">
        <ele>355</ele>
        <time>2022-07-21T09:48:46Z</time>
      </trkpt>
      <trkpt lat="44.13961" lon="5.16466">
        <ele>355.3</ele>
        <time>2022-07-21T09:48:47Z</time>
      </trkpt>
      <trkpt lat="44.13962" lon="5.16465">
        <ele>355.3</ele>
        <time>2022-07-21T09:48:48Z</time>
      </trkpt>
      <trkpt lat="44.13965" lon="5.16462">
        <ele>355.6</ele>
        <time>2022-07-21T09:48:49Z</time>
      </trkpt>
      <trkpt lat="44.13965" lon="5.16461">
        <ele>355.7</ele>
        <time>2022-07-21T09:48:50Z</time>
      </trkpt>
      <trkpt lat="44.13968" lon="5.16458">
        <ele>356</ele>
        <time>2022-07-21T09:48:51Z</time>
      </trkpt>
      <trkpt lat="44.13969" lon="5.16457">
        <ele>356.1</ele>
        <time>2022-07-21T09:48:52Z</time>
      </trkpt>
      <trkpt lat="44.13972" lon="5.16454">
        <ele>356.4</ele>
        <time>2022-07-21T09:48:53Z</time>
      </trkpt>
      <trkpt lat="44.13973" lon="5.16454">
        <ele>356.4</ele>
        <time>2022-07-21T09:48:54Z</time>
      </trkpt>
      <trkpt lat="44.13975" lon="5.16451">
        <ele>356.7</ele>
        <time>2022-07-21T09:48:55Z</time>
      </trkpt>
      <trkpt lat="44.13976" lon="5.1645">
        <ele>356.8</ele>
        <time>2022-07-21T09:48:56Z</time>
      </trkpt>
      <trkpt lat="44.13978" lon="5.16448">
        <ele>357</ele>
        <time>2022-07-21T09:48:57Z</time>
      </trkpt>
      <trkpt lat="44.13979" lon="5.16447">
        <ele>357.1</ele>
        <time>2022-07-21T09:48:58Z</time>
      </trkpt>
      <trkpt lat="44.13981" lon="5.16445">
        <ele>357.3</ele>
        <time>2022-07-21T09:48:59Z</time>
      </trkpt>
      <trkpt lat="44.13981" lon="5.16444">
        <ele>357.4</ele>
        <time>2022-07-21T09:49:00Z</time>
      </trkpt>
      <trkpt lat="44.13984" lon="5.16441">
        <ele>357.6</ele>
        <time>2022-07-21T09:49:01Z</time>
      </trkpt>
      <trkpt lat="44.13985" lon="5.1644">
        <ele>357.7</ele>
        <time>2022-07-21T09:49:02Z</time>
      </trkpt>
      <trkpt lat="44.13987" lon="5.16438">
        <ele>357.9</ele>
        <time>2022-07-21T09:49:03Z</time>
      </trkpt>
      <trkpt lat="44.13987" lon="5.16437">
        <ele>358</ele>
        <time>2022-07-21T09:49:04Z</time>
      </trkpt>
      <trkpt lat="44.1399" lon="5.16434">
        <ele>358.3</ele>
        <time>2022-07-21T09:49:05Z</time>
      </trkpt>
      <trkpt lat="44.1399" lon="5.16433">
        <ele>358.3</ele>
        <time>2022-07-21T09:49:06Z</time>
      </trkpt>
      <trkpt lat="44.13992" lon="5.1643">
        <ele>358.6</ele>
        <time>2022-07-21T09:49:07Z</time>
      </trkpt>
      <trkpt lat="44.13993" lon="5.16429">
        <ele>358.7</ele>
        <time>2022-07-21T09:49:08Z</time>
      </trkpt>
      <trkpt lat="44.13995" lon="5.16426">
        <ele>358.9</ele>
        <time>2022-07-21T09:49:09Z</time>
      </trkpt>
      <trkpt lat="44.13996" lon="5.16425">
        <ele>359</ele>
        <time>2022-07-21T09:49:10Z</time>
      </trkpt>
      <trkpt lat="44.13998" lon="5.16422">
        <ele>359.2</ele>
        <time>2022-07-21T09:49:11Z</time>
      </trkpt>
      <trkpt lat="44.13998" lon="5.16421">
        <ele>359.3</ele>
        <time>2022-07-21T09:49:12Z</time>
      </trkpt>
      <trkpt lat="44.14001" lon="5.16418">
        <ele>359.6</ele>
        <time>2022-07-21T09:49:13Z</time>
      </trkpt>
      <trkpt lat="44.14002" lon="5.16416">
        <ele>359.7</ele>
        <time>2022-07-21T09:49:14Z</time>
      </trkpt>
      <trkpt lat="44.14003" lon="5.16415">
        <ele>359.8</ele>
        <time>2022-07-21T09:49:15Z</time>
      </trkpt>
      <trkpt lat="44.14005" lon="5.16412">
        <ele>360</ele>
        <time>2022-07-21T09:49:16Z</time>
      </trkpt>
      <trkpt lat="44.14006" lon="5.16411">
        <ele>360.1</ele>
        <time>2022-07-21T09:49:17Z</time>
      </trkpt>
      <trkpt lat="44.14007" lon="5.1641">
        <ele>360.2</ele>
        <time>2022-07-21T09:49:18Z</time>
      </trkpt>
      <trkpt lat="44.14008" lon="5.16408">
        <ele>360.3</ele>
        <time>2022-07-21T09:49:19Z</time>
      </trkpt>
      <trkpt lat="44.14009" lon="5.16407">
        <ele>360.5</ele>
        <time>2022-07-21T09:49:20Z</time>
      </trkpt>
      <trkpt lat="44.1401" lon="5.16405">
        <ele>360.6</ele>
        <time>2022-07-21T09:49:21Z</time>
      </trkpt>
      <trkpt lat="44.14012" lon="5.16402">
        <ele>360.8</ele>
        <time>2022-07-21T09:49:22Z</time>
      </trkpt>
      <trkpt lat="44.14013" lon="5.16401">
        <ele>360.9</ele>
        <time>2022-07-21T09:49:23Z</time>
      </trkpt>
      <trkpt lat="44.14014" lon="5.16399">
        <ele>360.9</ele>
        <time>2022-07-21T09:49:24Z</time>
      </trkpt>
      <trkpt lat="44.14015" lon="5.16397">
        <ele>361.1</ele>
        <time>2022-07-21T09:49:25Z</time>
      </trkpt>
      <trkpt lat="44.14017" lon="5.16394">
        <ele>361.2</ele>
        <time>2022-07-21T09:49:26Z</time>
      </trkpt>
      <trkpt lat="44.14017" lon="5.16393">
        <ele>361.3</ele>
        <time>2022-07-21T09:49:27Z</time>
      </trkpt>
      <trkpt lat="44.14019" lon="5.1639">
        <ele>361.5</ele>
        <time>2022-07-21T09:49:28Z</time>
      </trkpt>
      <trkpt lat="44.1402" lon="5.16389">
        <ele>361.5</ele>
        <time>2022-07-21T09:49:29Z</time>
      </trkpt>
      <trkpt lat="44.1402" lon="5.16387">
        <ele>361.7</ele>
        <time>2022-07-21T09:49:30Z</time>
      </trkpt>
      <trkpt lat="44.14021" lon="5.16385">
        <ele>361.8</ele>
        <time>2022-07-21T09:49:31Z</time>
      </trkpt>
      <trkpt lat="44.14022" lon="5.16383">
        <ele>361.9</ele>
        <time>2022-07-21T09:49:32Z</time>
      </trkpt>
      <trkpt lat="44.14023" lon="5.16382">
        <ele>362</ele>
        <time>2022-07-21T09:49:33Z</time>
      </trkpt>
      <trkpt lat="44.14024" lon="5.1638">
        <ele>362.1</ele>
        <time>2022-07-21T09:49:34Z</time>
      </trkpt>
      <trkpt lat="44.14025" lon="5.16378">
        <ele>362.2</ele>
        <time>2022-07-21T09:49:35Z</time>
      </trkpt>
      <trkpt lat="44.14027" lon="5.16374">
        <ele>362.4</ele>
        <time>2022-07-21T09:49:36Z</time>
      </trkpt>
      <trkpt lat="44.14028" lon="5.16373">
        <ele>362.5</ele>
        <time>2022-07-21T09:49:37Z</time>
      </trkpt>
      <trkpt lat="44.14029" lon="5.1637">
        <ele>362.7</ele>
        <time>2022-07-21T09:49:38Z</time>
      </trkpt>
      <trkpt lat="44.1403" lon="5.16369">
        <ele>362.8</ele>
        <time>2022-07-21T09:49:39Z</time>
      </trkpt>
      <trkpt lat="44.14032" lon="5.16365">
        <ele>363</ele>
        <time>2022-07-21T09:49:40Z</time>
      </trkpt>
      <trkpt lat="44.14032" lon="5.16364">
        <ele>363.1</ele>
        <time>2022-07-21T09:49:41Z</time>
      </trkpt>
      <trkpt lat="44.14034" lon="5.1636">
        <ele>363.3</ele>
        <time>2022-07-21T09:49:42Z</time>
      </trkpt>
      <trkpt lat="44.14034" lon="5.16359">
        <ele>363.4</ele>
        <time>2022-07-21T09:49:43Z</time>
      </trkpt>
      <trkpt lat="44.14035" lon="5.16357">
        <ele>363.5</ele>
        <time>2022-07-21T09:49:44Z</time>
      </trkpt>
      <trkpt lat="44.14036" lon="5.16354">
        <ele>363.6</ele>
        <time>2022-07-21T09:49:45Z</time>
      </trkpt>
      <trkpt lat="44.14037" lon="5.16351">
        <ele>363.8</ele>
        <time>2022-07-21T09:49:46Z</time>
      </trkpt>
      <trkpt lat="44.14037" lon="5.1635">
        <ele>363.9</ele>
        <time>2022-07-21T09:49:47Z</time>
      </trkpt>
      <trkpt lat="44.14039" lon="5.16347">
        <ele>364.1</ele>
        <time>2022-07-21T09:49:48Z</time>
      </trkpt>
      <trkpt lat="44.14039" lon="5.16346">
        <ele>364.2</ele>
        <time>2022-07-21T09:49:49Z</time>
      </trkpt>
      <trkpt lat="44.14041" lon="5.16342">
        <ele>364.4</ele>
        <time>2022-07-21T09:49:50Z</time>
      </trkpt>
      <trkpt lat="44.14042" lon="5.16341">
        <ele>364.4</ele>
        <time>2022-07-21T09:49:51Z</time>
      </trkpt>
      <trkpt lat="44.14043" lon="5.16337">
        <ele>364.7</ele>
        <time>2022-07-21T09:49:52Z</time>
      </trkpt>
      <trkpt lat="44.14043" lon="5.16336">
        <ele>364.7</ele>
        <time>2022-07-21T09:49:53Z</time>
      </trkpt>
      <trkpt lat="44.14045" lon="5.16333">
        <ele>364.9</ele>
        <time>2022-07-21T09:49:54Z</time>
      </trkpt>
      <trkpt lat="44.14045" lon="5.16331">
        <ele>365</ele>
        <time>2022-07-21T09:49:55Z</time>
      </trkpt>
      <trkpt lat="44.14046" lon="5.16329">
        <ele>365.1</ele>
        <time>2022-07-21T09:49:56Z</time>
      </trkpt>
      <trkpt lat="44.14047" lon="5.16327">
        <ele>365.2</ele>
        <time>2022-07-21T09:49:57Z</time>
      </trkpt>
      <trkpt lat="44.14048" lon="5.16324">
        <ele>365.4</ele>
        <time>2022-07-21T09:49:58Z</time>
      </trkpt>
      <trkpt lat="44.14049" lon="5.16323">
        <ele>365.4</ele>
        <time>2022-07-21T09:49:59Z</time>
      </trkpt>
      <trkpt lat="44.1405" lon="5.1632">
        <ele>365.5</ele>
        <time>2022-07-21T09:50:00Z</time>
      </trkpt>
      <trkpt lat="44.14051" lon="5.16319">
        <ele>365.6</ele>
        <time>2022-07-21T09:50:01Z</time>
      </trkpt>
      <trkpt lat="44.14053" lon="5.16315">
        <ele>365.8</ele>
        <time>2022-07-21T09:50:02Z</time>
      </trkpt>
      <trkpt lat="44.14053" lon="5.16314">
        <ele>365.8</ele>
        <time>2022-07-21T09:50:03Z</time>
      </trkpt>
      <trkpt lat="44.14055" lon="5.16311">
        <ele>366</ele>
        <time>2022-07-21T09:50:04Z</time>
      </trkpt>
      <trkpt lat="44.14056" lon="5.1631">
        <ele>366</ele>
        <time>2022-07-21T09:50:05Z</time>
      </trkpt>
      <trkpt lat="44.14057" lon="5.16307">
        <ele>366.2</ele>
        <time>2022-07-21T09:50:06Z</time>
      </trkpt>
      <trkpt lat="44.14058" lon="5.16306">
        <ele>366.2</ele>
        <time>2022-07-21T09:50:07Z</time>
      </trkpt>
      <trkpt lat="44.14059" lon="5.16303">
        <ele>366.4</ele>
        <time>2022-07-21T09:50:08Z</time>
      </trkpt>
      <trkpt lat="44.1406" lon="5.16302">
        <ele>366.4</ele>
        <time>2022-07-21T09:50:09Z</time>
      </trkpt>
      <trkpt lat="44.14061" lon="5.16298">
        <ele>366.5</ele>
        <time>2022-07-21T09:50:10Z</time>
      </trkpt>
      <trkpt lat="44.14061" lon="5.16297">
        <ele>366.5</ele>
        <time>2022-07-21T09:50:11Z</time>
      </trkpt>
      <trkpt lat="44.14062" lon="5.16295">
        <ele>366.6</ele>
        <time>2022-07-21T09:50:12Z</time>
      </trkpt>
      <trkpt lat="44.14063" lon="5.16292">
        <ele>366.7</ele>
        <time>2022-07-21T09:50:13Z</time>
      </trkpt>
      <trkpt lat="44.14064" lon="5.16289">
        <ele>366.8</ele>
        <time>2022-07-21T09:50:14Z</time>
      </trkpt>
      <trkpt lat="44.14064" lon="5.16287">
        <ele>366.8</ele>
        <time>2022-07-21T09:50:15Z</time>
      </trkpt>
      <trkpt lat="44.14065" lon="5.16283">
        <ele>366.9</ele>
        <time>2022-07-21T09:50:16Z</time>
      </trkpt>
      <trkpt lat="44.14065" lon="5.16282">
        <ele>367</ele>
        <time>2022-07-21T09:50:17Z</time>
      </trkpt>
      <trkpt lat="44.14066" lon="5.16277">
        <ele>367.1</ele>
        <time>2022-07-21T09:50:18Z</time>
      </trkpt>
      <trkpt lat="44.14067" lon="5.16275">
        <ele>367.1</ele>
        <time>2022-07-21T09:50:19Z</time>
      </trkpt>
      <trkpt lat="44.14067" lon="5.16271">
        <ele>367.2</ele>
        <time>2022-07-21T09:50:20Z</time>
      </trkpt>
      <trkpt lat="44.14068" lon="5.16269">
        <ele>367.2</ele>
        <time>2022-07-21T09:50:21Z</time>
      </trkpt>
      <trkpt lat="44.14068" lon="5.16264">
        <ele>367.2</ele>
        <time>2022-07-21T09:50:22Z</time>
      </trkpt>
      <trkpt lat="44.14068" lon="5.16262">
        <ele>367.2</ele>
        <time>2022-07-21T09:50:23Z</time>
      </trkpt>
      <trkpt lat="44.14069" lon="5.16256">
        <ele>367.2</ele>
        <time>2022-07-21T09:50:24Z</time>
      </trkpt>
      <trkpt lat="44.14069" lon="5.16254">
        <ele>367.1</ele>
        <time>2022-07-21T09:50:25Z</time>
      </trkpt>
      <trkpt lat="44.14069" lon="5.1625">
        <ele>367.1</ele>
        <time>2022-07-21T09:50:26Z</time>
      </trkpt>
      <trkpt lat="44.14069" lon="5.16246">
        <ele>367</ele>
        <time>2022-07-21T09:50:27Z</time>
      </trkpt>
      <trkpt lat="44.14068" lon="5.16242">
        <ele>367</ele>
        <time>2022-07-21T09:50:28Z</time>
      </trkpt>
      <trkpt lat="44.14068" lon="5.16237">
        <ele>366.8</ele>
        <time>2022-07-21T09:50:29Z</time>
      </trkpt>
      <trkpt lat="44.14069" lon="5.16231">
        <ele>366.7</ele>
        <time>2022-07-21T09:50:30Z</time>
      </trkpt>
      <trkpt lat="44.14069" lon="5.16226">
        <ele>366.6</ele>
        <time>2022-07-21T09:50:31Z</time>
      </trkpt>
      <trkpt lat="44.1407" lon="5.1622">
        <ele>366.4</ele>
        <time>2022-07-21T09:50:32Z</time>
      </trkpt>
      <trkpt lat="44.1407" lon="5.16215">
        <ele>366.2</ele>
        <time>2022-07-21T09:50:33Z</time>
      </trkpt>
      <trkpt lat="44.14071" lon="5.1621">
        <ele>366</ele>
        <time>2022-07-21T09:50:34Z</time>
      </trkpt>
      <trkpt lat="44.14071" lon="5.16205">
        <ele>365.8</ele>
        <time>2022-07-21T09:50:35Z</time>
      </trkpt>
      <trkpt lat="44.14072" lon="5.16194">
        <ele>365.3</ele>
        <time>2022-07-21T09:50:36Z</time>
      </trkpt>
      <trkpt lat="44.14074" lon="5.16187">
        <ele>364.9</ele>
        <time>2022-07-21T09:50:37Z</time>
      </trkpt>
      <trkpt lat="44.14074" lon="5.16178">
        <ele>364.5</ele>
        <time>2022-07-21T09:50:38Z</time>
      </trkpt>
      <trkpt lat="44.14074" lon="5.16172">
        <ele>364.1</ele>
        <time>2022-07-21T09:50:39Z</time>
      </trkpt>
      <trkpt lat="44.14075" lon="5.16167">
        <ele>363.8</ele>
        <time>2022-07-21T09:50:40Z</time>
      </trkpt>
      <trkpt lat="44.14077" lon="5.16157">
        <ele>363.2</ele>
        <time>2022-07-21T09:50:41Z</time>
      </trkpt>
      <trkpt lat="44.14081" lon="5.16148">
        <ele>362.5</ele>
        <time>2022-07-21T09:50:42Z</time>
      </trkpt>
      <trkpt lat="44.14085" lon="5.16138">
        <ele>361.8</ele>
        <time>2022-07-21T09:50:43Z</time>
      </trkpt>
      <trkpt lat="44.14087" lon="5.16127">
        <ele>361</ele>
        <time>2022-07-21T09:50:44Z</time>
      </trkpt>
      <trkpt lat="44.1409" lon="5.16116">
        <ele>360.3</ele>
        <time>2022-07-21T09:50:45Z</time>
      </trkpt>
      <trkpt lat="44.14095" lon="5.16105">
        <ele>359.7</ele>
        <time>2022-07-21T09:50:46Z</time>
      </trkpt>
      <trkpt lat="44.14098" lon="5.16093">
        <ele>359</ele>
        <time>2022-07-21T09:50:47Z</time>
      </trkpt>
      <trkpt lat="44.14103" lon="5.16082">
        <ele>358.4</ele>
        <time>2022-07-21T09:50:48Z</time>
      </trkpt>
      <trkpt lat="44.14107" lon="5.16071">
        <ele>357.7</ele>
        <time>2022-07-21T09:50:49Z</time>
      </trkpt>
      <trkpt lat="44.14112" lon="5.16058">
        <ele>357</ele>
        <time>2022-07-21T09:50:50Z</time>
      </trkpt>
      <trkpt lat="44.14118" lon="5.16044">
        <ele>356.2</ele>
        <time>2022-07-21T09:50:51Z</time>
      </trkpt>
      <trkpt lat="44.14123" lon="5.16031">
        <ele>355.6</ele>
        <time>2022-07-21T09:50:52Z</time>
      </trkpt>
      <trkpt lat="44.14126" lon="5.16018">
        <ele>355.1</ele>
        <time>2022-07-21T09:50:53Z</time>
      </trkpt>
      <trkpt lat="44.14129" lon="5.16002">
        <ele>354.6</ele>
        <time>2022-07-21T09:50:54Z</time>
      </trkpt>
      <trkpt lat="44.1413" lon="5.15987">
        <ele>354.1</ele>
        <time>2022-07-21T09:50:55Z</time>
      </trkpt>
      <trkpt lat="44.14131" lon="5.15973">
        <ele>353.7</ele>
        <time>2022-07-21T09:50:56Z</time>
      </trkpt>
      <trkpt lat="44.14132" lon="5.15959">
        <ele>353.4</ele>
        <time>2022-07-21T09:50:57Z</time>
      </trkpt>
      <trkpt lat="44.14133" lon="5.15945">
        <ele>353.1</ele>
        <time>2022-07-21T09:50:58Z</time>
      </trkpt>
      <trkpt lat="44.14134" lon="5.15931">
        <ele>352.9</ele>
        <time>2022-07-21T09:50:59Z</time>
      </trkpt>
      <trkpt lat="44.14133" lon="5.15917">
        <ele>352.8</ele>
        <time>2022-07-21T09:51:00Z</time>
      </trkpt>
      <trkpt lat="44.14133" lon="5.15904">
        <ele>352.7</ele>
        <time>2022-07-21T09:51:01Z</time>
      </trkpt>
      <trkpt lat="44.14132" lon="5.15891">
        <ele>352.7</ele>
        <time>2022-07-21T09:51:02Z</time>
      </trkpt>
      <trkpt lat="44.14131" lon="5.15879">
        <ele>352.8</ele>
        <time>2022-07-21T09:51:03Z</time>
      </trkpt>
      <trkpt lat="44.1413" lon="5.15866">
        <ele>352.9</ele>
        <time>2022-07-21T09:51:04Z</time>
      </trkpt>
      <trkpt lat="44.14129" lon="5.15854">
        <ele>353.2</ele>
        <time>2022-07-21T09:51:05Z</time>
      </trkpt>
      <trkpt lat="44.14128" lon="5.15843">
        <ele>353.5</ele>
        <time>2022-07-21T09:51:06Z</time>
      </trkpt>
      <trkpt lat="44.14127" lon="5.15838">
        <ele>353.6</ele>
        <time>2022-07-21T09:51:07Z</time>
      </trkpt>
      <trkpt lat="44.14128" lon="5.15828">
        <ele>353.9</ele>
        <time>2022-07-21T09:51:08Z</time>
      </trkpt>
      <trkpt lat="44.14126" lon="5.1582">
        <ele>354.2</ele>
        <time>2022-07-21T09:51:09Z</time>
      </trkpt>
      <trkpt lat="44.14128" lon="5.15812">
        <ele>354.5</ele>
        <time>2022-07-21T09:51:10Z</time>
      </trkpt>
      <trkpt lat="44.1413" lon="5.15807">
        <ele>354.7</ele>
        <time>2022-07-21T09:51:11Z</time>
      </trkpt>
      <trkpt lat="44.14132" lon="5.15802">
        <ele>354.9</ele>
        <time>2022-07-21T09:51:12Z</time>
      </trkpt>
      <trkpt lat="44.14133" lon="5.15798">
        <ele>355</ele>
        <time>2022-07-21T09:51:13Z</time>
      </trkpt>
      <trkpt lat="44.14134" lon="5.15794">
        <ele>355.2</ele>
        <time>2022-07-21T09:51:14Z</time>
      </trkpt>
      <trkpt lat="44.14135" lon="5.1579">
        <ele>355.4</ele>
        <time>2022-07-21T09:51:15Z</time>
      </trkpt>
      <trkpt lat="44.14134" lon="5.15786">
        <ele>355.6</ele>
        <time>2022-07-21T09:51:16Z</time>
      </trkpt>
      <trkpt lat="44.14135" lon="5.15783">
        <ele>355.8</ele>
        <time>2022-07-21T09:51:17Z</time>
      </trkpt>
      <trkpt lat="44.14136" lon="5.15779">
        <ele>356</ele>
        <time>2022-07-21T09:51:18Z</time>
      </trkpt>
      <trkpt lat="44.14137" lon="5.15775">
        <ele>356.2</ele>
        <time>2022-07-21T09:51:19Z</time>
      </trkpt>
      <trkpt lat="44.14139" lon="5.15771">
        <ele>356.4</ele>
        <time>2022-07-21T09:51:20Z</time>
      </trkpt>
      <trkpt lat="44.14139" lon="5.1577">
        <ele>356.5</ele>
        <time>2022-07-21T09:51:21Z</time>
      </trkpt>
      <trkpt lat="44.14141" lon="5.15766">
        <ele>356.7</ele>
        <time>2022-07-21T09:51:22Z</time>
      </trkpt>
      <trkpt lat="44.14142" lon="5.15765">
        <ele>356.8</ele>
        <time>2022-07-21T09:51:23Z</time>
      </trkpt>
      <trkpt lat="44.14144" lon="5.15762">
        <ele>357</ele>
        <time>2022-07-21T09:51:24Z</time>
      </trkpt>
      <trkpt lat="44.14144" lon="5.1576">
        <ele>357.1</ele>
        <time>2022-07-21T09:51:25Z</time>
      </trkpt>
      <trkpt lat="44.14146" lon="5.15757">
        <ele>357.3</ele>
        <time>2022-07-21T09:51:26Z</time>
      </trkpt>
      <trkpt lat="44.14147" lon="5.15756">
        <ele>357.4</ele>
        <time>2022-07-21T09:51:27Z</time>
      </trkpt>
      <trkpt lat="44.14149" lon="5.15752">
        <ele>357.6</ele>
        <time>2022-07-21T09:51:28Z</time>
      </trkpt>
      <trkpt lat="44.1415" lon="5.15751">
        <ele>357.7</ele>
        <time>2022-07-21T09:51:29Z</time>
      </trkpt>
      <trkpt lat="44.14151" lon="5.15748">
        <ele>357.9</ele>
        <time>2022-07-21T09:51:30Z</time>
      </trkpt>
      <trkpt lat="44.14152" lon="5.15747">
        <ele>358</ele>
        <time>2022-07-21T09:51:31Z</time>
      </trkpt>
      <trkpt lat="44.14154" lon="5.15743">
        <ele>358.3</ele>
        <time>2022-07-21T09:51:32Z</time>
      </trkpt>
      <trkpt lat="44.14155" lon="5.15742">
        <ele>358.3</ele>
        <time>2022-07-21T09:51:33Z</time>
      </trkpt>
      <trkpt lat="44.14157" lon="5.15739">
        <ele>358.6</ele>
        <time>2022-07-21T09:51:34Z</time>
      </trkpt>
      <trkpt lat="44.14157" lon="5.15738">
        <ele>358.7</ele>
        <time>2022-07-21T09:51:35Z</time>
      </trkpt>
      <trkpt lat="44.14159" lon="5.15734">
        <ele>358.9</ele>
        <time>2022-07-21T09:51:36Z</time>
      </trkpt>
      <trkpt lat="44.14159" lon="5.15733">
        <ele>358.9</ele>
        <time>2022-07-21T09:51:37Z</time>
      </trkpt>
      <trkpt lat="44.1416" lon="5.15732">
        <ele>359.1</ele>
        <time>2022-07-21T09:51:38Z</time>
      </trkpt>
      <trkpt lat="44.14162" lon="5.1573">
        <ele>359.2</ele>
        <time>2022-07-21T09:51:39Z</time>
      </trkpt>
      <trkpt lat="44.14163" lon="5.15726">
        <ele>359.4</ele>
        <time>2022-07-21T09:51:40Z</time>
      </trkpt>
      <trkpt lat="44.14164" lon="5.15725">
        <ele>359.5</ele>
        <time>2022-07-21T09:51:41Z</time>
      </trkpt>
      <trkpt lat="44.14165" lon="5.15723">
        <ele>359.7</ele>
        <time>2022-07-21T09:51:42Z</time>
      </trkpt>
      <trkpt lat="44.14166" lon="5.15722">
        <ele>359.8</ele>
        <time>2022-07-21T09:51:43Z</time>
      </trkpt>
      <trkpt lat="44.14167" lon="5.1572">
        <ele>359.9</ele>
        <time>2022-07-21T09:51:44Z</time>
      </trkpt>
      <trkpt lat="44.14168" lon="5.15719">
        <ele>360</ele>
        <time>2022-07-21T09:51:45Z</time>
      </trkpt>
      <trkpt lat="44.1417" lon="5.15716">
        <ele>360.2</ele>
        <time>2022-07-21T09:51:46Z</time>
      </trkpt>
      <trkpt lat="44.1417" lon="5.15715">
        <ele>360.3</ele>
        <time>2022-07-21T09:51:47Z</time>
      </trkpt>
      <trkpt lat="44.14172" lon="5.15713">
        <ele>360.5</ele>
        <time>2022-07-21T09:51:48Z</time>
      </trkpt>
      <trkpt lat="44.14173" lon="5.15712">
        <ele>360.5</ele>
        <time>2022-07-21T09:51:49Z</time>
      </trkpt>
      <trkpt lat="44.14173" lon="5.15712">
        <ele>360.6</ele>
        <time>2022-07-21T09:51:50Z</time>
      </trkpt>
      <trkpt lat="44.14175" lon="5.15708">
        <ele>360.8</ele>
        <time>2022-07-21T09:51:51Z</time>
      </trkpt>
      <trkpt lat="44.14176" lon="5.15707">
        <ele>360.9</ele>
        <time>2022-07-21T09:51:52Z</time>
      </trkpt>
      <trkpt lat="44.14178" lon="5.15703">
        <ele>361.2</ele>
        <time>2022-07-21T09:51:53Z</time>
      </trkpt>
      <trkpt lat="44.14178" lon="5.15702">
        <ele>361.3</ele>
        <time>2022-07-21T09:51:54Z</time>
      </trkpt>
      <trkpt lat="44.1418" lon="5.157">
        <ele>361.4</ele>
        <time>2022-07-21T09:51:55Z</time>
      </trkpt>
      <trkpt lat="44.14181" lon="5.15699">
        <ele>361.6</ele>
        <time>2022-07-21T09:51:56Z</time>
      </trkpt>
      <trkpt lat="44.14182" lon="5.15698">
        <ele>361.7</ele>
        <time>2022-07-21T09:51:57Z</time>
      </trkpt>
      <trkpt lat="44.14184" lon="5.15696">
        <ele>361.8</ele>
        <time>2022-07-21T09:51:58Z</time>
      </trkpt>
      <trkpt lat="44.14186" lon="5.15693">
        <ele>362.1</ele>
        <time>2022-07-21T09:51:59Z</time>
      </trkpt>
      <trkpt lat="44.14186" lon="5.15692">
        <ele>362.1</ele>
        <time>2022-07-21T09:52:00Z</time>
      </trkpt>
      <trkpt lat="44.14188" lon="5.15688">
        <ele>362.4</ele>
        <time>2022-07-21T09:52:01Z</time>
      </trkpt>
      <trkpt lat="44.14189" lon="5.15686">
        <ele>362.5</ele>
        <time>2022-07-21T09:52:02Z</time>
      </trkpt>
      <trkpt lat="44.14191" lon="5.15683">
        <ele>362.7</ele>
        <time>2022-07-21T09:52:03Z</time>
      </trkpt>
      <trkpt lat="44.14192" lon="5.15682">
        <ele>362.8</ele>
        <time>2022-07-21T09:52:04Z</time>
      </trkpt>
      <trkpt lat="44.14193" lon="5.15678">
        <ele>363.1</ele>
        <time>2022-07-21T09:52:05Z</time>
      </trkpt>
      <trkpt lat="44.14194" lon="5.15676">
        <ele>363.1</ele>
        <time>2022-07-21T09:52:06Z</time>
      </trkpt>
      <trkpt lat="44.14194" lon="5.15671">
        <ele>363.4</ele>
        <time>2022-07-21T09:52:07Z</time>
      </trkpt>
      <trkpt lat="44.14194" lon="5.15669">
        <ele>363.5</ele>
        <time>2022-07-21T09:52:08Z</time>
      </trkpt>
      <trkpt lat="44.14194" lon="5.15665">
        <ele>363.7</ele>
        <time>2022-07-21T09:52:09Z</time>
      </trkpt>
      <trkpt lat="44.14192" lon="5.15661">
        <ele>363.9</ele>
        <time>2022-07-21T09:52:10Z</time>
      </trkpt>
      <trkpt lat="44.14191" lon="5.15659">
        <ele>364</ele>
        <time>2022-07-21T09:52:11Z</time>
      </trkpt>
      <trkpt lat="44.1419" lon="5.15655">
        <ele>364.3</ele>
        <time>2022-07-21T09:52:12Z</time>
      </trkpt>
      <trkpt lat="44.14189" lon="5.15654">
        <ele>364.3</ele>
        <time>2022-07-21T09:52:13Z</time>
      </trkpt>
      <trkpt lat="44.14186" lon="5.15649">
        <ele>364.6</ele>
        <time>2022-07-21T09:52:14Z</time>
      </trkpt>
      <trkpt lat="44.14186" lon="5.15648">
        <ele>364.7</ele>
        <time>2022-07-21T09:52:15Z</time>
      </trkpt>
      <trkpt lat="44.14183" lon="5.15644">
        <ele>364.8</ele>
        <time>2022-07-21T09:52:16Z</time>
      </trkpt>
      <trkpt lat="44.14183" lon="5.15642">
        <ele>364.8</ele>
        <time>2022-07-21T09:52:17Z</time>
      </trkpt>
      <trkpt lat="44.14181" lon="5.15638">
        <ele>365</ele>
        <time>2022-07-21T09:52:18Z</time>
      </trkpt>
      <trkpt lat="44.1418" lon="5.15636">
        <ele>365</ele>
        <time>2022-07-21T09:52:19Z</time>
      </trkpt>
      <trkpt lat="44.14177" lon="5.15633">
        <ele>365.1</ele>
        <time>2022-07-21T09:52:20Z</time>
      </trkpt>
      <trkpt lat="44.14176" lon="5.15632">
        <ele>365.2</ele>
        <time>2022-07-21T09:52:21Z</time>
      </trkpt>
      <trkpt lat="44.14173" lon="5.15628">
        <ele>365.2</ele>
        <time>2022-07-21T09:52:22Z</time>
      </trkpt>
      <trkpt lat="44.14173" lon="5.15626">
        <ele>365.3</ele>
        <time>2022-07-21T09:52:23Z</time>
      </trkpt>
      <trkpt lat="44.1417" lon="5.15622">
        <ele>365.4</ele>
        <time>2022-07-21T09:52:24Z</time>
      </trkpt>
      <trkpt lat="44.14169" lon="5.15621">
        <ele>365.4</ele>
        <time>2022-07-21T09:52:25Z</time>
      </trkpt>
      <trkpt lat="44.14167" lon="5.15618">
        <ele>365.5</ele>
        <time>2022-07-21T09:52:26Z</time>
      </trkpt>
      <trkpt lat="44.14166" lon="5.15617">
        <ele>365.5</ele>
        <time>2022-07-21T09:52:27Z</time>
      </trkpt>
      <trkpt lat="44.14163" lon="5.15614">
        <ele>365.6</ele>
        <time>2022-07-21T09:52:28Z</time>
      </trkpt>
      <trkpt lat="44.14162" lon="5.15613">
        <ele>365.6</ele>
        <time>2022-07-21T09:52:29Z</time>
      </trkpt>
      <trkpt lat="44.14161" lon="5.1561">
        <ele>365.8</ele>
        <time>2022-07-21T09:52:30Z</time>
      </trkpt>
      <trkpt lat="44.1416" lon="5.15608">
        <ele>365.8</ele>
        <time>2022-07-21T09:52:31Z</time>
      </trkpt>
      <trkpt lat="44.14158" lon="5.15605">
        <ele>366</ele>
        <time>2022-07-21T09:52:32Z</time>
      </trkpt>
      <trkpt lat="44.14157" lon="5.15604">
        <ele>366</ele>
        <time>2022-07-21T09:52:33Z</time>
      </trkpt>
      <trkpt lat="44.14156" lon="5.15601">
        <ele>366.2</ele>
        <time>2022-07-21T09:52:34Z</time>
      </trkpt>
      <trkpt lat="44.14156" lon="5.156">
        <ele>366.2</ele>
        <time>2022-07-21T09:52:35Z</time>
      </trkpt>
      <trkpt lat="44.14155" lon="5.15598">
        <ele>366.3</ele>
        <time>2022-07-21T09:52:36Z</time>
      </trkpt>
      <trkpt lat="44.14154" lon="5.15596">
        <ele>366.4</ele>
        <time>2022-07-21T09:52:37Z</time>
      </trkpt>
      <trkpt lat="44.14152" lon="5.15594">
        <ele>366.5</ele>
        <time>2022-07-21T09:52:38Z</time>
      </trkpt>
      <trkpt lat="44.14152" lon="5.15592">
        <ele>366.6</ele>
        <time>2022-07-21T09:52:39Z</time>
      </trkpt>
      <trkpt lat="44.14151" lon="5.1559">
        <ele>366.7</ele>
        <time>2022-07-21T09:52:40Z</time>
      </trkpt>
      <trkpt lat="44.1415" lon="5.15589">
        <ele>366.7</ele>
        <time>2022-07-21T09:52:41Z</time>
      </trkpt>
      <trkpt lat="44.14149" lon="5.15587">
        <ele>366.8</ele>
        <time>2022-07-21T09:52:42Z</time>
      </trkpt>
      <trkpt lat="44.14149" lon="5.15585">
        <ele>366.9</ele>
        <time>2022-07-21T09:52:43Z</time>
      </trkpt>
      <trkpt lat="44.14147" lon="5.15582">
        <ele>367.1</ele>
        <time>2022-07-21T09:52:44Z</time>
      </trkpt>
      <trkpt lat="44.14146" lon="5.15581">
        <ele>367.1</ele>
        <time>2022-07-21T09:52:45Z</time>
      </trkpt>
      <trkpt lat="44.14144" lon="5.15577">
        <ele>367.3</ele>
        <time>2022-07-21T09:52:46Z</time>
      </trkpt>
      <trkpt lat="44.14143" lon="5.15576">
        <ele>367.4</ele>
        <time>2022-07-21T09:52:47Z</time>
      </trkpt>
      <trkpt lat="44.14141" lon="5.15573">
        <ele>367.6</ele>
        <time>2022-07-21T09:52:48Z</time>
      </trkpt>
      <trkpt lat="44.1414" lon="5.15572">
        <ele>367.6</ele>
        <time>2022-07-21T09:52:49Z</time>
      </trkpt>
      <trkpt lat="44.14137" lon="5.15569">
        <ele>367.8</ele>
        <time>2022-07-21T09:52:50Z</time>
      </trkpt>
      <trkpt lat="44.14136" lon="5.15568">
        <ele>367.9</ele>
        <time>2022-07-21T09:52:51Z</time>
      </trkpt>
      <trkpt lat="44.14134" lon="5.15566">
        <ele>368.1</ele>
        <time>2022-07-21T09:52:52Z</time>
      </trkpt>
      <trkpt lat="44.14133" lon="5.15565">
        <ele>368.1</ele>
        <time>2022-07-21T09:52:53Z</time>
      </trkpt>
      <trkpt lat="44.14131" lon="5.15562">
        <ele>368.3</ele>
        <time>2022-07-21T09:52:54Z</time>
      </trkpt>
      <trkpt lat="44.14131" lon="5.15561">
        <ele>368.3</ele>
        <time>2022-07-21T09:52:55Z</time>
      </trkpt>
      <trkpt lat="44.1413" lon="5.15559">
        <ele>368.4</ele>
        <time>2022-07-21T09:52:56Z</time>
      </trkpt>
      <trkpt lat="44.14129" lon="5.15557">
        <ele>368.5</ele>
        <time>2022-07-21T09:52:57Z</time>
      </trkpt>
      <trkpt lat="44.14128" lon="5.15556">
        <ele>368.6</ele>
        <time>2022-07-21T09:52:58Z</time>
      </trkpt>
      <trkpt lat="44.14127" lon="5.15555">
        <ele>368.7</ele>
        <time>2022-07-21T09:52:59Z</time>
      </trkpt>
      <trkpt lat="44.14126" lon="5.15553">
        <ele>368.8</ele>
        <time>2022-07-21T09:53:00Z</time>
      </trkpt>
      <trkpt lat="44.14124" lon="5.15551">
        <ele>368.9</ele>
        <time>2022-07-21T09:53:01Z</time>
      </trkpt>
      <trkpt lat="44.14122" lon="5.15549">
        <ele>369.1</ele>
        <time>2022-07-21T09:53:02Z</time>
      </trkpt>
      <trkpt lat="44.14121" lon="5.15548">
        <ele>369.1</ele>
        <time>2022-07-21T09:53:03Z</time>
      </trkpt>
      <trkpt lat="44.14118" lon="5.15546">
        <ele>369.4</ele>
        <time>2022-07-21T09:53:04Z</time>
      </trkpt>
      <trkpt lat="44.14117" lon="5.15546">
        <ele>369.4</ele>
        <time>2022-07-21T09:53:05Z</time>
      </trkpt>
      <trkpt lat="44.14114" lon="5.15544">
        <ele>369.6</ele>
        <time>2022-07-21T09:53:06Z</time>
      </trkpt>
      <trkpt lat="44.14111" lon="5.15544">
        <ele>369.8</ele>
        <time>2022-07-21T09:53:07Z</time>
      </trkpt>
      <trkpt lat="44.14108" lon="5.15542">
        <ele>370</ele>
        <time>2022-07-21T09:53:08Z</time>
      </trkpt>
      <trkpt lat="44.14107" lon="5.15541">
        <ele>370.1</ele>
        <time>2022-07-21T09:53:09Z</time>
      </trkpt>
      <trkpt lat="44.14105" lon="5.15539">
        <ele>370.3</ele>
        <time>2022-07-21T09:53:10Z</time>
      </trkpt>
      <trkpt lat="44.14104" lon="5.15538">
        <ele>370.3</ele>
        <time>2022-07-21T09:53:11Z</time>
      </trkpt>
      <trkpt lat="44.14102" lon="5.15536">
        <ele>370.5</ele>
        <time>2022-07-21T09:53:12Z</time>
      </trkpt>
      <trkpt lat="44.14101" lon="5.15535">
        <ele>370.6</ele>
        <time>2022-07-21T09:53:13Z</time>
      </trkpt>
      <trkpt lat="44.14099" lon="5.15532">
        <ele>370.8</ele>
        <time>2022-07-21T09:53:14Z</time>
      </trkpt>
      <trkpt lat="44.14098" lon="5.15531">
        <ele>370.9</ele>
        <time>2022-07-21T09:53:15Z</time>
      </trkpt>
      <trkpt lat="44.14096" lon="5.15528">
        <ele>371</ele>
        <time>2022-07-21T09:53:16Z</time>
      </trkpt>
      <trkpt lat="44.14096" lon="5.15527">
        <ele>371.1</ele>
        <time>2022-07-21T09:53:17Z</time>
      </trkpt>
      <trkpt lat="44.14094" lon="5.15524">
        <ele>371.3</ele>
        <time>2022-07-21T09:53:18Z</time>
      </trkpt>
      <trkpt lat="44.14094" lon="5.15522">
        <ele>371.3</ele>
        <time>2022-07-21T09:53:19Z</time>
      </trkpt>
      <trkpt lat="44.14091" lon="5.15519">
        <ele>371.5</ele>
        <time>2022-07-21T09:53:20Z</time>
      </trkpt>
      <trkpt lat="44.14091" lon="5.15518">
        <ele>371.6</ele>
        <time>2022-07-21T09:53:21Z</time>
      </trkpt>
      <trkpt lat="44.14088" lon="5.15514">
        <ele>371.8</ele>
        <time>2022-07-21T09:53:22Z</time>
      </trkpt>
      <trkpt lat="44.14088" lon="5.15513">
        <ele>371.9</ele>
        <time>2022-07-21T09:53:23Z</time>
      </trkpt>
      <trkpt lat="44.14086" lon="5.15509">
        <ele>372.1</ele>
        <time>2022-07-21T09:53:24Z</time>
      </trkpt>
      <trkpt lat="44.14085" lon="5.15508">
        <ele>372.2</ele>
        <time>2022-07-21T09:53:25Z</time>
      </trkpt>
      <trkpt lat="44.14083" lon="5.15504">
        <ele>372.4</ele>
        <time>2022-07-21T09:53:26Z</time>
      </trkpt>
      <trkpt lat="44.14083" lon="5.15503">
        <ele>372.4</ele>
        <time>2022-07-21T09:53:27Z</time>
      </trkpt>
      <trkpt lat="44.14082" lon="5.15499">
        <ele>372.6</ele>
        <time>2022-07-21T09:53:28Z</time>
      </trkpt>
      <trkpt lat="44.14081" lon="5.15498">
        <ele>372.7</ele>
        <time>2022-07-21T09:53:29Z</time>
      </trkpt>
      <trkpt lat="44.1408" lon="5.15496">
        <ele>372.8</ele>
        <time>2022-07-21T09:53:30Z</time>
      </trkpt>
      <trkpt lat="44.14079" lon="5.15494">
        <ele>372.9</ele>
        <time>2022-07-21T09:53:31Z</time>
      </trkpt>
      <trkpt lat="44.14078" lon="5.15491">
        <ele>373</ele>
        <time>2022-07-21T09:53:32Z</time>
      </trkpt>
      <trkpt lat="44.14077" lon="5.15489">
        <ele>373.1</ele>
        <time>2022-07-21T09:53:33Z</time>
      </trkpt>
      <trkpt lat="44.14077" lon="5.15487">
        <ele>373.2</ele>
        <time>2022-07-21T09:53:34Z</time>
      </trkpt>
      <trkpt lat="44.14076" lon="5.15485">
        <ele>373.3</ele>
        <time>2022-07-21T09:53:35Z</time>
      </trkpt>
      <trkpt lat="44.14076" lon="5.15483">
        <ele>373.4</ele>
        <time>2022-07-21T09:53:36Z</time>
      </trkpt>
      <trkpt lat="44.14075" lon="5.15481">
        <ele>373.5</ele>
        <time>2022-07-21T09:53:37Z</time>
      </trkpt>
      <trkpt lat="44.14075" lon="5.15478">
        <ele>373.6</ele>
        <time>2022-07-21T09:53:38Z</time>
      </trkpt>
      <trkpt lat="44.14076" lon="5.15476">
        <ele>373.7</ele>
        <time>2022-07-21T09:53:39Z</time>
      </trkpt>
      <trkpt lat="44.14076" lon="5.15472">
        <ele>373.9</ele>
        <time>2022-07-21T09:53:40Z</time>
      </trkpt>
      <trkpt lat="44.14075" lon="5.1547">
        <ele>374</ele>
        <time>2022-07-21T09:53:41Z</time>
      </trkpt>
      <trkpt lat="44.14075" lon="5.15468">
        <ele>374.1</ele>
        <time>2022-07-21T09:53:42Z</time>
      </trkpt>
      <trkpt lat="44.14075" lon="5.15466">
        <ele>374.2</ele>
        <time>2022-07-21T09:53:43Z</time>
      </trkpt>
      <trkpt lat="44.14074" lon="5.15464">
        <ele>374.3</ele>
        <time>2022-07-21T09:53:44Z</time>
      </trkpt>
      <trkpt lat="44.14074" lon="5.15461">
        <ele>374.4</ele>
        <time>2022-07-21T09:53:45Z</time>
      </trkpt>
      <trkpt lat="44.14073" lon="5.15459">
        <ele>374.5</ele>
        <time>2022-07-21T09:53:46Z</time>
      </trkpt>
      <trkpt lat="44.14073" lon="5.15457">
        <ele>374.6</ele>
        <time>2022-07-21T09:53:47Z</time>
      </trkpt>
      <trkpt lat="44.14073" lon="5.15454">
        <ele>374.7</ele>
        <time>2022-07-21T09:53:48Z</time>
      </trkpt>
      <trkpt lat="44.14072" lon="5.15452">
        <ele>374.8</ele>
        <time>2022-07-21T09:53:49Z</time>
      </trkpt>
      <trkpt lat="44.14072" lon="5.1545">
        <ele>374.9</ele>
        <time>2022-07-21T09:53:50Z</time>
      </trkpt>
      <trkpt lat="44.14071" lon="5.15448">
        <ele>375</ele>
        <time>2022-07-21T09:53:51Z</time>
      </trkpt>
      <trkpt lat="44.14071" lon="5.15446">
        <ele>375.1</ele>
        <time>2022-07-21T09:53:52Z</time>
      </trkpt>
      <trkpt lat="44.1407" lon="5.15444">
        <ele>375.2</ele>
        <time>2022-07-21T09:53:53Z</time>
      </trkpt>
      <trkpt lat="44.1407" lon="5.1544">
        <ele>375.3</ele>
        <time>2022-07-21T09:53:54Z</time>
      </trkpt>
      <trkpt lat="44.1407" lon="5.15439">
        <ele>375.4</ele>
        <time>2022-07-21T09:53:55Z</time>
      </trkpt>
      <trkpt lat="44.14068" lon="5.15435">
        <ele>375.6</ele>
        <time>2022-07-21T09:53:56Z</time>
      </trkpt>
      <trkpt lat="44.14068" lon="5.15434">
        <ele>375.6</ele>
        <time>2022-07-21T09:53:57Z</time>
      </trkpt>
      <trkpt lat="44.14067" lon="5.15431">
        <ele>375.8</ele>
        <time>2022-07-21T09:53:58Z</time>
      </trkpt>
      <trkpt lat="44.14066" lon="5.1543">
        <ele>375.8</ele>
        <time>2022-07-21T09:53:59Z</time>
      </trkpt>
      <trkpt lat="44.14066" lon="5.15427">
        <ele>375.9</ele>
        <time>2022-07-21T09:54:00Z</time>
      </trkpt>
      <trkpt lat="44.14066" lon="5.15425">
        <ele>376.1</ele>
        <time>2022-07-21T09:54:01Z</time>
      </trkpt>
      <trkpt lat="44.14066" lon="5.15421">
        <ele>376.2</ele>
        <time>2022-07-21T09:54:02Z</time>
      </trkpt>
      <trkpt lat="44.14066" lon="5.15419">
        <ele>376.3</ele>
        <time>2022-07-21T09:54:03Z</time>
      </trkpt>
      <trkpt lat="44.14066" lon="5.15417">
        <ele>376.4</ele>
        <time>2022-07-21T09:54:04Z</time>
      </trkpt>
      <trkpt lat="44.14066" lon="5.15415">
        <ele>376.5</ele>
        <time>2022-07-21T09:54:05Z</time>
      </trkpt>
      <trkpt lat="44.14067" lon="5.15411">
        <ele>376.6</ele>
        <time>2022-07-21T09:54:06Z</time>
      </trkpt>
      <trkpt lat="44.14067" lon="5.1541">
        <ele>376.7</ele>
        <time>2022-07-21T09:54:07Z</time>
      </trkpt>
      <trkpt lat="44.14069" lon="5.15406">
        <ele>376.9</ele>
        <time>2022-07-21T09:54:08Z</time>
      </trkpt>
      <trkpt lat="44.14069" lon="5.15405">
        <ele>376.9</ele>
        <time>2022-07-21T09:54:09Z</time>
      </trkpt>
      <trkpt lat="44.1407" lon="5.15401">
        <ele>377.1</ele>
        <time>2022-07-21T09:54:10Z</time>
      </trkpt>
      <trkpt lat="44.14071" lon="5.154">
        <ele>377.2</ele>
        <time>2022-07-21T09:54:11Z</time>
      </trkpt>
      <trkpt lat="44.14072" lon="5.15398">
        <ele>377.3</ele>
        <time>2022-07-21T09:54:12Z</time>
      </trkpt>
      <trkpt lat="44.14072" lon="5.15396">
        <ele>377.3</ele>
        <time>2022-07-21T09:54:13Z</time>
      </trkpt>
      <trkpt lat="44.14073" lon="5.15394">
        <ele>377.4</ele>
        <time>2022-07-21T09:54:14Z</time>
      </trkpt>
      <trkpt lat="44.14074" lon="5.15392">
        <ele>377.6</ele>
        <time>2022-07-21T09:54:15Z</time>
      </trkpt>
      <trkpt lat="44.14075" lon="5.15388">
        <ele>377.7</ele>
        <time>2022-07-21T09:54:16Z</time>
      </trkpt>
      <trkpt lat="44.14076" lon="5.15387">
        <ele>377.8</ele>
        <time>2022-07-21T09:54:17Z</time>
      </trkpt>
      <trkpt lat="44.14077" lon="5.15385">
        <ele>377.9</ele>
        <time>2022-07-21T09:54:18Z</time>
      </trkpt>
      <trkpt lat="44.14077" lon="5.15382">
        <ele>378</ele>
        <time>2022-07-21T09:54:19Z</time>
      </trkpt>
      <trkpt lat="44.14078" lon="5.1538">
        <ele>378.1</ele>
        <time>2022-07-21T09:54:20Z</time>
      </trkpt>
      <trkpt lat="44.14079" lon="5.15379">
        <ele>378.2</ele>
        <time>2022-07-21T09:54:21Z</time>
      </trkpt>
      <trkpt lat="44.1408" lon="5.15377">
        <ele>378.3</ele>
        <time>2022-07-21T09:54:22Z</time>
      </trkpt>
      <trkpt lat="44.14081" lon="5.15376">
        <ele>378.3</ele>
        <time>2022-07-21T09:54:23Z</time>
      </trkpt>
      <trkpt lat="44.14082" lon="5.15373">
        <ele>378.5</ele>
        <time>2022-07-21T09:54:24Z</time>
      </trkpt>
      <trkpt lat="44.14082" lon="5.15372">
        <ele>378.5</ele>
        <time>2022-07-21T09:54:25Z</time>
      </trkpt>
      <trkpt lat="44.14082" lon="5.15371">
        <ele>378.6</ele>
        <time>2022-07-21T09:54:26Z</time>
      </trkpt>
      <trkpt lat="44.14084" lon="5.15366">
        <ele>378.8</ele>
        <time>2022-07-21T09:54:27Z</time>
      </trkpt>
      <trkpt lat="44.14084" lon="5.15365">
        <ele>378.8</ele>
        <time>2022-07-21T09:54:28Z</time>
      </trkpt>
      <trkpt lat="44.14086" lon="5.15361">
        <ele>379</ele>
        <time>2022-07-21T09:54:29Z</time>
      </trkpt>
      <trkpt lat="44.14086" lon="5.1536">
        <ele>379</ele>
        <time>2022-07-21T09:54:30Z</time>
      </trkpt>
      <trkpt lat="44.14087" lon="5.15356">
        <ele>379.2</ele>
        <time>2022-07-21T09:54:31Z</time>
      </trkpt>
      <trkpt lat="44.14087" lon="5.15355">
        <ele>379.2</ele>
        <time>2022-07-21T09:54:32Z</time>
      </trkpt>
      <trkpt lat="44.14088" lon="5.15351">
        <ele>379.4</ele>
        <time>2022-07-21T09:54:33Z</time>
      </trkpt>
      <trkpt lat="44.14089" lon="5.15349">
        <ele>379.5</ele>
        <time>2022-07-21T09:54:34Z</time>
      </trkpt>
      <trkpt lat="44.1409" lon="5.15345">
        <ele>379.7</ele>
        <time>2022-07-21T09:54:35Z</time>
      </trkpt>
      <trkpt lat="44.1409" lon="5.15343">
        <ele>379.8</ele>
        <time>2022-07-21T09:54:36Z</time>
      </trkpt>
      <trkpt lat="44.1409" lon="5.15338">
        <ele>380</ele>
        <time>2022-07-21T09:54:37Z</time>
      </trkpt>
      <trkpt lat="44.1409" lon="5.15336">
        <ele>380.1</ele>
        <time>2022-07-21T09:54:38Z</time>
      </trkpt>
      <trkpt lat="44.1409" lon="5.15332">
        <ele>380.2</ele>
        <time>2022-07-21T09:54:39Z</time>
      </trkpt>
      <trkpt lat="44.14089" lon="5.15331">
        <ele>380.4</ele>
        <time>2022-07-21T09:54:40Z</time>
      </trkpt>
      <trkpt lat="44.1409" lon="5.15326">
        <ele>380.6</ele>
        <time>2022-07-21T09:54:41Z</time>
      </trkpt>
      <trkpt lat="44.1409" lon="5.15325">
        <ele>380.6</ele>
        <time>2022-07-21T09:54:42Z</time>
      </trkpt>
      <trkpt lat="44.1409" lon="5.15322">
        <ele>380.7</ele>
        <time>2022-07-21T09:54:43Z</time>
      </trkpt>
      <trkpt lat="44.14089" lon="5.1532">
        <ele>380.8</ele>
        <time>2022-07-21T09:54:44Z</time>
      </trkpt>
      <trkpt lat="44.14089" lon="5.15315">
        <ele>381.1</ele>
        <time>2022-07-21T09:54:45Z</time>
      </trkpt>
      <trkpt lat="44.14089" lon="5.15313">
        <ele>381.1</ele>
        <time>2022-07-21T09:54:46Z</time>
      </trkpt>
      <trkpt lat="44.14088" lon="5.15308">
        <ele>381.3</ele>
        <time>2022-07-21T09:54:47Z</time>
      </trkpt>
      <trkpt lat="44.14088" lon="5.15307">
        <ele>381.4</ele>
        <time>2022-07-21T09:54:48Z</time>
      </trkpt>
      <trkpt lat="44.14087" lon="5.15303">
        <ele>381.6</ele>
        <time>2022-07-21T09:54:49Z</time>
      </trkpt>
      <trkpt lat="44.14087" lon="5.15297">
        <ele>381.8</ele>
        <time>2022-07-21T09:54:50Z</time>
      </trkpt>
      <trkpt lat="44.14087" lon="5.15296">
        <ele>381.9</ele>
        <time>2022-07-21T09:54:51Z</time>
      </trkpt>
      <trkpt lat="44.14086" lon="5.15291">
        <ele>382.1</ele>
        <time>2022-07-21T09:54:52Z</time>
      </trkpt>
      <trkpt lat="44.14085" lon="5.1529">
        <ele>382.1</ele>
        <time>2022-07-21T09:54:53Z</time>
      </trkpt>
      <trkpt lat="44.14085" lon="5.15288">
        <ele>382.2</ele>
        <time>2022-07-21T09:54:54Z</time>
      </trkpt>
      <trkpt lat="44.14084" lon="5.15285">
        <ele>382.3</ele>
        <time>2022-07-21T09:54:55Z</time>
      </trkpt>
      <trkpt lat="44.14083" lon="5.15281">
        <ele>382.5</ele>
        <time>2022-07-21T09:54:56Z</time>
      </trkpt>
      <trkpt lat="44.14083" lon="5.1528">
        <ele>382.6</ele>
        <time>2022-07-21T09:54:57Z</time>
      </trkpt>
      <trkpt lat="44.14082" lon="5.15276">
        <ele>382.7</ele>
        <time>2022-07-21T09:54:58Z</time>
      </trkpt>
      <trkpt lat="44.14082" lon="5.15274">
        <ele>382.8</ele>
        <time>2022-07-21T09:54:59Z</time>
      </trkpt>
      <trkpt lat="44.14081" lon="5.15269">
        <ele>383</ele>
        <time>2022-07-21T09:55:00Z</time>
      </trkpt>
      <trkpt lat="44.1408" lon="5.15268">
        <ele>383.1</ele>
        <time>2022-07-21T09:55:01Z</time>
      </trkpt>
      <trkpt lat="44.14079" lon="5.15263">
        <ele>383.3</ele>
        <time>2022-07-21T09:55:02Z</time>
      </trkpt>
      <trkpt lat="44.14079" lon="5.15262">
        <ele>383.3</ele>
        <time>2022-07-21T09:55:03Z</time>
      </trkpt>
      <trkpt lat="44.14078" lon="5.1526">
        <ele>383.4</ele>
        <time>2022-07-21T09:55:04Z</time>
      </trkpt>
      <trkpt lat="44.14077" lon="5.15258">
        <ele>383.5</ele>
        <time>2022-07-21T09:55:05Z</time>
      </trkpt>
      <trkpt lat="44.14075" lon="5.15256">
        <ele>383.7</ele>
        <time>2022-07-21T09:55:06Z</time>
      </trkpt>
      <trkpt lat="44.14074" lon="5.15255">
        <ele>383.7</ele>
        <time>2022-07-21T09:55:07Z</time>
      </trkpt>
      <trkpt lat="44.14072" lon="5.15252">
        <ele>383.9</ele>
        <time>2022-07-21T09:55:08Z</time>
      </trkpt>
      <trkpt lat="44.14071" lon="5.1525">
        <ele>384</ele>
        <time>2022-07-21T09:55:09Z</time>
      </trkpt>
      <trkpt lat="44.14069" lon="5.15247">
        <ele>384.1</ele>
        <time>2022-07-21T09:55:10Z</time>
      </trkpt>
      <trkpt lat="44.14068" lon="5.15246">
        <ele>384.2</ele>
        <time>2022-07-21T09:55:11Z</time>
      </trkpt>
      <trkpt lat="44.14065" lon="5.15243">
        <ele>384.3</ele>
        <time>2022-07-21T09:55:12Z</time>
      </trkpt>
      <trkpt lat="44.14065" lon="5.15242">
        <ele>384.4</ele>
        <time>2022-07-21T09:55:13Z</time>
      </trkpt>
      <trkpt lat="44.14062" lon="5.1524">
        <ele>384.6</ele>
        <time>2022-07-21T09:55:14Z</time>
      </trkpt>
      <trkpt lat="44.1406" lon="5.15239">
        <ele>384.7</ele>
        <time>2022-07-21T09:55:15Z</time>
      </trkpt>
      <trkpt lat="44.14058" lon="5.15236">
        <ele>384.8</ele>
        <time>2022-07-21T09:55:16Z</time>
      </trkpt>
      <trkpt lat="44.14057" lon="5.15235">
        <ele>384.9</ele>
        <time>2022-07-21T09:55:17Z</time>
      </trkpt>
      <trkpt lat="44.14055" lon="5.15233">
        <ele>385</ele>
        <time>2022-07-21T09:55:18Z</time>
      </trkpt>
      <trkpt lat="44.14054" lon="5.15232">
        <ele>385.1</ele>
        <time>2022-07-21T09:55:19Z</time>
      </trkpt>
      <trkpt lat="44.14051" lon="5.1523">
        <ele>385.2</ele>
        <time>2022-07-21T09:55:20Z</time>
      </trkpt>
      <trkpt lat="44.14051" lon="5.15229">
        <ele>385.3</ele>
        <time>2022-07-21T09:55:21Z</time>
      </trkpt>
      <trkpt lat="44.14049" lon="5.15226">
        <ele>385.4</ele>
        <time>2022-07-21T09:55:22Z</time>
      </trkpt>
      <trkpt lat="44.14049" lon="5.15225">
        <ele>385.4</ele>
        <time>2022-07-21T09:55:23Z</time>
      </trkpt>
      <trkpt lat="44.14048" lon="5.15224">
        <ele>385.4</ele>
        <time>2022-07-21T09:55:24Z</time>
      </trkpt>
      <trkpt lat="44.14047" lon="5.15223">
        <ele>385.5</ele>
        <time>2022-07-21T09:55:25Z</time>
      </trkpt>
      <trkpt lat="44.14046" lon="5.15222">
        <ele>385.6</ele>
        <time>2022-07-21T09:55:26Z</time>
      </trkpt>
      <trkpt lat="44.14043" lon="5.1522">
        <ele>385.7</ele>
        <time>2022-07-21T09:55:27Z</time>
      </trkpt>
      <trkpt lat="44.14043" lon="5.15219">
        <ele>385.8</ele>
        <time>2022-07-21T09:55:28Z</time>
      </trkpt>
      <trkpt lat="44.1404" lon="5.15217">
        <ele>385.9</ele>
        <time>2022-07-21T09:55:29Z</time>
      </trkpt>
      <trkpt lat="44.14039" lon="5.15216">
        <ele>386</ele>
        <time>2022-07-21T09:55:30Z</time>
      </trkpt>
      <trkpt lat="44.14037" lon="5.15213">
        <ele>386.1</ele>
        <time>2022-07-21T09:55:31Z</time>
      </trkpt>
      <trkpt lat="44.14036" lon="5.15212">
        <ele>386.2</ele>
        <time>2022-07-21T09:55:32Z</time>
      </trkpt>
      <trkpt lat="44.14034" lon="5.1521">
        <ele>386.3</ele>
        <time>2022-07-21T09:55:33Z</time>
      </trkpt>
      <trkpt lat="44.14033" lon="5.15209">
        <ele>386.4</ele>
        <time>2022-07-21T09:55:34Z</time>
      </trkpt>
      <trkpt lat="44.14031" lon="5.15207">
        <ele>386.5</ele>
        <time>2022-07-21T09:55:35Z</time>
      </trkpt>
      <trkpt lat="44.1403" lon="5.15206">
        <ele>386.6</ele>
        <time>2022-07-21T09:55:36Z</time>
      </trkpt>
      <trkpt lat="44.14027" lon="5.15204">
        <ele>386.7</ele>
        <time>2022-07-21T09:55:37Z</time>
      </trkpt>
      <trkpt lat="44.14026" lon="5.15203">
        <ele>386.8</ele>
        <time>2022-07-21T09:55:38Z</time>
      </trkpt>
      <trkpt lat="44.14024" lon="5.152">
        <ele>386.9</ele>
        <time>2022-07-21T09:55:39Z</time>
      </trkpt>
      <trkpt lat="44.14023" lon="5.152">
        <ele>387</ele>
        <time>2022-07-21T09:55:40Z</time>
      </trkpt>
      <trkpt lat="44.1402" lon="5.15197">
        <ele>387.1</ele>
        <time>2022-07-21T09:55:41Z</time>
      </trkpt>
      <trkpt lat="44.14019" lon="5.15196">
        <ele>387.2</ele>
        <time>2022-07-21T09:55:42Z</time>
      </trkpt>
      <trkpt lat="44.14016" lon="5.15194">
        <ele>387.4</ele>
        <time>2022-07-21T09:55:43Z</time>
      </trkpt>
      <trkpt lat="44.14015" lon="5.15193">
        <ele>387.4</ele>
        <time>2022-07-21T09:55:44Z</time>
      </trkpt>
      <trkpt lat="44.14013" lon="5.15191">
        <ele>387.6</ele>
        <time>2022-07-21T09:55:45Z</time>
      </trkpt>
      <trkpt lat="44.14012" lon="5.1519">
        <ele>387.6</ele>
        <time>2022-07-21T09:55:46Z</time>
      </trkpt>
      <trkpt lat="44.1401" lon="5.15188">
        <ele>387.8</ele>
        <time>2022-07-21T09:55:47Z</time>
      </trkpt>
      <trkpt lat="44.14009" lon="5.15187">
        <ele>387.8</ele>
        <time>2022-07-21T09:55:48Z</time>
      </trkpt>
      <trkpt lat="44.14006" lon="5.15184">
        <ele>388</ele>
        <time>2022-07-21T09:55:49Z</time>
      </trkpt>
      <trkpt lat="44.14005" lon="5.15183">
        <ele>388.1</ele>
        <time>2022-07-21T09:55:50Z</time>
      </trkpt>
      <trkpt lat="44.14002" lon="5.1518">
        <ele>388.3</ele>
        <time>2022-07-21T09:55:51Z</time>
      </trkpt>
      <trkpt lat="44.14001" lon="5.1518">
        <ele>388.3</ele>
        <time>2022-07-21T09:55:52Z</time>
      </trkpt>
      <trkpt lat="44.13998" lon="5.15177">
        <ele>388.5</ele>
        <time>2022-07-21T09:55:53Z</time>
      </trkpt>
      <trkpt lat="44.13997" lon="5.15176">
        <ele>388.6</ele>
        <time>2022-07-21T09:55:54Z</time>
      </trkpt>
      <trkpt lat="44.13995" lon="5.15173">
        <ele>388.8</ele>
        <time>2022-07-21T09:55:55Z</time>
      </trkpt>
      <trkpt lat="44.13994" lon="5.15172">
        <ele>388.8</ele>
        <time>2022-07-21T09:55:56Z</time>
      </trkpt>
      <trkpt lat="44.13991" lon="5.15169">
        <ele>389</ele>
        <time>2022-07-21T09:55:57Z</time>
      </trkpt>
      <trkpt lat="44.13991" lon="5.15168">
        <ele>389.1</ele>
        <time>2022-07-21T09:55:58Z</time>
      </trkpt>
      <trkpt lat="44.13989" lon="5.15165">
        <ele>389.2</ele>
        <time>2022-07-21T09:55:59Z</time>
      </trkpt>
      <trkpt lat="44.13988" lon="5.15164">
        <ele>389.3</ele>
        <time>2022-07-21T09:56:00Z</time>
      </trkpt>
      <trkpt lat="44.13986" lon="5.15162">
        <ele>389.4</ele>
        <time>2022-07-21T09:56:01Z</time>
      </trkpt>
      <trkpt lat="44.13985" lon="5.15161">
        <ele>389.5</ele>
        <time>2022-07-21T09:56:02Z</time>
      </trkpt>
      <trkpt lat="44.13982" lon="5.15158">
        <ele>389.7</ele>
        <time>2022-07-21T09:56:03Z</time>
      </trkpt>
      <trkpt lat="44.13982" lon="5.15157">
        <ele>389.7</ele>
        <time>2022-07-21T09:56:04Z</time>
      </trkpt>
      <trkpt lat="44.13979" lon="5.15154">
        <ele>389.9</ele>
        <time>2022-07-21T09:56:05Z</time>
      </trkpt>
      <trkpt lat="44.13979" lon="5.15153">
        <ele>389.9</ele>
        <time>2022-07-21T09:56:06Z</time>
      </trkpt>
      <trkpt lat="44.13976" lon="5.1515">
        <ele>390.1</ele>
        <time>2022-07-21T09:56:07Z</time>
      </trkpt>
      <trkpt lat="44.13976" lon="5.15149">
        <ele>390.2</ele>
        <time>2022-07-21T09:56:08Z</time>
      </trkpt>
      <trkpt lat="44.13974" lon="5.15146">
        <ele>390.3</ele>
        <time>2022-07-21T09:56:09Z</time>
      </trkpt>
      <trkpt lat="44.13973" lon="5.15145">
        <ele>390.4</ele>
        <time>2022-07-21T09:56:10Z</time>
      </trkpt>
      <trkpt lat="44.13971" lon="5.15142">
        <ele>390.5</ele>
        <time>2022-07-21T09:56:11Z</time>
      </trkpt>
      <trkpt lat="44.13971" lon="5.15141">
        <ele>390.6</ele>
        <time>2022-07-21T09:56:12Z</time>
      </trkpt>
      <trkpt lat="44.13968" lon="5.15138">
        <ele>390.7</ele>
        <time>2022-07-21T09:56:13Z</time>
      </trkpt>
      <trkpt lat="44.13968" lon="5.15137">
        <ele>390.8</ele>
        <time>2022-07-21T09:56:14Z</time>
      </trkpt>
      <trkpt lat="44.13965" lon="5.15134">
        <ele>391</ele>
        <time>2022-07-21T09:56:15Z</time>
      </trkpt>
      <trkpt lat="44.13965" lon="5.15133">
        <ele>391</ele>
        <time>2022-07-21T09:56:16Z</time>
      </trkpt>
      <trkpt lat="44.13963" lon="5.15129">
        <ele>391.2</ele>
        <time>2022-07-21T09:56:17Z</time>
      </trkpt>
      <trkpt lat="44.13962" lon="5.15128">
        <ele>391.3</ele>
        <time>2022-07-21T09:56:18Z</time>
      </trkpt>
      <trkpt lat="44.1396" lon="5.15125">
        <ele>391.4</ele>
        <time>2022-07-21T09:56:19Z</time>
      </trkpt>
      <trkpt lat="44.1396" lon="5.15124">
        <ele>391.5</ele>
        <time>2022-07-21T09:56:20Z</time>
      </trkpt>
      <trkpt lat="44.13957" lon="5.15121">
        <ele>391.7</ele>
        <time>2022-07-21T09:56:21Z</time>
      </trkpt>
      <trkpt lat="44.13957" lon="5.1512">
        <ele>391.7</ele>
        <time>2022-07-21T09:56:22Z</time>
      </trkpt>
      <trkpt lat="44.13954" lon="5.15117">
        <ele>391.9</ele>
        <time>2022-07-21T09:56:23Z</time>
      </trkpt>
      <trkpt lat="44.13954" lon="5.15115">
        <ele>392</ele>
        <time>2022-07-21T09:56:24Z</time>
      </trkpt>
      <trkpt lat="44.13952" lon="5.15112">
        <ele>392.1</ele>
        <time>2022-07-21T09:56:25Z</time>
      </trkpt>
      <trkpt lat="44.13952" lon="5.15111">
        <ele>392.2</ele>
        <time>2022-07-21T09:56:26Z</time>
      </trkpt>
      <trkpt lat="44.1395" lon="5.15108">
        <ele>392.3</ele>
        <time>2022-07-21T09:56:27Z</time>
      </trkpt>
      <trkpt lat="44.13949" lon="5.15107">
        <ele>392.4</ele>
        <time>2022-07-21T09:56:28Z</time>
      </trkpt>
      <trkpt lat="44.13947" lon="5.15104">
        <ele>392.6</ele>
        <time>2022-07-21T09:56:29Z</time>
      </trkpt>
      <trkpt lat="44.13947" lon="5.15103">
        <ele>392.6</ele>
        <time>2022-07-21T09:56:30Z</time>
      </trkpt>
      <trkpt lat="44.13944" lon="5.151">
        <ele>392.8</ele>
        <time>2022-07-21T09:56:31Z</time>
      </trkpt>
      <trkpt lat="44.13944" lon="5.15099">
        <ele>392.8</ele>
        <time>2022-07-21T09:56:32Z</time>
      </trkpt>
      <trkpt lat="44.13941" lon="5.15096">
        <ele>393</ele>
        <time>2022-07-21T09:56:33Z</time>
      </trkpt>
      <trkpt lat="44.13941" lon="5.15095">
        <ele>393.1</ele>
        <time>2022-07-21T09:56:34Z</time>
      </trkpt>
      <trkpt lat="44.13939" lon="5.15092">
        <ele>393.2</ele>
        <time>2022-07-21T09:56:35Z</time>
      </trkpt>
      <trkpt lat="44.13938" lon="5.1509">
        <ele>393.3</ele>
        <time>2022-07-21T09:56:36Z</time>
      </trkpt>
      <trkpt lat="44.13937" lon="5.15087">
        <ele>393.5</ele>
        <time>2022-07-21T09:56:37Z</time>
      </trkpt>
      <trkpt lat="44.13936" lon="5.15086">
        <ele>393.5</ele>
        <time>2022-07-21T09:56:38Z</time>
      </trkpt>
      <trkpt lat="44.13934" lon="5.15083">
        <ele>393.7</ele>
        <time>2022-07-21T09:56:39Z</time>
      </trkpt>
      <trkpt lat="44.13934" lon="5.15082">
        <ele>393.7</ele>
        <time>2022-07-21T09:56:40Z</time>
      </trkpt>
      <trkpt lat="44.13932" lon="5.15078">
        <ele>393.9</ele>
        <time>2022-07-21T09:56:41Z</time>
      </trkpt>
      <trkpt lat="44.13931" lon="5.15077">
        <ele>393.9</ele>
        <time>2022-07-21T09:56:42Z</time>
      </trkpt>
      <trkpt lat="44.1393" lon="5.15074">
        <ele>394.1</ele>
        <time>2022-07-21T09:56:43Z</time>
      </trkpt>
      <trkpt lat="44.13929" lon="5.15073">
        <ele>394.1</ele>
        <time>2022-07-21T09:56:44Z</time>
      </trkpt>
      <trkpt lat="44.13927" lon="5.1507">
        <ele>394.3</ele>
        <time>2022-07-21T09:56:45Z</time>
      </trkpt>
      <trkpt lat="44.13926" lon="5.15069">
        <ele>394.4</ele>
        <time>2022-07-21T09:56:46Z</time>
      </trkpt>
      <trkpt lat="44.13924" lon="5.15065">
        <ele>394.6</ele>
        <time>2022-07-21T09:56:47Z</time>
      </trkpt>
      <trkpt lat="44.13924" lon="5.15064">
        <ele>394.6</ele>
        <time>2022-07-21T09:56:48Z</time>
      </trkpt>
      <trkpt lat="44.13921" lon="5.15061">
        <ele>394.8</ele>
        <time>2022-07-21T09:56:49Z</time>
      </trkpt>
      <trkpt lat="44.13921" lon="5.15059">
        <ele>394.9</ele>
        <time>2022-07-21T09:56:50Z</time>
      </trkpt>
      <trkpt lat="44.13919" lon="5.15056">
        <ele>395.1</ele>
        <time>2022-07-21T09:56:51Z</time>
      </trkpt>
      <trkpt lat="44.13918" lon="5.15055">
        <ele>395.1</ele>
        <time>2022-07-21T09:56:52Z</time>
      </trkpt>
      <trkpt lat="44.13916" lon="5.15051">
        <ele>395.3</ele>
        <time>2022-07-21T09:56:53Z</time>
      </trkpt>
      <trkpt lat="44.13915" lon="5.1505">
        <ele>395.4</ele>
        <time>2022-07-21T09:56:54Z</time>
      </trkpt>
      <trkpt lat="44.13913" lon="5.15047">
        <ele>395.6</ele>
        <time>2022-07-21T09:56:55Z</time>
      </trkpt>
      <trkpt lat="44.13912" lon="5.15046">
        <ele>395.6</ele>
        <time>2022-07-21T09:56:56Z</time>
      </trkpt>
      <trkpt lat="44.1391" lon="5.15044">
        <ele>395.8</ele>
        <time>2022-07-21T09:56:57Z</time>
      </trkpt>
      <trkpt lat="44.1391" lon="5.15043">
        <ele>395.9</ele>
        <time>2022-07-21T09:56:58Z</time>
      </trkpt>
      <trkpt lat="44.13909" lon="5.1504">
        <ele>396</ele>
        <time>2022-07-21T09:56:59Z</time>
      </trkpt>
      <trkpt lat="44.13908" lon="5.15039">
        <ele>396.1</ele>
        <time>2022-07-21T09:57:00Z</time>
      </trkpt>
      <trkpt lat="44.13907" lon="5.15037">
        <ele>396.2</ele>
        <time>2022-07-21T09:57:01Z</time>
      </trkpt>
      <trkpt lat="44.13906" lon="5.15035">
        <ele>396.3</ele>
        <time>2022-07-21T09:57:02Z</time>
      </trkpt>
      <trkpt lat="44.13904" lon="5.15032">
        <ele>396.5</ele>
        <time>2022-07-21T09:57:03Z</time>
      </trkpt>
      <trkpt lat="44.13904" lon="5.1503">
        <ele>396.5</ele>
        <time>2022-07-21T09:57:04Z</time>
      </trkpt>
      <trkpt lat="44.13902" lon="5.15027">
        <ele>396.7</ele>
        <time>2022-07-21T09:57:05Z</time>
      </trkpt>
      <trkpt lat="44.13902" lon="5.15026">
        <ele>396.8</ele>
        <time>2022-07-21T09:57:06Z</time>
      </trkpt>
      <trkpt lat="44.139" lon="5.15024">
        <ele>396.9</ele>
        <time>2022-07-21T09:57:07Z</time>
      </trkpt>
      <trkpt lat="44.13899" lon="5.15022">
        <ele>397</ele>
        <time>2022-07-21T09:57:08Z</time>
      </trkpt>
      <trkpt lat="44.13898" lon="5.15019">
        <ele>397.2</ele>
        <time>2022-07-21T09:57:09Z</time>
      </trkpt>
      <trkpt lat="44.13897" lon="5.15017">
        <ele>397.2</ele>
        <time>2022-07-21T09:57:10Z</time>
      </trkpt>
      <trkpt lat="44.13895" lon="5.15013">
        <ele>397.4</ele>
        <time>2022-07-21T09:57:11Z</time>
      </trkpt>
      <trkpt lat="44.13894" lon="5.15012">
        <ele>397.5</ele>
        <time>2022-07-21T09:57:12Z</time>
      </trkpt>
      <trkpt lat="44.13892" lon="5.15009">
        <ele>397.7</ele>
        <time>2022-07-21T09:57:13Z</time>
      </trkpt>
      <trkpt lat="44.13891" lon="5.15007">
        <ele>397.8</ele>
        <time>2022-07-21T09:57:14Z</time>
      </trkpt>
      <trkpt lat="44.13889" lon="5.15004">
        <ele>398</ele>
        <time>2022-07-21T09:57:15Z</time>
      </trkpt>
      <trkpt lat="44.13889" lon="5.15003">
        <ele>398</ele>
        <time>2022-07-21T09:57:16Z</time>
      </trkpt>
      <trkpt lat="44.13887" lon="5.15">
        <ele>398.2</ele>
        <time>2022-07-21T09:57:17Z</time>
      </trkpt>
      <trkpt lat="44.13886" lon="5.14999">
        <ele>398.3</ele>
        <time>2022-07-21T09:57:18Z</time>
      </trkpt>
      <trkpt lat="44.13884" lon="5.14995">
        <ele>398.4</ele>
        <time>2022-07-21T09:57:19Z</time>
      </trkpt>
      <trkpt lat="44.13884" lon="5.14994">
        <ele>398.5</ele>
        <time>2022-07-21T09:57:20Z</time>
      </trkpt>
      <trkpt lat="44.13882" lon="5.14991">
        <ele>398.7</ele>
        <time>2022-07-21T09:57:21Z</time>
      </trkpt>
      <trkpt lat="44.13881" lon="5.14989">
        <ele>398.7</ele>
        <time>2022-07-21T09:57:22Z</time>
      </trkpt>
      <trkpt lat="44.13879" lon="5.14986">
        <ele>398.9</ele>
        <time>2022-07-21T09:57:23Z</time>
      </trkpt>
      <trkpt lat="44.13878" lon="5.14985">
        <ele>399</ele>
        <time>2022-07-21T09:57:24Z</time>
      </trkpt>
      <trkpt lat="44.13876" lon="5.14982">
        <ele>399.2</ele>
        <time>2022-07-21T09:57:25Z</time>
      </trkpt>
      <trkpt lat="44.13875" lon="5.14981">
        <ele>399.2</ele>
        <time>2022-07-21T09:57:26Z</time>
      </trkpt>
      <trkpt lat="44.13873" lon="5.14977">
        <ele>399.4</ele>
        <time>2022-07-21T09:57:27Z</time>
      </trkpt>
      <trkpt lat="44.13872" lon="5.14976">
        <ele>399.5</ele>
        <time>2022-07-21T09:57:28Z</time>
      </trkpt>
      <trkpt lat="44.1387" lon="5.14973">
        <ele>399.7</ele>
        <time>2022-07-21T09:57:29Z</time>
      </trkpt>
      <trkpt lat="44.1387" lon="5.14972">
        <ele>399.7</ele>
        <time>2022-07-21T09:57:30Z</time>
      </trkpt>
      <trkpt lat="44.13867" lon="5.14969">
        <ele>399.9</ele>
        <time>2022-07-21T09:57:31Z</time>
      </trkpt>
      <trkpt lat="44.13866" lon="5.14968">
        <ele>400</ele>
        <time>2022-07-21T09:57:32Z</time>
      </trkpt>
      <trkpt lat="44.13864" lon="5.14966">
        <ele>400.2</ele>
        <time>2022-07-21T09:57:33Z</time>
      </trkpt>
      <trkpt lat="44.13863" lon="5.14965">
        <ele>400.2</ele>
        <time>2022-07-21T09:57:34Z</time>
      </trkpt>
      <trkpt lat="44.13861" lon="5.14962">
        <ele>400.4</ele>
        <time>2022-07-21T09:57:35Z</time>
      </trkpt>
      <trkpt lat="44.13861" lon="5.14961">
        <ele>400.4</ele>
        <time>2022-07-21T09:57:36Z</time>
      </trkpt>
      <trkpt lat="44.13859" lon="5.14958">
        <ele>400.6</ele>
        <time>2022-07-21T09:57:37Z</time>
      </trkpt>
      <trkpt lat="44.13858" lon="5.14957">
        <ele>400.7</ele>
        <time>2022-07-21T09:57:38Z</time>
      </trkpt>
      <trkpt lat="44.13856" lon="5.14955">
        <ele>400.8</ele>
        <time>2022-07-21T09:57:39Z</time>
      </trkpt>
      <trkpt lat="44.13855" lon="5.14954">
        <ele>400.9</ele>
        <time>2022-07-21T09:57:40Z</time>
      </trkpt>
      <trkpt lat="44.13853" lon="5.14951">
        <ele>401.1</ele>
        <time>2022-07-21T09:57:41Z</time>
      </trkpt>
      <trkpt lat="44.13852" lon="5.14951">
        <ele>401.2</ele>
        <time>2022-07-21T09:57:42Z</time>
      </trkpt>
      <trkpt lat="44.1385" lon="5.14948">
        <ele>401.4</ele>
        <time>2022-07-21T09:57:43Z</time>
      </trkpt>
      <trkpt lat="44.13849" lon="5.14947">
        <ele>401.4</ele>
        <time>2022-07-21T09:57:44Z</time>
      </trkpt>
      <trkpt lat="44.13848" lon="5.14945">
        <ele>401.5</ele>
        <time>2022-07-21T09:57:45Z</time>
      </trkpt>
      <trkpt lat="44.13846" lon="5.14943">
        <ele>401.7</ele>
        <time>2022-07-21T09:57:46Z</time>
      </trkpt>
      <trkpt lat="44.13845" lon="5.14942">
        <ele>401.8</ele>
        <time>2022-07-21T09:57:47Z</time>
      </trkpt>
      <trkpt lat="44.13844" lon="5.14941">
        <ele>401.9</ele>
        <time>2022-07-21T09:57:48Z</time>
      </trkpt>
      <trkpt lat="44.13841" lon="5.14939">
        <ele>402.1</ele>
        <time>2022-07-21T09:57:49Z</time>
      </trkpt>
      <trkpt lat="44.1384" lon="5.14938">
        <ele>402.1</ele>
        <time>2022-07-21T09:57:50Z</time>
      </trkpt>
      <trkpt lat="44.13838" lon="5.14936">
        <ele>402.3</ele>
        <time>2022-07-21T09:57:51Z</time>
      </trkpt>
      <trkpt lat="44.13837" lon="5.14935">
        <ele>402.4</ele>
        <time>2022-07-21T09:57:52Z</time>
      </trkpt>
      <trkpt lat="44.13836" lon="5.14934">
        <ele>402.5</ele>
        <time>2022-07-21T09:57:53Z</time>
      </trkpt>
      <trkpt lat="44.13834" lon="5.14932">
        <ele>402.6</ele>
        <time>2022-07-21T09:57:54Z</time>
      </trkpt>
      <trkpt lat="44.13832" lon="5.14929">
        <ele>402.8</ele>
        <time>2022-07-21T09:57:55Z</time>
      </trkpt>
      <trkpt lat="44.13831" lon="5.14929">
        <ele>402.9</ele>
        <time>2022-07-21T09:57:56Z</time>
      </trkpt>
      <trkpt lat="44.1383" lon="5.14928">
        <ele>403</ele>
        <time>2022-07-21T09:57:57Z</time>
      </trkpt>
      <trkpt lat="44.13828" lon="5.14926">
        <ele>403.1</ele>
        <time>2022-07-21T09:57:58Z</time>
      </trkpt>
      <trkpt lat="44.13826" lon="5.14924">
        <ele>403.3</ele>
        <time>2022-07-21T09:57:59Z</time>
      </trkpt>
      <trkpt lat="44.13825" lon="5.14923">
        <ele>403.4</ele>
        <time>2022-07-21T09:58:00Z</time>
      </trkpt>
      <trkpt lat="44.13823" lon="5.1492">
        <ele>403.6</ele>
        <time>2022-07-21T09:58:01Z</time>
      </trkpt>
      <trkpt lat="44.13822" lon="5.14919">
        <ele>403.6</ele>
        <time>2022-07-21T09:58:02Z</time>
      </trkpt>
      <trkpt lat="44.1382" lon="5.14917">
        <ele>403.8</ele>
        <time>2022-07-21T09:58:03Z</time>
      </trkpt>
      <trkpt lat="44.13819" lon="5.14916">
        <ele>403.9</ele>
        <time>2022-07-21T09:58:04Z</time>
      </trkpt>
      <trkpt lat="44.13817" lon="5.14913">
        <ele>404.1</ele>
        <time>2022-07-21T09:58:05Z</time>
      </trkpt>
      <trkpt lat="44.13816" lon="5.14912">
        <ele>404.1</ele>
        <time>2022-07-21T09:58:06Z</time>
      </trkpt>
      <trkpt lat="44.13815" lon="5.14911">
        <ele>404.3</ele>
        <time>2022-07-21T09:58:07Z</time>
      </trkpt>
      <trkpt lat="44.13813" lon="5.1491">
        <ele>404.4</ele>
        <time>2022-07-21T09:58:08Z</time>
      </trkpt>
      <trkpt lat="44.13811" lon="5.14907">
        <ele>404.5</ele>
        <time>2022-07-21T09:58:09Z</time>
      </trkpt>
      <trkpt lat="44.1381" lon="5.14906">
        <ele>404.6</ele>
        <time>2022-07-21T09:58:10Z</time>
      </trkpt>
      <trkpt lat="44.13807" lon="5.14904">
        <ele>404.9</ele>
        <time>2022-07-21T09:58:11Z</time>
      </trkpt>
      <trkpt lat="44.13806" lon="5.14903">
        <ele>404.9</ele>
        <time>2022-07-21T09:58:12Z</time>
      </trkpt>
      <trkpt lat="44.13803" lon="5.14901">
        <ele>405.1</ele>
        <time>2022-07-21T09:58:13Z</time>
      </trkpt>
      <trkpt lat="44.13802" lon="5.149">
        <ele>405.2</ele>
        <time>2022-07-21T09:58:14Z</time>
      </trkpt>
      <trkpt lat="44.138" lon="5.14898">
        <ele>405.4</ele>
        <time>2022-07-21T09:58:15Z</time>
      </trkpt>
      <trkpt lat="44.13799" lon="5.14897">
        <ele>405.5</ele>
        <time>2022-07-21T09:58:16Z</time>
      </trkpt>
      <trkpt lat="44.13797" lon="5.14894">
        <ele>405.6</ele>
        <time>2022-07-21T09:58:17Z</time>
      </trkpt>
      <trkpt lat="44.13796" lon="5.14894">
        <ele>405.7</ele>
        <time>2022-07-21T09:58:18Z</time>
      </trkpt>
      <trkpt lat="44.13794" lon="5.14891">
        <ele>405.9</ele>
        <time>2022-07-21T09:58:19Z</time>
      </trkpt>
      <trkpt lat="44.13793" lon="5.14891">
        <ele>406</ele>
        <time>2022-07-21T09:58:20Z</time>
      </trkpt>
      <trkpt lat="44.1379" lon="5.14888">
        <ele>406.2</ele>
        <time>2022-07-21T09:58:21Z</time>
      </trkpt>
      <trkpt lat="44.13789" lon="5.14888">
        <ele>406.2</ele>
        <time>2022-07-21T09:58:22Z</time>
      </trkpt>
      <trkpt lat="44.13787" lon="5.14886">
        <ele>406.4</ele>
        <time>2022-07-21T09:58:23Z</time>
      </trkpt>
      <trkpt lat="44.13786" lon="5.14885">
        <ele>406.5</ele>
        <time>2022-07-21T09:58:24Z</time>
      </trkpt>
      <trkpt lat="44.13784" lon="5.14883">
        <ele>406.7</ele>
        <time>2022-07-21T09:58:25Z</time>
      </trkpt>
      <trkpt lat="44.13783" lon="5.14882">
        <ele>406.7</ele>
        <time>2022-07-21T09:58:26Z</time>
      </trkpt>
      <trkpt lat="44.1378" lon="5.1488">
        <ele>406.9</ele>
        <time>2022-07-21T09:58:27Z</time>
      </trkpt>
      <trkpt lat="44.13779" lon="5.14879">
        <ele>407</ele>
        <time>2022-07-21T09:58:28Z</time>
      </trkpt>
      <trkpt lat="44.13777" lon="5.14877">
        <ele>407.2</ele>
        <time>2022-07-21T09:58:29Z</time>
      </trkpt>
      <trkpt lat="44.13776" lon="5.14876">
        <ele>407.2</ele>
        <time>2022-07-21T09:58:30Z</time>
      </trkpt>
      <trkpt lat="44.13774" lon="5.14873">
        <ele>407.4</ele>
        <time>2022-07-21T09:58:31Z</time>
      </trkpt>
      <trkpt lat="44.13773" lon="5.14873">
        <ele>407.5</ele>
        <time>2022-07-21T09:58:32Z</time>
      </trkpt>
      <trkpt lat="44.13771" lon="5.1487">
        <ele>407.7</ele>
        <time>2022-07-21T09:58:33Z</time>
      </trkpt>
      <trkpt lat="44.13771" lon="5.14869">
        <ele>407.7</ele>
        <time>2022-07-21T09:58:34Z</time>
      </trkpt>
      <trkpt lat="44.13769" lon="5.14867">
        <ele>407.8</ele>
        <time>2022-07-21T09:58:35Z</time>
      </trkpt>
      <trkpt lat="44.13768" lon="5.14865">
        <ele>408</ele>
        <time>2022-07-21T09:58:36Z</time>
      </trkpt>
      <trkpt lat="44.13766" lon="5.14863">
        <ele>408.2</ele>
        <time>2022-07-21T09:58:37Z</time>
      </trkpt>
      <trkpt lat="44.13765" lon="5.14861">
        <ele>408.2</ele>
        <time>2022-07-21T09:58:38Z</time>
      </trkpt>
      <trkpt lat="44.13763" lon="5.14859">
        <ele>408.4</ele>
        <time>2022-07-21T09:58:39Z</time>
      </trkpt>
      <trkpt lat="44.13762" lon="5.14858">
        <ele>408.5</ele>
        <time>2022-07-21T09:58:40Z</time>
      </trkpt>
      <trkpt lat="44.1376" lon="5.14855">
        <ele>408.7</ele>
        <time>2022-07-21T09:58:41Z</time>
      </trkpt>
      <trkpt lat="44.13759" lon="5.14854">
        <ele>408.8</ele>
        <time>2022-07-21T09:58:42Z</time>
      </trkpt>
      <trkpt lat="44.13757" lon="5.14852">
        <ele>409</ele>
        <time>2022-07-21T09:58:43Z</time>
      </trkpt>
      <trkpt lat="44.13757" lon="5.14851">
        <ele>409</ele>
        <time>2022-07-21T09:58:44Z</time>
      </trkpt>
      <trkpt lat="44.13755" lon="5.14848">
        <ele>409.2</ele>
        <time>2022-07-21T09:58:45Z</time>
      </trkpt>
      <trkpt lat="44.13754" lon="5.14847">
        <ele>409.3</ele>
        <time>2022-07-21T09:58:46Z</time>
      </trkpt>
      <trkpt lat="44.13752" lon="5.14844">
        <ele>409.5</ele>
        <time>2022-07-21T09:58:47Z</time>
      </trkpt>
      <trkpt lat="44.13751" lon="5.14843">
        <ele>409.6</ele>
        <time>2022-07-21T09:58:48Z</time>
      </trkpt>
      <trkpt lat="44.13749" lon="5.1484">
        <ele>409.8</ele>
        <time>2022-07-21T09:58:49Z</time>
      </trkpt>
      <trkpt lat="44.13749" lon="5.14839">
        <ele>409.9</ele>
        <time>2022-07-21T09:58:50Z</time>
      </trkpt>
      <trkpt lat="44.13747" lon="5.14837">
        <ele>410</ele>
        <time>2022-07-21T09:58:51Z</time>
      </trkpt>
      <trkpt lat="44.13746" lon="5.14835">
        <ele>410.1</ele>
        <time>2022-07-21T09:58:52Z</time>
      </trkpt>
      <trkpt lat="44.13744" lon="5.14832">
        <ele>410.3</ele>
        <time>2022-07-21T09:58:53Z</time>
      </trkpt>
      <trkpt lat="44.13744" lon="5.14831">
        <ele>410.4</ele>
        <time>2022-07-21T09:58:54Z</time>
      </trkpt>
      <trkpt lat="44.13742" lon="5.14828">
        <ele>410.6</ele>
        <time>2022-07-21T09:58:55Z</time>
      </trkpt>
      <trkpt lat="44.13741" lon="5.14827">
        <ele>410.6</ele>
        <time>2022-07-21T09:58:56Z</time>
      </trkpt>
      <trkpt lat="44.1374" lon="5.14824">
        <ele>410.8</ele>
        <time>2022-07-21T09:58:57Z</time>
      </trkpt>
      <trkpt lat="44.13739" lon="5.14823">
        <ele>410.9</ele>
        <time>2022-07-21T09:58:58Z</time>
      </trkpt>
      <trkpt lat="44.13737" lon="5.1482">
        <ele>411.1</ele>
        <time>2022-07-21T09:58:59Z</time>
      </trkpt>
      <trkpt lat="44.13736" lon="5.14818">
        <ele>411.2</ele>
        <time>2022-07-21T09:59:00Z</time>
      </trkpt>
      <trkpt lat="44.13734" lon="5.14816">
        <ele>411.4</ele>
        <time>2022-07-21T09:59:01Z</time>
      </trkpt>
      <trkpt lat="44.13734" lon="5.14815">
        <ele>411.4</ele>
        <time>2022-07-21T09:59:02Z</time>
      </trkpt>
      <trkpt lat="44.13732" lon="5.14813">
        <ele>411.5</ele>
        <time>2022-07-21T09:59:03Z</time>
      </trkpt>
      <trkpt lat="44.13731" lon="5.14811">
        <ele>411.7</ele>
        <time>2022-07-21T09:59:04Z</time>
      </trkpt>
      <trkpt lat="44.13729" lon="5.14809">
        <ele>411.8</ele>
        <time>2022-07-21T09:59:05Z</time>
      </trkpt>
      <trkpt lat="44.13728" lon="5.14808">
        <ele>411.9</ele>
        <time>2022-07-21T09:59:06Z</time>
      </trkpt>
      <trkpt lat="44.13726" lon="5.14806">
        <ele>412.1</ele>
        <time>2022-07-21T09:59:07Z</time>
      </trkpt>
      <trkpt lat="44.13725" lon="5.14805">
        <ele>412.2</ele>
        <time>2022-07-21T09:59:08Z</time>
      </trkpt>
      <trkpt lat="44.13723" lon="5.14802">
        <ele>412.4</ele>
        <time>2022-07-21T09:59:09Z</time>
      </trkpt>
      <trkpt lat="44.13722" lon="5.14801">
        <ele>412.4</ele>
        <time>2022-07-21T09:59:10Z</time>
      </trkpt>
      <trkpt lat="44.1372" lon="5.14798">
        <ele>412.6</ele>
        <time>2022-07-21T09:59:11Z</time>
      </trkpt>
      <trkpt lat="44.1372" lon="5.14797">
        <ele>412.7</ele>
        <time>2022-07-21T09:59:12Z</time>
      </trkpt>
      <trkpt lat="44.13718" lon="5.14794">
        <ele>412.9</ele>
        <time>2022-07-21T09:59:13Z</time>
      </trkpt>
      <trkpt lat="44.13718" lon="5.14793">
        <ele>412.9</ele>
        <time>2022-07-21T09:59:14Z</time>
      </trkpt>
      <trkpt lat="44.13716" lon="5.14789">
        <ele>413.1</ele>
        <time>2022-07-21T09:59:15Z</time>
      </trkpt>
      <trkpt lat="44.13716" lon="5.14788">
        <ele>413.2</ele>
        <time>2022-07-21T09:59:16Z</time>
      </trkpt>
      <trkpt lat="44.13714" lon="5.14785">
        <ele>413.4</ele>
        <time>2022-07-21T09:59:17Z</time>
      </trkpt>
      <trkpt lat="44.13714" lon="5.14784">
        <ele>413.4</ele>
        <time>2022-07-21T09:59:18Z</time>
      </trkpt>
      <trkpt lat="44.13712" lon="5.14781">
        <ele>413.6</ele>
        <time>2022-07-21T09:59:19Z</time>
      </trkpt>
      <trkpt lat="44.13712" lon="5.14779">
        <ele>413.7</ele>
        <time>2022-07-21T09:59:20Z</time>
      </trkpt>
      <trkpt lat="44.1371" lon="5.14776">
        <ele>414</ele>
        <time>2022-07-21T09:59:21Z</time>
      </trkpt>
      <trkpt lat="44.1371" lon="5.14775">
        <ele>414.1</ele>
        <time>2022-07-21T09:59:22Z</time>
      </trkpt>
      <trkpt lat="44.13709" lon="5.14773">
        <ele>414.2</ele>
        <time>2022-07-21T09:59:23Z</time>
      </trkpt>
      <trkpt lat="44.13708" lon="5.14771">
        <ele>414.3</ele>
        <time>2022-07-21T09:59:24Z</time>
      </trkpt>
      <trkpt lat="44.13707" lon="5.14768">
        <ele>414.6</ele>
        <time>2022-07-21T09:59:25Z</time>
      </trkpt>
      <trkpt lat="44.13707" lon="5.14766">
        <ele>414.7</ele>
        <time>2022-07-21T09:59:26Z</time>
      </trkpt>
      <trkpt lat="44.13706" lon="5.14763">
        <ele>415</ele>
        <time>2022-07-21T09:59:27Z</time>
      </trkpt>
      <trkpt lat="44.13705" lon="5.14761">
        <ele>415.1</ele>
        <time>2022-07-21T09:59:28Z</time>
      </trkpt>
      <trkpt lat="44.13704" lon="5.14758">
        <ele>415.4</ele>
        <time>2022-07-21T09:59:29Z</time>
      </trkpt>
      <trkpt lat="44.13704" lon="5.14757">
        <ele>415.5</ele>
        <time>2022-07-21T09:59:30Z</time>
      </trkpt>
      <trkpt lat="44.13703" lon="5.14753">
        <ele>415.8</ele>
        <time>2022-07-21T09:59:31Z</time>
      </trkpt>
      <trkpt lat="44.13702" lon="5.14752">
        <ele>415.9</ele>
        <time>2022-07-21T09:59:32Z</time>
      </trkpt>
      <trkpt lat="44.13701" lon="5.14748">
        <ele>416.2</ele>
        <time>2022-07-21T09:59:33Z</time>
      </trkpt>
      <trkpt lat="44.137" lon="5.14747">
        <ele>416.3</ele>
        <time>2022-07-21T09:59:34Z</time>
      </trkpt>
      <trkpt lat="44.13699" lon="5.14743">
        <ele>416.6</ele>
        <time>2022-07-21T09:59:35Z</time>
      </trkpt>
      <trkpt lat="44.13698" lon="5.14742">
        <ele>416.7</ele>
        <time>2022-07-21T09:59:36Z</time>
      </trkpt>
      <trkpt lat="44.13697" lon="5.14738">
        <ele>417</ele>
        <time>2022-07-21T09:59:37Z</time>
      </trkpt>
      <trkpt lat="44.13697" lon="5.14737">
        <ele>417.1</ele>
        <time>2022-07-21T09:59:38Z</time>
      </trkpt>
      <trkpt lat="44.13696" lon="5.14733">
        <ele>417.4</ele>
        <time>2022-07-21T09:59:39Z</time>
      </trkpt>
      <trkpt lat="44.13696" lon="5.14732">
        <ele>417.5</ele>
        <time>2022-07-21T09:59:40Z</time>
      </trkpt>
      <trkpt lat="44.13695" lon="5.14728">
        <ele>417.8</ele>
        <time>2022-07-21T09:59:41Z</time>
      </trkpt>
      <trkpt lat="44.13694" lon="5.14727">
        <ele>417.9</ele>
        <time>2022-07-21T09:59:42Z</time>
      </trkpt>
      <trkpt lat="44.13694" lon="5.14725">
        <ele>418</ele>
        <time>2022-07-21T09:59:43Z</time>
      </trkpt>
      <trkpt lat="44.13693" lon="5.14724">
        <ele>418.1</ele>
        <time>2022-07-21T09:59:44Z</time>
      </trkpt>
      <trkpt lat="44.13693" lon="5.14722">
        <ele>418.3</ele>
        <time>2022-07-21T09:59:45Z</time>
      </trkpt>
      <trkpt lat="44.13692" lon="5.1472">
        <ele>418.5</ele>
        <time>2022-07-21T09:59:46Z</time>
      </trkpt>
      <trkpt lat="44.13691" lon="5.14716">
        <ele>418.8</ele>
        <time>2022-07-21T09:59:47Z</time>
      </trkpt>
      <trkpt lat="44.13691" lon="5.14714">
        <ele>418.9</ele>
        <time>2022-07-21T09:59:48Z</time>
      </trkpt>
      <trkpt lat="44.1369" lon="5.14711">
        <ele>419.1</ele>
        <time>2022-07-21T09:59:49Z</time>
      </trkpt>
      <trkpt lat="44.13689" lon="5.1471">
        <ele>419.2</ele>
        <time>2022-07-21T09:59:50Z</time>
      </trkpt>
      <trkpt lat="44.13688" lon="5.14706">
        <ele>419</ele>
        <time>2022-07-21T09:59:51Z</time>
      </trkpt>
      <trkpt lat="44.13688" lon="5.14705">
        <ele>418.9</ele>
        <time>2022-07-21T09:59:52Z</time>
      </trkpt>
      <trkpt lat="44.13687" lon="5.14703">
        <ele>418.7</ele>
        <time>2022-07-21T09:59:53Z</time>
      </trkpt>
      <trkpt lat="44.13686" lon="5.14701">
        <ele>418.8</ele>
        <time>2022-07-21T09:59:54Z</time>
      </trkpt>
      <trkpt lat="44.13684" lon="5.14697">
        <ele>419</ele>
        <time>2022-07-21T09:59:55Z</time>
      </trkpt>
      <trkpt lat="44.13683" lon="5.14696">
        <ele>419</ele>
        <time>2022-07-21T09:59:56Z</time>
      </trkpt>
      <trkpt lat="44.13681" lon="5.14692">
        <ele>419.2</ele>
        <time>2022-07-21T09:59:57Z</time>
      </trkpt>
      <trkpt lat="44.1368" lon="5.14691">
        <ele>419.3</ele>
        <time>2022-07-21T09:59:58Z</time>
      </trkpt>
      <trkpt lat="44.13678" lon="5.14688">
        <ele>419.5</ele>
        <time>2022-07-21T09:59:59Z</time>
      </trkpt>
      <trkpt lat="44.13678" lon="5.14686">
        <ele>419.5</ele>
        <time>2022-07-21T10:00:00Z</time>
      </trkpt>
      <trkpt lat="44.13675" lon="5.14684">
        <ele>419.7</ele>
        <time>2022-07-21T10:00:01Z</time>
      </trkpt>
      <trkpt lat="44.13675" lon="5.14683">
        <ele>419.7</ele>
        <time>2022-07-21T10:00:02Z</time>
      </trkpt>
      <trkpt lat="44.13672" lon="5.14681">
        <ele>419.9</ele>
        <time>2022-07-21T10:00:03Z</time>
      </trkpt>
      <trkpt lat="44.13671" lon="5.14681">
        <ele>419.9</ele>
        <time>2022-07-21T10:00:04Z</time>
      </trkpt>
      <trkpt lat="44.1367" lon="5.1468">
        <ele>420</ele>
        <time>2022-07-21T10:00:05Z</time>
      </trkpt>
      <trkpt lat="44.13668" lon="5.14679">
        <ele>420.1</ele>
        <time>2022-07-21T10:00:06Z</time>
      </trkpt>
      <trkpt lat="44.13665" lon="5.14678">
        <ele>420.3</ele>
        <time>2022-07-21T10:00:07Z</time>
      </trkpt>
      <trkpt lat="44.13664" lon="5.14678">
        <ele>420.3</ele>
        <time>2022-07-21T10:00:08Z</time>
      </trkpt>
      <trkpt lat="44.13661" lon="5.14677">
        <ele>420.5</ele>
        <time>2022-07-21T10:00:09Z</time>
      </trkpt>
      <trkpt lat="44.13661" lon="5.14677">
        <ele>420.5</ele>
        <time>2022-07-21T10:00:10Z</time>
      </trkpt>
      <trkpt lat="44.13658" lon="5.14676">
        <ele>420.6</ele>
        <time>2022-07-21T10:00:11Z</time>
      </trkpt>
      <trkpt lat="44.13657" lon="5.14676">
        <ele>420.7</ele>
        <time>2022-07-21T10:00:12Z</time>
      </trkpt>
      <trkpt lat="44.13655" lon="5.14676">
        <ele>420.8</ele>
        <time>2022-07-21T10:00:13Z</time>
      </trkpt>
      <trkpt lat="44.13653" lon="5.14676">
        <ele>420.9</ele>
        <time>2022-07-21T10:00:14Z</time>
      </trkpt>
      <trkpt lat="44.1365" lon="5.14675">
        <ele>421</ele>
        <time>2022-07-21T10:00:15Z</time>
      </trkpt>
      <trkpt lat="44.13649" lon="5.14675">
        <ele>421.1</ele>
        <time>2022-07-21T10:00:16Z</time>
      </trkpt>
      <trkpt lat="44.13646" lon="5.14675">
        <ele>421.2</ele>
        <time>2022-07-21T10:00:17Z</time>
      </trkpt>
      <trkpt lat="44.13645" lon="5.14675">
        <ele>421.3</ele>
        <time>2022-07-21T10:00:18Z</time>
      </trkpt>
      <trkpt lat="44.13644" lon="5.14675">
        <ele>421.3</ele>
        <time>2022-07-21T10:00:19Z</time>
      </trkpt>
      <trkpt lat="44.13642" lon="5.14675">
        <ele>421.4</ele>
        <time>2022-07-21T10:00:20Z</time>
      </trkpt>
      <trkpt lat="44.13639" lon="5.14675">
        <ele>421.6</ele>
        <time>2022-07-21T10:00:21Z</time>
      </trkpt>
      <trkpt lat="44.13638" lon="5.14675">
        <ele>421.6</ele>
        <time>2022-07-21T10:00:22Z</time>
      </trkpt>
      <trkpt lat="44.13635" lon="5.14675">
        <ele>421.8</ele>
        <time>2022-07-21T10:00:23Z</time>
      </trkpt>
      <trkpt lat="44.13634" lon="5.14675">
        <ele>421.8</ele>
        <time>2022-07-21T10:00:24Z</time>
      </trkpt>
      <trkpt lat="44.13631" lon="5.14675">
        <ele>422</ele>
        <time>2022-07-21T10:00:25Z</time>
      </trkpt>
      <trkpt lat="44.1363" lon="5.14675">
        <ele>422</ele>
        <time>2022-07-21T10:00:26Z</time>
      </trkpt>
      <trkpt lat="44.13627" lon="5.14675">
        <ele>422.2</ele>
        <time>2022-07-21T10:00:27Z</time>
      </trkpt>
      <trkpt lat="44.13626" lon="5.14674">
        <ele>422.3</ele>
        <time>2022-07-21T10:00:28Z</time>
      </trkpt>
      <trkpt lat="44.13623" lon="5.14674">
        <ele>422.4</ele>
        <time>2022-07-21T10:00:29Z</time>
      </trkpt>
      <trkpt lat="44.13622" lon="5.14674">
        <ele>422.5</ele>
        <time>2022-07-21T10:00:30Z</time>
      </trkpt>
      <trkpt lat="44.13619" lon="5.14673">
        <ele>422.6</ele>
        <time>2022-07-21T10:00:31Z</time>
      </trkpt>
      <trkpt lat="44.13618" lon="5.14673">
        <ele>422.7</ele>
        <time>2022-07-21T10:00:32Z</time>
      </trkpt>
      <trkpt lat="44.13615" lon="5.14672">
        <ele>423</ele>
        <time>2022-07-21T10:00:33Z</time>
      </trkpt>
      <trkpt lat="44.13614" lon="5.14672">
        <ele>423.1</ele>
        <time>2022-07-21T10:00:34Z</time>
      </trkpt>
      <trkpt lat="44.13611" lon="5.14671">
        <ele>423.3</ele>
        <time>2022-07-21T10:00:35Z</time>
      </trkpt>
      <trkpt lat="44.1361" lon="5.1467">
        <ele>423.4</ele>
        <time>2022-07-21T10:00:36Z</time>
      </trkpt>
      <trkpt lat="44.13608" lon="5.14669">
        <ele>423.6</ele>
        <time>2022-07-21T10:00:37Z</time>
      </trkpt>
      <trkpt lat="44.13607" lon="5.14668">
        <ele>423.6</ele>
        <time>2022-07-21T10:00:38Z</time>
      </trkpt>
      <trkpt lat="44.13604" lon="5.14666">
        <ele>423.8</ele>
        <time>2022-07-21T10:00:39Z</time>
      </trkpt>
      <trkpt lat="44.13603" lon="5.14665">
        <ele>423.9</ele>
        <time>2022-07-21T10:00:40Z</time>
      </trkpt>
      <trkpt lat="44.13601" lon="5.14664">
        <ele>424.1</ele>
        <time>2022-07-21T10:00:41Z</time>
      </trkpt>
      <trkpt lat="44.136" lon="5.14663">
        <ele>424.2</ele>
        <time>2022-07-21T10:00:42Z</time>
      </trkpt>
      <trkpt lat="44.13597" lon="5.14661">
        <ele>424.4</ele>
        <time>2022-07-21T10:00:43Z</time>
      </trkpt>
      <trkpt lat="44.13596" lon="5.1466">
        <ele>424.5</ele>
        <time>2022-07-21T10:00:44Z</time>
      </trkpt>
      <trkpt lat="44.13593" lon="5.14658">
        <ele>424.7</ele>
        <time>2022-07-21T10:00:45Z</time>
      </trkpt>
      <trkpt lat="44.13592" lon="5.14657">
        <ele>424.8</ele>
        <time>2022-07-21T10:00:46Z</time>
      </trkpt>
      <trkpt lat="44.1359" lon="5.14655">
        <ele>425</ele>
        <time>2022-07-21T10:00:47Z</time>
      </trkpt>
      <trkpt lat="44.13589" lon="5.14655">
        <ele>425.1</ele>
        <time>2022-07-21T10:00:48Z</time>
      </trkpt>
      <trkpt lat="44.13586" lon="5.14653">
        <ele>425.3</ele>
        <time>2022-07-21T10:00:49Z</time>
      </trkpt>
      <trkpt lat="44.13586" lon="5.14652">
        <ele>425.4</ele>
        <time>2022-07-21T10:00:50Z</time>
      </trkpt>
      <trkpt lat="44.13583" lon="5.1465">
        <ele>425.6</ele>
        <time>2022-07-21T10:00:51Z</time>
      </trkpt>
      <trkpt lat="44.13582" lon="5.1465">
        <ele>425.7</ele>
        <time>2022-07-21T10:00:52Z</time>
      </trkpt>
      <trkpt lat="44.1358" lon="5.14648">
        <ele>425.9</ele>
        <time>2022-07-21T10:00:53Z</time>
      </trkpt>
      <trkpt lat="44.13579" lon="5.14647">
        <ele>425.9</ele>
        <time>2022-07-21T10:00:54Z</time>
      </trkpt>
      <trkpt lat="44.13576" lon="5.14646">
        <ele>426.2</ele>
        <time>2022-07-21T10:00:55Z</time>
      </trkpt>
      <trkpt lat="44.13576" lon="5.14645">
        <ele>426.2</ele>
        <time>2022-07-21T10:00:56Z</time>
      </trkpt>
      <trkpt lat="44.13573" lon="5.14644">
        <ele>426.4</ele>
        <time>2022-07-21T10:00:57Z</time>
      </trkpt>
      <trkpt lat="44.13572" lon="5.14643">
        <ele>426.5</ele>
        <time>2022-07-21T10:00:58Z</time>
      </trkpt>
      <trkpt lat="44.13569" lon="5.14642">
        <ele>426.7</ele>
        <time>2022-07-21T10:00:59Z</time>
      </trkpt>
      <trkpt lat="44.13568" lon="5.14642">
        <ele>426.7</ele>
        <time>2022-07-21T10:01:00Z</time>
      </trkpt>
      <trkpt lat="44.13566" lon="5.14641">
        <ele>427</ele>
        <time>2022-07-21T10:01:01Z</time>
      </trkpt>
      <trkpt lat="44.13565" lon="5.14641">
        <ele>427</ele>
        <time>2022-07-21T10:01:02Z</time>
      </trkpt>
      <trkpt lat="44.13562" lon="5.1464">
        <ele>427.2</ele>
        <time>2022-07-21T10:01:03Z</time>
      </trkpt>
      <trkpt lat="44.13561" lon="5.1464">
        <ele>427.3</ele>
        <time>2022-07-21T10:01:04Z</time>
      </trkpt>
      <trkpt lat="44.13557" lon="5.1464">
        <ele>427.5</ele>
        <time>2022-07-21T10:01:05Z</time>
      </trkpt>
      <trkpt lat="44.13556" lon="5.1464">
        <ele>427.6</ele>
        <time>2022-07-21T10:01:06Z</time>
      </trkpt>
      <trkpt lat="44.13553" lon="5.1464">
        <ele>427.8</ele>
        <time>2022-07-21T10:01:07Z</time>
      </trkpt>
      <trkpt lat="44.13552" lon="5.1464">
        <ele>427.9</ele>
        <time>2022-07-21T10:01:08Z</time>
      </trkpt>
      <trkpt lat="44.13551" lon="5.1464">
        <ele>428</ele>
        <time>2022-07-21T10:01:09Z</time>
      </trkpt>
      <trkpt lat="44.13549" lon="5.1464">
        <ele>428.1</ele>
        <time>2022-07-21T10:01:10Z</time>
      </trkpt>
      <trkpt lat="44.13546" lon="5.1464">
        <ele>428.3</ele>
        <time>2022-07-21T10:01:11Z</time>
      </trkpt>
      <trkpt lat="44.13545" lon="5.1464">
        <ele>428.4</ele>
        <time>2022-07-21T10:01:12Z</time>
      </trkpt>
      <trkpt lat="44.13543" lon="5.1464">
        <ele>428.5</ele>
        <time>2022-07-21T10:01:13Z</time>
      </trkpt>
      <trkpt lat="44.13542" lon="5.1464">
        <ele>428.6</ele>
        <time>2022-07-21T10:01:14Z</time>
      </trkpt>
      <trkpt lat="44.13539" lon="5.1464">
        <ele>428.8</ele>
        <time>2022-07-21T10:01:15Z</time>
      </trkpt>
      <trkpt lat="44.13538" lon="5.1464">
        <ele>428.9</ele>
        <time>2022-07-21T10:01:16Z</time>
      </trkpt>
      <trkpt lat="44.13535" lon="5.1464">
        <ele>429.1</ele>
        <time>2022-07-21T10:01:17Z</time>
      </trkpt>
      <trkpt lat="44.13534" lon="5.1464">
        <ele>429.1</ele>
        <time>2022-07-21T10:01:18Z</time>
      </trkpt>
      <trkpt lat="44.13531" lon="5.1464">
        <ele>429.4</ele>
        <time>2022-07-21T10:01:19Z</time>
      </trkpt>
      <trkpt lat="44.1353" lon="5.1464">
        <ele>429.4</ele>
        <time>2022-07-21T10:01:20Z</time>
      </trkpt>
      <trkpt lat="44.13526" lon="5.1464">
        <ele>429.6</ele>
        <time>2022-07-21T10:01:21Z</time>
      </trkpt>
      <trkpt lat="44.13525" lon="5.14641">
        <ele>429.7</ele>
        <time>2022-07-21T10:01:22Z</time>
      </trkpt>
      <trkpt lat="44.13522" lon="5.1464">
        <ele>429.9</ele>
        <time>2022-07-21T10:01:23Z</time>
      </trkpt>
      <trkpt lat="44.13521" lon="5.1464">
        <ele>430</ele>
        <time>2022-07-21T10:01:24Z</time>
      </trkpt>
      <trkpt lat="44.13519" lon="5.1464">
        <ele>430.2</ele>
        <time>2022-07-21T10:01:25Z</time>
      </trkpt>
      <trkpt lat="44.13518" lon="5.14639">
        <ele>430.2</ele>
        <time>2022-07-21T10:01:26Z</time>
      </trkpt>
      <trkpt lat="44.13515" lon="5.14639">
        <ele>430.4</ele>
        <time>2022-07-21T10:01:27Z</time>
      </trkpt>
      <trkpt lat="44.13514" lon="5.14639">
        <ele>430.5</ele>
        <time>2022-07-21T10:01:28Z</time>
      </trkpt>
      <trkpt lat="44.13511" lon="5.14638">
        <ele>430.6</ele>
        <time>2022-07-21T10:01:29Z</time>
      </trkpt>
      <trkpt lat="44.1351" lon="5.14637">
        <ele>430.7</ele>
        <time>2022-07-21T10:01:30Z</time>
      </trkpt>
      <trkpt lat="44.13507" lon="5.14636">
        <ele>430.9</ele>
        <time>2022-07-21T10:01:31Z</time>
      </trkpt>
      <trkpt lat="44.13506" lon="5.14635">
        <ele>431</ele>
        <time>2022-07-21T10:01:32Z</time>
      </trkpt>
      <trkpt lat="44.13503" lon="5.14633">
        <ele>431.1</ele>
        <time>2022-07-21T10:01:33Z</time>
      </trkpt>
      <trkpt lat="44.13502" lon="5.14633">
        <ele>431.2</ele>
        <time>2022-07-21T10:01:34Z</time>
      </trkpt>
      <trkpt lat="44.13499" lon="5.14629">
        <ele>431.3</ele>
        <time>2022-07-21T10:01:35Z</time>
      </trkpt>
      <trkpt lat="44.13499" lon="5.14628">
        <ele>431.4</ele>
        <time>2022-07-21T10:01:36Z</time>
      </trkpt>
      <trkpt lat="44.13497" lon="5.14624">
        <ele>431.5</ele>
        <time>2022-07-21T10:01:37Z</time>
      </trkpt>
      <trkpt lat="44.13496" lon="5.14623">
        <ele>431.6</ele>
        <time>2022-07-21T10:01:38Z</time>
      </trkpt>
      <trkpt lat="44.13494" lon="5.1462">
        <ele>431.7</ele>
        <time>2022-07-21T10:01:39Z</time>
      </trkpt>
      <trkpt lat="44.13494" lon="5.14618">
        <ele>431.7</ele>
        <time>2022-07-21T10:01:40Z</time>
      </trkpt>
      <trkpt lat="44.13492" lon="5.14614">
        <ele>431.9</ele>
        <time>2022-07-21T10:01:41Z</time>
      </trkpt>
      <trkpt lat="44.13492" lon="5.14613">
        <ele>431.9</ele>
        <time>2022-07-21T10:01:42Z</time>
      </trkpt>
      <trkpt lat="44.13491" lon="5.14609">
        <ele>432</ele>
        <time>2022-07-21T10:01:43Z</time>
      </trkpt>
      <trkpt lat="44.13491" lon="5.14608">
        <ele>432</ele>
        <time>2022-07-21T10:01:44Z</time>
      </trkpt>
      <trkpt lat="44.1349" lon="5.14606">
        <ele>432.1</ele>
        <time>2022-07-21T10:01:45Z</time>
      </trkpt>
      <trkpt lat="44.1349" lon="5.14605">
        <ele>432.1</ele>
        <time>2022-07-21T10:01:46Z</time>
      </trkpt>
      <trkpt lat="44.1349" lon="5.14605">
        <ele>432.1</ele>
        <time>2022-07-21T10:01:47Z</time>
      </trkpt>
      <trkpt lat="44.1349" lon="5.14605">
        <ele>432.1</ele>
        <time>2022-07-21T10:01:48Z</time>
      </trkpt>
      <trkpt lat="44.1349" lon="5.14605">
        <ele>432.1</ele>
        <time>2022-07-21T10:01:49Z</time>
      </trkpt>
      <trkpt lat="44.1349" lon="5.14605">
        <ele>432.1</ele>
        <time>2022-07-21T10:01:50Z</time>
      </trkpt>
      <trkpt lat="44.1349" lon="5.14605">
        <ele>432.1</ele>
        <time>2022-07-21T10:01:51Z</time>
      </trkpt>
      <trkpt lat="44.1349" lon="5.14605">
        <ele>432.1</ele>
        <time>2022-07-21T10:01:52Z</time>
      </trkpt>
      <trkpt lat="44.1349" lon="5.14605">
        <ele>432.1</ele>
        <time>2022-07-21T10:01:53Z</time>
      </trkpt>
      <trkpt lat="44.1349" lon="5.14605">
        <ele>432.1</ele>
        <time>2022-07-21T10:01:54Z</time>
      </trkpt>
      <trkpt lat="44.1349" lon="5.14605">
        <ele>432.1</ele>
        <time>2022-07-21T10:01:55Z</time>
      </trkpt>
      <trkpt lat="44.1349" lon="5.14605">
        <ele>432.1</ele>
        <time>2022-07-21T10:01:56Z</time>
      </trkpt>
      <trkpt lat="44.13492" lon="5.14603">
        <ele>432.2</ele>
        <time>2022-07-21T10:02:59Z</time>
      </trkpt>
      <trkpt lat="44.13493" lon="5.14602">
        <ele>432.2</ele>
        <time>2022-07-21T10:03:00Z</time>
      </trkpt>
      <trkpt lat="44.13495" lon="5.146">
        <ele>432.3</ele>
        <time>2022-07-21T10:03:01Z</time>
      </trkpt>
      <trkpt lat="44.13496" lon="5.14599">
        <ele>432.3</ele>
        <time>2022-07-21T10:03:02Z</time>
      </trkpt>
      <trkpt lat="44.13496" lon="5.14597">
        <ele>432.3</ele>
        <time>2022-07-21T10:03:03Z</time>
      </trkpt>
      <trkpt lat="44.13497" lon="5.14594">
        <ele>432.4</ele>
        <time>2022-07-21T10:03:04Z</time>
      </trkpt>
      <trkpt lat="44.13497" lon="5.14589">
        <ele>432.5</ele>
        <time>2022-07-21T10:03:05Z</time>
      </trkpt>
      <trkpt lat="44.13498" lon="5.14587">
        <ele>432.5</ele>
        <time>2022-07-21T10:03:06Z</time>
      </trkpt>
      <trkpt lat="44.13498" lon="5.14583">
        <ele>432.6</ele>
        <time>2022-07-21T10:03:07Z</time>
      </trkpt>
      <trkpt lat="44.13498" lon="5.14581">
        <ele>432.6</ele>
        <time>2022-07-21T10:03:08Z</time>
      </trkpt>
      <trkpt lat="44.13499" lon="5.14576">
        <ele>432.7</ele>
        <time>2022-07-21T10:03:09Z</time>
      </trkpt>
      <trkpt lat="44.135" lon="5.14574">
        <ele>432.8</ele>
        <time>2022-07-21T10:03:10Z</time>
      </trkpt>
      <trkpt lat="44.13501" lon="5.14569">
        <ele>432.8</ele>
        <time>2022-07-21T10:03:11Z</time>
      </trkpt>
      <trkpt lat="44.13501" lon="5.14567">
        <ele>432.9</ele>
        <time>2022-07-21T10:03:12Z</time>
      </trkpt>
      <trkpt lat="44.13503" lon="5.14563">
        <ele>433</ele>
        <time>2022-07-21T10:03:13Z</time>
      </trkpt>
      <trkpt lat="44.13504" lon="5.14561">
        <ele>433</ele>
        <time>2022-07-21T10:03:14Z</time>
      </trkpt>
      <trkpt lat="44.13505" lon="5.14558">
        <ele>433.1</ele>
        <time>2022-07-21T10:03:15Z</time>
      </trkpt>
      <trkpt lat="44.13507" lon="5.14555">
        <ele>433.1</ele>
        <time>2022-07-21T10:03:16Z</time>
      </trkpt>
      <trkpt lat="44.13508" lon="5.14551">
        <ele>433.2</ele>
        <time>2022-07-21T10:03:17Z</time>
      </trkpt>
      <trkpt lat="44.1351" lon="5.14548">
        <ele>433.3</ele>
        <time>2022-07-21T10:03:18Z</time>
      </trkpt>
      <trkpt lat="44.13512" lon="5.14545">
        <ele>433.3</ele>
        <time>2022-07-21T10:03:19Z</time>
      </trkpt>
      <trkpt lat="44.13514" lon="5.14543">
        <ele>433.3</ele>
        <time>2022-07-21T10:03:20Z</time>
      </trkpt>
      <trkpt lat="44.13517" lon="5.14539">
        <ele>433.4</ele>
        <time>2022-07-21T10:03:21Z</time>
      </trkpt>
      <trkpt lat="44.13518" lon="5.14538">
        <ele>433.4</ele>
        <time>2022-07-21T10:03:22Z</time>
      </trkpt>
      <trkpt lat="44.13522" lon="5.14534">
        <ele>433.5</ele>
        <time>2022-07-21T10:03:23Z</time>
      </trkpt>
      <trkpt lat="44.13523" lon="5.14533">
        <ele>433.5</ele>
        <time>2022-07-21T10:03:24Z</time>
      </trkpt>
      <trkpt lat="44.13525" lon="5.14531">
        <ele>433.5</ele>
        <time>2022-07-21T10:03:25Z</time>
      </trkpt>
      <trkpt lat="44.13527" lon="5.14528">
        <ele>433.5</ele>
        <time>2022-07-21T10:03:26Z</time>
      </trkpt>
      <trkpt lat="44.1353" lon="5.14527">
        <ele>433.6</ele>
        <time>2022-07-21T10:03:27Z</time>
      </trkpt>
      <trkpt lat="44.13532" lon="5.14525">
        <ele>433.6</ele>
        <time>2022-07-21T10:03:28Z</time>
      </trkpt>
      <trkpt lat="44.13535" lon="5.14523">
        <ele>433.6</ele>
        <time>2022-07-21T10:03:29Z</time>
      </trkpt>
      <trkpt lat="44.13538" lon="5.14522">
        <ele>433.6</ele>
        <time>2022-07-21T10:03:30Z</time>
      </trkpt>
      <trkpt lat="44.1354" lon="5.1452">
        <ele>433.7</ele>
        <time>2022-07-21T10:03:31Z</time>
      </trkpt>
      <trkpt lat="44.13543" lon="5.14519">
        <ele>433.7</ele>
        <time>2022-07-21T10:03:32Z</time>
      </trkpt>
      <trkpt lat="44.13545" lon="5.14517">
        <ele>433.7</ele>
        <time>2022-07-21T10:03:33Z</time>
      </trkpt>
      <trkpt lat="44.13549" lon="5.14515">
        <ele>433.7</ele>
        <time>2022-07-21T10:03:34Z</time>
      </trkpt>
      <trkpt lat="44.1355" lon="5.14514">
        <ele>433.7</ele>
        <time>2022-07-21T10:03:35Z</time>
      </trkpt>
      <trkpt lat="44.13553" lon="5.14513">
        <ele>433.7</ele>
        <time>2022-07-21T10:03:36Z</time>
      </trkpt>
      <trkpt lat="44.13555" lon="5.14511">
        <ele>433.8</ele>
        <time>2022-07-21T10:03:37Z</time>
      </trkpt>
      <trkpt lat="44.13558" lon="5.14509">
        <ele>433.8</ele>
        <time>2022-07-21T10:03:38Z</time>
      </trkpt>
      <trkpt lat="44.13561" lon="5.14507">
        <ele>433.8</ele>
        <time>2022-07-21T10:03:39Z</time>
      </trkpt>
      <trkpt lat="44.13563" lon="5.14505">
        <ele>433.8</ele>
        <time>2022-07-21T10:03:40Z</time>
      </trkpt>
      <trkpt lat="44.13567" lon="5.14503">
        <ele>433.8</ele>
        <time>2022-07-21T10:03:41Z</time>
      </trkpt>
      <trkpt lat="44.13568" lon="5.14502">
        <ele>433.8</ele>
        <time>2022-07-21T10:03:42Z</time>
      </trkpt>
      <trkpt lat="44.13571" lon="5.14501">
        <ele>433.8</ele>
        <time>2022-07-21T10:03:43Z</time>
      </trkpt>
      <trkpt lat="44.13573" lon="5.14499">
        <ele>433.8</ele>
        <time>2022-07-21T10:03:44Z</time>
      </trkpt>
      <trkpt lat="44.13576" lon="5.14498">
        <ele>433.8</ele>
        <time>2022-07-21T10:03:45Z</time>
      </trkpt>
      <trkpt lat="44.13579" lon="5.14497">
        <ele>433.8</ele>
        <time>2022-07-21T10:03:46Z</time>
      </trkpt>
      <trkpt lat="44.13581" lon="5.14495">
        <ele>433.8</ele>
        <time>2022-07-21T10:03:47Z</time>
      </trkpt>
      <trkpt lat="44.13584" lon="5.14493">
        <ele>433.8</ele>
        <time>2022-07-21T10:03:48Z</time>
      </trkpt>
      <trkpt lat="44.13587" lon="5.14491">
        <ele>433.8</ele>
        <time>2022-07-21T10:03:49Z</time>
      </trkpt>
      <trkpt lat="44.1359" lon="5.14489">
        <ele>433.8</ele>
        <time>2022-07-21T10:03:50Z</time>
      </trkpt>
      <trkpt lat="44.13593" lon="5.14487">
        <ele>433.8</ele>
        <time>2022-07-21T10:03:51Z</time>
      </trkpt>
      <trkpt lat="44.13596" lon="5.14486">
        <ele>433.7</ele>
        <time>2022-07-21T10:03:52Z</time>
      </trkpt>
      <trkpt lat="44.13599" lon="5.14484">
        <ele>433.7</ele>
        <time>2022-07-21T10:03:53Z</time>
      </trkpt>
      <trkpt lat="44.13602" lon="5.14482">
        <ele>433.6</ele>
        <time>2022-07-21T10:03:54Z</time>
      </trkpt>
      <trkpt lat="44.13606" lon="5.1448">
        <ele>433.5</ele>
        <time>2022-07-21T10:03:55Z</time>
      </trkpt>
      <trkpt lat="44.13609" lon="5.14478">
        <ele>433.5</ele>
        <time>2022-07-21T10:03:56Z</time>
      </trkpt>
      <trkpt lat="44.13613" lon="5.14475">
        <ele>433.4</ele>
        <time>2022-07-21T10:03:57Z</time>
      </trkpt>
      <trkpt lat="44.13616" lon="5.14473">
        <ele>433.3</ele>
        <time>2022-07-21T10:03:58Z</time>
      </trkpt>
      <trkpt lat="44.13619" lon="5.14471">
        <ele>433.2</ele>
        <time>2022-07-21T10:03:59Z</time>
      </trkpt>
      <trkpt lat="44.13623" lon="5.14469">
        <ele>433.2</ele>
        <time>2022-07-21T10:04:00Z</time>
      </trkpt>
      <trkpt lat="44.13626" lon="5.14467">
        <ele>433.1</ele>
        <time>2022-07-21T10:04:01Z</time>
      </trkpt>
      <trkpt lat="44.1363" lon="5.14464">
        <ele>433</ele>
        <time>2022-07-21T10:04:02Z</time>
      </trkpt>
      <trkpt lat="44.13634" lon="5.14462">
        <ele>433</ele>
        <time>2022-07-21T10:04:03Z</time>
      </trkpt>
      <trkpt lat="44.13637" lon="5.1446">
        <ele>432.9</ele>
        <time>2022-07-21T10:04:04Z</time>
      </trkpt>
      <trkpt lat="44.13641" lon="5.14458">
        <ele>432.8</ele>
        <time>2022-07-21T10:04:05Z</time>
      </trkpt>
      <trkpt lat="44.13645" lon="5.14457">
        <ele>432.8</ele>
        <time>2022-07-21T10:04:06Z</time>
      </trkpt>
      <trkpt lat="44.13649" lon="5.14455">
        <ele>432.7</ele>
        <time>2022-07-21T10:04:07Z</time>
      </trkpt>
      <trkpt lat="44.13652" lon="5.14454">
        <ele>432.6</ele>
        <time>2022-07-21T10:04:08Z</time>
      </trkpt>
      <trkpt lat="44.13656" lon="5.14453">
        <ele>432.5</ele>
        <time>2022-07-21T10:04:09Z</time>
      </trkpt>
      <trkpt lat="44.1366" lon="5.14451">
        <ele>432.4</ele>
        <time>2022-07-21T10:04:10Z</time>
      </trkpt>
      <trkpt lat="44.13664" lon="5.14451">
        <ele>432.3</ele>
        <time>2022-07-21T10:04:11Z</time>
      </trkpt>
      <trkpt lat="44.13668" lon="5.1445">
        <ele>432.3</ele>
        <time>2022-07-21T10:04:12Z</time>
      </trkpt>
      <trkpt lat="44.13672" lon="5.14449">
        <ele>432.2</ele>
        <time>2022-07-21T10:04:13Z</time>
      </trkpt>
      <trkpt lat="44.13676" lon="5.14448">
        <ele>432.1</ele>
        <time>2022-07-21T10:04:14Z</time>
      </trkpt>
      <trkpt lat="44.13681" lon="5.14448">
        <ele>432</ele>
        <time>2022-07-21T10:04:15Z</time>
      </trkpt>
      <trkpt lat="44.13685" lon="5.14447">
        <ele>431.9</ele>
        <time>2022-07-21T10:04:16Z</time>
      </trkpt>
      <trkpt lat="44.1369" lon="5.14447">
        <ele>431.8</ele>
        <time>2022-07-21T10:04:17Z</time>
      </trkpt>
      <trkpt lat="44.13694" lon="5.14446">
        <ele>431.7</ele>
        <time>2022-07-21T10:04:18Z</time>
      </trkpt>
      <trkpt lat="44.13699" lon="5.14444">
        <ele>431.5</ele>
        <time>2022-07-21T10:04:19Z</time>
      </trkpt>
      <trkpt lat="44.13704" lon="5.14443">
        <ele>431.4</ele>
        <time>2022-07-21T10:04:20Z</time>
      </trkpt>
      <trkpt lat="44.13709" lon="5.14442">
        <ele>431.3</ele>
        <time>2022-07-21T10:04:21Z</time>
      </trkpt>
      <trkpt lat="44.13714" lon="5.1444">
        <ele>431.2</ele>
        <time>2022-07-21T10:04:22Z</time>
      </trkpt>
      <trkpt lat="44.13719" lon="5.1444">
        <ele>431.1</ele>
        <time>2022-07-21T10:04:23Z</time>
      </trkpt>
      <trkpt lat="44.13724" lon="5.14438">
        <ele>431</ele>
        <time>2022-07-21T10:04:24Z</time>
      </trkpt>
      <trkpt lat="44.1373" lon="5.14437">
        <ele>430.9</ele>
        <time>2022-07-21T10:04:25Z</time>
      </trkpt>
      <trkpt lat="44.13735" lon="5.14437">
        <ele>430.8</ele>
        <time>2022-07-21T10:04:26Z</time>
      </trkpt>
      <trkpt lat="44.13741" lon="5.14435">
        <ele>430.7</ele>
        <time>2022-07-21T10:04:27Z</time>
      </trkpt>
      <trkpt lat="44.13746" lon="5.14433">
        <ele>430.6</ele>
        <time>2022-07-21T10:04:28Z</time>
      </trkpt>
      <trkpt lat="44.13751" lon="5.1443">
        <ele>430.5</ele>
        <time>2022-07-21T10:04:29Z</time>
      </trkpt>
      <trkpt lat="44.13756" lon="5.14427">
        <ele>430.5</ele>
        <time>2022-07-21T10:04:30Z</time>
      </trkpt>
      <trkpt lat="44.1376" lon="5.14423">
        <ele>430.4</ele>
        <time>2022-07-21T10:04:31Z</time>
      </trkpt>
      <trkpt lat="44.13765" lon="5.14418">
        <ele>430.3</ele>
        <time>2022-07-21T10:04:32Z</time>
      </trkpt>
      <trkpt lat="44.13769" lon="5.14413">
        <ele>430.2</ele>
        <time>2022-07-21T10:04:33Z</time>
      </trkpt>
      <trkpt lat="44.13774" lon="5.14404">
        <ele>430.1</ele>
        <time>2022-07-21T10:04:34Z</time>
      </trkpt>
      <trkpt lat="44.13776" lon="5.14396">
        <ele>430</ele>
        <time>2022-07-21T10:04:35Z</time>
      </trkpt>
      <trkpt lat="44.13778" lon="5.14389">
        <ele>430</ele>
        <time>2022-07-21T10:04:36Z</time>
      </trkpt>
      <trkpt lat="44.1378" lon="5.14381">
        <ele>429.9</ele>
        <time>2022-07-21T10:04:37Z</time>
      </trkpt>
      <trkpt lat="44.13782" lon="5.14374">
        <ele>429.8</ele>
        <time>2022-07-21T10:04:38Z</time>
      </trkpt>
      <trkpt lat="44.13783" lon="5.14367">
        <ele>429.8</ele>
        <time>2022-07-21T10:04:39Z</time>
      </trkpt>
      <trkpt lat="44.13784" lon="5.14359">
        <ele>429.7</ele>
        <time>2022-07-21T10:04:40Z</time>
      </trkpt>
      <trkpt lat="44.13786" lon="5.1435">
        <ele>429.7</ele>
        <time>2022-07-21T10:04:41Z</time>
      </trkpt>
      <trkpt lat="44.13788" lon="5.14341">
        <ele>429.7</ele>
        <time>2022-07-21T10:04:42Z</time>
      </trkpt>
      <trkpt lat="44.13789" lon="5.14334">
        <ele>429.6</ele>
        <time>2022-07-21T10:04:43Z</time>
      </trkpt>
      <trkpt lat="44.13791" lon="5.14327">
        <ele>429.6</ele>
        <time>2022-07-21T10:04:44Z</time>
      </trkpt>
      <trkpt lat="44.13793" lon="5.1432">
        <ele>429.6</ele>
        <time>2022-07-21T10:04:45Z</time>
      </trkpt>
      <trkpt lat="44.13794" lon="5.14312">
        <ele>429.7</ele>
        <time>2022-07-21T10:04:46Z</time>
      </trkpt>
      <trkpt lat="44.13796" lon="5.14305">
        <ele>429.7</ele>
        <time>2022-07-21T10:04:47Z</time>
      </trkpt>
      <trkpt lat="44.13798" lon="5.14298">
        <ele>429.7</ele>
        <time>2022-07-21T10:04:48Z</time>
      </trkpt>
      <trkpt lat="44.13799" lon="5.14291">
        <ele>429.7</ele>
        <time>2022-07-21T10:04:49Z</time>
      </trkpt>
      <trkpt lat="44.13801" lon="5.14283">
        <ele>429.7</ele>
        <time>2022-07-21T10:04:50Z</time>
      </trkpt>
      <trkpt lat="44.13803" lon="5.14274">
        <ele>429.7</ele>
        <time>2022-07-21T10:04:51Z</time>
      </trkpt>
      <trkpt lat="44.13805" lon="5.14267">
        <ele>429.7</ele>
        <time>2022-07-21T10:04:52Z</time>
      </trkpt>
      <trkpt lat="44.13806" lon="5.14257">
        <ele>429.7</ele>
        <time>2022-07-21T10:04:53Z</time>
      </trkpt>
      <trkpt lat="44.13808" lon="5.1425">
        <ele>429.7</ele>
        <time>2022-07-21T10:04:54Z</time>
      </trkpt>
      <trkpt lat="44.13809" lon="5.14242">
        <ele>429.7</ele>
        <time>2022-07-21T10:04:55Z</time>
      </trkpt>
      <trkpt lat="44.13811" lon="5.14235">
        <ele>429.7</ele>
        <time>2022-07-21T10:04:56Z</time>
      </trkpt>
      <trkpt lat="44.13813" lon="5.14228">
        <ele>429.7</ele>
        <time>2022-07-21T10:04:57Z</time>
      </trkpt>
      <trkpt lat="44.13814" lon="5.1422">
        <ele>429.7</ele>
        <time>2022-07-21T10:04:58Z</time>
      </trkpt>
      <trkpt lat="44.13815" lon="5.14213">
        <ele>429.8</ele>
        <time>2022-07-21T10:04:59Z</time>
      </trkpt>
      <trkpt lat="44.13817" lon="5.14207">
        <ele>429.8</ele>
        <time>2022-07-21T10:05:00Z</time>
      </trkpt>
      <trkpt lat="44.13819" lon="5.14199">
        <ele>429.8</ele>
        <time>2022-07-21T10:05:01Z</time>
      </trkpt>
      <trkpt lat="44.1382" lon="5.14193">
        <ele>429.8</ele>
        <time>2022-07-21T10:05:02Z</time>
      </trkpt>
      <trkpt lat="44.13822" lon="5.14186">
        <ele>429.9</ele>
        <time>2022-07-21T10:05:03Z</time>
      </trkpt>
      <trkpt lat="44.13824" lon="5.1418">
        <ele>429.8</ele>
        <time>2022-07-21T10:05:04Z</time>
      </trkpt>
      <trkpt lat="44.13826" lon="5.14173">
        <ele>429.8</ele>
        <time>2022-07-21T10:05:05Z</time>
      </trkpt>
      <trkpt lat="44.13829" lon="5.14166">
        <ele>429.8</ele>
        <time>2022-07-21T10:05:06Z</time>
      </trkpt>
      <trkpt lat="44.13832" lon="5.14159">
        <ele>429.7</ele>
        <time>2022-07-21T10:05:07Z</time>
      </trkpt>
      <trkpt lat="44.13835" lon="5.14152">
        <ele>429.6</ele>
        <time>2022-07-21T10:05:08Z</time>
      </trkpt>
      <trkpt lat="44.13839" lon="5.14147">
        <ele>429.5</ele>
        <time>2022-07-21T10:05:09Z</time>
      </trkpt>
      <trkpt lat="44.13844" lon="5.14141">
        <ele>429.4</ele>
        <time>2022-07-21T10:05:10Z</time>
      </trkpt>
      <trkpt lat="44.13849" lon="5.14136">
        <ele>429.2</ele>
        <time>2022-07-21T10:05:11Z</time>
      </trkpt>
      <trkpt lat="44.13854" lon="5.14131">
        <ele>429.1</ele>
        <time>2022-07-21T10:05:12Z</time>
      </trkpt>
      <trkpt lat="44.13861" lon="5.14127">
        <ele>428.9</ele>
        <time>2022-07-21T10:05:13Z</time>
      </trkpt>
      <trkpt lat="44.13867" lon="5.14124">
        <ele>428.8</ele>
        <time>2022-07-21T10:05:14Z</time>
      </trkpt>
      <trkpt lat="44.13874" lon="5.14122">
        <ele>428.6</ele>
        <time>2022-07-21T10:05:15Z</time>
      </trkpt>
      <trkpt lat="44.1388" lon="5.14121">
        <ele>428.4</ele>
        <time>2022-07-21T10:05:16Z</time>
      </trkpt>
      <trkpt lat="44.13887" lon="5.14122">
        <ele>428.2</ele>
        <time>2022-07-21T10:05:17Z</time>
      </trkpt>
      <trkpt lat="44.13894" lon="5.14123">
        <ele>428</ele>
        <time>2022-07-21T10:05:18Z</time>
      </trkpt>
      <trkpt lat="44.139" lon="5.14125">
        <ele>427.8</ele>
        <time>2022-07-21T10:05:19Z</time>
      </trkpt>
      <trkpt lat="44.13907" lon="5.14126">
        <ele>427.6</ele>
        <time>2022-07-21T10:05:20Z</time>
      </trkpt>
      <trkpt lat="44.13914" lon="5.14128">
        <ele>427.4</ele>
        <time>2022-07-21T10:05:21Z</time>
      </trkpt>
      <trkpt lat="44.13922" lon="5.1413">
        <ele>427.2</ele>
        <time>2022-07-21T10:05:22Z</time>
      </trkpt>
      <trkpt lat="44.13928" lon="5.14134">
        <ele>427</ele>
        <time>2022-07-21T10:05:23Z</time>
      </trkpt>
      <trkpt lat="44.13936" lon="5.14133">
        <ele>426.7</ele>
        <time>2022-07-21T10:05:24Z</time>
      </trkpt>
      <trkpt lat="44.13943" lon="5.14137">
        <ele>426.5</ele>
        <time>2022-07-21T10:05:25Z</time>
      </trkpt>
      <trkpt lat="44.1395" lon="5.14139">
        <ele>426.3</ele>
        <time>2022-07-21T10:05:26Z</time>
      </trkpt>
      <trkpt lat="44.13957" lon="5.14142">
        <ele>426.1</ele>
        <time>2022-07-21T10:05:27Z</time>
      </trkpt>
      <trkpt lat="44.13964" lon="5.14146">
        <ele>425.9</ele>
        <time>2022-07-21T10:05:28Z</time>
      </trkpt>
      <trkpt lat="44.13969" lon="5.14153">
        <ele>425.6</ele>
        <time>2022-07-21T10:05:29Z</time>
      </trkpt>
      <trkpt lat="44.13975" lon="5.14158">
        <ele>425.4</ele>
        <time>2022-07-21T10:05:30Z</time>
      </trkpt>
      <trkpt lat="44.13981" lon="5.14164">
        <ele>425.2</ele>
        <time>2022-07-21T10:05:31Z</time>
      </trkpt>
      <trkpt lat="44.13986" lon="5.1417">
        <ele>424.9</ele>
        <time>2022-07-21T10:05:32Z</time>
      </trkpt>
      <trkpt lat="44.13993" lon="5.14174">
        <ele>424.7</ele>
        <time>2022-07-21T10:05:33Z</time>
      </trkpt>
      <trkpt lat="44.13999" lon="5.14178">
        <ele>424.5</ele>
        <time>2022-07-21T10:05:34Z</time>
      </trkpt>
      <trkpt lat="44.14006" lon="5.1418">
        <ele>424.2</ele>
        <time>2022-07-21T10:05:35Z</time>
      </trkpt>
      <trkpt lat="44.14013" lon="5.14182">
        <ele>424</ele>
        <time>2022-07-21T10:05:36Z</time>
      </trkpt>
      <trkpt lat="44.1402" lon="5.14183">
        <ele>423.8</ele>
        <time>2022-07-21T10:05:37Z</time>
      </trkpt>
      <trkpt lat="44.14028" lon="5.14185">
        <ele>423.6</ele>
        <time>2022-07-21T10:05:38Z</time>
      </trkpt>
      <trkpt lat="44.14036" lon="5.14186">
        <ele>423.3</ele>
        <time>2022-07-21T10:05:39Z</time>
      </trkpt>
      <trkpt lat="44.14045" lon="5.14187">
        <ele>423.1</ele>
        <time>2022-07-21T10:05:40Z</time>
      </trkpt>
      <trkpt lat="44.14053" lon="5.14189">
        <ele>422.9</ele>
        <time>2022-07-21T10:05:41Z</time>
      </trkpt>
      <trkpt lat="44.14059" lon="5.14196">
        <ele>422.7</ele>
        <time>2022-07-21T10:05:42Z</time>
      </trkpt>
      <trkpt lat="44.14065" lon="5.14202">
        <ele>422.6</ele>
        <time>2022-07-21T10:05:43Z</time>
      </trkpt>
      <trkpt lat="44.14071" lon="5.14208">
        <ele>422.4</ele>
        <time>2022-07-21T10:05:44Z</time>
      </trkpt>
      <trkpt lat="44.14076" lon="5.14215">
        <ele>422.2</ele>
        <time>2022-07-21T10:05:45Z</time>
      </trkpt>
      <trkpt lat="44.14083" lon="5.14221">
        <ele>422</ele>
        <time>2022-07-21T10:05:46Z</time>
      </trkpt>
      <trkpt lat="44.1409" lon="5.14225">
        <ele>421.7</ele>
        <time>2022-07-21T10:05:47Z</time>
      </trkpt>
      <trkpt lat="44.14098" lon="5.14228">
        <ele>421.5</ele>
        <time>2022-07-21T10:05:48Z</time>
      </trkpt>
      <trkpt lat="44.14105" lon="5.14223">
        <ele>421.2</ele>
        <time>2022-07-21T10:05:49Z</time>
      </trkpt>
      <trkpt lat="44.14112" lon="5.1422">
        <ele>421</ele>
        <time>2022-07-21T10:05:50Z</time>
      </trkpt>
      <trkpt lat="44.14119" lon="5.14215">
        <ele>420.7</ele>
        <time>2022-07-21T10:05:51Z</time>
      </trkpt>
      <trkpt lat="44.14126" lon="5.14211">
        <ele>420.4</ele>
        <time>2022-07-21T10:05:52Z</time>
      </trkpt>
      <trkpt lat="44.14133" lon="5.14208">
        <ele>420.2</ele>
        <time>2022-07-21T10:05:53Z</time>
      </trkpt>
      <trkpt lat="44.1414" lon="5.14206">
        <ele>420</ele>
        <time>2022-07-21T10:05:54Z</time>
      </trkpt>
      <trkpt lat="44.14148" lon="5.14207">
        <ele>419.7</ele>
        <time>2022-07-21T10:05:55Z</time>
      </trkpt>
      <trkpt lat="44.14156" lon="5.14207">
        <ele>419.4</ele>
        <time>2022-07-21T10:05:56Z</time>
      </trkpt>
      <trkpt lat="44.14163" lon="5.14209">
        <ele>419.2</ele>
        <time>2022-07-21T10:05:57Z</time>
      </trkpt>
      <trkpt lat="44.14171" lon="5.14212">
        <ele>419</ele>
        <time>2022-07-21T10:05:58Z</time>
      </trkpt>
      <trkpt lat="44.14179" lon="5.14213">
        <ele>418.8</ele>
        <time>2022-07-21T10:05:59Z</time>
      </trkpt>
      <trkpt lat="44.14187" lon="5.14214">
        <ele>418.6</ele>
        <time>2022-07-21T10:06:00Z</time>
      </trkpt>
      <trkpt lat="44.14195" lon="5.14215">
        <ele>418.4</ele>
        <time>2022-07-21T10:06:01Z</time>
      </trkpt>
      <trkpt lat="44.14205" lon="5.14205">
        <ele>418.2</ele>
        <time>2022-07-21T10:06:02Z</time>
      </trkpt>
      <trkpt lat="44.14211" lon="5.142">
        <ele>418</ele>
        <time>2022-07-21T10:06:03Z</time>
      </trkpt>
      <trkpt lat="44.14217" lon="5.14194">
        <ele>417.8</ele>
        <time>2022-07-21T10:06:04Z</time>
      </trkpt>
      <trkpt lat="44.1422" lon="5.14182">
        <ele>417.6</ele>
        <time>2022-07-21T10:06:05Z</time>
      </trkpt>
      <trkpt lat="44.14224" lon="5.14171">
        <ele>417.3</ele>
        <time>2022-07-21T10:06:06Z</time>
      </trkpt>
      <trkpt lat="44.14227" lon="5.14162">
        <ele>417.1</ele>
        <time>2022-07-21T10:06:07Z</time>
      </trkpt>
      <trkpt lat="44.14232" lon="5.14155">
        <ele>416.8</ele>
        <time>2022-07-21T10:06:08Z</time>
      </trkpt>
      <trkpt lat="44.1424" lon="5.1415">
        <ele>416.5</ele>
        <time>2022-07-21T10:06:09Z</time>
      </trkpt>
      <trkpt lat="44.14249" lon="5.14147">
        <ele>416.2</ele>
        <time>2022-07-21T10:06:10Z</time>
      </trkpt>
      <trkpt lat="44.14257" lon="5.14149">
        <ele>416.1</ele>
        <time>2022-07-21T10:06:11Z</time>
      </trkpt>
      <trkpt lat="44.14265" lon="5.1415">
        <ele>416</ele>
        <time>2022-07-21T10:06:12Z</time>
      </trkpt>
      <trkpt lat="44.14273" lon="5.14149">
        <ele>416.1</ele>
        <time>2022-07-21T10:06:13Z</time>
      </trkpt>
      <trkpt lat="44.1428" lon="5.14146">
        <ele>416.3</ele>
        <time>2022-07-21T10:06:14Z</time>
      </trkpt>
      <trkpt lat="44.14287" lon="5.14139">
        <ele>416.4</ele>
        <time>2022-07-21T10:06:15Z</time>
      </trkpt>
      <trkpt lat="44.14291" lon="5.1413">
        <ele>416.6</ele>
        <time>2022-07-21T10:06:16Z</time>
      </trkpt>
      <trkpt lat="44.14294" lon="5.1412">
        <ele>416.8</ele>
        <time>2022-07-21T10:06:17Z</time>
      </trkpt>
      <trkpt lat="44.14288" lon="5.14112">
        <ele>416.8</ele>
        <time>2022-07-21T10:06:18Z</time>
      </trkpt>
      <trkpt lat="44.14283" lon="5.14106">
        <ele>416.9</ele>
        <time>2022-07-21T10:06:19Z</time>
      </trkpt>
      <trkpt lat="44.14278" lon="5.14101">
        <ele>417</ele>
        <time>2022-07-21T10:06:20Z</time>
      </trkpt>
      <trkpt lat="44.14273" lon="5.14096">
        <ele>417.1</ele>
        <time>2022-07-21T10:06:21Z</time>
      </trkpt>
      <trkpt lat="44.14269" lon="5.1409">
        <ele>417.3</ele>
        <time>2022-07-21T10:06:22Z</time>
      </trkpt>
      <trkpt lat="44.14263" lon="5.14086">
        <ele>417.5</ele>
        <time>2022-07-21T10:06:23Z</time>
      </trkpt>
      <trkpt lat="44.1426" lon="5.14079">
        <ele>417.8</ele>
        <time>2022-07-21T10:06:24Z</time>
      </trkpt>
      <trkpt lat="44.14257" lon="5.14073">
        <ele>418</ele>
        <time>2022-07-21T10:06:25Z</time>
      </trkpt>
      <trkpt lat="44.14255" lon="5.14067">
        <ele>418.2</ele>
        <time>2022-07-21T10:06:26Z</time>
      </trkpt>
      <trkpt lat="44.14254" lon="5.14062">
        <ele>418.4</ele>
        <time>2022-07-21T10:06:27Z</time>
      </trkpt>
      <trkpt lat="44.14254" lon="5.14058">
        <ele>418.6</ele>
        <time>2022-07-21T10:06:28Z</time>
      </trkpt>
      <trkpt lat="44.14254" lon="5.14054">
        <ele>418.7</ele>
        <time>2022-07-21T10:06:29Z</time>
      </trkpt>
      <trkpt lat="44.14254" lon="5.1405">
        <ele>418.9</ele>
        <time>2022-07-21T10:06:30Z</time>
      </trkpt>
      <trkpt lat="44.14254" lon="5.14045">
        <ele>419.1</ele>
        <time>2022-07-21T10:06:31Z</time>
      </trkpt>
      <trkpt lat="44.14256" lon="5.1404">
        <ele>419.3</ele>
        <time>2022-07-21T10:06:32Z</time>
      </trkpt>
      <trkpt lat="44.14257" lon="5.14038">
        <ele>419.4</ele>
        <time>2022-07-21T10:06:33Z</time>
      </trkpt>
      <trkpt lat="44.14258" lon="5.14035">
        <ele>419.5</ele>
        <time>2022-07-21T10:06:34Z</time>
      </trkpt>
      <trkpt lat="44.14258" lon="5.14031">
        <ele>419.7</ele>
        <time>2022-07-21T10:06:35Z</time>
      </trkpt>
      <trkpt lat="44.1426" lon="5.14027">
        <ele>419.9</ele>
        <time>2022-07-21T10:06:36Z</time>
      </trkpt>
      <trkpt lat="44.14261" lon="5.14023">
        <ele>420.1</ele>
        <time>2022-07-21T10:06:37Z</time>
      </trkpt>
      <trkpt lat="44.14262" lon="5.14021">
        <ele>420.2</ele>
        <time>2022-07-21T10:06:38Z</time>
      </trkpt>
      <trkpt lat="44.14263" lon="5.14018">
        <ele>420.4</ele>
        <time>2022-07-21T10:06:39Z</time>
      </trkpt>
      <trkpt lat="44.14263" lon="5.14016">
        <ele>420.5</ele>
        <time>2022-07-21T10:06:40Z</time>
      </trkpt>
      <trkpt lat="44.14265" lon="5.14012">
        <ele>420.8</ele>
        <time>2022-07-21T10:06:41Z</time>
      </trkpt>
      <trkpt lat="44.14265" lon="5.1401">
        <ele>420.9</ele>
        <time>2022-07-21T10:06:42Z</time>
      </trkpt>
      <trkpt lat="44.14267" lon="5.14005">
        <ele>421.2</ele>
        <time>2022-07-21T10:06:43Z</time>
      </trkpt>
      <trkpt lat="44.14268" lon="5.14004">
        <ele>421.3</ele>
        <time>2022-07-21T10:06:44Z</time>
      </trkpt>
      <trkpt lat="44.1427" lon="5.14">
        <ele>421.6</ele>
        <time>2022-07-21T10:06:45Z</time>
      </trkpt>
      <trkpt lat="44.1427" lon="5.13998">
        <ele>421.7</ele>
        <time>2022-07-21T10:06:46Z</time>
      </trkpt>
      <trkpt lat="44.14272" lon="5.13994">
        <ele>422</ele>
        <time>2022-07-21T10:06:47Z</time>
      </trkpt>
      <trkpt lat="44.14273" lon="5.13993">
        <ele>422.1</ele>
        <time>2022-07-21T10:06:48Z</time>
      </trkpt>
      <trkpt lat="44.14275" lon="5.1399">
        <ele>422.3</ele>
        <time>2022-07-21T10:06:49Z</time>
      </trkpt>
      <trkpt lat="44.14276" lon="5.13989">
        <ele>422.4</ele>
        <time>2022-07-21T10:06:50Z</time>
      </trkpt>
      <trkpt lat="44.14278" lon="5.13986">
        <ele>422.7</ele>
        <time>2022-07-21T10:06:51Z</time>
      </trkpt>
      <trkpt lat="44.14279" lon="5.13985">
        <ele>422.8</ele>
        <time>2022-07-21T10:06:52Z</time>
      </trkpt>
      <trkpt lat="44.14281" lon="5.13982">
        <ele>423</ele>
        <time>2022-07-21T10:06:53Z</time>
      </trkpt>
      <trkpt lat="44.14282" lon="5.1398">
        <ele>423.1</ele>
        <time>2022-07-21T10:06:54Z</time>
      </trkpt>
      <trkpt lat="44.14284" lon="5.13977">
        <ele>423.4</ele>
        <time>2022-07-21T10:06:55Z</time>
      </trkpt>
      <trkpt lat="44.14285" lon="5.13976">
        <ele>423.5</ele>
        <time>2022-07-21T10:06:56Z</time>
      </trkpt>
      <trkpt lat="44.14288" lon="5.13972">
        <ele>423.8</ele>
        <time>2022-07-21T10:06:57Z</time>
      </trkpt>
      <trkpt lat="44.14288" lon="5.13971">
        <ele>423.9</ele>
        <time>2022-07-21T10:06:58Z</time>
      </trkpt>
      <trkpt lat="44.1429" lon="5.13967">
        <ele>424.2</ele>
        <time>2022-07-21T10:06:59Z</time>
      </trkpt>
      <trkpt lat="44.14291" lon="5.13966">
        <ele>424.3</ele>
        <time>2022-07-21T10:07:00Z</time>
      </trkpt>
      <trkpt lat="44.14293" lon="5.13962">
        <ele>424.5</ele>
        <time>2022-07-21T10:07:01Z</time>
      </trkpt>
      <trkpt lat="44.14293" lon="5.13961">
        <ele>424.6</ele>
        <time>2022-07-21T10:07:02Z</time>
      </trkpt>
      <trkpt lat="44.14294" lon="5.13957">
        <ele>424.8</ele>
        <time>2022-07-21T10:07:03Z</time>
      </trkpt>
      <trkpt lat="44.14294" lon="5.13955">
        <ele>424.9</ele>
        <time>2022-07-21T10:07:04Z</time>
      </trkpt>
      <trkpt lat="44.14294" lon="5.13951">
        <ele>425.1</ele>
        <time>2022-07-21T10:07:05Z</time>
      </trkpt>
      <trkpt lat="44.14294" lon="5.13949">
        <ele>425.1</ele>
        <time>2022-07-21T10:07:06Z</time>
      </trkpt>
      <trkpt lat="44.14293" lon="5.13945">
        <ele>425.3</ele>
        <time>2022-07-21T10:07:07Z</time>
      </trkpt>
      <trkpt lat="44.14292" lon="5.13943">
        <ele>425.4</ele>
        <time>2022-07-21T10:07:08Z</time>
      </trkpt>
      <trkpt lat="44.1429" lon="5.13939">
        <ele>425.5</ele>
        <time>2022-07-21T10:07:09Z</time>
      </trkpt>
      <trkpt lat="44.14289" lon="5.13938">
        <ele>425.5</ele>
        <time>2022-07-21T10:07:10Z</time>
      </trkpt>
      <trkpt lat="44.14287" lon="5.13935">
        <ele>425.7</ele>
        <time>2022-07-21T10:07:11Z</time>
      </trkpt>
      <trkpt lat="44.14286" lon="5.13934">
        <ele>425.7</ele>
        <time>2022-07-21T10:07:12Z</time>
      </trkpt>
      <trkpt lat="44.14283" lon="5.13931">
        <ele>425.8</ele>
        <time>2022-07-21T10:07:13Z</time>
      </trkpt>
      <trkpt lat="44.14281" lon="5.13931">
        <ele>425.9</ele>
        <time>2022-07-21T10:07:14Z</time>
      </trkpt>
      <trkpt lat="44.14279" lon="5.13929">
        <ele>426</ele>
        <time>2022-07-21T10:07:15Z</time>
      </trkpt>
      <trkpt lat="44.14276" lon="5.13928">
        <ele>426</ele>
        <time>2022-07-21T10:07:16Z</time>
      </trkpt>
      <trkpt lat="44.14273" lon="5.13926">
        <ele>426.1</ele>
        <time>2022-07-21T10:07:17Z</time>
      </trkpt>
      <trkpt lat="44.14271" lon="5.13925">
        <ele>426.2</ele>
        <time>2022-07-21T10:07:18Z</time>
      </trkpt>
      <trkpt lat="44.14267" lon="5.13922">
        <ele>426.4</ele>
        <time>2022-07-21T10:07:19Z</time>
      </trkpt>
      <trkpt lat="44.14266" lon="5.13921">
        <ele>426.4</ele>
        <time>2022-07-21T10:07:20Z</time>
      </trkpt>
      <trkpt lat="44.14264" lon="5.13918">
        <ele>426.5</ele>
        <time>2022-07-21T10:07:21Z</time>
      </trkpt>
      <trkpt lat="44.14263" lon="5.13917">
        <ele>426.6</ele>
        <time>2022-07-21T10:07:22Z</time>
      </trkpt>
      <trkpt lat="44.14261" lon="5.13913">
        <ele>426.7</ele>
        <time>2022-07-21T10:07:23Z</time>
      </trkpt>
      <trkpt lat="44.14261" lon="5.13911">
        <ele>426.7</ele>
        <time>2022-07-21T10:07:24Z</time>
      </trkpt>
      <trkpt lat="44.14259" lon="5.13907">
        <ele>426.9</ele>
        <time>2022-07-21T10:07:25Z</time>
      </trkpt>
      <trkpt lat="44.14259" lon="5.13905">
        <ele>426.9</ele>
        <time>2022-07-21T10:07:26Z</time>
      </trkpt>
      <trkpt lat="44.14258" lon="5.139">
        <ele>427.1</ele>
        <time>2022-07-21T10:07:27Z</time>
      </trkpt>
      <trkpt lat="44.14257" lon="5.13899">
        <ele>427.1</ele>
        <time>2022-07-21T10:07:28Z</time>
      </trkpt>
      <trkpt lat="44.14256" lon="5.13894">
        <ele>427.3</ele>
        <time>2022-07-21T10:07:29Z</time>
      </trkpt>
      <trkpt lat="44.14256" lon="5.13892">
        <ele>427.3</ele>
        <time>2022-07-21T10:07:30Z</time>
      </trkpt>
      <trkpt lat="44.14255" lon="5.13888">
        <ele>427.5</ele>
        <time>2022-07-21T10:07:31Z</time>
      </trkpt>
      <trkpt lat="44.14254" lon="5.13886">
        <ele>427.6</ele>
        <time>2022-07-21T10:07:32Z</time>
      </trkpt>
      <trkpt lat="44.14253" lon="5.13882">
        <ele>427.8</ele>
        <time>2022-07-21T10:07:33Z</time>
      </trkpt>
      <trkpt lat="44.14253" lon="5.13881">
        <ele>427.8</ele>
        <time>2022-07-21T10:07:34Z</time>
      </trkpt>
      <trkpt lat="44.14251" lon="5.13876">
        <ele>428</ele>
        <time>2022-07-21T10:07:35Z</time>
      </trkpt>
      <trkpt lat="44.14251" lon="5.13875">
        <ele>428.1</ele>
        <time>2022-07-21T10:07:36Z</time>
      </trkpt>
      <trkpt lat="44.14249" lon="5.13871">
        <ele>428.3</ele>
        <time>2022-07-21T10:07:37Z</time>
      </trkpt>
      <trkpt lat="44.14249" lon="5.1387">
        <ele>428.3</ele>
        <time>2022-07-21T10:07:38Z</time>
      </trkpt>
      <trkpt lat="44.14247" lon="5.13866">
        <ele>428.5</ele>
        <time>2022-07-21T10:07:39Z</time>
      </trkpt>
      <trkpt lat="44.14247" lon="5.13864">
        <ele>428.6</ele>
        <time>2022-07-21T10:07:40Z</time>
      </trkpt>
      <trkpt lat="44.14245" lon="5.1386">
        <ele>428.8</ele>
        <time>2022-07-21T10:07:41Z</time>
      </trkpt>
      <trkpt lat="44.14245" lon="5.13859">
        <ele>428.8</ele>
        <time>2022-07-21T10:07:42Z</time>
      </trkpt>
      <trkpt lat="44.14243" lon="5.13856">
        <ele>429</ele>
        <time>2022-07-21T10:07:43Z</time>
      </trkpt>
      <trkpt lat="44.14243" lon="5.13854">
        <ele>429.1</ele>
        <time>2022-07-21T10:07:44Z</time>
      </trkpt>
      <trkpt lat="44.14241" lon="5.13851">
        <ele>429.3</ele>
        <time>2022-07-21T10:07:45Z</time>
      </trkpt>
      <trkpt lat="44.1424" lon="5.13851">
        <ele>429.3</ele>
        <time>2022-07-21T10:07:46Z</time>
      </trkpt>
      <trkpt lat="44.14238" lon="5.13848">
        <ele>429.5</ele>
        <time>2022-07-21T10:07:47Z</time>
      </trkpt>
      <trkpt lat="44.14237" lon="5.13847">
        <ele>429.5</ele>
        <time>2022-07-21T10:07:48Z</time>
      </trkpt>
      <trkpt lat="44.14234" lon="5.13845">
        <ele>429.7</ele>
        <time>2022-07-21T10:07:49Z</time>
      </trkpt>
      <trkpt lat="44.14233" lon="5.13844">
        <ele>429.8</ele>
        <time>2022-07-21T10:07:50Z</time>
      </trkpt>
      <trkpt lat="44.14231" lon="5.13842">
        <ele>429.9</ele>
        <time>2022-07-21T10:07:51Z</time>
      </trkpt>
      <trkpt lat="44.1423" lon="5.13842">
        <ele>430</ele>
        <time>2022-07-21T10:07:52Z</time>
      </trkpt>
      <trkpt lat="44.14227" lon="5.13841">
        <ele>430.1</ele>
        <time>2022-07-21T10:07:53Z</time>
      </trkpt>
      <trkpt lat="44.14226" lon="5.13841">
        <ele>430.2</ele>
        <time>2022-07-21T10:07:54Z</time>
      </trkpt>
      <trkpt lat="44.14223" lon="5.1384">
        <ele>430.3</ele>
        <time>2022-07-21T10:07:55Z</time>
      </trkpt>
      <trkpt lat="44.14222" lon="5.1384">
        <ele>430.4</ele>
        <time>2022-07-21T10:07:56Z</time>
      </trkpt>
      <trkpt lat="44.14218" lon="5.1384">
        <ele>430.6</ele>
        <time>2022-07-21T10:07:57Z</time>
      </trkpt>
      <trkpt lat="44.14217" lon="5.1384">
        <ele>430.6</ele>
        <time>2022-07-21T10:07:58Z</time>
      </trkpt>
      <trkpt lat="44.14213" lon="5.1384">
        <ele>430.8</ele>
        <time>2022-07-21T10:07:59Z</time>
      </trkpt>
      <trkpt lat="44.14212" lon="5.1384">
        <ele>430.9</ele>
        <time>2022-07-21T10:08:00Z</time>
      </trkpt>
      <trkpt lat="44.14208" lon="5.13841">
        <ele>431.1</ele>
        <time>2022-07-21T10:08:01Z</time>
      </trkpt>
      <trkpt lat="44.14207" lon="5.13841">
        <ele>431.1</ele>
        <time>2022-07-21T10:08:02Z</time>
      </trkpt>
      <trkpt lat="44.14204" lon="5.13842">
        <ele>431.3</ele>
        <time>2022-07-21T10:08:03Z</time>
      </trkpt>
      <trkpt lat="44.14203" lon="5.13842">
        <ele>431.3</ele>
        <time>2022-07-21T10:08:04Z</time>
      </trkpt>
      <trkpt lat="44.14201" lon="5.13843">
        <ele>431.5</ele>
        <time>2022-07-21T10:08:05Z</time>
      </trkpt>
      <trkpt lat="44.142" lon="5.13843">
        <ele>431.5</ele>
        <time>2022-07-21T10:08:06Z</time>
      </trkpt>
      <trkpt lat="44.14197" lon="5.13844">
        <ele>431.7</ele>
        <time>2022-07-21T10:08:07Z</time>
      </trkpt>
      <trkpt lat="44.14196" lon="5.13845">
        <ele>431.8</ele>
        <time>2022-07-21T10:08:08Z</time>
      </trkpt>
      <trkpt lat="44.14192" lon="5.13846">
        <ele>431.9</ele>
        <time>2022-07-21T10:08:09Z</time>
      </trkpt>
      <trkpt lat="44.14191" lon="5.13846">
        <ele>432</ele>
        <time>2022-07-21T10:08:10Z</time>
      </trkpt>
      <trkpt lat="44.14188" lon="5.13848">
        <ele>432.2</ele>
        <time>2022-07-21T10:08:11Z</time>
      </trkpt>
      <trkpt lat="44.14187" lon="5.13848">
        <ele>432.2</ele>
        <time>2022-07-21T10:08:12Z</time>
      </trkpt>
      <trkpt lat="44.14183" lon="5.1385">
        <ele>432.4</ele>
        <time>2022-07-21T10:08:13Z</time>
      </trkpt>
      <trkpt lat="44.14182" lon="5.1385">
        <ele>432.5</ele>
        <time>2022-07-21T10:08:14Z</time>
      </trkpt>
      <trkpt lat="44.14179" lon="5.13851">
        <ele>432.7</ele>
        <time>2022-07-21T10:08:15Z</time>
      </trkpt>
      <trkpt lat="44.14178" lon="5.13851">
        <ele>432.7</ele>
        <time>2022-07-21T10:08:16Z</time>
      </trkpt>
      <trkpt lat="44.14175" lon="5.13852">
        <ele>432.9</ele>
        <time>2022-07-21T10:08:17Z</time>
      </trkpt>
      <trkpt lat="44.14174" lon="5.13852">
        <ele>433</ele>
        <time>2022-07-21T10:08:18Z</time>
      </trkpt>
      <trkpt lat="44.14171" lon="5.13853">
        <ele>433.1</ele>
        <time>2022-07-21T10:08:19Z</time>
      </trkpt>
      <trkpt lat="44.1417" lon="5.13853">
        <ele>433.2</ele>
        <time>2022-07-21T10:08:20Z</time>
      </trkpt>
      <trkpt lat="44.14166" lon="5.13852">
        <ele>433.3</ele>
        <time>2022-07-21T10:08:21Z</time>
      </trkpt>
      <trkpt lat="44.14165" lon="5.13852">
        <ele>433.4</ele>
        <time>2022-07-21T10:08:22Z</time>
      </trkpt>
      <trkpt lat="44.14161" lon="5.13851">
        <ele>433.6</ele>
        <time>2022-07-21T10:08:23Z</time>
      </trkpt>
      <trkpt lat="44.1416" lon="5.1385">
        <ele>433.6</ele>
        <time>2022-07-21T10:08:24Z</time>
      </trkpt>
      <trkpt lat="44.14157" lon="5.13847">
        <ele>433.8</ele>
        <time>2022-07-21T10:08:25Z</time>
      </trkpt>
      <trkpt lat="44.14156" lon="5.13846">
        <ele>433.8</ele>
        <time>2022-07-21T10:08:26Z</time>
      </trkpt>
      <trkpt lat="44.14153" lon="5.13842">
        <ele>433.9</ele>
        <time>2022-07-21T10:08:27Z</time>
      </trkpt>
      <trkpt lat="44.14152" lon="5.13841">
        <ele>434</ele>
        <time>2022-07-21T10:08:28Z</time>
      </trkpt>
      <trkpt lat="44.1415" lon="5.13836">
        <ele>434.1</ele>
        <time>2022-07-21T10:08:29Z</time>
      </trkpt>
      <trkpt lat="44.14149" lon="5.13835">
        <ele>434.1</ele>
        <time>2022-07-21T10:08:30Z</time>
      </trkpt>
      <trkpt lat="44.14147" lon="5.1383">
        <ele>434.2</ele>
        <time>2022-07-21T10:08:31Z</time>
      </trkpt>
      <trkpt lat="44.14146" lon="5.13828">
        <ele>434.2</ele>
        <time>2022-07-21T10:08:32Z</time>
      </trkpt>
      <trkpt lat="44.14145" lon="5.13823">
        <ele>434.3</ele>
        <time>2022-07-21T10:08:33Z</time>
      </trkpt>
      <trkpt lat="44.14145" lon="5.13821">
        <ele>434.3</ele>
        <time>2022-07-21T10:08:34Z</time>
      </trkpt>
      <trkpt lat="44.14145" lon="5.13815">
        <ele>434.4</ele>
        <time>2022-07-21T10:08:35Z</time>
      </trkpt>
      <trkpt lat="44.14144" lon="5.13813">
        <ele>434.4</ele>
        <time>2022-07-21T10:08:36Z</time>
      </trkpt>
      <trkpt lat="44.14145" lon="5.13808">
        <ele>434.4</ele>
        <time>2022-07-21T10:08:37Z</time>
      </trkpt>
      <trkpt lat="44.14145" lon="5.13806">
        <ele>434.4</ele>
        <time>2022-07-21T10:08:38Z</time>
      </trkpt>
      <trkpt lat="44.14145" lon="5.13802">
        <ele>434.5</ele>
        <time>2022-07-21T10:08:39Z</time>
      </trkpt>
      <trkpt lat="44.14146" lon="5.13798">
        <ele>434.5</ele>
        <time>2022-07-21T10:08:40Z</time>
      </trkpt>
      <trkpt lat="44.14147" lon="5.13794">
        <ele>434.5</ele>
        <time>2022-07-21T10:08:41Z</time>
      </trkpt>
      <trkpt lat="44.14148" lon="5.1379">
        <ele>434.6</ele>
        <time>2022-07-21T10:08:42Z</time>
      </trkpt>
      <trkpt lat="44.14149" lon="5.13786">
        <ele>434.6</ele>
        <time>2022-07-21T10:08:43Z</time>
      </trkpt>
      <trkpt lat="44.14151" lon="5.13782">
        <ele>434.6</ele>
        <time>2022-07-21T10:08:44Z</time>
      </trkpt>
      <trkpt lat="44.14152" lon="5.13778">
        <ele>434.7</ele>
        <time>2022-07-21T10:08:45Z</time>
      </trkpt>
      <trkpt lat="44.14154" lon="5.13774">
        <ele>434.7</ele>
        <time>2022-07-21T10:08:46Z</time>
      </trkpt>
      <trkpt lat="44.14156" lon="5.1377">
        <ele>434.7</ele>
        <time>2022-07-21T10:08:47Z</time>
      </trkpt>
      <trkpt lat="44.14158" lon="5.13766">
        <ele>434.7</ele>
        <time>2022-07-21T10:08:48Z</time>
      </trkpt>
      <trkpt lat="44.1416" lon="5.13763">
        <ele>434.7</ele>
        <time>2022-07-21T10:08:49Z</time>
      </trkpt>
      <trkpt lat="44.14162" lon="5.13759">
        <ele>434.7</ele>
        <time>2022-07-21T10:08:50Z</time>
      </trkpt>
      <trkpt lat="44.14164" lon="5.13755">
        <ele>434.8</ele>
        <time>2022-07-21T10:08:51Z</time>
      </trkpt>
      <trkpt lat="44.14166" lon="5.13751">
        <ele>434.8</ele>
        <time>2022-07-21T10:08:52Z</time>
      </trkpt>
      <trkpt lat="44.14168" lon="5.13747">
        <ele>434.8</ele>
        <time>2022-07-21T10:08:53Z</time>
      </trkpt>
      <trkpt lat="44.1417" lon="5.13743">
        <ele>434.8</ele>
        <time>2022-07-21T10:08:54Z</time>
      </trkpt>
      <trkpt lat="44.14172" lon="5.13739">
        <ele>434.9</ele>
        <time>2022-07-21T10:08:55Z</time>
      </trkpt>
      <trkpt lat="44.14174" lon="5.13735">
        <ele>434.9</ele>
        <time>2022-07-21T10:08:56Z</time>
      </trkpt>
      <trkpt lat="44.14176" lon="5.13731">
        <ele>434.9</ele>
        <time>2022-07-21T10:08:57Z</time>
      </trkpt>
      <trkpt lat="44.14178" lon="5.13727">
        <ele>434.9</ele>
        <time>2022-07-21T10:08:58Z</time>
      </trkpt>
      <trkpt lat="44.14181" lon="5.13722">
        <ele>435</ele>
        <time>2022-07-21T10:08:59Z</time>
      </trkpt>
      <trkpt lat="44.14183" lon="5.13718">
        <ele>435</ele>
        <time>2022-07-21T10:09:00Z</time>
      </trkpt>
      <trkpt lat="44.14185" lon="5.13714">
        <ele>435</ele>
        <time>2022-07-21T10:09:01Z</time>
      </trkpt>
      <trkpt lat="44.14187" lon="5.1371">
        <ele>435</ele>
        <time>2022-07-21T10:09:02Z</time>
      </trkpt>
      <trkpt lat="44.14189" lon="5.13706">
        <ele>435.1</ele>
        <time>2022-07-21T10:09:03Z</time>
      </trkpt>
      <trkpt lat="44.14191" lon="5.13701">
        <ele>435.1</ele>
        <time>2022-07-21T10:09:04Z</time>
      </trkpt>
      <trkpt lat="44.14194" lon="5.13697">
        <ele>435.2</ele>
        <time>2022-07-21T10:09:05Z</time>
      </trkpt>
      <trkpt lat="44.14196" lon="5.13693">
        <ele>435.2</ele>
        <time>2022-07-21T10:09:06Z</time>
      </trkpt>
      <trkpt lat="44.14198" lon="5.13689">
        <ele>435.2</ele>
        <time>2022-07-21T10:09:07Z</time>
      </trkpt>
      <trkpt lat="44.142" lon="5.13685">
        <ele>435.2</ele>
        <time>2022-07-21T10:09:08Z</time>
      </trkpt>
      <trkpt lat="44.14203" lon="5.13681">
        <ele>435.3</ele>
        <time>2022-07-21T10:09:09Z</time>
      </trkpt>
      <trkpt lat="44.14205" lon="5.13677">
        <ele>435.3</ele>
        <time>2022-07-21T10:09:10Z</time>
      </trkpt>
      <trkpt lat="44.14207" lon="5.13672">
        <ele>435.3</ele>
        <time>2022-07-21T10:09:11Z</time>
      </trkpt>
      <trkpt lat="44.1421" lon="5.13668">
        <ele>435.3</ele>
        <time>2022-07-21T10:09:12Z</time>
      </trkpt>
      <trkpt lat="44.14212" lon="5.13664">
        <ele>435.3</ele>
        <time>2022-07-21T10:09:13Z</time>
      </trkpt>
      <trkpt lat="44.14215" lon="5.13659">
        <ele>435.3</ele>
        <time>2022-07-21T10:09:14Z</time>
      </trkpt>
      <trkpt lat="44.14217" lon="5.13655">
        <ele>435.3</ele>
        <time>2022-07-21T10:09:15Z</time>
      </trkpt>
      <trkpt lat="44.14219" lon="5.13651">
        <ele>435.3</ele>
        <time>2022-07-21T10:09:16Z</time>
      </trkpt>
      <trkpt lat="44.14221" lon="5.13646">
        <ele>435.3</ele>
        <time>2022-07-21T10:09:17Z</time>
      </trkpt>
      <trkpt lat="44.14222" lon="5.13641">
        <ele>435.3</ele>
        <time>2022-07-21T10:09:18Z</time>
      </trkpt>
      <trkpt lat="44.14223" lon="5.13635">
        <ele>435.4</ele>
        <time>2022-07-21T10:09:19Z</time>
      </trkpt>
      <trkpt lat="44.14222" lon="5.13629">
        <ele>435.4</ele>
        <time>2022-07-21T10:09:20Z</time>
      </trkpt>
      <trkpt lat="44.14221" lon="5.13624">
        <ele>435.4</ele>
        <time>2022-07-21T10:09:21Z</time>
      </trkpt>
      <trkpt lat="44.14219" lon="5.13619">
        <ele>435.4</ele>
        <time>2022-07-21T10:09:23Z</time>
      </trkpt>
      <trkpt lat="44.14216" lon="5.13614">
        <ele>435.4</ele>
        <time>2022-07-21T10:09:24Z</time>
      </trkpt>
      <trkpt lat="44.14212" lon="5.13611">
        <ele>435.4</ele>
        <time>2022-07-21T10:09:25Z</time>
      </trkpt>
      <trkpt lat="44.14208" lon="5.13608">
        <ele>435.4</ele>
        <time>2022-07-21T10:09:26Z</time>
      </trkpt>
      <trkpt lat="44.14203" lon="5.13607">
        <ele>435.3</ele>
        <time>2022-07-21T10:09:27Z</time>
      </trkpt>
      <trkpt lat="44.14199" lon="5.13606">
        <ele>435.3</ele>
        <time>2022-07-21T10:09:28Z</time>
      </trkpt>
      <trkpt lat="44.14194" lon="5.13606">
        <ele>435.3</ele>
        <time>2022-07-21T10:09:29Z</time>
      </trkpt>
      <trkpt lat="44.14189" lon="5.13605">
        <ele>435.3</ele>
        <time>2022-07-21T10:09:30Z</time>
      </trkpt>
      <trkpt lat="44.14185" lon="5.13604">
        <ele>435.4</ele>
        <time>2022-07-21T10:09:31Z</time>
      </trkpt>
      <trkpt lat="44.1418" lon="5.13604">
        <ele>435.4</ele>
        <time>2022-07-21T10:09:32Z</time>
      </trkpt>
      <trkpt lat="44.14176" lon="5.13602">
        <ele>435.4</ele>
        <time>2022-07-21T10:09:33Z</time>
      </trkpt>
      <trkpt lat="44.14173" lon="5.13601">
        <ele>435.4</ele>
        <time>2022-07-21T10:09:34Z</time>
      </trkpt>
      <trkpt lat="44.14169" lon="5.13599">
        <ele>435.5</ele>
        <time>2022-07-21T10:09:35Z</time>
      </trkpt>
      <trkpt lat="44.14165" lon="5.13597">
        <ele>435.5</ele>
        <time>2022-07-21T10:09:36Z</time>
      </trkpt>
      <trkpt lat="44.14161" lon="5.13594">
        <ele>435.5</ele>
        <time>2022-07-21T10:09:37Z</time>
      </trkpt>
      <trkpt lat="44.14157" lon="5.13591">
        <ele>435.6</ele>
        <time>2022-07-21T10:09:38Z</time>
      </trkpt>
      <trkpt lat="44.14153" lon="5.13588">
        <ele>435.6</ele>
        <time>2022-07-21T10:09:39Z</time>
      </trkpt>
      <trkpt lat="44.14149" lon="5.13585">
        <ele>435.7</ele>
        <time>2022-07-21T10:09:40Z</time>
      </trkpt>
      <trkpt lat="44.14145" lon="5.13582">
        <ele>435.8</ele>
        <time>2022-07-21T10:09:41Z</time>
      </trkpt>
      <trkpt lat="44.14142" lon="5.13578">
        <ele>435.9</ele>
        <time>2022-07-21T10:09:42Z</time>
      </trkpt>
      <trkpt lat="44.14138" lon="5.13575">
        <ele>436</ele>
        <time>2022-07-21T10:09:43Z</time>
      </trkpt>
      <trkpt lat="44.14135" lon="5.13572">
        <ele>436</ele>
        <time>2022-07-21T10:09:44Z</time>
      </trkpt>
      <trkpt lat="44.14132" lon="5.13569">
        <ele>436.1</ele>
        <time>2022-07-21T10:09:45Z</time>
      </trkpt>
      <trkpt lat="44.14129" lon="5.13565">
        <ele>436.2</ele>
        <time>2022-07-21T10:09:46Z</time>
      </trkpt>
      <trkpt lat="44.14126" lon="5.13562">
        <ele>436.3</ele>
        <time>2022-07-21T10:09:47Z</time>
      </trkpt>
      <trkpt lat="44.14123" lon="5.13558">
        <ele>436.4</ele>
        <time>2022-07-21T10:09:48Z</time>
      </trkpt>
      <trkpt lat="44.14121" lon="5.13555">
        <ele>436.5</ele>
        <time>2022-07-21T10:09:49Z</time>
      </trkpt>
      <trkpt lat="44.14118" lon="5.13552">
        <ele>436.6</ele>
        <time>2022-07-21T10:09:50Z</time>
      </trkpt>
      <trkpt lat="44.14115" lon="5.13549">
        <ele>436.7</ele>
        <time>2022-07-21T10:09:51Z</time>
      </trkpt>
      <trkpt lat="44.14113" lon="5.13547">
        <ele>436.8</ele>
        <time>2022-07-21T10:09:52Z</time>
      </trkpt>
      <trkpt lat="44.1411" lon="5.13544">
        <ele>436.9</ele>
        <time>2022-07-21T10:09:53Z</time>
      </trkpt>
      <trkpt lat="44.14108" lon="5.13541">
        <ele>437.1</ele>
        <time>2022-07-21T10:09:54Z</time>
      </trkpt>
      <trkpt lat="44.14105" lon="5.13538">
        <ele>437.2</ele>
        <time>2022-07-21T10:09:55Z</time>
      </trkpt>
      <trkpt lat="44.14103" lon="5.13535">
        <ele>437.3</ele>
        <time>2022-07-21T10:09:56Z</time>
      </trkpt>
      <trkpt lat="44.141" lon="5.13532">
        <ele>437.4</ele>
        <time>2022-07-21T10:09:57Z</time>
      </trkpt>
      <trkpt lat="44.14098" lon="5.13528">
        <ele>437.5</ele>
        <time>2022-07-21T10:09:58Z</time>
      </trkpt>
      <trkpt lat="44.14096" lon="5.13525">
        <ele>437.6</ele>
        <time>2022-07-21T10:09:59Z</time>
      </trkpt>
      <trkpt lat="44.14094" lon="5.13521">
        <ele>437.8</ele>
        <time>2022-07-21T10:10:00Z</time>
      </trkpt>
      <trkpt lat="44.14092" lon="5.13518">
        <ele>437.9</ele>
        <time>2022-07-21T10:10:01Z</time>
      </trkpt>
      <trkpt lat="44.14091" lon="5.13515">
        <ele>438</ele>
        <time>2022-07-21T10:10:02Z</time>
      </trkpt>
      <trkpt lat="44.14089" lon="5.13511">
        <ele>438.1</ele>
        <time>2022-07-21T10:10:03Z</time>
      </trkpt>
      <trkpt lat="44.14088" lon="5.13507">
        <ele>438.2</ele>
        <time>2022-07-21T10:10:04Z</time>
      </trkpt>
      <trkpt lat="44.14086" lon="5.13504">
        <ele>438.4</ele>
        <time>2022-07-21T10:10:05Z</time>
      </trkpt>
      <trkpt lat="44.14085" lon="5.13501">
        <ele>438.5</ele>
        <time>2022-07-21T10:10:06Z</time>
      </trkpt>
      <trkpt lat="44.14084" lon="5.13497">
        <ele>438.6</ele>
        <time>2022-07-21T10:10:07Z</time>
      </trkpt>
      <trkpt lat="44.14083" lon="5.13493">
        <ele>438.7</ele>
        <time>2022-07-21T10:10:08Z</time>
      </trkpt>
      <trkpt lat="44.14082" lon="5.1349">
        <ele>438.9</ele>
        <time>2022-07-21T10:10:09Z</time>
      </trkpt>
      <trkpt lat="44.14081" lon="5.13486">
        <ele>439</ele>
        <time>2022-07-21T10:10:10Z</time>
      </trkpt>
      <trkpt lat="44.14081" lon="5.13481">
        <ele>439.2</ele>
        <time>2022-07-21T10:10:11Z</time>
      </trkpt>
      <trkpt lat="44.1408" lon="5.13479">
        <ele>439.2</ele>
        <time>2022-07-21T10:10:12Z</time>
      </trkpt>
      <trkpt lat="44.1408" lon="5.13474">
        <ele>439.4</ele>
        <time>2022-07-21T10:10:13Z</time>
      </trkpt>
      <trkpt lat="44.1408" lon="5.13472">
        <ele>439.5</ele>
        <time>2022-07-21T10:10:14Z</time>
      </trkpt>
      <trkpt lat="44.14079" lon="5.13467">
        <ele>439.7</ele>
        <time>2022-07-21T10:10:15Z</time>
      </trkpt>
      <trkpt lat="44.14079" lon="5.13465">
        <ele>439.8</ele>
        <time>2022-07-21T10:10:16Z</time>
      </trkpt>
      <trkpt lat="44.14079" lon="5.1346">
        <ele>439.9</ele>
        <time>2022-07-21T10:10:17Z</time>
      </trkpt>
      <trkpt lat="44.14079" lon="5.13458">
        <ele>440</ele>
        <time>2022-07-21T10:10:18Z</time>
      </trkpt>
      <trkpt lat="44.14079" lon="5.13453">
        <ele>440.2</ele>
        <time>2022-07-21T10:10:19Z</time>
      </trkpt>
      <trkpt lat="44.1408" lon="5.13452">
        <ele>440.3</ele>
        <time>2022-07-21T10:10:20Z</time>
      </trkpt>
      <trkpt lat="44.1408" lon="5.13447">
        <ele>440.4</ele>
        <time>2022-07-21T10:10:21Z</time>
      </trkpt>
      <trkpt lat="44.1408" lon="5.13446">
        <ele>440.5</ele>
        <time>2022-07-21T10:10:22Z</time>
      </trkpt>
      <trkpt lat="44.14081" lon="5.13441">
        <ele>440.7</ele>
        <time>2022-07-21T10:10:23Z</time>
      </trkpt>
      <trkpt lat="44.14081" lon="5.13439">
        <ele>440.7</ele>
        <time>2022-07-21T10:10:24Z</time>
      </trkpt>
      <trkpt lat="44.14083" lon="5.13435">
        <ele>440.9</ele>
        <time>2022-07-21T10:10:25Z</time>
      </trkpt>
      <trkpt lat="44.14083" lon="5.13433">
        <ele>441</ele>
        <time>2022-07-21T10:10:26Z</time>
      </trkpt>
      <trkpt lat="44.14084" lon="5.13429">
        <ele>441.2</ele>
        <time>2022-07-21T10:10:27Z</time>
      </trkpt>
      <trkpt lat="44.14085" lon="5.13428">
        <ele>441.2</ele>
        <time>2022-07-21T10:10:28Z</time>
      </trkpt>
      <trkpt lat="44.14086" lon="5.13424">
        <ele>441.4</ele>
        <time>2022-07-21T10:10:29Z</time>
      </trkpt>
      <trkpt lat="44.14087" lon="5.13422">
        <ele>441.5</ele>
        <time>2022-07-21T10:10:30Z</time>
      </trkpt>
      <trkpt lat="44.14088" lon="5.13418">
        <ele>441.7</ele>
        <time>2022-07-21T10:10:31Z</time>
      </trkpt>
      <trkpt lat="44.14089" lon="5.13417">
        <ele>441.8</ele>
        <time>2022-07-21T10:10:32Z</time>
      </trkpt>
      <trkpt lat="44.1409" lon="5.13412">
        <ele>442</ele>
        <time>2022-07-21T10:10:33Z</time>
      </trkpt>
      <trkpt lat="44.14091" lon="5.13411">
        <ele>442.1</ele>
        <time>2022-07-21T10:10:34Z</time>
      </trkpt>
      <trkpt lat="44.14092" lon="5.13406">
        <ele>442.3</ele>
        <time>2022-07-21T10:10:35Z</time>
      </trkpt>
      <trkpt lat="44.14093" lon="5.13405">
        <ele>442.3</ele>
        <time>2022-07-21T10:10:36Z</time>
      </trkpt>
      <trkpt lat="44.14095" lon="5.13401">
        <ele>442.5</ele>
        <time>2022-07-21T10:10:37Z</time>
      </trkpt>
      <trkpt lat="44.14095" lon="5.134">
        <ele>442.6</ele>
        <time>2022-07-21T10:10:38Z</time>
      </trkpt>
      <trkpt lat="44.14097" lon="5.13396">
        <ele>442.7</ele>
        <time>2022-07-21T10:10:39Z</time>
      </trkpt>
      <trkpt lat="44.14097" lon="5.13395">
        <ele>442.8</ele>
        <time>2022-07-21T10:10:40Z</time>
      </trkpt>
      <trkpt lat="44.14099" lon="5.1339">
        <ele>443</ele>
        <time>2022-07-21T10:10:41Z</time>
      </trkpt>
      <trkpt lat="44.14099" lon="5.13389">
        <ele>443</ele>
        <time>2022-07-21T10:10:42Z</time>
      </trkpt>
      <trkpt lat="44.141" lon="5.13384">
        <ele>443.2</ele>
        <time>2022-07-21T10:10:43Z</time>
      </trkpt>
      <trkpt lat="44.141" lon="5.13382">
        <ele>443.3</ele>
        <time>2022-07-21T10:10:44Z</time>
      </trkpt>
      <trkpt lat="44.14101" lon="5.13377">
        <ele>443.5</ele>
        <time>2022-07-21T10:10:45Z</time>
      </trkpt>
      <trkpt lat="44.14101" lon="5.13376">
        <ele>443.5</ele>
        <time>2022-07-21T10:10:46Z</time>
      </trkpt>
      <trkpt lat="44.14101" lon="5.13371">
        <ele>443.7</ele>
        <time>2022-07-21T10:10:47Z</time>
      </trkpt>
      <trkpt lat="44.14101" lon="5.13369">
        <ele>443.8</ele>
        <time>2022-07-21T10:10:48Z</time>
      </trkpt>
      <trkpt lat="44.14101" lon="5.13364">
        <ele>444</ele>
        <time>2022-07-21T10:10:49Z</time>
      </trkpt>
      <trkpt lat="44.141" lon="5.13362">
        <ele>444</ele>
        <time>2022-07-21T10:10:50Z</time>
      </trkpt>
      <trkpt lat="44.14099" lon="5.13357">
        <ele>444.2</ele>
        <time>2022-07-21T10:10:51Z</time>
      </trkpt>
      <trkpt lat="44.14099" lon="5.13355">
        <ele>444.3</ele>
        <time>2022-07-21T10:10:52Z</time>
      </trkpt>
      <trkpt lat="44.14097" lon="5.1335">
        <ele>444.5</ele>
        <time>2022-07-21T10:10:53Z</time>
      </trkpt>
      <trkpt lat="44.14097" lon="5.13349">
        <ele>444.6</ele>
        <time>2022-07-21T10:10:54Z</time>
      </trkpt>
      <trkpt lat="44.14096" lon="5.13345">
        <ele>444.7</ele>
        <time>2022-07-21T10:10:55Z</time>
      </trkpt>
      <trkpt lat="44.14095" lon="5.13342">
        <ele>444.8</ele>
        <time>2022-07-21T10:10:56Z</time>
      </trkpt>
      <trkpt lat="44.14094" lon="5.13338">
        <ele>444.9</ele>
        <time>2022-07-21T10:10:57Z</time>
      </trkpt>
      <trkpt lat="44.14092" lon="5.13334">
        <ele>445.1</ele>
        <time>2022-07-21T10:10:58Z</time>
      </trkpt>
      <trkpt lat="44.14091" lon="5.13333">
        <ele>445.2</ele>
        <time>2022-07-21T10:10:59Z</time>
      </trkpt>
      <trkpt lat="44.14089" lon="5.13329">
        <ele>445.3</ele>
        <time>2022-07-21T10:11:00Z</time>
      </trkpt>
      <trkpt lat="44.14089" lon="5.13327">
        <ele>445.4</ele>
        <time>2022-07-21T10:11:01Z</time>
      </trkpt>
      <trkpt lat="44.14087" lon="5.13324">
        <ele>445.6</ele>
        <time>2022-07-21T10:11:02Z</time>
      </trkpt>
      <trkpt lat="44.14086" lon="5.13322">
        <ele>445.6</ele>
        <time>2022-07-21T10:11:03Z</time>
      </trkpt>
      <trkpt lat="44.14084" lon="5.13318">
        <ele>445.7</ele>
        <time>2022-07-21T10:11:04Z</time>
      </trkpt>
      <trkpt lat="44.14083" lon="5.13317">
        <ele>445.8</ele>
        <time>2022-07-21T10:11:05Z</time>
      </trkpt>
      <trkpt lat="44.14081" lon="5.13313">
        <ele>446</ele>
        <time>2022-07-21T10:11:06Z</time>
      </trkpt>
      <trkpt lat="44.1408" lon="5.13311">
        <ele>446</ele>
        <time>2022-07-21T10:11:07Z</time>
      </trkpt>
      <trkpt lat="44.14078" lon="5.13307">
        <ele>446.2</ele>
        <time>2022-07-21T10:11:08Z</time>
      </trkpt>
      <trkpt lat="44.14077" lon="5.13306">
        <ele>446.2</ele>
        <time>2022-07-21T10:11:09Z</time>
      </trkpt>
      <trkpt lat="44.14075" lon="5.13302">
        <ele>446.4</ele>
        <time>2022-07-21T10:11:10Z</time>
      </trkpt>
      <trkpt lat="44.14074" lon="5.13301">
        <ele>446.4</ele>
        <time>2022-07-21T10:11:11Z</time>
      </trkpt>
      <trkpt lat="44.14073" lon="5.13297">
        <ele>446.5</ele>
        <time>2022-07-21T10:11:12Z</time>
      </trkpt>
      <trkpt lat="44.14071" lon="5.13294">
        <ele>446.7</ele>
        <time>2022-07-21T10:11:13Z</time>
      </trkpt>
      <trkpt lat="44.14069" lon="5.1329">
        <ele>446.8</ele>
        <time>2022-07-21T10:11:14Z</time>
      </trkpt>
      <trkpt lat="44.14068" lon="5.13289">
        <ele>446.9</ele>
        <time>2022-07-21T10:11:15Z</time>
      </trkpt>
      <trkpt lat="44.14065" lon="5.13286">
        <ele>447</ele>
        <time>2022-07-21T10:11:16Z</time>
      </trkpt>
      <trkpt lat="44.14065" lon="5.13285">
        <ele>447.1</ele>
        <time>2022-07-21T10:11:17Z</time>
      </trkpt>
      <trkpt lat="44.14062" lon="5.13281">
        <ele>447.2</ele>
        <time>2022-07-21T10:11:18Z</time>
      </trkpt>
      <trkpt lat="44.14061" lon="5.1328">
        <ele>447.3</ele>
        <time>2022-07-21T10:11:19Z</time>
      </trkpt>
      <trkpt lat="44.1406" lon="5.13275">
        <ele>447.5</ele>
        <time>2022-07-21T10:11:20Z</time>
      </trkpt>
      <trkpt lat="44.14059" lon="5.13274">
        <ele>447.5</ele>
        <time>2022-07-21T10:11:21Z</time>
      </trkpt>
      <trkpt lat="44.14058" lon="5.1327">
        <ele>447.7</ele>
        <time>2022-07-21T10:11:22Z</time>
      </trkpt>
      <trkpt lat="44.14058" lon="5.13268">
        <ele>447.7</ele>
        <time>2022-07-21T10:11:23Z</time>
      </trkpt>
      <trkpt lat="44.14058" lon="5.13263">
        <ele>447.9</ele>
        <time>2022-07-21T10:11:24Z</time>
      </trkpt>
      <trkpt lat="44.14058" lon="5.13261">
        <ele>447.9</ele>
        <time>2022-07-21T10:11:25Z</time>
      </trkpt>
      <trkpt lat="44.14059" lon="5.13257">
        <ele>448.1</ele>
        <time>2022-07-21T10:11:26Z</time>
      </trkpt>
      <trkpt lat="44.14059" lon="5.13255">
        <ele>448.1</ele>
        <time>2022-07-21T10:11:27Z</time>
      </trkpt>
      <trkpt lat="44.14061" lon="5.1325">
        <ele>448.2</ele>
        <time>2022-07-21T10:11:28Z</time>
      </trkpt>
      <trkpt lat="44.14062" lon="5.13249">
        <ele>448.3</ele>
        <time>2022-07-21T10:11:29Z</time>
      </trkpt>
      <trkpt lat="44.14064" lon="5.13245">
        <ele>448.4</ele>
        <time>2022-07-21T10:11:30Z</time>
      </trkpt>
      <trkpt lat="44.14065" lon="5.13243">
        <ele>448.5</ele>
        <time>2022-07-21T10:11:31Z</time>
      </trkpt>
      <trkpt lat="44.14066" lon="5.1324">
        <ele>448.5</ele>
        <time>2022-07-21T10:11:32Z</time>
      </trkpt>
      <trkpt lat="44.14069" lon="5.13236">
        <ele>448.7</ele>
        <time>2022-07-21T10:11:33Z</time>
      </trkpt>
      <trkpt lat="44.14069" lon="5.13235">
        <ele>448.7</ele>
        <time>2022-07-21T10:11:34Z</time>
      </trkpt>
      <trkpt lat="44.14072" lon="5.13231">
        <ele>448.8</ele>
        <time>2022-07-21T10:11:35Z</time>
      </trkpt>
      <trkpt lat="44.14072" lon="5.1323">
        <ele>448.9</ele>
        <time>2022-07-21T10:11:36Z</time>
      </trkpt>
      <trkpt lat="44.14074" lon="5.13226">
        <ele>449</ele>
        <time>2022-07-21T10:11:37Z</time>
      </trkpt>
      <trkpt lat="44.14075" lon="5.13225">
        <ele>449</ele>
        <time>2022-07-21T10:11:38Z</time>
      </trkpt>
      <trkpt lat="44.14076" lon="5.13223">
        <ele>449.1</ele>
        <time>2022-07-21T10:11:39Z</time>
      </trkpt>
      <trkpt lat="44.14077" lon="5.13222">
        <ele>449.2</ele>
        <time>2022-07-21T10:11:40Z</time>
      </trkpt>
      <trkpt lat="44.14078" lon="5.13219">
        <ele>449.3</ele>
        <time>2022-07-21T10:11:41Z</time>
      </trkpt>
      <trkpt lat="44.14079" lon="5.13217">
        <ele>449.3</ele>
        <time>2022-07-21T10:11:42Z</time>
      </trkpt>
      <trkpt lat="44.14081" lon="5.13213">
        <ele>449.5</ele>
        <time>2022-07-21T10:11:43Z</time>
      </trkpt>
      <trkpt lat="44.14081" lon="5.13211">
        <ele>449.5</ele>
        <time>2022-07-21T10:11:44Z</time>
      </trkpt>
      <trkpt lat="44.14083" lon="5.13207">
        <ele>449.7</ele>
        <time>2022-07-21T10:11:45Z</time>
      </trkpt>
      <trkpt lat="44.14084" lon="5.13206">
        <ele>449.7</ele>
        <time>2022-07-21T10:11:46Z</time>
      </trkpt>
      <trkpt lat="44.14086" lon="5.13202">
        <ele>449.9</ele>
        <time>2022-07-21T10:11:47Z</time>
      </trkpt>
      <trkpt lat="44.14086" lon="5.13201">
        <ele>449.9</ele>
        <time>2022-07-21T10:11:48Z</time>
      </trkpt>
      <trkpt lat="44.14088" lon="5.13197">
        <ele>450</ele>
        <time>2022-07-21T10:11:49Z</time>
      </trkpt>
      <trkpt lat="44.14089" lon="5.13196">
        <ele>450.1</ele>
        <time>2022-07-21T10:11:50Z</time>
      </trkpt>
      <trkpt lat="44.14091" lon="5.13191">
        <ele>450.2</ele>
        <time>2022-07-21T10:11:51Z</time>
      </trkpt>
      <trkpt lat="44.14091" lon="5.13189">
        <ele>450.3</ele>
        <time>2022-07-21T10:11:52Z</time>
      </trkpt>
      <trkpt lat="44.14093" lon="5.13184">
        <ele>450.5</ele>
        <time>2022-07-21T10:11:53Z</time>
      </trkpt>
      <trkpt lat="44.14093" lon="5.13183">
        <ele>450.5</ele>
        <time>2022-07-21T10:11:54Z</time>
      </trkpt>
      <trkpt lat="44.14095" lon="5.13178">
        <ele>450.7</ele>
        <time>2022-07-21T10:11:55Z</time>
      </trkpt>
      <trkpt lat="44.14095" lon="5.13177">
        <ele>450.7</ele>
        <time>2022-07-21T10:11:56Z</time>
      </trkpt>
      <trkpt lat="44.14097" lon="5.13172">
        <ele>450.9</ele>
        <time>2022-07-21T10:11:57Z</time>
      </trkpt>
      <trkpt lat="44.14097" lon="5.1317">
        <ele>450.9</ele>
        <time>2022-07-21T10:11:58Z</time>
      </trkpt>
      <trkpt lat="44.14098" lon="5.13166">
        <ele>451</ele>
        <time>2022-07-21T10:11:59Z</time>
      </trkpt>
      <trkpt lat="44.14098" lon="5.13162">
        <ele>451.2</ele>
        <time>2022-07-21T10:12:00Z</time>
      </trkpt>
      <trkpt lat="44.14099" lon="5.13161">
        <ele>451.2</ele>
        <time>2022-07-21T10:12:01Z</time>
      </trkpt>
      <trkpt lat="44.14099" lon="5.13156">
        <ele>451.4</ele>
        <time>2022-07-21T10:12:02Z</time>
      </trkpt>
      <trkpt lat="44.141" lon="5.13154">
        <ele>451.4</ele>
        <time>2022-07-21T10:12:03Z</time>
      </trkpt>
      <trkpt lat="44.14101" lon="5.1315">
        <ele>451.6</ele>
        <time>2022-07-21T10:12:04Z</time>
      </trkpt>
      <trkpt lat="44.14101" lon="5.13149">
        <ele>451.6</ele>
        <time>2022-07-21T10:12:05Z</time>
      </trkpt>
      <trkpt lat="44.14103" lon="5.13145">
        <ele>451.7</ele>
        <time>2022-07-21T10:12:06Z</time>
      </trkpt>
      <trkpt lat="44.14103" lon="5.13143">
        <ele>451.8</ele>
        <time>2022-07-21T10:12:07Z</time>
      </trkpt>
      <trkpt lat="44.14104" lon="5.13138">
        <ele>452</ele>
        <time>2022-07-21T10:12:08Z</time>
      </trkpt>
      <trkpt lat="44.14104" lon="5.13137">
        <ele>452</ele>
        <time>2022-07-21T10:12:09Z</time>
      </trkpt>
      <trkpt lat="44.14105" lon="5.13133">
        <ele>452.1</ele>
        <time>2022-07-21T10:12:10Z</time>
      </trkpt>
      <trkpt lat="44.14105" lon="5.13128">
        <ele>452.3</ele>
        <time>2022-07-21T10:12:11Z</time>
      </trkpt>
      <trkpt lat="44.14105" lon="5.13124">
        <ele>452.4</ele>
        <time>2022-07-21T10:12:12Z</time>
      </trkpt>
      <trkpt lat="44.14105" lon="5.1312">
        <ele>452.5</ele>
        <time>2022-07-21T10:12:13Z</time>
      </trkpt>
      <trkpt lat="44.14106" lon="5.13116">
        <ele>452.7</ele>
        <time>2022-07-21T10:12:14Z</time>
      </trkpt>
      <trkpt lat="44.14106" lon="5.13112">
        <ele>452.8</ele>
        <time>2022-07-21T10:12:15Z</time>
      </trkpt>
      <trkpt lat="44.14107" lon="5.13108">
        <ele>452.9</ele>
        <time>2022-07-21T10:12:16Z</time>
      </trkpt>
      <trkpt lat="44.14107" lon="5.13106">
        <ele>453</ele>
        <time>2022-07-21T10:12:17Z</time>
      </trkpt>
      <trkpt lat="44.14108" lon="5.13101">
        <ele>453.1</ele>
        <time>2022-07-21T10:12:18Z</time>
      </trkpt>
      <trkpt lat="44.14108" lon="5.131">
        <ele>453.2</ele>
        <time>2022-07-21T10:12:19Z</time>
      </trkpt>
      <trkpt lat="44.14109" lon="5.13095">
        <ele>453.3</ele>
        <time>2022-07-21T10:12:20Z</time>
      </trkpt>
      <trkpt lat="44.14109" lon="5.13093">
        <ele>453.4</ele>
        <time>2022-07-21T10:12:21Z</time>
      </trkpt>
      <trkpt lat="44.14109" lon="5.1309">
        <ele>453.5</ele>
        <time>2022-07-21T10:12:22Z</time>
      </trkpt>
      <trkpt lat="44.14109" lon="5.13086">
        <ele>453.6</ele>
        <time>2022-07-21T10:12:23Z</time>
      </trkpt>
      <trkpt lat="44.1411" lon="5.13081">
        <ele>453.7</ele>
        <time>2022-07-21T10:12:24Z</time>
      </trkpt>
      <trkpt lat="44.1411" lon="5.13076">
        <ele>453.8</ele>
        <time>2022-07-21T10:12:25Z</time>
      </trkpt>
      <trkpt lat="44.1411" lon="5.13074">
        <ele>453.9</ele>
        <time>2022-07-21T10:12:26Z</time>
      </trkpt>
      <trkpt lat="44.1411" lon="5.13069">
        <ele>454</ele>
        <time>2022-07-21T10:12:27Z</time>
      </trkpt>
      <trkpt lat="44.14111" lon="5.13067">
        <ele>454</ele>
        <time>2022-07-21T10:12:28Z</time>
      </trkpt>
      <trkpt lat="44.14111" lon="5.13062">
        <ele>454.2</ele>
        <time>2022-07-21T10:12:29Z</time>
      </trkpt>
      <trkpt lat="44.14111" lon="5.1306">
        <ele>454.2</ele>
        <time>2022-07-21T10:12:30Z</time>
      </trkpt>
      <trkpt lat="44.14112" lon="5.13055">
        <ele>454.3</ele>
        <time>2022-07-21T10:12:31Z</time>
      </trkpt>
      <trkpt lat="44.14112" lon="5.13053">
        <ele>454.4</ele>
        <time>2022-07-21T10:12:32Z</time>
      </trkpt>
      <trkpt lat="44.14111" lon="5.13049">
        <ele>454.5</ele>
        <time>2022-07-21T10:12:33Z</time>
      </trkpt>
      <trkpt lat="44.14111" lon="5.13045">
        <ele>454.6</ele>
        <time>2022-07-21T10:12:34Z</time>
      </trkpt>
      <trkpt lat="44.1411" lon="5.13041">
        <ele>454.7</ele>
        <time>2022-07-21T10:12:35Z</time>
      </trkpt>
      <trkpt lat="44.1411" lon="5.13037">
        <ele>454.8</ele>
        <time>2022-07-21T10:12:36Z</time>
      </trkpt>
      <trkpt lat="44.14109" lon="5.13033">
        <ele>454.9</ele>
        <time>2022-07-21T10:12:37Z</time>
      </trkpt>
      <trkpt lat="44.14108" lon="5.13029">
        <ele>455</ele>
        <time>2022-07-21T10:12:38Z</time>
      </trkpt>
      <trkpt lat="44.14107" lon="5.13025">
        <ele>455.1</ele>
        <time>2022-07-21T10:12:39Z</time>
      </trkpt>
      <trkpt lat="44.14106" lon="5.13021">
        <ele>455.2</ele>
        <time>2022-07-21T10:12:40Z</time>
      </trkpt>
      <trkpt lat="44.14105" lon="5.13018">
        <ele>455.3</ele>
        <time>2022-07-21T10:12:41Z</time>
      </trkpt>
      <trkpt lat="44.14104" lon="5.13014">
        <ele>455.4</ele>
        <time>2022-07-21T10:12:42Z</time>
      </trkpt>
      <trkpt lat="44.14103" lon="5.1301">
        <ele>455.4</ele>
        <time>2022-07-21T10:12:43Z</time>
      </trkpt>
      <trkpt lat="44.14102" lon="5.13006">
        <ele>455.5</ele>
        <time>2022-07-21T10:12:44Z</time>
      </trkpt>
      <trkpt lat="44.14102" lon="5.13001">
        <ele>455.6</ele>
        <time>2022-07-21T10:12:45Z</time>
      </trkpt>
      <trkpt lat="44.14101" lon="5.12997">
        <ele>455.7</ele>
        <time>2022-07-21T10:12:46Z</time>
      </trkpt>
      <trkpt lat="44.141" lon="5.12993">
        <ele>455.8</ele>
        <time>2022-07-21T10:12:47Z</time>
      </trkpt>
      <trkpt lat="44.141" lon="5.12989">
        <ele>455.9</ele>
        <time>2022-07-21T10:12:48Z</time>
      </trkpt>
      <trkpt lat="44.141" lon="5.12985">
        <ele>456</ele>
        <time>2022-07-21T10:12:49Z</time>
      </trkpt>
      <trkpt lat="44.141" lon="5.12981">
        <ele>456.1</ele>
        <time>2022-07-21T10:12:50Z</time>
      </trkpt>
      <trkpt lat="44.14101" lon="5.12977">
        <ele>456.2</ele>
        <time>2022-07-21T10:12:51Z</time>
      </trkpt>
      <trkpt lat="44.14103" lon="5.12973">
        <ele>456.3</ele>
        <time>2022-07-21T10:12:52Z</time>
      </trkpt>
      <trkpt lat="44.14104" lon="5.1297">
        <ele>456.3</ele>
        <time>2022-07-21T10:12:53Z</time>
      </trkpt>
      <trkpt lat="44.14106" lon="5.12967">
        <ele>456.4</ele>
        <time>2022-07-21T10:12:54Z</time>
      </trkpt>
      <trkpt lat="44.14108" lon="5.12964">
        <ele>456.5</ele>
        <time>2022-07-21T10:12:55Z</time>
      </trkpt>
      <trkpt lat="44.1411" lon="5.12961">
        <ele>456.5</ele>
        <time>2022-07-21T10:12:56Z</time>
      </trkpt>
      <trkpt lat="44.14112" lon="5.12958">
        <ele>456.6</ele>
        <time>2022-07-21T10:12:57Z</time>
      </trkpt>
      <trkpt lat="44.14115" lon="5.12955">
        <ele>456.7</ele>
        <time>2022-07-21T10:12:58Z</time>
      </trkpt>
      <trkpt lat="44.14118" lon="5.12953">
        <ele>456.7</ele>
        <time>2022-07-21T10:12:59Z</time>
      </trkpt>
      <trkpt lat="44.14121" lon="5.12951">
        <ele>456.8</ele>
        <time>2022-07-21T10:13:00Z</time>
      </trkpt>
      <trkpt lat="44.14124" lon="5.12949">
        <ele>456.8</ele>
        <time>2022-07-21T10:13:01Z</time>
      </trkpt>
      <trkpt lat="44.14128" lon="5.12949">
        <ele>456.7</ele>
        <time>2022-07-21T10:13:02Z</time>
      </trkpt>
      <trkpt lat="44.14131" lon="5.12949">
        <ele>456.6</ele>
        <time>2022-07-21T10:13:03Z</time>
      </trkpt>
      <trkpt lat="44.14134" lon="5.1295">
        <ele>456.6</ele>
        <time>2022-07-21T10:13:04Z</time>
      </trkpt>
      <trkpt lat="44.14136" lon="5.12951">
        <ele>456.6</ele>
        <time>2022-07-21T10:13:05Z</time>
      </trkpt>
      <trkpt lat="44.14137" lon="5.12952">
        <ele>456.5</ele>
        <time>2022-07-21T10:13:06Z</time>
      </trkpt>
      <trkpt lat="44.14138" lon="5.12953">
        <ele>456.5</ele>
        <time>2022-07-21T10:13:07Z</time>
      </trkpt>
      <trkpt lat="44.14138" lon="5.12954">
        <ele>456.5</ele>
        <time>2022-07-21T10:13:08Z</time>
      </trkpt>
      <trkpt lat="44.14138" lon="5.12955">
        <ele>456.5</ele>
        <time>2022-07-21T10:13:09Z</time>
      </trkpt>
      <trkpt lat="44.14138" lon="5.12956">
        <ele>456.5</ele>
        <time>2022-07-21T10:13:10Z</time>
      </trkpt>
      <trkpt lat="44.14138" lon="5.12957">
        <ele>456.5</ele>
        <time>2022-07-21T10:13:11Z</time>
      </trkpt>
      <trkpt lat="44.14138" lon="5.12958">
        <ele>456.4</ele>
        <time>2022-07-21T10:13:12Z</time>
      </trkpt>
      <trkpt lat="44.14138" lon="5.12959">
        <ele>456.4</ele>
        <time>2022-07-21T10:13:13Z</time>
      </trkpt>
      <trkpt lat="44.14138" lon="5.1296">
        <ele>456.4</ele>
        <time>2022-07-21T10:13:14Z</time>
      </trkpt>
      <trkpt lat="44.14138" lon="5.12961">
        <ele>456.4</ele>
        <time>2022-07-21T10:13:15Z</time>
      </trkpt>
      <trkpt lat="44.14138" lon="5.12962">
        <ele>456.3</ele>
        <time>2022-07-21T10:13:16Z</time>
      </trkpt>
      <trkpt lat="44.14138" lon="5.12963">
        <ele>456.3</ele>
        <time>2022-07-21T10:14:59Z</time>
      </trkpt>
      <trkpt lat="44.14138" lon="5.12964">
        <ele>456.2</ele>
        <time>2022-07-21T10:15:00Z</time>
      </trkpt>
      <trkpt lat="44.14137" lon="5.12965">
        <ele>456.2</ele>
        <time>2022-07-21T10:15:01Z</time>
      </trkpt>
      <trkpt lat="44.14137" lon="5.1297">
        <ele>456</ele>
        <time>2022-07-21T10:15:02Z</time>
      </trkpt>
      <trkpt lat="44.14136" lon="5.12976">
        <ele>455.7</ele>
        <time>2022-07-21T10:15:03Z</time>
      </trkpt>
      <trkpt lat="44.14136" lon="5.12983">
        <ele>455.5</ele>
        <time>2022-07-21T10:15:04Z</time>
      </trkpt>
      <trkpt lat="44.14137" lon="5.1299">
        <ele>455.2</ele>
        <time>2022-07-21T10:15:05Z</time>
      </trkpt>
      <trkpt lat="44.14137" lon="5.12996">
        <ele>455</ele>
        <time>2022-07-21T10:15:06Z</time>
      </trkpt>
      <trkpt lat="44.14139" lon="5.13003">
        <ele>454.7</ele>
        <time>2022-07-21T10:15:07Z</time>
      </trkpt>
      <trkpt lat="44.14141" lon="5.13009">
        <ele>454.4</ele>
        <time>2022-07-21T10:15:08Z</time>
      </trkpt>
      <trkpt lat="44.14144" lon="5.13016">
        <ele>454.1</ele>
        <time>2022-07-21T10:15:09Z</time>
      </trkpt>
      <trkpt lat="44.14146" lon="5.13022">
        <ele>453.9</ele>
        <time>2022-07-21T10:15:10Z</time>
      </trkpt>
      <trkpt lat="44.14149" lon="5.13029">
        <ele>453.6</ele>
        <time>2022-07-21T10:15:11Z</time>
      </trkpt>
      <trkpt lat="44.14153" lon="5.13036">
        <ele>453.3</ele>
        <time>2022-07-21T10:15:12Z</time>
      </trkpt>
      <trkpt lat="44.14162" lon="5.13049">
        <ele>452.7</ele>
        <time>2022-07-21T10:15:13Z</time>
      </trkpt>
      <trkpt lat="44.14169" lon="5.13057">
        <ele>452.3</ele>
        <time>2022-07-21T10:15:15Z</time>
      </trkpt>
      <trkpt lat="44.14173" lon="5.13063">
        <ele>452</ele>
        <time>2022-07-21T10:15:16Z</time>
      </trkpt>
      <trkpt lat="44.14179" lon="5.13071">
        <ele>451.6</ele>
        <time>2022-07-21T10:15:17Z</time>
      </trkpt>
      <trkpt lat="44.14183" lon="5.13078">
        <ele>451.3</ele>
        <time>2022-07-21T10:15:18Z</time>
      </trkpt>
      <trkpt lat="44.14189" lon="5.13084">
        <ele>450.9</ele>
        <time>2022-07-21T10:15:19Z</time>
      </trkpt>
      <trkpt lat="44.14195" lon="5.13089">
        <ele>450.6</ele>
        <time>2022-07-21T10:15:20Z</time>
      </trkpt>
      <trkpt lat="44.14201" lon="5.13097">
        <ele>450.2</ele>
        <time>2022-07-21T10:15:21Z</time>
      </trkpt>
      <trkpt lat="44.14207" lon="5.13103">
        <ele>449.8</ele>
        <time>2022-07-21T10:15:22Z</time>
      </trkpt>
      <trkpt lat="44.14214" lon="5.1311">
        <ele>449.5</ele>
        <time>2022-07-21T10:15:23Z</time>
      </trkpt>
      <trkpt lat="44.14221" lon="5.13117">
        <ele>449</ele>
        <time>2022-07-21T10:15:24Z</time>
      </trkpt>
      <trkpt lat="44.14227" lon="5.13124">
        <ele>448.6</ele>
        <time>2022-07-21T10:15:25Z</time>
      </trkpt>
      <trkpt lat="44.14233" lon="5.13132">
        <ele>448.2</ele>
        <time>2022-07-21T10:15:26Z</time>
      </trkpt>
      <trkpt lat="44.14239" lon="5.1314">
        <ele>447.8</ele>
        <time>2022-07-21T10:15:27Z</time>
      </trkpt>
      <trkpt lat="44.14244" lon="5.13149">
        <ele>447.4</ele>
        <time>2022-07-21T10:15:28Z</time>
      </trkpt>
      <trkpt lat="44.1425" lon="5.13158">
        <ele>447</ele>
        <time>2022-07-21T10:15:29Z</time>
      </trkpt>
      <trkpt lat="44.14259" lon="5.13171">
        <ele>446.3</ele>
        <time>2022-07-21T10:15:30Z</time>
      </trkpt>
      <trkpt lat="44.14264" lon="5.13181">
        <ele>445.9</ele>
        <time>2022-07-21T10:15:31Z</time>
      </trkpt>
      <trkpt lat="44.1427" lon="5.13191">
        <ele>445.4</ele>
        <time>2022-07-21T10:15:32Z</time>
      </trkpt>
      <trkpt lat="44.14274" lon="5.13202">
        <ele>445</ele>
        <time>2022-07-21T10:15:33Z</time>
      </trkpt>
      <trkpt lat="44.1428" lon="5.13214">
        <ele>444.5</ele>
        <time>2022-07-21T10:15:34Z</time>
      </trkpt>
      <trkpt lat="44.14285" lon="5.13224">
        <ele>444</ele>
        <time>2022-07-21T10:15:35Z</time>
      </trkpt>
      <trkpt lat="44.14295" lon="5.13229">
        <ele>443.5</ele>
        <time>2022-07-21T10:15:36Z</time>
      </trkpt>
      <trkpt lat="44.14306" lon="5.13234">
        <ele>443</ele>
        <time>2022-07-21T10:15:37Z</time>
      </trkpt>
      <trkpt lat="44.14315" lon="5.13238">
        <ele>442.4</ele>
        <time>2022-07-21T10:15:38Z</time>
      </trkpt>
      <trkpt lat="44.14332" lon="5.13248">
        <ele>441.5</ele>
        <time>2022-07-21T10:15:39Z</time>
      </trkpt>
      <trkpt lat="44.14339" lon="5.13258">
        <ele>441</ele>
        <time>2022-07-21T10:15:40Z</time>
      </trkpt>
      <trkpt lat="44.14345" lon="5.13269">
        <ele>440.5</ele>
        <time>2022-07-21T10:15:42Z</time>
      </trkpt>
      <trkpt lat="44.14349" lon="5.13282">
        <ele>440</ele>
        <time>2022-07-21T10:15:43Z</time>
      </trkpt>
      <trkpt lat="44.14352" lon="5.13293">
        <ele>439.5</ele>
        <time>2022-07-21T10:15:44Z</time>
      </trkpt>
      <trkpt lat="44.14358" lon="5.13306">
        <ele>439</ele>
        <time>2022-07-21T10:15:45Z</time>
      </trkpt>
      <trkpt lat="44.14363" lon="5.13315">
        <ele>438.5</ele>
        <time>2022-07-21T10:15:46Z</time>
      </trkpt>
      <trkpt lat="44.14371" lon="5.13324">
        <ele>438</ele>
        <time>2022-07-21T10:15:47Z</time>
      </trkpt>
      <trkpt lat="44.14383" lon="5.13335">
        <ele>437.4</ele>
        <time>2022-07-21T10:15:48Z</time>
      </trkpt>
      <trkpt lat="44.1439" lon="5.13341">
        <ele>437.1</ele>
        <time>2022-07-21T10:15:49Z</time>
      </trkpt>
      <trkpt lat="44.14401" lon="5.13348">
        <ele>436.6</ele>
        <time>2022-07-21T10:15:50Z</time>
      </trkpt>
      <trkpt lat="44.14411" lon="5.13352">
        <ele>436.2</ele>
        <time>2022-07-21T10:15:51Z</time>
      </trkpt>
      <trkpt lat="44.14433" lon="5.13359">
        <ele>435.3</ele>
        <time>2022-07-21T10:15:52Z</time>
      </trkpt>
      <trkpt lat="44.14445" lon="5.13357">
        <ele>434.9</ele>
        <time>2022-07-21T10:15:53Z</time>
      </trkpt>
      <trkpt lat="44.14465" lon="5.13356">
        <ele>434.3</ele>
        <time>2022-07-21T10:15:55Z</time>
      </trkpt>
      <trkpt lat="44.14475" lon="5.13356">
        <ele>433.9</ele>
        <time>2022-07-21T10:15:57Z</time>
      </trkpt>
      <trkpt lat="44.14496" lon="5.13354">
        <ele>433.1</ele>
        <time>2022-07-21T10:15:58Z</time>
      </trkpt>
      <trkpt lat="44.14507" lon="5.13355">
        <ele>432.7</ele>
        <time>2022-07-21T10:15:59Z</time>
      </trkpt>
      <trkpt lat="44.14517" lon="5.13356">
        <ele>432.3</ele>
        <time>2022-07-21T10:16:00Z</time>
      </trkpt>
      <trkpt lat="44.14527" lon="5.13358">
        <ele>431.9</ele>
        <time>2022-07-21T10:16:01Z</time>
      </trkpt>
      <trkpt lat="44.14536" lon="5.13362">
        <ele>431.6</ele>
        <time>2022-07-21T10:16:03Z</time>
      </trkpt>
      <trkpt lat="44.14545" lon="5.13365">
        <ele>431.3</ele>
        <time>2022-07-21T10:16:04Z</time>
      </trkpt>
      <trkpt lat="44.14554" lon="5.13369">
        <ele>431</ele>
        <time>2022-07-21T10:16:05Z</time>
      </trkpt>
      <trkpt lat="44.14562" lon="5.1337">
        <ele>430.7</ele>
        <time>2022-07-21T10:16:06Z</time>
      </trkpt>
      <trkpt lat="44.14575" lon="5.1337">
        <ele>430.2</ele>
        <time>2022-07-21T10:16:07Z</time>
      </trkpt>
      <trkpt lat="44.14576" lon="5.1335">
        <ele>429.5</ele>
        <time>2022-07-21T10:16:09Z</time>
      </trkpt>
      <trkpt lat="44.14578" lon="5.13339">
        <ele>429.1</ele>
        <time>2022-07-21T10:16:10Z</time>
      </trkpt>
      <trkpt lat="44.14579" lon="5.13327">
        <ele>428.6</ele>
        <time>2022-07-21T10:16:11Z</time>
      </trkpt>
      <trkpt lat="44.14578" lon="5.13315">
        <ele>428.2</ele>
        <time>2022-07-21T10:16:12Z</time>
      </trkpt>
      <trkpt lat="44.14578" lon="5.1329">
        <ele>427.4</ele>
        <time>2022-07-21T10:16:13Z</time>
      </trkpt>
      <trkpt lat="44.14579" lon="5.13275">
        <ele>427</ele>
        <time>2022-07-21T10:16:15Z</time>
      </trkpt>
      <trkpt lat="44.14579" lon="5.13261">
        <ele>426.6</ele>
        <time>2022-07-21T10:16:16Z</time>
      </trkpt>
      <trkpt lat="44.1458" lon="5.13247">
        <ele>426.2</ele>
        <time>2022-07-21T10:16:17Z</time>
      </trkpt>
      <trkpt lat="44.14581" lon="5.13235">
        <ele>425.9</ele>
        <time>2022-07-21T10:16:18Z</time>
      </trkpt>
      <trkpt lat="44.14585" lon="5.13222">
        <ele>425.6</ele>
        <time>2022-07-21T10:16:19Z</time>
      </trkpt>
      <trkpt lat="44.14588" lon="5.1321">
        <ele>425.3</ele>
        <time>2022-07-21T10:16:20Z</time>
      </trkpt>
      <trkpt lat="44.14592" lon="5.13197">
        <ele>425</ele>
        <time>2022-07-21T10:16:21Z</time>
      </trkpt>
      <trkpt lat="44.14597" lon="5.13186">
        <ele>424.8</ele>
        <time>2022-07-21T10:16:22Z</time>
      </trkpt>
      <trkpt lat="44.14602" lon="5.13175">
        <ele>424.6</ele>
        <time>2022-07-21T10:16:23Z</time>
      </trkpt>
      <trkpt lat="44.14607" lon="5.13166">
        <ele>424.4</ele>
        <time>2022-07-21T10:16:24Z</time>
      </trkpt>
      <trkpt lat="44.14613" lon="5.13156">
        <ele>424.2</ele>
        <time>2022-07-21T10:16:25Z</time>
      </trkpt>
      <trkpt lat="44.14618" lon="5.13147">
        <ele>424.1</ele>
        <time>2022-07-21T10:16:26Z</time>
      </trkpt>
      <trkpt lat="44.14623" lon="5.13138">
        <ele>424</ele>
        <time>2022-07-21T10:16:27Z</time>
      </trkpt>
      <trkpt lat="44.14629" lon="5.13129">
        <ele>423.9</ele>
        <time>2022-07-21T10:16:28Z</time>
      </trkpt>
      <trkpt lat="44.14636" lon="5.1312">
        <ele>423.7</ele>
        <time>2022-07-21T10:16:29Z</time>
      </trkpt>
      <trkpt lat="44.14642" lon="5.13111">
        <ele>423.6</ele>
        <time>2022-07-21T10:16:30Z</time>
      </trkpt>
      <trkpt lat="44.14648" lon="5.13102">
        <ele>423.5</ele>
        <time>2022-07-21T10:16:31Z</time>
      </trkpt>
      <trkpt lat="44.14654" lon="5.13092">
        <ele>423.3</ele>
        <time>2022-07-21T10:16:32Z</time>
      </trkpt>
      <trkpt lat="44.1466" lon="5.13083">
        <ele>423.1</ele>
        <time>2022-07-21T10:16:33Z</time>
      </trkpt>
      <trkpt lat="44.14666" lon="5.1307">
        <ele>422.8</ele>
        <time>2022-07-21T10:16:34Z</time>
      </trkpt>
      <trkpt lat="44.14671" lon="5.13058">
        <ele>422.5</ele>
        <time>2022-07-21T10:16:35Z</time>
      </trkpt>
      <trkpt lat="44.14675" lon="5.13048">
        <ele>422.2</ele>
        <time>2022-07-21T10:16:36Z</time>
      </trkpt>
      <trkpt lat="44.14679" lon="5.13037">
        <ele>421.9</ele>
        <time>2022-07-21T10:16:37Z</time>
      </trkpt>
      <trkpt lat="44.14682" lon="5.13026">
        <ele>421.6</ele>
        <time>2022-07-21T10:16:38Z</time>
      </trkpt>
      <trkpt lat="44.14686" lon="5.13014">
        <ele>421.3</ele>
        <time>2022-07-21T10:16:39Z</time>
      </trkpt>
      <trkpt lat="44.1469" lon="5.13003">
        <ele>420.9</ele>
        <time>2022-07-21T10:16:40Z</time>
      </trkpt>
      <trkpt lat="44.14695" lon="5.1299">
        <ele>420.5</ele>
        <time>2022-07-21T10:16:41Z</time>
      </trkpt>
      <trkpt lat="44.147" lon="5.12979">
        <ele>420.1</ele>
        <time>2022-07-21T10:16:42Z</time>
      </trkpt>
      <trkpt lat="44.14706" lon="5.12966">
        <ele>419.6</ele>
        <time>2022-07-21T10:16:43Z</time>
      </trkpt>
      <trkpt lat="44.14712" lon="5.12957">
        <ele>419.2</ele>
        <time>2022-07-21T10:16:44Z</time>
      </trkpt>
      <trkpt lat="44.14719" lon="5.12947">
        <ele>418.8</ele>
        <time>2022-07-21T10:16:45Z</time>
      </trkpt>
      <trkpt lat="44.14726" lon="5.12939">
        <ele>418.4</ele>
        <time>2022-07-21T10:16:46Z</time>
      </trkpt>
      <trkpt lat="44.14734" lon="5.1293">
        <ele>418</ele>
        <time>2022-07-21T10:16:47Z</time>
      </trkpt>
      <trkpt lat="44.14742" lon="5.12926">
        <ele>417.6</ele>
        <time>2022-07-21T10:16:48Z</time>
      </trkpt>
      <trkpt lat="44.14751" lon="5.1292">
        <ele>417.2</ele>
        <time>2022-07-21T10:16:49Z</time>
      </trkpt>
      <trkpt lat="44.14762" lon="5.12919">
        <ele>416.7</ele>
        <time>2022-07-21T10:16:50Z</time>
      </trkpt>
      <trkpt lat="44.14771" lon="5.12921">
        <ele>416.3</ele>
        <time>2022-07-21T10:16:51Z</time>
      </trkpt>
      <trkpt lat="44.14781" lon="5.12921">
        <ele>415.8</ele>
        <time>2022-07-21T10:16:52Z</time>
      </trkpt>
      <trkpt lat="44.14791" lon="5.12923">
        <ele>415.4</ele>
        <time>2022-07-21T10:16:53Z</time>
      </trkpt>
      <trkpt lat="44.14801" lon="5.12927">
        <ele>414.8</ele>
        <time>2022-07-21T10:16:54Z</time>
      </trkpt>
      <trkpt lat="44.14811" lon="5.1293">
        <ele>414.4</ele>
        <time>2022-07-21T10:16:55Z</time>
      </trkpt>
      <trkpt lat="44.14829" lon="5.12933">
        <ele>413.3</ele>
        <time>2022-07-21T10:16:56Z</time>
      </trkpt>
      <trkpt lat="44.14845" lon="5.1294">
        <ele>412.3</ele>
        <time>2022-07-21T10:16:58Z</time>
      </trkpt>
      <trkpt lat="44.14853" lon="5.12945">
        <ele>411.7</ele>
        <time>2022-07-21T10:17:00Z</time>
      </trkpt>
      <trkpt lat="44.14862" lon="5.12951">
        <ele>411.1</ele>
        <time>2022-07-21T10:17:01Z</time>
      </trkpt>
      <trkpt lat="44.14869" lon="5.12957">
        <ele>410.5</ele>
        <time>2022-07-21T10:17:02Z</time>
      </trkpt>
      <trkpt lat="44.14879" lon="5.12964">
        <ele>409.7</ele>
        <time>2022-07-21T10:17:03Z</time>
      </trkpt>
      <trkpt lat="44.14888" lon="5.1297">
        <ele>409</ele>
        <time>2022-07-21T10:17:04Z</time>
      </trkpt>
      <trkpt lat="44.14897" lon="5.1298">
        <ele>408.2</ele>
        <time>2022-07-21T10:17:05Z</time>
      </trkpt>
      <trkpt lat="44.14905" lon="5.12988">
        <ele>407.5</ele>
        <time>2022-07-21T10:17:06Z</time>
      </trkpt>
      <trkpt lat="44.14915" lon="5.12996">
        <ele>406.8</ele>
        <time>2022-07-21T10:17:07Z</time>
      </trkpt>
      <trkpt lat="44.14924" lon="5.13006">
        <ele>406.1</ele>
        <time>2022-07-21T10:17:08Z</time>
      </trkpt>
      <trkpt lat="44.14931" lon="5.13018">
        <ele>405.4</ele>
        <time>2022-07-21T10:17:09Z</time>
      </trkpt>
      <trkpt lat="44.14939" lon="5.13028">
        <ele>404.8</ele>
        <time>2022-07-21T10:17:10Z</time>
      </trkpt>
      <trkpt lat="44.14946" lon="5.13041">
        <ele>404.2</ele>
        <time>2022-07-21T10:17:11Z</time>
      </trkpt>
      <trkpt lat="44.14961" lon="5.13064">
        <ele>402.9</ele>
        <time>2022-07-21T10:17:12Z</time>
      </trkpt>
      <trkpt lat="44.14968" lon="5.13075">
        <ele>402.3</ele>
        <time>2022-07-21T10:17:14Z</time>
      </trkpt>
      <trkpt lat="44.14975" lon="5.13087">
        <ele>401.6</ele>
        <time>2022-07-21T10:17:15Z</time>
      </trkpt>
      <trkpt lat="44.1498" lon="5.13101">
        <ele>401</ele>
        <time>2022-07-21T10:17:16Z</time>
      </trkpt>
      <trkpt lat="44.14983" lon="5.13114">
        <ele>400.4</ele>
        <time>2022-07-21T10:17:17Z</time>
      </trkpt>
      <trkpt lat="44.14987" lon="5.13127">
        <ele>399.7</ele>
        <time>2022-07-21T10:17:18Z</time>
      </trkpt>
      <trkpt lat="44.14989" lon="5.13142">
        <ele>399.1</ele>
        <time>2022-07-21T10:17:19Z</time>
      </trkpt>
      <trkpt lat="44.14989" lon="5.13174">
        <ele>397.8</ele>
        <time>2022-07-21T10:17:20Z</time>
      </trkpt>
      <trkpt lat="44.14992" lon="5.13194">
        <ele>397.1</ele>
        <time>2022-07-21T10:17:22Z</time>
      </trkpt>
      <trkpt lat="44.14994" lon="5.13224">
        <ele>396</ele>
        <time>2022-07-21T10:17:23Z</time>
      </trkpt>
      <trkpt lat="44.14992" lon="5.13259">
        <ele>394.6</ele>
        <time>2022-07-21T10:17:25Z</time>
      </trkpt>
      <trkpt lat="44.14993" lon="5.13273">
        <ele>394</ele>
        <time>2022-07-21T10:17:26Z</time>
      </trkpt>
      <trkpt lat="44.14989" lon="5.13287">
        <ele>393.4</ele>
        <time>2022-07-21T10:17:28Z</time>
      </trkpt>
      <trkpt lat="44.14988" lon="5.13319">
        <ele>392.1</ele>
        <time>2022-07-21T10:17:29Z</time>
      </trkpt>
      <trkpt lat="44.14986" lon="5.13347">
        <ele>391.1</ele>
        <time>2022-07-21T10:17:31Z</time>
      </trkpt>
      <trkpt lat="44.14985" lon="5.13361">
        <ele>390.5</ele>
        <time>2022-07-21T10:17:32Z</time>
      </trkpt>
      <trkpt lat="44.14987" lon="5.13391">
        <ele>389.1</ele>
        <time>2022-07-21T10:17:34Z</time>
      </trkpt>
      <trkpt lat="44.15001" lon="5.13396">
        <ele>388</ele>
        <time>2022-07-21T10:17:35Z</time>
      </trkpt>
      <trkpt lat="44.15011" lon="5.13402">
        <ele>387.4</ele>
        <time>2022-07-21T10:17:36Z</time>
      </trkpt>
      <trkpt lat="44.15022" lon="5.13406">
        <ele>386.5</ele>
        <time>2022-07-21T10:17:37Z</time>
      </trkpt>
      <trkpt lat="44.15033" lon="5.13407">
        <ele>385.5</ele>
        <time>2022-07-21T10:17:38Z</time>
      </trkpt>
      <trkpt lat="44.15044" lon="5.13403">
        <ele>384.6</ele>
        <time>2022-07-21T10:17:39Z</time>
      </trkpt>
      <trkpt lat="44.15062" lon="5.13381">
        <ele>383.9</ele>
        <time>2022-07-21T10:17:41Z</time>
      </trkpt>
      <trkpt lat="44.15078" lon="5.13357">
        <ele>382.6</ele>
        <time>2022-07-21T10:17:43Z</time>
      </trkpt>
      <trkpt lat="44.15085" lon="5.13347">
        <ele>382</ele>
        <time>2022-07-21T10:17:44Z</time>
      </trkpt>
      <trkpt lat="44.15092" lon="5.13336">
        <ele>381.4</ele>
        <time>2022-07-21T10:17:45Z</time>
      </trkpt>
      <trkpt lat="44.151" lon="5.13323">
        <ele>380.7</ele>
        <time>2022-07-21T10:17:46Z</time>
      </trkpt>
      <trkpt lat="44.15107" lon="5.13312">
        <ele>380.1</ele>
        <time>2022-07-21T10:17:47Z</time>
      </trkpt>
      <trkpt lat="44.15114" lon="5.13301">
        <ele>379.5</ele>
        <time>2022-07-21T10:17:48Z</time>
      </trkpt>
      <trkpt lat="44.15122" lon="5.1329">
        <ele>379</ele>
        <time>2022-07-21T10:17:49Z</time>
      </trkpt>
      <trkpt lat="44.15136" lon="5.13267">
        <ele>378.1</ele>
        <time>2022-07-21T10:17:51Z</time>
      </trkpt>
      <trkpt lat="44.15144" lon="5.13255">
        <ele>377.8</ele>
        <time>2022-07-21T10:17:52Z</time>
      </trkpt>
      <trkpt lat="44.15151" lon="5.13245">
        <ele>377.6</ele>
        <time>2022-07-21T10:17:53Z</time>
      </trkpt>
      <trkpt lat="44.15157" lon="5.13235">
        <ele>377.5</ele>
        <time>2022-07-21T10:17:54Z</time>
      </trkpt>
      <trkpt lat="44.15164" lon="5.13224">
        <ele>377.5</ele>
        <time>2022-07-21T10:17:55Z</time>
      </trkpt>
      <trkpt lat="44.1517" lon="5.13214">
        <ele>377.5</ele>
        <time>2022-07-21T10:17:56Z</time>
      </trkpt>
      <trkpt lat="44.15177" lon="5.13204">
        <ele>377.6</ele>
        <time>2022-07-21T10:17:57Z</time>
      </trkpt>
      <trkpt lat="44.15184" lon="5.13195">
        <ele>377.7</ele>
        <time>2022-07-21T10:17:58Z</time>
      </trkpt>
      <trkpt lat="44.1519" lon="5.13187">
        <ele>377.8</ele>
        <time>2022-07-21T10:17:59Z</time>
      </trkpt>
      <trkpt lat="44.15197" lon="5.13179">
        <ele>378</ele>
        <time>2022-07-21T10:18:00Z</time>
      </trkpt>
      <trkpt lat="44.15203" lon="5.13171">
        <ele>378.1</ele>
        <time>2022-07-21T10:18:01Z</time>
      </trkpt>
      <trkpt lat="44.1521" lon="5.13164">
        <ele>378.3</ele>
        <time>2022-07-21T10:18:02Z</time>
      </trkpt>
      <trkpt lat="44.15216" lon="5.13157">
        <ele>378.4</ele>
        <time>2022-07-21T10:18:03Z</time>
      </trkpt>
      <trkpt lat="44.15222" lon="5.1315">
        <ele>378.6</ele>
        <time>2022-07-21T10:18:04Z</time>
      </trkpt>
      <trkpt lat="44.15228" lon="5.13144">
        <ele>378.8</ele>
        <time>2022-07-21T10:18:05Z</time>
      </trkpt>
      <trkpt lat="44.15233" lon="5.13139">
        <ele>379</ele>
        <time>2022-07-21T10:18:06Z</time>
      </trkpt>
      <trkpt lat="44.15238" lon="5.13134">
        <ele>379.1</ele>
        <time>2022-07-21T10:18:07Z</time>
      </trkpt>
      <trkpt lat="44.15244" lon="5.13128">
        <ele>379.3</ele>
        <time>2022-07-21T10:18:08Z</time>
      </trkpt>
      <trkpt lat="44.15249" lon="5.13122">
        <ele>379.5</ele>
        <time>2022-07-21T10:18:09Z</time>
      </trkpt>
      <trkpt lat="44.15254" lon="5.13116">
        <ele>379.7</ele>
        <time>2022-07-21T10:18:10Z</time>
      </trkpt>
      <trkpt lat="44.15258" lon="5.13112">
        <ele>379.7</ele>
        <time>2022-07-21T10:18:11Z</time>
      </trkpt>
      <trkpt lat="44.15263" lon="5.13106">
        <ele>379.8</ele>
        <time>2022-07-21T10:18:12Z</time>
      </trkpt>
      <trkpt lat="44.15268" lon="5.13101">
        <ele>379.8</ele>
        <time>2022-07-21T10:18:13Z</time>
      </trkpt>
      <trkpt lat="44.15273" lon="5.13098">
        <ele>379.9</ele>
        <time>2022-07-21T10:18:14Z</time>
      </trkpt>
      <trkpt lat="44.15282" lon="5.13089">
        <ele>380.1</ele>
        <time>2022-07-21T10:18:16Z</time>
      </trkpt>
      <trkpt lat="44.15287" lon="5.13084">
        <ele>380.2</ele>
        <time>2022-07-21T10:18:17Z</time>
      </trkpt>
      <trkpt lat="44.15291" lon="5.1308">
        <ele>380.2</ele>
        <time>2022-07-21T10:18:18Z</time>
      </trkpt>
      <trkpt lat="44.15295" lon="5.13075">
        <ele>380.3</ele>
        <time>2022-07-21T10:18:19Z</time>
      </trkpt>
      <trkpt lat="44.15299" lon="5.1307">
        <ele>380.4</ele>
        <time>2022-07-21T10:18:20Z</time>
      </trkpt>
      <trkpt lat="44.15303" lon="5.13065">
        <ele>380.5</ele>
        <time>2022-07-21T10:18:22Z</time>
      </trkpt>
      <trkpt lat="44.15311" lon="5.13056">
        <ele>380.7</ele>
        <time>2022-07-21T10:18:23Z</time>
      </trkpt>
      <trkpt lat="44.15315" lon="5.13051">
        <ele>380.7</ele>
        <time>2022-07-21T10:18:24Z</time>
      </trkpt>
      <trkpt lat="44.15319" lon="5.13047">
        <ele>380.8</ele>
        <time>2022-07-21T10:18:25Z</time>
      </trkpt>
      <trkpt lat="44.15323" lon="5.13042">
        <ele>380.9</ele>
        <time>2022-07-21T10:18:26Z</time>
      </trkpt>
      <trkpt lat="44.15326" lon="5.1304">
        <ele>380.9</ele>
        <time>2022-07-21T10:18:27Z</time>
      </trkpt>
      <trkpt lat="44.1533" lon="5.13036">
        <ele>381</ele>
        <time>2022-07-21T10:18:28Z</time>
      </trkpt>
      <trkpt lat="44.15337" lon="5.13028">
        <ele>381.1</ele>
        <time>2022-07-21T10:18:30Z</time>
      </trkpt>
      <trkpt lat="44.15341" lon="5.13024">
        <ele>381.2</ele>
        <time>2022-07-21T10:18:31Z</time>
      </trkpt>
      <trkpt lat="44.15348" lon="5.13017">
        <ele>381.3</ele>
        <time>2022-07-21T10:18:33Z</time>
      </trkpt>
      <trkpt lat="44.15356" lon="5.1301">
        <ele>381.5</ele>
        <time>2022-07-21T10:18:35Z</time>
      </trkpt>
      <trkpt lat="44.15359" lon="5.13006">
        <ele>381.5</ele>
        <time>2022-07-21T10:18:36Z</time>
      </trkpt>
      <trkpt lat="44.15366" lon="5.13001">
        <ele>381.6</ele>
        <time>2022-07-21T10:18:38Z</time>
      </trkpt>
      <trkpt lat="44.1537" lon="5.12998">
        <ele>381.7</ele>
        <time>2022-07-21T10:18:39Z</time>
      </trkpt>
      <trkpt lat="44.15377" lon="5.12995">
        <ele>381.8</ele>
        <time>2022-07-21T10:18:41Z</time>
      </trkpt>
      <trkpt lat="44.15381" lon="5.12994">
        <ele>381.8</ele>
        <time>2022-07-21T10:18:42Z</time>
      </trkpt>
      <trkpt lat="44.15385" lon="5.12992">
        <ele>381.8</ele>
        <time>2022-07-21T10:18:43Z</time>
      </trkpt>
      <trkpt lat="44.15393" lon="5.1299">
        <ele>381.9</ele>
        <time>2022-07-21T10:18:45Z</time>
      </trkpt>
      <trkpt lat="44.15396" lon="5.12989">
        <ele>381.9</ele>
        <time>2022-07-21T10:18:46Z</time>
      </trkpt>
      <trkpt lat="44.154" lon="5.12988">
        <ele>381.9</ele>
        <time>2022-07-21T10:18:47Z</time>
      </trkpt>
      <trkpt lat="44.15407" lon="5.12989">
        <ele>381.9</ele>
        <time>2022-07-21T10:18:49Z</time>
      </trkpt>
      <trkpt lat="44.1541" lon="5.12989">
        <ele>381.9</ele>
        <time>2022-07-21T10:18:50Z</time>
      </trkpt>
      <trkpt lat="44.15414" lon="5.1299">
        <ele>381.8</ele>
        <time>2022-07-21T10:18:51Z</time>
      </trkpt>
      <trkpt lat="44.15418" lon="5.1299">
        <ele>381.8</ele>
        <time>2022-07-21T10:18:52Z</time>
      </trkpt>
      <trkpt lat="44.15427" lon="5.12992">
        <ele>381.6</ele>
        <time>2022-07-21T10:18:54Z</time>
      </trkpt>
      <trkpt lat="44.15432" lon="5.12992">
        <ele>381.6</ele>
        <time>2022-07-21T10:18:55Z</time>
      </trkpt>
      <trkpt lat="44.15436" lon="5.12992">
        <ele>381.5</ele>
        <time>2022-07-21T10:18:56Z</time>
      </trkpt>
      <trkpt lat="44.15446" lon="5.12992">
        <ele>381.4</ele>
        <time>2022-07-21T10:18:58Z</time>
      </trkpt>
      <trkpt lat="44.15456" lon="5.12991">
        <ele>381.4</ele>
        <time>2022-07-21T10:19:00Z</time>
      </trkpt>
      <trkpt lat="44.15461" lon="5.12989">
        <ele>381.3</ele>
        <time>2022-07-21T10:19:01Z</time>
      </trkpt>
      <trkpt lat="44.15466" lon="5.12987">
        <ele>381.3</ele>
        <time>2022-07-21T10:19:02Z</time>
      </trkpt>
      <trkpt lat="44.15472" lon="5.12985">
        <ele>381.3</ele>
        <time>2022-07-21T10:19:03Z</time>
      </trkpt>
      <trkpt lat="44.15478" lon="5.12983">
        <ele>381.2</ele>
        <time>2022-07-21T10:19:05Z</time>
      </trkpt>
      <trkpt lat="44.15489" lon="5.12979">
        <ele>381.1</ele>
        <time>2022-07-21T10:19:06Z</time>
      </trkpt>
      <trkpt lat="44.15501" lon="5.12973">
        <ele>381.1</ele>
        <time>2022-07-21T10:19:08Z</time>
      </trkpt>
      <trkpt lat="44.15511" lon="5.12966">
        <ele>381.1</ele>
        <time>2022-07-21T10:19:10Z</time>
      </trkpt>
      <trkpt lat="44.15515" lon="5.12963">
        <ele>381.1</ele>
        <time>2022-07-21T10:19:11Z</time>
      </trkpt>
      <trkpt lat="44.1552" lon="5.12961">
        <ele>381.2</ele>
        <time>2022-07-21T10:19:13Z</time>
      </trkpt>
      <trkpt lat="44.15524" lon="5.12959">
        <ele>381.2</ele>
        <time>2022-07-21T10:19:14Z</time>
      </trkpt>
      <trkpt lat="44.15528" lon="5.12957">
        <ele>381.3</ele>
        <time>2022-07-21T10:19:15Z</time>
      </trkpt>
      <trkpt lat="44.15533" lon="5.12954">
        <ele>381.3</ele>
        <time>2022-07-21T10:19:16Z</time>
      </trkpt>
      <trkpt lat="44.15536" lon="5.12952">
        <ele>381.4</ele>
        <time>2022-07-21T10:19:17Z</time>
      </trkpt>
      <trkpt lat="44.1554" lon="5.1295">
        <ele>381.5</ele>
        <time>2022-07-21T10:19:18Z</time>
      </trkpt>
      <trkpt lat="44.15544" lon="5.12947">
        <ele>381.5</ele>
        <time>2022-07-21T10:19:19Z</time>
      </trkpt>
      <trkpt lat="44.15548" lon="5.12946">
        <ele>381.6</ele>
        <time>2022-07-21T10:19:20Z</time>
      </trkpt>
      <trkpt lat="44.15551" lon="5.12943">
        <ele>381.7</ele>
        <time>2022-07-21T10:19:21Z</time>
      </trkpt>
      <trkpt lat="44.15554" lon="5.12942">
        <ele>381.8</ele>
        <time>2022-07-21T10:19:22Z</time>
      </trkpt>
      <trkpt lat="44.15558" lon="5.1294">
        <ele>381.9</ele>
        <time>2022-07-21T10:19:23Z</time>
      </trkpt>
      <trkpt lat="44.15562" lon="5.12938">
        <ele>382</ele>
        <time>2022-07-21T10:19:24Z</time>
      </trkpt>
      <trkpt lat="44.15565" lon="5.12936">
        <ele>382.1</ele>
        <time>2022-07-21T10:19:25Z</time>
      </trkpt>
      <trkpt lat="44.15569" lon="5.12934">
        <ele>382.2</ele>
        <time>2022-07-21T10:19:26Z</time>
      </trkpt>
      <trkpt lat="44.15572" lon="5.12932">
        <ele>382.3</ele>
        <time>2022-07-21T10:19:27Z</time>
      </trkpt>
      <trkpt lat="44.15575" lon="5.1293">
        <ele>382.4</ele>
        <time>2022-07-21T10:19:28Z</time>
      </trkpt>
      <trkpt lat="44.15579" lon="5.12928">
        <ele>382.5</ele>
        <time>2022-07-21T10:19:29Z</time>
      </trkpt>
      <trkpt lat="44.15582" lon="5.12926">
        <ele>382.6</ele>
        <time>2022-07-21T10:19:30Z</time>
      </trkpt>
      <trkpt lat="44.15586" lon="5.12924">
        <ele>382.8</ele>
        <time>2022-07-21T10:19:31Z</time>
      </trkpt>
      <trkpt lat="44.15589" lon="5.12922">
        <ele>382.9</ele>
        <time>2022-07-21T10:19:32Z</time>
      </trkpt>
      <trkpt lat="44.15592" lon="5.1292">
        <ele>383</ele>
        <time>2022-07-21T10:19:33Z</time>
      </trkpt>
      <trkpt lat="44.15595" lon="5.12919">
        <ele>383.1</ele>
        <time>2022-07-21T10:19:34Z</time>
      </trkpt>
      <trkpt lat="44.15599" lon="5.12917">
        <ele>383.2</ele>
        <time>2022-07-21T10:19:35Z</time>
      </trkpt>
      <trkpt lat="44.15602" lon="5.12915">
        <ele>383.3</ele>
        <time>2022-07-21T10:19:36Z</time>
      </trkpt>
      <trkpt lat="44.15605" lon="5.12913">
        <ele>383.4</ele>
        <time>2022-07-21T10:19:37Z</time>
      </trkpt>
      <trkpt lat="44.15608" lon="5.12912">
        <ele>383.5</ele>
        <time>2022-07-21T10:19:38Z</time>
      </trkpt>
      <trkpt lat="44.15611" lon="5.1291">
        <ele>383.6</ele>
        <time>2022-07-21T10:19:39Z</time>
      </trkpt>
      <trkpt lat="44.15614" lon="5.12908">
        <ele>383.7</ele>
        <time>2022-07-21T10:19:40Z</time>
      </trkpt>
      <trkpt lat="44.15617" lon="5.12906">
        <ele>383.9</ele>
        <time>2022-07-21T10:19:41Z</time>
      </trkpt>
      <trkpt lat="44.1562" lon="5.12904">
        <ele>384</ele>
        <time>2022-07-21T10:19:42Z</time>
      </trkpt>
      <trkpt lat="44.15623" lon="5.12902">
        <ele>384.1</ele>
        <time>2022-07-21T10:19:43Z</time>
      </trkpt>
      <trkpt lat="44.15626" lon="5.129">
        <ele>384.2</ele>
        <time>2022-07-21T10:19:44Z</time>
      </trkpt>
      <trkpt lat="44.15629" lon="5.12898">
        <ele>384.3</ele>
        <time>2022-07-21T10:19:45Z</time>
      </trkpt>
      <trkpt lat="44.15632" lon="5.12897">
        <ele>384.4</ele>
        <time>2022-07-21T10:19:46Z</time>
      </trkpt>
      <trkpt lat="44.15635" lon="5.12895">
        <ele>384.5</ele>
        <time>2022-07-21T10:19:47Z</time>
      </trkpt>
      <trkpt lat="44.15637" lon="5.12894">
        <ele>384.6</ele>
        <time>2022-07-21T10:19:48Z</time>
      </trkpt>
      <trkpt lat="44.1564" lon="5.12892">
        <ele>384.7</ele>
        <time>2022-07-21T10:19:49Z</time>
      </trkpt>
      <trkpt lat="44.15643" lon="5.12891">
        <ele>384.8</ele>
        <time>2022-07-21T10:19:50Z</time>
      </trkpt>
      <trkpt lat="44.15646" lon="5.1289">
        <ele>384.9</ele>
        <time>2022-07-21T10:19:51Z</time>
      </trkpt>
      <trkpt lat="44.15649" lon="5.12888">
        <ele>385</ele>
        <time>2022-07-21T10:19:52Z</time>
      </trkpt>
      <trkpt lat="44.15652" lon="5.12887">
        <ele>385.2</ele>
        <time>2022-07-21T10:19:53Z</time>
      </trkpt>
      <trkpt lat="44.15655" lon="5.12886">
        <ele>385.3</ele>
        <time>2022-07-21T10:19:54Z</time>
      </trkpt>
      <trkpt lat="44.15658" lon="5.12884">
        <ele>385.4</ele>
        <time>2022-07-21T10:19:55Z</time>
      </trkpt>
      <trkpt lat="44.15661" lon="5.12883">
        <ele>385.5</ele>
        <time>2022-07-21T10:19:56Z</time>
      </trkpt>
      <trkpt lat="44.15663" lon="5.12882">
        <ele>385.6</ele>
        <time>2022-07-21T10:19:57Z</time>
      </trkpt>
      <trkpt lat="44.15666" lon="5.1288">
        <ele>385.7</ele>
        <time>2022-07-21T10:19:58Z</time>
      </trkpt>
      <trkpt lat="44.15669" lon="5.12879">
        <ele>385.8</ele>
        <time>2022-07-21T10:19:59Z</time>
      </trkpt>
      <trkpt lat="44.15672" lon="5.12878">
        <ele>385.9</ele>
        <time>2022-07-21T10:20:00Z</time>
      </trkpt>
      <trkpt lat="44.15675" lon="5.12876">
        <ele>386</ele>
        <time>2022-07-21T10:20:01Z</time>
      </trkpt>
      <trkpt lat="44.15678" lon="5.12875">
        <ele>386.1</ele>
        <time>2022-07-21T10:20:02Z</time>
      </trkpt>
      <trkpt lat="44.15681" lon="5.12873">
        <ele>386.2</ele>
        <time>2022-07-21T10:20:03Z</time>
      </trkpt>
      <trkpt lat="44.15683" lon="5.12872">
        <ele>386.3</ele>
        <time>2022-07-21T10:20:04Z</time>
      </trkpt>
      <trkpt lat="44.15686" lon="5.1287">
        <ele>386.4</ele>
        <time>2022-07-21T10:20:05Z</time>
      </trkpt>
      <trkpt lat="44.15689" lon="5.12869">
        <ele>386.5</ele>
        <time>2022-07-21T10:20:06Z</time>
      </trkpt>
      <trkpt lat="44.15692" lon="5.12867">
        <ele>386.6</ele>
        <time>2022-07-21T10:20:07Z</time>
      </trkpt>
      <trkpt lat="44.15694" lon="5.12866">
        <ele>386.7</ele>
        <time>2022-07-21T10:20:08Z</time>
      </trkpt>
      <trkpt lat="44.15697" lon="5.12864">
        <ele>386.8</ele>
        <time>2022-07-21T10:20:09Z</time>
      </trkpt>
      <trkpt lat="44.157" lon="5.12863">
        <ele>386.9</ele>
        <time>2022-07-21T10:20:10Z</time>
      </trkpt>
      <trkpt lat="44.15702" lon="5.12861">
        <ele>387.1</ele>
        <time>2022-07-21T10:20:11Z</time>
      </trkpt>
      <trkpt lat="44.15705" lon="5.1286">
        <ele>387.2</ele>
        <time>2022-07-21T10:20:12Z</time>
      </trkpt>
      <trkpt lat="44.15708" lon="5.12858">
        <ele>387.3</ele>
        <time>2022-07-21T10:20:13Z</time>
      </trkpt>
      <trkpt lat="44.1571" lon="5.12857">
        <ele>387.4</ele>
        <time>2022-07-21T10:20:14Z</time>
      </trkpt>
      <trkpt lat="44.15713" lon="5.12855">
        <ele>387.5</ele>
        <time>2022-07-21T10:20:15Z</time>
      </trkpt>
      <trkpt lat="44.15717" lon="5.12853">
        <ele>387.7</ele>
        <time>2022-07-21T10:20:16Z</time>
      </trkpt>
      <trkpt lat="44.15718" lon="5.12852">
        <ele>387.7</ele>
        <time>2022-07-21T10:20:17Z</time>
      </trkpt>
      <trkpt lat="44.15721" lon="5.1285">
        <ele>387.9</ele>
        <time>2022-07-21T10:20:18Z</time>
      </trkpt>
      <trkpt lat="44.15722" lon="5.1285">
        <ele>387.9</ele>
        <time>2022-07-21T10:20:19Z</time>
      </trkpt>
      <trkpt lat="44.15726" lon="5.12847">
        <ele>388.1</ele>
        <time>2022-07-21T10:20:20Z</time>
      </trkpt>
      <trkpt lat="44.15727" lon="5.12847">
        <ele>388.1</ele>
        <time>2022-07-21T10:20:21Z</time>
      </trkpt>
      <trkpt lat="44.1573" lon="5.12844">
        <ele>388.3</ele>
        <time>2022-07-21T10:20:22Z</time>
      </trkpt>
      <trkpt lat="44.15731" lon="5.12844">
        <ele>388.4</ele>
        <time>2022-07-21T10:20:23Z</time>
      </trkpt>
      <trkpt lat="44.15734" lon="5.12842">
        <ele>388.5</ele>
        <time>2022-07-21T10:20:24Z</time>
      </trkpt>
      <trkpt lat="44.15734" lon="5.12841">
        <ele>388.5</ele>
        <time>2022-07-21T10:20:25Z</time>
      </trkpt>
      <trkpt lat="44.15737" lon="5.12839">
        <ele>388.7</ele>
        <time>2022-07-21T10:20:26Z</time>
      </trkpt>
      <trkpt lat="44.15738" lon="5.12838">
        <ele>388.7</ele>
        <time>2022-07-21T10:20:27Z</time>
      </trkpt>
      <trkpt lat="44.15741" lon="5.12835">
        <ele>388.9</ele>
        <time>2022-07-21T10:20:28Z</time>
      </trkpt>
      <trkpt lat="44.15742" lon="5.12834">
        <ele>389</ele>
        <time>2022-07-21T10:20:29Z</time>
      </trkpt>
      <trkpt lat="44.15745" lon="5.12831">
        <ele>389.1</ele>
        <time>2022-07-21T10:20:30Z</time>
      </trkpt>
      <trkpt lat="44.15746" lon="5.1283">
        <ele>389.2</ele>
        <time>2022-07-21T10:20:31Z</time>
      </trkpt>
      <trkpt lat="44.15749" lon="5.12826">
        <ele>389.3</ele>
        <time>2022-07-21T10:20:32Z</time>
      </trkpt>
      <trkpt lat="44.1575" lon="5.12825">
        <ele>389.4</ele>
        <time>2022-07-21T10:20:33Z</time>
      </trkpt>
      <trkpt lat="44.15753" lon="5.12822">
        <ele>389.5</ele>
        <time>2022-07-21T10:20:34Z</time>
      </trkpt>
      <trkpt lat="44.15754" lon="5.12821">
        <ele>389.6</ele>
        <time>2022-07-21T10:20:35Z</time>
      </trkpt>
      <trkpt lat="44.15757" lon="5.12818">
        <ele>389.7</ele>
        <time>2022-07-21T10:20:36Z</time>
      </trkpt>
      <trkpt lat="44.15758" lon="5.12817">
        <ele>389.8</ele>
        <time>2022-07-21T10:20:37Z</time>
      </trkpt>
      <trkpt lat="44.15761" lon="5.12813">
        <ele>390</ele>
        <time>2022-07-21T10:20:38Z</time>
      </trkpt>
      <trkpt lat="44.15762" lon="5.12812">
        <ele>390</ele>
        <time>2022-07-21T10:20:39Z</time>
      </trkpt>
      <trkpt lat="44.15765" lon="5.12808">
        <ele>390.2</ele>
        <time>2022-07-21T10:20:40Z</time>
      </trkpt>
      <trkpt lat="44.15766" lon="5.12807">
        <ele>390.2</ele>
        <time>2022-07-21T10:20:41Z</time>
      </trkpt>
      <trkpt lat="44.15769" lon="5.12803">
        <ele>390.4</ele>
        <time>2022-07-21T10:20:42Z</time>
      </trkpt>
      <trkpt lat="44.15769" lon="5.12802">
        <ele>390.5</ele>
        <time>2022-07-21T10:20:43Z</time>
      </trkpt>
      <trkpt lat="44.15772" lon="5.12798">
        <ele>390.6</ele>
        <time>2022-07-21T10:20:44Z</time>
      </trkpt>
      <trkpt lat="44.15773" lon="5.12797">
        <ele>390.7</ele>
        <time>2022-07-21T10:20:45Z</time>
      </trkpt>
      <trkpt lat="44.15776" lon="5.12794">
        <ele>390.9</ele>
        <time>2022-07-21T10:20:46Z</time>
      </trkpt>
      <trkpt lat="44.15776" lon="5.12793">
        <ele>390.9</ele>
        <time>2022-07-21T10:20:47Z</time>
      </trkpt>
      <trkpt lat="44.15779" lon="5.12789">
        <ele>391.1</ele>
        <time>2022-07-21T10:20:48Z</time>
      </trkpt>
      <trkpt lat="44.1578" lon="5.12788">
        <ele>391.2</ele>
        <time>2022-07-21T10:20:49Z</time>
      </trkpt>
      <trkpt lat="44.15783" lon="5.12785">
        <ele>391.3</ele>
        <time>2022-07-21T10:20:50Z</time>
      </trkpt>
      <trkpt lat="44.15784" lon="5.12784">
        <ele>391.4</ele>
        <time>2022-07-21T10:20:51Z</time>
      </trkpt>
      <trkpt lat="44.15786" lon="5.12781">
        <ele>391.6</ele>
        <time>2022-07-21T10:20:52Z</time>
      </trkpt>
      <trkpt lat="44.15787" lon="5.12779">
        <ele>391.7</ele>
        <time>2022-07-21T10:20:53Z</time>
      </trkpt>
      <trkpt lat="44.1579" lon="5.12776">
        <ele>391.8</ele>
        <time>2022-07-21T10:20:54Z</time>
      </trkpt>
      <trkpt lat="44.1579" lon="5.12775">
        <ele>391.9</ele>
        <time>2022-07-21T10:20:55Z</time>
      </trkpt>
      <trkpt lat="44.15793" lon="5.12771">
        <ele>392.1</ele>
        <time>2022-07-21T10:20:56Z</time>
      </trkpt>
      <trkpt lat="44.15794" lon="5.1277">
        <ele>392.2</ele>
        <time>2022-07-21T10:20:57Z</time>
      </trkpt>
      <trkpt lat="44.15796" lon="5.12767">
        <ele>392.4</ele>
        <time>2022-07-21T10:20:58Z</time>
      </trkpt>
      <trkpt lat="44.15797" lon="5.12765">
        <ele>392.4</ele>
        <time>2022-07-21T10:20:59Z</time>
      </trkpt>
      <trkpt lat="44.158" lon="5.12762">
        <ele>392.6</ele>
        <time>2022-07-21T10:21:00Z</time>
      </trkpt>
      <trkpt lat="44.15801" lon="5.1276">
        <ele>392.7</ele>
        <time>2022-07-21T10:21:01Z</time>
      </trkpt>
      <trkpt lat="44.15803" lon="5.12757">
        <ele>392.9</ele>
        <time>2022-07-21T10:21:02Z</time>
      </trkpt>
      <trkpt lat="44.15804" lon="5.12755">
        <ele>393</ele>
        <time>2022-07-21T10:21:03Z</time>
      </trkpt>
      <trkpt lat="44.15807" lon="5.12752">
        <ele>393.2</ele>
        <time>2022-07-21T10:21:04Z</time>
      </trkpt>
      <trkpt lat="44.15808" lon="5.12751">
        <ele>393.2</ele>
        <time>2022-07-21T10:21:05Z</time>
      </trkpt>
      <trkpt lat="44.15811" lon="5.12747">
        <ele>393.4</ele>
        <time>2022-07-21T10:21:06Z</time>
      </trkpt>
      <trkpt lat="44.15811" lon="5.12746">
        <ele>393.5</ele>
        <time>2022-07-21T10:21:07Z</time>
      </trkpt>
      <trkpt lat="44.15814" lon="5.12742">
        <ele>393.7</ele>
        <time>2022-07-21T10:21:08Z</time>
      </trkpt>
      <trkpt lat="44.15815" lon="5.12741">
        <ele>393.7</ele>
        <time>2022-07-21T10:21:09Z</time>
      </trkpt>
      <trkpt lat="44.15818" lon="5.12738">
        <ele>393.9</ele>
        <time>2022-07-21T10:21:10Z</time>
      </trkpt>
      <trkpt lat="44.15819" lon="5.12736">
        <ele>394</ele>
        <time>2022-07-21T10:21:11Z</time>
      </trkpt>
      <trkpt lat="44.15822" lon="5.12733">
        <ele>394.2</ele>
        <time>2022-07-21T10:21:12Z</time>
      </trkpt>
      <trkpt lat="44.15823" lon="5.12732">
        <ele>394.3</ele>
        <time>2022-07-21T10:21:13Z</time>
      </trkpt>
      <trkpt lat="44.15825" lon="5.12728">
        <ele>394.5</ele>
        <time>2022-07-21T10:21:14Z</time>
      </trkpt>
      <trkpt lat="44.15826" lon="5.12727">
        <ele>394.5</ele>
        <time>2022-07-21T10:21:15Z</time>
      </trkpt>
      <trkpt lat="44.15829" lon="5.12724">
        <ele>394.7</ele>
        <time>2022-07-21T10:21:16Z</time>
      </trkpt>
      <trkpt lat="44.1583" lon="5.12723">
        <ele>394.8</ele>
        <time>2022-07-21T10:21:17Z</time>
      </trkpt>
      <trkpt lat="44.15833" lon="5.12719">
        <ele>395</ele>
        <time>2022-07-21T10:21:18Z</time>
      </trkpt>
      <trkpt lat="44.15834" lon="5.12718">
        <ele>395.1</ele>
        <time>2022-07-21T10:21:19Z</time>
      </trkpt>
      <trkpt lat="44.15836" lon="5.12715">
        <ele>395.3</ele>
        <time>2022-07-21T10:21:20Z</time>
      </trkpt>
      <trkpt lat="44.15837" lon="5.12714">
        <ele>395.3</ele>
        <time>2022-07-21T10:21:21Z</time>
      </trkpt>
      <trkpt lat="44.1584" lon="5.12711">
        <ele>395.5</ele>
        <time>2022-07-21T10:21:22Z</time>
      </trkpt>
      <trkpt lat="44.15841" lon="5.1271">
        <ele>395.6</ele>
        <time>2022-07-21T10:21:23Z</time>
      </trkpt>
      <trkpt lat="44.15844" lon="5.12707">
        <ele>395.8</ele>
        <time>2022-07-21T10:21:24Z</time>
      </trkpt>
      <trkpt lat="44.15845" lon="5.12706">
        <ele>395.9</ele>
        <time>2022-07-21T10:21:25Z</time>
      </trkpt>
      <trkpt lat="44.15847" lon="5.12703">
        <ele>396</ele>
        <time>2022-07-21T10:21:26Z</time>
      </trkpt>
      <trkpt lat="44.15848" lon="5.12702">
        <ele>396.1</ele>
        <time>2022-07-21T10:21:27Z</time>
      </trkpt>
      <trkpt lat="44.1585" lon="5.12699">
        <ele>396.3</ele>
        <time>2022-07-21T10:21:28Z</time>
      </trkpt>
      <trkpt lat="44.15851" lon="5.12698">
        <ele>396.3</ele>
        <time>2022-07-21T10:21:29Z</time>
      </trkpt>
      <trkpt lat="44.15853" lon="5.12694">
        <ele>396.5</ele>
        <time>2022-07-21T10:21:30Z</time>
      </trkpt>
      <trkpt lat="44.15854" lon="5.12693">
        <ele>396.6</ele>
        <time>2022-07-21T10:21:31Z</time>
      </trkpt>
      <trkpt lat="44.15857" lon="5.12689">
        <ele>396.8</ele>
        <time>2022-07-21T10:21:32Z</time>
      </trkpt>
      <trkpt lat="44.15858" lon="5.12688">
        <ele>396.9</ele>
        <time>2022-07-21T10:21:33Z</time>
      </trkpt>
      <trkpt lat="44.1586" lon="5.12684">
        <ele>397.1</ele>
        <time>2022-07-21T10:21:34Z</time>
      </trkpt>
      <trkpt lat="44.15861" lon="5.12683">
        <ele>397.1</ele>
        <time>2022-07-21T10:21:35Z</time>
      </trkpt>
      <trkpt lat="44.15864" lon="5.1268">
        <ele>397.3</ele>
        <time>2022-07-21T10:21:36Z</time>
      </trkpt>
      <trkpt lat="44.15865" lon="5.12678">
        <ele>397.4</ele>
        <time>2022-07-21T10:21:37Z</time>
      </trkpt>
      <trkpt lat="44.15868" lon="5.12675">
        <ele>397.6</ele>
        <time>2022-07-21T10:21:38Z</time>
      </trkpt>
      <trkpt lat="44.15868" lon="5.12674">
        <ele>397.7</ele>
        <time>2022-07-21T10:21:39Z</time>
      </trkpt>
      <trkpt lat="44.15871" lon="5.1267">
        <ele>397.9</ele>
        <time>2022-07-21T10:21:40Z</time>
      </trkpt>
      <trkpt lat="44.15872" lon="5.12669">
        <ele>397.9</ele>
        <time>2022-07-21T10:21:41Z</time>
      </trkpt>
      <trkpt lat="44.15875" lon="5.12666">
        <ele>398.1</ele>
        <time>2022-07-21T10:21:42Z</time>
      </trkpt>
      <trkpt lat="44.15876" lon="5.12664">
        <ele>398.1</ele>
        <time>2022-07-21T10:21:43Z</time>
      </trkpt>
      <trkpt lat="44.15878" lon="5.12662">
        <ele>398.3</ele>
        <time>2022-07-21T10:21:44Z</time>
      </trkpt>
      <trkpt lat="44.1588" lon="5.12659">
        <ele>398.4</ele>
        <time>2022-07-21T10:21:45Z</time>
      </trkpt>
      <trkpt lat="44.15882" lon="5.12657">
        <ele>398.5</ele>
        <time>2022-07-21T10:21:46Z</time>
      </trkpt>
      <trkpt lat="44.15884" lon="5.12654">
        <ele>398.6</ele>
        <time>2022-07-21T10:21:47Z</time>
      </trkpt>
      <trkpt lat="44.15886" lon="5.12652">
        <ele>398.7</ele>
        <time>2022-07-21T10:21:48Z</time>
      </trkpt>
      <trkpt lat="44.15888" lon="5.12649">
        <ele>398.9</ele>
        <time>2022-07-21T10:21:49Z</time>
      </trkpt>
      <trkpt lat="44.1589" lon="5.12646">
        <ele>399</ele>
        <time>2022-07-21T10:21:50Z</time>
      </trkpt>
      <trkpt lat="44.15892" lon="5.12644">
        <ele>399.1</ele>
        <time>2022-07-21T10:21:51Z</time>
      </trkpt>
      <trkpt lat="44.15895" lon="5.1264">
        <ele>399.3</ele>
        <time>2022-07-21T10:21:52Z</time>
      </trkpt>
      <trkpt lat="44.15896" lon="5.12638">
        <ele>399.3</ele>
        <time>2022-07-21T10:21:53Z</time>
      </trkpt>
      <trkpt lat="44.15898" lon="5.12635">
        <ele>399.5</ele>
        <time>2022-07-21T10:21:54Z</time>
      </trkpt>
      <trkpt lat="44.159" lon="5.12633">
        <ele>399.6</ele>
        <time>2022-07-21T10:21:55Z</time>
      </trkpt>
      <trkpt lat="44.15902" lon="5.1263">
        <ele>399.7</ele>
        <time>2022-07-21T10:21:56Z</time>
      </trkpt>
      <trkpt lat="44.15904" lon="5.12628">
        <ele>399.8</ele>
        <time>2022-07-21T10:21:57Z</time>
      </trkpt>
      <trkpt lat="44.15907" lon="5.12624">
        <ele>399.9</ele>
        <time>2022-07-21T10:21:58Z</time>
      </trkpt>
      <trkpt lat="44.15908" lon="5.12623">
        <ele>400</ele>
        <time>2022-07-21T10:21:59Z</time>
      </trkpt>
      <trkpt lat="44.15911" lon="5.12619">
        <ele>400.1</ele>
        <time>2022-07-21T10:22:00Z</time>
      </trkpt>
      <trkpt lat="44.15912" lon="5.12618">
        <ele>400.2</ele>
        <time>2022-07-21T10:22:01Z</time>
      </trkpt>
      <trkpt lat="44.15915" lon="5.12614">
        <ele>400.3</ele>
        <time>2022-07-21T10:22:02Z</time>
      </trkpt>
      <trkpt lat="44.15916" lon="5.12612">
        <ele>400.4</ele>
        <time>2022-07-21T10:22:03Z</time>
      </trkpt>
      <trkpt lat="44.15918" lon="5.1261">
        <ele>400.5</ele>
        <time>2022-07-21T10:22:04Z</time>
      </trkpt>
      <trkpt lat="44.1592" lon="5.12607">
        <ele>400.6</ele>
        <time>2022-07-21T10:22:05Z</time>
      </trkpt>
      <trkpt lat="44.15923" lon="5.12604">
        <ele>400.7</ele>
        <time>2022-07-21T10:22:06Z</time>
      </trkpt>
      <trkpt lat="44.15924" lon="5.12602">
        <ele>400.7</ele>
        <time>2022-07-21T10:22:07Z</time>
      </trkpt>
      <trkpt lat="44.15927" lon="5.12599">
        <ele>400.9</ele>
        <time>2022-07-21T10:22:08Z</time>
      </trkpt>
      <trkpt lat="44.15928" lon="5.12598">
        <ele>400.9</ele>
        <time>2022-07-21T10:22:09Z</time>
      </trkpt>
      <trkpt lat="44.1593" lon="5.12596">
        <ele>401</ele>
        <time>2022-07-21T10:22:10Z</time>
      </trkpt>
      <trkpt lat="44.15933" lon="5.12593">
        <ele>401.1</ele>
        <time>2022-07-21T10:22:11Z</time>
      </trkpt>
      <trkpt lat="44.15935" lon="5.12591">
        <ele>401.2</ele>
        <time>2022-07-21T10:22:12Z</time>
      </trkpt>
      <trkpt lat="44.15938" lon="5.12589">
        <ele>401.3</ele>
        <time>2022-07-21T10:22:13Z</time>
      </trkpt>
      <trkpt lat="44.1594" lon="5.12587">
        <ele>401.3</ele>
        <time>2022-07-21T10:22:14Z</time>
      </trkpt>
      <trkpt lat="44.15943" lon="5.12585">
        <ele>401.4</ele>
        <time>2022-07-21T10:22:15Z</time>
      </trkpt>
      <trkpt lat="44.15946" lon="5.12583">
        <ele>401.5</ele>
        <time>2022-07-21T10:22:16Z</time>
      </trkpt>
      <trkpt lat="44.15948" lon="5.12582">
        <ele>401.6</ele>
        <time>2022-07-21T10:22:17Z</time>
      </trkpt>
      <trkpt lat="44.15951" lon="5.1258">
        <ele>401.7</ele>
        <time>2022-07-21T10:22:18Z</time>
      </trkpt>
      <trkpt lat="44.15954" lon="5.12579">
        <ele>401.8</ele>
        <time>2022-07-21T10:22:19Z</time>
      </trkpt>
      <trkpt lat="44.15957" lon="5.12578">
        <ele>401.9</ele>
        <time>2022-07-21T10:22:20Z</time>
      </trkpt>
      <trkpt lat="44.15959" lon="5.12577">
        <ele>402</ele>
        <time>2022-07-21T10:22:21Z</time>
      </trkpt>
      <trkpt lat="44.15962" lon="5.12577">
        <ele>402</ele>
        <time>2022-07-21T10:22:22Z</time>
      </trkpt>
      <trkpt lat="44.15965" lon="5.12576">
        <ele>402.1</ele>
        <time>2022-07-21T10:22:23Z</time>
      </trkpt>
      <trkpt lat="44.15968" lon="5.12576">
        <ele>402.1</ele>
        <time>2022-07-21T10:22:24Z</time>
      </trkpt>
      <trkpt lat="44.15971" lon="5.12576">
        <ele>402.2</ele>
        <time>2022-07-21T10:22:25Z</time>
      </trkpt>
      <trkpt lat="44.15973" lon="5.12577">
        <ele>402.2</ele>
        <time>2022-07-21T10:22:26Z</time>
      </trkpt>
      <trkpt lat="44.15976" lon="5.12577">
        <ele>402.3</ele>
        <time>2022-07-21T10:22:27Z</time>
      </trkpt>
      <trkpt lat="44.15979" lon="5.12578">
        <ele>402.4</ele>
        <time>2022-07-21T10:22:28Z</time>
      </trkpt>
      <trkpt lat="44.15982" lon="5.12579">
        <ele>402.4</ele>
        <time>2022-07-21T10:22:29Z</time>
      </trkpt>
      <trkpt lat="44.15985" lon="5.12581">
        <ele>402.5</ele>
        <time>2022-07-21T10:22:30Z</time>
      </trkpt>
      <trkpt lat="44.15988" lon="5.12582">
        <ele>402.6</ele>
        <time>2022-07-21T10:22:31Z</time>
      </trkpt>
      <trkpt lat="44.15991" lon="5.12584">
        <ele>402.7</ele>
        <time>2022-07-21T10:22:32Z</time>
      </trkpt>
      <trkpt lat="44.15994" lon="5.12585">
        <ele>402.8</ele>
        <time>2022-07-21T10:22:33Z</time>
      </trkpt>
      <trkpt lat="44.15997" lon="5.12587">
        <ele>402.8</ele>
        <time>2022-07-21T10:22:34Z</time>
      </trkpt>
      <trkpt lat="44.15999" lon="5.1259">
        <ele>402.9</ele>
        <time>2022-07-21T10:22:35Z</time>
      </trkpt>
      <trkpt lat="44.16002" lon="5.12592">
        <ele>403</ele>
        <time>2022-07-21T10:22:36Z</time>
      </trkpt>
      <trkpt lat="44.16004" lon="5.12594">
        <ele>403.1</ele>
        <time>2022-07-21T10:22:37Z</time>
      </trkpt>
      <trkpt lat="44.16007" lon="5.12597">
        <ele>403.1</ele>
        <time>2022-07-21T10:22:38Z</time>
      </trkpt>
      <trkpt lat="44.16009" lon="5.12599">
        <ele>403.2</ele>
        <time>2022-07-21T10:22:39Z</time>
      </trkpt>
      <trkpt lat="44.16011" lon="5.12601">
        <ele>403.3</ele>
        <time>2022-07-21T10:22:40Z</time>
      </trkpt>
      <trkpt lat="44.16014" lon="5.12604">
        <ele>403.4</ele>
        <time>2022-07-21T10:22:41Z</time>
      </trkpt>
      <trkpt lat="44.16016" lon="5.12606">
        <ele>403.4</ele>
        <time>2022-07-21T10:22:42Z</time>
      </trkpt>
      <trkpt lat="44.16019" lon="5.12609">
        <ele>403.5</ele>
        <time>2022-07-21T10:22:43Z</time>
      </trkpt>
      <trkpt lat="44.16021" lon="5.12612">
        <ele>403.6</ele>
        <time>2022-07-21T10:22:44Z</time>
      </trkpt>
      <trkpt lat="44.16024" lon="5.12614">
        <ele>403.7</ele>
        <time>2022-07-21T10:22:45Z</time>
      </trkpt>
      <trkpt lat="44.16026" lon="5.12617">
        <ele>403.7</ele>
        <time>2022-07-21T10:22:46Z</time>
      </trkpt>
      <trkpt lat="44.16029" lon="5.12619">
        <ele>403.8</ele>
        <time>2022-07-21T10:22:47Z</time>
      </trkpt>
      <trkpt lat="44.16032" lon="5.12622">
        <ele>403.9</ele>
        <time>2022-07-21T10:22:48Z</time>
      </trkpt>
      <trkpt lat="44.16035" lon="5.12624">
        <ele>404</ele>
        <time>2022-07-21T10:22:49Z</time>
      </trkpt>
      <trkpt lat="44.16038" lon="5.12626">
        <ele>404</ele>
        <time>2022-07-21T10:22:50Z</time>
      </trkpt>
      <trkpt lat="44.16041" lon="5.12629">
        <ele>404.1</ele>
        <time>2022-07-21T10:22:51Z</time>
      </trkpt>
      <trkpt lat="44.16043" lon="5.12631">
        <ele>404.2</ele>
        <time>2022-07-21T10:22:52Z</time>
      </trkpt>
      <trkpt lat="44.16046" lon="5.12633">
        <ele>404.3</ele>
        <time>2022-07-21T10:22:53Z</time>
      </trkpt>
      <trkpt lat="44.16049" lon="5.12636">
        <ele>404.4</ele>
        <time>2022-07-21T10:22:54Z</time>
      </trkpt>
      <trkpt lat="44.16052" lon="5.12638">
        <ele>404.4</ele>
        <time>2022-07-21T10:22:55Z</time>
      </trkpt>
      <trkpt lat="44.16055" lon="5.12641">
        <ele>404.5</ele>
        <time>2022-07-21T10:22:56Z</time>
      </trkpt>
      <trkpt lat="44.16058" lon="5.12643">
        <ele>404.5</ele>
        <time>2022-07-21T10:22:57Z</time>
      </trkpt>
      <trkpt lat="44.1606" lon="5.12645">
        <ele>404.6</ele>
        <time>2022-07-21T10:22:58Z</time>
      </trkpt>
      <trkpt lat="44.16063" lon="5.12648">
        <ele>404.6</ele>
        <time>2022-07-21T10:22:59Z</time>
      </trkpt>
      <trkpt lat="44.16065" lon="5.1265">
        <ele>404.6</ele>
        <time>2022-07-21T10:23:00Z</time>
      </trkpt>
      <trkpt lat="44.16068" lon="5.12653">
        <ele>404.7</ele>
        <time>2022-07-21T10:23:01Z</time>
      </trkpt>
      <trkpt lat="44.16071" lon="5.12656">
        <ele>404.7</ele>
        <time>2022-07-21T10:23:02Z</time>
      </trkpt>
      <trkpt lat="44.16073" lon="5.12659">
        <ele>404.7</ele>
        <time>2022-07-21T10:23:03Z</time>
      </trkpt>
      <trkpt lat="44.16076" lon="5.12663">
        <ele>404.6</ele>
        <time>2022-07-21T10:23:04Z</time>
      </trkpt>
      <trkpt lat="44.16079" lon="5.12666">
        <ele>404.6</ele>
        <time>2022-07-21T10:23:05Z</time>
      </trkpt>
      <trkpt lat="44.16081" lon="5.12669">
        <ele>404.5</ele>
        <time>2022-07-21T10:23:06Z</time>
      </trkpt>
      <trkpt lat="44.16084" lon="5.12673">
        <ele>404.5</ele>
        <time>2022-07-21T10:23:07Z</time>
      </trkpt>
      <trkpt lat="44.16087" lon="5.12677">
        <ele>404.4</ele>
        <time>2022-07-21T10:23:08Z</time>
      </trkpt>
      <trkpt lat="44.16089" lon="5.12682">
        <ele>404.3</ele>
        <time>2022-07-21T10:23:09Z</time>
      </trkpt>
      <trkpt lat="44.16092" lon="5.12687">
        <ele>404.2</ele>
        <time>2022-07-21T10:23:10Z</time>
      </trkpt>
      <trkpt lat="44.16095" lon="5.12692">
        <ele>404.1</ele>
        <time>2022-07-21T10:23:11Z</time>
      </trkpt>
      <trkpt lat="44.16098" lon="5.12698">
        <ele>404</ele>
        <time>2022-07-21T10:23:12Z</time>
      </trkpt>
      <trkpt lat="44.161" lon="5.12704">
        <ele>403.8</ele>
        <time>2022-07-21T10:23:13Z</time>
      </trkpt>
      <trkpt lat="44.16103" lon="5.1271">
        <ele>403.7</ele>
        <time>2022-07-21T10:23:14Z</time>
      </trkpt>
      <trkpt lat="44.16106" lon="5.12717">
        <ele>403.5</ele>
        <time>2022-07-21T10:23:15Z</time>
      </trkpt>
      <trkpt lat="44.16109" lon="5.12725">
        <ele>403.3</ele>
        <time>2022-07-21T10:23:16Z</time>
      </trkpt>
      <trkpt lat="44.16112" lon="5.12733">
        <ele>403.2</ele>
        <time>2022-07-21T10:23:17Z</time>
      </trkpt>
      <trkpt lat="44.16115" lon="5.1274">
        <ele>403.1</ele>
        <time>2022-07-21T10:23:18Z</time>
      </trkpt>
      <trkpt lat="44.16117" lon="5.12748">
        <ele>402.9</ele>
        <time>2022-07-21T10:23:19Z</time>
      </trkpt>
      <trkpt lat="44.1612" lon="5.12755">
        <ele>402.8</ele>
        <time>2022-07-21T10:23:20Z</time>
      </trkpt>
      <trkpt lat="44.16123" lon="5.12763">
        <ele>402.7</ele>
        <time>2022-07-21T10:23:21Z</time>
      </trkpt>
      <trkpt lat="44.16125" lon="5.12771">
        <ele>402.5</ele>
        <time>2022-07-21T10:23:22Z</time>
      </trkpt>
      <trkpt lat="44.16127" lon="5.1278">
        <ele>402.4</ele>
        <time>2022-07-21T10:23:23Z</time>
      </trkpt>
      <trkpt lat="44.1613" lon="5.12787">
        <ele>402.2</ele>
        <time>2022-07-21T10:23:24Z</time>
      </trkpt>
      <trkpt lat="44.16132" lon="5.12794">
        <ele>402.1</ele>
        <time>2022-07-21T10:23:25Z</time>
      </trkpt>
      <trkpt lat="44.16134" lon="5.12803">
        <ele>401.9</ele>
        <time>2022-07-21T10:23:26Z</time>
      </trkpt>
      <trkpt lat="44.16137" lon="5.1281">
        <ele>401.8</ele>
        <time>2022-07-21T10:23:27Z</time>
      </trkpt>
      <trkpt lat="44.16139" lon="5.12817">
        <ele>401.7</ele>
        <time>2022-07-21T10:23:28Z</time>
      </trkpt>
      <trkpt lat="44.16141" lon="5.12824">
        <ele>401.5</ele>
        <time>2022-07-21T10:23:29Z</time>
      </trkpt>
      <trkpt lat="44.16145" lon="5.12831">
        <ele>401.3</ele>
        <time>2022-07-21T10:23:30Z</time>
      </trkpt>
      <trkpt lat="44.16149" lon="5.12837">
        <ele>401.2</ele>
        <time>2022-07-21T10:23:31Z</time>
      </trkpt>
      <trkpt lat="44.16153" lon="5.12843">
        <ele>401</ele>
        <time>2022-07-21T10:23:32Z</time>
      </trkpt>
      <trkpt lat="44.16157" lon="5.1285">
        <ele>400.8</ele>
        <time>2022-07-21T10:23:33Z</time>
      </trkpt>
      <trkpt lat="44.16161" lon="5.12856">
        <ele>400.7</ele>
        <time>2022-07-21T10:23:34Z</time>
      </trkpt>
      <trkpt lat="44.16165" lon="5.12862">
        <ele>400.6</ele>
        <time>2022-07-21T10:23:35Z</time>
      </trkpt>
      <trkpt lat="44.16169" lon="5.12868">
        <ele>400.5</ele>
        <time>2022-07-21T10:23:36Z</time>
      </trkpt>
      <trkpt lat="44.16172" lon="5.12873">
        <ele>400.4</ele>
        <time>2022-07-21T10:23:37Z</time>
      </trkpt>
      <trkpt lat="44.16177" lon="5.12878">
        <ele>400.3</ele>
        <time>2022-07-21T10:23:38Z</time>
      </trkpt>
      <trkpt lat="44.16181" lon="5.12882">
        <ele>400.3</ele>
        <time>2022-07-21T10:23:39Z</time>
      </trkpt>
      <trkpt lat="44.16185" lon="5.12887">
        <ele>400.2</ele>
        <time>2022-07-21T10:23:40Z</time>
      </trkpt>
      <trkpt lat="44.16189" lon="5.12892">
        <ele>400.2</ele>
        <time>2022-07-21T10:23:41Z</time>
      </trkpt>
      <trkpt lat="44.16194" lon="5.12897">
        <ele>400.1</ele>
        <time>2022-07-21T10:23:42Z</time>
      </trkpt>
      <trkpt lat="44.16199" lon="5.12902">
        <ele>400.1</ele>
        <time>2022-07-21T10:23:43Z</time>
      </trkpt>
      <trkpt lat="44.16204" lon="5.12907">
        <ele>400</ele>
        <time>2022-07-21T10:23:44Z</time>
      </trkpt>
      <trkpt lat="44.16208" lon="5.12912">
        <ele>400</ele>
        <time>2022-07-21T10:23:45Z</time>
      </trkpt>
      <trkpt lat="44.16213" lon="5.12917">
        <ele>399.9</ele>
        <time>2022-07-21T10:23:46Z</time>
      </trkpt>
      <trkpt lat="44.16218" lon="5.12922">
        <ele>399.9</ele>
        <time>2022-07-21T10:23:47Z</time>
      </trkpt>
      <trkpt lat="44.16222" lon="5.12925">
        <ele>399.8</ele>
        <time>2022-07-21T10:23:48Z</time>
      </trkpt>
      <trkpt lat="44.16226" lon="5.1293">
        <ele>399.8</ele>
        <time>2022-07-21T10:23:49Z</time>
      </trkpt>
      <trkpt lat="44.1623" lon="5.12934">
        <ele>399.7</ele>
        <time>2022-07-21T10:23:50Z</time>
      </trkpt>
      <trkpt lat="44.16234" lon="5.12939">
        <ele>399.7</ele>
        <time>2022-07-21T10:23:51Z</time>
      </trkpt>
      <trkpt lat="44.16239" lon="5.12942">
        <ele>399.6</ele>
        <time>2022-07-21T10:23:52Z</time>
      </trkpt>
      <trkpt lat="44.16244" lon="5.12945">
        <ele>399.6</ele>
        <time>2022-07-21T10:23:53Z</time>
      </trkpt>
      <trkpt lat="44.16248" lon="5.12949">
        <ele>399.5</ele>
        <time>2022-07-21T10:23:54Z</time>
      </trkpt>
      <trkpt lat="44.16253" lon="5.12953">
        <ele>399.4</ele>
        <time>2022-07-21T10:23:55Z</time>
      </trkpt>
      <trkpt lat="44.16258" lon="5.12958">
        <ele>399.4</ele>
        <time>2022-07-21T10:23:56Z</time>
      </trkpt>
      <trkpt lat="44.16262" lon="5.12963">
        <ele>399.3</ele>
        <time>2022-07-21T10:23:57Z</time>
      </trkpt>
      <trkpt lat="44.16267" lon="5.12967">
        <ele>399.3</ele>
        <time>2022-07-21T10:23:58Z</time>
      </trkpt>
      <trkpt lat="44.16272" lon="5.12971">
        <ele>399.3</ele>
        <time>2022-07-21T10:23:59Z</time>
      </trkpt>
      <trkpt lat="44.16277" lon="5.12974">
        <ele>399.2</ele>
        <time>2022-07-21T10:24:00Z</time>
      </trkpt>
      <trkpt lat="44.16282" lon="5.12978">
        <ele>399.2</ele>
        <time>2022-07-21T10:24:01Z</time>
      </trkpt>
      <trkpt lat="44.16286" lon="5.12982">
        <ele>399.2</ele>
        <time>2022-07-21T10:24:02Z</time>
      </trkpt>
      <trkpt lat="44.16292" lon="5.12986">
        <ele>399.1</ele>
        <time>2022-07-21T10:24:03Z</time>
      </trkpt>
      <trkpt lat="44.16298" lon="5.12988">
        <ele>399</ele>
        <time>2022-07-21T10:24:04Z</time>
      </trkpt>
      <trkpt lat="44.16304" lon="5.12988">
        <ele>399</ele>
        <time>2022-07-21T10:24:05Z</time>
      </trkpt>
      <trkpt lat="44.1631" lon="5.1299">
        <ele>398.9</ele>
        <time>2022-07-21T10:24:06Z</time>
      </trkpt>
      <trkpt lat="44.16316" lon="5.1299">
        <ele>398.8</ele>
        <time>2022-07-21T10:24:07Z</time>
      </trkpt>
      <trkpt lat="44.16323" lon="5.12989">
        <ele>398.6</ele>
        <time>2022-07-21T10:24:08Z</time>
      </trkpt>
      <trkpt lat="44.16329" lon="5.12986">
        <ele>398.5</ele>
        <time>2022-07-21T10:24:09Z</time>
      </trkpt>
      <trkpt lat="44.16335" lon="5.12984">
        <ele>398.3</ele>
        <time>2022-07-21T10:24:10Z</time>
      </trkpt>
      <trkpt lat="44.16342" lon="5.12979">
        <ele>398.1</ele>
        <time>2022-07-21T10:24:11Z</time>
      </trkpt>
      <trkpt lat="44.16347" lon="5.12975">
        <ele>398</ele>
        <time>2022-07-21T10:24:12Z</time>
      </trkpt>
      <trkpt lat="44.16353" lon="5.1297">
        <ele>397.8</ele>
        <time>2022-07-21T10:24:13Z</time>
      </trkpt>
      <trkpt lat="44.16358" lon="5.12963">
        <ele>397.6</ele>
        <time>2022-07-21T10:24:14Z</time>
      </trkpt>
      <trkpt lat="44.16363" lon="5.12956">
        <ele>397.5</ele>
        <time>2022-07-21T10:24:15Z</time>
      </trkpt>
      <trkpt lat="44.16367" lon="5.12949">
        <ele>397.3</ele>
        <time>2022-07-21T10:24:16Z</time>
      </trkpt>
      <trkpt lat="44.16371" lon="5.12941">
        <ele>397.1</ele>
        <time>2022-07-21T10:24:17Z</time>
      </trkpt>
      <trkpt lat="44.16375" lon="5.12933">
        <ele>397</ele>
        <time>2022-07-21T10:24:18Z</time>
      </trkpt>
      <trkpt lat="44.16378" lon="5.12924">
        <ele>396.8</ele>
        <time>2022-07-21T10:24:19Z</time>
      </trkpt>
      <trkpt lat="44.16382" lon="5.12915">
        <ele>396.5</ele>
        <time>2022-07-21T10:24:20Z</time>
      </trkpt>
      <trkpt lat="44.16385" lon="5.12906">
        <ele>396.3</ele>
        <time>2022-07-21T10:24:21Z</time>
      </trkpt>
      <trkpt lat="44.16388" lon="5.12897">
        <ele>396.1</ele>
        <time>2022-07-21T10:24:22Z</time>
      </trkpt>
      <trkpt lat="44.16392" lon="5.12888">
        <ele>395.9</ele>
        <time>2022-07-21T10:24:23Z</time>
      </trkpt>
      <trkpt lat="44.16396" lon="5.12879">
        <ele>395.7</ele>
        <time>2022-07-21T10:24:24Z</time>
      </trkpt>
      <trkpt lat="44.16399" lon="5.1287">
        <ele>395.5</ele>
        <time>2022-07-21T10:24:25Z</time>
      </trkpt>
      <trkpt lat="44.16403" lon="5.12861">
        <ele>395.3</ele>
        <time>2022-07-21T10:24:26Z</time>
      </trkpt>
      <trkpt lat="44.16407" lon="5.12851">
        <ele>395.1</ele>
        <time>2022-07-21T10:24:27Z</time>
      </trkpt>
      <trkpt lat="44.1641" lon="5.12841">
        <ele>394.9</ele>
        <time>2022-07-21T10:24:28Z</time>
      </trkpt>
      <trkpt lat="44.16415" lon="5.12832">
        <ele>394.6</ele>
        <time>2022-07-21T10:24:29Z</time>
      </trkpt>
      <trkpt lat="44.16419" lon="5.12822">
        <ele>394.4</ele>
        <time>2022-07-21T10:24:30Z</time>
      </trkpt>
      <trkpt lat="44.16423" lon="5.12813">
        <ele>394.2</ele>
        <time>2022-07-21T10:24:31Z</time>
      </trkpt>
      <trkpt lat="44.16427" lon="5.12804">
        <ele>394</ele>
        <time>2022-07-21T10:24:32Z</time>
      </trkpt>
      <trkpt lat="44.16431" lon="5.12794">
        <ele>393.8</ele>
        <time>2022-07-21T10:24:33Z</time>
      </trkpt>
      <trkpt lat="44.16436" lon="5.12785">
        <ele>393.5</ele>
        <time>2022-07-21T10:24:34Z</time>
      </trkpt>
      <trkpt lat="44.16441" lon="5.12777">
        <ele>393.3</ele>
        <time>2022-07-21T10:24:35Z</time>
      </trkpt>
      <trkpt lat="44.16446" lon="5.12769">
        <ele>393.1</ele>
        <time>2022-07-21T10:24:36Z</time>
      </trkpt>
      <trkpt lat="44.16451" lon="5.12762">
        <ele>392.8</ele>
        <time>2022-07-21T10:24:37Z</time>
      </trkpt>
      <trkpt lat="44.16456" lon="5.12753">
        <ele>392.6</ele>
        <time>2022-07-21T10:24:38Z</time>
      </trkpt>
      <trkpt lat="44.16461" lon="5.12746">
        <ele>392.3</ele>
        <time>2022-07-21T10:24:39Z</time>
      </trkpt>
      <trkpt lat="44.16467" lon="5.12738">
        <ele>392</ele>
        <time>2022-07-21T10:24:40Z</time>
      </trkpt>
      <trkpt lat="44.16472" lon="5.12731">
        <ele>391.8</ele>
        <time>2022-07-21T10:24:41Z</time>
      </trkpt>
      <trkpt lat="44.16478" lon="5.12724">
        <ele>391.6</ele>
        <time>2022-07-21T10:24:42Z</time>
      </trkpt>
      <trkpt lat="44.16484" lon="5.12719">
        <ele>391.4</ele>
        <time>2022-07-21T10:24:43Z</time>
      </trkpt>
      <trkpt lat="44.1649" lon="5.12712">
        <ele>391.2</ele>
        <time>2022-07-21T10:24:44Z</time>
      </trkpt>
      <trkpt lat="44.16496" lon="5.12706">
        <ele>391</ele>
        <time>2022-07-21T10:24:45Z</time>
      </trkpt>
      <trkpt lat="44.16503" lon="5.12699">
        <ele>390.7</ele>
        <time>2022-07-21T10:24:46Z</time>
      </trkpt>
      <trkpt lat="44.16509" lon="5.12694">
        <ele>390.5</ele>
        <time>2022-07-21T10:24:47Z</time>
      </trkpt>
      <trkpt lat="44.16516" lon="5.12689">
        <ele>390.3</ele>
        <time>2022-07-21T10:24:48Z</time>
      </trkpt>
      <trkpt lat="44.16523" lon="5.12683">
        <ele>390.1</ele>
        <time>2022-07-21T10:24:49Z</time>
      </trkpt>
      <trkpt lat="44.16529" lon="5.12678">
        <ele>389.9</ele>
        <time>2022-07-21T10:24:50Z</time>
      </trkpt>
      <trkpt lat="44.16537" lon="5.12673">
        <ele>389.6</ele>
        <time>2022-07-21T10:24:51Z</time>
      </trkpt>
      <trkpt lat="44.16544" lon="5.12669">
        <ele>389.4</ele>
        <time>2022-07-21T10:24:52Z</time>
      </trkpt>
      <trkpt lat="44.16552" lon="5.12666">
        <ele>389.1</ele>
        <time>2022-07-21T10:24:53Z</time>
      </trkpt>
      <trkpt lat="44.16559" lon="5.12662">
        <ele>388.9</ele>
        <time>2022-07-21T10:24:54Z</time>
      </trkpt>
      <trkpt lat="44.16566" lon="5.12658">
        <ele>388.7</ele>
        <time>2022-07-21T10:24:55Z</time>
      </trkpt>
      <trkpt lat="44.16574" lon="5.12655">
        <ele>388.4</ele>
        <time>2022-07-21T10:24:56Z</time>
      </trkpt>
      <trkpt lat="44.16583" lon="5.12652">
        <ele>388.2</ele>
        <time>2022-07-21T10:24:57Z</time>
      </trkpt>
      <trkpt lat="44.16591" lon="5.12648">
        <ele>387.9</ele>
        <time>2022-07-21T10:24:58Z</time>
      </trkpt>
      <trkpt lat="44.16599" lon="5.12646">
        <ele>387.7</ele>
        <time>2022-07-21T10:24:59Z</time>
      </trkpt>
      <trkpt lat="44.16607" lon="5.12644">
        <ele>387.4</ele>
        <time>2022-07-21T10:25:00Z</time>
      </trkpt>
      <trkpt lat="44.16616" lon="5.12641">
        <ele>387.2</ele>
        <time>2022-07-21T10:25:01Z</time>
      </trkpt>
      <trkpt lat="44.16625" lon="5.12638">
        <ele>386.9</ele>
        <time>2022-07-21T10:25:02Z</time>
      </trkpt>
      <trkpt lat="44.16633" lon="5.12635">
        <ele>386.7</ele>
        <time>2022-07-21T10:25:03Z</time>
      </trkpt>
      <trkpt lat="44.16641" lon="5.12633">
        <ele>386.5</ele>
        <time>2022-07-21T10:25:04Z</time>
      </trkpt>
      <trkpt lat="44.16649" lon="5.12627">
        <ele>386.2</ele>
        <time>2022-07-21T10:25:05Z</time>
      </trkpt>
      <trkpt lat="44.16658" lon="5.12624">
        <ele>386</ele>
        <time>2022-07-21T10:25:06Z</time>
      </trkpt>
      <trkpt lat="44.16666" lon="5.12622">
        <ele>385.7</ele>
        <time>2022-07-21T10:25:07Z</time>
      </trkpt>
      <trkpt lat="44.16675" lon="5.1262">
        <ele>385.5</ele>
        <time>2022-07-21T10:25:08Z</time>
      </trkpt>
      <trkpt lat="44.16683" lon="5.12619">
        <ele>385.3</ele>
        <time>2022-07-21T10:25:09Z</time>
      </trkpt>
      <trkpt lat="44.16692" lon="5.12616">
        <ele>385</ele>
        <time>2022-07-21T10:25:10Z</time>
      </trkpt>
      <trkpt lat="44.16701" lon="5.12614">
        <ele>384.7</ele>
        <time>2022-07-21T10:25:11Z</time>
      </trkpt>
      <trkpt lat="44.1671" lon="5.12611">
        <ele>384.5</ele>
        <time>2022-07-21T10:25:12Z</time>
      </trkpt>
      <trkpt lat="44.16719" lon="5.12609">
        <ele>384.2</ele>
        <time>2022-07-21T10:25:13Z</time>
      </trkpt>
      <trkpt lat="44.16728" lon="5.12606">
        <ele>383.9</ele>
        <time>2022-07-21T10:25:14Z</time>
      </trkpt>
      <trkpt lat="44.16737" lon="5.12605">
        <ele>383.7</ele>
        <time>2022-07-21T10:25:15Z</time>
      </trkpt>
      <trkpt lat="44.16746" lon="5.12601">
        <ele>383.4</ele>
        <time>2022-07-21T10:25:16Z</time>
      </trkpt>
      <trkpt lat="44.16755" lon="5.12598">
        <ele>383.1</ele>
        <time>2022-07-21T10:25:17Z</time>
      </trkpt>
      <trkpt lat="44.16764" lon="5.12597">
        <ele>382.9</ele>
        <time>2022-07-21T10:25:18Z</time>
      </trkpt>
      <trkpt lat="44.16772" lon="5.12595">
        <ele>382.7</ele>
        <time>2022-07-21T10:25:19Z</time>
      </trkpt>
      <trkpt lat="44.16782" lon="5.12593">
        <ele>382.4</ele>
        <time>2022-07-21T10:25:20Z</time>
      </trkpt>
      <trkpt lat="44.16791" lon="5.1259">
        <ele>382.1</ele>
        <time>2022-07-21T10:25:21Z</time>
      </trkpt>
      <trkpt lat="44.168" lon="5.12588">
        <ele>381.9</ele>
        <time>2022-07-21T10:25:22Z</time>
      </trkpt>
      <trkpt lat="44.16809" lon="5.12586">
        <ele>381.6</ele>
        <time>2022-07-21T10:25:23Z</time>
      </trkpt>
      <trkpt lat="44.16818" lon="5.12584">
        <ele>381.3</ele>
        <time>2022-07-21T10:25:24Z</time>
      </trkpt>
      <trkpt lat="44.16827" lon="5.1258">
        <ele>381</ele>
        <time>2022-07-21T10:25:25Z</time>
      </trkpt>
      <trkpt lat="44.16837" lon="5.12579">
        <ele>380.6</ele>
        <time>2022-07-21T10:25:26Z</time>
      </trkpt>
      <trkpt lat="44.16846" lon="5.12575">
        <ele>380.3</ele>
        <time>2022-07-21T10:25:27Z</time>
      </trkpt>
      <trkpt lat="44.16856" lon="5.12572">
        <ele>380</ele>
        <time>2022-07-21T10:25:28Z</time>
      </trkpt>
      <trkpt lat="44.16864" lon="5.1257">
        <ele>379.8</ele>
        <time>2022-07-21T10:25:29Z</time>
      </trkpt>
      <trkpt lat="44.16874" lon="5.12567">
        <ele>379.5</ele>
        <time>2022-07-21T10:25:30Z</time>
      </trkpt>
      <trkpt lat="44.16883" lon="5.12564">
        <ele>379.2</ele>
        <time>2022-07-21T10:25:31Z</time>
      </trkpt>
      <trkpt lat="44.16892" lon="5.12562">
        <ele>378.9</ele>
        <time>2022-07-21T10:25:32Z</time>
      </trkpt>
      <trkpt lat="44.16902" lon="5.12559">
        <ele>378.7</ele>
        <time>2022-07-21T10:25:33Z</time>
      </trkpt>
      <trkpt lat="44.16911" lon="5.12557">
        <ele>378.4</ele>
        <time>2022-07-21T10:25:34Z</time>
      </trkpt>
      <trkpt lat="44.16921" lon="5.12554">
        <ele>378.1</ele>
        <time>2022-07-21T10:25:35Z</time>
      </trkpt>
      <trkpt lat="44.1693" lon="5.12551">
        <ele>377.7</ele>
        <time>2022-07-21T10:25:36Z</time>
      </trkpt>
      <trkpt lat="44.1694" lon="5.12549">
        <ele>377.4</ele>
        <time>2022-07-21T10:25:37Z</time>
      </trkpt>
      <trkpt lat="44.1695" lon="5.12546">
        <ele>377.1</ele>
        <time>2022-07-21T10:25:38Z</time>
      </trkpt>
      <trkpt lat="44.16959" lon="5.12544">
        <ele>376.9</ele>
        <time>2022-07-21T10:25:39Z</time>
      </trkpt>
      <trkpt lat="44.16968" lon="5.12542">
        <ele>376.6</ele>
        <time>2022-07-21T10:25:40Z</time>
      </trkpt>
      <trkpt lat="44.16977" lon="5.1254">
        <ele>376.3</ele>
        <time>2022-07-21T10:25:41Z</time>
      </trkpt>
      <trkpt lat="44.16987" lon="5.12538">
        <ele>376</ele>
        <time>2022-07-21T10:25:42Z</time>
      </trkpt>
      <trkpt lat="44.16996" lon="5.12536">
        <ele>375.8</ele>
        <time>2022-07-21T10:25:43Z</time>
      </trkpt>
      <trkpt lat="44.17006" lon="5.12534">
        <ele>375.4</ele>
        <time>2022-07-21T10:25:44Z</time>
      </trkpt>
      <trkpt lat="44.17015" lon="5.12533">
        <ele>375.2</ele>
        <time>2022-07-21T10:25:45Z</time>
      </trkpt>
      <trkpt lat="44.17025" lon="5.12531">
        <ele>374.9</ele>
        <time>2022-07-21T10:25:46Z</time>
      </trkpt>
      <trkpt lat="44.17034" lon="5.1253">
        <ele>374.6</ele>
        <time>2022-07-21T10:25:47Z</time>
      </trkpt>
      <trkpt lat="44.17043" lon="5.12529">
        <ele>374.3</ele>
        <time>2022-07-21T10:25:48Z</time>
      </trkpt>
      <trkpt lat="44.17052" lon="5.12527">
        <ele>374.1</ele>
        <time>2022-07-21T10:25:49Z</time>
      </trkpt>
      <trkpt lat="44.17061" lon="5.12526">
        <ele>373.9</ele>
        <time>2022-07-21T10:25:50Z</time>
      </trkpt>
      <trkpt lat="44.1707" lon="5.12526">
        <ele>373.6</ele>
        <time>2022-07-21T10:25:51Z</time>
      </trkpt>
      <trkpt lat="44.17079" lon="5.12526">
        <ele>373.4</ele>
        <time>2022-07-21T10:25:52Z</time>
      </trkpt>
      <trkpt lat="44.17088" lon="5.12526">
        <ele>373.2</ele>
        <time>2022-07-21T10:25:53Z</time>
      </trkpt>
      <trkpt lat="44.17097" lon="5.12526">
        <ele>373</ele>
        <time>2022-07-21T10:25:54Z</time>
      </trkpt>
      <trkpt lat="44.17105" lon="5.12533">
        <ele>372.7</ele>
        <time>2022-07-21T10:25:55Z</time>
      </trkpt>
      <trkpt lat="44.17112" lon="5.12541">
        <ele>372.4</ele>
        <time>2022-07-21T10:25:56Z</time>
      </trkpt>
      <trkpt lat="44.17119" lon="5.1255">
        <ele>372.2</ele>
        <time>2022-07-21T10:25:57Z</time>
      </trkpt>
      <trkpt lat="44.17125" lon="5.1256">
        <ele>372</ele>
        <time>2022-07-21T10:25:58Z</time>
      </trkpt>
      <trkpt lat="44.17131" lon="5.12571">
        <ele>371.7</ele>
        <time>2022-07-21T10:25:59Z</time>
      </trkpt>
      <trkpt lat="44.17127" lon="5.12582">
        <ele>371.5</ele>
        <time>2022-07-21T10:26:00Z</time>
      </trkpt>
      <trkpt lat="44.1712" lon="5.12607">
        <ele>370.7</ele>
        <time>2022-07-21T10:26:01Z</time>
      </trkpt>
      <trkpt lat="44.17111" lon="5.12617">
        <ele>370.2</ele>
        <time>2022-07-21T10:26:02Z</time>
      </trkpt>
      <trkpt lat="44.17104" lon="5.12625">
        <ele>369.9</ele>
        <time>2022-07-21T10:26:03Z</time>
      </trkpt>
      <trkpt lat="44.17096" lon="5.12632">
        <ele>369.5</ele>
        <time>2022-07-21T10:26:04Z</time>
      </trkpt>
      <trkpt lat="44.17088" lon="5.12639">
        <ele>369.2</ele>
        <time>2022-07-21T10:26:05Z</time>
      </trkpt>
      <trkpt lat="44.1708" lon="5.12645">
        <ele>368.8</ele>
        <time>2022-07-21T10:26:06Z</time>
      </trkpt>
      <trkpt lat="44.17071" lon="5.12652">
        <ele>368.4</ele>
        <time>2022-07-21T10:26:07Z</time>
      </trkpt>
      <trkpt lat="44.17063" lon="5.12658">
        <ele>368.1</ele>
        <time>2022-07-21T10:26:08Z</time>
      </trkpt>
      <trkpt lat="44.17055" lon="5.12664">
        <ele>367.7</ele>
        <time>2022-07-21T10:26:09Z</time>
      </trkpt>
      <trkpt lat="44.17047" lon="5.12671">
        <ele>367.4</ele>
        <time>2022-07-21T10:26:10Z</time>
      </trkpt>
      <trkpt lat="44.17038" lon="5.12677">
        <ele>367.2</ele>
        <time>2022-07-21T10:26:11Z</time>
      </trkpt>
      <trkpt lat="44.1703" lon="5.12683">
        <ele>367.1</ele>
        <time>2022-07-21T10:26:12Z</time>
      </trkpt>
      <trkpt lat="44.17023" lon="5.1269">
        <ele>366.8</ele>
        <time>2022-07-21T10:26:13Z</time>
      </trkpt>
      <trkpt lat="44.17014" lon="5.12696">
        <ele>366.4</ele>
        <time>2022-07-21T10:26:14Z</time>
      </trkpt>
      <trkpt lat="44.17005" lon="5.12703">
        <ele>366</ele>
        <time>2022-07-21T10:26:15Z</time>
      </trkpt>
      <trkpt lat="44.16996" lon="5.1271">
        <ele>365.5</ele>
        <time>2022-07-21T10:26:16Z</time>
      </trkpt>
      <trkpt lat="44.16987" lon="5.12717">
        <ele>365.1</ele>
        <time>2022-07-21T10:26:17Z</time>
      </trkpt>
      <trkpt lat="44.16978" lon="5.12724">
        <ele>364.6</ele>
        <time>2022-07-21T10:26:18Z</time>
      </trkpt>
      <trkpt lat="44.16969" lon="5.12732">
        <ele>364.2</ele>
        <time>2022-07-21T10:26:19Z</time>
      </trkpt>
      <trkpt lat="44.16961" lon="5.12739">
        <ele>363.7</ele>
        <time>2022-07-21T10:26:20Z</time>
      </trkpt>
      <trkpt lat="44.16953" lon="5.1275">
        <ele>363.3</ele>
        <time>2022-07-21T10:26:21Z</time>
      </trkpt>
      <trkpt lat="44.16946" lon="5.12761">
        <ele>362.9</ele>
        <time>2022-07-21T10:26:22Z</time>
      </trkpt>
      <trkpt lat="44.1694" lon="5.12773">
        <ele>362.5</ele>
        <time>2022-07-21T10:26:23Z</time>
      </trkpt>
      <trkpt lat="44.16935" lon="5.12787">
        <ele>362</ele>
        <time>2022-07-21T10:26:24Z</time>
      </trkpt>
      <trkpt lat="44.1693" lon="5.12801">
        <ele>361.5</ele>
        <time>2022-07-21T10:26:25Z</time>
      </trkpt>
      <trkpt lat="44.16926" lon="5.12814">
        <ele>361.1</ele>
        <time>2022-07-21T10:26:26Z</time>
      </trkpt>
      <trkpt lat="44.16923" lon="5.12829">
        <ele>360.7</ele>
        <time>2022-07-21T10:26:27Z</time>
      </trkpt>
      <trkpt lat="44.16919" lon="5.12843">
        <ele>360.2</ele>
        <time>2022-07-21T10:26:28Z</time>
      </trkpt>
      <trkpt lat="44.16916" lon="5.12858">
        <ele>360</ele>
        <time>2022-07-21T10:26:29Z</time>
      </trkpt>
      <trkpt lat="44.16913" lon="5.12871">
        <ele>359.8</ele>
        <time>2022-07-21T10:26:30Z</time>
      </trkpt>
      <trkpt lat="44.1691" lon="5.12885">
        <ele>359.6</ele>
        <time>2022-07-21T10:26:31Z</time>
      </trkpt>
      <trkpt lat="44.16907" lon="5.12898">
        <ele>359.2</ele>
        <time>2022-07-21T10:26:32Z</time>
      </trkpt>
      <trkpt lat="44.16904" lon="5.12911">
        <ele>358.8</ele>
        <time>2022-07-21T10:26:33Z</time>
      </trkpt>
      <trkpt lat="44.16901" lon="5.12923">
        <ele>358.4</ele>
        <time>2022-07-21T10:26:34Z</time>
      </trkpt>
      <trkpt lat="44.16897" lon="5.12936">
        <ele>357.9</ele>
        <time>2022-07-21T10:26:35Z</time>
      </trkpt>
      <trkpt lat="44.16895" lon="5.12948">
        <ele>357.5</ele>
        <time>2022-07-21T10:26:36Z</time>
      </trkpt>
      <trkpt lat="44.16892" lon="5.1296">
        <ele>357.1</ele>
        <time>2022-07-21T10:26:37Z</time>
      </trkpt>
      <trkpt lat="44.1689" lon="5.12972">
        <ele>356.7</ele>
        <time>2022-07-21T10:26:38Z</time>
      </trkpt>
      <trkpt lat="44.16886" lon="5.12983">
        <ele>356.2</ele>
        <time>2022-07-21T10:26:39Z</time>
      </trkpt>
      <trkpt lat="44.16884" lon="5.12994">
        <ele>355.8</ele>
        <time>2022-07-21T10:26:40Z</time>
      </trkpt>
      <trkpt lat="44.16881" lon="5.13003">
        <ele>355.4</ele>
        <time>2022-07-21T10:26:41Z</time>
      </trkpt>
      <trkpt lat="44.16879" lon="5.13013">
        <ele>355.1</ele>
        <time>2022-07-21T10:26:42Z</time>
      </trkpt>
      <trkpt lat="44.16877" lon="5.13023">
        <ele>354.8</ele>
        <time>2022-07-21T10:26:43Z</time>
      </trkpt>
      <trkpt lat="44.16876" lon="5.13033">
        <ele>354.4</ele>
        <time>2022-07-21T10:26:44Z</time>
      </trkpt>
      <trkpt lat="44.16874" lon="5.13044">
        <ele>354</ele>
        <time>2022-07-21T10:26:45Z</time>
      </trkpt>
      <trkpt lat="44.16874" lon="5.13056">
        <ele>353.6</ele>
        <time>2022-07-21T10:26:46Z</time>
      </trkpt>
      <trkpt lat="44.16875" lon="5.13068">
        <ele>353.3</ele>
        <time>2022-07-21T10:26:47Z</time>
      </trkpt>
      <trkpt lat="44.16878" lon="5.13079">
        <ele>352.9</ele>
        <time>2022-07-21T10:26:48Z</time>
      </trkpt>
      <trkpt lat="44.16882" lon="5.1309">
        <ele>352.5</ele>
        <time>2022-07-21T10:26:49Z</time>
      </trkpt>
      <trkpt lat="44.16888" lon="5.13098">
        <ele>352.2</ele>
        <time>2022-07-21T10:26:50Z</time>
      </trkpt>
      <trkpt lat="44.16894" lon="5.13105">
        <ele>351.8</ele>
        <time>2022-07-21T10:26:51Z</time>
      </trkpt>
      <trkpt lat="44.16902" lon="5.13111">
        <ele>351.4</ele>
        <time>2022-07-21T10:26:52Z</time>
      </trkpt>
      <trkpt lat="44.1691" lon="5.13115">
        <ele>351.1</ele>
        <time>2022-07-21T10:26:53Z</time>
      </trkpt>
      <trkpt lat="44.16919" lon="5.13119">
        <ele>350.7</ele>
        <time>2022-07-21T10:26:54Z</time>
      </trkpt>
      <trkpt lat="44.16928" lon="5.13123">
        <ele>350.3</ele>
        <time>2022-07-21T10:26:55Z</time>
      </trkpt>
      <trkpt lat="44.16936" lon="5.13126">
        <ele>349.9</ele>
        <time>2022-07-21T10:26:56Z</time>
      </trkpt>
      <trkpt lat="44.16946" lon="5.13127">
        <ele>349.5</ele>
        <time>2022-07-21T10:26:57Z</time>
      </trkpt>
      <trkpt lat="44.16955" lon="5.13131">
        <ele>349.3</ele>
        <time>2022-07-21T10:26:58Z</time>
      </trkpt>
      <trkpt lat="44.16964" lon="5.13135">
        <ele>348.9</ele>
        <time>2022-07-21T10:26:59Z</time>
      </trkpt>
      <trkpt lat="44.16973" lon="5.13139">
        <ele>348.5</ele>
        <time>2022-07-21T10:27:00Z</time>
      </trkpt>
      <trkpt lat="44.16981" lon="5.13143">
        <ele>348</ele>
        <time>2022-07-21T10:27:01Z</time>
      </trkpt>
      <trkpt lat="44.16989" lon="5.13147">
        <ele>347.6</ele>
        <time>2022-07-21T10:27:02Z</time>
      </trkpt>
      <trkpt lat="44.16998" lon="5.1315">
        <ele>347.1</ele>
        <time>2022-07-21T10:27:03Z</time>
      </trkpt>
      <trkpt lat="44.17006" lon="5.13154">
        <ele>346.7</ele>
        <time>2022-07-21T10:27:04Z</time>
      </trkpt>
      <trkpt lat="44.17014" lon="5.13157">
        <ele>346.2</ele>
        <time>2022-07-21T10:27:05Z</time>
      </trkpt>
      <trkpt lat="44.17022" lon="5.13161">
        <ele>345.8</ele>
        <time>2022-07-21T10:27:06Z</time>
      </trkpt>
      <trkpt lat="44.1703" lon="5.13164">
        <ele>345.4</ele>
        <time>2022-07-21T10:27:07Z</time>
      </trkpt>
      <trkpt lat="44.17041" lon="5.13169">
        <ele>344.9</ele>
        <time>2022-07-21T10:27:08Z</time>
      </trkpt>
      <trkpt lat="44.1705" lon="5.13173">
        <ele>344.4</ele>
        <time>2022-07-21T10:27:09Z</time>
      </trkpt>
      <trkpt lat="44.17057" lon="5.13178">
        <ele>344</ele>
        <time>2022-07-21T10:27:10Z</time>
      </trkpt>
      <trkpt lat="44.17066" lon="5.13182">
        <ele>343.6</ele>
        <time>2022-07-21T10:27:11Z</time>
      </trkpt>
      <trkpt lat="44.17074" lon="5.13186">
        <ele>343.2</ele>
        <time>2022-07-21T10:27:12Z</time>
      </trkpt>
      <trkpt lat="44.17081" lon="5.13189">
        <ele>342.9</ele>
        <time>2022-07-21T10:27:13Z</time>
      </trkpt>
      <trkpt lat="44.17089" lon="5.13194">
        <ele>342.5</ele>
        <time>2022-07-21T10:27:14Z</time>
      </trkpt>
      <trkpt lat="44.17098" lon="5.13197">
        <ele>342.1</ele>
        <time>2022-07-21T10:27:15Z</time>
      </trkpt>
      <trkpt lat="44.17106" lon="5.132">
        <ele>341.7</ele>
        <time>2022-07-21T10:27:16Z</time>
      </trkpt>
      <trkpt lat="44.17113" lon="5.13204">
        <ele>341.4</ele>
        <time>2022-07-21T10:27:17Z</time>
      </trkpt>
      <trkpt lat="44.1712" lon="5.13207">
        <ele>341.1</ele>
        <time>2022-07-21T10:27:18Z</time>
      </trkpt>
      <trkpt lat="44.17124" lon="5.13209">
        <ele>341</ele>
        <time>2022-07-21T10:27:19Z</time>
      </trkpt>
      <trkpt lat="44.17131" lon="5.13213">
        <ele>340.8</ele>
        <time>2022-07-21T10:27:20Z</time>
      </trkpt>
      <trkpt lat="44.17137" lon="5.13215">
        <ele>340.6</ele>
        <time>2022-07-21T10:27:21Z</time>
      </trkpt>
      <trkpt lat="44.17142" lon="5.13219">
        <ele>340.5</ele>
        <time>2022-07-21T10:27:22Z</time>
      </trkpt>
      <trkpt lat="44.17145" lon="5.13221">
        <ele>340.5</ele>
        <time>2022-07-21T10:27:23Z</time>
      </trkpt>
      <trkpt lat="44.17149" lon="5.13224">
        <ele>340.6</ele>
        <time>2022-07-21T10:27:24Z</time>
      </trkpt>
      <trkpt lat="44.17153" lon="5.13226">
        <ele>340.6</ele>
        <time>2022-07-21T10:27:25Z</time>
      </trkpt>
      <trkpt lat="44.17155" lon="5.13227">
        <ele>340.6</ele>
        <time>2022-07-21T10:27:26Z</time>
      </trkpt>
      <trkpt lat="44.17159" lon="5.13226">
        <ele>340.6</ele>
        <time>2022-07-21T10:27:27Z</time>
      </trkpt>
      <trkpt lat="44.17163" lon="5.13225">
        <ele>340.6</ele>
        <time>2022-07-21T10:27:28Z</time>
      </trkpt>
      <trkpt lat="44.17166" lon="5.13224">
        <ele>340.5</ele>
        <time>2022-07-21T10:27:29Z</time>
      </trkpt>
      <trkpt lat="44.17169" lon="5.13223">
        <ele>340.5</ele>
        <time>2022-07-21T10:27:30Z</time>
      </trkpt>
      <trkpt lat="44.17171" lon="5.13219">
        <ele>340.3</ele>
        <time>2022-07-21T10:27:31Z</time>
      </trkpt>
      <trkpt lat="44.17173" lon="5.13215">
        <ele>340.1</ele>
        <time>2022-07-21T10:27:32Z</time>
      </trkpt>
      <trkpt lat="44.17174" lon="5.13214">
        <ele>340</ele>
        <time>2022-07-21T10:27:33Z</time>
      </trkpt>
      <trkpt lat="44.17174" lon="5.13211">
        <ele>339.9</ele>
        <time>2022-07-21T10:27:34Z</time>
      </trkpt>
      <trkpt lat="44.17174" lon="5.1321">
        <ele>339.9</ele>
        <time>2022-07-21T10:27:35Z</time>
      </trkpt>
      <trkpt lat="44.17175" lon="5.13209">
        <ele>339.8</ele>
        <time>2022-07-21T10:27:36Z</time>
      </trkpt>
      <trkpt lat="44.17175" lon="5.13207">
        <ele>339.7</ele>
        <time>2022-07-21T10:27:37Z</time>
      </trkpt>
      <trkpt lat="44.17175" lon="5.13206">
        <ele>339.7</ele>
        <time>2022-07-21T10:27:38Z</time>
      </trkpt>
      <trkpt lat="44.17175" lon="5.13206">
        <ele>339.7</ele>
        <time>2022-07-21T10:27:39Z</time>
      </trkpt>
      <trkpt lat="44.17175" lon="5.13206">
        <ele>339.7</ele>
        <time>2022-07-21T10:27:40Z</time>
      </trkpt>
      <trkpt lat="44.17175" lon="5.13205">
        <ele>339.7</ele>
        <time>2022-07-21T10:27:41Z</time>
      </trkpt>
      <trkpt lat="44.17175" lon="5.13205">
        <ele>339.6</ele>
        <time>2022-07-21T10:27:42Z</time>
      </trkpt>
      <trkpt lat="44.17175" lon="5.13204">
        <ele>339.6</ele>
        <time>2022-07-21T10:27:43Z</time>
      </trkpt>
      <trkpt lat="44.17175" lon="5.13204">
        <ele>339.6</ele>
        <time>2022-07-21T10:27:44Z</time>
      </trkpt>
      <trkpt lat="44.17175" lon="5.13203">
        <ele>339.6</ele>
        <time>2022-07-21T10:27:45Z</time>
      </trkpt>
      <trkpt lat="44.17175" lon="5.13203">
        <ele>339.6</ele>
        <time>2022-07-21T10:27:46Z</time>
      </trkpt>
      <trkpt lat="44.17175" lon="5.13203">
        <ele>339.6</ele>
        <time>2022-07-21T10:27:47Z</time>
      </trkpt>
      <trkpt lat="44.17175" lon="5.13204">
        <ele>339.5</ele>
        <time>2022-07-21T10:27:48Z</time>
      </trkpt>
      <trkpt lat="44.17175" lon="5.13205">
        <ele>339.5</ele>
        <time>2022-07-21T10:27:49Z</time>
      </trkpt>
      <trkpt lat="44.17175" lon="5.13206">
        <ele>339.5</ele>
        <time>2022-07-21T10:27:50Z</time>
      </trkpt>
      <trkpt lat="44.17175" lon="5.13207">
        <ele>339.5</ele>
        <time>2022-07-21T10:27:51Z</time>
      </trkpt>
      <trkpt lat="44.17175" lon="5.13208">
        <ele>339.5</ele>
        <time>2022-07-21T10:27:52Z</time>
      </trkpt>
      <trkpt lat="44.17175" lon="5.1321">
        <ele>339.5</ele>
        <time>2022-07-21T10:27:53Z</time>
      </trkpt>
      <trkpt lat="44.17175" lon="5.13211">
        <ele>339.5</ele>
        <time>2022-07-21T10:27:54Z</time>
      </trkpt>
      <trkpt lat="44.17175" lon="5.13212">
        <ele>339.5</ele>
        <time>2022-07-21T10:27:55Z</time>
      </trkpt>
      <trkpt lat="44.17176" lon="5.13212">
        <ele>339.5</ele>
        <time>2022-07-21T10:27:56Z</time>
      </trkpt>
      <trkpt lat="44.17176" lon="5.13212">
        <ele>339.5</ele>
        <time>2022-07-21T10:27:57Z</time>
      </trkpt>
      <trkpt lat="44.17176" lon="5.13213">
        <ele>339.5</ele>
        <time>2022-07-21T10:27:58Z</time>
      </trkpt>
      <trkpt lat="44.17176" lon="5.13213">
        <ele>339.5</ele>
        <time>2022-07-21T10:27:59Z</time>
      </trkpt>
      <trkpt lat="44.17176" lon="5.13214">
        <ele>339.5</ele>
        <time>2022-07-21T10:28:00Z</time>
      </trkpt>
      <trkpt lat="44.17177" lon="5.13215">
        <ele>339.5</ele>
        <time>2022-07-21T10:28:01Z</time>
      </trkpt>
      <trkpt lat="44.17177" lon="5.13215">
        <ele>339.5</ele>
        <time>2022-07-21T10:28:02Z</time>
      </trkpt>
      <trkpt lat="44.17177" lon="5.13218">
        <ele>339.5</ele>
        <time>2022-07-21T10:28:03Z</time>
      </trkpt>
      <trkpt lat="44.17178" lon="5.13219">
        <ele>339.5</ele>
        <time>2022-07-21T10:28:04Z</time>
      </trkpt>
      <trkpt lat="44.17178" lon="5.13221">
        <ele>339.5</ele>
        <time>2022-07-21T10:28:05Z</time>
      </trkpt>
      <trkpt lat="44.1718" lon="5.13225">
        <ele>339.4</ele>
        <time>2022-07-21T10:28:06Z</time>
      </trkpt>
      <trkpt lat="44.17181" lon="5.13227">
        <ele>339.4</ele>
        <time>2022-07-21T10:28:07Z</time>
      </trkpt>
      <trkpt lat="44.17182" lon="5.1323">
        <ele>339.4</ele>
        <time>2022-07-21T10:28:08Z</time>
      </trkpt>
      <trkpt lat="44.17184" lon="5.13234">
        <ele>339.3</ele>
        <time>2022-07-21T10:28:09Z</time>
      </trkpt>
      <trkpt lat="44.17185" lon="5.13238">
        <ele>339.2</ele>
        <time>2022-07-21T10:28:10Z</time>
      </trkpt>
      <trkpt lat="44.17187" lon="5.13243">
        <ele>339.1</ele>
        <time>2022-07-21T10:28:11Z</time>
      </trkpt>
      <trkpt lat="44.1719" lon="5.13248">
        <ele>339</ele>
        <time>2022-07-21T10:28:12Z</time>
      </trkpt>
      <trkpt lat="44.17192" lon="5.13253">
        <ele>338.8</ele>
        <time>2022-07-21T10:28:13Z</time>
      </trkpt>
      <trkpt lat="44.17194" lon="5.13258">
        <ele>338.7</ele>
        <time>2022-07-21T10:28:14Z</time>
      </trkpt>
      <trkpt lat="44.17196" lon="5.13264">
        <ele>338.5</ele>
        <time>2022-07-21T10:28:15Z</time>
      </trkpt>
      <trkpt lat="44.17197" lon="5.13269">
        <ele>338.4</ele>
        <time>2022-07-21T10:28:16Z</time>
      </trkpt>
      <trkpt lat="44.17199" lon="5.13276">
        <ele>338.2</ele>
        <time>2022-07-21T10:28:17Z</time>
      </trkpt>
      <trkpt lat="44.17201" lon="5.13283">
        <ele>338</ele>
        <time>2022-07-21T10:28:18Z</time>
      </trkpt>
      <trkpt lat="44.17202" lon="5.1329">
        <ele>337.8</ele>
        <time>2022-07-21T10:28:19Z</time>
      </trkpt>
      <trkpt lat="44.17203" lon="5.13295">
        <ele>337.7</ele>
        <time>2022-07-21T10:28:20Z</time>
      </trkpt>
      <trkpt lat="44.17203" lon="5.13297">
        <ele>337.6</ele>
        <time>2022-07-21T10:28:21Z</time>
      </trkpt>
      <trkpt lat="44.17204" lon="5.13302">
        <ele>337.5</ele>
        <time>2022-07-21T10:28:22Z</time>
      </trkpt>
      <trkpt lat="44.17206" lon="5.13306">
        <ele>337.4</ele>
        <time>2022-07-21T10:28:23Z</time>
      </trkpt>
      <trkpt lat="44.17207" lon="5.13314">
        <ele>337.1</ele>
        <time>2022-07-21T10:28:24Z</time>
      </trkpt>
      <trkpt lat="44.1722" lon="5.13322">
        <ele>336.4</ele>
        <time>2022-07-21T10:28:25Z</time>
      </trkpt>
      <trkpt lat="44.17225" lon="5.13328">
        <ele>336.1</ele>
        <time>2022-07-21T10:28:26Z</time>
      </trkpt>
      <trkpt lat="44.17236" lon="5.13337">
        <ele>335.5</ele>
        <time>2022-07-21T10:28:27Z</time>
      </trkpt>
      <trkpt lat="44.1724" lon="5.13342">
        <ele>335.2</ele>
        <time>2022-07-21T10:28:28Z</time>
      </trkpt>
      <trkpt lat="44.17246" lon="5.13344">
        <ele>334.9</ele>
        <time>2022-07-21T10:28:29Z</time>
      </trkpt>
      <trkpt lat="44.17254" lon="5.13352">
        <ele>334.4</ele>
        <time>2022-07-21T10:28:30Z</time>
      </trkpt>
      <trkpt lat="44.17262" lon="5.13356">
        <ele>334</ele>
        <time>2022-07-21T10:28:31Z</time>
      </trkpt>
      <trkpt lat="44.17268" lon="5.13359">
        <ele>333.7</ele>
        <time>2022-07-21T10:28:32Z</time>
      </trkpt>
      <trkpt lat="44.17274" lon="5.13359">
        <ele>333.4</ele>
        <time>2022-07-21T10:28:33Z</time>
      </trkpt>
      <trkpt lat="44.17281" lon="5.13361">
        <ele>333.1</ele>
        <time>2022-07-21T10:28:34Z</time>
      </trkpt>
      <trkpt lat="44.17285" lon="5.13364">
        <ele>332.9</ele>
        <time>2022-07-21T10:28:35Z</time>
      </trkpt>
      <trkpt lat="44.1729" lon="5.13364">
        <ele>332.6</ele>
        <time>2022-07-21T10:28:36Z</time>
      </trkpt>
      <trkpt lat="44.17297" lon="5.13366">
        <ele>332.3</ele>
        <time>2022-07-21T10:28:37Z</time>
      </trkpt>
      <trkpt lat="44.17303" lon="5.13368">
        <ele>332.1</ele>
        <time>2022-07-21T10:28:38Z</time>
      </trkpt>
      <trkpt lat="44.17309" lon="5.13371">
        <ele>331.8</ele>
        <time>2022-07-21T10:28:39Z</time>
      </trkpt>
      <trkpt lat="44.17314" lon="5.13372">
        <ele>331.6</ele>
        <time>2022-07-21T10:28:40Z</time>
      </trkpt>
      <trkpt lat="44.17321" lon="5.13374">
        <ele>331.4</ele>
        <time>2022-07-21T10:28:41Z</time>
      </trkpt>
      <trkpt lat="44.17325" lon="5.13375">
        <ele>331.2</ele>
        <time>2022-07-21T10:28:42Z</time>
      </trkpt>
      <trkpt lat="44.17332" lon="5.13372">
        <ele>330.8</ele>
        <time>2022-07-21T10:28:43Z</time>
      </trkpt>
      <trkpt lat="44.1734" lon="5.13369">
        <ele>330.4</ele>
        <time>2022-07-21T10:28:44Z</time>
      </trkpt>
      <trkpt lat="44.17346" lon="5.13366">
        <ele>330.1</ele>
        <time>2022-07-21T10:28:45Z</time>
      </trkpt>
      <trkpt lat="44.17351" lon="5.13362">
        <ele>329.8</ele>
        <time>2022-07-21T10:28:46Z</time>
      </trkpt>
      <trkpt lat="44.17356" lon="5.13357">
        <ele>329.6</ele>
        <time>2022-07-21T10:28:47Z</time>
      </trkpt>
      <trkpt lat="44.1736" lon="5.13354">
        <ele>329.4</ele>
        <time>2022-07-21T10:28:48Z</time>
      </trkpt>
      <trkpt lat="44.17365" lon="5.13351">
        <ele>329.2</ele>
        <time>2022-07-21T10:28:49Z</time>
      </trkpt>
      <trkpt lat="44.17371" lon="5.13347">
        <ele>329</ele>
        <time>2022-07-21T10:28:50Z</time>
      </trkpt>
      <trkpt lat="44.17376" lon="5.13344">
        <ele>328.8</ele>
        <time>2022-07-21T10:28:51Z</time>
      </trkpt>
      <trkpt lat="44.17381" lon="5.13339">
        <ele>328.6</ele>
        <time>2022-07-21T10:28:52Z</time>
      </trkpt>
      <trkpt lat="44.17386" lon="5.13335">
        <ele>328.5</ele>
        <time>2022-07-21T10:28:53Z</time>
      </trkpt>
      <trkpt lat="44.17391" lon="5.13331">
        <ele>328.4</ele>
        <time>2022-07-21T10:28:54Z</time>
      </trkpt>
      <trkpt lat="44.17395" lon="5.13324">
        <ele>328.2</ele>
        <time>2022-07-21T10:28:55Z</time>
      </trkpt>
      <trkpt lat="44.17401" lon="5.13319">
        <ele>328.1</ele>
        <time>2022-07-21T10:28:56Z</time>
      </trkpt>
      <trkpt lat="44.17406" lon="5.13314">
        <ele>328</ele>
        <time>2022-07-21T10:28:57Z</time>
      </trkpt>
      <trkpt lat="44.1741" lon="5.13309">
        <ele>327.8</ele>
        <time>2022-07-21T10:28:58Z</time>
      </trkpt>
      <trkpt lat="44.17415" lon="5.13301">
        <ele>327.6</ele>
        <time>2022-07-21T10:28:59Z</time>
      </trkpt>
      <trkpt lat="44.17419" lon="5.13297">
        <ele>327.4</ele>
        <time>2022-07-21T10:29:00Z</time>
      </trkpt>
      <trkpt lat="44.17425" lon="5.13289">
        <ele>327.1</ele>
        <time>2022-07-21T10:29:01Z</time>
      </trkpt>
      <trkpt lat="44.1743" lon="5.13284">
        <ele>326.9</ele>
        <time>2022-07-21T10:29:02Z</time>
      </trkpt>
      <trkpt lat="44.17435" lon="5.1328">
        <ele>326.7</ele>
        <time>2022-07-21T10:29:03Z</time>
      </trkpt>
      <trkpt lat="44.17441" lon="5.13275">
        <ele>326.4</ele>
        <time>2022-07-21T10:29:04Z</time>
      </trkpt>
      <trkpt lat="44.17446" lon="5.1327">
        <ele>326.2</ele>
        <time>2022-07-21T10:29:05Z</time>
      </trkpt>
      <trkpt lat="44.17452" lon="5.13265">
        <ele>326</ele>
        <time>2022-07-21T10:29:06Z</time>
      </trkpt>
      <trkpt lat="44.17457" lon="5.13261">
        <ele>325.8</ele>
        <time>2022-07-21T10:29:07Z</time>
      </trkpt>
      <trkpt lat="44.17463" lon="5.13256">
        <ele>325.6</ele>
        <time>2022-07-21T10:29:08Z</time>
      </trkpt>
      <trkpt lat="44.17469" lon="5.13251">
        <ele>325.4</ele>
        <time>2022-07-21T10:29:09Z</time>
      </trkpt>
      <trkpt lat="44.17474" lon="5.13246">
        <ele>325.2</ele>
        <time>2022-07-21T10:29:10Z</time>
      </trkpt>
      <trkpt lat="44.17479" lon="5.1324">
        <ele>325</ele>
        <time>2022-07-21T10:29:11Z</time>
      </trkpt>
      <trkpt lat="44.17484" lon="5.13234">
        <ele>324.7</ele>
        <time>2022-07-21T10:29:12Z</time>
      </trkpt>
      <trkpt lat="44.17489" lon="5.13227">
        <ele>324.5</ele>
        <time>2022-07-21T10:29:13Z</time>
      </trkpt>
      <trkpt lat="44.17494" lon="5.13222">
        <ele>324.3</ele>
        <time>2022-07-21T10:29:14Z</time>
      </trkpt>
      <trkpt lat="44.175" lon="5.13218">
        <ele>324.2</ele>
        <time>2022-07-21T10:29:15Z</time>
      </trkpt>
      <trkpt lat="44.17505" lon="5.13212">
        <ele>324</ele>
        <time>2022-07-21T10:29:16Z</time>
      </trkpt>
      <trkpt lat="44.1751" lon="5.13207">
        <ele>323.8</ele>
        <time>2022-07-21T10:29:17Z</time>
      </trkpt>
      <trkpt lat="44.17516" lon="5.132">
        <ele>323.6</ele>
        <time>2022-07-21T10:29:18Z</time>
      </trkpt>
      <trkpt lat="44.17521" lon="5.13196">
        <ele>323.4</ele>
        <time>2022-07-21T10:29:19Z</time>
      </trkpt>
      <trkpt lat="44.17527" lon="5.13191">
        <ele>323.2</ele>
        <time>2022-07-21T10:29:20Z</time>
      </trkpt>
      <trkpt lat="44.17532" lon="5.13186">
        <ele>323</ele>
        <time>2022-07-21T10:29:21Z</time>
      </trkpt>
      <trkpt lat="44.17538" lon="5.13182">
        <ele>322.8</ele>
        <time>2022-07-21T10:29:22Z</time>
      </trkpt>
      <trkpt lat="44.17543" lon="5.13176">
        <ele>322.7</ele>
        <time>2022-07-21T10:29:23Z</time>
      </trkpt>
      <trkpt lat="44.17547" lon="5.1317">
        <ele>322.6</ele>
        <time>2022-07-21T10:29:24Z</time>
      </trkpt>
      <trkpt lat="44.17551" lon="5.13161">
        <ele>322.4</ele>
        <time>2022-07-21T10:29:25Z</time>
      </trkpt>
      <trkpt lat="44.17554" lon="5.13152">
        <ele>322.2</ele>
        <time>2022-07-21T10:29:26Z</time>
      </trkpt>
      <trkpt lat="44.17556" lon="5.13146">
        <ele>322</ele>
        <time>2022-07-21T10:29:27Z</time>
      </trkpt>
      <trkpt lat="44.17558" lon="5.1314">
        <ele>321.8</ele>
        <time>2022-07-21T10:29:28Z</time>
      </trkpt>
      <trkpt lat="44.1756" lon="5.13131">
        <ele>321.6</ele>
        <time>2022-07-21T10:29:29Z</time>
      </trkpt>
      <trkpt lat="44.17562" lon="5.13123">
        <ele>321.5</ele>
        <time>2022-07-21T10:29:30Z</time>
      </trkpt>
      <trkpt lat="44.17563" lon="5.13115">
        <ele>321.4</ele>
        <time>2022-07-21T10:29:31Z</time>
      </trkpt>
      <trkpt lat="44.17564" lon="5.13108">
        <ele>321.3</ele>
        <time>2022-07-21T10:29:32Z</time>
      </trkpt>
      <trkpt lat="44.17566" lon="5.131">
        <ele>321.1</ele>
        <time>2022-07-21T10:29:33Z</time>
      </trkpt>
      <trkpt lat="44.17567" lon="5.13093">
        <ele>321</ele>
        <time>2022-07-21T10:29:34Z</time>
      </trkpt>
      <trkpt lat="44.17568" lon="5.13086">
        <ele>321</ele>
        <time>2022-07-21T10:29:35Z</time>
      </trkpt>
      <trkpt lat="44.17569" lon="5.13079">
        <ele>320.9</ele>
        <time>2022-07-21T10:29:36Z</time>
      </trkpt>
      <trkpt lat="44.17569" lon="5.13072">
        <ele>320.8</ele>
        <time>2022-07-21T10:29:37Z</time>
      </trkpt>
      <trkpt lat="44.17569" lon="5.13066">
        <ele>320.7</ele>
        <time>2022-07-21T10:29:38Z</time>
      </trkpt>
      <trkpt lat="44.17568" lon="5.13059">
        <ele>320.7</ele>
        <time>2022-07-21T10:29:39Z</time>
      </trkpt>
      <trkpt lat="44.17567" lon="5.13053">
        <ele>320.6</ele>
        <time>2022-07-21T10:29:40Z</time>
      </trkpt>
      <trkpt lat="44.17566" lon="5.13047">
        <ele>320.6</ele>
        <time>2022-07-21T10:29:41Z</time>
      </trkpt>
      <trkpt lat="44.17564" lon="5.1304">
        <ele>320.5</ele>
        <time>2022-07-21T10:29:42Z</time>
      </trkpt>
      <trkpt lat="44.17563" lon="5.13034">
        <ele>320.4</ele>
        <time>2022-07-21T10:29:43Z</time>
      </trkpt>
      <trkpt lat="44.17562" lon="5.13028">
        <ele>320.4</ele>
        <time>2022-07-21T10:29:44Z</time>
      </trkpt>
      <trkpt lat="44.1756" lon="5.13021">
        <ele>320.3</ele>
        <time>2022-07-21T10:29:45Z</time>
      </trkpt>
      <trkpt lat="44.17559" lon="5.13013">
        <ele>320.2</ele>
        <time>2022-07-21T10:29:46Z</time>
      </trkpt>
      <trkpt lat="44.17557" lon="5.13006">
        <ele>320.2</ele>
        <time>2022-07-21T10:29:47Z</time>
      </trkpt>
      <trkpt lat="44.17556" lon="5.12999">
        <ele>320.1</ele>
        <time>2022-07-21T10:29:48Z</time>
      </trkpt>
      <trkpt lat="44.17555" lon="5.12992">
        <ele>320</ele>
        <time>2022-07-21T10:29:49Z</time>
      </trkpt>
      <trkpt lat="44.17554" lon="5.12987">
        <ele>320</ele>
        <time>2022-07-21T10:29:50Z</time>
      </trkpt>
      <trkpt lat="44.17553" lon="5.12982">
        <ele>320</ele>
        <time>2022-07-21T10:29:51Z</time>
      </trkpt>
      <trkpt lat="44.17553" lon="5.1298">
        <ele>319.9</ele>
        <time>2022-07-21T10:29:52Z</time>
      </trkpt>
      <trkpt lat="44.17553" lon="5.12975">
        <ele>319.9</ele>
        <time>2022-07-21T10:29:53Z</time>
      </trkpt>
      <trkpt lat="44.17554" lon="5.12969">
        <ele>319.8</ele>
        <time>2022-07-21T10:29:54Z</time>
      </trkpt>
      <trkpt lat="44.17552" lon="5.12964">
        <ele>319.5</ele>
        <time>2022-07-21T10:29:55Z</time>
      </trkpt>
      <trkpt lat="44.1755" lon="5.12959">
        <ele>319.4</ele>
        <time>2022-07-21T10:29:56Z</time>
      </trkpt>
      <trkpt lat="44.17546" lon="5.12957">
        <ele>319.3</ele>
        <time>2022-07-21T10:29:57Z</time>
      </trkpt>
      <trkpt lat="44.17542" lon="5.12957">
        <ele>319.2</ele>
        <time>2022-07-21T10:29:58Z</time>
      </trkpt>
      <trkpt lat="44.17538" lon="5.12957">
        <ele>319.5</ele>
        <time>2022-07-21T10:29:59Z</time>
      </trkpt>
      <trkpt lat="44.17535" lon="5.12959">
        <ele>319.6</ele>
        <time>2022-07-21T10:30:00Z</time>
      </trkpt>
      <trkpt lat="44.17531" lon="5.1296">
        <ele>319.7</ele>
        <time>2022-07-21T10:30:01Z</time>
      </trkpt>
      <trkpt lat="44.17527" lon="5.12962">
        <ele>319.9</ele>
        <time>2022-07-21T10:30:02Z</time>
      </trkpt>
      <trkpt lat="44.17524" lon="5.12964">
        <ele>320</ele>
        <time>2022-07-21T10:30:03Z</time>
      </trkpt>
      <trkpt lat="44.17521" lon="5.12965">
        <ele>320.1</ele>
        <time>2022-07-21T10:30:04Z</time>
      </trkpt>
      <trkpt lat="44.17518" lon="5.12965">
        <ele>320.2</ele>
        <time>2022-07-21T10:30:05Z</time>
      </trkpt>
      <trkpt lat="44.17515" lon="5.12965">
        <ele>320.4</ele>
        <time>2022-07-21T10:30:06Z</time>
      </trkpt>
      <trkpt lat="44.17512" lon="5.12961">
        <ele>320.5</ele>
        <time>2022-07-21T10:30:07Z</time>
      </trkpt>
      <trkpt lat="44.17512" lon="5.1296">
        <ele>321.1</ele>
        <time>2022-07-21T10:30:08Z</time>
      </trkpt>
      <trkpt lat="44.17511" lon="5.12956">
        <ele>321.5</ele>
        <time>2022-07-21T10:30:09Z</time>
      </trkpt>
      <trkpt lat="44.17511" lon="5.12952">
        <ele>321.9</ele>
        <time>2022-07-21T10:30:10Z</time>
      </trkpt>
      <trkpt lat="44.1751" lon="5.12947">
        <ele>321.8</ele>
        <time>2022-07-21T10:30:11Z</time>
      </trkpt>
      <trkpt lat="44.17509" lon="5.12943">
        <ele>321.6</ele>
        <time>2022-07-21T10:30:12Z</time>
      </trkpt>
      <trkpt lat="44.17508" lon="5.12938">
        <ele>321.4</ele>
        <time>2022-07-21T10:30:13Z</time>
      </trkpt>
      <trkpt lat="44.17507" lon="5.12933">
        <ele>321.4</ele>
        <time>2022-07-21T10:30:14Z</time>
      </trkpt>
      <trkpt lat="44.17507" lon="5.12928">
        <ele>321.5</ele>
        <time>2022-07-21T10:30:15Z</time>
      </trkpt>
      <trkpt lat="44.17507" lon="5.12923">
        <ele>321.5</ele>
        <time>2022-07-21T10:30:16Z</time>
      </trkpt>
      <trkpt lat="44.17507" lon="5.12918">
        <ele>321.6</ele>
        <time>2022-07-21T10:30:17Z</time>
      </trkpt>
      <trkpt lat="44.17507" lon="5.12914">
        <ele>321.7</ele>
        <time>2022-07-21T10:30:18Z</time>
      </trkpt>
      <trkpt lat="44.17507" lon="5.1291">
        <ele>321.7</ele>
        <time>2022-07-21T10:30:19Z</time>
      </trkpt>
      <trkpt lat="44.17508" lon="5.12906">
        <ele>321.8</ele>
        <time>2022-07-21T10:30:20Z</time>
      </trkpt>
      <trkpt lat="44.17508" lon="5.12904">
        <ele>321.8</ele>
        <time>2022-07-21T10:30:21Z</time>
      </trkpt>
      <trkpt lat="44.17508" lon="5.12903">
        <ele>321.8</ele>
        <time>2022-07-21T10:30:22Z</time>
      </trkpt>
      <trkpt lat="44.17508" lon="5.12902">
        <ele>321.8</ele>
        <time>2022-07-21T10:30:23Z</time>
      </trkpt>
      <trkpt lat="44.17508" lon="5.12902">
        <ele>321.8</ele>
        <time>2022-07-21T10:30:24Z</time>
      </trkpt>
      <trkpt lat="44.17508" lon="5.12902">
        <ele>321.8</ele>
        <time>2022-07-21T10:30:25Z</time>
      </trkpt>
      <trkpt lat="44.17508" lon="5.12902">
        <ele>321.8</ele>
        <time>2022-07-21T10:30:26Z</time>
      </trkpt>
      <trkpt lat="44.17508" lon="5.12902">
        <ele>321.8</ele>
        <time>2022-07-21T10:30:27Z</time>
      </trkpt>
      <trkpt lat="44.17508" lon="5.12902">
        <ele>321.8</ele>
        <time>2022-07-21T10:30:28Z</time>
      </trkpt>
      <trkpt lat="44.17508" lon="5.12902">
        <ele>321.8</ele>
        <time>2022-07-21T10:30:29Z</time>
      </trkpt>
      <trkpt lat="44.17507" lon="5.12902">
        <ele>321.8</ele>
        <time>2022-07-21T10:30:30Z</time>
      </trkpt>
      <trkpt lat="44.17507" lon="5.12902">
        <ele>321.8</ele>
        <time>2022-07-21T10:30:31Z</time>
      </trkpt>
      <trkpt lat="44.17507" lon="5.12902">
        <ele>321.8</ele>
        <time>2022-07-21T10:30:32Z</time>
      </trkpt>
      <trkpt lat="44.17507" lon="5.12902">
        <ele>321.8</ele>
        <time>2022-07-21T10:30:33Z</time>
      </trkpt>
      <trkpt lat="44.17507" lon="5.12902">
        <ele>321.8</ele>
        <time>2022-07-21T10:30:34Z</time>
      </trkpt>
      <trkpt lat="44.17507" lon="5.12902">
        <ele>321.8</ele>
        <time>2022-07-21T10:30:35Z</time>
      </trkpt>
      <trkpt lat="44.17507" lon="5.12902">
        <ele>321.8</ele>
        <time>2022-07-21T10:30:36Z</time>
      </trkpt>
      <trkpt lat="44.17507" lon="5.12902">
        <ele>321.8</ele>
        <time>2022-07-21T10:30:37Z</time>
      </trkpt>
      <trkpt lat="44.17507" lon="5.12902">
        <ele>321.8</ele>
        <time>2022-07-21T10:30:38Z</time>
      </trkpt>
      <trkpt lat="44.17507" lon="5.12902">
        <ele>321.8</ele>
        <time>2022-07-21T10:30:39Z</time>
      </trkpt>
      <trkpt lat="44.17507" lon="5.12902">
        <ele>321.8</ele>
        <time>2022-07-21T10:30:40Z</time>
      </trkpt>
    </trkseg>
  </trk>
</gpx>